<?xml version="1.0" encoding="UTF-8" standalone="no" ?><gpx xmlns="http://www.topografix.com/GPX/1/1" xmlns:gpxx="http://www.garmin.com/xmlschemas/GpxExtensions/v3" xmlns:wptx1="http://www.garmin.com/xmlschemas/WaypointExtension/v1" xmlns:gpxtpx="http://www.garmin.com/xmlschemas/TrackPointExtension/v1" creator="Alpha 100 EMEA/APAC" version="1.1" xmlns:xsi="http://www.w3.org/2001/XMLSchema-instance" xsi:schemaLocation="http://www.topografix.com/GPX/1/1 http://www.topografix.com/GPX/1/1/gpx.xsd http://www.garmin.com/xmlschemas/GpxExtensions/v3 http://www8.garmin.com/xmlschemas/GpxExtensionsv3.xsd http://www.garmin.com/xmlschemas/WaypointExtension/v1 http://www8.garmin.com/xmlschemas/WaypointExtensionv1.xsd http://www.garmin.com/xmlschemas/TrackPointExtension/v1 http://www.garmin.com/xmlschemas/TrackPointExtensionv1.xsd"><metadata><link href="http://www.garmin.com"><text>Garmin International</text></link><time>2026-04-25T19:07:28Z</time></metadata><trk><name>2026-04-25 23:07:27</name><extensions><gpxx:TrackExtension><gpxx:DisplayColor>DarkGreen</gpxx:DisplayColor></gpxx:TrackExtension></extensions><trkseg><trkpt lat="59.0566849709" lon="29.9821186066"><time>2026-04-25T13:37:14Z</time></trkpt><trkpt lat="59.0567278862" lon="29.9821186066"><time>2026-04-25T13:37:19Z</time></trkpt><trkpt lat="59.0567493439" lon="29.9820971489"><time>2026-04-25T13:37:22Z</time></trkpt><trkpt lat="59.0567922592" lon="29.9820327759"><time>2026-04-25T13:37:27Z</time></trkpt><trkpt lat="59.0568351746" lon="29.9820542336"><time>2026-04-25T13:37:29Z</time></trkpt><trkpt lat="59.0568780899" lon="29.9820756912"><time>2026-04-25T13:37:32Z</time></trkpt><trkpt lat="59.0568995476" lon="29.9821186066"><time>2026-04-25T13:37:34Z</time></trkpt><trkpt lat="59.0568995476" lon="29.9821186066"><time>2026-04-25T13:37:37Z</time></trkpt><trkpt lat="59.0569210052" lon="29.9821186066"><time>2026-04-25T13:37:39Z</time></trkpt><trkpt lat="59.0569639206" lon="29.9821400642"><time>2026-04-25T13:37:42Z</time></trkpt><trkpt lat="59.0569639206" lon="29.9821829796"><time>2026-04-25T13:37:44Z</time></trkpt><trkpt lat="59.0569853783" lon="29.9822258949"><time>2026-04-25T13:37:47Z</time></trkpt><trkpt lat="59.0570068359" lon="29.9822473526"><time>2026-04-25T13:37:49Z</time></trkpt><trkpt lat="59.0570068359" lon="29.9822473526"><time>2026-04-25T13:37:52Z</time></trkpt><trkpt lat="59.0570282936" lon="29.9822473526"><time>2026-04-25T13:37:54Z</time></trkpt><trkpt lat="59.0570497513" lon="29.9822473526"><time>2026-04-25T13:37:57Z</time></trkpt><trkpt lat="59.0570712090" lon="29.9822258949"><time>2026-04-25T13:37:59Z</time></trkpt><trkpt lat="59.0570926666" lon="29.9822044373"><time>2026-04-25T13:38:02Z</time></trkpt><trkpt lat="59.0570712090" lon="29.9822044373"><time>2026-04-25T13:38:04Z</time></trkpt><trkpt lat="59.0570712090" lon="29.9822258949"><time>2026-04-25T13:38:07Z</time></trkpt><trkpt lat="59.0570712090" lon="29.9822258949"><time>2026-04-25T13:38:09Z</time></trkpt><trkpt lat="59.0570712090" lon="29.9822044373"><time>2026-04-25T13:38:12Z</time></trkpt><trkpt lat="59.0570926666" lon="29.9822044373"><time>2026-04-25T13:38:14Z</time></trkpt><trkpt lat="59.0571141243" lon="29.9822044373"><time>2026-04-25T13:38:17Z</time></trkpt><trkpt lat="59.0571141243" lon="29.9822044373"><time>2026-04-25T13:38:19Z</time></trkpt><trkpt lat="59.0571141243" lon="29.9822044373"><time>2026-04-25T13:38:22Z</time></trkpt><trkpt lat="59.0570926666" lon="29.9822044373"><time>2026-04-25T13:38:24Z</time></trkpt><trkpt lat="59.0570926666" lon="29.9821829796"><time>2026-04-25T13:38:27Z</time></trkpt><trkpt lat="59.0570926666" lon="29.9821829796"><time>2026-04-25T13:38:29Z</time></trkpt><trkpt lat="59.0570926666" lon="29.9821829796"><time>2026-04-25T13:38:32Z</time></trkpt><trkpt lat="59.0570926666" lon="29.9821829796"><time>2026-04-25T13:38:34Z</time></trkpt><trkpt lat="59.0571141243" lon="29.9821829796"><time>2026-04-25T13:38:37Z</time></trkpt><trkpt lat="59.0571141243" lon="29.9821829796"><time>2026-04-25T13:38:39Z</time></trkpt><trkpt lat="59.0571355820" lon="29.9822044373"><time>2026-04-25T13:38:42Z</time></trkpt><trkpt lat="59.0571355820" lon="29.9822044373"><time>2026-04-25T13:38:44Z</time></trkpt><trkpt lat="59.0571570396" lon="29.9822044373"><time>2026-04-25T13:38:47Z</time></trkpt><trkpt lat="59.0571784973" lon="29.9822044373"><time>2026-04-25T13:38:49Z</time></trkpt><trkpt lat="59.0571784973" lon="29.9822473526"><time>2026-04-25T13:38:52Z</time></trkpt><trkpt lat="59.0571570396" lon="29.9823546410"><time>2026-04-25T13:38:54Z</time></trkpt><trkpt lat="59.0571570396" lon="29.9823975563"><time>2026-04-25T13:38:57Z</time></trkpt><trkpt lat="59.0571570396" lon="29.9824833870"><time>2026-04-25T13:38:59Z</time></trkpt><trkpt lat="59.0571355820" lon="29.9825263023"><time>2026-04-25T13:39:02Z</time></trkpt><trkpt lat="59.0571141243" lon="29.9825692177"><time>2026-04-25T13:39:04Z</time></trkpt><trkpt lat="59.0571141243" lon="29.9825906754"><time>2026-04-25T13:39:07Z</time></trkpt><trkpt lat="59.0571141243" lon="29.9825906754"><time>2026-04-25T13:39:09Z</time></trkpt><trkpt lat="59.0571141243" lon="29.9825906754"><time>2026-04-25T13:39:12Z</time></trkpt><trkpt lat="59.0571141243" lon="29.9825906754"><time>2026-04-25T13:39:14Z</time></trkpt><trkpt lat="59.0571141243" lon="29.9825906754"><time>2026-04-25T13:39:17Z</time></trkpt><trkpt lat="59.0570926666" lon="29.9826765060"><time>2026-04-25T13:39:19Z</time></trkpt><trkpt lat="59.0570712090" lon="29.9827194214"><time>2026-04-25T13:39:22Z</time></trkpt><trkpt lat="59.0570712090" lon="29.9827408791"><time>2026-04-25T13:39:24Z</time></trkpt><trkpt lat="59.0570712090" lon="29.9827623367"><time>2026-04-25T13:39:27Z</time></trkpt><trkpt lat="59.0570712090" lon="29.9828267097"><time>2026-04-25T13:39:29Z</time></trkpt><trkpt lat="59.0570712090" lon="29.9828267097"><time>2026-04-25T13:39:32Z</time></trkpt><trkpt lat="59.0570712090" lon="29.9828267097"><time>2026-04-25T13:39:34Z</time></trkpt><trkpt lat="59.0570712090" lon="29.9828267097"><time>2026-04-25T13:39:37Z</time></trkpt><trkpt lat="59.0570712090" lon="29.9828267097"><time>2026-04-25T13:39:39Z</time></trkpt><trkpt lat="59.0570712090" lon="29.9828267097"><time>2026-04-25T13:39:42Z</time></trkpt><trkpt lat="59.0570712090" lon="29.9828267097"><time>2026-04-25T13:39:44Z</time></trkpt><trkpt lat="59.0570712090" lon="29.9828267097"><time>2026-04-25T13:39:47Z</time></trkpt><trkpt lat="59.0570712090" lon="29.9828267097"><time>2026-04-25T13:39:49Z</time></trkpt><trkpt lat="59.0570712090" lon="29.9828267097"><time>2026-04-25T13:39:52Z</time></trkpt><trkpt lat="59.0570712090" lon="29.9828267097"><time>2026-04-25T13:39:54Z</time></trkpt><trkpt lat="59.0570712090" lon="29.9828267097"><time>2026-04-25T13:39:57Z</time></trkpt><trkpt lat="59.0570712090" lon="29.9828267097"><time>2026-04-25T13:39:59Z</time></trkpt><trkpt lat="59.0570712090" lon="29.9828267097"><time>2026-04-25T13:40:02Z</time></trkpt><trkpt lat="59.0570712090" lon="29.9828267097"><time>2026-04-25T13:40:04Z</time></trkpt><trkpt lat="59.0570712090" lon="29.9828267097"><time>2026-04-25T13:40:07Z</time></trkpt><trkpt lat="59.0570712090" lon="29.9828267097"><time>2026-04-25T13:40:09Z</time></trkpt><trkpt lat="59.0570712090" lon="29.9828267097"><time>2026-04-25T13:40:12Z</time></trkpt><trkpt lat="59.0570926666" lon="29.9828267097"><time>2026-04-25T13:40:14Z</time></trkpt><trkpt lat="59.0571141243" lon="29.9828267097"><time>2026-04-25T13:40:17Z</time></trkpt><trkpt lat="59.0571141243" lon="29.9828267097"><time>2026-04-25T13:40:19Z</time></trkpt><trkpt lat="59.0571141243" lon="29.9828267097"><time>2026-04-25T13:40:22Z</time></trkpt><trkpt lat="59.0571355820" lon="29.9828481674"><time>2026-04-25T13:40:24Z</time></trkpt><trkpt lat="59.0571570396" lon="29.9828267097"><time>2026-04-25T13:40:27Z</time></trkpt><trkpt lat="59.0571570396" lon="29.9828052521"><time>2026-04-25T13:40:29Z</time></trkpt><trkpt lat="59.0571570396" lon="29.9828052521"><time>2026-04-25T13:40:32Z</time></trkpt><trkpt lat="59.0571570396" lon="29.9828052521"><time>2026-04-25T13:40:34Z</time></trkpt><trkpt lat="59.0571570396" lon="29.9828052521"><time>2026-04-25T13:40:37Z</time></trkpt><trkpt lat="59.0571570396" lon="29.9828052521"><time>2026-04-25T13:40:39Z</time></trkpt><trkpt lat="59.0571570396" lon="29.9828052521"><time>2026-04-25T13:40:42Z</time></trkpt><trkpt lat="59.0571570396" lon="29.9828052521"><time>2026-04-25T13:40:44Z</time></trkpt><trkpt lat="59.0571355820" lon="29.9828052521"><time>2026-04-25T13:40:47Z</time></trkpt><trkpt lat="59.0571355820" lon="29.9828267097"><time>2026-04-25T13:40:49Z</time></trkpt><trkpt lat="59.0571355820" lon="29.9828696251"><time>2026-04-25T13:40:52Z</time></trkpt><trkpt lat="59.0571570396" lon="29.9828481674"><time>2026-04-25T13:40:54Z</time></trkpt><trkpt lat="59.0571784973" lon="29.9828267097"><time>2026-04-25T13:40:57Z</time></trkpt><trkpt lat="59.0571999550" lon="29.9828481674"><time>2026-04-25T13:40:59Z</time></trkpt><trkpt lat="59.0571999550" lon="29.9828267097"><time>2026-04-25T13:41:02Z</time></trkpt><trkpt lat="59.0572214127" lon="29.9828267097"><time>2026-04-25T13:41:04Z</time></trkpt><trkpt lat="59.0572643280" lon="29.9828481674"><time>2026-04-25T13:41:07Z</time></trkpt><trkpt lat="59.0572857857" lon="29.9828481674"><time>2026-04-25T13:41:09Z</time></trkpt><trkpt lat="59.0573287010" lon="29.9828696251"><time>2026-04-25T13:41:12Z</time></trkpt><trkpt lat="59.0573501587" lon="29.9828696251"><time>2026-04-25T13:41:14Z</time></trkpt><trkpt lat="59.0573930740" lon="29.9829125404"><time>2026-04-25T13:41:17Z</time></trkpt><trkpt lat="59.0573930740" lon="29.9829554558"><time>2026-04-25T13:41:19Z</time></trkpt><trkpt lat="59.0573930740" lon="29.9829554558"><time>2026-04-25T13:41:22Z</time></trkpt><trkpt lat="59.0574145317" lon="29.9829983711"><time>2026-04-25T13:41:24Z</time></trkpt><trkpt lat="59.0574359894" lon="29.9830198288"><time>2026-04-25T13:41:27Z</time></trkpt><trkpt lat="59.0574574471" lon="29.9830412865"><time>2026-04-25T13:41:29Z</time></trkpt><trkpt lat="59.0574789047" lon="29.9830412865"><time>2026-04-25T13:41:32Z</time></trkpt><trkpt lat="59.0575003624" lon="29.9830412865"><time>2026-04-25T13:41:34Z</time></trkpt><trkpt lat="59.0575218201" lon="29.9829769135"><time>2026-04-25T13:41:37Z</time></trkpt><trkpt lat="59.0575218201" lon="29.9829983711"><time>2026-04-25T13:41:39Z</time></trkpt><trkpt lat="59.0575003624" lon="29.9830412865"><time>2026-04-25T13:41:42Z</time></trkpt><trkpt lat="59.0575003624" lon="29.9831271172"><time>2026-04-25T13:41:44Z</time></trkpt><trkpt lat="59.0575218201" lon="29.9831485748"><time>2026-04-25T13:41:47Z</time></trkpt><trkpt lat="59.0575218201" lon="29.9832129478"><time>2026-04-25T13:41:49Z</time></trkpt><trkpt lat="59.0575432777" lon="29.9832558632"><time>2026-04-25T13:41:52Z</time></trkpt><trkpt lat="59.0575861931" lon="29.9832773209"><time>2026-04-25T13:41:54Z</time></trkpt><trkpt lat="59.0576076508" lon="29.9832773209"><time>2026-04-25T13:41:57Z</time></trkpt><trkpt lat="59.0576291084" lon="29.9832558632"><time>2026-04-25T13:41:59Z</time></trkpt><trkpt lat="59.0576291084" lon="29.9832558632"><time>2026-04-25T13:42:02Z</time></trkpt><trkpt lat="59.0576291084" lon="29.9831700325"><time>2026-04-25T13:42:04Z</time></trkpt><trkpt lat="59.0576505661" lon="29.9831485748"><time>2026-04-25T13:42:07Z</time></trkpt><trkpt lat="59.0577149391" lon="29.9831485748"><time>2026-04-25T13:42:09Z</time></trkpt><trkpt lat="59.0576934814" lon="29.9831485748"><time>2026-04-25T13:42:12Z</time></trkpt><trkpt lat="59.0576291084" lon="29.9831700325"><time>2026-04-25T13:42:14Z</time></trkpt><trkpt lat="59.0576291084" lon="29.9831914902"><time>2026-04-25T13:42:17Z</time></trkpt><trkpt lat="59.0576291084" lon="29.9832773209"><time>2026-04-25T13:42:19Z</time></trkpt><trkpt lat="59.0576291084" lon="29.9832773209"><time>2026-04-25T13:42:22Z</time></trkpt><trkpt lat="59.0576505661" lon="29.9832773209"><time>2026-04-25T13:42:24Z</time></trkpt><trkpt lat="59.0576505661" lon="29.9832773209"><time>2026-04-25T13:42:27Z</time></trkpt><trkpt lat="59.0576505661" lon="29.9832773209"><time>2026-04-25T13:42:29Z</time></trkpt><trkpt lat="59.0576505661" lon="29.9832773209"><time>2026-04-25T13:42:32Z</time></trkpt><trkpt lat="59.0576505661" lon="29.9832773209"><time>2026-04-25T13:42:34Z</time></trkpt><trkpt lat="59.0576505661" lon="29.9832773209"><time>2026-04-25T13:42:37Z</time></trkpt><trkpt lat="59.0576505661" lon="29.9832773209"><time>2026-04-25T13:42:39Z</time></trkpt><trkpt lat="59.0576505661" lon="29.9832987785"><time>2026-04-25T13:42:42Z</time></trkpt><trkpt lat="59.0576505661" lon="29.9833416939"><time>2026-04-25T13:42:44Z</time></trkpt><trkpt lat="59.0576505661" lon="29.9833416939"><time>2026-04-25T13:42:47Z</time></trkpt><trkpt lat="59.0576505661" lon="29.9833416939"><time>2026-04-25T13:42:49Z</time></trkpt><trkpt lat="59.0576505661" lon="29.9833631516"><time>2026-04-25T13:42:52Z</time></trkpt><trkpt lat="59.0576720238" lon="29.9833846092"><time>2026-04-25T13:42:54Z</time></trkpt><trkpt lat="59.0576720238" lon="29.9833846092"><time>2026-04-25T13:42:57Z</time></trkpt><trkpt lat="59.0576720238" lon="29.9834060669"><time>2026-04-25T13:42:59Z</time></trkpt><trkpt lat="59.0576720238" lon="29.9834060669"><time>2026-04-25T13:43:02Z</time></trkpt><trkpt lat="59.0576720238" lon="29.9834060669"><time>2026-04-25T13:43:04Z</time></trkpt><trkpt lat="59.0576720238" lon="29.9834060669"><time>2026-04-25T13:43:07Z</time></trkpt><trkpt lat="59.0576720238" lon="29.9834060669"><time>2026-04-25T13:43:09Z</time></trkpt><trkpt lat="59.0576720238" lon="29.9834060669"><time>2026-04-25T13:43:12Z</time></trkpt><trkpt lat="59.0576720238" lon="29.9834060669"><time>2026-04-25T13:43:14Z</time></trkpt><trkpt lat="59.0576720238" lon="29.9833416939"><time>2026-04-25T13:43:17Z</time></trkpt><trkpt lat="59.0576505661" lon="29.9832558632"><time>2026-04-25T13:43:19Z</time></trkpt><trkpt lat="59.0576505661" lon="29.9832558632"><time>2026-04-25T13:43:22Z</time></trkpt><trkpt lat="59.0576291084" lon="29.9831914902"><time>2026-04-25T13:43:24Z</time></trkpt><trkpt lat="59.0576291084" lon="29.9831485748"><time>2026-04-25T13:43:27Z</time></trkpt><trkpt lat="59.0576291084" lon="29.9831056595"><time>2026-04-25T13:43:29Z</time></trkpt><trkpt lat="59.0576291084" lon="29.9830412865"><time>2026-04-25T13:43:32Z</time></trkpt><trkpt lat="59.0576505661" lon="29.9830198288"><time>2026-04-25T13:43:34Z</time></trkpt><trkpt lat="59.0576720238" lon="29.9829983711"><time>2026-04-25T13:43:37Z</time></trkpt><trkpt lat="59.0576720238" lon="29.9829983711"><time>2026-04-25T13:43:39Z</time></trkpt><trkpt lat="59.0576720238" lon="29.9830627441"><time>2026-04-25T13:43:42Z</time></trkpt><trkpt lat="59.0576505661" lon="29.9831056595"><time>2026-04-25T13:43:44Z</time></trkpt><trkpt lat="59.0576505661" lon="29.9831271172"><time>2026-04-25T13:43:47Z</time></trkpt><trkpt lat="59.0576505661" lon="29.9831271172"><time>2026-04-25T13:43:49Z</time></trkpt><trkpt lat="59.0576505661" lon="29.9831271172"><time>2026-04-25T13:43:52Z</time></trkpt><trkpt lat="59.0576505661" lon="29.9831271172"><time>2026-04-25T13:43:54Z</time></trkpt><trkpt lat="59.0576505661" lon="29.9831271172"><time>2026-04-25T13:43:57Z</time></trkpt><trkpt lat="59.0576505661" lon="29.9831271172"><time>2026-04-25T13:43:59Z</time></trkpt><trkpt lat="59.0576505661" lon="29.9831271172"><time>2026-04-25T13:44:02Z</time></trkpt><trkpt lat="59.0576505661" lon="29.9831271172"><time>2026-04-25T13:44:04Z</time></trkpt><trkpt lat="59.0576505661" lon="29.9831271172"><time>2026-04-25T13:44:07Z</time></trkpt><trkpt lat="59.0576720238" lon="29.9831271172"><time>2026-04-25T13:44:09Z</time></trkpt><trkpt lat="59.0576720238" lon="29.9831271172"><time>2026-04-25T13:44:12Z</time></trkpt><trkpt lat="59.0576934814" lon="29.9831056595"><time>2026-04-25T13:44:14Z</time></trkpt><trkpt lat="59.0577149391" lon="29.9831056595"><time>2026-04-25T13:44:17Z</time></trkpt><trkpt lat="59.0577578545" lon="29.9831271172"><time>2026-04-25T13:44:19Z</time></trkpt><trkpt lat="59.0577793121" lon="29.9831485748"><time>2026-04-25T13:44:22Z</time></trkpt><trkpt lat="59.0578222275" lon="29.9831485748"><time>2026-04-25T13:44:24Z</time></trkpt><trkpt lat="59.0578222275" lon="29.9831914902"><time>2026-04-25T13:44:27Z</time></trkpt><trkpt lat="59.0578436852" lon="29.9832129478"><time>2026-04-25T13:44:29Z</time></trkpt><trkpt lat="59.0578436852" lon="29.9832129478"><time>2026-04-25T13:44:32Z</time></trkpt><trkpt lat="59.0578651428" lon="29.9832344055"><time>2026-04-25T13:44:34Z</time></trkpt><trkpt lat="59.0578866005" lon="29.9832558632"><time>2026-04-25T13:44:37Z</time></trkpt><trkpt lat="59.0579295158" lon="29.9832558632"><time>2026-04-25T13:44:39Z</time></trkpt><trkpt lat="59.0579509735" lon="29.9832558632"><time>2026-04-25T13:44:42Z</time></trkpt><trkpt lat="59.0579938889" lon="29.9832773209"><time>2026-04-25T13:44:44Z</time></trkpt><trkpt lat="59.0580368042" lon="29.9832773209"><time>2026-04-25T13:44:47Z</time></trkpt><trkpt lat="59.0580582619" lon="29.9832558632"><time>2026-04-25T13:44:49Z</time></trkpt><trkpt lat="59.0580582619" lon="29.9832558632"><time>2026-04-25T13:44:52Z</time></trkpt><trkpt lat="59.0580582619" lon="29.9832773209"><time>2026-04-25T13:44:54Z</time></trkpt><trkpt lat="59.0580582619" lon="29.9832773209"><time>2026-04-25T13:44:57Z</time></trkpt><trkpt lat="59.0580797195" lon="29.9833416939"><time>2026-04-25T13:44:59Z</time></trkpt><trkpt lat="59.0581011772" lon="29.9833631516"><time>2026-04-25T13:45:02Z</time></trkpt><trkpt lat="59.0581440926" lon="29.9833416939"><time>2026-04-25T13:45:04Z</time></trkpt><trkpt lat="59.0581870079" lon="29.9833631516"><time>2026-04-25T13:45:07Z</time></trkpt><trkpt lat="59.0582084656" lon="29.9833846092"><time>2026-04-25T13:45:09Z</time></trkpt><trkpt lat="59.0582513809" lon="29.9834275246"><time>2026-04-25T13:45:12Z</time></trkpt><trkpt lat="59.0582513809" lon="29.9834275246"><time>2026-04-25T13:45:14Z</time></trkpt><trkpt lat="59.0582728386" lon="29.9834060669"><time>2026-04-25T13:45:17Z</time></trkpt><trkpt lat="59.0583372116" lon="29.9834060669"><time>2026-04-25T13:45:19Z</time></trkpt><trkpt lat="59.0583586693" lon="29.9834275246"><time>2026-04-25T13:45:22Z</time></trkpt><trkpt lat="59.0584015846" lon="29.9834060669"><time>2026-04-25T13:45:24Z</time></trkpt><trkpt lat="59.0584015846" lon="29.9834060669"><time>2026-04-25T13:45:27Z</time></trkpt><trkpt lat="59.0584015846" lon="29.9834060669"><time>2026-04-25T13:45:29Z</time></trkpt><trkpt lat="59.0584230423" lon="29.9834060669"><time>2026-04-25T13:45:32Z</time></trkpt><trkpt lat="59.0584659576" lon="29.9834275246"><time>2026-04-25T13:45:34Z</time></trkpt><trkpt lat="59.0584874153" lon="29.9834489822"><time>2026-04-25T13:45:37Z</time></trkpt><trkpt lat="59.0584874153" lon="29.9834489822"><time>2026-04-25T13:45:39Z</time></trkpt><trkpt lat="59.0584874153" lon="29.9834489822"><time>2026-04-25T13:45:42Z</time></trkpt><trkpt lat="59.0584874153" lon="29.9834489822"><time>2026-04-25T13:45:44Z</time></trkpt><trkpt lat="59.0584874153" lon="29.9834489822"><time>2026-04-25T13:45:47Z</time></trkpt><trkpt lat="59.0584874153" lon="29.9834489822"><time>2026-04-25T13:45:49Z</time></trkpt><trkpt lat="59.0584874153" lon="29.9834489822"><time>2026-04-25T13:45:52Z</time></trkpt><trkpt lat="59.0584874153" lon="29.9834489822"><time>2026-04-25T13:45:54Z</time></trkpt><trkpt lat="59.0585088730" lon="29.9835348129"><time>2026-04-25T13:45:57Z</time></trkpt><trkpt lat="59.0585517883" lon="29.9837064743"><time>2026-04-25T13:45:59Z</time></trkpt><trkpt lat="59.0585947037" lon="29.9837923050"><time>2026-04-25T13:46:02Z</time></trkpt><trkpt lat="59.0585947037" lon="29.9838137627"><time>2026-04-25T13:46:04Z</time></trkpt><trkpt lat="59.0585947037" lon="29.9838137627"><time>2026-04-25T13:46:07Z</time></trkpt><trkpt lat="59.0585947037" lon="29.9838137627"><time>2026-04-25T13:46:09Z</time></trkpt><trkpt lat="59.0585947037" lon="29.9838137627"><time>2026-04-25T13:46:12Z</time></trkpt><trkpt lat="59.0585947037" lon="29.9838137627"><time>2026-04-25T13:46:14Z</time></trkpt><trkpt lat="59.0586161613" lon="29.9837923050"><time>2026-04-25T13:46:17Z</time></trkpt><trkpt lat="59.0586805344" lon="29.9837279320"><time>2026-04-25T13:46:19Z</time></trkpt><trkpt lat="59.0587234497" lon="29.9837279320"><time>2026-04-25T13:46:22Z</time></trkpt><trkpt lat="59.0587663651" lon="29.9837493896"><time>2026-04-25T13:46:24Z</time></trkpt><trkpt lat="59.0587878227" lon="29.9837493896"><time>2026-04-25T13:46:27Z</time></trkpt><trkpt lat="59.0588307381" lon="29.9837279320"><time>2026-04-25T13:46:29Z</time></trkpt><trkpt lat="59.0588307381" lon="29.9837064743"><time>2026-04-25T13:46:32Z</time></trkpt><trkpt lat="59.0588307381" lon="29.9837064743"><time>2026-04-25T13:46:34Z</time></trkpt><trkpt lat="59.0588307381" lon="29.9837064743"><time>2026-04-25T13:46:37Z</time></trkpt><trkpt lat="59.0588521957" lon="29.9836850166"><time>2026-04-25T13:46:39Z</time></trkpt><trkpt lat="59.0588951111" lon="29.9836421013"><time>2026-04-25T13:46:42Z</time></trkpt><trkpt lat="59.0589594841" lon="29.9835777283"><time>2026-04-25T13:46:44Z</time></trkpt><trkpt lat="59.0589594841" lon="29.9835133553"><time>2026-04-25T13:46:47Z</time></trkpt><trkpt lat="59.0589809418" lon="29.9834704399"><time>2026-04-25T13:46:49Z</time></trkpt><trkpt lat="59.0589809418" lon="29.9834704399"><time>2026-04-25T13:46:52Z</time></trkpt><trkpt lat="59.0590238571" lon="29.9834489822"><time>2026-04-25T13:46:54Z</time></trkpt><trkpt lat="59.0590667725" lon="29.9834489822"><time>2026-04-25T13:46:57Z</time></trkpt><trkpt lat="59.0591526031" lon="29.9835348129"><time>2026-04-25T13:46:59Z</time></trkpt><trkpt lat="59.0591740608" lon="29.9835991859"><time>2026-04-25T13:47:02Z</time></trkpt><trkpt lat="59.0591526031" lon="29.9836635590"><time>2026-04-25T13:47:04Z</time></trkpt><trkpt lat="59.0591526031" lon="29.9836635590"><time>2026-04-25T13:47:07Z</time></trkpt><trkpt lat="59.0591955185" lon="29.9836206436"><time>2026-04-25T13:47:09Z</time></trkpt><trkpt lat="59.0592169762" lon="29.9835777283"><time>2026-04-25T13:47:12Z</time></trkpt><trkpt lat="59.0592169762" lon="29.9835777283"><time>2026-04-25T13:47:14Z</time></trkpt><trkpt lat="59.0592169762" lon="29.9835777283"><time>2026-04-25T13:47:17Z</time></trkpt><trkpt lat="59.0592169762" lon="29.9836206436"><time>2026-04-25T13:47:19Z</time></trkpt><trkpt lat="59.0592384338" lon="29.9836421013"><time>2026-04-25T13:47:22Z</time></trkpt><trkpt lat="59.0593028069" lon="29.9836421013"><time>2026-04-25T13:47:24Z</time></trkpt><trkpt lat="59.0593242645" lon="29.9836850166"><time>2026-04-25T13:47:27Z</time></trkpt><trkpt lat="59.0593242645" lon="29.9838137627"><time>2026-04-25T13:47:29Z</time></trkpt><trkpt lat="59.0593242645" lon="29.9838352203"><time>2026-04-25T13:47:32Z</time></trkpt><trkpt lat="59.0593671799" lon="29.9838995934"><time>2026-04-25T13:47:34Z</time></trkpt><trkpt lat="59.0593886375" lon="29.9839210510"><time>2026-04-25T13:47:37Z</time></trkpt><trkpt lat="59.0594744682" lon="29.9838781357"><time>2026-04-25T13:47:39Z</time></trkpt><trkpt lat="59.0595173836" lon="29.9838566780"><time>2026-04-25T13:47:42Z</time></trkpt><trkpt lat="59.0595602989" lon="29.9838137627"><time>2026-04-25T13:47:44Z</time></trkpt><trkpt lat="59.0595817566" lon="29.9838137627"><time>2026-04-25T13:47:47Z</time></trkpt><trkpt lat="59.0595817566" lon="29.9838137627"><time>2026-04-25T13:47:49Z</time></trkpt><trkpt lat="59.0596032143" lon="29.9837923050"><time>2026-04-25T13:47:52Z</time></trkpt><trkpt lat="59.0596675873" lon="29.9837923050"><time>2026-04-25T13:47:54Z</time></trkpt><trkpt lat="59.0597105026" lon="29.9837923050"><time>2026-04-25T13:47:57Z</time></trkpt><trkpt lat="59.0597534180" lon="29.9837493896"><time>2026-04-25T13:47:59Z</time></trkpt><trkpt lat="59.0597534180" lon="29.9837064743"><time>2026-04-25T13:48:02Z</time></trkpt><trkpt lat="59.0597319603" lon="29.9836635590"><time>2026-04-25T13:48:04Z</time></trkpt><trkpt lat="59.0597319603" lon="29.9836635590"><time>2026-04-25T13:48:07Z</time></trkpt><trkpt lat="59.0597319603" lon="29.9836635590"><time>2026-04-25T13:48:09Z</time></trkpt><trkpt lat="59.0597319603" lon="29.9836635590"><time>2026-04-25T13:48:12Z</time></trkpt><trkpt lat="59.0597534180" lon="29.9836421013"><time>2026-04-25T13:48:14Z</time></trkpt><trkpt lat="59.0597748756" lon="29.9836421013"><time>2026-04-25T13:48:17Z</time></trkpt><trkpt lat="59.0597748756" lon="29.9836421013"><time>2026-04-25T13:48:19Z</time></trkpt><trkpt lat="59.0597748756" lon="29.9836421013"><time>2026-04-25T13:48:22Z</time></trkpt><trkpt lat="59.0597748756" lon="29.9836421013"><time>2026-04-25T13:48:24Z</time></trkpt><trkpt lat="59.0597748756" lon="29.9836421013"><time>2026-04-25T13:48:27Z</time></trkpt><trkpt lat="59.0598821640" lon="29.9836421013"><time>2026-04-25T13:48:29Z</time></trkpt><trkpt lat="59.0599250793" lon="29.9837279320"><time>2026-04-25T13:48:32Z</time></trkpt><trkpt lat="59.0599465370" lon="29.9838995934"><time>2026-04-25T13:48:34Z</time></trkpt><trkpt lat="59.0599894524" lon="29.9839639664"><time>2026-04-25T13:48:37Z</time></trkpt><trkpt lat="59.0600538254" lon="29.9840712547"><time>2026-04-25T13:48:39Z</time></trkpt><trkpt lat="59.0600752831" lon="29.9841141701"><time>2026-04-25T13:48:42Z</time></trkpt><trkpt lat="59.0600538254" lon="29.9841570854"><time>2026-04-25T13:48:44Z</time></trkpt><trkpt lat="59.0600752831" lon="29.9841570854"><time>2026-04-25T13:48:47Z</time></trkpt><trkpt lat="59.0601181984" lon="29.9841570854"><time>2026-04-25T13:48:49Z</time></trkpt><trkpt lat="59.0601611137" lon="29.9842000008"><time>2026-04-25T13:48:52Z</time></trkpt><trkpt lat="59.0601611137" lon="29.9843072891"><time>2026-04-25T13:48:54Z</time></trkpt><trkpt lat="59.0601825714" lon="29.9843502045"><time>2026-04-25T13:48:57Z</time></trkpt><trkpt lat="59.0601825714" lon="29.9843931198"><time>2026-04-25T13:48:59Z</time></trkpt><trkpt lat="59.0601825714" lon="29.9844145775"><time>2026-04-25T13:49:02Z</time></trkpt><trkpt lat="59.0601825714" lon="29.9843502045"><time>2026-04-25T13:49:04Z</time></trkpt><trkpt lat="59.0602040291" lon="29.9843072891"><time>2026-04-25T13:49:07Z</time></trkpt><trkpt lat="59.0602469444" lon="29.9842429161"><time>2026-04-25T13:49:09Z</time></trkpt><trkpt lat="59.0602469444" lon="29.9842429161"><time>2026-04-25T13:49:12Z</time></trkpt><trkpt lat="59.0602684021" lon="29.9842214584"><time>2026-04-25T13:49:14Z</time></trkpt><trkpt lat="59.0603113174" lon="29.9841570854"><time>2026-04-25T13:49:17Z</time></trkpt><trkpt lat="59.0603542328" lon="29.9840927124"><time>2026-04-25T13:49:19Z</time></trkpt><trkpt lat="59.0603971481" lon="29.9839854240"><time>2026-04-25T13:49:22Z</time></trkpt><trkpt lat="59.0604186058" lon="29.9838995934"><time>2026-04-25T13:49:24Z</time></trkpt><trkpt lat="59.0604400635" lon="29.9838566780"><time>2026-04-25T13:49:27Z</time></trkpt><trkpt lat="59.0604615211" lon="29.9838566780"><time>2026-04-25T13:49:29Z</time></trkpt><trkpt lat="59.0604829788" lon="29.9838352203"><time>2026-04-25T13:49:32Z</time></trkpt><trkpt lat="59.0604829788" lon="29.9838352203"><time>2026-04-25T13:49:34Z</time></trkpt><trkpt lat="59.0604829788" lon="29.9838352203"><time>2026-04-25T13:49:37Z</time></trkpt><trkpt lat="59.0604400635" lon="29.9838995934"><time>2026-04-25T13:49:39Z</time></trkpt><trkpt lat="59.0603756905" lon="29.9840283394"><time>2026-04-25T13:49:42Z</time></trkpt><trkpt lat="59.0603542328" lon="29.9841356277"><time>2026-04-25T13:49:44Z</time></trkpt><trkpt lat="59.0603542328" lon="29.9841356277"><time>2026-04-25T13:49:47Z</time></trkpt><trkpt lat="59.0603542328" lon="29.9841570854"><time>2026-04-25T13:49:49Z</time></trkpt><trkpt lat="59.0603756905" lon="29.9841785431"><time>2026-04-25T13:49:52Z</time></trkpt><trkpt lat="59.0603756905" lon="29.9842214584"><time>2026-04-25T13:49:54Z</time></trkpt><trkpt lat="59.0603756905" lon="29.9842429161"><time>2026-04-25T13:49:57Z</time></trkpt><trkpt lat="59.0603971481" lon="29.9843072891"><time>2026-04-25T13:49:59Z</time></trkpt><trkpt lat="59.0604186058" lon="29.9843287468"><time>2026-04-25T13:50:02Z</time></trkpt><trkpt lat="59.0604400635" lon="29.9843502045"><time>2026-04-25T13:50:04Z</time></trkpt><trkpt lat="59.0604400635" lon="29.9843502045"><time>2026-04-25T13:50:07Z</time></trkpt><trkpt lat="59.0604186058" lon="29.9844360352"><time>2026-04-25T13:50:09Z</time></trkpt><trkpt lat="59.0604400635" lon="29.9844789505"><time>2026-04-25T13:50:12Z</time></trkpt><trkpt lat="59.0604829788" lon="29.9844145775"><time>2026-04-25T13:50:14Z</time></trkpt><trkpt lat="59.0605044365" lon="29.9843716621"><time>2026-04-25T13:50:17Z</time></trkpt><trkpt lat="59.0605044365" lon="29.9843716621"><time>2026-04-25T13:50:19Z</time></trkpt><trkpt lat="59.0605044365" lon="29.9843716621"><time>2026-04-25T13:50:22Z</time></trkpt><trkpt lat="59.0605473518" lon="29.9843716621"><time>2026-04-25T13:50:24Z</time></trkpt><trkpt lat="59.0605473518" lon="29.9843716621"><time>2026-04-25T13:50:27Z</time></trkpt><trkpt lat="59.0605473518" lon="29.9843716621"><time>2026-04-25T13:50:29Z</time></trkpt><trkpt lat="59.0605473518" lon="29.9843716621"><time>2026-04-25T13:50:32Z</time></trkpt><trkpt lat="59.0605902672" lon="29.9843716621"><time>2026-04-25T13:50:34Z</time></trkpt><trkpt lat="59.0605902672" lon="29.9844145775"><time>2026-04-25T13:50:37Z</time></trkpt><trkpt lat="59.0606331825" lon="29.9844145775"><time>2026-04-25T13:50:39Z</time></trkpt><trkpt lat="59.0606331825" lon="29.9844360352"><time>2026-04-25T13:50:42Z</time></trkpt><trkpt lat="59.0606546402" lon="29.9844789505"><time>2026-04-25T13:50:44Z</time></trkpt><trkpt lat="59.0606546402" lon="29.9844789505"><time>2026-04-25T13:50:47Z</time></trkpt><trkpt lat="59.0606546402" lon="29.9845004082"><time>2026-04-25T13:50:49Z</time></trkpt><trkpt lat="59.0606546402" lon="29.9845004082"><time>2026-04-25T13:50:52Z</time></trkpt><trkpt lat="59.0606546402" lon="29.9845004082"><time>2026-04-25T13:50:54Z</time></trkpt><trkpt lat="59.0606546402" lon="29.9845004082"><time>2026-04-25T13:50:57Z</time></trkpt><trkpt lat="59.0606546402" lon="29.9845004082"><time>2026-04-25T13:50:59Z</time></trkpt><trkpt lat="59.0606546402" lon="29.9845004082"><time>2026-04-25T13:51:02Z</time></trkpt><trkpt lat="59.0606546402" lon="29.9845004082"><time>2026-04-25T13:51:04Z</time></trkpt><trkpt lat="59.0606546402" lon="29.9845004082"><time>2026-04-25T13:51:07Z</time></trkpt><trkpt lat="59.0606546402" lon="29.9845004082"><time>2026-04-25T13:51:09Z</time></trkpt><trkpt lat="59.0606546402" lon="29.9845004082"><time>2026-04-25T13:51:12Z</time></trkpt><trkpt lat="59.0606546402" lon="29.9845004082"><time>2026-04-25T13:51:14Z</time></trkpt><trkpt lat="59.0606546402" lon="29.9845004082"><time>2026-04-25T13:51:17Z</time></trkpt><trkpt lat="59.0606546402" lon="29.9845004082"><time>2026-04-25T13:51:19Z</time></trkpt><trkpt lat="59.0606546402" lon="29.9845004082"><time>2026-04-25T13:51:22Z</time></trkpt><trkpt lat="59.0606546402" lon="29.9845004082"><time>2026-04-25T13:51:24Z</time></trkpt><trkpt lat="59.0606546402" lon="29.9845004082"><time>2026-04-25T13:51:27Z</time></trkpt><trkpt lat="59.0606546402" lon="29.9845004082"><time>2026-04-25T13:51:29Z</time></trkpt><trkpt lat="59.0606546402" lon="29.9845004082"><time>2026-04-25T13:51:32Z</time></trkpt><trkpt lat="59.0606546402" lon="29.9845004082"><time>2026-04-25T13:51:34Z</time></trkpt><trkpt lat="59.0606546402" lon="29.9845218658"><time>2026-04-25T13:51:37Z</time></trkpt><trkpt lat="59.0606546402" lon="29.9845218658"><time>2026-04-25T13:51:39Z</time></trkpt><trkpt lat="59.0606546402" lon="29.9845218658"><time>2026-04-25T13:51:42Z</time></trkpt><trkpt lat="59.0606760979" lon="29.9845433235"><time>2026-04-25T13:51:44Z</time></trkpt><trkpt lat="59.0606760979" lon="29.9845433235"><time>2026-04-25T13:51:47Z</time></trkpt><trkpt lat="59.0607190132" lon="29.9845862389"><time>2026-04-25T13:51:49Z</time></trkpt><trkpt lat="59.0607404709" lon="29.9845862389"><time>2026-04-25T13:51:52Z</time></trkpt><trkpt lat="59.0607619286" lon="29.9845862389"><time>2026-04-25T13:51:54Z</time></trkpt><trkpt lat="59.0607619286" lon="29.9845862389"><time>2026-04-25T13:51:57Z</time></trkpt><trkpt lat="59.0608048439" lon="29.9845433235"><time>2026-04-25T13:51:59Z</time></trkpt><trkpt lat="59.0608263016" lon="29.9845433235"><time>2026-04-25T13:52:02Z</time></trkpt><trkpt lat="59.0608692169" lon="29.9845433235"><time>2026-04-25T13:52:04Z</time></trkpt><trkpt lat="59.0608906746" lon="29.9845433235"><time>2026-04-25T13:52:07Z</time></trkpt><trkpt lat="59.0609121323" lon="29.9845218658"><time>2026-04-25T13:52:09Z</time></trkpt><trkpt lat="59.0609335899" lon="29.9845218658"><time>2026-04-25T13:52:12Z</time></trkpt><trkpt lat="59.0609335899" lon="29.9845218658"><time>2026-04-25T13:52:14Z</time></trkpt><trkpt lat="59.0609550476" lon="29.9845218658"><time>2026-04-25T13:52:17Z</time></trkpt><trkpt lat="59.0609979630" lon="29.9845433235"><time>2026-04-25T13:52:19Z</time></trkpt><trkpt lat="59.0610194206" lon="29.9845862389"><time>2026-04-25T13:52:22Z</time></trkpt><trkpt lat="59.0610837936" lon="29.9846720695"><time>2026-04-25T13:52:24Z</time></trkpt><trkpt lat="59.0611052513" lon="29.9847149849"><time>2026-04-25T13:52:27Z</time></trkpt><trkpt lat="59.0611267090" lon="29.9847149849"><time>2026-04-25T13:52:29Z</time></trkpt><trkpt lat="59.0611696243" lon="29.9847149849"><time>2026-04-25T13:52:32Z</time></trkpt><trkpt lat="59.0611696243" lon="29.9847149849"><time>2026-04-25T13:52:34Z</time></trkpt><trkpt lat="59.0611910820" lon="29.9847149849"><time>2026-04-25T13:52:37Z</time></trkpt><trkpt lat="59.0611910820" lon="29.9847149849"><time>2026-04-25T13:52:39Z</time></trkpt><trkpt lat="59.0611910820" lon="29.9847149849"><time>2026-04-25T13:52:42Z</time></trkpt><trkpt lat="59.0612125397" lon="29.9847149849"><time>2026-04-25T13:52:44Z</time></trkpt><trkpt lat="59.0612339973" lon="29.9847364426"><time>2026-04-25T13:52:47Z</time></trkpt><trkpt lat="59.0612554550" lon="29.9847579002"><time>2026-04-25T13:52:49Z</time></trkpt><trkpt lat="59.0612769127" lon="29.9847579002"><time>2026-04-25T13:52:52Z</time></trkpt><trkpt lat="59.0612769127" lon="29.9847579002"><time>2026-04-25T13:52:54Z</time></trkpt><trkpt lat="59.0612769127" lon="29.9847579002"><time>2026-04-25T13:52:57Z</time></trkpt><trkpt lat="59.0612983704" lon="29.9847579002"><time>2026-04-25T13:52:59Z</time></trkpt><trkpt lat="59.0612983704" lon="29.9847579002"><time>2026-04-25T13:53:02Z</time></trkpt><trkpt lat="59.0612983704" lon="29.9847579002"><time>2026-04-25T13:53:04Z</time></trkpt><trkpt lat="59.0612769127" lon="29.9848437309"><time>2026-04-25T13:53:07Z</time></trkpt><trkpt lat="59.0613198280" lon="29.9849510193"><time>2026-04-25T13:53:09Z</time></trkpt><trkpt lat="59.0613198280" lon="29.9850153923"><time>2026-04-25T13:53:12Z</time></trkpt><trkpt lat="59.0612983704" lon="29.9850797653"><time>2026-04-25T13:53:14Z</time></trkpt><trkpt lat="59.0612983704" lon="29.9851012230"><time>2026-04-25T13:53:17Z</time></trkpt><trkpt lat="59.0612769127" lon="29.9851226807"><time>2026-04-25T13:53:19Z</time></trkpt><trkpt lat="59.0612769127" lon="29.9851226807"><time>2026-04-25T13:53:22Z</time></trkpt><trkpt lat="59.0612983704" lon="29.9851226807"><time>2026-04-25T13:53:24Z</time></trkpt><trkpt lat="59.0613412857" lon="29.9850797653"><time>2026-04-25T13:53:27Z</time></trkpt><trkpt lat="59.0613842010" lon="29.9850583076"><time>2026-04-25T13:53:29Z</time></trkpt><trkpt lat="59.0614271164" lon="29.9850368500"><time>2026-04-25T13:53:32Z</time></trkpt><trkpt lat="59.0614485741" lon="29.9850153923"><time>2026-04-25T13:53:34Z</time></trkpt><trkpt lat="59.0614485741" lon="29.9850583076"><time>2026-04-25T13:53:37Z</time></trkpt><trkpt lat="59.0614700317" lon="29.9851012230"><time>2026-04-25T13:53:39Z</time></trkpt><trkpt lat="59.0614700317" lon="29.9851655960"><time>2026-04-25T13:53:42Z</time></trkpt><trkpt lat="59.0614914894" lon="29.9852299690"><time>2026-04-25T13:53:44Z</time></trkpt><trkpt lat="59.0615129471" lon="29.9852514267"><time>2026-04-25T13:53:47Z</time></trkpt><trkpt lat="59.0615558624" lon="29.9852943420"><time>2026-04-25T13:53:49Z</time></trkpt><trkpt lat="59.0615773201" lon="29.9852943420"><time>2026-04-25T13:53:52Z</time></trkpt><trkpt lat="59.0615773201" lon="29.9852728844"><time>2026-04-25T13:53:54Z</time></trkpt><trkpt lat="59.0615987778" lon="29.9852514267"><time>2026-04-25T13:53:57Z</time></trkpt><trkpt lat="59.0616202354" lon="29.9852085114"><time>2026-04-25T13:53:59Z</time></trkpt><trkpt lat="59.0616416931" lon="29.9851870537"><time>2026-04-25T13:54:02Z</time></trkpt><trkpt lat="59.0616631508" lon="29.9851441383"><time>2026-04-25T13:54:04Z</time></trkpt><trkpt lat="59.0617060661" lon="29.9851226807"><time>2026-04-25T13:54:07Z</time></trkpt><trkpt lat="59.0617060661" lon="29.9851226807"><time>2026-04-25T13:54:09Z</time></trkpt><trkpt lat="59.0617060661" lon="29.9851226807"><time>2026-04-25T13:54:12Z</time></trkpt><trkpt lat="59.0617060661" lon="29.9851226807"><time>2026-04-25T13:54:14Z</time></trkpt><trkpt lat="59.0617060661" lon="29.9851226807"><time>2026-04-25T13:54:17Z</time></trkpt><trkpt lat="59.0617060661" lon="29.9851226807"><time>2026-04-25T13:54:19Z</time></trkpt><trkpt lat="59.0617060661" lon="29.9851226807"><time>2026-04-25T13:54:22Z</time></trkpt><trkpt lat="59.0617060661" lon="29.9850583076"><time>2026-04-25T13:54:24Z</time></trkpt><trkpt lat="59.0617060661" lon="29.9850583076"><time>2026-04-25T13:54:27Z</time></trkpt><trkpt lat="59.0617060661" lon="29.9850583076"><time>2026-04-25T13:54:29Z</time></trkpt><trkpt lat="59.0617060661" lon="29.9850583076"><time>2026-04-25T13:54:32Z</time></trkpt><trkpt lat="59.0617060661" lon="29.9850368500"><time>2026-04-25T13:54:34Z</time></trkpt><trkpt lat="59.0617275238" lon="29.9850153923"><time>2026-04-25T13:54:37Z</time></trkpt><trkpt lat="59.0617275238" lon="29.9849081039"><time>2026-04-25T13:54:39Z</time></trkpt><trkpt lat="59.0617489815" lon="29.9848222733"><time>2026-04-25T13:54:42Z</time></trkpt><trkpt lat="59.0617704391" lon="29.9847579002"><time>2026-04-25T13:54:44Z</time></trkpt><trkpt lat="59.0617918968" lon="29.9847364426"><time>2026-04-25T13:54:47Z</time></trkpt><trkpt lat="59.0618133545" lon="29.9846935272"><time>2026-04-25T13:54:49Z</time></trkpt><trkpt lat="59.0618562698" lon="29.9846720695"><time>2026-04-25T13:54:52Z</time></trkpt><trkpt lat="59.0618777275" lon="29.9846506119"><time>2026-04-25T13:54:54Z</time></trkpt><trkpt lat="59.0618777275" lon="29.9846720695"><time>2026-04-25T13:54:57Z</time></trkpt><trkpt lat="59.0618777275" lon="29.9847149849"><time>2026-04-25T13:54:59Z</time></trkpt><trkpt lat="59.0618777275" lon="29.9847793579"><time>2026-04-25T13:55:02Z</time></trkpt><trkpt lat="59.0618991852" lon="29.9849081039"><time>2026-04-25T13:55:04Z</time></trkpt><trkpt lat="59.0619206429" lon="29.9849510193"><time>2026-04-25T13:55:07Z</time></trkpt><trkpt lat="59.0619206429" lon="29.9850153923"><time>2026-04-25T13:55:09Z</time></trkpt><trkpt lat="59.0619421005" lon="29.9850368500"><time>2026-04-25T13:55:12Z</time></trkpt><trkpt lat="59.0619421005" lon="29.9850368500"><time>2026-04-25T13:55:14Z</time></trkpt><trkpt lat="59.0619421005" lon="29.9850583076"><time>2026-04-25T13:55:17Z</time></trkpt><trkpt lat="59.0619206429" lon="29.9850797653"><time>2026-04-25T13:55:19Z</time></trkpt><trkpt lat="59.0619206429" lon="29.9851226807"><time>2026-04-25T13:55:22Z</time></trkpt><trkpt lat="59.0619421005" lon="29.9852299690"><time>2026-04-25T13:55:24Z</time></trkpt><trkpt lat="59.0619421005" lon="29.9852728844"><time>2026-04-25T13:55:27Z</time></trkpt><trkpt lat="59.0619421005" lon="29.9853157997"><time>2026-04-25T13:55:29Z</time></trkpt><trkpt lat="59.0619421005" lon="29.9852943420"><time>2026-04-25T13:55:32Z</time></trkpt><trkpt lat="59.0619635582" lon="29.9852728844"><time>2026-04-25T13:55:34Z</time></trkpt><trkpt lat="59.0620064735" lon="29.9852728844"><time>2026-04-25T13:55:37Z</time></trkpt><trkpt lat="59.0620279312" lon="29.9853372574"><time>2026-04-25T13:55:39Z</time></trkpt><trkpt lat="59.0620493889" lon="29.9853372574"><time>2026-04-25T13:55:42Z</time></trkpt><trkpt lat="59.0620708466" lon="29.9853372574"><time>2026-04-25T13:55:44Z</time></trkpt><trkpt lat="59.0620923042" lon="29.9853372574"><time>2026-04-25T13:55:47Z</time></trkpt><trkpt lat="59.0621352196" lon="29.9853372574"><time>2026-04-25T13:55:49Z</time></trkpt><trkpt lat="59.0621566772" lon="29.9853372574"><time>2026-04-25T13:55:52Z</time></trkpt><trkpt lat="59.0621781349" lon="29.9852728844"><time>2026-04-25T13:55:54Z</time></trkpt><trkpt lat="59.0621995926" lon="29.9852728844"><time>2026-04-25T13:55:57Z</time></trkpt><trkpt lat="59.0621995926" lon="29.9852728844"><time>2026-04-25T13:55:59Z</time></trkpt><trkpt lat="59.0621995926" lon="29.9852728844"><time>2026-04-25T13:56:02Z</time></trkpt><trkpt lat="59.0621995926" lon="29.9852514267"><time>2026-04-25T13:56:04Z</time></trkpt><trkpt lat="59.0621995926" lon="29.9852299690"><time>2026-04-25T13:56:07Z</time></trkpt><trkpt lat="59.0622210503" lon="29.9851655960"><time>2026-04-25T13:56:09Z</time></trkpt><trkpt lat="59.0622210503" lon="29.9851441383"><time>2026-04-25T13:56:12Z</time></trkpt><trkpt lat="59.0622210503" lon="29.9851441383"><time>2026-04-25T13:56:14Z</time></trkpt><trkpt lat="59.0622210503" lon="29.9851441383"><time>2026-04-25T13:56:17Z</time></trkpt><trkpt lat="59.0622210503" lon="29.9851441383"><time>2026-04-25T13:56:19Z</time></trkpt><trkpt lat="59.0622210503" lon="29.9851441383"><time>2026-04-25T13:56:22Z</time></trkpt><trkpt lat="59.0622210503" lon="29.9851441383"><time>2026-04-25T13:56:24Z</time></trkpt><trkpt lat="59.0622210503" lon="29.9851441383"><time>2026-04-25T13:56:27Z</time></trkpt><trkpt lat="59.0622210503" lon="29.9851441383"><time>2026-04-25T13:56:29Z</time></trkpt><trkpt lat="59.0622425079" lon="29.9851226807"><time>2026-04-25T13:56:32Z</time></trkpt><trkpt lat="59.0622854233" lon="29.9850797653"><time>2026-04-25T13:56:34Z</time></trkpt><trkpt lat="59.0623283386" lon="29.9850797653"><time>2026-04-25T13:56:37Z</time></trkpt><trkpt lat="59.0623712540" lon="29.9850368500"><time>2026-04-25T13:56:39Z</time></trkpt><trkpt lat="59.0623927116" lon="29.9850368500"><time>2026-04-25T13:56:42Z</time></trkpt><trkpt lat="59.0623927116" lon="29.9850368500"><time>2026-04-25T13:56:44Z</time></trkpt><trkpt lat="59.0623927116" lon="29.9850583076"><time>2026-04-25T13:56:47Z</time></trkpt><trkpt lat="59.0623927116" lon="29.9850583076"><time>2026-04-25T13:56:49Z</time></trkpt><trkpt lat="59.0623927116" lon="29.9850797653"><time>2026-04-25T13:56:52Z</time></trkpt><trkpt lat="59.0624356270" lon="29.9851441383"><time>2026-04-25T13:56:54Z</time></trkpt><trkpt lat="59.0624570847" lon="29.9851655960"><time>2026-04-25T13:56:57Z</time></trkpt><trkpt lat="59.0624570847" lon="29.9851655960"><time>2026-04-25T13:56:59Z</time></trkpt><trkpt lat="59.0624570847" lon="29.9851655960"><time>2026-04-25T13:57:02Z</time></trkpt><trkpt lat="59.0624785423" lon="29.9851655960"><time>2026-04-25T13:57:04Z</time></trkpt><trkpt lat="59.0624785423" lon="29.9851655960"><time>2026-04-25T13:57:07Z</time></trkpt><trkpt lat="59.0624785423" lon="29.9851655960"><time>2026-04-25T13:57:09Z</time></trkpt><trkpt lat="59.0624785423" lon="29.9851655960"><time>2026-04-25T13:57:12Z</time></trkpt><trkpt lat="59.0624785423" lon="29.9851655960"><time>2026-04-25T13:57:14Z</time></trkpt><trkpt lat="59.0624785423" lon="29.9851655960"><time>2026-04-25T13:57:17Z</time></trkpt><trkpt lat="59.0624785423" lon="29.9851655960"><time>2026-04-25T13:57:19Z</time></trkpt><trkpt lat="59.0624785423" lon="29.9851655960"><time>2026-04-25T13:57:22Z</time></trkpt><trkpt lat="59.0624785423" lon="29.9851655960"><time>2026-04-25T13:57:24Z</time></trkpt><trkpt lat="59.0624785423" lon="29.9851655960"><time>2026-04-25T13:57:27Z</time></trkpt><trkpt lat="59.0624785423" lon="29.9851655960"><time>2026-04-25T13:57:29Z</time></trkpt><trkpt lat="59.0624785423" lon="29.9851655960"><time>2026-04-25T13:57:32Z</time></trkpt><trkpt lat="59.0624785423" lon="29.9851655960"><time>2026-04-25T13:57:34Z</time></trkpt><trkpt lat="59.0625000000" lon="29.9851655960"><time>2026-04-25T13:57:37Z</time></trkpt><trkpt lat="59.0625000000" lon="29.9851655960"><time>2026-04-25T13:57:39Z</time></trkpt><trkpt lat="59.0625000000" lon="29.9851655960"><time>2026-04-25T13:57:42Z</time></trkpt><trkpt lat="59.0625000000" lon="29.9851655960"><time>2026-04-25T13:57:44Z</time></trkpt><trkpt lat="59.0625000000" lon="29.9851655960"><time>2026-04-25T13:57:47Z</time></trkpt><trkpt lat="59.0625000000" lon="29.9851655960"><time>2026-04-25T13:57:49Z</time></trkpt><trkpt lat="59.0625000000" lon="29.9851655960"><time>2026-04-25T13:57:52Z</time></trkpt><trkpt lat="59.0625000000" lon="29.9851655960"><time>2026-04-25T13:57:54Z</time></trkpt><trkpt lat="59.0625214577" lon="29.9851655960"><time>2026-04-25T13:57:57Z</time></trkpt><trkpt lat="59.0625429153" lon="29.9851226807"><time>2026-04-25T13:57:59Z</time></trkpt><trkpt lat="59.0625643730" lon="29.9851012230"><time>2026-04-25T13:58:02Z</time></trkpt><trkpt lat="59.0625429153" lon="29.9851012230"><time>2026-04-25T13:58:04Z</time></trkpt><trkpt lat="59.0625429153" lon="29.9851012230"><time>2026-04-25T13:58:07Z</time></trkpt><trkpt lat="59.0625643730" lon="29.9851226807"><time>2026-04-25T13:58:09Z</time></trkpt><trkpt lat="59.0625858307" lon="29.9851655960"><time>2026-04-25T13:58:12Z</time></trkpt><trkpt lat="59.0625858307" lon="29.9851870537"><time>2026-04-25T13:58:14Z</time></trkpt><trkpt lat="59.0626072884" lon="29.9851870537"><time>2026-04-25T13:58:17Z</time></trkpt><trkpt lat="59.0626502037" lon="29.9851655960"><time>2026-04-25T13:58:19Z</time></trkpt><trkpt lat="59.0626931190" lon="29.9851655960"><time>2026-04-25T13:58:22Z</time></trkpt><trkpt lat="59.0627145767" lon="29.9852085114"><time>2026-04-25T13:58:24Z</time></trkpt><trkpt lat="59.0627360344" lon="29.9852514267"><time>2026-04-25T13:58:27Z</time></trkpt><trkpt lat="59.0627360344" lon="29.9853157997"><time>2026-04-25T13:58:29Z</time></trkpt><trkpt lat="59.0627360344" lon="29.9853157997"><time>2026-04-25T13:58:32Z</time></trkpt><trkpt lat="59.0627360344" lon="29.9853157997"><time>2026-04-25T13:58:34Z</time></trkpt><trkpt lat="59.0627360344" lon="29.9853157997"><time>2026-04-25T13:58:37Z</time></trkpt><trkpt lat="59.0627360344" lon="29.9853372574"><time>2026-04-25T13:58:39Z</time></trkpt><trkpt lat="59.0627360344" lon="29.9853587151"><time>2026-04-25T13:58:42Z</time></trkpt><trkpt lat="59.0627360344" lon="29.9854016304"><time>2026-04-25T13:58:44Z</time></trkpt><trkpt lat="59.0627360344" lon="29.9854445457"><time>2026-04-25T13:58:47Z</time></trkpt><trkpt lat="59.0627360344" lon="29.9854660034"><time>2026-04-25T13:58:49Z</time></trkpt><trkpt lat="59.0627574921" lon="29.9855303764"><time>2026-04-25T13:58:52Z</time></trkpt><trkpt lat="59.0627789497" lon="29.9855732918"><time>2026-04-25T13:58:54Z</time></trkpt><trkpt lat="59.0628004074" lon="29.9855732918"><time>2026-04-25T13:58:57Z</time></trkpt><trkpt lat="59.0628004074" lon="29.9855947495"><time>2026-04-25T13:58:59Z</time></trkpt><trkpt lat="59.0628218651" lon="29.9855947495"><time>2026-04-25T13:59:02Z</time></trkpt><trkpt lat="59.0628433228" lon="29.9855947495"><time>2026-04-25T13:59:04Z</time></trkpt><trkpt lat="59.0628647804" lon="29.9856376648"><time>2026-04-25T13:59:07Z</time></trkpt><trkpt lat="59.0628647804" lon="29.9856591225"><time>2026-04-25T13:59:09Z</time></trkpt><trkpt lat="59.0628862381" lon="29.9856591225"><time>2026-04-25T13:59:12Z</time></trkpt><trkpt lat="59.0628862381" lon="29.9856591225"><time>2026-04-25T13:59:14Z</time></trkpt><trkpt lat="59.0629076958" lon="29.9856162071"><time>2026-04-25T13:59:17Z</time></trkpt><trkpt lat="59.0629076958" lon="29.9855947495"><time>2026-04-25T13:59:19Z</time></trkpt><trkpt lat="59.0629291534" lon="29.9855732918"><time>2026-04-25T13:59:22Z</time></trkpt><trkpt lat="59.0629506111" lon="29.9855518341"><time>2026-04-25T13:59:24Z</time></trkpt><trkpt lat="59.0629506111" lon="29.9855518341"><time>2026-04-25T13:59:27Z</time></trkpt><trkpt lat="59.0629506111" lon="29.9855518341"><time>2026-04-25T13:59:29Z</time></trkpt><trkpt lat="59.0629720688" lon="29.9855732918"><time>2026-04-25T13:59:32Z</time></trkpt><trkpt lat="59.0629720688" lon="29.9855732918"><time>2026-04-25T13:59:34Z</time></trkpt><trkpt lat="59.0630149841" lon="29.9855303764"><time>2026-04-25T13:59:37Z</time></trkpt><trkpt lat="59.0630149841" lon="29.9855303764"><time>2026-04-25T13:59:39Z</time></trkpt><trkpt lat="59.0630364418" lon="29.9855303764"><time>2026-04-25T13:59:42Z</time></trkpt><trkpt lat="59.0630578995" lon="29.9855303764"><time>2026-04-25T13:59:44Z</time></trkpt><trkpt lat="59.0630578995" lon="29.9855303764"><time>2026-04-25T13:59:47Z</time></trkpt><trkpt lat="59.0631008148" lon="29.9855089188"><time>2026-04-25T13:59:49Z</time></trkpt><trkpt lat="59.0631008148" lon="29.9855089188"><time>2026-04-25T13:59:52Z</time></trkpt><trkpt lat="59.0631008148" lon="29.9855089188"><time>2026-04-25T13:59:54Z</time></trkpt><trkpt lat="59.0631008148" lon="29.9854874611"><time>2026-04-25T13:59:57Z</time></trkpt><trkpt lat="59.0631437302" lon="29.9854016304"><time>2026-04-25T13:59:59Z</time></trkpt><trkpt lat="59.0631651878" lon="29.9853801727"><time>2026-04-25T14:00:02Z</time></trkpt><trkpt lat="59.0631651878" lon="29.9853587151"><time>2026-04-25T14:00:04Z</time></trkpt><trkpt lat="59.0631651878" lon="29.9853587151"><time>2026-04-25T14:00:07Z</time></trkpt><trkpt lat="59.0631866455" lon="29.9853372574"><time>2026-04-25T14:00:09Z</time></trkpt><trkpt lat="59.0632510185" lon="29.9852728844"><time>2026-04-25T14:00:12Z</time></trkpt><trkpt lat="59.0633153915" lon="29.9852514267"><time>2026-04-25T14:00:14Z</time></trkpt><trkpt lat="59.0633368492" lon="29.9852085114"><time>2026-04-25T14:00:17Z</time></trkpt><trkpt lat="59.0633797646" lon="29.9851655960"><time>2026-04-25T14:00:19Z</time></trkpt><trkpt lat="59.0634012222" lon="29.9851655960"><time>2026-04-25T14:00:22Z</time></trkpt><trkpt lat="59.0634012222" lon="29.9851870537"><time>2026-04-25T14:00:24Z</time></trkpt><trkpt lat="59.0634012222" lon="29.9851870537"><time>2026-04-25T14:00:27Z</time></trkpt><trkpt lat="59.0634226799" lon="29.9852085114"><time>2026-04-25T14:00:29Z</time></trkpt><trkpt lat="59.0634226799" lon="29.9852299690"><time>2026-04-25T14:00:32Z</time></trkpt><trkpt lat="59.0634226799" lon="29.9852299690"><time>2026-04-25T14:00:34Z</time></trkpt><trkpt lat="59.0634226799" lon="29.9852299690"><time>2026-04-25T14:00:37Z</time></trkpt><trkpt lat="59.0634226799" lon="29.9852299690"><time>2026-04-25T14:00:39Z</time></trkpt><trkpt lat="59.0634226799" lon="29.9852299690"><time>2026-04-25T14:00:42Z</time></trkpt><trkpt lat="59.0634226799" lon="29.9852299690"><time>2026-04-25T14:00:44Z</time></trkpt><trkpt lat="59.0634012222" lon="29.9852728844"><time>2026-04-25T14:00:47Z</time></trkpt><trkpt lat="59.0634012222" lon="29.9852943420"><time>2026-04-25T14:00:49Z</time></trkpt><trkpt lat="59.0634012222" lon="29.9852943420"><time>2026-04-25T14:00:52Z</time></trkpt><trkpt lat="59.0634012222" lon="29.9852943420"><time>2026-04-25T14:00:54Z</time></trkpt><trkpt lat="59.0634012222" lon="29.9853157997"><time>2026-04-25T14:00:57Z</time></trkpt><trkpt lat="59.0634012222" lon="29.9853157997"><time>2026-04-25T14:00:59Z</time></trkpt><trkpt lat="59.0634012222" lon="29.9853157997"><time>2026-04-25T14:01:02Z</time></trkpt><trkpt lat="59.0634012222" lon="29.9853157997"><time>2026-04-25T14:01:04Z</time></trkpt><trkpt lat="59.0634012222" lon="29.9853157997"><time>2026-04-25T14:01:07Z</time></trkpt><trkpt lat="59.0634012222" lon="29.9853157997"><time>2026-04-25T14:01:09Z</time></trkpt><trkpt lat="59.0634012222" lon="29.9853157997"><time>2026-04-25T14:01:12Z</time></trkpt><trkpt lat="59.0634012222" lon="29.9853157997"><time>2026-04-25T14:01:14Z</time></trkpt><trkpt lat="59.0634226799" lon="29.9853372574"><time>2026-04-25T14:01:17Z</time></trkpt><trkpt lat="59.0634655952" lon="29.9853372574"><time>2026-04-25T14:01:19Z</time></trkpt><trkpt lat="59.0634655952" lon="29.9853372574"><time>2026-04-25T14:01:22Z</time></trkpt><trkpt lat="59.0634870529" lon="29.9853157997"><time>2026-04-25T14:01:24Z</time></trkpt><trkpt lat="59.0635299683" lon="29.9852943420"><time>2026-04-25T14:01:27Z</time></trkpt><trkpt lat="59.0635728836" lon="29.9853157997"><time>2026-04-25T14:01:29Z</time></trkpt><trkpt lat="59.0635943413" lon="29.9852728844"><time>2026-04-25T14:01:32Z</time></trkpt><trkpt lat="59.0636372566" lon="29.9853157997"><time>2026-04-25T14:01:34Z</time></trkpt><trkpt lat="59.0636801720" lon="29.9853157997"><time>2026-04-25T14:01:37Z</time></trkpt><trkpt lat="59.0637230873" lon="29.9853372574"><time>2026-04-25T14:01:39Z</time></trkpt><trkpt lat="59.0637445450" lon="29.9853372574"><time>2026-04-25T14:01:42Z</time></trkpt><trkpt lat="59.0637445450" lon="29.9853372574"><time>2026-04-25T14:01:44Z</time></trkpt><trkpt lat="59.0637445450" lon="29.9853587151"><time>2026-04-25T14:01:47Z</time></trkpt><trkpt lat="59.0637445450" lon="29.9853801727"><time>2026-04-25T14:01:49Z</time></trkpt><trkpt lat="59.0637445450" lon="29.9854016304"><time>2026-04-25T14:01:52Z</time></trkpt><trkpt lat="59.0637445450" lon="29.9854016304"><time>2026-04-25T14:01:54Z</time></trkpt><trkpt lat="59.0637445450" lon="29.9853587151"><time>2026-04-25T14:01:57Z</time></trkpt><trkpt lat="59.0637660027" lon="29.9852943420"><time>2026-04-25T14:01:59Z</time></trkpt><trkpt lat="59.0637874603" lon="29.9852728844"><time>2026-04-25T14:02:02Z</time></trkpt><trkpt lat="59.0638089180" lon="29.9852728844"><time>2026-04-25T14:02:04Z</time></trkpt><trkpt lat="59.0638089180" lon="29.9852728844"><time>2026-04-25T14:02:07Z</time></trkpt><trkpt lat="59.0637874603" lon="29.9853372574"><time>2026-04-25T14:02:09Z</time></trkpt><trkpt lat="59.0637874603" lon="29.9853587151"><time>2026-04-25T14:02:12Z</time></trkpt><trkpt lat="59.0638089180" lon="29.9854230881"><time>2026-04-25T14:02:14Z</time></trkpt><trkpt lat="59.0638089180" lon="29.9854874611"><time>2026-04-25T14:02:17Z</time></trkpt><trkpt lat="59.0638303757" lon="29.9855518341"><time>2026-04-25T14:02:19Z</time></trkpt><trkpt lat="59.0638303757" lon="29.9855732918"><time>2026-04-25T14:02:22Z</time></trkpt><trkpt lat="59.0638303757" lon="29.9855947495"><time>2026-04-25T14:02:24Z</time></trkpt><trkpt lat="59.0638303757" lon="29.9855947495"><time>2026-04-25T14:02:27Z</time></trkpt><trkpt lat="59.0638303757" lon="29.9855947495"><time>2026-04-25T14:02:29Z</time></trkpt><trkpt lat="59.0638303757" lon="29.9855947495"><time>2026-04-25T14:02:32Z</time></trkpt><trkpt lat="59.0638303757" lon="29.9855947495"><time>2026-04-25T14:02:34Z</time></trkpt><trkpt lat="59.0638518333" lon="29.9856162071"><time>2026-04-25T14:02:37Z</time></trkpt><trkpt lat="59.0638947487" lon="29.9856162071"><time>2026-04-25T14:02:39Z</time></trkpt><trkpt lat="59.0639162064" lon="29.9855732918"><time>2026-04-25T14:02:42Z</time></trkpt><trkpt lat="59.0639376640" lon="29.9855732918"><time>2026-04-25T14:02:44Z</time></trkpt><trkpt lat="59.0639376640" lon="29.9855947495"><time>2026-04-25T14:02:47Z</time></trkpt><trkpt lat="59.0639376640" lon="29.9855947495"><time>2026-04-25T14:02:49Z</time></trkpt><trkpt lat="59.0639591217" lon="29.9855732918"><time>2026-04-25T14:02:52Z</time></trkpt><trkpt lat="59.0640234947" lon="29.9855947495"><time>2026-04-25T14:02:54Z</time></trkpt><trkpt lat="59.0640449524" lon="29.9855518341"><time>2026-04-25T14:02:57Z</time></trkpt><trkpt lat="59.0640878677" lon="29.9855089188"><time>2026-04-25T14:02:59Z</time></trkpt><trkpt lat="59.0640878677" lon="29.9855089188"><time>2026-04-25T14:03:02Z</time></trkpt><trkpt lat="59.0640664101" lon="29.9854874611"><time>2026-04-25T14:03:04Z</time></trkpt><trkpt lat="59.0640878677" lon="29.9854660034"><time>2026-04-25T14:03:07Z</time></trkpt><trkpt lat="59.0641307831" lon="29.9854445457"><time>2026-04-25T14:03:09Z</time></trkpt><trkpt lat="59.0641736984" lon="29.9854230881"><time>2026-04-25T14:03:12Z</time></trkpt><trkpt lat="59.0642166138" lon="29.9854230881"><time>2026-04-25T14:03:14Z</time></trkpt><trkpt lat="59.0642380714" lon="29.9854445457"><time>2026-04-25T14:03:17Z</time></trkpt><trkpt lat="59.0642595291" lon="29.9854874611"><time>2026-04-25T14:03:19Z</time></trkpt><trkpt lat="59.0642595291" lon="29.9855089188"><time>2026-04-25T14:03:22Z</time></trkpt><trkpt lat="59.0642595291" lon="29.9855089188"><time>2026-04-25T14:03:24Z</time></trkpt><trkpt lat="59.0642595291" lon="29.9855089188"><time>2026-04-25T14:03:27Z</time></trkpt><trkpt lat="59.0642595291" lon="29.9855089188"><time>2026-04-25T14:03:29Z</time></trkpt><trkpt lat="59.0642595291" lon="29.9855518341"><time>2026-04-25T14:03:32Z</time></trkpt><trkpt lat="59.0642380714" lon="29.9855947495"><time>2026-04-25T14:03:34Z</time></trkpt><trkpt lat="59.0642380714" lon="29.9855947495"><time>2026-04-25T14:03:37Z</time></trkpt><trkpt lat="59.0642380714" lon="29.9856376648"><time>2026-04-25T14:03:39Z</time></trkpt><trkpt lat="59.0642380714" lon="29.9856376648"><time>2026-04-25T14:03:42Z</time></trkpt><trkpt lat="59.0642380714" lon="29.9856376648"><time>2026-04-25T14:03:44Z</time></trkpt><trkpt lat="59.0642380714" lon="29.9856376648"><time>2026-04-25T14:03:47Z</time></trkpt><trkpt lat="59.0642380714" lon="29.9856376648"><time>2026-04-25T14:03:49Z</time></trkpt><trkpt lat="59.0642380714" lon="29.9856376648"><time>2026-04-25T14:03:52Z</time></trkpt><trkpt lat="59.0642380714" lon="29.9856376648"><time>2026-04-25T14:03:54Z</time></trkpt><trkpt lat="59.0642380714" lon="29.9856805801"><time>2026-04-25T14:03:57Z</time></trkpt><trkpt lat="59.0642809868" lon="29.9857020378"><time>2026-04-25T14:03:59Z</time></trkpt><trkpt lat="59.0642809868" lon="29.9857020378"><time>2026-04-25T14:04:02Z</time></trkpt><trkpt lat="59.0643024445" lon="29.9857664108"><time>2026-04-25T14:04:04Z</time></trkpt><trkpt lat="59.0643024445" lon="29.9858093262"><time>2026-04-25T14:04:07Z</time></trkpt><trkpt lat="59.0643024445" lon="29.9857878685"><time>2026-04-25T14:04:09Z</time></trkpt><trkpt lat="59.0643024445" lon="29.9857878685"><time>2026-04-25T14:04:12Z</time></trkpt><trkpt lat="59.0642809868" lon="29.9857234955"><time>2026-04-25T14:04:14Z</time></trkpt><trkpt lat="59.0642809868" lon="29.9856376648"><time>2026-04-25T14:04:17Z</time></trkpt><trkpt lat="59.0642809868" lon="29.9855303764"><time>2026-04-25T14:04:19Z</time></trkpt><trkpt lat="59.0642809868" lon="29.9855303764"><time>2026-04-25T14:04:22Z</time></trkpt><trkpt lat="59.0642809868" lon="29.9855303764"><time>2026-04-25T14:04:24Z</time></trkpt><trkpt lat="59.0642809868" lon="29.9855303764"><time>2026-04-25T14:04:27Z</time></trkpt><trkpt lat="59.0642809868" lon="29.9855303764"><time>2026-04-25T14:04:29Z</time></trkpt><trkpt lat="59.0643024445" lon="29.9855089188"><time>2026-04-25T14:04:32Z</time></trkpt><trkpt lat="59.0643239021" lon="29.9854660034"><time>2026-04-25T14:04:34Z</time></trkpt><trkpt lat="59.0643453598" lon="29.9854874611"><time>2026-04-25T14:04:37Z</time></trkpt><trkpt lat="59.0643453598" lon="29.9854874611"><time>2026-04-25T14:04:39Z</time></trkpt><trkpt lat="59.0643668175" lon="29.9854874611"><time>2026-04-25T14:04:42Z</time></trkpt><trkpt lat="59.0643668175" lon="29.9855089188"><time>2026-04-25T14:04:44Z</time></trkpt><trkpt lat="59.0643882751" lon="29.9855089188"><time>2026-04-25T14:04:47Z</time></trkpt><trkpt lat="59.0644097328" lon="29.9855303764"><time>2026-04-25T14:04:49Z</time></trkpt><trkpt lat="59.0644097328" lon="29.9855518341"><time>2026-04-25T14:04:52Z</time></trkpt><trkpt lat="59.0643882751" lon="29.9855518341"><time>2026-04-25T14:04:54Z</time></trkpt><trkpt lat="59.0643882751" lon="29.9855303764"><time>2026-04-25T14:04:57Z</time></trkpt><trkpt lat="59.0643668175" lon="29.9855303764"><time>2026-04-25T14:04:59Z</time></trkpt><trkpt lat="59.0643668175" lon="29.9855303764"><time>2026-04-25T14:05:02Z</time></trkpt><trkpt lat="59.0643668175" lon="29.9855303764"><time>2026-04-25T14:05:04Z</time></trkpt><trkpt lat="59.0643668175" lon="29.9855303764"><time>2026-04-25T14:05:07Z</time></trkpt><trkpt lat="59.0643668175" lon="29.9855303764"><time>2026-04-25T14:05:09Z</time></trkpt><trkpt lat="59.0643668175" lon="29.9855303764"><time>2026-04-25T14:05:12Z</time></trkpt><trkpt lat="59.0643668175" lon="29.9855303764"><time>2026-04-25T14:05:14Z</time></trkpt><trkpt lat="59.0643668175" lon="29.9855303764"><time>2026-04-25T14:05:17Z</time></trkpt><trkpt lat="59.0643668175" lon="29.9855303764"><time>2026-04-25T14:05:19Z</time></trkpt><trkpt lat="59.0643668175" lon="29.9855518341"><time>2026-04-25T14:05:22Z</time></trkpt><trkpt lat="59.0643882751" lon="29.9856162071"><time>2026-04-25T14:05:24Z</time></trkpt><trkpt lat="59.0643882751" lon="29.9856162071"><time>2026-04-25T14:05:27Z</time></trkpt><trkpt lat="59.0644097328" lon="29.9856162071"><time>2026-04-25T14:05:29Z</time></trkpt><trkpt lat="59.0644097328" lon="29.9856162071"><time>2026-04-25T14:05:32Z</time></trkpt><trkpt lat="59.0644311905" lon="29.9856162071"><time>2026-04-25T14:05:34Z</time></trkpt><trkpt lat="59.0644526482" lon="29.9856162071"><time>2026-04-25T14:05:37Z</time></trkpt><trkpt lat="59.0644526482" lon="29.9856591225"><time>2026-04-25T14:05:39Z</time></trkpt><trkpt lat="59.0644526482" lon="29.9857020378"><time>2026-04-25T14:05:42Z</time></trkpt><trkpt lat="59.0644526482" lon="29.9857020378"><time>2026-04-25T14:05:44Z</time></trkpt><trkpt lat="59.0644311905" lon="29.9857234955"><time>2026-04-25T14:05:47Z</time></trkpt><trkpt lat="59.0644311905" lon="29.9857234955"><time>2026-04-25T14:05:49Z</time></trkpt><trkpt lat="59.0644311905" lon="29.9857234955"><time>2026-04-25T14:05:52Z</time></trkpt><trkpt lat="59.0644311905" lon="29.9857234955"><time>2026-04-25T14:05:54Z</time></trkpt><trkpt lat="59.0644311905" lon="29.9857234955"><time>2026-04-25T14:05:57Z</time></trkpt><trkpt lat="59.0644311905" lon="29.9857234955"><time>2026-04-25T14:05:59Z</time></trkpt><trkpt lat="59.0644311905" lon="29.9857234955"><time>2026-04-25T14:06:02Z</time></trkpt><trkpt lat="59.0644311905" lon="29.9857234955"><time>2026-04-25T14:06:04Z</time></trkpt><trkpt lat="59.0644311905" lon="29.9857234955"><time>2026-04-25T14:06:07Z</time></trkpt><trkpt lat="59.0644311905" lon="29.9857234955"><time>2026-04-25T14:06:09Z</time></trkpt><trkpt lat="59.0644311905" lon="29.9857234955"><time>2026-04-25T14:06:12Z</time></trkpt><trkpt lat="59.0644311905" lon="29.9857234955"><time>2026-04-25T14:06:14Z</time></trkpt><trkpt lat="59.0644311905" lon="29.9857234955"><time>2026-04-25T14:06:17Z</time></trkpt><trkpt lat="59.0644311905" lon="29.9857234955"><time>2026-04-25T14:06:19Z</time></trkpt><trkpt lat="59.0644311905" lon="29.9857234955"><time>2026-04-25T14:06:22Z</time></trkpt><trkpt lat="59.0644311905" lon="29.9857234955"><time>2026-04-25T14:06:24Z</time></trkpt><trkpt lat="59.0644311905" lon="29.9857234955"><time>2026-04-25T14:06:27Z</time></trkpt><trkpt lat="59.0644097328" lon="29.9857234955"><time>2026-04-25T14:06:29Z</time></trkpt><trkpt lat="59.0644097328" lon="29.9857234955"><time>2026-04-25T14:06:32Z</time></trkpt><trkpt lat="59.0644097328" lon="29.9857234955"><time>2026-04-25T14:06:34Z</time></trkpt><trkpt lat="59.0644097328" lon="29.9857234955"><time>2026-04-25T14:06:37Z</time></trkpt><trkpt lat="59.0644097328" lon="29.9857234955"><time>2026-04-25T14:06:39Z</time></trkpt><trkpt lat="59.0644311905" lon="29.9857234955"><time>2026-04-25T14:06:42Z</time></trkpt><trkpt lat="59.0644526482" lon="29.9857234955"><time>2026-04-25T14:06:44Z</time></trkpt><trkpt lat="59.0644741058" lon="29.9857234955"><time>2026-04-25T14:06:47Z</time></trkpt><trkpt lat="59.0645170212" lon="29.9857234955"><time>2026-04-25T14:06:49Z</time></trkpt><trkpt lat="59.0645384789" lon="29.9857234955"><time>2026-04-25T14:06:52Z</time></trkpt><trkpt lat="59.0645599365" lon="29.9857234955"><time>2026-04-25T14:06:54Z</time></trkpt><trkpt lat="59.0645813942" lon="29.9857234955"><time>2026-04-25T14:06:57Z</time></trkpt><trkpt lat="59.0646028519" lon="29.9857234955"><time>2026-04-25T14:06:59Z</time></trkpt><trkpt lat="59.0646243095" lon="29.9857234955"><time>2026-04-25T14:07:02Z</time></trkpt><trkpt lat="59.0646457672" lon="29.9857234955"><time>2026-04-25T14:07:04Z</time></trkpt><trkpt lat="59.0646672249" lon="29.9857234955"><time>2026-04-25T14:07:07Z</time></trkpt><trkpt lat="59.0646886826" lon="29.9857664108"><time>2026-04-25T14:07:09Z</time></trkpt><trkpt lat="59.0646886826" lon="29.9857664108"><time>2026-04-25T14:07:12Z</time></trkpt><trkpt lat="59.0646886826" lon="29.9857664108"><time>2026-04-25T14:07:14Z</time></trkpt><trkpt lat="59.0646886826" lon="29.9858093262"><time>2026-04-25T14:07:17Z</time></trkpt><trkpt lat="59.0646886826" lon="29.9858736992"><time>2026-04-25T14:07:19Z</time></trkpt><trkpt lat="59.0647101402" lon="29.9859166145"><time>2026-04-25T14:07:22Z</time></trkpt><trkpt lat="59.0647101402" lon="29.9859380722"><time>2026-04-25T14:07:24Z</time></trkpt><trkpt lat="59.0647101402" lon="29.9859380722"><time>2026-04-25T14:07:27Z</time></trkpt><trkpt lat="59.0647101402" lon="29.9859380722"><time>2026-04-25T14:07:29Z</time></trkpt><trkpt lat="59.0647315979" lon="29.9859380722"><time>2026-04-25T14:07:32Z</time></trkpt><trkpt lat="59.0647315979" lon="29.9859380722"><time>2026-04-25T14:07:34Z</time></trkpt><trkpt lat="59.0647315979" lon="29.9859380722"><time>2026-04-25T14:07:37Z</time></trkpt><trkpt lat="59.0647530556" lon="29.9859380722"><time>2026-04-25T14:07:39Z</time></trkpt><trkpt lat="59.0647745132" lon="29.9859595299"><time>2026-04-25T14:07:42Z</time></trkpt><trkpt lat="59.0647959709" lon="29.9859809875"><time>2026-04-25T14:07:44Z</time></trkpt><trkpt lat="59.0647745132" lon="29.9860024452"><time>2026-04-25T14:07:47Z</time></trkpt><trkpt lat="59.0647959709" lon="29.9860453606"><time>2026-04-25T14:07:49Z</time></trkpt><trkpt lat="59.0648174286" lon="29.9860668182"><time>2026-04-25T14:07:52Z</time></trkpt><trkpt lat="59.0648174286" lon="29.9860882759"><time>2026-04-25T14:07:54Z</time></trkpt><trkpt lat="59.0648174286" lon="29.9860882759"><time>2026-04-25T14:07:57Z</time></trkpt><trkpt lat="59.0648174286" lon="29.9860882759"><time>2026-04-25T14:07:59Z</time></trkpt><trkpt lat="59.0648174286" lon="29.9860882759"><time>2026-04-25T14:08:02Z</time></trkpt><trkpt lat="59.0648388863" lon="29.9860668182"><time>2026-04-25T14:08:04Z</time></trkpt><trkpt lat="59.0648603439" lon="29.9860882759"><time>2026-04-25T14:08:07Z</time></trkpt><trkpt lat="59.0648603439" lon="29.9860882759"><time>2026-04-25T14:08:09Z</time></trkpt><trkpt lat="59.0648818016" lon="29.9860882759"><time>2026-04-25T14:08:12Z</time></trkpt><trkpt lat="59.0649032593" lon="29.9861097336"><time>2026-04-25T14:08:14Z</time></trkpt><trkpt lat="59.0649032593" lon="29.9861097336"><time>2026-04-25T14:08:17Z</time></trkpt><trkpt lat="59.0649032593" lon="29.9861097336"><time>2026-04-25T14:08:19Z</time></trkpt><trkpt lat="59.0649032593" lon="29.9861097336"><time>2026-04-25T14:08:22Z</time></trkpt><trkpt lat="59.0649676323" lon="29.9860882759"><time>2026-04-25T14:08:24Z</time></trkpt><trkpt lat="59.0650105476" lon="29.9860668182"><time>2026-04-25T14:08:27Z</time></trkpt><trkpt lat="59.0650320053" lon="29.9860668182"><time>2026-04-25T14:08:29Z</time></trkpt><trkpt lat="59.0650534630" lon="29.9860668182"><time>2026-04-25T14:08:32Z</time></trkpt><trkpt lat="59.0650749207" lon="29.9860668182"><time>2026-04-25T14:08:34Z</time></trkpt><trkpt lat="59.0650963783" lon="29.9861097336"><time>2026-04-25T14:08:37Z</time></trkpt><trkpt lat="59.0650963783" lon="29.9861526489"><time>2026-04-25T14:08:39Z</time></trkpt><trkpt lat="59.0650963783" lon="29.9861526489"><time>2026-04-25T14:08:42Z</time></trkpt><trkpt lat="59.0650749207" lon="29.9861311913"><time>2026-04-25T14:08:44Z</time></trkpt><trkpt lat="59.0650749207" lon="29.9861311913"><time>2026-04-25T14:08:47Z</time></trkpt><trkpt lat="59.0651178360" lon="29.9861526489"><time>2026-04-25T14:08:49Z</time></trkpt><trkpt lat="59.0651392937" lon="29.9861741066"><time>2026-04-25T14:08:52Z</time></trkpt><trkpt lat="59.0651392937" lon="29.9861741066"><time>2026-04-25T14:08:54Z</time></trkpt><trkpt lat="59.0651392937" lon="29.9861741066"><time>2026-04-25T14:08:57Z</time></trkpt><trkpt lat="59.0651822090" lon="29.9861097336"><time>2026-04-25T14:08:59Z</time></trkpt><trkpt lat="59.0652036667" lon="29.9861097336"><time>2026-04-25T14:09:02Z</time></trkpt><trkpt lat="59.0652251244" lon="29.9861097336"><time>2026-04-25T14:09:04Z</time></trkpt><trkpt lat="59.0652251244" lon="29.9861311913"><time>2026-04-25T14:09:07Z</time></trkpt><trkpt lat="59.0652465820" lon="29.9861526489"><time>2026-04-25T14:09:09Z</time></trkpt><trkpt lat="59.0652465820" lon="29.9861526489"><time>2026-04-25T14:09:12Z</time></trkpt><trkpt lat="59.0652465820" lon="29.9861526489"><time>2026-04-25T14:09:14Z</time></trkpt><trkpt lat="59.0652465820" lon="29.9861741066"><time>2026-04-25T14:09:17Z</time></trkpt><trkpt lat="59.0652465820" lon="29.9861741066"><time>2026-04-25T14:09:19Z</time></trkpt><trkpt lat="59.0652465820" lon="29.9861311913"><time>2026-04-25T14:09:22Z</time></trkpt><trkpt lat="59.0652036667" lon="29.9860024452"><time>2026-04-25T14:09:24Z</time></trkpt><trkpt lat="59.0652036667" lon="29.9860024452"><time>2026-04-25T14:09:27Z</time></trkpt><trkpt lat="59.0652036667" lon="29.9860024452"><time>2026-04-25T14:09:29Z</time></trkpt><trkpt lat="59.0651822090" lon="29.9860882759"><time>2026-04-25T14:09:32Z</time></trkpt><trkpt lat="59.0651822090" lon="29.9861741066"><time>2026-04-25T14:09:34Z</time></trkpt><trkpt lat="59.0652036667" lon="29.9861955643"><time>2026-04-25T14:09:37Z</time></trkpt><trkpt lat="59.0651822090" lon="29.9862170219"><time>2026-04-25T14:09:39Z</time></trkpt><trkpt lat="59.0651822090" lon="29.9862170219"><time>2026-04-25T14:09:42Z</time></trkpt><trkpt lat="59.0651822090" lon="29.9862170219"><time>2026-04-25T14:09:44Z</time></trkpt><trkpt lat="59.0652036667" lon="29.9861955643"><time>2026-04-25T14:09:47Z</time></trkpt><trkpt lat="59.0651822090" lon="29.9862170219"><time>2026-04-25T14:09:49Z</time></trkpt><trkpt lat="59.0651822090" lon="29.9862170219"><time>2026-04-25T14:09:52Z</time></trkpt><trkpt lat="59.0651822090" lon="29.9862170219"><time>2026-04-25T14:09:54Z</time></trkpt><trkpt lat="59.0652036667" lon="29.9862170219"><time>2026-04-25T14:09:57Z</time></trkpt><trkpt lat="59.0652251244" lon="29.9861955643"><time>2026-04-25T14:09:59Z</time></trkpt><trkpt lat="59.0652465820" lon="29.9862170219"><time>2026-04-25T14:10:02Z</time></trkpt><trkpt lat="59.0652680397" lon="29.9862384796"><time>2026-04-25T14:10:04Z</time></trkpt><trkpt lat="59.0652680397" lon="29.9862599373"><time>2026-04-25T14:10:07Z</time></trkpt><trkpt lat="59.0652680397" lon="29.9862599373"><time>2026-04-25T14:10:09Z</time></trkpt><trkpt lat="59.0652680397" lon="29.9862599373"><time>2026-04-25T14:10:12Z</time></trkpt><trkpt lat="59.0652894974" lon="29.9862170219"><time>2026-04-25T14:10:14Z</time></trkpt><trkpt lat="59.0652894974" lon="29.9862170219"><time>2026-04-25T14:10:17Z</time></trkpt><trkpt lat="59.0652894974" lon="29.9862170219"><time>2026-04-25T14:10:19Z</time></trkpt><trkpt lat="59.0652894974" lon="29.9862599373"><time>2026-04-25T14:10:22Z</time></trkpt><trkpt lat="59.0653324127" lon="29.9862813950"><time>2026-04-25T14:10:24Z</time></trkpt><trkpt lat="59.0653324127" lon="29.9862813950"><time>2026-04-25T14:10:27Z</time></trkpt><trkpt lat="59.0653324127" lon="29.9862813950"><time>2026-04-25T14:10:29Z</time></trkpt><trkpt lat="59.0653324127" lon="29.9863243103"><time>2026-04-25T14:10:32Z</time></trkpt><trkpt lat="59.0653324127" lon="29.9863672256"><time>2026-04-25T14:10:34Z</time></trkpt><trkpt lat="59.0653538704" lon="29.9863886833"><time>2026-04-25T14:10:37Z</time></trkpt><trkpt lat="59.0653753281" lon="29.9863886833"><time>2026-04-25T14:10:39Z</time></trkpt><trkpt lat="59.0653967857" lon="29.9863672256"><time>2026-04-25T14:10:42Z</time></trkpt><trkpt lat="59.0654397011" lon="29.9863672256"><time>2026-04-25T14:10:44Z</time></trkpt><trkpt lat="59.0654611588" lon="29.9863672256"><time>2026-04-25T14:10:47Z</time></trkpt><trkpt lat="59.0655040741" lon="29.9863672256"><time>2026-04-25T14:10:49Z</time></trkpt><trkpt lat="59.0655040741" lon="29.9863457680"><time>2026-04-25T14:10:52Z</time></trkpt><trkpt lat="59.0655040741" lon="29.9862813950"><time>2026-04-25T14:10:54Z</time></trkpt><trkpt lat="59.0655255318" lon="29.9862813950"><time>2026-04-25T14:10:57Z</time></trkpt><trkpt lat="59.0655255318" lon="29.9862384796"><time>2026-04-25T14:10:59Z</time></trkpt><trkpt lat="59.0655255318" lon="29.9861955643"><time>2026-04-25T14:11:02Z</time></trkpt><trkpt lat="59.0655469894" lon="29.9861741066"><time>2026-04-25T14:11:04Z</time></trkpt><trkpt lat="59.0655469894" lon="29.9861741066"><time>2026-04-25T14:11:07Z</time></trkpt><trkpt lat="59.0655684471" lon="29.9861526489"><time>2026-04-25T14:11:09Z</time></trkpt><trkpt lat="59.0656113625" lon="29.9861311913"><time>2026-04-25T14:11:12Z</time></trkpt><trkpt lat="59.0656328201" lon="29.9861311913"><time>2026-04-25T14:11:14Z</time></trkpt><trkpt lat="59.0656757355" lon="29.9861311913"><time>2026-04-25T14:11:17Z</time></trkpt><trkpt lat="59.0656757355" lon="29.9860882759"><time>2026-04-25T14:11:19Z</time></trkpt><trkpt lat="59.0656971931" lon="29.9860668182"><time>2026-04-25T14:11:22Z</time></trkpt><trkpt lat="59.0657186508" lon="29.9860668182"><time>2026-04-25T14:11:24Z</time></trkpt><trkpt lat="59.0657401085" lon="29.9860668182"><time>2026-04-25T14:11:27Z</time></trkpt><trkpt lat="59.0657401085" lon="29.9860668182"><time>2026-04-25T14:11:29Z</time></trkpt><trkpt lat="59.0657830238" lon="29.9860453606"><time>2026-04-25T14:11:32Z</time></trkpt><trkpt lat="59.0658259392" lon="29.9860239029"><time>2026-04-25T14:11:34Z</time></trkpt><trkpt lat="59.0658473969" lon="29.9860453606"><time>2026-04-25T14:11:37Z</time></trkpt><trkpt lat="59.0658688545" lon="29.9860882759"><time>2026-04-25T14:11:39Z</time></trkpt><trkpt lat="59.0658688545" lon="29.9861311913"><time>2026-04-25T14:11:42Z</time></trkpt><trkpt lat="59.0659117699" lon="29.9861526489"><time>2026-04-25T14:11:44Z</time></trkpt><trkpt lat="59.0659546852" lon="29.9861526489"><time>2026-04-25T14:11:47Z</time></trkpt><trkpt lat="59.0659761429" lon="29.9861741066"><time>2026-04-25T14:11:49Z</time></trkpt><trkpt lat="59.0659976006" lon="29.9861955643"><time>2026-04-25T14:11:52Z</time></trkpt><trkpt lat="59.0660405159" lon="29.9861741066"><time>2026-04-25T14:11:54Z</time></trkpt><trkpt lat="59.0660405159" lon="29.9861741066"><time>2026-04-25T14:11:57Z</time></trkpt><trkpt lat="59.0660619736" lon="29.9861955643"><time>2026-04-25T14:11:59Z</time></trkpt><trkpt lat="59.0660834312" lon="29.9861955643"><time>2026-04-25T14:12:02Z</time></trkpt><trkpt lat="59.0661478043" lon="29.9861741066"><time>2026-04-25T14:12:04Z</time></trkpt><trkpt lat="59.0661478043" lon="29.9861741066"><time>2026-04-25T14:12:07Z</time></trkpt><trkpt lat="59.0661478043" lon="29.9861526489"><time>2026-04-25T14:12:09Z</time></trkpt><trkpt lat="59.0661478043" lon="29.9861526489"><time>2026-04-25T14:12:12Z</time></trkpt><trkpt lat="59.0661478043" lon="29.9861741066"><time>2026-04-25T14:12:14Z</time></trkpt><trkpt lat="59.0661478043" lon="29.9862170219"><time>2026-04-25T14:12:17Z</time></trkpt><trkpt lat="59.0661478043" lon="29.9862813950"><time>2026-04-25T14:12:19Z</time></trkpt><trkpt lat="59.0661478043" lon="29.9863457680"><time>2026-04-25T14:12:22Z</time></trkpt><trkpt lat="59.0661692619" lon="29.9863886833"><time>2026-04-25T14:12:24Z</time></trkpt><trkpt lat="59.0661692619" lon="29.9864101410"><time>2026-04-25T14:12:27Z</time></trkpt><trkpt lat="59.0662121773" lon="29.9864745140"><time>2026-04-25T14:12:29Z</time></trkpt><trkpt lat="59.0662121773" lon="29.9865174294"><time>2026-04-25T14:12:32Z</time></trkpt><trkpt lat="59.0662336349" lon="29.9866032600"><time>2026-04-25T14:12:34Z</time></trkpt><trkpt lat="59.0662550926" lon="29.9866247177"><time>2026-04-25T14:12:37Z</time></trkpt><trkpt lat="59.0662765503" lon="29.9866247177"><time>2026-04-25T14:12:39Z</time></trkpt><trkpt lat="59.0662980080" lon="29.9866461754"><time>2026-04-25T14:12:42Z</time></trkpt><trkpt lat="59.0662980080" lon="29.9866461754"><time>2026-04-25T14:12:44Z</time></trkpt><trkpt lat="59.0662980080" lon="29.9866461754"><time>2026-04-25T14:12:47Z</time></trkpt><trkpt lat="59.0663194656" lon="29.9866461754"><time>2026-04-25T14:12:49Z</time></trkpt><trkpt lat="59.0663409233" lon="29.9866676331"><time>2026-04-25T14:12:52Z</time></trkpt><trkpt lat="59.0663623810" lon="29.9867320061"><time>2026-04-25T14:12:54Z</time></trkpt><trkpt lat="59.0663838387" lon="29.9867320061"><time>2026-04-25T14:12:57Z</time></trkpt><trkpt lat="59.0663838387" lon="29.9867534637"><time>2026-04-25T14:12:59Z</time></trkpt><trkpt lat="59.0664052963" lon="29.9867749214"><time>2026-04-25T14:13:02Z</time></trkpt><trkpt lat="59.0664052963" lon="29.9867963791"><time>2026-04-25T14:13:04Z</time></trkpt><trkpt lat="59.0664052963" lon="29.9867963791"><time>2026-04-25T14:13:07Z</time></trkpt><trkpt lat="59.0664052963" lon="29.9867963791"><time>2026-04-25T14:13:09Z</time></trkpt><trkpt lat="59.0664052963" lon="29.9867963791"><time>2026-04-25T14:13:12Z</time></trkpt><trkpt lat="59.0664052963" lon="29.9868178368"><time>2026-04-25T14:13:14Z</time></trkpt><trkpt lat="59.0664267540" lon="29.9867963791"><time>2026-04-25T14:13:17Z</time></trkpt><trkpt lat="59.0664267540" lon="29.9867963791"><time>2026-04-25T14:13:19Z</time></trkpt><trkpt lat="59.0664267540" lon="29.9867749214"><time>2026-04-25T14:13:22Z</time></trkpt><trkpt lat="59.0664482117" lon="29.9867105484"><time>2026-04-25T14:13:24Z</time></trkpt><trkpt lat="59.0664696693" lon="29.9867105484"><time>2026-04-25T14:13:27Z</time></trkpt><trkpt lat="59.0664911270" lon="29.9866890907"><time>2026-04-25T14:13:29Z</time></trkpt><trkpt lat="59.0665125847" lon="29.9866890907"><time>2026-04-25T14:13:32Z</time></trkpt><trkpt lat="59.0665340424" lon="29.9867105484"><time>2026-04-25T14:13:34Z</time></trkpt><trkpt lat="59.0665340424" lon="29.9867534637"><time>2026-04-25T14:13:37Z</time></trkpt><trkpt lat="59.0665340424" lon="29.9867963791"><time>2026-04-25T14:13:39Z</time></trkpt><trkpt lat="59.0665340424" lon="29.9868178368"><time>2026-04-25T14:13:42Z</time></trkpt><trkpt lat="59.0665555000" lon="29.9868392944"><time>2026-04-25T14:13:44Z</time></trkpt><trkpt lat="59.0665769577" lon="29.9868178368"><time>2026-04-25T14:13:47Z</time></trkpt><trkpt lat="59.0665769577" lon="29.9867963791"><time>2026-04-25T14:13:49Z</time></trkpt><trkpt lat="59.0665984154" lon="29.9867749214"><time>2026-04-25T14:13:52Z</time></trkpt><trkpt lat="59.0666198730" lon="29.9866890907"><time>2026-04-25T14:13:54Z</time></trkpt><trkpt lat="59.0666413307" lon="29.9866461754"><time>2026-04-25T14:13:57Z</time></trkpt><trkpt lat="59.0666627884" lon="29.9865388870"><time>2026-04-25T14:13:59Z</time></trkpt><trkpt lat="59.0667057037" lon="29.9864745140"><time>2026-04-25T14:14:02Z</time></trkpt><trkpt lat="59.0667271614" lon="29.9864530563"><time>2026-04-25T14:14:04Z</time></trkpt><trkpt lat="59.0667700768" lon="29.9864315987"><time>2026-04-25T14:14:07Z</time></trkpt><trkpt lat="59.0667915344" lon="29.9864315987"><time>2026-04-25T14:14:09Z</time></trkpt><trkpt lat="59.0668344498" lon="29.9864315987"><time>2026-04-25T14:14:12Z</time></trkpt><trkpt lat="59.0668773651" lon="29.9864530563"><time>2026-04-25T14:14:14Z</time></trkpt><trkpt lat="59.0668988228" lon="29.9864745140"><time>2026-04-25T14:14:17Z</time></trkpt><trkpt lat="59.0668988228" lon="29.9865174294"><time>2026-04-25T14:14:19Z</time></trkpt><trkpt lat="59.0669202805" lon="29.9865174294"><time>2026-04-25T14:14:22Z</time></trkpt><trkpt lat="59.0669631958" lon="29.9865174294"><time>2026-04-25T14:14:24Z</time></trkpt><trkpt lat="59.0669631958" lon="29.9865388870"><time>2026-04-25T14:14:27Z</time></trkpt><trkpt lat="59.0669631958" lon="29.9865174294"><time>2026-04-25T14:14:29Z</time></trkpt><trkpt lat="59.0669631958" lon="29.9865174294"><time>2026-04-25T14:14:32Z</time></trkpt><trkpt lat="59.0669631958" lon="29.9865603447"><time>2026-04-25T14:14:34Z</time></trkpt><trkpt lat="59.0669631958" lon="29.9865818024"><time>2026-04-25T14:14:37Z</time></trkpt><trkpt lat="59.0669846535" lon="29.9866032600"><time>2026-04-25T14:14:39Z</time></trkpt><trkpt lat="59.0669846535" lon="29.9866461754"><time>2026-04-25T14:14:42Z</time></trkpt><trkpt lat="59.0670061111" lon="29.9867320061"><time>2026-04-25T14:14:44Z</time></trkpt><trkpt lat="59.0670061111" lon="29.9867963791"><time>2026-04-25T14:14:47Z</time></trkpt><trkpt lat="59.0670061111" lon="29.9868392944"><time>2026-04-25T14:14:49Z</time></trkpt><trkpt lat="59.0670061111" lon="29.9868392944"><time>2026-04-25T14:14:52Z</time></trkpt><trkpt lat="59.0670061111" lon="29.9868178368"><time>2026-04-25T14:14:54Z</time></trkpt><trkpt lat="59.0670061111" lon="29.9868178368"><time>2026-04-25T14:14:57Z</time></trkpt><trkpt lat="59.0670061111" lon="29.9868607521"><time>2026-04-25T14:14:59Z</time></trkpt><trkpt lat="59.0670061111" lon="29.9869251251"><time>2026-04-25T14:15:02Z</time></trkpt><trkpt lat="59.0670061111" lon="29.9869680405"><time>2026-04-25T14:15:04Z</time></trkpt><trkpt lat="59.0669846535" lon="29.9869894981"><time>2026-04-25T14:15:07Z</time></trkpt><trkpt lat="59.0670061111" lon="29.9869465828"><time>2026-04-25T14:15:09Z</time></trkpt><trkpt lat="59.0670490265" lon="29.9868392944"><time>2026-04-25T14:15:12Z</time></trkpt><trkpt lat="59.0670704842" lon="29.9867963791"><time>2026-04-25T14:15:14Z</time></trkpt><trkpt lat="59.0670704842" lon="29.9868178368"><time>2026-04-25T14:15:17Z</time></trkpt><trkpt lat="59.0670704842" lon="29.9868607521"><time>2026-04-25T14:15:19Z</time></trkpt><trkpt lat="59.0671133995" lon="29.9868607521"><time>2026-04-25T14:15:22Z</time></trkpt><trkpt lat="59.0671133995" lon="29.9869251251"><time>2026-04-25T14:15:24Z</time></trkpt><trkpt lat="59.0671348572" lon="29.9870109558"><time>2026-04-25T14:15:27Z</time></trkpt><trkpt lat="59.0671348572" lon="29.9870324135"><time>2026-04-25T14:15:29Z</time></trkpt><trkpt lat="59.0671563148" lon="29.9870538712"><time>2026-04-25T14:15:32Z</time></trkpt><trkpt lat="59.0671563148" lon="29.9870967865"><time>2026-04-25T14:15:34Z</time></trkpt><trkpt lat="59.0671563148" lon="29.9871182442"><time>2026-04-25T14:15:37Z</time></trkpt><trkpt lat="59.0671777725" lon="29.9871611595"><time>2026-04-25T14:15:39Z</time></trkpt><trkpt lat="59.0672206879" lon="29.9872469902"><time>2026-04-25T14:15:42Z</time></trkpt><trkpt lat="59.0672206879" lon="29.9873113632"><time>2026-04-25T14:15:44Z</time></trkpt><trkpt lat="59.0672206879" lon="29.9873328209"><time>2026-04-25T14:15:47Z</time></trkpt><trkpt lat="59.0671992302" lon="29.9873757362"><time>2026-04-25T14:15:49Z</time></trkpt><trkpt lat="59.0671992302" lon="29.9874186516"><time>2026-04-25T14:15:52Z</time></trkpt><trkpt lat="59.0671777725" lon="29.9874186516"><time>2026-04-25T14:15:54Z</time></trkpt><trkpt lat="59.0671992302" lon="29.9874401093"><time>2026-04-25T14:15:57Z</time></trkpt><trkpt lat="59.0671992302" lon="29.9874401093"><time>2026-04-25T14:15:59Z</time></trkpt><trkpt lat="59.0672206879" lon="29.9874401093"><time>2026-04-25T14:16:02Z</time></trkpt><trkpt lat="59.0672206879" lon="29.9874830246"><time>2026-04-25T14:16:04Z</time></trkpt><trkpt lat="59.0672206879" lon="29.9875473976"><time>2026-04-25T14:16:07Z</time></trkpt><trkpt lat="59.0672421455" lon="29.9875688553"><time>2026-04-25T14:16:09Z</time></trkpt><trkpt lat="59.0672636032" lon="29.9875259399"><time>2026-04-25T14:16:12Z</time></trkpt><trkpt lat="59.0673065186" lon="29.9874830246"><time>2026-04-25T14:16:14Z</time></trkpt><trkpt lat="59.0673065186" lon="29.9874830246"><time>2026-04-25T14:16:17Z</time></trkpt><trkpt lat="59.0673065186" lon="29.9875259399"><time>2026-04-25T14:16:19Z</time></trkpt><trkpt lat="59.0673279762" lon="29.9875688553"><time>2026-04-25T14:16:22Z</time></trkpt><trkpt lat="59.0673494339" lon="29.9875473976"><time>2026-04-25T14:16:24Z</time></trkpt><trkpt lat="59.0673494339" lon="29.9875473976"><time>2026-04-25T14:16:27Z</time></trkpt><trkpt lat="59.0673494339" lon="29.9875473976"><time>2026-04-25T14:16:29Z</time></trkpt><trkpt lat="59.0673494339" lon="29.9875473976"><time>2026-04-25T14:16:32Z</time></trkpt><trkpt lat="59.0673494339" lon="29.9875473976"><time>2026-04-25T14:16:34Z</time></trkpt><trkpt lat="59.0673494339" lon="29.9875473976"><time>2026-04-25T14:16:37Z</time></trkpt><trkpt lat="59.0673494339" lon="29.9875473976"><time>2026-04-25T14:16:39Z</time></trkpt><trkpt lat="59.0673494339" lon="29.9875473976"><time>2026-04-25T14:16:42Z</time></trkpt><trkpt lat="59.0673494339" lon="29.9874830246"><time>2026-04-25T14:16:44Z</time></trkpt><trkpt lat="59.0673494339" lon="29.9874830246"><time>2026-04-25T14:16:47Z</time></trkpt><trkpt lat="59.0673279762" lon="29.9874615669"><time>2026-04-25T14:16:49Z</time></trkpt><trkpt lat="59.0673279762" lon="29.9873971939"><time>2026-04-25T14:16:52Z</time></trkpt><trkpt lat="59.0673065186" lon="29.9873328209"><time>2026-04-25T14:16:54Z</time></trkpt><trkpt lat="59.0672850609" lon="29.9873113632"><time>2026-04-25T14:16:57Z</time></trkpt><trkpt lat="59.0672850609" lon="29.9873113632"><time>2026-04-25T14:16:59Z</time></trkpt><trkpt lat="59.0672850609" lon="29.9873113632"><time>2026-04-25T14:17:02Z</time></trkpt><trkpt lat="59.0672850609" lon="29.9873113632"><time>2026-04-25T14:17:04Z</time></trkpt><trkpt lat="59.0673065186" lon="29.9872684479"><time>2026-04-25T14:17:07Z</time></trkpt><trkpt lat="59.0673065186" lon="29.9872255325"><time>2026-04-25T14:17:09Z</time></trkpt><trkpt lat="59.0673065186" lon="29.9872255325"><time>2026-04-25T14:17:12Z</time></trkpt><trkpt lat="59.0673065186" lon="29.9872255325"><time>2026-04-25T14:17:14Z</time></trkpt><trkpt lat="59.0673065186" lon="29.9872469902"><time>2026-04-25T14:17:17Z</time></trkpt><trkpt lat="59.0673065186" lon="29.9872469902"><time>2026-04-25T14:17:19Z</time></trkpt><trkpt lat="59.0673065186" lon="29.9872469902"><time>2026-04-25T14:17:22Z</time></trkpt><trkpt lat="59.0673065186" lon="29.9872469902"><time>2026-04-25T14:17:24Z</time></trkpt><trkpt lat="59.0673065186" lon="29.9872469902"><time>2026-04-25T14:17:27Z</time></trkpt><trkpt lat="59.0673065186" lon="29.9872469902"><time>2026-04-25T14:17:29Z</time></trkpt><trkpt lat="59.0673065186" lon="29.9872469902"><time>2026-04-25T14:17:32Z</time></trkpt><trkpt lat="59.0673065186" lon="29.9872469902"><time>2026-04-25T14:17:34Z</time></trkpt><trkpt lat="59.0673065186" lon="29.9872469902"><time>2026-04-25T14:17:37Z</time></trkpt><trkpt lat="59.0673065186" lon="29.9872255325"><time>2026-04-25T14:17:39Z</time></trkpt><trkpt lat="59.0673065186" lon="29.9871826172"><time>2026-04-25T14:17:42Z</time></trkpt><trkpt lat="59.0673279762" lon="29.9871611595"><time>2026-04-25T14:17:44Z</time></trkpt><trkpt lat="59.0673279762" lon="29.9871611595"><time>2026-04-25T14:17:47Z</time></trkpt><trkpt lat="59.0673494339" lon="29.9871182442"><time>2026-04-25T14:17:49Z</time></trkpt><trkpt lat="59.0673494339" lon="29.9870967865"><time>2026-04-25T14:17:52Z</time></trkpt><trkpt lat="59.0673494339" lon="29.9870753288"><time>2026-04-25T14:17:54Z</time></trkpt><trkpt lat="59.0673708916" lon="29.9870967865"><time>2026-04-25T14:17:57Z</time></trkpt><trkpt lat="59.0673923492" lon="29.9871182442"><time>2026-04-25T14:17:59Z</time></trkpt><trkpt lat="59.0674138069" lon="29.9871182442"><time>2026-04-25T14:18:02Z</time></trkpt><trkpt lat="59.0674138069" lon="29.9871397018"><time>2026-04-25T14:18:04Z</time></trkpt><trkpt lat="59.0674138069" lon="29.9871397018"><time>2026-04-25T14:18:07Z</time></trkpt><trkpt lat="59.0674138069" lon="29.9871826172"><time>2026-04-25T14:18:09Z</time></trkpt><trkpt lat="59.0674352646" lon="29.9872040749"><time>2026-04-25T14:18:12Z</time></trkpt><trkpt lat="59.0674352646" lon="29.9873113632"><time>2026-04-25T14:18:14Z</time></trkpt><trkpt lat="59.0674352646" lon="29.9873328209"><time>2026-04-25T14:18:17Z</time></trkpt><trkpt lat="59.0674352646" lon="29.9873542786"><time>2026-04-25T14:18:19Z</time></trkpt><trkpt lat="59.0674138069" lon="29.9873542786"><time>2026-04-25T14:18:22Z</time></trkpt><trkpt lat="59.0674138069" lon="29.9873542786"><time>2026-04-25T14:18:24Z</time></trkpt><trkpt lat="59.0674138069" lon="29.9873757362"><time>2026-04-25T14:18:27Z</time></trkpt><trkpt lat="59.0674138069" lon="29.9874615669"><time>2026-04-25T14:18:29Z</time></trkpt><trkpt lat="59.0673923492" lon="29.9874830246"><time>2026-04-25T14:18:32Z</time></trkpt><trkpt lat="59.0673708916" lon="29.9875688553"><time>2026-04-25T14:18:34Z</time></trkpt><trkpt lat="59.0673494339" lon="29.9875903130"><time>2026-04-25T14:18:37Z</time></trkpt><trkpt lat="59.0673494339" lon="29.9875903130"><time>2026-04-25T14:18:39Z</time></trkpt><trkpt lat="59.0673494339" lon="29.9876332283"><time>2026-04-25T14:18:42Z</time></trkpt><trkpt lat="59.0673494339" lon="29.9876546860"><time>2026-04-25T14:18:44Z</time></trkpt><trkpt lat="59.0673708916" lon="29.9876332283"><time>2026-04-25T14:18:47Z</time></trkpt><trkpt lat="59.0674138069" lon="29.9876332283"><time>2026-04-25T14:18:49Z</time></trkpt><trkpt lat="59.0674352646" lon="29.9876332283"><time>2026-04-25T14:18:52Z</time></trkpt><trkpt lat="59.0674781799" lon="29.9875903130"><time>2026-04-25T14:18:54Z</time></trkpt><trkpt lat="59.0675425529" lon="29.9875044823"><time>2026-04-25T14:18:57Z</time></trkpt><trkpt lat="59.0675640106" lon="29.9874401093"><time>2026-04-25T14:18:59Z</time></trkpt><trkpt lat="59.0675640106" lon="29.9873971939"><time>2026-04-25T14:19:02Z</time></trkpt><trkpt lat="59.0675425529" lon="29.9873113632"><time>2026-04-25T14:19:04Z</time></trkpt><trkpt lat="59.0675640106" lon="29.9872469902"><time>2026-04-25T14:19:07Z</time></trkpt><trkpt lat="59.0676069260" lon="29.9872040749"><time>2026-04-25T14:19:09Z</time></trkpt><trkpt lat="59.0676283836" lon="29.9871611595"><time>2026-04-25T14:19:12Z</time></trkpt><trkpt lat="59.0676498413" lon="29.9871397018"><time>2026-04-25T14:19:14Z</time></trkpt><trkpt lat="59.0676498413" lon="29.9871611595"><time>2026-04-25T14:19:17Z</time></trkpt><trkpt lat="59.0676712990" lon="29.9871611595"><time>2026-04-25T14:19:19Z</time></trkpt><trkpt lat="59.0676927567" lon="29.9871611595"><time>2026-04-25T14:19:22Z</time></trkpt><trkpt lat="59.0676927567" lon="29.9871826172"><time>2026-04-25T14:19:24Z</time></trkpt><trkpt lat="59.0677142143" lon="29.9872255325"><time>2026-04-25T14:19:27Z</time></trkpt><trkpt lat="59.0677356720" lon="29.9872255325"><time>2026-04-25T14:19:29Z</time></trkpt><trkpt lat="59.0677356720" lon="29.9872255325"><time>2026-04-25T14:19:32Z</time></trkpt><trkpt lat="59.0677356720" lon="29.9872255325"><time>2026-04-25T14:19:34Z</time></trkpt><trkpt lat="59.0677571297" lon="29.9872255325"><time>2026-04-25T14:19:37Z</time></trkpt><trkpt lat="59.0677571297" lon="29.9872255325"><time>2026-04-25T14:19:39Z</time></trkpt><trkpt lat="59.0677571297" lon="29.9872469902"><time>2026-04-25T14:19:42Z</time></trkpt><trkpt lat="59.0677571297" lon="29.9872469902"><time>2026-04-25T14:19:44Z</time></trkpt><trkpt lat="59.0677571297" lon="29.9872469902"><time>2026-04-25T14:19:47Z</time></trkpt><trkpt lat="59.0678215027" lon="29.9872469902"><time>2026-04-25T14:19:49Z</time></trkpt><trkpt lat="59.0678215027" lon="29.9872469902"><time>2026-04-25T14:19:52Z</time></trkpt><trkpt lat="59.0678215027" lon="29.9872469902"><time>2026-04-25T14:19:54Z</time></trkpt><trkpt lat="59.0678215027" lon="29.9872469902"><time>2026-04-25T14:19:57Z</time></trkpt><trkpt lat="59.0678215027" lon="29.9872255325"><time>2026-04-25T14:19:59Z</time></trkpt><trkpt lat="59.0678429604" lon="29.9872255325"><time>2026-04-25T14:20:02Z</time></trkpt><trkpt lat="59.0678429604" lon="29.9871826172"><time>2026-04-25T14:20:04Z</time></trkpt><trkpt lat="59.0678429604" lon="29.9871826172"><time>2026-04-25T14:20:07Z</time></trkpt><trkpt lat="59.0678429604" lon="29.9872255325"><time>2026-04-25T14:20:09Z</time></trkpt><trkpt lat="59.0678429604" lon="29.9872684479"><time>2026-04-25T14:20:12Z</time></trkpt><trkpt lat="59.0678429604" lon="29.9872684479"><time>2026-04-25T14:20:14Z</time></trkpt><trkpt lat="59.0678429604" lon="29.9872684479"><time>2026-04-25T14:20:17Z</time></trkpt><trkpt lat="59.0678644180" lon="29.9872684479"><time>2026-04-25T14:20:19Z</time></trkpt><trkpt lat="59.0678644180" lon="29.9872684479"><time>2026-04-25T14:20:22Z</time></trkpt><trkpt lat="59.0678644180" lon="29.9872899055"><time>2026-04-25T14:20:24Z</time></trkpt><trkpt lat="59.0678644180" lon="29.9873113632"><time>2026-04-25T14:20:27Z</time></trkpt><trkpt lat="59.0678644180" lon="29.9873328209"><time>2026-04-25T14:20:29Z</time></trkpt><trkpt lat="59.0678644180" lon="29.9873542786"><time>2026-04-25T14:20:32Z</time></trkpt><trkpt lat="59.0678644180" lon="29.9873542786"><time>2026-04-25T14:20:34Z</time></trkpt><trkpt lat="59.0678644180" lon="29.9873542786"><time>2026-04-25T14:20:37Z</time></trkpt><trkpt lat="59.0678644180" lon="29.9873542786"><time>2026-04-25T14:20:39Z</time></trkpt><trkpt lat="59.0678644180" lon="29.9873542786"><time>2026-04-25T14:20:42Z</time></trkpt><trkpt lat="59.0678644180" lon="29.9873757362"><time>2026-04-25T14:20:44Z</time></trkpt><trkpt lat="59.0678644180" lon="29.9874401093"><time>2026-04-25T14:20:47Z</time></trkpt><trkpt lat="59.0678858757" lon="29.9875044823"><time>2026-04-25T14:20:49Z</time></trkpt><trkpt lat="59.0679073334" lon="29.9874830246"><time>2026-04-25T14:20:52Z</time></trkpt><trkpt lat="59.0679073334" lon="29.9874830246"><time>2026-04-25T14:20:54Z</time></trkpt><trkpt lat="59.0679073334" lon="29.9874830246"><time>2026-04-25T14:20:57Z</time></trkpt><trkpt lat="59.0678858757" lon="29.9874615669"><time>2026-04-25T14:20:59Z</time></trkpt><trkpt lat="59.0678858757" lon="29.9873971939"><time>2026-04-25T14:21:02Z</time></trkpt><trkpt lat="59.0678858757" lon="29.9873971939"><time>2026-04-25T14:21:04Z</time></trkpt><trkpt lat="59.0678858757" lon="29.9873542786"><time>2026-04-25T14:21:07Z</time></trkpt><trkpt lat="59.0678644180" lon="29.9872684479"><time>2026-04-25T14:21:09Z</time></trkpt><trkpt lat="59.0678644180" lon="29.9872040749"><time>2026-04-25T14:21:12Z</time></trkpt><trkpt lat="59.0678644180" lon="29.9871397018"><time>2026-04-25T14:21:14Z</time></trkpt><trkpt lat="59.0678644180" lon="29.9870967865"><time>2026-04-25T14:21:17Z</time></trkpt><trkpt lat="59.0678429604" lon="29.9870324135"><time>2026-04-25T14:21:19Z</time></trkpt><trkpt lat="59.0678644180" lon="29.9869894981"><time>2026-04-25T14:21:22Z</time></trkpt><trkpt lat="59.0678429604" lon="29.9869465828"><time>2026-04-25T14:21:24Z</time></trkpt><trkpt lat="59.0678429604" lon="29.9869251251"><time>2026-04-25T14:21:27Z</time></trkpt><trkpt lat="59.0678429604" lon="29.9869251251"><time>2026-04-25T14:21:29Z</time></trkpt><trkpt lat="59.0678429604" lon="29.9869251251"><time>2026-04-25T14:21:32Z</time></trkpt><trkpt lat="59.0678429604" lon="29.9869036674"><time>2026-04-25T14:21:34Z</time></trkpt><trkpt lat="59.0678429604" lon="29.9869036674"><time>2026-04-25T14:21:37Z</time></trkpt><trkpt lat="59.0678215027" lon="29.9867963791"><time>2026-04-25T14:21:39Z</time></trkpt><trkpt lat="59.0678000450" lon="29.9867105484"><time>2026-04-25T14:21:42Z</time></trkpt><trkpt lat="59.0678000450" lon="29.9866461754"><time>2026-04-25T14:21:44Z</time></trkpt><trkpt lat="59.0677785873" lon="29.9865818024"><time>2026-04-25T14:21:47Z</time></trkpt><trkpt lat="59.0677785873" lon="29.9865388870"><time>2026-04-25T14:21:49Z</time></trkpt><trkpt lat="59.0677785873" lon="29.9865388870"><time>2026-04-25T14:21:52Z</time></trkpt><trkpt lat="59.0677571297" lon="29.9865174294"><time>2026-04-25T14:21:54Z</time></trkpt><trkpt lat="59.0677571297" lon="29.9864745140"><time>2026-04-25T14:21:57Z</time></trkpt><trkpt lat="59.0677571297" lon="29.9864101410"><time>2026-04-25T14:21:59Z</time></trkpt><trkpt lat="59.0677356720" lon="29.9864101410"><time>2026-04-25T14:22:02Z</time></trkpt><trkpt lat="59.0676927567" lon="29.9863672256"><time>2026-04-25T14:22:04Z</time></trkpt><trkpt lat="59.0676927567" lon="29.9863457680"><time>2026-04-25T14:22:07Z</time></trkpt><trkpt lat="59.0676498413" lon="29.9863243103"><time>2026-04-25T14:22:09Z</time></trkpt><trkpt lat="59.0676498413" lon="29.9863243103"><time>2026-04-25T14:22:12Z</time></trkpt><trkpt lat="59.0676498413" lon="29.9863243103"><time>2026-04-25T14:22:14Z</time></trkpt><trkpt lat="59.0676283836" lon="29.9862599373"><time>2026-04-25T14:22:17Z</time></trkpt><trkpt lat="59.0676069260" lon="29.9862170219"><time>2026-04-25T14:22:19Z</time></trkpt><trkpt lat="59.0675640106" lon="29.9862170219"><time>2026-04-25T14:22:22Z</time></trkpt><trkpt lat="59.0675210953" lon="29.9861741066"><time>2026-04-25T14:22:24Z</time></trkpt><trkpt lat="59.0675210953" lon="29.9861311913"><time>2026-04-25T14:22:27Z</time></trkpt><trkpt lat="59.0674996376" lon="29.9861311913"><time>2026-04-25T14:22:29Z</time></trkpt><trkpt lat="59.0674996376" lon="29.9861311913"><time>2026-04-25T14:22:32Z</time></trkpt><trkpt lat="59.0674781799" lon="29.9861097336"><time>2026-04-25T14:22:34Z</time></trkpt><trkpt lat="59.0674567223" lon="29.9861097336"><time>2026-04-25T14:22:37Z</time></trkpt><trkpt lat="59.0674567223" lon="29.9861311913"><time>2026-04-25T14:22:39Z</time></trkpt><trkpt lat="59.0674567223" lon="29.9861526489"><time>2026-04-25T14:22:42Z</time></trkpt><trkpt lat="59.0674352646" lon="29.9861955643"><time>2026-04-25T14:22:44Z</time></trkpt><trkpt lat="59.0674138069" lon="29.9861955643"><time>2026-04-25T14:22:47Z</time></trkpt><trkpt lat="59.0673923492" lon="29.9861741066"><time>2026-04-25T14:22:49Z</time></trkpt><trkpt lat="59.0673923492" lon="29.9861741066"><time>2026-04-25T14:22:52Z</time></trkpt><trkpt lat="59.0673923492" lon="29.9861526489"><time>2026-04-25T14:22:54Z</time></trkpt><trkpt lat="59.0673708916" lon="29.9861311913"><time>2026-04-25T14:22:57Z</time></trkpt><trkpt lat="59.0673708916" lon="29.9861097336"><time>2026-04-25T14:22:59Z</time></trkpt><trkpt lat="59.0673708916" lon="29.9861097336"><time>2026-04-25T14:23:02Z</time></trkpt><trkpt lat="59.0673708916" lon="29.9861097336"><time>2026-04-25T14:23:04Z</time></trkpt><trkpt lat="59.0673708916" lon="29.9861311913"><time>2026-04-25T14:23:07Z</time></trkpt><trkpt lat="59.0674138069" lon="29.9861955643"><time>2026-04-25T14:23:09Z</time></trkpt><trkpt lat="59.0674781799" lon="29.9861741066"><time>2026-04-25T14:23:12Z</time></trkpt><trkpt lat="59.0675854683" lon="29.9862170219"><time>2026-04-25T14:23:14Z</time></trkpt><trkpt lat="59.0676498413" lon="29.9863028526"><time>2026-04-25T14:23:17Z</time></trkpt><trkpt lat="59.0676927567" lon="29.9863457680"><time>2026-04-25T14:23:19Z</time></trkpt><trkpt lat="59.0677571297" lon="29.9864315987"><time>2026-04-25T14:23:22Z</time></trkpt><trkpt lat="59.0677571297" lon="29.9865388870"><time>2026-04-25T14:23:24Z</time></trkpt><trkpt lat="59.0677785873" lon="29.9865603447"><time>2026-04-25T14:23:27Z</time></trkpt><trkpt lat="59.0677571297" lon="29.9865603447"><time>2026-04-25T14:23:29Z</time></trkpt><trkpt lat="59.0677571297" lon="29.9865818024"><time>2026-04-25T14:23:32Z</time></trkpt><trkpt lat="59.0677356720" lon="29.9866032600"><time>2026-04-25T14:23:34Z</time></trkpt><trkpt lat="59.0677142143" lon="29.9866247177"><time>2026-04-25T14:23:37Z</time></trkpt><trkpt lat="59.0677142143" lon="29.9866461754"><time>2026-04-25T14:23:39Z</time></trkpt><trkpt lat="59.0677142143" lon="29.9866461754"><time>2026-04-25T14:23:42Z</time></trkpt><trkpt lat="59.0677142143" lon="29.9866461754"><time>2026-04-25T14:23:44Z</time></trkpt><trkpt lat="59.0677142143" lon="29.9866461754"><time>2026-04-25T14:23:47Z</time></trkpt><trkpt lat="59.0677142143" lon="29.9866461754"><time>2026-04-25T14:23:49Z</time></trkpt><trkpt lat="59.0676927567" lon="29.9866676331"><time>2026-04-25T14:23:52Z</time></trkpt><trkpt lat="59.0676712990" lon="29.9867534637"><time>2026-04-25T14:23:54Z</time></trkpt><trkpt lat="59.0676498413" lon="29.9867534637"><time>2026-04-25T14:23:57Z</time></trkpt><trkpt lat="59.0676069260" lon="29.9867534637"><time>2026-04-25T14:23:59Z</time></trkpt><trkpt lat="59.0675854683" lon="29.9867534637"><time>2026-04-25T14:24:02Z</time></trkpt><trkpt lat="59.0676069260" lon="29.9866890907"><time>2026-04-25T14:24:04Z</time></trkpt><trkpt lat="59.0676069260" lon="29.9866461754"><time>2026-04-25T14:24:07Z</time></trkpt><trkpt lat="59.0676069260" lon="29.9866676331"><time>2026-04-25T14:24:09Z</time></trkpt><trkpt lat="59.0676069260" lon="29.9866676331"><time>2026-04-25T14:24:12Z</time></trkpt><trkpt lat="59.0676069260" lon="29.9866461754"><time>2026-04-25T14:24:14Z</time></trkpt><trkpt lat="59.0675854683" lon="29.9866032600"><time>2026-04-25T14:24:17Z</time></trkpt><trkpt lat="59.0675854683" lon="29.9866032600"><time>2026-04-25T14:24:19Z</time></trkpt><trkpt lat="59.0676069260" lon="29.9866461754"><time>2026-04-25T14:24:22Z</time></trkpt><trkpt lat="59.0676498413" lon="29.9867534637"><time>2026-04-25T14:24:24Z</time></trkpt><trkpt lat="59.0676927567" lon="29.9867749214"><time>2026-04-25T14:24:27Z</time></trkpt><trkpt lat="59.0676927567" lon="29.9867534637"><time>2026-04-25T14:24:29Z</time></trkpt><trkpt lat="59.0676927567" lon="29.9867534637"><time>2026-04-25T14:24:32Z</time></trkpt><trkpt lat="59.0677142143" lon="29.9866890907"><time>2026-04-25T14:24:34Z</time></trkpt><trkpt lat="59.0677142143" lon="29.9866676331"><time>2026-04-25T14:24:37Z</time></trkpt><trkpt lat="59.0676927567" lon="29.9866247177"><time>2026-04-25T14:24:39Z</time></trkpt><trkpt lat="59.0676927567" lon="29.9865818024"><time>2026-04-25T14:24:42Z</time></trkpt><trkpt lat="59.0677142143" lon="29.9865388870"><time>2026-04-25T14:24:44Z</time></trkpt><trkpt lat="59.0677356720" lon="29.9864959717"><time>2026-04-25T14:24:47Z</time></trkpt><trkpt lat="59.0677356720" lon="29.9864959717"><time>2026-04-25T14:24:49Z</time></trkpt><trkpt lat="59.0677356720" lon="29.9864959717"><time>2026-04-25T14:24:52Z</time></trkpt><trkpt lat="59.0677356720" lon="29.9864959717"><time>2026-04-25T14:24:54Z</time></trkpt><trkpt lat="59.0677356720" lon="29.9864959717"><time>2026-04-25T14:24:57Z</time></trkpt><trkpt lat="59.0677356720" lon="29.9864959717"><time>2026-04-25T14:24:59Z</time></trkpt><trkpt lat="59.0677356720" lon="29.9864959717"><time>2026-04-25T14:25:02Z</time></trkpt><trkpt lat="59.0677356720" lon="29.9864959717"><time>2026-04-25T14:25:04Z</time></trkpt><trkpt lat="59.0677356720" lon="29.9864959717"><time>2026-04-25T14:25:07Z</time></trkpt><trkpt lat="59.0677356720" lon="29.9864745140"><time>2026-04-25T14:25:09Z</time></trkpt><trkpt lat="59.0677571297" lon="29.9864101410"><time>2026-04-25T14:25:12Z</time></trkpt><trkpt lat="59.0677785873" lon="29.9863886833"><time>2026-04-25T14:25:14Z</time></trkpt><trkpt lat="59.0677571297" lon="29.9863886833"><time>2026-04-25T14:25:17Z</time></trkpt><trkpt lat="59.0677142143" lon="29.9863672256"><time>2026-04-25T14:25:19Z</time></trkpt><trkpt lat="59.0677142143" lon="29.9863672256"><time>2026-04-25T14:25:22Z</time></trkpt><trkpt lat="59.0676927567" lon="29.9863457680"><time>2026-04-25T14:25:24Z</time></trkpt><trkpt lat="59.0676712990" lon="29.9863457680"><time>2026-04-25T14:25:27Z</time></trkpt><trkpt lat="59.0676498413" lon="29.9862813950"><time>2026-04-25T14:25:29Z</time></trkpt><trkpt lat="59.0676498413" lon="29.9862170219"><time>2026-04-25T14:25:32Z</time></trkpt><trkpt lat="59.0676498413" lon="29.9861955643"><time>2026-04-25T14:25:34Z</time></trkpt><trkpt lat="59.0676498413" lon="29.9861526489"><time>2026-04-25T14:25:37Z</time></trkpt><trkpt lat="59.0676283836" lon="29.9861311913"><time>2026-04-25T14:25:39Z</time></trkpt><trkpt lat="59.0676283836" lon="29.9861311913"><time>2026-04-25T14:25:42Z</time></trkpt><trkpt lat="59.0676283836" lon="29.9861311913"><time>2026-04-25T14:25:44Z</time></trkpt><trkpt lat="59.0676069260" lon="29.9861955643"><time>2026-04-25T14:25:47Z</time></trkpt><trkpt lat="59.0675640106" lon="29.9862170219"><time>2026-04-25T14:25:49Z</time></trkpt><trkpt lat="59.0675425529" lon="29.9861955643"><time>2026-04-25T14:25:52Z</time></trkpt><trkpt lat="59.0675210953" lon="29.9861955643"><time>2026-04-25T14:25:54Z</time></trkpt><trkpt lat="59.0675210953" lon="29.9861955643"><time>2026-04-25T14:25:57Z</time></trkpt><trkpt lat="59.0675210953" lon="29.9861955643"><time>2026-04-25T14:25:59Z</time></trkpt><trkpt lat="59.0675210953" lon="29.9861741066"><time>2026-04-25T14:26:02Z</time></trkpt><trkpt lat="59.0674996376" lon="29.9861311913"><time>2026-04-25T14:26:04Z</time></trkpt><trkpt lat="59.0674996376" lon="29.9861311913"><time>2026-04-25T14:26:07Z</time></trkpt><trkpt lat="59.0674996376" lon="29.9861311913"><time>2026-04-25T14:26:09Z</time></trkpt><trkpt lat="59.0674996376" lon="29.9861311913"><time>2026-04-25T14:26:12Z</time></trkpt><trkpt lat="59.0675210953" lon="29.9861311913"><time>2026-04-25T14:26:14Z</time></trkpt><trkpt lat="59.0675210953" lon="29.9861741066"><time>2026-04-25T14:26:17Z</time></trkpt><trkpt lat="59.0674781799" lon="29.9861955643"><time>2026-04-25T14:26:19Z</time></trkpt><trkpt lat="59.0674567223" lon="29.9862170219"><time>2026-04-25T14:26:22Z</time></trkpt><trkpt lat="59.0674138069" lon="29.9862170219"><time>2026-04-25T14:26:24Z</time></trkpt><trkpt lat="59.0674138069" lon="29.9862170219"><time>2026-04-25T14:26:27Z</time></trkpt><trkpt lat="59.0673708916" lon="29.9862170219"><time>2026-04-25T14:26:29Z</time></trkpt><trkpt lat="59.0673494339" lon="29.9862170219"><time>2026-04-25T14:26:32Z</time></trkpt><trkpt lat="59.0673494339" lon="29.9862384796"><time>2026-04-25T14:26:34Z</time></trkpt><trkpt lat="59.0673494339" lon="29.9862384796"><time>2026-04-25T14:26:37Z</time></trkpt><trkpt lat="59.0673494339" lon="29.9862384796"><time>2026-04-25T14:26:39Z</time></trkpt><trkpt lat="59.0673494339" lon="29.9862384796"><time>2026-04-25T14:26:42Z</time></trkpt><trkpt lat="59.0673494339" lon="29.9862599373"><time>2026-04-25T14:26:44Z</time></trkpt><trkpt lat="59.0673494339" lon="29.9862599373"><time>2026-04-25T14:26:47Z</time></trkpt><trkpt lat="59.0673494339" lon="29.9862599373"><time>2026-04-25T14:26:49Z</time></trkpt><trkpt lat="59.0673494339" lon="29.9862599373"><time>2026-04-25T14:26:52Z</time></trkpt><trkpt lat="59.0673494339" lon="29.9862599373"><time>2026-04-25T14:26:54Z</time></trkpt><trkpt lat="59.0673494339" lon="29.9862599373"><time>2026-04-25T14:26:57Z</time></trkpt><trkpt lat="59.0673494339" lon="29.9863028526"><time>2026-04-25T14:26:59Z</time></trkpt><trkpt lat="59.0673494339" lon="29.9863243103"><time>2026-04-25T14:27:02Z</time></trkpt><trkpt lat="59.0673065186" lon="29.9863672256"><time>2026-04-25T14:27:04Z</time></trkpt><trkpt lat="59.0673065186" lon="29.9863672256"><time>2026-04-25T14:27:07Z</time></trkpt><trkpt lat="59.0672850609" lon="29.9863457680"><time>2026-04-25T14:27:09Z</time></trkpt><trkpt lat="59.0672850609" lon="29.9863243103"><time>2026-04-25T14:27:12Z</time></trkpt><trkpt lat="59.0672636032" lon="29.9862813950"><time>2026-04-25T14:27:14Z</time></trkpt><trkpt lat="59.0672636032" lon="29.9862599373"><time>2026-04-25T14:27:17Z</time></trkpt><trkpt lat="59.0672636032" lon="29.9862170219"><time>2026-04-25T14:27:19Z</time></trkpt><trkpt lat="59.0672636032" lon="29.9862170219"><time>2026-04-25T14:27:22Z</time></trkpt><trkpt lat="59.0672421455" lon="29.9862384796"><time>2026-04-25T14:27:24Z</time></trkpt><trkpt lat="59.0672206879" lon="29.9862170219"><time>2026-04-25T14:27:27Z</time></trkpt><trkpt lat="59.0671992302" lon="29.9861955643"><time>2026-04-25T14:27:29Z</time></trkpt><trkpt lat="59.0671992302" lon="29.9861955643"><time>2026-04-25T14:27:32Z</time></trkpt><trkpt lat="59.0672206879" lon="29.9861955643"><time>2026-04-25T14:27:34Z</time></trkpt><trkpt lat="59.0672850609" lon="29.9861955643"><time>2026-04-25T14:27:37Z</time></trkpt><trkpt lat="59.0673494339" lon="29.9861955643"><time>2026-04-25T14:27:39Z</time></trkpt><trkpt lat="59.0673923492" lon="29.9861526489"><time>2026-04-25T14:27:42Z</time></trkpt><trkpt lat="59.0673923492" lon="29.9861955643"><time>2026-04-25T14:27:44Z</time></trkpt><trkpt lat="59.0674138069" lon="29.9862170219"><time>2026-04-25T14:27:47Z</time></trkpt><trkpt lat="59.0674138069" lon="29.9862384796"><time>2026-04-25T14:27:49Z</time></trkpt><trkpt lat="59.0674138069" lon="29.9862384796"><time>2026-04-25T14:27:52Z</time></trkpt><trkpt lat="59.0674138069" lon="29.9862384796"><time>2026-04-25T14:27:54Z</time></trkpt><trkpt lat="59.0674352646" lon="29.9862599373"><time>2026-04-25T14:27:57Z</time></trkpt><trkpt lat="59.0674352646" lon="29.9862599373"><time>2026-04-25T14:27:59Z</time></trkpt><trkpt lat="59.0674567223" lon="29.9862813950"><time>2026-04-25T14:28:02Z</time></trkpt><trkpt lat="59.0674996376" lon="29.9862599373"><time>2026-04-25T14:28:04Z</time></trkpt><trkpt lat="59.0675210953" lon="29.9862813950"><time>2026-04-25T14:28:07Z</time></trkpt><trkpt lat="59.0675425529" lon="29.9862813950"><time>2026-04-25T14:28:09Z</time></trkpt><trkpt lat="59.0675640106" lon="29.9862599373"><time>2026-04-25T14:28:12Z</time></trkpt><trkpt lat="59.0676069260" lon="29.9862599373"><time>2026-04-25T14:28:14Z</time></trkpt><trkpt lat="59.0676498413" lon="29.9863243103"><time>2026-04-25T14:28:17Z</time></trkpt><trkpt lat="59.0676712990" lon="29.9863672256"><time>2026-04-25T14:28:19Z</time></trkpt><trkpt lat="59.0677142143" lon="29.9863672256"><time>2026-04-25T14:28:22Z</time></trkpt><trkpt lat="59.0677356720" lon="29.9863886833"><time>2026-04-25T14:28:24Z</time></trkpt><trkpt lat="59.0677571297" lon="29.9864101410"><time>2026-04-25T14:28:27Z</time></trkpt><trkpt lat="59.0677571297" lon="29.9864530563"><time>2026-04-25T14:28:29Z</time></trkpt><trkpt lat="59.0677571297" lon="29.9864959717"><time>2026-04-25T14:28:32Z</time></trkpt><trkpt lat="59.0677571297" lon="29.9865388870"><time>2026-04-25T14:28:34Z</time></trkpt><trkpt lat="59.0677785873" lon="29.9865818024"><time>2026-04-25T14:28:37Z</time></trkpt><trkpt lat="59.0677785873" lon="29.9866032600"><time>2026-04-25T14:28:39Z</time></trkpt><trkpt lat="59.0677785873" lon="29.9866032600"><time>2026-04-25T14:28:42Z</time></trkpt><trkpt lat="59.0677785873" lon="29.9866247177"><time>2026-04-25T14:28:44Z</time></trkpt><trkpt lat="59.0678000450" lon="29.9866676331"><time>2026-04-25T14:28:47Z</time></trkpt><trkpt lat="59.0678215027" lon="29.9866461754"><time>2026-04-25T14:28:49Z</time></trkpt><trkpt lat="59.0678215027" lon="29.9866676331"><time>2026-04-25T14:28:52Z</time></trkpt><trkpt lat="59.0678215027" lon="29.9866676331"><time>2026-04-25T14:28:54Z</time></trkpt><trkpt lat="59.0678000450" lon="29.9866890907"><time>2026-04-25T14:28:57Z</time></trkpt><trkpt lat="59.0678000450" lon="29.9867320061"><time>2026-04-25T14:28:59Z</time></trkpt><trkpt lat="59.0678215027" lon="29.9867320061"><time>2026-04-25T14:29:02Z</time></trkpt><trkpt lat="59.0678215027" lon="29.9867320061"><time>2026-04-25T14:29:04Z</time></trkpt><trkpt lat="59.0678429604" lon="29.9867749214"><time>2026-04-25T14:29:07Z</time></trkpt><trkpt lat="59.0678429604" lon="29.9867963791"><time>2026-04-25T14:29:09Z</time></trkpt><trkpt lat="59.0678429604" lon="29.9868178368"><time>2026-04-25T14:29:12Z</time></trkpt><trkpt lat="59.0678215027" lon="29.9868392944"><time>2026-04-25T14:29:14Z</time></trkpt><trkpt lat="59.0678215027" lon="29.9868178368"><time>2026-04-25T14:29:17Z</time></trkpt><trkpt lat="59.0678215027" lon="29.9868178368"><time>2026-04-25T14:29:19Z</time></trkpt><trkpt lat="59.0678215027" lon="29.9868178368"><time>2026-04-25T14:29:22Z</time></trkpt><trkpt lat="59.0678215027" lon="29.9868178368"><time>2026-04-25T14:29:24Z</time></trkpt><trkpt lat="59.0678215027" lon="29.9868178368"><time>2026-04-25T14:29:27Z</time></trkpt><trkpt lat="59.0678215027" lon="29.9868178368"><time>2026-04-25T14:29:29Z</time></trkpt><trkpt lat="59.0678215027" lon="29.9868607521"><time>2026-04-25T14:29:32Z</time></trkpt><trkpt lat="59.0678215027" lon="29.9869251251"><time>2026-04-25T14:29:34Z</time></trkpt><trkpt lat="59.0678215027" lon="29.9869465828"><time>2026-04-25T14:29:37Z</time></trkpt><trkpt lat="59.0678215027" lon="29.9869465828"><time>2026-04-25T14:29:39Z</time></trkpt><trkpt lat="59.0678215027" lon="29.9869465828"><time>2026-04-25T14:29:42Z</time></trkpt><trkpt lat="59.0678215027" lon="29.9869465828"><time>2026-04-25T14:29:44Z</time></trkpt><trkpt lat="59.0678215027" lon="29.9869894981"><time>2026-04-25T14:29:47Z</time></trkpt><trkpt lat="59.0678215027" lon="29.9869894981"><time>2026-04-25T14:29:49Z</time></trkpt><trkpt lat="59.0678215027" lon="29.9869894981"><time>2026-04-25T14:29:52Z</time></trkpt><trkpt lat="59.0678215027" lon="29.9869894981"><time>2026-04-25T14:29:54Z</time></trkpt><trkpt lat="59.0678215027" lon="29.9869894981"><time>2026-04-25T14:29:57Z</time></trkpt><trkpt lat="59.0678215027" lon="29.9869894981"><time>2026-04-25T14:29:59Z</time></trkpt><trkpt lat="59.0678215027" lon="29.9869894981"><time>2026-04-25T14:30:02Z</time></trkpt><trkpt lat="59.0678215027" lon="29.9869894981"><time>2026-04-25T14:30:04Z</time></trkpt><trkpt lat="59.0678215027" lon="29.9869894981"><time>2026-04-25T14:30:07Z</time></trkpt><trkpt lat="59.0678215027" lon="29.9869680405"><time>2026-04-25T14:30:09Z</time></trkpt><trkpt lat="59.0678215027" lon="29.9868607521"><time>2026-04-25T14:30:12Z</time></trkpt><trkpt lat="59.0678644180" lon="29.9867963791"><time>2026-04-25T14:30:14Z</time></trkpt><trkpt lat="59.0678858757" lon="29.9867963791"><time>2026-04-25T14:30:17Z</time></trkpt><trkpt lat="59.0679073334" lon="29.9867963791"><time>2026-04-25T14:30:19Z</time></trkpt><trkpt lat="59.0679287910" lon="29.9867963791"><time>2026-04-25T14:30:22Z</time></trkpt><trkpt lat="59.0679502487" lon="29.9867749214"><time>2026-04-25T14:30:24Z</time></trkpt><trkpt lat="59.0679502487" lon="29.9867963791"><time>2026-04-25T14:30:27Z</time></trkpt><trkpt lat="59.0679717064" lon="29.9868178368"><time>2026-04-25T14:30:29Z</time></trkpt><trkpt lat="59.0679931641" lon="29.9868392944"><time>2026-04-25T14:30:32Z</time></trkpt><trkpt lat="59.0680146217" lon="29.9868822098"><time>2026-04-25T14:30:34Z</time></trkpt><trkpt lat="59.0680360794" lon="29.9869036674"><time>2026-04-25T14:30:37Z</time></trkpt><trkpt lat="59.0680575371" lon="29.9869036674"><time>2026-04-25T14:30:39Z</time></trkpt><trkpt lat="59.0680575371" lon="29.9869036674"><time>2026-04-25T14:30:42Z</time></trkpt><trkpt lat="59.0680789948" lon="29.9869251251"><time>2026-04-25T14:30:44Z</time></trkpt><trkpt lat="59.0680789948" lon="29.9869465828"><time>2026-04-25T14:30:47Z</time></trkpt><trkpt lat="59.0681004524" lon="29.9869465828"><time>2026-04-25T14:30:49Z</time></trkpt><trkpt lat="59.0681433678" lon="29.9869680405"><time>2026-04-25T14:30:52Z</time></trkpt><trkpt lat="59.0681648254" lon="29.9870109558"><time>2026-04-25T14:30:54Z</time></trkpt><trkpt lat="59.0681648254" lon="29.9870324135"><time>2026-04-25T14:30:57Z</time></trkpt><trkpt lat="59.0681862831" lon="29.9870538712"><time>2026-04-25T14:30:59Z</time></trkpt><trkpt lat="59.0681862831" lon="29.9870538712"><time>2026-04-25T14:31:02Z</time></trkpt><trkpt lat="59.0681862831" lon="29.9870538712"><time>2026-04-25T14:31:04Z</time></trkpt><trkpt lat="59.0681862831" lon="29.9870538712"><time>2026-04-25T14:31:07Z</time></trkpt><trkpt lat="59.0681862831" lon="29.9870753288"><time>2026-04-25T14:31:09Z</time></trkpt><trkpt lat="59.0681648254" lon="29.9871397018"><time>2026-04-25T14:31:12Z</time></trkpt><trkpt lat="59.0681433678" lon="29.9871611595"><time>2026-04-25T14:31:14Z</time></trkpt><trkpt lat="59.0681219101" lon="29.9872469902"><time>2026-04-25T14:31:17Z</time></trkpt><trkpt lat="59.0681004524" lon="29.9872469902"><time>2026-04-25T14:31:19Z</time></trkpt><trkpt lat="59.0681004524" lon="29.9872684479"><time>2026-04-25T14:31:22Z</time></trkpt><trkpt lat="59.0681004524" lon="29.9872684479"><time>2026-04-25T14:31:24Z</time></trkpt><trkpt lat="59.0680789948" lon="29.9872684479"><time>2026-04-25T14:31:27Z</time></trkpt><trkpt lat="59.0680789948" lon="29.9872684479"><time>2026-04-25T14:31:29Z</time></trkpt><trkpt lat="59.0680789948" lon="29.9872684479"><time>2026-04-25T14:31:32Z</time></trkpt><trkpt lat="59.0680789948" lon="29.9872684479"><time>2026-04-25T14:31:34Z</time></trkpt><trkpt lat="59.0680789948" lon="29.9872684479"><time>2026-04-25T14:31:37Z</time></trkpt><trkpt lat="59.0680789948" lon="29.9872684479"><time>2026-04-25T14:31:39Z</time></trkpt><trkpt lat="59.0680789948" lon="29.9872684479"><time>2026-04-25T14:31:42Z</time></trkpt><trkpt lat="59.0680789948" lon="29.9872684479"><time>2026-04-25T14:31:44Z</time></trkpt><trkpt lat="59.0680789948" lon="29.9872684479"><time>2026-04-25T14:31:47Z</time></trkpt><trkpt lat="59.0680789948" lon="29.9872684479"><time>2026-04-25T14:31:49Z</time></trkpt><trkpt lat="59.0680789948" lon="29.9872684479"><time>2026-04-25T14:31:52Z</time></trkpt><trkpt lat="59.0680789948" lon="29.9872684479"><time>2026-04-25T14:31:54Z</time></trkpt><trkpt lat="59.0680789948" lon="29.9872684479"><time>2026-04-25T14:31:57Z</time></trkpt><trkpt lat="59.0680789948" lon="29.9872684479"><time>2026-04-25T14:31:59Z</time></trkpt><trkpt lat="59.0680789948" lon="29.9872684479"><time>2026-04-25T14:32:02Z</time></trkpt><trkpt lat="59.0680789948" lon="29.9872684479"><time>2026-04-25T14:32:04Z</time></trkpt><trkpt lat="59.0680789948" lon="29.9872684479"><time>2026-04-25T14:32:07Z</time></trkpt><trkpt lat="59.0680789948" lon="29.9872684479"><time>2026-04-25T14:32:09Z</time></trkpt><trkpt lat="59.0680789948" lon="29.9872684479"><time>2026-04-25T14:32:12Z</time></trkpt><trkpt lat="59.0680789948" lon="29.9872684479"><time>2026-04-25T14:32:14Z</time></trkpt><trkpt lat="59.0680789948" lon="29.9872684479"><time>2026-04-25T14:32:17Z</time></trkpt><trkpt lat="59.0680789948" lon="29.9872684479"><time>2026-04-25T14:32:19Z</time></trkpt><trkpt lat="59.0680789948" lon="29.9872684479"><time>2026-04-25T14:32:22Z</time></trkpt><trkpt lat="59.0680789948" lon="29.9872684479"><time>2026-04-25T14:32:24Z</time></trkpt><trkpt lat="59.0680789948" lon="29.9872684479"><time>2026-04-25T14:32:27Z</time></trkpt><trkpt lat="59.0680789948" lon="29.9872684479"><time>2026-04-25T14:32:29Z</time></trkpt><trkpt lat="59.0680575371" lon="29.9873113632"><time>2026-04-25T14:32:32Z</time></trkpt><trkpt lat="59.0680575371" lon="29.9873113632"><time>2026-04-25T14:32:34Z</time></trkpt><trkpt lat="59.0680575371" lon="29.9873113632"><time>2026-04-25T14:32:37Z</time></trkpt><trkpt lat="59.0680575371" lon="29.9873542786"><time>2026-04-25T14:32:39Z</time></trkpt><trkpt lat="59.0680575371" lon="29.9873971939"><time>2026-04-25T14:32:42Z</time></trkpt><trkpt lat="59.0680575371" lon="29.9874186516"><time>2026-04-25T14:32:44Z</time></trkpt><trkpt lat="59.0680575371" lon="29.9874401093"><time>2026-04-25T14:32:47Z</time></trkpt><trkpt lat="59.0680789948" lon="29.9874615669"><time>2026-04-25T14:32:49Z</time></trkpt><trkpt lat="59.0680789948" lon="29.9875044823"><time>2026-04-25T14:32:52Z</time></trkpt><trkpt lat="59.0680789948" lon="29.9875044823"><time>2026-04-25T14:32:54Z</time></trkpt><trkpt lat="59.0680789948" lon="29.9875044823"><time>2026-04-25T14:32:57Z</time></trkpt><trkpt lat="59.0680789948" lon="29.9875044823"><time>2026-04-25T14:32:59Z</time></trkpt><trkpt lat="59.0680789948" lon="29.9875044823"><time>2026-04-25T14:33:02Z</time></trkpt><trkpt lat="59.0680789948" lon="29.9875044823"><time>2026-04-25T14:33:04Z</time></trkpt><trkpt lat="59.0680789948" lon="29.9875044823"><time>2026-04-25T14:33:07Z</time></trkpt><trkpt lat="59.0680789948" lon="29.9875044823"><time>2026-04-25T14:33:09Z</time></trkpt><trkpt lat="59.0680789948" lon="29.9875473976"><time>2026-04-25T14:33:12Z</time></trkpt><trkpt lat="59.0680575371" lon="29.9876117706"><time>2026-04-25T14:33:14Z</time></trkpt><trkpt lat="59.0680575371" lon="29.9876332283"><time>2026-04-25T14:33:17Z</time></trkpt><trkpt lat="59.0680360794" lon="29.9876761436"><time>2026-04-25T14:33:19Z</time></trkpt><trkpt lat="59.0680360794" lon="29.9877190590"><time>2026-04-25T14:33:22Z</time></trkpt><trkpt lat="59.0680360794" lon="29.9877405167"><time>2026-04-25T14:33:24Z</time></trkpt><trkpt lat="59.0680360794" lon="29.9877619743"><time>2026-04-25T14:33:27Z</time></trkpt><trkpt lat="59.0680360794" lon="29.9877619743"><time>2026-04-25T14:33:29Z</time></trkpt><trkpt lat="59.0680575371" lon="29.9877405167"><time>2026-04-25T14:33:32Z</time></trkpt><trkpt lat="59.0681004524" lon="29.9877405167"><time>2026-04-25T14:33:34Z</time></trkpt><trkpt lat="59.0681004524" lon="29.9877619743"><time>2026-04-25T14:33:37Z</time></trkpt><trkpt lat="59.0681004524" lon="29.9878048897"><time>2026-04-25T14:33:39Z</time></trkpt><trkpt lat="59.0681219101" lon="29.9878263474"><time>2026-04-25T14:33:42Z</time></trkpt><trkpt lat="59.0681219101" lon="29.9878478050"><time>2026-04-25T14:33:44Z</time></trkpt><trkpt lat="59.0681433678" lon="29.9878692627"><time>2026-04-25T14:33:47Z</time></trkpt><trkpt lat="59.0681433678" lon="29.9879550934"><time>2026-04-25T14:33:49Z</time></trkpt><trkpt lat="59.0681648254" lon="29.9879765511"><time>2026-04-25T14:33:52Z</time></trkpt><trkpt lat="59.0681648254" lon="29.9879980087"><time>2026-04-25T14:33:54Z</time></trkpt><trkpt lat="59.0681648254" lon="29.9880194664"><time>2026-04-25T14:33:57Z</time></trkpt><trkpt lat="59.0681648254" lon="29.9880623817"><time>2026-04-25T14:33:59Z</time></trkpt><trkpt lat="59.0681433678" lon="29.9881052971"><time>2026-04-25T14:34:02Z</time></trkpt><trkpt lat="59.0681219101" lon="29.9881052971"><time>2026-04-25T14:34:04Z</time></trkpt><trkpt lat="59.0681219101" lon="29.9881267548"><time>2026-04-25T14:34:07Z</time></trkpt><trkpt lat="59.0681219101" lon="29.9881696701"><time>2026-04-25T14:34:09Z</time></trkpt><trkpt lat="59.0681219101" lon="29.9881696701"><time>2026-04-25T14:34:12Z</time></trkpt><trkpt lat="59.0681219101" lon="29.9881696701"><time>2026-04-25T14:34:14Z</time></trkpt><trkpt lat="59.0681219101" lon="29.9881696701"><time>2026-04-25T14:34:17Z</time></trkpt><trkpt lat="59.0681219101" lon="29.9882125854"><time>2026-04-25T14:34:19Z</time></trkpt><trkpt lat="59.0681004524" lon="29.9882555008"><time>2026-04-25T14:34:22Z</time></trkpt><trkpt lat="59.0681004524" lon="29.9882555008"><time>2026-04-25T14:34:24Z</time></trkpt><trkpt lat="59.0681004524" lon="29.9882769585"><time>2026-04-25T14:34:27Z</time></trkpt><trkpt lat="59.0680789948" lon="29.9883198738"><time>2026-04-25T14:34:29Z</time></trkpt><trkpt lat="59.0680789948" lon="29.9883198738"><time>2026-04-25T14:34:32Z</time></trkpt><trkpt lat="59.0680789948" lon="29.9883198738"><time>2026-04-25T14:34:34Z</time></trkpt><trkpt lat="59.0680789948" lon="29.9883198738"><time>2026-04-25T14:34:37Z</time></trkpt><trkpt lat="59.0680789948" lon="29.9883198738"><time>2026-04-25T14:34:39Z</time></trkpt><trkpt lat="59.0680789948" lon="29.9883198738"><time>2026-04-25T14:34:42Z</time></trkpt><trkpt lat="59.0680789948" lon="29.9883198738"><time>2026-04-25T14:34:44Z</time></trkpt><trkpt lat="59.0680789948" lon="29.9882769585"><time>2026-04-25T14:34:47Z</time></trkpt><trkpt lat="59.0680789948" lon="29.9882984161"><time>2026-04-25T14:34:49Z</time></trkpt><trkpt lat="59.0681004524" lon="29.9883198738"><time>2026-04-25T14:34:52Z</time></trkpt><trkpt lat="59.0681433678" lon="29.9883627892"><time>2026-04-25T14:34:54Z</time></trkpt><trkpt lat="59.0681433678" lon="29.9883842468"><time>2026-04-25T14:34:57Z</time></trkpt><trkpt lat="59.0681648254" lon="29.9883627892"><time>2026-04-25T14:34:59Z</time></trkpt><trkpt lat="59.0681862831" lon="29.9883627892"><time>2026-04-25T14:35:02Z</time></trkpt><trkpt lat="59.0682077408" lon="29.9883627892"><time>2026-04-25T14:35:04Z</time></trkpt><trkpt lat="59.0682077408" lon="29.9883413315"><time>2026-04-25T14:35:07Z</time></trkpt><trkpt lat="59.0682506561" lon="29.9883413315"><time>2026-04-25T14:35:09Z</time></trkpt><trkpt lat="59.0682721138" lon="29.9883842468"><time>2026-04-25T14:35:12Z</time></trkpt><trkpt lat="59.0682935715" lon="29.9884271622"><time>2026-04-25T14:35:14Z</time></trkpt><trkpt lat="59.0683579445" lon="29.9884486198"><time>2026-04-25T14:35:17Z</time></trkpt><trkpt lat="59.0684008598" lon="29.9884271622"><time>2026-04-25T14:35:19Z</time></trkpt><trkpt lat="59.0684008598" lon="29.9884271622"><time>2026-04-25T14:35:22Z</time></trkpt><trkpt lat="59.0684008598" lon="29.9884271622"><time>2026-04-25T14:35:24Z</time></trkpt><trkpt lat="59.0684008598" lon="29.9884057045"><time>2026-04-25T14:35:27Z</time></trkpt><trkpt lat="59.0683794022" lon="29.9883413315"><time>2026-04-25T14:35:29Z</time></trkpt><trkpt lat="59.0683794022" lon="29.9882984161"><time>2026-04-25T14:35:32Z</time></trkpt><trkpt lat="59.0683794022" lon="29.9882769585"><time>2026-04-25T14:35:34Z</time></trkpt><trkpt lat="59.0683794022" lon="29.9882769585"><time>2026-04-25T14:35:37Z</time></trkpt><trkpt lat="59.0684008598" lon="29.9882555008"><time>2026-04-25T14:35:39Z</time></trkpt><trkpt lat="59.0684223175" lon="29.9882340431"><time>2026-04-25T14:35:42Z</time></trkpt><trkpt lat="59.0684652328" lon="29.9881911278"><time>2026-04-25T14:35:44Z</time></trkpt><trkpt lat="59.0684652328" lon="29.9881911278"><time>2026-04-25T14:35:47Z</time></trkpt><trkpt lat="59.0684437752" lon="29.9881482124"><time>2026-04-25T14:35:49Z</time></trkpt><trkpt lat="59.0684223175" lon="29.9881696701"><time>2026-04-25T14:35:52Z</time></trkpt><trkpt lat="59.0684008598" lon="29.9881267548"><time>2026-04-25T14:35:54Z</time></trkpt><trkpt lat="59.0684008598" lon="29.9881052971"><time>2026-04-25T14:35:57Z</time></trkpt><trkpt lat="59.0684223175" lon="29.9881267548"><time>2026-04-25T14:35:59Z</time></trkpt><trkpt lat="59.0684437752" lon="29.9881267548"><time>2026-04-25T14:36:02Z</time></trkpt><trkpt lat="59.0684866905" lon="29.9881911278"><time>2026-04-25T14:36:04Z</time></trkpt><trkpt lat="59.0685081482" lon="29.9882125854"><time>2026-04-25T14:36:07Z</time></trkpt><trkpt lat="59.0685510635" lon="29.9882769585"><time>2026-04-25T14:36:09Z</time></trkpt><trkpt lat="59.0685939789" lon="29.9883198738"><time>2026-04-25T14:36:12Z</time></trkpt><trkpt lat="59.0685939789" lon="29.9884486198"><time>2026-04-25T14:36:14Z</time></trkpt><trkpt lat="59.0685725212" lon="29.9885129929"><time>2026-04-25T14:36:17Z</time></trkpt><trkpt lat="59.0685725212" lon="29.9886417389"><time>2026-04-25T14:36:19Z</time></trkpt><trkpt lat="59.0685725212" lon="29.9886846542"><time>2026-04-25T14:36:22Z</time></trkpt><trkpt lat="59.0685725212" lon="29.9887704849"><time>2026-04-25T14:36:24Z</time></trkpt><trkpt lat="59.0685725212" lon="29.9888348579"><time>2026-04-25T14:36:27Z</time></trkpt><trkpt lat="59.0685510635" lon="29.9888992310"><time>2026-04-25T14:36:29Z</time></trkpt><trkpt lat="59.0685296059" lon="29.9889421463"><time>2026-04-25T14:36:32Z</time></trkpt><trkpt lat="59.0685296059" lon="29.9889636040"><time>2026-04-25T14:36:34Z</time></trkpt><trkpt lat="59.0685296059" lon="29.9889850616"><time>2026-04-25T14:36:37Z</time></trkpt><trkpt lat="59.0684652328" lon="29.9890279770"><time>2026-04-25T14:36:39Z</time></trkpt><trkpt lat="59.0684652328" lon="29.9891138077"><time>2026-04-25T14:36:42Z</time></trkpt><trkpt lat="59.0684652328" lon="29.9892210960"><time>2026-04-25T14:36:44Z</time></trkpt><trkpt lat="59.0684652328" lon="29.9893069267"><time>2026-04-25T14:36:47Z</time></trkpt><trkpt lat="59.0684866905" lon="29.9893927574"><time>2026-04-25T14:36:49Z</time></trkpt><trkpt lat="59.0684866905" lon="29.9894571304"><time>2026-04-25T14:36:52Z</time></trkpt><trkpt lat="59.0684866905" lon="29.9895429611"><time>2026-04-25T14:36:54Z</time></trkpt><trkpt lat="59.0684866905" lon="29.9895858765"><time>2026-04-25T14:36:57Z</time></trkpt><trkpt lat="59.0684652328" lon="29.9896073341"><time>2026-04-25T14:36:59Z</time></trkpt><trkpt lat="59.0684437752" lon="29.9896073341"><time>2026-04-25T14:37:02Z</time></trkpt><trkpt lat="59.0684437752" lon="29.9896073341"><time>2026-04-25T14:37:04Z</time></trkpt><trkpt lat="59.0684437752" lon="29.9896287918"><time>2026-04-25T14:37:07Z</time></trkpt><trkpt lat="59.0684223175" lon="29.9896717072"><time>2026-04-25T14:37:09Z</time></trkpt><trkpt lat="59.0684008598" lon="29.9897146225"><time>2026-04-25T14:37:12Z</time></trkpt><trkpt lat="59.0683794022" lon="29.9897789955"><time>2026-04-25T14:37:14Z</time></trkpt><trkpt lat="59.0683579445" lon="29.9898004532"><time>2026-04-25T14:37:17Z</time></trkpt><trkpt lat="59.0683364868" lon="29.9898862839"><time>2026-04-25T14:37:19Z</time></trkpt><trkpt lat="59.0683364868" lon="29.9899291992"><time>2026-04-25T14:37:22Z</time></trkpt><trkpt lat="59.0683364868" lon="29.9899291992"><time>2026-04-25T14:37:24Z</time></trkpt><trkpt lat="59.0683150291" lon="29.9899291992"><time>2026-04-25T14:37:27Z</time></trkpt><trkpt lat="59.0683150291" lon="29.9899291992"><time>2026-04-25T14:37:29Z</time></trkpt><trkpt lat="59.0683150291" lon="29.9899291992"><time>2026-04-25T14:37:32Z</time></trkpt><trkpt lat="59.0683150291" lon="29.9899506569"><time>2026-04-25T14:37:34Z</time></trkpt><trkpt lat="59.0683150291" lon="29.9899935722"><time>2026-04-25T14:37:37Z</time></trkpt><trkpt lat="59.0683150291" lon="29.9901223183"><time>2026-04-25T14:37:39Z</time></trkpt><trkpt lat="59.0683150291" lon="29.9901652336"><time>2026-04-25T14:37:42Z</time></trkpt><trkpt lat="59.0682935715" lon="29.9901652336"><time>2026-04-25T14:37:44Z</time></trkpt><trkpt lat="59.0682935715" lon="29.9901652336"><time>2026-04-25T14:37:47Z</time></trkpt><trkpt lat="59.0682721138" lon="29.9901008606"><time>2026-04-25T14:37:49Z</time></trkpt><trkpt lat="59.0682506561" lon="29.9900794029"><time>2026-04-25T14:37:52Z</time></trkpt><trkpt lat="59.0682506561" lon="29.9899935722"><time>2026-04-25T14:37:54Z</time></trkpt><trkpt lat="59.0682506561" lon="29.9899935722"><time>2026-04-25T14:37:57Z</time></trkpt><trkpt lat="59.0682506561" lon="29.9900364876"><time>2026-04-25T14:37:59Z</time></trkpt><trkpt lat="59.0682721138" lon="29.9901008606"><time>2026-04-25T14:38:02Z</time></trkpt><trkpt lat="59.0682721138" lon="29.9901437759"><time>2026-04-25T14:38:04Z</time></trkpt><trkpt lat="59.0682721138" lon="29.9902081490"><time>2026-04-25T14:38:07Z</time></trkpt><trkpt lat="59.0682935715" lon="29.9903368950"><time>2026-04-25T14:38:09Z</time></trkpt><trkpt lat="59.0682935715" lon="29.9903798103"><time>2026-04-25T14:38:12Z</time></trkpt><trkpt lat="59.0683150291" lon="29.9904656410"><time>2026-04-25T14:38:14Z</time></trkpt><trkpt lat="59.0683364868" lon="29.9905085564"><time>2026-04-25T14:38:17Z</time></trkpt><trkpt lat="59.0683364868" lon="29.9905729294"><time>2026-04-25T14:38:19Z</time></trkpt><trkpt lat="59.0683364868" lon="29.9906158447"><time>2026-04-25T14:38:22Z</time></trkpt><trkpt lat="59.0683579445" lon="29.9906373024"><time>2026-04-25T14:38:24Z</time></trkpt><trkpt lat="59.0683794022" lon="29.9906158447"><time>2026-04-25T14:38:27Z</time></trkpt><trkpt lat="59.0683579445" lon="29.9905729294"><time>2026-04-25T14:38:29Z</time></trkpt><trkpt lat="59.0683794022" lon="29.9905300140"><time>2026-04-25T14:38:32Z</time></trkpt><trkpt lat="59.0684008598" lon="29.9904870987"><time>2026-04-25T14:38:34Z</time></trkpt><trkpt lat="59.0684008598" lon="29.9904441833"><time>2026-04-25T14:38:37Z</time></trkpt><trkpt lat="59.0684223175" lon="29.9904441833"><time>2026-04-25T14:38:39Z</time></trkpt><trkpt lat="59.0684008598" lon="29.9904227257"><time>2026-04-25T14:38:42Z</time></trkpt><trkpt lat="59.0684008598" lon="29.9904012680"><time>2026-04-25T14:38:44Z</time></trkpt><trkpt lat="59.0683794022" lon="29.9903798103"><time>2026-04-25T14:38:47Z</time></trkpt><trkpt lat="59.0682935715" lon="29.9903798103"><time>2026-04-25T14:38:49Z</time></trkpt><trkpt lat="59.0682506561" lon="29.9904012680"><time>2026-04-25T14:38:52Z</time></trkpt><trkpt lat="59.0681648254" lon="29.9904227257"><time>2026-04-25T14:38:54Z</time></trkpt><trkpt lat="59.0681433678" lon="29.9904227257"><time>2026-04-25T14:38:57Z</time></trkpt><trkpt lat="59.0680575371" lon="29.9904441833"><time>2026-04-25T14:38:59Z</time></trkpt><trkpt lat="59.0680146217" lon="29.9904227257"><time>2026-04-25T14:39:02Z</time></trkpt><trkpt lat="59.0679717064" lon="29.9904012680"><time>2026-04-25T14:39:04Z</time></trkpt><trkpt lat="59.0679502487" lon="29.9903798103"><time>2026-04-25T14:39:07Z</time></trkpt><trkpt lat="59.0679502487" lon="29.9903798103"><time>2026-04-25T14:39:09Z</time></trkpt><trkpt lat="59.0679502487" lon="29.9903798103"><time>2026-04-25T14:39:12Z</time></trkpt><trkpt lat="59.0679502487" lon="29.9903583527"><time>2026-04-25T14:39:14Z</time></trkpt><trkpt lat="59.0679502487" lon="29.9903368950"><time>2026-04-25T14:39:17Z</time></trkpt><trkpt lat="59.0679717064" lon="29.9902939796"><time>2026-04-25T14:39:19Z</time></trkpt><trkpt lat="59.0679931641" lon="29.9902939796"><time>2026-04-25T14:39:22Z</time></trkpt><trkpt lat="59.0679931641" lon="29.9902939796"><time>2026-04-25T14:39:24Z</time></trkpt><trkpt lat="59.0679931641" lon="29.9902939796"><time>2026-04-25T14:39:27Z</time></trkpt><trkpt lat="59.0679931641" lon="29.9902939796"><time>2026-04-25T14:39:29Z</time></trkpt><trkpt lat="59.0679931641" lon="29.9902939796"><time>2026-04-25T14:39:32Z</time></trkpt><trkpt lat="59.0679931641" lon="29.9902939796"><time>2026-04-25T14:39:34Z</time></trkpt><trkpt lat="59.0679931641" lon="29.9903154373"><time>2026-04-25T14:39:37Z</time></trkpt><trkpt lat="59.0679931641" lon="29.9904441833"><time>2026-04-25T14:39:39Z</time></trkpt><trkpt lat="59.0680360794" lon="29.9905514717"><time>2026-04-25T14:39:42Z</time></trkpt><trkpt lat="59.0680789948" lon="29.9907016754"><time>2026-04-25T14:39:44Z</time></trkpt><trkpt lat="59.0680789948" lon="29.9907660484"><time>2026-04-25T14:39:47Z</time></trkpt><trkpt lat="59.0680575371" lon="29.9908733368"><time>2026-04-25T14:39:49Z</time></trkpt><trkpt lat="59.0680575371" lon="29.9909162521"><time>2026-04-25T14:39:52Z</time></trkpt><trkpt lat="59.0680575371" lon="29.9909162521"><time>2026-04-25T14:39:54Z</time></trkpt><trkpt lat="59.0680575371" lon="29.9909806252"><time>2026-04-25T14:39:57Z</time></trkpt><trkpt lat="59.0680789948" lon="29.9910664558"><time>2026-04-25T14:39:59Z</time></trkpt><trkpt lat="59.0680789948" lon="29.9911093712"><time>2026-04-25T14:40:02Z</time></trkpt><trkpt lat="59.0681004524" lon="29.9911737442"><time>2026-04-25T14:40:04Z</time></trkpt><trkpt lat="59.0681219101" lon="29.9912166595"><time>2026-04-25T14:40:07Z</time></trkpt><trkpt lat="59.0681219101" lon="29.9912381172"><time>2026-04-25T14:40:09Z</time></trkpt><trkpt lat="59.0681219101" lon="29.9912595749"><time>2026-04-25T14:40:12Z</time></trkpt><trkpt lat="59.0681219101" lon="29.9913454056"><time>2026-04-25T14:40:14Z</time></trkpt><trkpt lat="59.0681219101" lon="29.9913883209"><time>2026-04-25T14:40:17Z</time></trkpt><trkpt lat="59.0681004524" lon="29.9914097786"><time>2026-04-25T14:40:19Z</time></trkpt><trkpt lat="59.0681219101" lon="29.9914741516"><time>2026-04-25T14:40:22Z</time></trkpt><trkpt lat="59.0681219101" lon="29.9915599823"><time>2026-04-25T14:40:24Z</time></trkpt><trkpt lat="59.0681433678" lon="29.9915814400"><time>2026-04-25T14:40:27Z</time></trkpt><trkpt lat="59.0681433678" lon="29.9916243553"><time>2026-04-25T14:40:29Z</time></trkpt><trkpt lat="59.0681648254" lon="29.9916672707"><time>2026-04-25T14:40:32Z</time></trkpt><trkpt lat="59.0681862831" lon="29.9917101860"><time>2026-04-25T14:40:34Z</time></trkpt><trkpt lat="59.0681862831" lon="29.9917531013"><time>2026-04-25T14:40:37Z</time></trkpt><trkpt lat="59.0682077408" lon="29.9917960167"><time>2026-04-25T14:40:39Z</time></trkpt><trkpt lat="59.0682077408" lon="29.9918389320"><time>2026-04-25T14:40:42Z</time></trkpt><trkpt lat="59.0682291985" lon="29.9918603897"><time>2026-04-25T14:40:44Z</time></trkpt><trkpt lat="59.0682291985" lon="29.9918603897"><time>2026-04-25T14:40:47Z</time></trkpt><trkpt lat="59.0682291985" lon="29.9918603897"><time>2026-04-25T14:40:49Z</time></trkpt><trkpt lat="59.0682291985" lon="29.9918603897"><time>2026-04-25T14:40:52Z</time></trkpt><trkpt lat="59.0682721138" lon="29.9918389320"><time>2026-04-25T14:40:54Z</time></trkpt><trkpt lat="59.0683150291" lon="29.9918174744"><time>2026-04-25T14:40:57Z</time></trkpt><trkpt lat="59.0683579445" lon="29.9917316437"><time>2026-04-25T14:40:59Z</time></trkpt><trkpt lat="59.0684008598" lon="29.9916887283"><time>2026-04-25T14:41:02Z</time></trkpt><trkpt lat="59.0684008598" lon="29.9917531013"><time>2026-04-25T14:41:04Z</time></trkpt><trkpt lat="59.0684008598" lon="29.9918389320"><time>2026-04-25T14:41:07Z</time></trkpt><trkpt lat="59.0684008598" lon="29.9919462204"><time>2026-04-25T14:41:09Z</time></trkpt><trkpt lat="59.0683794022" lon="29.9919891357"><time>2026-04-25T14:41:12Z</time></trkpt><trkpt lat="59.0683579445" lon="29.9920320511"><time>2026-04-25T14:41:14Z</time></trkpt><trkpt lat="59.0683364868" lon="29.9920535088"><time>2026-04-25T14:41:17Z</time></trkpt><trkpt lat="59.0683150291" lon="29.9919891357"><time>2026-04-25T14:41:19Z</time></trkpt><trkpt lat="59.0683364868" lon="29.9919891357"><time>2026-04-25T14:41:22Z</time></trkpt><trkpt lat="59.0683579445" lon="29.9920105934"><time>2026-04-25T14:41:24Z</time></trkpt><trkpt lat="59.0684223175" lon="29.9919891357"><time>2026-04-25T14:41:27Z</time></trkpt><trkpt lat="59.0684866905" lon="29.9920535088"><time>2026-04-25T14:41:29Z</time></trkpt><trkpt lat="59.0685296059" lon="29.9920535088"><time>2026-04-25T14:41:32Z</time></trkpt><trkpt lat="59.0685510635" lon="29.9920749664"><time>2026-04-25T14:41:34Z</time></trkpt><trkpt lat="59.0685510635" lon="29.9920749664"><time>2026-04-25T14:41:37Z</time></trkpt><trkpt lat="59.0685725212" lon="29.9921393394"><time>2026-04-25T14:41:39Z</time></trkpt><trkpt lat="59.0685939789" lon="29.9921607971"><time>2026-04-25T14:41:42Z</time></trkpt><trkpt lat="59.0686583519" lon="29.9922037125"><time>2026-04-25T14:41:44Z</time></trkpt><trkpt lat="59.0686798096" lon="29.9922251701"><time>2026-04-25T14:41:47Z</time></trkpt><trkpt lat="59.0687012672" lon="29.9922895432"><time>2026-04-25T14:41:49Z</time></trkpt><trkpt lat="59.0687012672" lon="29.9922895432"><time>2026-04-25T14:41:52Z</time></trkpt><trkpt lat="59.0687227249" lon="29.9923753738"><time>2026-04-25T14:41:54Z</time></trkpt><trkpt lat="59.0687227249" lon="29.9924397469"><time>2026-04-25T14:41:57Z</time></trkpt><trkpt lat="59.0687441826" lon="29.9925470352"><time>2026-04-25T14:41:59Z</time></trkpt><trkpt lat="59.0687227249" lon="29.9925684929"><time>2026-04-25T14:42:02Z</time></trkpt><trkpt lat="59.0687441826" lon="29.9926114082"><time>2026-04-25T14:42:04Z</time></trkpt><trkpt lat="59.0687656403" lon="29.9926543236"><time>2026-04-25T14:42:07Z</time></trkpt><trkpt lat="59.0687656403" lon="29.9927186966"><time>2026-04-25T14:42:09Z</time></trkpt><trkpt lat="59.0687656403" lon="29.9927616119"><time>2026-04-25T14:42:12Z</time></trkpt><trkpt lat="59.0687656403" lon="29.9928259850"><time>2026-04-25T14:42:14Z</time></trkpt><trkpt lat="59.0687441826" lon="29.9928045273"><time>2026-04-25T14:42:17Z</time></trkpt><trkpt lat="59.0687012672" lon="29.9928045273"><time>2026-04-25T14:42:19Z</time></trkpt><trkpt lat="59.0686798096" lon="29.9928259850"><time>2026-04-25T14:42:22Z</time></trkpt><trkpt lat="59.0686583519" lon="29.9928474426"><time>2026-04-25T14:42:24Z</time></trkpt><trkpt lat="59.0686368942" lon="29.9928474426"><time>2026-04-25T14:42:27Z</time></trkpt><trkpt lat="59.0685939789" lon="29.9929118156"><time>2026-04-25T14:42:29Z</time></trkpt><trkpt lat="59.0685725212" lon="29.9929332733"><time>2026-04-25T14:42:32Z</time></trkpt><trkpt lat="59.0685725212" lon="29.9930191040"><time>2026-04-25T14:42:34Z</time></trkpt><trkpt lat="59.0685725212" lon="29.9930620193"><time>2026-04-25T14:42:37Z</time></trkpt><trkpt lat="59.0685510635" lon="29.9931478500"><time>2026-04-25T14:42:39Z</time></trkpt><trkpt lat="59.0685510635" lon="29.9932122231"><time>2026-04-25T14:42:42Z</time></trkpt><trkpt lat="59.0685725212" lon="29.9932980537"><time>2026-04-25T14:42:44Z</time></trkpt><trkpt lat="59.0685939789" lon="29.9933409691"><time>2026-04-25T14:42:47Z</time></trkpt><trkpt lat="59.0685939789" lon="29.9933409691"><time>2026-04-25T14:42:49Z</time></trkpt><trkpt lat="59.0685939789" lon="29.9933409691"><time>2026-04-25T14:42:52Z</time></trkpt><trkpt lat="59.0685939789" lon="29.9933409691"><time>2026-04-25T14:42:54Z</time></trkpt><trkpt lat="59.0685939789" lon="29.9933409691"><time>2026-04-25T14:42:57Z</time></trkpt><trkpt lat="59.0685939789" lon="29.9933409691"><time>2026-04-25T14:42:59Z</time></trkpt><trkpt lat="59.0685939789" lon="29.9933409691"><time>2026-04-25T14:43:02Z</time></trkpt><trkpt lat="59.0685939789" lon="29.9933409691"><time>2026-04-25T14:43:04Z</time></trkpt><trkpt lat="59.0685725212" lon="29.9933195114"><time>2026-04-25T14:43:07Z</time></trkpt><trkpt lat="59.0685725212" lon="29.9933195114"><time>2026-04-25T14:43:09Z</time></trkpt><trkpt lat="59.0685725212" lon="29.9933195114"><time>2026-04-25T14:43:12Z</time></trkpt><trkpt lat="59.0685939789" lon="29.9933195114"><time>2026-04-25T14:43:14Z</time></trkpt><trkpt lat="59.0686154366" lon="29.9933195114"><time>2026-04-25T14:43:17Z</time></trkpt><trkpt lat="59.0686154366" lon="29.9933195114"><time>2026-04-25T14:43:19Z</time></trkpt><trkpt lat="59.0686368942" lon="29.9933409691"><time>2026-04-25T14:43:22Z</time></trkpt><trkpt lat="59.0686583519" lon="29.9934053421"><time>2026-04-25T14:43:24Z</time></trkpt><trkpt lat="59.0686798096" lon="29.9934482574"><time>2026-04-25T14:43:27Z</time></trkpt><trkpt lat="59.0687227249" lon="29.9935984612"><time>2026-04-25T14:43:29Z</time></trkpt><trkpt lat="59.0687441826" lon="29.9936842918"><time>2026-04-25T14:43:32Z</time></trkpt><trkpt lat="59.0687656403" lon="29.9937486649"><time>2026-04-25T14:43:34Z</time></trkpt><trkpt lat="59.0687870979" lon="29.9937915802"><time>2026-04-25T14:43:37Z</time></trkpt><trkpt lat="59.0688085556" lon="29.9938344955"><time>2026-04-25T14:43:39Z</time></trkpt><trkpt lat="59.0688085556" lon="29.9938344955"><time>2026-04-25T14:43:42Z</time></trkpt><trkpt lat="59.0687870979" lon="29.9938344955"><time>2026-04-25T14:43:44Z</time></trkpt><trkpt lat="59.0687870979" lon="29.9938344955"><time>2026-04-25T14:43:47Z</time></trkpt><trkpt lat="59.0687870979" lon="29.9938344955"><time>2026-04-25T14:43:49Z</time></trkpt><trkpt lat="59.0687870979" lon="29.9938559532"><time>2026-04-25T14:43:52Z</time></trkpt><trkpt lat="59.0688085556" lon="29.9938988686"><time>2026-04-25T14:43:54Z</time></trkpt><trkpt lat="59.0688729286" lon="29.9939203262"><time>2026-04-25T14:43:57Z</time></trkpt><trkpt lat="59.0688943863" lon="29.9939417839"><time>2026-04-25T14:43:59Z</time></trkpt><trkpt lat="59.0689158440" lon="29.9940276146"><time>2026-04-25T14:44:02Z</time></trkpt><trkpt lat="59.0689158440" lon="29.9941134453"><time>2026-04-25T14:44:04Z</time></trkpt><trkpt lat="59.0689158440" lon="29.9941134453"><time>2026-04-25T14:44:07Z</time></trkpt><trkpt lat="59.0689373016" lon="29.9941778183"><time>2026-04-25T14:44:09Z</time></trkpt><trkpt lat="59.0689587593" lon="29.9941563606"><time>2026-04-25T14:44:12Z</time></trkpt><trkpt lat="59.0690016747" lon="29.9941349030"><time>2026-04-25T14:44:14Z</time></trkpt><trkpt lat="59.0690231323" lon="29.9941134453"><time>2026-04-25T14:44:17Z</time></trkpt><trkpt lat="59.0690660477" lon="29.9940919876"><time>2026-04-25T14:44:19Z</time></trkpt><trkpt lat="59.0690660477" lon="29.9940490723"><time>2026-04-25T14:44:22Z</time></trkpt><trkpt lat="59.0690445900" lon="29.9940061569"><time>2026-04-25T14:44:24Z</time></trkpt><trkpt lat="59.0690445900" lon="29.9939846992"><time>2026-04-25T14:44:27Z</time></trkpt><trkpt lat="59.0690445900" lon="29.9939417839"><time>2026-04-25T14:44:29Z</time></trkpt><trkpt lat="59.0690231323" lon="29.9939203262"><time>2026-04-25T14:44:32Z</time></trkpt><trkpt lat="59.0690016747" lon="29.9939203262"><time>2026-04-25T14:44:34Z</time></trkpt><trkpt lat="59.0690016747" lon="29.9939417839"><time>2026-04-25T14:44:37Z</time></trkpt><trkpt lat="59.0689587593" lon="29.9939846992"><time>2026-04-25T14:44:39Z</time></trkpt><trkpt lat="59.0689587593" lon="29.9939846992"><time>2026-04-25T14:44:42Z</time></trkpt><trkpt lat="59.0689373016" lon="29.9940276146"><time>2026-04-25T14:44:44Z</time></trkpt><trkpt lat="59.0689158440" lon="29.9940490723"><time>2026-04-25T14:44:47Z</time></trkpt><trkpt lat="59.0689373016" lon="29.9940919876"><time>2026-04-25T14:44:49Z</time></trkpt><trkpt lat="59.0689587593" lon="29.9941349030"><time>2026-04-25T14:44:52Z</time></trkpt><trkpt lat="59.0689587593" lon="29.9941563606"><time>2026-04-25T14:44:54Z</time></trkpt><trkpt lat="59.0689802170" lon="29.9941778183"><time>2026-04-25T14:44:57Z</time></trkpt><trkpt lat="59.0689802170" lon="29.9941992760"><time>2026-04-25T14:44:59Z</time></trkpt><trkpt lat="59.0689802170" lon="29.9942207336"><time>2026-04-25T14:45:02Z</time></trkpt><trkpt lat="59.0689802170" lon="29.9942207336"><time>2026-04-25T14:45:04Z</time></trkpt><trkpt lat="59.0689802170" lon="29.9942636490"><time>2026-04-25T14:45:07Z</time></trkpt><trkpt lat="59.0689373016" lon="29.9942851067"><time>2026-04-25T14:45:09Z</time></trkpt><trkpt lat="59.0689373016" lon="29.9942851067"><time>2026-04-25T14:45:12Z</time></trkpt><trkpt lat="59.0689373016" lon="29.9942421913"><time>2026-04-25T14:45:14Z</time></trkpt><trkpt lat="59.0689373016" lon="29.9941778183"><time>2026-04-25T14:45:17Z</time></trkpt><trkpt lat="59.0689373016" lon="29.9941778183"><time>2026-04-25T14:45:19Z</time></trkpt><trkpt lat="59.0689158440" lon="29.9941563606"><time>2026-04-25T14:45:22Z</time></trkpt><trkpt lat="59.0689158440" lon="29.9941563606"><time>2026-04-25T14:45:24Z</time></trkpt><trkpt lat="59.0689158440" lon="29.9941563606"><time>2026-04-25T14:45:27Z</time></trkpt><trkpt lat="59.0689158440" lon="29.9941563606"><time>2026-04-25T14:45:29Z</time></trkpt><trkpt lat="59.0689158440" lon="29.9941563606"><time>2026-04-25T14:45:32Z</time></trkpt><trkpt lat="59.0689158440" lon="29.9941563606"><time>2026-04-25T14:45:34Z</time></trkpt><trkpt lat="59.0689158440" lon="29.9941563606"><time>2026-04-25T14:45:37Z</time></trkpt><trkpt lat="59.0689158440" lon="29.9941563606"><time>2026-04-25T14:45:39Z</time></trkpt><trkpt lat="59.0689158440" lon="29.9941563606"><time>2026-04-25T14:45:42Z</time></trkpt><trkpt lat="59.0689158440" lon="29.9941563606"><time>2026-04-25T14:45:44Z</time></trkpt><trkpt lat="59.0689158440" lon="29.9941563606"><time>2026-04-25T14:45:47Z</time></trkpt><trkpt lat="59.0689158440" lon="29.9941563606"><time>2026-04-25T14:45:49Z</time></trkpt><trkpt lat="59.0689158440" lon="29.9941563606"><time>2026-04-25T14:45:52Z</time></trkpt><trkpt lat="59.0689158440" lon="29.9941563606"><time>2026-04-25T14:45:54Z</time></trkpt><trkpt lat="59.0689158440" lon="29.9941563606"><time>2026-04-25T14:45:57Z</time></trkpt><trkpt lat="59.0689158440" lon="29.9941563606"><time>2026-04-25T14:45:59Z</time></trkpt><trkpt lat="59.0689373016" lon="29.9941563606"><time>2026-04-25T14:46:02Z</time></trkpt><trkpt lat="59.0689373016" lon="29.9941563606"><time>2026-04-25T14:46:04Z</time></trkpt><trkpt lat="59.0689373016" lon="29.9941563606"><time>2026-04-25T14:46:07Z</time></trkpt><trkpt lat="59.0689373016" lon="29.9941563606"><time>2026-04-25T14:46:09Z</time></trkpt><trkpt lat="59.0689373016" lon="29.9941134453"><time>2026-04-25T14:46:12Z</time></trkpt><trkpt lat="59.0689373016" lon="29.9941134453"><time>2026-04-25T14:46:14Z</time></trkpt><trkpt lat="59.0689373016" lon="29.9941134453"><time>2026-04-25T14:46:17Z</time></trkpt><trkpt lat="59.0689587593" lon="29.9941134453"><time>2026-04-25T14:46:19Z</time></trkpt><trkpt lat="59.0689587593" lon="29.9941134453"><time>2026-04-25T14:46:22Z</time></trkpt><trkpt lat="59.0689587593" lon="29.9941134453"><time>2026-04-25T14:46:24Z</time></trkpt><trkpt lat="59.0689587593" lon="29.9941134453"><time>2026-04-25T14:46:27Z</time></trkpt><trkpt lat="59.0689587593" lon="29.9941134453"><time>2026-04-25T14:46:29Z</time></trkpt><trkpt lat="59.0689587593" lon="29.9941134453"><time>2026-04-25T14:46:32Z</time></trkpt><trkpt lat="59.0689587593" lon="29.9941134453"><time>2026-04-25T14:46:34Z</time></trkpt><trkpt lat="59.0689587593" lon="29.9941134453"><time>2026-04-25T14:46:37Z</time></trkpt><trkpt lat="59.0689587593" lon="29.9941134453"><time>2026-04-25T14:46:39Z</time></trkpt><trkpt lat="59.0689587593" lon="29.9941134453"><time>2026-04-25T14:46:42Z</time></trkpt><trkpt lat="59.0689587593" lon="29.9941134453"><time>2026-04-25T14:46:44Z</time></trkpt><trkpt lat="59.0689587593" lon="29.9941134453"><time>2026-04-25T14:46:47Z</time></trkpt><trkpt lat="59.0689587593" lon="29.9941134453"><time>2026-04-25T14:46:49Z</time></trkpt><trkpt lat="59.0689587593" lon="29.9941134453"><time>2026-04-25T14:46:52Z</time></trkpt><trkpt lat="59.0689587593" lon="29.9941134453"><time>2026-04-25T14:46:54Z</time></trkpt><trkpt lat="59.0689587593" lon="29.9941134453"><time>2026-04-25T14:46:57Z</time></trkpt><trkpt lat="59.0689587593" lon="29.9941134453"><time>2026-04-25T14:46:59Z</time></trkpt><trkpt lat="59.0689587593" lon="29.9940919876"><time>2026-04-25T14:47:02Z</time></trkpt><trkpt lat="59.0689587593" lon="29.9940919876"><time>2026-04-25T14:47:04Z</time></trkpt><trkpt lat="59.0689587593" lon="29.9940919876"><time>2026-04-25T14:47:07Z</time></trkpt><trkpt lat="59.0689373016" lon="29.9940919876"><time>2026-04-25T14:47:09Z</time></trkpt><trkpt lat="59.0689373016" lon="29.9940919876"><time>2026-04-25T14:47:12Z</time></trkpt><trkpt lat="59.0689373016" lon="29.9940919876"><time>2026-04-25T14:47:14Z</time></trkpt><trkpt lat="59.0689373016" lon="29.9940919876"><time>2026-04-25T14:47:17Z</time></trkpt><trkpt lat="59.0689373016" lon="29.9940919876"><time>2026-04-25T14:47:19Z</time></trkpt><trkpt lat="59.0689373016" lon="29.9940919876"><time>2026-04-25T14:47:22Z</time></trkpt><trkpt lat="59.0689373016" lon="29.9940919876"><time>2026-04-25T14:47:24Z</time></trkpt><trkpt lat="59.0689373016" lon="29.9940919876"><time>2026-04-25T14:47:27Z</time></trkpt><trkpt lat="59.0689373016" lon="29.9940919876"><time>2026-04-25T14:47:29Z</time></trkpt><trkpt lat="59.0689373016" lon="29.9940919876"><time>2026-04-25T14:47:32Z</time></trkpt><trkpt lat="59.0689373016" lon="29.9940919876"><time>2026-04-25T14:47:34Z</time></trkpt><trkpt lat="59.0689373016" lon="29.9940919876"><time>2026-04-25T14:47:37Z</time></trkpt><trkpt lat="59.0689373016" lon="29.9940919876"><time>2026-04-25T14:47:39Z</time></trkpt><trkpt lat="59.0689373016" lon="29.9940919876"><time>2026-04-25T14:47:42Z</time></trkpt><trkpt lat="59.0689373016" lon="29.9940919876"><time>2026-04-25T14:47:44Z</time></trkpt><trkpt lat="59.0689373016" lon="29.9940919876"><time>2026-04-25T14:47:47Z</time></trkpt><trkpt lat="59.0689373016" lon="29.9940919876"><time>2026-04-25T14:47:49Z</time></trkpt><trkpt lat="59.0689373016" lon="29.9940919876"><time>2026-04-25T14:47:52Z</time></trkpt><trkpt lat="59.0689373016" lon="29.9940919876"><time>2026-04-25T14:47:54Z</time></trkpt><trkpt lat="59.0689373016" lon="29.9940919876"><time>2026-04-25T14:47:57Z</time></trkpt><trkpt lat="59.0689373016" lon="29.9940919876"><time>2026-04-25T14:47:59Z</time></trkpt><trkpt lat="59.0689373016" lon="29.9940919876"><time>2026-04-25T14:48:02Z</time></trkpt><trkpt lat="59.0689373016" lon="29.9940919876"><time>2026-04-25T14:48:04Z</time></trkpt><trkpt lat="59.0689373016" lon="29.9940919876"><time>2026-04-25T14:48:07Z</time></trkpt><trkpt lat="59.0689373016" lon="29.9940919876"><time>2026-04-25T14:48:09Z</time></trkpt><trkpt lat="59.0689373016" lon="29.9940919876"><time>2026-04-25T14:48:12Z</time></trkpt><trkpt lat="59.0689373016" lon="29.9940919876"><time>2026-04-25T14:48:14Z</time></trkpt><trkpt lat="59.0688943863" lon="29.9940490723"><time>2026-04-25T14:48:17Z</time></trkpt><trkpt lat="59.0688943863" lon="29.9940490723"><time>2026-04-25T14:48:19Z</time></trkpt><trkpt lat="59.0688943863" lon="29.9940490723"><time>2026-04-25T14:48:22Z</time></trkpt><trkpt lat="59.0688943863" lon="29.9940490723"><time>2026-04-25T14:48:24Z</time></trkpt><trkpt lat="59.0688943863" lon="29.9940490723"><time>2026-04-25T14:48:27Z</time></trkpt><trkpt lat="59.0688943863" lon="29.9940490723"><time>2026-04-25T14:48:29Z</time></trkpt><trkpt lat="59.0688943863" lon="29.9940490723"><time>2026-04-25T14:48:32Z</time></trkpt><trkpt lat="59.0688943863" lon="29.9940490723"><time>2026-04-25T14:48:34Z</time></trkpt><trkpt lat="59.0688943863" lon="29.9940490723"><time>2026-04-25T14:48:37Z</time></trkpt><trkpt lat="59.0688943863" lon="29.9940490723"><time>2026-04-25T14:48:39Z</time></trkpt><trkpt lat="59.0688943863" lon="29.9940490723"><time>2026-04-25T14:48:42Z</time></trkpt><trkpt lat="59.0688943863" lon="29.9940490723"><time>2026-04-25T14:48:44Z</time></trkpt><trkpt lat="59.0688943863" lon="29.9940490723"><time>2026-04-25T14:48:47Z</time></trkpt><trkpt lat="59.0688943863" lon="29.9940490723"><time>2026-04-25T14:48:49Z</time></trkpt><trkpt lat="59.0688943863" lon="29.9940490723"><time>2026-04-25T14:48:52Z</time></trkpt><trkpt lat="59.0688943863" lon="29.9940490723"><time>2026-04-25T14:48:54Z</time></trkpt><trkpt lat="59.0688943863" lon="29.9940490723"><time>2026-04-25T14:48:57Z</time></trkpt><trkpt lat="59.0688943863" lon="29.9940490723"><time>2026-04-25T14:48:59Z</time></trkpt><trkpt lat="59.0688943863" lon="29.9940490723"><time>2026-04-25T14:49:02Z</time></trkpt><trkpt lat="59.0688943863" lon="29.9940490723"><time>2026-04-25T14:49:04Z</time></trkpt><trkpt lat="59.0688943863" lon="29.9940490723"><time>2026-04-25T14:49:07Z</time></trkpt><trkpt lat="59.0688943863" lon="29.9940490723"><time>2026-04-25T14:49:09Z</time></trkpt><trkpt lat="59.0688943863" lon="29.9940490723"><time>2026-04-25T14:49:12Z</time></trkpt><trkpt lat="59.0688943863" lon="29.9940490723"><time>2026-04-25T14:49:14Z</time></trkpt><trkpt lat="59.0688943863" lon="29.9940490723"><time>2026-04-25T14:49:17Z</time></trkpt><trkpt lat="59.0688943863" lon="29.9940490723"><time>2026-04-25T14:49:19Z</time></trkpt><trkpt lat="59.0688943863" lon="29.9940490723"><time>2026-04-25T14:49:22Z</time></trkpt><trkpt lat="59.0688943863" lon="29.9940490723"><time>2026-04-25T14:49:24Z</time></trkpt><trkpt lat="59.0688943863" lon="29.9940490723"><time>2026-04-25T14:49:27Z</time></trkpt><trkpt lat="59.0688943863" lon="29.9940490723"><time>2026-04-25T14:49:29Z</time></trkpt><trkpt lat="59.0688943863" lon="29.9940490723"><time>2026-04-25T14:49:32Z</time></trkpt><trkpt lat="59.0688943863" lon="29.9940490723"><time>2026-04-25T14:49:34Z</time></trkpt><trkpt lat="59.0688943863" lon="29.9940276146"><time>2026-04-25T14:49:37Z</time></trkpt><trkpt lat="59.0688943863" lon="29.9940276146"><time>2026-04-25T14:49:39Z</time></trkpt><trkpt lat="59.0688943863" lon="29.9940276146"><time>2026-04-25T14:49:42Z</time></trkpt><trkpt lat="59.0688943863" lon="29.9940276146"><time>2026-04-25T14:49:44Z</time></trkpt><trkpt lat="59.0688943863" lon="29.9940276146"><time>2026-04-25T14:49:47Z</time></trkpt><trkpt lat="59.0688943863" lon="29.9940276146"><time>2026-04-25T14:49:49Z</time></trkpt><trkpt lat="59.0688943863" lon="29.9940276146"><time>2026-04-25T14:49:52Z</time></trkpt><trkpt lat="59.0688943863" lon="29.9940276146"><time>2026-04-25T14:49:54Z</time></trkpt><trkpt lat="59.0688943863" lon="29.9940276146"><time>2026-04-25T14:49:57Z</time></trkpt><trkpt lat="59.0688943863" lon="29.9940276146"><time>2026-04-25T14:49:59Z</time></trkpt><trkpt lat="59.0688943863" lon="29.9940276146"><time>2026-04-25T14:50:02Z</time></trkpt><trkpt lat="59.0688943863" lon="29.9940276146"><time>2026-04-25T14:50:04Z</time></trkpt><trkpt lat="59.0688943863" lon="29.9940276146"><time>2026-04-25T14:50:07Z</time></trkpt><trkpt lat="59.0688943863" lon="29.9940276146"><time>2026-04-25T14:50:09Z</time></trkpt><trkpt lat="59.0688943863" lon="29.9940276146"><time>2026-04-25T14:50:12Z</time></trkpt><trkpt lat="59.0688943863" lon="29.9940276146"><time>2026-04-25T14:50:14Z</time></trkpt><trkpt lat="59.0688943863" lon="29.9940276146"><time>2026-04-25T14:50:17Z</time></trkpt><trkpt lat="59.0688943863" lon="29.9940276146"><time>2026-04-25T14:50:19Z</time></trkpt><trkpt lat="59.0688943863" lon="29.9940276146"><time>2026-04-25T14:50:22Z</time></trkpt><trkpt lat="59.0688943863" lon="29.9940276146"><time>2026-04-25T14:50:24Z</time></trkpt><trkpt lat="59.0688943863" lon="29.9940276146"><time>2026-04-25T14:50:27Z</time></trkpt><trkpt lat="59.0688943863" lon="29.9940276146"><time>2026-04-25T14:50:29Z</time></trkpt><trkpt lat="59.0688943863" lon="29.9940276146"><time>2026-04-25T14:50:32Z</time></trkpt><trkpt lat="59.0688943863" lon="29.9940276146"><time>2026-04-25T14:50:34Z</time></trkpt><trkpt lat="59.0688943863" lon="29.9940276146"><time>2026-04-25T14:50:37Z</time></trkpt><trkpt lat="59.0688943863" lon="29.9940276146"><time>2026-04-25T14:50:39Z</time></trkpt><trkpt lat="59.0688943863" lon="29.9940276146"><time>2026-04-25T14:50:42Z</time></trkpt><trkpt lat="59.0688943863" lon="29.9940276146"><time>2026-04-25T14:50:44Z</time></trkpt><trkpt lat="59.0688943863" lon="29.9940276146"><time>2026-04-25T14:50:47Z</time></trkpt><trkpt lat="59.0688943863" lon="29.9940276146"><time>2026-04-25T14:50:49Z</time></trkpt><trkpt lat="59.0688943863" lon="29.9940276146"><time>2026-04-25T14:50:52Z</time></trkpt><trkpt lat="59.0688943863" lon="29.9940276146"><time>2026-04-25T14:50:54Z</time></trkpt><trkpt lat="59.0688943863" lon="29.9940276146"><time>2026-04-25T14:50:57Z</time></trkpt><trkpt lat="59.0688943863" lon="29.9940276146"><time>2026-04-25T14:50:59Z</time></trkpt><trkpt lat="59.0688943863" lon="29.9940276146"><time>2026-04-25T14:51:02Z</time></trkpt><trkpt lat="59.0688943863" lon="29.9940276146"><time>2026-04-25T14:51:04Z</time></trkpt><trkpt lat="59.0688943863" lon="29.9940276146"><time>2026-04-25T14:51:07Z</time></trkpt><trkpt lat="59.0688943863" lon="29.9940276146"><time>2026-04-25T14:51:09Z</time></trkpt><trkpt lat="59.0688943863" lon="29.9940276146"><time>2026-04-25T14:51:12Z</time></trkpt><trkpt lat="59.0688943863" lon="29.9940276146"><time>2026-04-25T14:51:14Z</time></trkpt><trkpt lat="59.0688943863" lon="29.9940276146"><time>2026-04-25T14:51:17Z</time></trkpt><trkpt lat="59.0688943863" lon="29.9940276146"><time>2026-04-25T14:51:19Z</time></trkpt><trkpt lat="59.0688943863" lon="29.9940276146"><time>2026-04-25T14:51:22Z</time></trkpt><trkpt lat="59.0688943863" lon="29.9940276146"><time>2026-04-25T14:51:24Z</time></trkpt><trkpt lat="59.0688943863" lon="29.9940276146"><time>2026-04-25T14:51:27Z</time></trkpt><trkpt lat="59.0688943863" lon="29.9940276146"><time>2026-04-25T14:51:29Z</time></trkpt><trkpt lat="59.0688943863" lon="29.9940276146"><time>2026-04-25T14:51:32Z</time></trkpt><trkpt lat="59.0688943863" lon="29.9940276146"><time>2026-04-25T14:51:34Z</time></trkpt><trkpt lat="59.0688943863" lon="29.9940276146"><time>2026-04-25T14:51:37Z</time></trkpt><trkpt lat="59.0688943863" lon="29.9940276146"><time>2026-04-25T14:51:39Z</time></trkpt><trkpt lat="59.0688943863" lon="29.9940276146"><time>2026-04-25T14:51:42Z</time></trkpt><trkpt lat="59.0688943863" lon="29.9940276146"><time>2026-04-25T14:51:44Z</time></trkpt><trkpt lat="59.0688943863" lon="29.9940276146"><time>2026-04-25T14:51:47Z</time></trkpt><trkpt lat="59.0688943863" lon="29.9940276146"><time>2026-04-25T14:51:49Z</time></trkpt><trkpt lat="59.0688943863" lon="29.9940276146"><time>2026-04-25T14:51:52Z</time></trkpt><trkpt lat="59.0688943863" lon="29.9940276146"><time>2026-04-25T14:51:54Z</time></trkpt><trkpt lat="59.0688943863" lon="29.9940276146"><time>2026-04-25T14:51:57Z</time></trkpt><trkpt lat="59.0688943863" lon="29.9940705299"><time>2026-04-25T14:51:59Z</time></trkpt><trkpt lat="59.0688943863" lon="29.9941134453"><time>2026-04-25T14:52:02Z</time></trkpt><trkpt lat="59.0688943863" lon="29.9941134453"><time>2026-04-25T14:52:04Z</time></trkpt><trkpt lat="59.0688943863" lon="29.9941134453"><time>2026-04-25T14:52:07Z</time></trkpt><trkpt lat="59.0688943863" lon="29.9941134453"><time>2026-04-25T14:52:09Z</time></trkpt><trkpt lat="59.0688943863" lon="29.9940919876"><time>2026-04-25T14:52:12Z</time></trkpt><trkpt lat="59.0688943863" lon="29.9940705299"><time>2026-04-25T14:52:14Z</time></trkpt><trkpt lat="59.0688943863" lon="29.9940705299"><time>2026-04-25T14:52:17Z</time></trkpt><trkpt lat="59.0688943863" lon="29.9940705299"><time>2026-04-25T14:52:19Z</time></trkpt><trkpt lat="59.0688943863" lon="29.9940705299"><time>2026-04-25T14:52:22Z</time></trkpt><trkpt lat="59.0688943863" lon="29.9940705299"><time>2026-04-25T14:52:24Z</time></trkpt><trkpt lat="59.0688943863" lon="29.9940705299"><time>2026-04-25T14:52:27Z</time></trkpt><trkpt lat="59.0688943863" lon="29.9940705299"><time>2026-04-25T14:52:29Z</time></trkpt><trkpt lat="59.0688943863" lon="29.9940705299"><time>2026-04-25T14:52:32Z</time></trkpt><trkpt lat="59.0688943863" lon="29.9940705299"><time>2026-04-25T14:52:34Z</time></trkpt><trkpt lat="59.0688943863" lon="29.9940705299"><time>2026-04-25T14:52:37Z</time></trkpt><trkpt lat="59.0688943863" lon="29.9940705299"><time>2026-04-25T14:52:39Z</time></trkpt><trkpt lat="59.0688943863" lon="29.9940705299"><time>2026-04-25T14:52:42Z</time></trkpt><trkpt lat="59.0688943863" lon="29.9940061569"><time>2026-04-25T14:52:44Z</time></trkpt><trkpt lat="59.0688943863" lon="29.9939846992"><time>2026-04-25T14:52:47Z</time></trkpt><trkpt lat="59.0688943863" lon="29.9939846992"><time>2026-04-25T14:52:49Z</time></trkpt><trkpt lat="59.0688943863" lon="29.9939846992"><time>2026-04-25T14:52:52Z</time></trkpt><trkpt lat="59.0688943863" lon="29.9939846992"><time>2026-04-25T14:52:54Z</time></trkpt><trkpt lat="59.0688943863" lon="29.9939846992"><time>2026-04-25T14:52:57Z</time></trkpt><trkpt lat="59.0688943863" lon="29.9939846992"><time>2026-04-25T14:52:59Z</time></trkpt><trkpt lat="59.0688943863" lon="29.9939846992"><time>2026-04-25T14:53:02Z</time></trkpt><trkpt lat="59.0688943863" lon="29.9939846992"><time>2026-04-25T14:53:04Z</time></trkpt><trkpt lat="59.0688943863" lon="29.9939846992"><time>2026-04-25T14:53:07Z</time></trkpt><trkpt lat="59.0688943863" lon="29.9939846992"><time>2026-04-25T14:53:09Z</time></trkpt><trkpt lat="59.0688943863" lon="29.9939846992"><time>2026-04-25T14:53:12Z</time></trkpt><trkpt lat="59.0688943863" lon="29.9939846992"><time>2026-04-25T14:53:14Z</time></trkpt><trkpt lat="59.0688943863" lon="29.9939846992"><time>2026-04-25T14:53:17Z</time></trkpt><trkpt lat="59.0688943863" lon="29.9939846992"><time>2026-04-25T14:53:19Z</time></trkpt><trkpt lat="59.0688943863" lon="29.9939846992"><time>2026-04-25T14:53:22Z</time></trkpt><trkpt lat="59.0688943863" lon="29.9939846992"><time>2026-04-25T14:53:24Z</time></trkpt><trkpt lat="59.0688943863" lon="29.9939846992"><time>2026-04-25T14:53:27Z</time></trkpt><trkpt lat="59.0688943863" lon="29.9939846992"><time>2026-04-25T14:53:29Z</time></trkpt><trkpt lat="59.0688943863" lon="29.9939846992"><time>2026-04-25T14:53:32Z</time></trkpt><trkpt lat="59.0688943863" lon="29.9939846992"><time>2026-04-25T14:53:34Z</time></trkpt><trkpt lat="59.0688943863" lon="29.9939846992"><time>2026-04-25T14:53:37Z</time></trkpt><trkpt lat="59.0688943863" lon="29.9939846992"><time>2026-04-25T14:53:39Z</time></trkpt><trkpt lat="59.0688943863" lon="29.9939846992"><time>2026-04-25T14:53:42Z</time></trkpt><trkpt lat="59.0688943863" lon="29.9939846992"><time>2026-04-25T14:53:44Z</time></trkpt><trkpt lat="59.0688943863" lon="29.9939846992"><time>2026-04-25T14:53:47Z</time></trkpt><trkpt lat="59.0688943863" lon="29.9939846992"><time>2026-04-25T14:53:49Z</time></trkpt><trkpt lat="59.0688943863" lon="29.9939846992"><time>2026-04-25T14:53:52Z</time></trkpt><trkpt lat="59.0688943863" lon="29.9939846992"><time>2026-04-25T14:53:54Z</time></trkpt><trkpt lat="59.0688943863" lon="29.9939846992"><time>2026-04-25T14:53:57Z</time></trkpt><trkpt lat="59.0688943863" lon="29.9939846992"><time>2026-04-25T14:53:59Z</time></trkpt><trkpt lat="59.0688943863" lon="29.9939846992"><time>2026-04-25T14:54:02Z</time></trkpt><trkpt lat="59.0688943863" lon="29.9939846992"><time>2026-04-25T14:54:04Z</time></trkpt><trkpt lat="59.0689158440" lon="29.9939846992"><time>2026-04-25T14:54:07Z</time></trkpt><trkpt lat="59.0689158440" lon="29.9939846992"><time>2026-04-25T14:54:09Z</time></trkpt><trkpt lat="59.0689158440" lon="29.9939846992"><time>2026-04-25T14:54:12Z</time></trkpt><trkpt lat="59.0689158440" lon="29.9939846992"><time>2026-04-25T14:54:14Z</time></trkpt><trkpt lat="59.0689158440" lon="29.9939846992"><time>2026-04-25T14:54:17Z</time></trkpt><trkpt lat="59.0688943863" lon="29.9939417839"><time>2026-04-25T14:54:19Z</time></trkpt><trkpt lat="59.0689158440" lon="29.9939203262"><time>2026-04-25T14:54:22Z</time></trkpt><trkpt lat="59.0689158440" lon="29.9938774109"><time>2026-04-25T14:54:24Z</time></trkpt><trkpt lat="59.0689158440" lon="29.9938774109"><time>2026-04-25T14:54:27Z</time></trkpt><trkpt lat="59.0689158440" lon="29.9938774109"><time>2026-04-25T14:54:29Z</time></trkpt><trkpt lat="59.0689158440" lon="29.9938774109"><time>2026-04-25T14:54:32Z</time></trkpt><trkpt lat="59.0689158440" lon="29.9938774109"><time>2026-04-25T14:54:34Z</time></trkpt><trkpt lat="59.0689158440" lon="29.9938774109"><time>2026-04-25T14:54:37Z</time></trkpt><trkpt lat="59.0689158440" lon="29.9938988686"><time>2026-04-25T14:54:39Z</time></trkpt><trkpt lat="59.0689158440" lon="29.9939203262"><time>2026-04-25T14:54:42Z</time></trkpt><trkpt lat="59.0689158440" lon="29.9939417839"><time>2026-04-25T14:54:44Z</time></trkpt><trkpt lat="59.0689158440" lon="29.9939417839"><time>2026-04-25T14:54:47Z</time></trkpt><trkpt lat="59.0689158440" lon="29.9939417839"><time>2026-04-25T14:54:49Z</time></trkpt><trkpt lat="59.0689158440" lon="29.9939417839"><time>2026-04-25T14:54:52Z</time></trkpt><trkpt lat="59.0689158440" lon="29.9939417839"><time>2026-04-25T14:54:54Z</time></trkpt><trkpt lat="59.0689158440" lon="29.9939417839"><time>2026-04-25T14:54:57Z</time></trkpt><trkpt lat="59.0689158440" lon="29.9939417839"><time>2026-04-25T14:54:59Z</time></trkpt><trkpt lat="59.0689158440" lon="29.9939417839"><time>2026-04-25T14:55:02Z</time></trkpt><trkpt lat="59.0689158440" lon="29.9939417839"><time>2026-04-25T14:55:04Z</time></trkpt><trkpt lat="59.0689158440" lon="29.9939417839"><time>2026-04-25T14:55:07Z</time></trkpt><trkpt lat="59.0689158440" lon="29.9939417839"><time>2026-04-25T14:55:09Z</time></trkpt><trkpt lat="59.0689158440" lon="29.9939417839"><time>2026-04-25T14:55:12Z</time></trkpt><trkpt lat="59.0689158440" lon="29.9939417839"><time>2026-04-25T14:55:14Z</time></trkpt><trkpt lat="59.0689158440" lon="29.9939417839"><time>2026-04-25T14:55:17Z</time></trkpt><trkpt lat="59.0689158440" lon="29.9939417839"><time>2026-04-25T14:55:19Z</time></trkpt><trkpt lat="59.0689158440" lon="29.9939417839"><time>2026-04-25T14:55:22Z</time></trkpt><trkpt lat="59.0689158440" lon="29.9939417839"><time>2026-04-25T14:55:24Z</time></trkpt><trkpt lat="59.0689158440" lon="29.9939417839"><time>2026-04-25T14:55:27Z</time></trkpt><trkpt lat="59.0689158440" lon="29.9939417839"><time>2026-04-25T14:55:29Z</time></trkpt><trkpt lat="59.0689158440" lon="29.9939417839"><time>2026-04-25T14:55:32Z</time></trkpt><trkpt lat="59.0689158440" lon="29.9939417839"><time>2026-04-25T14:55:34Z</time></trkpt><trkpt lat="59.0689158440" lon="29.9939417839"><time>2026-04-25T14:55:37Z</time></trkpt><trkpt lat="59.0689158440" lon="29.9939417839"><time>2026-04-25T14:55:39Z</time></trkpt><trkpt lat="59.0689158440" lon="29.9939417839"><time>2026-04-25T14:55:42Z</time></trkpt><trkpt lat="59.0689158440" lon="29.9939417839"><time>2026-04-25T14:55:44Z</time></trkpt><trkpt lat="59.0689158440" lon="29.9939417839"><time>2026-04-25T14:55:47Z</time></trkpt><trkpt lat="59.0689158440" lon="29.9939417839"><time>2026-04-25T14:55:49Z</time></trkpt><trkpt lat="59.0689158440" lon="29.9939417839"><time>2026-04-25T14:55:52Z</time></trkpt><trkpt lat="59.0689158440" lon="29.9939417839"><time>2026-04-25T14:55:54Z</time></trkpt><trkpt lat="59.0689158440" lon="29.9939417839"><time>2026-04-25T14:55:57Z</time></trkpt><trkpt lat="59.0689158440" lon="29.9939417839"><time>2026-04-25T14:55:59Z</time></trkpt><trkpt lat="59.0689158440" lon="29.9939417839"><time>2026-04-25T14:56:02Z</time></trkpt><trkpt lat="59.0689158440" lon="29.9939417839"><time>2026-04-25T14:56:04Z</time></trkpt><trkpt lat="59.0689158440" lon="29.9938988686"><time>2026-04-25T14:56:07Z</time></trkpt><trkpt lat="59.0689373016" lon="29.9938774109"><time>2026-04-25T14:56:09Z</time></trkpt><trkpt lat="59.0689373016" lon="29.9938774109"><time>2026-04-25T14:56:12Z</time></trkpt><trkpt lat="59.0689587593" lon="29.9938559532"><time>2026-04-25T14:56:14Z</time></trkpt><trkpt lat="59.0689802170" lon="29.9938130379"><time>2026-04-25T14:56:17Z</time></trkpt><trkpt lat="59.0690016747" lon="29.9937915802"><time>2026-04-25T14:56:19Z</time></trkpt><trkpt lat="59.0690016747" lon="29.9937701225"><time>2026-04-25T14:56:22Z</time></trkpt><trkpt lat="59.0690016747" lon="29.9937701225"><time>2026-04-25T14:56:24Z</time></trkpt><trkpt lat="59.0690445900" lon="29.9937486649"><time>2026-04-25T14:56:27Z</time></trkpt><trkpt lat="59.0690660477" lon="29.9937272072"><time>2026-04-25T14:56:29Z</time></trkpt><trkpt lat="59.0690875053" lon="29.9937272072"><time>2026-04-25T14:56:32Z</time></trkpt><trkpt lat="59.0690875053" lon="29.9937272072"><time>2026-04-25T14:56:34Z</time></trkpt><trkpt lat="59.0691089630" lon="29.9936842918"><time>2026-04-25T14:56:37Z</time></trkpt><trkpt lat="59.0691304207" lon="29.9936842918"><time>2026-04-25T14:56:39Z</time></trkpt><trkpt lat="59.0691733360" lon="29.9936628342"><time>2026-04-25T14:56:42Z</time></trkpt><trkpt lat="59.0691947937" lon="29.9936413765"><time>2026-04-25T14:56:44Z</time></trkpt><trkpt lat="59.0692377090" lon="29.9936413765"><time>2026-04-25T14:56:47Z</time></trkpt><trkpt lat="59.0692591667" lon="29.9935770035"><time>2026-04-25T14:56:49Z</time></trkpt><trkpt lat="59.0692591667" lon="29.9935555458"><time>2026-04-25T14:56:52Z</time></trkpt><trkpt lat="59.0692806244" lon="29.9935555458"><time>2026-04-25T14:56:54Z</time></trkpt><trkpt lat="59.0693020821" lon="29.9935126305"><time>2026-04-25T14:56:57Z</time></trkpt><trkpt lat="59.0693235397" lon="29.9934911728"><time>2026-04-25T14:56:59Z</time></trkpt><trkpt lat="59.0693235397" lon="29.9934911728"><time>2026-04-25T14:57:02Z</time></trkpt><trkpt lat="59.0693235397" lon="29.9934697151"><time>2026-04-25T14:57:04Z</time></trkpt><trkpt lat="59.0693235397" lon="29.9934267998"><time>2026-04-25T14:57:07Z</time></trkpt><trkpt lat="59.0693664551" lon="29.9934482574"><time>2026-04-25T14:57:09Z</time></trkpt><trkpt lat="59.0694522858" lon="29.9934482574"><time>2026-04-25T14:57:12Z</time></trkpt><trkpt lat="59.0694952011" lon="29.9934911728"><time>2026-04-25T14:57:14Z</time></trkpt><trkpt lat="59.0695166588" lon="29.9935555458"><time>2026-04-25T14:57:17Z</time></trkpt><trkpt lat="59.0695166588" lon="29.9936628342"><time>2026-04-25T14:57:19Z</time></trkpt><trkpt lat="59.0695381165" lon="29.9937057495"><time>2026-04-25T14:57:22Z</time></trkpt><trkpt lat="59.0695595741" lon="29.9937701225"><time>2026-04-25T14:57:24Z</time></trkpt><trkpt lat="59.0695595741" lon="29.9937915802"><time>2026-04-25T14:57:27Z</time></trkpt><trkpt lat="59.0695810318" lon="29.9938559532"><time>2026-04-25T14:57:29Z</time></trkpt><trkpt lat="59.0695810318" lon="29.9938559532"><time>2026-04-25T14:57:32Z</time></trkpt><trkpt lat="59.0695810318" lon="29.9938559532"><time>2026-04-25T14:57:34Z</time></trkpt><trkpt lat="59.0696024895" lon="29.9938774109"><time>2026-04-25T14:57:37Z</time></trkpt><trkpt lat="59.0696454048" lon="29.9938774109"><time>2026-04-25T14:57:39Z</time></trkpt><trkpt lat="59.0696668625" lon="29.9938130379"><time>2026-04-25T14:57:42Z</time></trkpt><trkpt lat="59.0697097778" lon="29.9937272072"><time>2026-04-25T14:57:44Z</time></trkpt><trkpt lat="59.0697526932" lon="29.9936628342"><time>2026-04-25T14:57:47Z</time></trkpt><trkpt lat="59.0697956085" lon="29.9936199188"><time>2026-04-25T14:57:49Z</time></trkpt><trkpt lat="59.0698385239" lon="29.9935340881"><time>2026-04-25T14:57:52Z</time></trkpt><trkpt lat="59.0698385239" lon="29.9935340881"><time>2026-04-25T14:57:54Z</time></trkpt><trkpt lat="59.0698385239" lon="29.9935340881"><time>2026-04-25T14:57:57Z</time></trkpt><trkpt lat="59.0698599815" lon="29.9934267998"><time>2026-04-25T14:57:59Z</time></trkpt><trkpt lat="59.0698599815" lon="29.9933624268"><time>2026-04-25T14:58:02Z</time></trkpt><trkpt lat="59.0698814392" lon="29.9933409691"><time>2026-04-25T14:58:04Z</time></trkpt><trkpt lat="59.0698814392" lon="29.9933409691"><time>2026-04-25T14:58:07Z</time></trkpt><trkpt lat="59.0698814392" lon="29.9933409691"><time>2026-04-25T14:58:09Z</time></trkpt><trkpt lat="59.0698814392" lon="29.9933409691"><time>2026-04-25T14:58:12Z</time></trkpt><trkpt lat="59.0698814392" lon="29.9933409691"><time>2026-04-25T14:58:14Z</time></trkpt><trkpt lat="59.0699028969" lon="29.9933624268"><time>2026-04-25T14:58:17Z</time></trkpt><trkpt lat="59.0699458122" lon="29.9933838844"><time>2026-04-25T14:58:19Z</time></trkpt><trkpt lat="59.0699887276" lon="29.9934053421"><time>2026-04-25T14:58:22Z</time></trkpt><trkpt lat="59.0700316429" lon="29.9934267998"><time>2026-04-25T14:58:24Z</time></trkpt><trkpt lat="59.0700316429" lon="29.9934267998"><time>2026-04-25T14:58:27Z</time></trkpt><trkpt lat="59.0700745583" lon="29.9933838844"><time>2026-04-25T14:58:29Z</time></trkpt><trkpt lat="59.0701174736" lon="29.9934053421"><time>2026-04-25T14:58:32Z</time></trkpt><trkpt lat="59.0701603889" lon="29.9934267998"><time>2026-04-25T14:58:34Z</time></trkpt><trkpt lat="59.0702033043" lon="29.9934053421"><time>2026-04-25T14:58:37Z</time></trkpt><trkpt lat="59.0702676773" lon="29.9934053421"><time>2026-04-25T14:58:39Z</time></trkpt><trkpt lat="59.0702891350" lon="29.9934053421"><time>2026-04-25T14:58:42Z</time></trkpt><trkpt lat="59.0703320503" lon="29.9934053421"><time>2026-04-25T14:58:44Z</time></trkpt><trkpt lat="59.0703535080" lon="29.9933838844"><time>2026-04-25T14:58:47Z</time></trkpt><trkpt lat="59.0703964233" lon="29.9933624268"><time>2026-04-25T14:58:49Z</time></trkpt><trkpt lat="59.0704178810" lon="29.9933409691"><time>2026-04-25T14:58:52Z</time></trkpt><trkpt lat="59.0704607964" lon="29.9932980537"><time>2026-04-25T14:58:54Z</time></trkpt><trkpt lat="59.0704822540" lon="29.9932765961"><time>2026-04-25T14:58:57Z</time></trkpt><trkpt lat="59.0705037117" lon="29.9932122231"><time>2026-04-25T14:58:59Z</time></trkpt><trkpt lat="59.0705251694" lon="29.9931693077"><time>2026-04-25T14:59:02Z</time></trkpt><trkpt lat="59.0705251694" lon="29.9931478500"><time>2026-04-25T14:59:04Z</time></trkpt><trkpt lat="59.0705251694" lon="29.9931478500"><time>2026-04-25T14:59:07Z</time></trkpt><trkpt lat="59.0705037117" lon="29.9931478500"><time>2026-04-25T14:59:09Z</time></trkpt><trkpt lat="59.0705037117" lon="29.9931478500"><time>2026-04-25T14:59:12Z</time></trkpt><trkpt lat="59.0705466270" lon="29.9931263924"><time>2026-04-25T14:59:14Z</time></trkpt><trkpt lat="59.0705895424" lon="29.9931263924"><time>2026-04-25T14:59:17Z</time></trkpt><trkpt lat="59.0706110001" lon="29.9931049347"><time>2026-04-25T14:59:19Z</time></trkpt><trkpt lat="59.0706324577" lon="29.9931263924"><time>2026-04-25T14:59:22Z</time></trkpt><trkpt lat="59.0706539154" lon="29.9931478500"><time>2026-04-25T14:59:24Z</time></trkpt><trkpt lat="59.0706539154" lon="29.9931263924"><time>2026-04-25T14:59:27Z</time></trkpt><trkpt lat="59.0706539154" lon="29.9931263924"><time>2026-04-25T14:59:29Z</time></trkpt><trkpt lat="59.0706539154" lon="29.9931263924"><time>2026-04-25T14:59:32Z</time></trkpt><trkpt lat="59.0706539154" lon="29.9931263924"><time>2026-04-25T14:59:34Z</time></trkpt><trkpt lat="59.0706539154" lon="29.9931263924"><time>2026-04-25T14:59:37Z</time></trkpt><trkpt lat="59.0706539154" lon="29.9931263924"><time>2026-04-25T14:59:39Z</time></trkpt><trkpt lat="59.0706539154" lon="29.9931263924"><time>2026-04-25T14:59:42Z</time></trkpt><trkpt lat="59.0706539154" lon="29.9931263924"><time>2026-04-25T14:59:44Z</time></trkpt><trkpt lat="59.0706753731" lon="29.9931478500"><time>2026-04-25T14:59:47Z</time></trkpt><trkpt lat="59.0706968307" lon="29.9931478500"><time>2026-04-25T14:59:49Z</time></trkpt><trkpt lat="59.0707182884" lon="29.9931478500"><time>2026-04-25T14:59:52Z</time></trkpt><trkpt lat="59.0707397461" lon="29.9931478500"><time>2026-04-25T14:59:54Z</time></trkpt><trkpt lat="59.0707612038" lon="29.9931478500"><time>2026-04-25T14:59:57Z</time></trkpt><trkpt lat="59.0707612038" lon="29.9931263924"><time>2026-04-25T14:59:59Z</time></trkpt><trkpt lat="59.0707826614" lon="29.9931263924"><time>2026-04-25T15:00:02Z</time></trkpt><trkpt lat="59.0708041191" lon="29.9931049347"><time>2026-04-25T15:00:04Z</time></trkpt><trkpt lat="59.0708041191" lon="29.9931049347"><time>2026-04-25T15:00:07Z</time></trkpt><trkpt lat="59.0708041191" lon="29.9931049347"><time>2026-04-25T15:00:09Z</time></trkpt><trkpt lat="59.0708041191" lon="29.9931049347"><time>2026-04-25T15:00:12Z</time></trkpt><trkpt lat="59.0708255768" lon="29.9930834770"><time>2026-04-25T15:00:14Z</time></trkpt><trkpt lat="59.0708255768" lon="29.9930834770"><time>2026-04-25T15:00:17Z</time></trkpt><trkpt lat="59.0708470345" lon="29.9931049347"><time>2026-04-25T15:00:19Z</time></trkpt><trkpt lat="59.0708470345" lon="29.9931049347"><time>2026-04-25T15:00:22Z</time></trkpt><trkpt lat="59.0708470345" lon="29.9930834770"><time>2026-04-25T15:00:24Z</time></trkpt><trkpt lat="59.0708899498" lon="29.9930405617"><time>2026-04-25T15:00:27Z</time></trkpt><trkpt lat="59.0709757805" lon="29.9930191040"><time>2026-04-25T15:00:29Z</time></trkpt><trkpt lat="59.0710186958" lon="29.9929332733"><time>2026-04-25T15:00:32Z</time></trkpt><trkpt lat="59.0710616112" lon="29.9929118156"><time>2026-04-25T15:00:34Z</time></trkpt><trkpt lat="59.0711688995" lon="29.9928474426"><time>2026-04-25T15:00:37Z</time></trkpt><trkpt lat="59.0712118149" lon="29.9928045273"><time>2026-04-25T15:00:39Z</time></trkpt><trkpt lat="59.0712118149" lon="29.9927401543"><time>2026-04-25T15:00:42Z</time></trkpt><trkpt lat="59.0712547302" lon="29.9927186966"><time>2026-04-25T15:00:44Z</time></trkpt><trkpt lat="59.0712761879" lon="29.9927186966"><time>2026-04-25T15:00:47Z</time></trkpt><trkpt lat="59.0712761879" lon="29.9927401543"><time>2026-04-25T15:00:49Z</time></trkpt><trkpt lat="59.0713191032" lon="29.9927186966"><time>2026-04-25T15:00:52Z</time></trkpt><trkpt lat="59.0713191032" lon="29.9927401543"><time>2026-04-25T15:00:54Z</time></trkpt><trkpt lat="59.0712761879" lon="29.9927401543"><time>2026-04-25T15:00:57Z</time></trkpt><trkpt lat="59.0712761879" lon="29.9926972389"><time>2026-04-25T15:00:59Z</time></trkpt><trkpt lat="59.0712547302" lon="29.9926972389"><time>2026-04-25T15:01:02Z</time></trkpt><trkpt lat="59.0712332726" lon="29.9927186966"><time>2026-04-25T15:01:04Z</time></trkpt><trkpt lat="59.0712118149" lon="29.9926972389"><time>2026-04-25T15:01:07Z</time></trkpt><trkpt lat="59.0711688995" lon="29.9927186966"><time>2026-04-25T15:01:09Z</time></trkpt><trkpt lat="59.0711045265" lon="29.9928689003"><time>2026-04-25T15:01:12Z</time></trkpt><trkpt lat="59.0710401535" lon="29.9928689003"><time>2026-04-25T15:01:14Z</time></trkpt><trkpt lat="59.0709972382" lon="29.9927830696"><time>2026-04-25T15:01:17Z</time></trkpt><trkpt lat="59.0709543228" lon="29.9927401543"><time>2026-04-25T15:01:19Z</time></trkpt><trkpt lat="59.0708899498" lon="29.9927830696"><time>2026-04-25T15:01:22Z</time></trkpt><trkpt lat="59.0709114075" lon="29.9929976463"><time>2026-04-25T15:01:24Z</time></trkpt><trkpt lat="59.0709328651" lon="29.9931263924"><time>2026-04-25T15:01:27Z</time></trkpt><trkpt lat="59.0709757805" lon="29.9931907654"><time>2026-04-25T15:01:29Z</time></trkpt><trkpt lat="59.0710401535" lon="29.9932765961"><time>2026-04-25T15:01:32Z</time></trkpt><trkpt lat="59.0710830688" lon="29.9932336807"><time>2026-04-25T15:01:34Z</time></trkpt><trkpt lat="59.0711474419" lon="29.9932122231"><time>2026-04-25T15:01:37Z</time></trkpt><trkpt lat="59.0712118149" lon="29.9931693077"><time>2026-04-25T15:01:39Z</time></trkpt><trkpt lat="59.0712547302" lon="29.9931693077"><time>2026-04-25T15:01:42Z</time></trkpt><trkpt lat="59.0712761879" lon="29.9931907654"><time>2026-04-25T15:01:44Z</time></trkpt><trkpt lat="59.0712761879" lon="29.9931049347"><time>2026-04-25T15:01:47Z</time></trkpt><trkpt lat="59.0712761879" lon="29.9930191040"><time>2026-04-25T15:01:49Z</time></trkpt><trkpt lat="59.0712976456" lon="29.9929332733"><time>2026-04-25T15:01:52Z</time></trkpt><trkpt lat="59.0713191032" lon="29.9928259850"><time>2026-04-25T15:01:54Z</time></trkpt><trkpt lat="59.0713620186" lon="29.9928259850"><time>2026-04-25T15:01:57Z</time></trkpt><trkpt lat="59.0713620186" lon="29.9927830696"><time>2026-04-25T15:01:59Z</time></trkpt><trkpt lat="59.0713834763" lon="29.9926972389"><time>2026-04-25T15:02:02Z</time></trkpt><trkpt lat="59.0714263916" lon="29.9926328659"><time>2026-04-25T15:02:04Z</time></trkpt><trkpt lat="59.0714478493" lon="29.9925899506"><time>2026-04-25T15:02:07Z</time></trkpt><trkpt lat="59.0714693069" lon="29.9925255775"><time>2026-04-25T15:02:09Z</time></trkpt><trkpt lat="59.0714693069" lon="29.9924612045"><time>2026-04-25T15:02:12Z</time></trkpt><trkpt lat="59.0714907646" lon="29.9923324585"><time>2026-04-25T15:02:14Z</time></trkpt><trkpt lat="59.0715336800" lon="29.9922466278"><time>2026-04-25T15:02:17Z</time></trkpt><trkpt lat="59.0715980530" lon="29.9922680855"><time>2026-04-25T15:02:19Z</time></trkpt><trkpt lat="59.0716409683" lon="29.9923110008"><time>2026-04-25T15:02:22Z</time></trkpt><trkpt lat="59.0716624260" lon="29.9923324585"><time>2026-04-25T15:02:24Z</time></trkpt><trkpt lat="59.0717267990" lon="29.9923324585"><time>2026-04-25T15:02:27Z</time></trkpt><trkpt lat="59.0718126297" lon="29.9925041199"><time>2026-04-25T15:02:29Z</time></trkpt><trkpt lat="59.0718340874" lon="29.9925470352"><time>2026-04-25T15:02:32Z</time></trkpt><trkpt lat="59.0718555450" lon="29.9925255775"><time>2026-04-25T15:02:34Z</time></trkpt><trkpt lat="59.0718984604" lon="29.9924612045"><time>2026-04-25T15:02:37Z</time></trkpt><trkpt lat="59.0719628334" lon="29.9923968315"><time>2026-04-25T15:02:39Z</time></trkpt><trkpt lat="59.0719842911" lon="29.9922251701"><time>2026-04-25T15:02:42Z</time></trkpt><trkpt lat="59.0720486641" lon="29.9921178818"><time>2026-04-25T15:02:44Z</time></trkpt><trkpt lat="59.0721130371" lon="29.9921393394"><time>2026-04-25T15:02:47Z</time></trkpt><trkpt lat="59.0721988678" lon="29.9922037125"><time>2026-04-25T15:02:49Z</time></trkpt><trkpt lat="59.0722417831" lon="29.9922251701"><time>2026-04-25T15:02:52Z</time></trkpt><trkpt lat="59.0722417831" lon="29.9922251701"><time>2026-04-25T15:02:54Z</time></trkpt><trkpt lat="59.0722417831" lon="29.9922251701"><time>2026-04-25T15:02:57Z</time></trkpt><trkpt lat="59.0722417831" lon="29.9922251701"><time>2026-04-25T15:02:59Z</time></trkpt><trkpt lat="59.0722417831" lon="29.9922251701"><time>2026-04-25T15:03:02Z</time></trkpt><trkpt lat="59.0722846985" lon="29.9922251701"><time>2026-04-25T15:03:04Z</time></trkpt><trkpt lat="59.0723276138" lon="29.9922466278"><time>2026-04-25T15:03:07Z</time></trkpt><trkpt lat="59.0723919868" lon="29.9923539162"><time>2026-04-25T15:03:09Z</time></trkpt><trkpt lat="59.0723919868" lon="29.9923539162"><time>2026-04-25T15:03:12Z</time></trkpt><trkpt lat="59.0723490715" lon="29.9922895432"><time>2026-04-25T15:03:14Z</time></trkpt><trkpt lat="59.0723276138" lon="29.9921822548"><time>2026-04-25T15:03:17Z</time></trkpt><trkpt lat="59.0722632408" lon="29.9919676781"><time>2026-04-25T15:03:19Z</time></trkpt><trkpt lat="59.0722203255" lon="29.9918389320"><time>2026-04-25T15:03:22Z</time></trkpt><trkpt lat="59.0721988678" lon="29.9918603897"><time>2026-04-25T15:03:24Z</time></trkpt><trkpt lat="59.0721988678" lon="29.9919462204"><time>2026-04-25T15:03:27Z</time></trkpt><trkpt lat="59.0721774101" lon="29.9920105934"><time>2026-04-25T15:03:29Z</time></trkpt><trkpt lat="59.0721344948" lon="29.9920535088"><time>2026-04-25T15:03:32Z</time></trkpt><trkpt lat="59.0721130371" lon="29.9922037125"><time>2026-04-25T15:03:34Z</time></trkpt><trkpt lat="59.0720701218" lon="29.9922466278"><time>2026-04-25T15:03:37Z</time></trkpt><trkpt lat="59.0720057487" lon="29.9921607971"><time>2026-04-25T15:03:39Z</time></trkpt><trkpt lat="59.0719628334" lon="29.9921393394"><time>2026-04-25T15:03:42Z</time></trkpt><trkpt lat="59.0718984604" lon="29.9920964241"><time>2026-04-25T15:03:44Z</time></trkpt><trkpt lat="59.0718984604" lon="29.9920964241"><time>2026-04-25T15:03:47Z</time></trkpt><trkpt lat="59.0718984604" lon="29.9920320511"><time>2026-04-25T15:03:49Z</time></trkpt><trkpt lat="59.0718984604" lon="29.9919676781"><time>2026-04-25T15:03:52Z</time></trkpt><trkpt lat="59.0719199181" lon="29.9919033051"><time>2026-04-25T15:03:54Z</time></trkpt><trkpt lat="59.0719199181" lon="29.9919676781"><time>2026-04-25T15:03:57Z</time></trkpt><trkpt lat="59.0719628334" lon="29.9920964241"><time>2026-04-25T15:03:59Z</time></trkpt><trkpt lat="59.0720057487" lon="29.9921822548"><time>2026-04-25T15:04:02Z</time></trkpt><trkpt lat="59.0720486641" lon="29.9922680855"><time>2026-04-25T15:04:04Z</time></trkpt><trkpt lat="59.0720701218" lon="29.9922680855"><time>2026-04-25T15:04:07Z</time></trkpt><trkpt lat="59.0720915794" lon="29.9922251701"><time>2026-04-25T15:04:09Z</time></trkpt><trkpt lat="59.0720915794" lon="29.9921607971"><time>2026-04-25T15:04:12Z</time></trkpt><trkpt lat="59.0721344948" lon="29.9920535088"><time>2026-04-25T15:04:14Z</time></trkpt><trkpt lat="59.0721559525" lon="29.9920320511"><time>2026-04-25T15:04:17Z</time></trkpt><trkpt lat="59.0721988678" lon="29.9920105934"><time>2026-04-25T15:04:19Z</time></trkpt><trkpt lat="59.0722417831" lon="29.9919891357"><time>2026-04-25T15:04:22Z</time></trkpt><trkpt lat="59.0722846985" lon="29.9919676781"><time>2026-04-25T15:04:24Z</time></trkpt><trkpt lat="59.0723061562" lon="29.9919676781"><time>2026-04-25T15:04:27Z</time></trkpt><trkpt lat="59.0723061562" lon="29.9919891357"><time>2026-04-25T15:04:29Z</time></trkpt><trkpt lat="59.0723061562" lon="29.9919891357"><time>2026-04-25T15:04:32Z</time></trkpt><trkpt lat="59.0723061562" lon="29.9919891357"><time>2026-04-25T15:04:34Z</time></trkpt><trkpt lat="59.0723061562" lon="29.9919891357"><time>2026-04-25T15:04:37Z</time></trkpt><trkpt lat="59.0723276138" lon="29.9920105934"><time>2026-04-25T15:04:39Z</time></trkpt><trkpt lat="59.0723276138" lon="29.9920535088"><time>2026-04-25T15:04:42Z</time></trkpt><trkpt lat="59.0723276138" lon="29.9920535088"><time>2026-04-25T15:04:44Z</time></trkpt><trkpt lat="59.0723705292" lon="29.9920749664"><time>2026-04-25T15:04:47Z</time></trkpt><trkpt lat="59.0723705292" lon="29.9920964241"><time>2026-04-25T15:04:49Z</time></trkpt><trkpt lat="59.0723705292" lon="29.9920964241"><time>2026-04-25T15:04:52Z</time></trkpt><trkpt lat="59.0723705292" lon="29.9920964241"><time>2026-04-25T15:04:54Z</time></trkpt><trkpt lat="59.0723705292" lon="29.9920964241"><time>2026-04-25T15:04:57Z</time></trkpt><trkpt lat="59.0723919868" lon="29.9922037125"><time>2026-04-25T15:04:59Z</time></trkpt><trkpt lat="59.0724134445" lon="29.9922251701"><time>2026-04-25T15:05:02Z</time></trkpt><trkpt lat="59.0724778175" lon="29.9922680855"><time>2026-04-25T15:05:04Z</time></trkpt><trkpt lat="59.0725207329" lon="29.9923110008"><time>2026-04-25T15:05:07Z</time></trkpt><trkpt lat="59.0725851059" lon="29.9923324585"><time>2026-04-25T15:05:09Z</time></trkpt><trkpt lat="59.0726280212" lon="29.9923110008"><time>2026-04-25T15:05:12Z</time></trkpt><trkpt lat="59.0727138519" lon="29.9923110008"><time>2026-04-25T15:05:14Z</time></trkpt><trkpt lat="59.0727567673" lon="29.9923110008"><time>2026-04-25T15:05:17Z</time></trkpt><trkpt lat="59.0728425980" lon="29.9923110008"><time>2026-04-25T15:05:19Z</time></trkpt><trkpt lat="59.0728855133" lon="29.9923110008"><time>2026-04-25T15:05:22Z</time></trkpt><trkpt lat="59.0729713440" lon="29.9923110008"><time>2026-04-25T15:05:24Z</time></trkpt><trkpt lat="59.0730571747" lon="29.9923110008"><time>2026-04-25T15:05:27Z</time></trkpt><trkpt lat="59.0731644630" lon="29.9923324585"><time>2026-04-25T15:05:29Z</time></trkpt><trkpt lat="59.0731644630" lon="29.9923324585"><time>2026-04-25T15:05:32Z</time></trkpt><trkpt lat="59.0731859207" lon="29.9923539162"><time>2026-04-25T15:05:34Z</time></trkpt><trkpt lat="59.0731859207" lon="29.9923539162"><time>2026-04-25T15:05:37Z</time></trkpt><trkpt lat="59.0731859207" lon="29.9923539162"><time>2026-04-25T15:05:39Z</time></trkpt><trkpt lat="59.0731859207" lon="29.9923753738"><time>2026-04-25T15:05:42Z</time></trkpt><trkpt lat="59.0732288361" lon="29.9923753738"><time>2026-04-25T15:05:44Z</time></trkpt><trkpt lat="59.0732717514" lon="29.9923753738"><time>2026-04-25T15:05:47Z</time></trkpt><trkpt lat="59.0733575821" lon="29.9923110008"><time>2026-04-25T15:05:49Z</time></trkpt><trkpt lat="59.0734004974" lon="29.9922680855"><time>2026-04-25T15:05:52Z</time></trkpt><trkpt lat="59.0734004974" lon="29.9922251701"><time>2026-04-25T15:05:54Z</time></trkpt><trkpt lat="59.0734004974" lon="29.9922251701"><time>2026-04-25T15:05:57Z</time></trkpt><trkpt lat="59.0734004974" lon="29.9922037125"><time>2026-04-25T15:05:59Z</time></trkpt><trkpt lat="59.0733790398" lon="29.9922037125"><time>2026-04-25T15:06:02Z</time></trkpt><trkpt lat="59.0733575821" lon="29.9922251701"><time>2026-04-25T15:06:04Z</time></trkpt><trkpt lat="59.0732932091" lon="29.9922680855"><time>2026-04-25T15:06:07Z</time></trkpt><trkpt lat="59.0732073784" lon="29.9923324585"><time>2026-04-25T15:06:09Z</time></trkpt><trkpt lat="59.0732073784" lon="29.9923968315"><time>2026-04-25T15:06:12Z</time></trkpt><trkpt lat="59.0731000900" lon="29.9924182892"><time>2026-04-25T15:06:14Z</time></trkpt><trkpt lat="59.0730357170" lon="29.9924397469"><time>2026-04-25T15:06:17Z</time></trkpt><trkpt lat="59.0728640556" lon="29.9924826622"><time>2026-04-25T15:06:19Z</time></trkpt><trkpt lat="59.0727782249" lon="29.9925041199"><time>2026-04-25T15:06:22Z</time></trkpt><trkpt lat="59.0726709366" lon="29.9925470352"><time>2026-04-25T15:06:24Z</time></trkpt><trkpt lat="59.0726709366" lon="29.9925470352"><time>2026-04-25T15:06:27Z</time></trkpt><trkpt lat="59.0726709366" lon="29.9925470352"><time>2026-04-25T15:06:29Z</time></trkpt><trkpt lat="59.0726709366" lon="29.9925470352"><time>2026-04-25T15:06:32Z</time></trkpt><trkpt lat="59.0726709366" lon="29.9925470352"><time>2026-04-25T15:06:34Z</time></trkpt><trkpt lat="59.0726709366" lon="29.9925470352"><time>2026-04-25T15:06:37Z</time></trkpt><trkpt lat="59.0726709366" lon="29.9925255775"><time>2026-04-25T15:06:39Z</time></trkpt><trkpt lat="59.0726923943" lon="29.9925255775"><time>2026-04-25T15:06:42Z</time></trkpt><trkpt lat="59.0726923943" lon="29.9925255775"><time>2026-04-25T15:06:44Z</time></trkpt><trkpt lat="59.0726923943" lon="29.9925255775"><time>2026-04-25T15:06:47Z</time></trkpt><trkpt lat="59.0726923943" lon="29.9925041199"><time>2026-04-25T15:06:49Z</time></trkpt><trkpt lat="59.0727353096" lon="29.9924397469"><time>2026-04-25T15:06:52Z</time></trkpt><trkpt lat="59.0727567673" lon="29.9923968315"><time>2026-04-25T15:06:54Z</time></trkpt><trkpt lat="59.0727567673" lon="29.9923968315"><time>2026-04-25T15:06:57Z</time></trkpt><trkpt lat="59.0727567673" lon="29.9923968315"><time>2026-04-25T15:06:59Z</time></trkpt><trkpt lat="59.0727567673" lon="29.9923968315"><time>2026-04-25T15:07:02Z</time></trkpt><trkpt lat="59.0727782249" lon="29.9923968315"><time>2026-04-25T15:07:04Z</time></trkpt><trkpt lat="59.0727782249" lon="29.9923968315"><time>2026-04-25T15:07:07Z</time></trkpt><trkpt lat="59.0727782249" lon="29.9923968315"><time>2026-04-25T15:07:09Z</time></trkpt><trkpt lat="59.0727782249" lon="29.9923968315"><time>2026-04-25T15:07:12Z</time></trkpt><trkpt lat="59.0727782249" lon="29.9923968315"><time>2026-04-25T15:07:14Z</time></trkpt><trkpt lat="59.0727782249" lon="29.9923753738"><time>2026-04-25T15:07:17Z</time></trkpt><trkpt lat="59.0727782249" lon="29.9923324585"><time>2026-04-25T15:07:19Z</time></trkpt><trkpt lat="59.0727996826" lon="29.9922680855"><time>2026-04-25T15:07:22Z</time></trkpt><trkpt lat="59.0728640556" lon="29.9921822548"><time>2026-04-25T15:07:24Z</time></trkpt><trkpt lat="59.0728855133" lon="29.9921178818"><time>2026-04-25T15:07:27Z</time></trkpt><trkpt lat="59.0729284286" lon="29.9920749664"><time>2026-04-25T15:07:29Z</time></trkpt><trkpt lat="59.0729284286" lon="29.9920320511"><time>2026-04-25T15:07:32Z</time></trkpt><trkpt lat="59.0729498863" lon="29.9919676781"><time>2026-04-25T15:07:34Z</time></trkpt><trkpt lat="59.0729713440" lon="29.9919676781"><time>2026-04-25T15:07:37Z</time></trkpt><trkpt lat="59.0729713440" lon="29.9919462204"><time>2026-04-25T15:07:39Z</time></trkpt><trkpt lat="59.0730142593" lon="29.9919247627"><time>2026-04-25T15:07:42Z</time></trkpt><trkpt lat="59.0730571747" lon="29.9918603897"><time>2026-04-25T15:07:44Z</time></trkpt><trkpt lat="59.0730571747" lon="29.9917960167"><time>2026-04-25T15:07:47Z</time></trkpt><trkpt lat="59.0730786324" lon="29.9917101860"><time>2026-04-25T15:07:49Z</time></trkpt><trkpt lat="59.0730786324" lon="29.9917101860"><time>2026-04-25T15:07:52Z</time></trkpt><trkpt lat="59.0731215477" lon="29.9917101860"><time>2026-04-25T15:07:54Z</time></trkpt><trkpt lat="59.0731430054" lon="29.9916672707"><time>2026-04-25T15:07:57Z</time></trkpt><trkpt lat="59.0731859207" lon="29.9915599823"><time>2026-04-25T15:07:59Z</time></trkpt><trkpt lat="59.0732288361" lon="29.9915385246"><time>2026-04-25T15:08:02Z</time></trkpt><trkpt lat="59.0732502937" lon="29.9915599823"><time>2026-04-25T15:08:04Z</time></trkpt><trkpt lat="59.0732502937" lon="29.9915385246"><time>2026-04-25T15:08:07Z</time></trkpt><trkpt lat="59.0732502937" lon="29.9916243553"><time>2026-04-25T15:08:09Z</time></trkpt><trkpt lat="59.0732932091" lon="29.9916458130"><time>2026-04-25T15:08:12Z</time></trkpt><trkpt lat="59.0733361244" lon="29.9916458130"><time>2026-04-25T15:08:14Z</time></trkpt><trkpt lat="59.0733575821" lon="29.9916243553"><time>2026-04-25T15:08:17Z</time></trkpt><trkpt lat="59.0734004974" lon="29.9915599823"><time>2026-04-25T15:08:19Z</time></trkpt><trkpt lat="59.0734004974" lon="29.9915170670"><time>2026-04-25T15:08:22Z</time></trkpt><trkpt lat="59.0734219551" lon="29.9914956093"><time>2026-04-25T15:08:24Z</time></trkpt><trkpt lat="59.0734219551" lon="29.9914956093"><time>2026-04-25T15:08:27Z</time></trkpt><trkpt lat="59.0734219551" lon="29.9914956093"><time>2026-04-25T15:08:29Z</time></trkpt><trkpt lat="59.0734219551" lon="29.9914956093"><time>2026-04-25T15:08:32Z</time></trkpt><trkpt lat="59.0734219551" lon="29.9915385246"><time>2026-04-25T15:08:34Z</time></trkpt><trkpt lat="59.0734004974" lon="29.9916028976"><time>2026-04-25T15:08:37Z</time></trkpt><trkpt lat="59.0734648705" lon="29.9917101860"><time>2026-04-25T15:08:39Z</time></trkpt><trkpt lat="59.0735077858" lon="29.9917531013"><time>2026-04-25T15:08:42Z</time></trkpt><trkpt lat="59.0735721588" lon="29.9917531013"><time>2026-04-25T15:08:44Z</time></trkpt><trkpt lat="59.0735936165" lon="29.9917531013"><time>2026-04-25T15:08:47Z</time></trkpt><trkpt lat="59.0735936165" lon="29.9917531013"><time>2026-04-25T15:08:49Z</time></trkpt><trkpt lat="59.0736150742" lon="29.9917531013"><time>2026-04-25T15:08:52Z</time></trkpt><trkpt lat="59.0736150742" lon="29.9917316437"><time>2026-04-25T15:08:54Z</time></trkpt><trkpt lat="59.0736150742" lon="29.9917316437"><time>2026-04-25T15:08:57Z</time></trkpt><trkpt lat="59.0736150742" lon="29.9917316437"><time>2026-04-25T15:08:59Z</time></trkpt><trkpt lat="59.0736150742" lon="29.9917316437"><time>2026-04-25T15:09:02Z</time></trkpt><trkpt lat="59.0736365318" lon="29.9916887283"><time>2026-04-25T15:09:04Z</time></trkpt><trkpt lat="59.0736579895" lon="29.9916458130"><time>2026-04-25T15:09:07Z</time></trkpt><trkpt lat="59.0736794472" lon="29.9915599823"><time>2026-04-25T15:09:09Z</time></trkpt><trkpt lat="59.0737223625" lon="29.9915385246"><time>2026-04-25T15:09:12Z</time></trkpt><trkpt lat="59.0737438202" lon="29.9914956093"><time>2026-04-25T15:09:14Z</time></trkpt><trkpt lat="59.0737438202" lon="29.9914741516"><time>2026-04-25T15:09:17Z</time></trkpt><trkpt lat="59.0737652779" lon="29.9914526939"><time>2026-04-25T15:09:19Z</time></trkpt><trkpt lat="59.0738081932" lon="29.9914312363"><time>2026-04-25T15:09:22Z</time></trkpt><trkpt lat="59.0738296509" lon="29.9914312363"><time>2026-04-25T15:09:24Z</time></trkpt><trkpt lat="59.0738511086" lon="29.9914741516"><time>2026-04-25T15:09:27Z</time></trkpt><trkpt lat="59.0738511086" lon="29.9914741516"><time>2026-04-25T15:09:29Z</time></trkpt><trkpt lat="59.0738725662" lon="29.9914741516"><time>2026-04-25T15:09:32Z</time></trkpt><trkpt lat="59.0739154816" lon="29.9914741516"><time>2026-04-25T15:09:34Z</time></trkpt><trkpt lat="59.0739583969" lon="29.9914956093"><time>2026-04-25T15:09:37Z</time></trkpt><trkpt lat="59.0739798546" lon="29.9915385246"><time>2026-04-25T15:09:39Z</time></trkpt><trkpt lat="59.0740013123" lon="29.9915385246"><time>2026-04-25T15:09:42Z</time></trkpt><trkpt lat="59.0740442276" lon="29.9915385246"><time>2026-04-25T15:09:44Z</time></trkpt><trkpt lat="59.0740656853" lon="29.9915385246"><time>2026-04-25T15:09:47Z</time></trkpt><trkpt lat="59.0741300583" lon="29.9915385246"><time>2026-04-25T15:09:49Z</time></trkpt><trkpt lat="59.0741515160" lon="29.9915385246"><time>2026-04-25T15:09:52Z</time></trkpt><trkpt lat="59.0742158890" lon="29.9915814400"><time>2026-04-25T15:09:57Z</time></trkpt><trkpt lat="59.0742373466" lon="29.9915599823"><time>2026-04-25T15:09:59Z</time></trkpt><trkpt lat="59.0742373466" lon="29.9915599823"><time>2026-04-25T15:10:02Z</time></trkpt><trkpt lat="59.0742373466" lon="29.9915599823"><time>2026-04-25T15:10:04Z</time></trkpt><trkpt lat="59.0742588043" lon="29.9915385246"><time>2026-04-25T15:10:09Z</time></trkpt><trkpt lat="59.0742588043" lon="29.9915385246"><time>2026-04-25T15:10:12Z</time></trkpt><trkpt lat="59.0742588043" lon="29.9915385246"><time>2026-04-25T15:10:14Z</time></trkpt><trkpt lat="59.0742588043" lon="29.9915385246"><time>2026-04-25T15:10:17Z</time></trkpt><trkpt lat="59.0742588043" lon="29.9915385246"><time>2026-04-25T15:10:19Z</time></trkpt><trkpt lat="59.0742588043" lon="29.9915385246"><time>2026-04-25T15:10:22Z</time></trkpt><trkpt lat="59.0742588043" lon="29.9915385246"><time>2026-04-25T15:10:24Z</time></trkpt><trkpt lat="59.0742588043" lon="29.9915385246"><time>2026-04-25T15:10:27Z</time></trkpt><trkpt lat="59.0742588043" lon="29.9915385246"><time>2026-04-25T15:10:29Z</time></trkpt><trkpt lat="59.0742802620" lon="29.9915170670"><time>2026-04-25T15:10:32Z</time></trkpt><trkpt lat="59.0742802620" lon="29.9914097786"><time>2026-04-25T15:10:34Z</time></trkpt><trkpt lat="59.0743017197" lon="29.9913883209"><time>2026-04-25T15:10:37Z</time></trkpt><trkpt lat="59.0743017197" lon="29.9913883209"><time>2026-04-25T15:10:39Z</time></trkpt><trkpt lat="59.0743017197" lon="29.9913883209"><time>2026-04-25T15:10:42Z</time></trkpt><trkpt lat="59.0743017197" lon="29.9913883209"><time>2026-04-25T15:10:44Z</time></trkpt><trkpt lat="59.0743017197" lon="29.9913883209"><time>2026-04-25T15:10:47Z</time></trkpt><trkpt lat="59.0743017197" lon="29.9913883209"><time>2026-04-25T15:10:49Z</time></trkpt><trkpt lat="59.0743231773" lon="29.9913668633"><time>2026-04-25T15:10:52Z</time></trkpt><trkpt lat="59.0743446350" lon="29.9913454056"><time>2026-04-25T15:10:54Z</time></trkpt><trkpt lat="59.0743875504" lon="29.9913239479"><time>2026-04-25T15:10:57Z</time></trkpt><trkpt lat="59.0744090080" lon="29.9913668633"><time>2026-04-25T15:10:59Z</time></trkpt><trkpt lat="59.0744304657" lon="29.9913454056"><time>2026-04-25T15:11:02Z</time></trkpt><trkpt lat="59.0744733810" lon="29.9913454056"><time>2026-04-25T15:11:04Z</time></trkpt><trkpt lat="59.0745377541" lon="29.9913024902"><time>2026-04-25T15:11:07Z</time></trkpt><trkpt lat="59.0745806694" lon="29.9912595749"><time>2026-04-25T15:11:09Z</time></trkpt><trkpt lat="59.0745806694" lon="29.9912595749"><time>2026-04-25T15:11:12Z</time></trkpt><trkpt lat="59.0745806694" lon="29.9912595749"><time>2026-04-25T15:11:14Z</time></trkpt><trkpt lat="59.0745806694" lon="29.9913024902"><time>2026-04-25T15:11:17Z</time></trkpt><trkpt lat="59.0745592117" lon="29.9913454056"><time>2026-04-25T15:11:19Z</time></trkpt><trkpt lat="59.0745162964" lon="29.9913454056"><time>2026-04-25T15:11:22Z</time></trkpt><trkpt lat="59.0745162964" lon="29.9914097786"><time>2026-04-25T15:11:24Z</time></trkpt><trkpt lat="59.0745377541" lon="29.9914526939"><time>2026-04-25T15:11:27Z</time></trkpt><trkpt lat="59.0745162964" lon="29.9914526939"><time>2026-04-25T15:11:29Z</time></trkpt><trkpt lat="59.0744948387" lon="29.9914741516"><time>2026-04-25T15:11:32Z</time></trkpt><trkpt lat="59.0744948387" lon="29.9914526939"><time>2026-04-25T15:11:34Z</time></trkpt><trkpt lat="59.0744948387" lon="29.9914312363"><time>2026-04-25T15:11:37Z</time></trkpt><trkpt lat="59.0745162964" lon="29.9913668633"><time>2026-04-25T15:11:39Z</time></trkpt><trkpt lat="59.0745162964" lon="29.9913239479"><time>2026-04-25T15:11:42Z</time></trkpt><trkpt lat="59.0744948387" lon="29.9912595749"><time>2026-04-25T15:11:44Z</time></trkpt><trkpt lat="59.0745162964" lon="29.9912166595"><time>2026-04-25T15:11:47Z</time></trkpt><trkpt lat="59.0745162964" lon="29.9911522865"><time>2026-04-25T15:11:49Z</time></trkpt><trkpt lat="59.0745162964" lon="29.9911093712"><time>2026-04-25T15:11:52Z</time></trkpt><trkpt lat="59.0745377541" lon="29.9910879135"><time>2026-04-25T15:11:54Z</time></trkpt><trkpt lat="59.0745377541" lon="29.9910879135"><time>2026-04-25T15:11:57Z</time></trkpt><trkpt lat="59.0745592117" lon="29.9911308289"><time>2026-04-25T15:11:59Z</time></trkpt><trkpt lat="59.0746021271" lon="29.9911308289"><time>2026-04-25T15:12:02Z</time></trkpt><trkpt lat="59.0746235847" lon="29.9911308289"><time>2026-04-25T15:12:04Z</time></trkpt><trkpt lat="59.0746450424" lon="29.9911522865"><time>2026-04-25T15:12:07Z</time></trkpt><trkpt lat="59.0746665001" lon="29.9911737442"><time>2026-04-25T15:12:09Z</time></trkpt><trkpt lat="59.0746879578" lon="29.9912166595"><time>2026-04-25T15:12:12Z</time></trkpt><trkpt lat="59.0747094154" lon="29.9912595749"><time>2026-04-25T15:12:14Z</time></trkpt><trkpt lat="59.0747308731" lon="29.9912810326"><time>2026-04-25T15:12:17Z</time></trkpt><trkpt lat="59.0747523308" lon="29.9913024902"><time>2026-04-25T15:12:19Z</time></trkpt><trkpt lat="59.0747523308" lon="29.9913024902"><time>2026-04-25T15:12:22Z</time></trkpt><trkpt lat="59.0747737885" lon="29.9912810326"><time>2026-04-25T15:12:24Z</time></trkpt><trkpt lat="59.0747952461" lon="29.9912810326"><time>2026-04-25T15:12:27Z</time></trkpt><trkpt lat="59.0747952461" lon="29.9912595749"><time>2026-04-25T15:12:29Z</time></trkpt><trkpt lat="59.0747737885" lon="29.9912381172"><time>2026-04-25T15:12:32Z</time></trkpt><trkpt lat="59.0747737885" lon="29.9912166595"><time>2026-04-25T15:12:34Z</time></trkpt><trkpt lat="59.0747737885" lon="29.9912166595"><time>2026-04-25T15:12:37Z</time></trkpt><trkpt lat="59.0747737885" lon="29.9912166595"><time>2026-04-25T15:12:39Z</time></trkpt><trkpt lat="59.0747952461" lon="29.9911737442"><time>2026-04-25T15:12:42Z</time></trkpt><trkpt lat="59.0748381615" lon="29.9911737442"><time>2026-04-25T15:12:44Z</time></trkpt><trkpt lat="59.0748596191" lon="29.9911737442"><time>2026-04-25T15:12:47Z</time></trkpt><trkpt lat="59.0748810768" lon="29.9911737442"><time>2026-04-25T15:12:49Z</time></trkpt><trkpt lat="59.0749454498" lon="29.9911737442"><time>2026-04-25T15:12:52Z</time></trkpt><trkpt lat="59.0749669075" lon="29.9911737442"><time>2026-04-25T15:12:54Z</time></trkpt><trkpt lat="59.0750098228" lon="29.9911952019"><time>2026-04-25T15:12:57Z</time></trkpt><trkpt lat="59.0750312805" lon="29.9911952019"><time>2026-04-25T15:12:59Z</time></trkpt><trkpt lat="59.0750527382" lon="29.9911952019"><time>2026-04-25T15:13:02Z</time></trkpt><trkpt lat="59.0750527382" lon="29.9911952019"><time>2026-04-25T15:13:04Z</time></trkpt><trkpt lat="59.0750527382" lon="29.9911952019"><time>2026-04-25T15:13:07Z</time></trkpt><trkpt lat="59.0750527382" lon="29.9911952019"><time>2026-04-25T15:13:09Z</time></trkpt><trkpt lat="59.0750527382" lon="29.9911308289"><time>2026-04-25T15:13:12Z</time></trkpt><trkpt lat="59.0750527382" lon="29.9910449982"><time>2026-04-25T15:13:14Z</time></trkpt><trkpt lat="59.0750741959" lon="29.9908947945"><time>2026-04-25T15:13:17Z</time></trkpt><trkpt lat="59.0750741959" lon="29.9907875061"><time>2026-04-25T15:13:19Z</time></trkpt><trkpt lat="59.0750527382" lon="29.9907445908"><time>2026-04-25T15:13:22Z</time></trkpt><trkpt lat="59.0750527382" lon="29.9906587601"><time>2026-04-25T15:13:24Z</time></trkpt><trkpt lat="59.0750527382" lon="29.9906587601"><time>2026-04-25T15:13:27Z</time></trkpt><trkpt lat="59.0750527382" lon="29.9906587601"><time>2026-04-25T15:13:29Z</time></trkpt><trkpt lat="59.0750741959" lon="29.9906802177"><time>2026-04-25T15:13:32Z</time></trkpt><trkpt lat="59.0750956535" lon="29.9907660484"><time>2026-04-25T15:13:34Z</time></trkpt><trkpt lat="59.0751385689" lon="29.9908733368"><time>2026-04-25T15:13:37Z</time></trkpt><trkpt lat="59.0751385689" lon="29.9908947945"><time>2026-04-25T15:13:39Z</time></trkpt><trkpt lat="59.0751600266" lon="29.9909377098"><time>2026-04-25T15:13:42Z</time></trkpt><trkpt lat="59.0752029419" lon="29.9910020828"><time>2026-04-25T15:13:44Z</time></trkpt><trkpt lat="59.0752029419" lon="29.9910235405"><time>2026-04-25T15:13:47Z</time></trkpt><trkpt lat="59.0752458572" lon="29.9910449982"><time>2026-04-25T15:13:49Z</time></trkpt><trkpt lat="59.0752458572" lon="29.9910449982"><time>2026-04-25T15:13:52Z</time></trkpt><trkpt lat="59.0752673149" lon="29.9910235405"><time>2026-04-25T15:13:54Z</time></trkpt><trkpt lat="59.0753102303" lon="29.9910235405"><time>2026-04-25T15:13:57Z</time></trkpt><trkpt lat="59.0753531456" lon="29.9910020828"><time>2026-04-25T15:13:59Z</time></trkpt><trkpt lat="59.0753746033" lon="29.9909806252"><time>2026-04-25T15:14:02Z</time></trkpt><trkpt lat="59.0754175186" lon="29.9909377098"><time>2026-04-25T15:14:04Z</time></trkpt><trkpt lat="59.0754175186" lon="29.9909377098"><time>2026-04-25T15:14:07Z</time></trkpt><trkpt lat="59.0754175186" lon="29.9909377098"><time>2026-04-25T15:14:09Z</time></trkpt><trkpt lat="59.0753960609" lon="29.9908733368"><time>2026-04-25T15:14:12Z</time></trkpt><trkpt lat="59.0753746033" lon="29.9907660484"><time>2026-04-25T15:14:14Z</time></trkpt><trkpt lat="59.0753746033" lon="29.9907231331"><time>2026-04-25T15:14:17Z</time></trkpt><trkpt lat="59.0753960609" lon="29.9907016754"><time>2026-04-25T15:14:19Z</time></trkpt><trkpt lat="59.0754175186" lon="29.9906802177"><time>2026-04-25T15:14:22Z</time></trkpt><trkpt lat="59.0754604340" lon="29.9906587601"><time>2026-04-25T15:14:24Z</time></trkpt><trkpt lat="59.0754818916" lon="29.9906587601"><time>2026-04-25T15:14:27Z</time></trkpt><trkpt lat="59.0754818916" lon="29.9906158447"><time>2026-04-25T15:14:29Z</time></trkpt><trkpt lat="59.0754818916" lon="29.9906158447"><time>2026-04-25T15:14:32Z</time></trkpt><trkpt lat="59.0755462646" lon="29.9906158447"><time>2026-04-25T15:14:34Z</time></trkpt><trkpt lat="59.0755677223" lon="29.9905943871"><time>2026-04-25T15:14:37Z</time></trkpt><trkpt lat="59.0755891800" lon="29.9905943871"><time>2026-04-25T15:14:39Z</time></trkpt><trkpt lat="59.0756106377" lon="29.9905729294"><time>2026-04-25T15:14:42Z</time></trkpt><trkpt lat="59.0756320953" lon="29.9905514717"><time>2026-04-25T15:14:44Z</time></trkpt><trkpt lat="59.0756750107" lon="29.9905085564"><time>2026-04-25T15:14:47Z</time></trkpt><trkpt lat="59.0757393837" lon="29.9904656410"><time>2026-04-25T15:14:49Z</time></trkpt><trkpt lat="59.0757608414" lon="29.9904656410"><time>2026-04-25T15:14:52Z</time></trkpt><trkpt lat="59.0757393837" lon="29.9905514717"><time>2026-04-25T15:14:54Z</time></trkpt><trkpt lat="59.0757608414" lon="29.9906158447"><time>2026-04-25T15:14:57Z</time></trkpt><trkpt lat="59.0758037567" lon="29.9906373024"><time>2026-04-25T15:14:59Z</time></trkpt><trkpt lat="59.0758252144" lon="29.9905943871"><time>2026-04-25T15:15:02Z</time></trkpt><trkpt lat="59.0758252144" lon="29.9905514717"><time>2026-04-25T15:15:04Z</time></trkpt><trkpt lat="59.0758466721" lon="29.9905514717"><time>2026-04-25T15:15:07Z</time></trkpt><trkpt lat="59.0758466721" lon="29.9905085564"><time>2026-04-25T15:15:09Z</time></trkpt><trkpt lat="59.0758681297" lon="29.9904870987"><time>2026-04-25T15:15:12Z</time></trkpt><trkpt lat="59.0759110451" lon="29.9904656410"><time>2026-04-25T15:15:14Z</time></trkpt><trkpt lat="59.0759325027" lon="29.9904656410"><time>2026-04-25T15:15:17Z</time></trkpt><trkpt lat="59.0759325027" lon="29.9904656410"><time>2026-04-25T15:15:19Z</time></trkpt><trkpt lat="59.0759325027" lon="29.9904656410"><time>2026-04-25T15:15:22Z</time></trkpt><trkpt lat="59.0759754181" lon="29.9904227257"><time>2026-04-25T15:15:24Z</time></trkpt><trkpt lat="59.0760183334" lon="29.9904012680"><time>2026-04-25T15:15:27Z</time></trkpt><trkpt lat="59.0760612488" lon="29.9904012680"><time>2026-04-25T15:15:29Z</time></trkpt><trkpt lat="59.0760827065" lon="29.9904227257"><time>2026-04-25T15:15:32Z</time></trkpt><trkpt lat="59.0761041641" lon="29.9904656410"><time>2026-04-25T15:15:34Z</time></trkpt><trkpt lat="59.0761256218" lon="29.9905085564"><time>2026-04-25T15:15:37Z</time></trkpt><trkpt lat="59.0761470795" lon="29.9905085564"><time>2026-04-25T15:15:39Z</time></trkpt><trkpt lat="59.0761685371" lon="29.9905300140"><time>2026-04-25T15:15:42Z</time></trkpt><trkpt lat="59.0761899948" lon="29.9905514717"><time>2026-04-25T15:15:44Z</time></trkpt><trkpt lat="59.0761899948" lon="29.9905729294"><time>2026-04-25T15:15:47Z</time></trkpt><trkpt lat="59.0761899948" lon="29.9905729294"><time>2026-04-25T15:15:49Z</time></trkpt><trkpt lat="59.0761899948" lon="29.9905514717"><time>2026-04-25T15:15:52Z</time></trkpt><trkpt lat="59.0761899948" lon="29.9905514717"><time>2026-04-25T15:15:54Z</time></trkpt><trkpt lat="59.0761899948" lon="29.9905514717"><time>2026-04-25T15:15:57Z</time></trkpt><trkpt lat="59.0762114525" lon="29.9905729294"><time>2026-04-25T15:15:59Z</time></trkpt><trkpt lat="59.0762329102" lon="29.9905729294"><time>2026-04-25T15:16:02Z</time></trkpt><trkpt lat="59.0762329102" lon="29.9905514717"><time>2026-04-25T15:16:04Z</time></trkpt><trkpt lat="59.0762329102" lon="29.9905300140"><time>2026-04-25T15:16:07Z</time></trkpt><trkpt lat="59.0762329102" lon="29.9904870987"><time>2026-04-25T15:16:09Z</time></trkpt><trkpt lat="59.0762543678" lon="29.9904656410"><time>2026-04-25T15:16:12Z</time></trkpt><trkpt lat="59.0762543678" lon="29.9904656410"><time>2026-04-25T15:16:14Z</time></trkpt><trkpt lat="59.0762543678" lon="29.9904656410"><time>2026-04-25T15:16:17Z</time></trkpt><trkpt lat="59.0762758255" lon="29.9904012680"><time>2026-04-25T15:16:19Z</time></trkpt><trkpt lat="59.0762972832" lon="29.9903798103"><time>2026-04-25T15:16:22Z</time></trkpt><trkpt lat="59.0763187408" lon="29.9903798103"><time>2026-04-25T15:16:24Z</time></trkpt><trkpt lat="59.0763187408" lon="29.9903583527"><time>2026-04-25T15:16:27Z</time></trkpt><trkpt lat="59.0763187408" lon="29.9903154373"><time>2026-04-25T15:16:29Z</time></trkpt><trkpt lat="59.0763401985" lon="29.9902510643"><time>2026-04-25T15:16:32Z</time></trkpt><trkpt lat="59.0763187408" lon="29.9902081490"><time>2026-04-25T15:16:34Z</time></trkpt><trkpt lat="59.0763187408" lon="29.9901866913"><time>2026-04-25T15:16:37Z</time></trkpt><trkpt lat="59.0763616562" lon="29.9901437759"><time>2026-04-25T15:16:39Z</time></trkpt><trkpt lat="59.0763616562" lon="29.9901437759"><time>2026-04-25T15:16:42Z</time></trkpt><trkpt lat="59.0763831139" lon="29.9901437759"><time>2026-04-25T15:16:44Z</time></trkpt><trkpt lat="59.0763831139" lon="29.9901437759"><time>2026-04-25T15:16:47Z</time></trkpt><trkpt lat="59.0764045715" lon="29.9901437759"><time>2026-04-25T15:16:49Z</time></trkpt><trkpt lat="59.0764260292" lon="29.9901008606"><time>2026-04-25T15:16:52Z</time></trkpt><trkpt lat="59.0764689445" lon="29.9900579453"><time>2026-04-25T15:16:54Z</time></trkpt><trkpt lat="59.0764689445" lon="29.9900364876"><time>2026-04-25T15:16:57Z</time></trkpt><trkpt lat="59.0764689445" lon="29.9899935722"><time>2026-04-25T15:16:59Z</time></trkpt><trkpt lat="59.0764904022" lon="29.9899506569"><time>2026-04-25T15:17:02Z</time></trkpt><trkpt lat="59.0765118599" lon="29.9899077415"><time>2026-04-25T15:17:04Z</time></trkpt><trkpt lat="59.0765118599" lon="29.9899077415"><time>2026-04-25T15:17:07Z</time></trkpt><trkpt lat="59.0765547752" lon="29.9898433685"><time>2026-04-25T15:17:09Z</time></trkpt><trkpt lat="59.0765547752" lon="29.9898433685"><time>2026-04-25T15:17:12Z</time></trkpt><trkpt lat="59.0765762329" lon="29.9898219109"><time>2026-04-25T15:17:14Z</time></trkpt><trkpt lat="59.0765976906" lon="29.9897575378"><time>2026-04-25T15:17:17Z</time></trkpt><trkpt lat="59.0766191483" lon="29.9896717072"><time>2026-04-25T15:17:19Z</time></trkpt><trkpt lat="59.0766191483" lon="29.9896717072"><time>2026-04-25T15:17:22Z</time></trkpt><trkpt lat="59.0766191483" lon="29.9896073341"><time>2026-04-25T15:17:24Z</time></trkpt><trkpt lat="59.0766191483" lon="29.9895858765"><time>2026-04-25T15:17:27Z</time></trkpt><trkpt lat="59.0766191483" lon="29.9895858765"><time>2026-04-25T15:17:29Z</time></trkpt><trkpt lat="59.0766191483" lon="29.9895858765"><time>2026-04-25T15:17:32Z</time></trkpt><trkpt lat="59.0766191483" lon="29.9895858765"><time>2026-04-25T15:17:34Z</time></trkpt><trkpt lat="59.0766191483" lon="29.9895858765"><time>2026-04-25T15:17:37Z</time></trkpt><trkpt lat="59.0766406059" lon="29.9895429611"><time>2026-04-25T15:17:39Z</time></trkpt><trkpt lat="59.0766620636" lon="29.9895000458"><time>2026-04-25T15:17:42Z</time></trkpt><trkpt lat="59.0767049789" lon="29.9894785881"><time>2026-04-25T15:17:44Z</time></trkpt><trkpt lat="59.0767264366" lon="29.9895215034"><time>2026-04-25T15:17:47Z</time></trkpt><trkpt lat="59.0767264366" lon="29.9895644188"><time>2026-04-25T15:17:49Z</time></trkpt><trkpt lat="59.0767264366" lon="29.9896073341"><time>2026-04-25T15:17:52Z</time></trkpt><trkpt lat="59.0767478943" lon="29.9896931648"><time>2026-04-25T15:17:54Z</time></trkpt><trkpt lat="59.0767264366" lon="29.9897146225"><time>2026-04-25T15:17:57Z</time></trkpt><trkpt lat="59.0767264366" lon="29.9897789955"><time>2026-04-25T15:17:59Z</time></trkpt><trkpt lat="59.0767264366" lon="29.9898219109"><time>2026-04-25T15:18:02Z</time></trkpt><trkpt lat="59.0767264366" lon="29.9899077415"><time>2026-04-25T15:18:04Z</time></trkpt><trkpt lat="59.0767264366" lon="29.9899506569"><time>2026-04-25T15:18:07Z</time></trkpt><trkpt lat="59.0767478943" lon="29.9899506569"><time>2026-04-25T15:18:09Z</time></trkpt><trkpt lat="59.0767478943" lon="29.9899291992"><time>2026-04-25T15:18:12Z</time></trkpt><trkpt lat="59.0767478943" lon="29.9899077415"><time>2026-04-25T15:18:14Z</time></trkpt><trkpt lat="59.0767693520" lon="29.9898433685"><time>2026-04-25T15:18:17Z</time></trkpt><trkpt lat="59.0767693520" lon="29.9898219109"><time>2026-04-25T15:18:19Z</time></trkpt><trkpt lat="59.0767693520" lon="29.9898862839"><time>2026-04-25T15:18:22Z</time></trkpt><trkpt lat="59.0767478943" lon="29.9899291992"><time>2026-04-25T15:18:24Z</time></trkpt><trkpt lat="59.0767478943" lon="29.9899291992"><time>2026-04-25T15:18:27Z</time></trkpt><trkpt lat="59.0767693520" lon="29.9899506569"><time>2026-04-25T15:18:29Z</time></trkpt><trkpt lat="59.0767908096" lon="29.9899721146"><time>2026-04-25T15:18:32Z</time></trkpt><trkpt lat="59.0767908096" lon="29.9899935722"><time>2026-04-25T15:18:34Z</time></trkpt><trkpt lat="59.0768122673" lon="29.9900150299"><time>2026-04-25T15:18:37Z</time></trkpt><trkpt lat="59.0768551826" lon="29.9899935722"><time>2026-04-25T15:18:39Z</time></trkpt><trkpt lat="59.0768766403" lon="29.9899935722"><time>2026-04-25T15:18:42Z</time></trkpt><trkpt lat="59.0768980980" lon="29.9899721146"><time>2026-04-25T15:18:44Z</time></trkpt><trkpt lat="59.0768980980" lon="29.9899291992"><time>2026-04-25T15:18:47Z</time></trkpt><trkpt lat="59.0768980980" lon="29.9898862839"><time>2026-04-25T15:18:49Z</time></trkpt><trkpt lat="59.0769410133" lon="29.9898219109"><time>2026-04-25T15:18:52Z</time></trkpt><trkpt lat="59.0769624710" lon="29.9898004532"><time>2026-04-25T15:18:54Z</time></trkpt><trkpt lat="59.0769624710" lon="29.9897789955"><time>2026-04-25T15:18:57Z</time></trkpt><trkpt lat="59.0769624710" lon="29.9897360802"><time>2026-04-25T15:18:59Z</time></trkpt><trkpt lat="59.0769839287" lon="29.9897146225"><time>2026-04-25T15:19:02Z</time></trkpt><trkpt lat="59.0770053864" lon="29.9896717072"><time>2026-04-25T15:19:04Z</time></trkpt><trkpt lat="59.0770268440" lon="29.9896287918"><time>2026-04-25T15:19:07Z</time></trkpt><trkpt lat="59.0770697594" lon="29.9895429611"><time>2026-04-25T15:19:09Z</time></trkpt><trkpt lat="59.0770912170" lon="29.9895215034"><time>2026-04-25T15:19:12Z</time></trkpt><trkpt lat="59.0770912170" lon="29.9895215034"><time>2026-04-25T15:19:14Z</time></trkpt><trkpt lat="59.0770912170" lon="29.9895215034"><time>2026-04-25T15:19:17Z</time></trkpt><trkpt lat="59.0770912170" lon="29.9895215034"><time>2026-04-25T15:19:19Z</time></trkpt><trkpt lat="59.0770912170" lon="29.9895215034"><time>2026-04-25T15:19:22Z</time></trkpt><trkpt lat="59.0770912170" lon="29.9895215034"><time>2026-04-25T15:19:24Z</time></trkpt><trkpt lat="59.0770697594" lon="29.9895000458"><time>2026-04-25T15:19:27Z</time></trkpt><trkpt lat="59.0770697594" lon="29.9895000458"><time>2026-04-25T15:19:29Z</time></trkpt><trkpt lat="59.0770697594" lon="29.9895000458"><time>2026-04-25T15:19:32Z</time></trkpt><trkpt lat="59.0770912170" lon="29.9895000458"><time>2026-04-25T15:19:34Z</time></trkpt><trkpt lat="59.0771126747" lon="29.9895215034"><time>2026-04-25T15:19:37Z</time></trkpt><trkpt lat="59.0771555901" lon="29.9895429611"><time>2026-04-25T15:19:39Z</time></trkpt><trkpt lat="59.0771985054" lon="29.9895429611"><time>2026-04-25T15:19:42Z</time></trkpt><trkpt lat="59.0772199631" lon="29.9895429611"><time>2026-04-25T15:19:44Z</time></trkpt><trkpt lat="59.0772199631" lon="29.9895644188"><time>2026-04-25T15:19:47Z</time></trkpt><trkpt lat="59.0772199631" lon="29.9896073341"><time>2026-04-25T15:19:49Z</time></trkpt><trkpt lat="59.0772414207" lon="29.9896287918"><time>2026-04-25T15:19:52Z</time></trkpt><trkpt lat="59.0772628784" lon="29.9896502495"><time>2026-04-25T15:19:54Z</time></trkpt><trkpt lat="59.0772843361" lon="29.9897146225"><time>2026-04-25T15:19:57Z</time></trkpt><trkpt lat="59.0773057938" lon="29.9897146225"><time>2026-04-25T15:19:59Z</time></trkpt><trkpt lat="59.0773057938" lon="29.9897146225"><time>2026-04-25T15:20:02Z</time></trkpt><trkpt lat="59.0773487091" lon="29.9896931648"><time>2026-04-25T15:20:04Z</time></trkpt><trkpt lat="59.0773701668" lon="29.9896931648"><time>2026-04-25T15:20:07Z</time></trkpt><trkpt lat="59.0773701668" lon="29.9897146225"><time>2026-04-25T15:20:09Z</time></trkpt><trkpt lat="59.0773916245" lon="29.9896931648"><time>2026-04-25T15:20:12Z</time></trkpt><trkpt lat="59.0774130821" lon="29.9896502495"><time>2026-04-25T15:20:14Z</time></trkpt><trkpt lat="59.0773916245" lon="29.9896502495"><time>2026-04-25T15:20:17Z</time></trkpt><trkpt lat="59.0773916245" lon="29.9896287918"><time>2026-04-25T15:20:19Z</time></trkpt><trkpt lat="59.0773916245" lon="29.9896287918"><time>2026-04-25T15:20:22Z</time></trkpt><trkpt lat="59.0773916245" lon="29.9896287918"><time>2026-04-25T15:20:24Z</time></trkpt><trkpt lat="59.0773916245" lon="29.9896287918"><time>2026-04-25T15:20:27Z</time></trkpt><trkpt lat="59.0773916245" lon="29.9896287918"><time>2026-04-25T15:20:29Z</time></trkpt><trkpt lat="59.0774130821" lon="29.9896287918"><time>2026-04-25T15:20:32Z</time></trkpt><trkpt lat="59.0774345398" lon="29.9896717072"><time>2026-04-25T15:20:34Z</time></trkpt><trkpt lat="59.0774559975" lon="29.9897146225"><time>2026-04-25T15:20:37Z</time></trkpt><trkpt lat="59.0774774551" lon="29.9897575378"><time>2026-04-25T15:20:39Z</time></trkpt><trkpt lat="59.0774989128" lon="29.9897789955"><time>2026-04-25T15:20:42Z</time></trkpt><trkpt lat="59.0774774551" lon="29.9898433685"><time>2026-04-25T15:20:44Z</time></trkpt><trkpt lat="59.0774989128" lon="29.9898862839"><time>2026-04-25T15:20:47Z</time></trkpt><trkpt lat="59.0774989128" lon="29.9899077415"><time>2026-04-25T15:20:49Z</time></trkpt><trkpt lat="59.0774989128" lon="29.9899077415"><time>2026-04-25T15:20:52Z</time></trkpt><trkpt lat="59.0774989128" lon="29.9899077415"><time>2026-04-25T15:20:54Z</time></trkpt><trkpt lat="59.0774989128" lon="29.9899077415"><time>2026-04-25T15:20:57Z</time></trkpt><trkpt lat="59.0774989128" lon="29.9899077415"><time>2026-04-25T15:20:59Z</time></trkpt><trkpt lat="59.0774989128" lon="29.9899077415"><time>2026-04-25T15:21:02Z</time></trkpt><trkpt lat="59.0774989128" lon="29.9899077415"><time>2026-04-25T15:21:04Z</time></trkpt><trkpt lat="59.0774989128" lon="29.9899077415"><time>2026-04-25T15:21:07Z</time></trkpt><trkpt lat="59.0774989128" lon="29.9899077415"><time>2026-04-25T15:21:09Z</time></trkpt><trkpt lat="59.0774774551" lon="29.9898648262"><time>2026-04-25T15:21:12Z</time></trkpt><trkpt lat="59.0774130821" lon="29.9898862839"><time>2026-04-25T15:21:14Z</time></trkpt><trkpt lat="59.0774130821" lon="29.9898862839"><time>2026-04-25T15:21:17Z</time></trkpt><trkpt lat="59.0774345398" lon="29.9899721146"><time>2026-04-25T15:21:19Z</time></trkpt><trkpt lat="59.0774345398" lon="29.9900150299"><time>2026-04-25T15:21:22Z</time></trkpt><trkpt lat="59.0774130821" lon="29.9900364876"><time>2026-04-25T15:21:24Z</time></trkpt><trkpt lat="59.0774130821" lon="29.9900794029"><time>2026-04-25T15:21:27Z</time></trkpt><trkpt lat="59.0774130821" lon="29.9901223183"><time>2026-04-25T15:21:29Z</time></trkpt><trkpt lat="59.0774130821" lon="29.9901223183"><time>2026-04-25T15:21:32Z</time></trkpt><trkpt lat="59.0774130821" lon="29.9901223183"><time>2026-04-25T15:21:34Z</time></trkpt><trkpt lat="59.0774130821" lon="29.9901223183"><time>2026-04-25T15:21:37Z</time></trkpt><trkpt lat="59.0774130821" lon="29.9901223183"><time>2026-04-25T15:21:39Z</time></trkpt><trkpt lat="59.0774130821" lon="29.9901223183"><time>2026-04-25T15:21:42Z</time></trkpt><trkpt lat="59.0774130821" lon="29.9901223183"><time>2026-04-25T15:21:44Z</time></trkpt><trkpt lat="59.0774130821" lon="29.9901223183"><time>2026-04-25T15:21:47Z</time></trkpt><trkpt lat="59.0774130821" lon="29.9901223183"><time>2026-04-25T15:21:49Z</time></trkpt><trkpt lat="59.0774130821" lon="29.9901223183"><time>2026-04-25T15:21:52Z</time></trkpt><trkpt lat="59.0773916245" lon="29.9901437759"><time>2026-04-25T15:21:54Z</time></trkpt><trkpt lat="59.0773916245" lon="29.9902081490"><time>2026-04-25T15:21:57Z</time></trkpt><trkpt lat="59.0773701668" lon="29.9903154373"><time>2026-04-25T15:21:59Z</time></trkpt><trkpt lat="59.0773701668" lon="29.9903798103"><time>2026-04-25T15:22:02Z</time></trkpt><trkpt lat="59.0773701668" lon="29.9903583527"><time>2026-04-25T15:22:04Z</time></trkpt><trkpt lat="59.0773916245" lon="29.9903368950"><time>2026-04-25T15:22:07Z</time></trkpt><trkpt lat="59.0774130821" lon="29.9903368950"><time>2026-04-25T15:22:09Z</time></trkpt><trkpt lat="59.0774130821" lon="29.9903583527"><time>2026-04-25T15:22:12Z</time></trkpt><trkpt lat="59.0774130821" lon="29.9903583527"><time>2026-04-25T15:22:14Z</time></trkpt><trkpt lat="59.0774130821" lon="29.9903583527"><time>2026-04-25T15:22:17Z</time></trkpt><trkpt lat="59.0774130821" lon="29.9903583527"><time>2026-04-25T15:22:19Z</time></trkpt><trkpt lat="59.0774130821" lon="29.9903583527"><time>2026-04-25T15:22:22Z</time></trkpt><trkpt lat="59.0774130821" lon="29.9903583527"><time>2026-04-25T15:22:24Z</time></trkpt><trkpt lat="59.0774130821" lon="29.9903583527"><time>2026-04-25T15:22:27Z</time></trkpt><trkpt lat="59.0774130821" lon="29.9903583527"><time>2026-04-25T15:22:29Z</time></trkpt><trkpt lat="59.0774130821" lon="29.9903583527"><time>2026-04-25T15:22:32Z</time></trkpt><trkpt lat="59.0774130821" lon="29.9903583527"><time>2026-04-25T15:22:34Z</time></trkpt><trkpt lat="59.0774130821" lon="29.9903583527"><time>2026-04-25T15:22:37Z</time></trkpt><trkpt lat="59.0774130821" lon="29.9903583527"><time>2026-04-25T15:22:39Z</time></trkpt><trkpt lat="59.0774130821" lon="29.9903583527"><time>2026-04-25T15:22:42Z</time></trkpt><trkpt lat="59.0774130821" lon="29.9904227257"><time>2026-04-25T15:22:44Z</time></trkpt><trkpt lat="59.0773916245" lon="29.9904441833"><time>2026-04-25T15:22:47Z</time></trkpt><trkpt lat="59.0773701668" lon="29.9904870987"><time>2026-04-25T15:22:49Z</time></trkpt><trkpt lat="59.0773701668" lon="29.9905300140"><time>2026-04-25T15:22:52Z</time></trkpt><trkpt lat="59.0773701668" lon="29.9906158447"><time>2026-04-25T15:22:54Z</time></trkpt><trkpt lat="59.0773701668" lon="29.9906587601"><time>2026-04-25T15:22:57Z</time></trkpt><trkpt lat="59.0773916245" lon="29.9907016754"><time>2026-04-25T15:22:59Z</time></trkpt><trkpt lat="59.0773916245" lon="29.9907016754"><time>2026-04-25T15:23:02Z</time></trkpt><trkpt lat="59.0773701668" lon="29.9907231331"><time>2026-04-25T15:23:04Z</time></trkpt><trkpt lat="59.0773701668" lon="29.9907445908"><time>2026-04-25T15:23:07Z</time></trkpt><trkpt lat="59.0773701668" lon="29.9907875061"><time>2026-04-25T15:23:09Z</time></trkpt><trkpt lat="59.0773701668" lon="29.9907875061"><time>2026-04-25T15:23:12Z</time></trkpt><trkpt lat="59.0773701668" lon="29.9908518791"><time>2026-04-25T15:23:14Z</time></trkpt><trkpt lat="59.0773701668" lon="29.9908947945"><time>2026-04-25T15:23:17Z</time></trkpt><trkpt lat="59.0773701668" lon="29.9909377098"><time>2026-04-25T15:23:19Z</time></trkpt><trkpt lat="59.0773916245" lon="29.9910235405"><time>2026-04-25T15:23:22Z</time></trkpt><trkpt lat="59.0774130821" lon="29.9910879135"><time>2026-04-25T15:23:24Z</time></trkpt><trkpt lat="59.0774345398" lon="29.9911093712"><time>2026-04-25T15:23:27Z</time></trkpt><trkpt lat="59.0774559975" lon="29.9911522865"><time>2026-04-25T15:23:29Z</time></trkpt><trkpt lat="59.0774559975" lon="29.9911522865"><time>2026-04-25T15:23:32Z</time></trkpt><trkpt lat="59.0774559975" lon="29.9911522865"><time>2026-04-25T15:23:34Z</time></trkpt><trkpt lat="59.0774559975" lon="29.9911522865"><time>2026-04-25T15:23:37Z</time></trkpt><trkpt lat="59.0774345398" lon="29.9911522865"><time>2026-04-25T15:23:39Z</time></trkpt><trkpt lat="59.0774130821" lon="29.9911737442"><time>2026-04-25T15:23:42Z</time></trkpt><trkpt lat="59.0773916245" lon="29.9912381172"><time>2026-04-25T15:23:44Z</time></trkpt><trkpt lat="59.0773701668" lon="29.9912810326"><time>2026-04-25T15:23:47Z</time></trkpt><trkpt lat="59.0773701668" lon="29.9913454056"><time>2026-04-25T15:23:49Z</time></trkpt><trkpt lat="59.0773487091" lon="29.9913883209"><time>2026-04-25T15:23:52Z</time></trkpt><trkpt lat="59.0773487091" lon="29.9914312363"><time>2026-04-25T15:23:54Z</time></trkpt><trkpt lat="59.0773272514" lon="29.9914741516"><time>2026-04-25T15:23:57Z</time></trkpt><trkpt lat="59.0773272514" lon="29.9915385246"><time>2026-04-25T15:23:59Z</time></trkpt><trkpt lat="59.0773272514" lon="29.9915599823"><time>2026-04-25T15:24:02Z</time></trkpt><trkpt lat="59.0773487091" lon="29.9916028976"><time>2026-04-25T15:24:04Z</time></trkpt><trkpt lat="59.0773272514" lon="29.9916458130"><time>2026-04-25T15:24:07Z</time></trkpt><trkpt lat="59.0773272514" lon="29.9916672707"><time>2026-04-25T15:24:09Z</time></trkpt><trkpt lat="59.0773272514" lon="29.9916672707"><time>2026-04-25T15:24:12Z</time></trkpt><trkpt lat="59.0773487091" lon="29.9917101860"><time>2026-04-25T15:24:14Z</time></trkpt><trkpt lat="59.0773487091" lon="29.9917745590"><time>2026-04-25T15:24:17Z</time></trkpt><trkpt lat="59.0773487091" lon="29.9917960167"><time>2026-04-25T15:24:19Z</time></trkpt><trkpt lat="59.0773487091" lon="29.9917960167"><time>2026-04-25T15:24:22Z</time></trkpt><trkpt lat="59.0773272514" lon="29.9918174744"><time>2026-04-25T15:24:24Z</time></trkpt><trkpt lat="59.0773272514" lon="29.9918389320"><time>2026-04-25T15:24:27Z</time></trkpt><trkpt lat="59.0773057938" lon="29.9918818474"><time>2026-04-25T15:24:29Z</time></trkpt><trkpt lat="59.0773057938" lon="29.9919033051"><time>2026-04-25T15:24:32Z</time></trkpt><trkpt lat="59.0772843361" lon="29.9920320511"><time>2026-04-25T15:24:34Z</time></trkpt><trkpt lat="59.0772628784" lon="29.9920964241"><time>2026-04-25T15:24:37Z</time></trkpt><trkpt lat="59.0772843361" lon="29.9922037125"><time>2026-04-25T15:24:39Z</time></trkpt><trkpt lat="59.0773057938" lon="29.9922466278"><time>2026-04-25T15:24:42Z</time></trkpt><trkpt lat="59.0773057938" lon="29.9922895432"><time>2026-04-25T15:24:44Z</time></trkpt><trkpt lat="59.0773057938" lon="29.9923110008"><time>2026-04-25T15:24:47Z</time></trkpt><trkpt lat="59.0772843361" lon="29.9923324585"><time>2026-04-25T15:24:49Z</time></trkpt><trkpt lat="59.0772843361" lon="29.9923324585"><time>2026-04-25T15:24:52Z</time></trkpt><trkpt lat="59.0772843361" lon="29.9923324585"><time>2026-04-25T15:24:54Z</time></trkpt><trkpt lat="59.0773057938" lon="29.9923753738"><time>2026-04-25T15:24:57Z</time></trkpt><trkpt lat="59.0772628784" lon="29.9924182892"><time>2026-04-25T15:24:59Z</time></trkpt><trkpt lat="59.0772628784" lon="29.9924397469"><time>2026-04-25T15:25:02Z</time></trkpt><trkpt lat="59.0772199631" lon="29.9924826622"><time>2026-04-25T15:25:04Z</time></trkpt><trkpt lat="59.0771985054" lon="29.9925041199"><time>2026-04-25T15:25:07Z</time></trkpt><trkpt lat="59.0771555901" lon="29.9925684929"><time>2026-04-25T15:25:09Z</time></trkpt><trkpt lat="59.0771341324" lon="29.9925899506"><time>2026-04-25T15:25:12Z</time></trkpt><trkpt lat="59.0771126747" lon="29.9926543236"><time>2026-04-25T15:25:14Z</time></trkpt><trkpt lat="59.0770912170" lon="29.9927186966"><time>2026-04-25T15:25:17Z</time></trkpt><trkpt lat="59.0770483017" lon="29.9928045273"><time>2026-04-25T15:25:19Z</time></trkpt><trkpt lat="59.0770268440" lon="29.9928474426"><time>2026-04-25T15:25:22Z</time></trkpt><trkpt lat="59.0770053864" lon="29.9928903580"><time>2026-04-25T15:25:24Z</time></trkpt><trkpt lat="59.0769839287" lon="29.9929761887"><time>2026-04-25T15:25:27Z</time></trkpt><trkpt lat="59.0770053864" lon="29.9930405617"><time>2026-04-25T15:25:29Z</time></trkpt><trkpt lat="59.0770053864" lon="29.9930834770"><time>2026-04-25T15:25:32Z</time></trkpt><trkpt lat="59.0770053864" lon="29.9930834770"><time>2026-04-25T15:25:34Z</time></trkpt><trkpt lat="59.0770053864" lon="29.9930620193"><time>2026-04-25T15:25:37Z</time></trkpt><trkpt lat="59.0770483017" lon="29.9930405617"><time>2026-04-25T15:25:39Z</time></trkpt><trkpt lat="59.0770912170" lon="29.9930405617"><time>2026-04-25T15:25:42Z</time></trkpt><trkpt lat="59.0771341324" lon="29.9930620193"><time>2026-04-25T15:25:44Z</time></trkpt><trkpt lat="59.0771555901" lon="29.9930834770"><time>2026-04-25T15:25:47Z</time></trkpt><trkpt lat="59.0771555901" lon="29.9930834770"><time>2026-04-25T15:25:49Z</time></trkpt><trkpt lat="59.0771555901" lon="29.9930834770"><time>2026-04-25T15:25:52Z</time></trkpt><trkpt lat="59.0771555901" lon="29.9930834770"><time>2026-04-25T15:25:54Z</time></trkpt><trkpt lat="59.0771555901" lon="29.9930834770"><time>2026-04-25T15:25:57Z</time></trkpt><trkpt lat="59.0771555901" lon="29.9930834770"><time>2026-04-25T15:25:59Z</time></trkpt><trkpt lat="59.0771555901" lon="29.9930834770"><time>2026-04-25T15:26:02Z</time></trkpt><trkpt lat="59.0771555901" lon="29.9930834770"><time>2026-04-25T15:26:04Z</time></trkpt><trkpt lat="59.0771555901" lon="29.9930834770"><time>2026-04-25T15:26:07Z</time></trkpt><trkpt lat="59.0771555901" lon="29.9930620193"><time>2026-04-25T15:26:09Z</time></trkpt><trkpt lat="59.0771555901" lon="29.9930620193"><time>2026-04-25T15:26:12Z</time></trkpt><trkpt lat="59.0771555901" lon="29.9930620193"><time>2026-04-25T15:26:14Z</time></trkpt><trkpt lat="59.0771555901" lon="29.9930620193"><time>2026-04-25T15:26:17Z</time></trkpt><trkpt lat="59.0771555901" lon="29.9930620193"><time>2026-04-25T15:26:19Z</time></trkpt><trkpt lat="59.0771555901" lon="29.9930620193"><time>2026-04-25T15:26:22Z</time></trkpt><trkpt lat="59.0771555901" lon="29.9930620193"><time>2026-04-25T15:26:24Z</time></trkpt><trkpt lat="59.0771555901" lon="29.9930620193"><time>2026-04-25T15:26:27Z</time></trkpt><trkpt lat="59.0771555901" lon="29.9930620193"><time>2026-04-25T15:26:29Z</time></trkpt><trkpt lat="59.0771555901" lon="29.9930620193"><time>2026-04-25T15:26:32Z</time></trkpt><trkpt lat="59.0771341324" lon="29.9931478500"><time>2026-04-25T15:26:34Z</time></trkpt><trkpt lat="59.0771126747" lon="29.9931907654"><time>2026-04-25T15:26:37Z</time></trkpt><trkpt lat="59.0771126747" lon="29.9931907654"><time>2026-04-25T15:26:39Z</time></trkpt><trkpt lat="59.0771341324" lon="29.9931478500"><time>2026-04-25T15:26:42Z</time></trkpt><trkpt lat="59.0771770477" lon="29.9931263924"><time>2026-04-25T15:26:44Z</time></trkpt><trkpt lat="59.0771985054" lon="29.9930834770"><time>2026-04-25T15:26:47Z</time></trkpt><trkpt lat="59.0772199631" lon="29.9930620193"><time>2026-04-25T15:26:49Z</time></trkpt><trkpt lat="59.0772199631" lon="29.9930620193"><time>2026-04-25T15:26:52Z</time></trkpt><trkpt lat="59.0772199631" lon="29.9930620193"><time>2026-04-25T15:26:54Z</time></trkpt><trkpt lat="59.0772199631" lon="29.9930834770"><time>2026-04-25T15:26:57Z</time></trkpt><trkpt lat="59.0772414207" lon="29.9930834770"><time>2026-04-25T15:26:59Z</time></trkpt><trkpt lat="59.0772414207" lon="29.9930834770"><time>2026-04-25T15:27:02Z</time></trkpt><trkpt lat="59.0772414207" lon="29.9930834770"><time>2026-04-25T15:27:04Z</time></trkpt><trkpt lat="59.0772414207" lon="29.9930834770"><time>2026-04-25T15:27:07Z</time></trkpt><trkpt lat="59.0772414207" lon="29.9930834770"><time>2026-04-25T15:27:09Z</time></trkpt><trkpt lat="59.0772414207" lon="29.9930834770"><time>2026-04-25T15:27:12Z</time></trkpt><trkpt lat="59.0772414207" lon="29.9930834770"><time>2026-04-25T15:27:14Z</time></trkpt><trkpt lat="59.0772414207" lon="29.9930834770"><time>2026-04-25T15:27:17Z</time></trkpt><trkpt lat="59.0772628784" lon="29.9931049347"><time>2026-04-25T15:27:19Z</time></trkpt><trkpt lat="59.0772628784" lon="29.9931049347"><time>2026-04-25T15:27:22Z</time></trkpt><trkpt lat="59.0772628784" lon="29.9931049347"><time>2026-04-25T15:27:24Z</time></trkpt><trkpt lat="59.0772628784" lon="29.9931049347"><time>2026-04-25T15:27:27Z</time></trkpt><trkpt lat="59.0772628784" lon="29.9931049347"><time>2026-04-25T15:27:29Z</time></trkpt><trkpt lat="59.0772628784" lon="29.9931049347"><time>2026-04-25T15:27:32Z</time></trkpt><trkpt lat="59.0772628784" lon="29.9931049347"><time>2026-04-25T15:27:34Z</time></trkpt><trkpt lat="59.0772628784" lon="29.9931049347"><time>2026-04-25T15:27:37Z</time></trkpt><trkpt lat="59.0772628784" lon="29.9931049347"><time>2026-04-25T15:27:39Z</time></trkpt><trkpt lat="59.0772628784" lon="29.9931049347"><time>2026-04-25T15:27:42Z</time></trkpt><trkpt lat="59.0772628784" lon="29.9931049347"><time>2026-04-25T15:27:44Z</time></trkpt><trkpt lat="59.0772628784" lon="29.9931049347"><time>2026-04-25T15:27:47Z</time></trkpt><trkpt lat="59.0772628784" lon="29.9931049347"><time>2026-04-25T15:27:49Z</time></trkpt><trkpt lat="59.0772628784" lon="29.9931049347"><time>2026-04-25T15:27:52Z</time></trkpt><trkpt lat="59.0772628784" lon="29.9931049347"><time>2026-04-25T15:27:54Z</time></trkpt><trkpt lat="59.0772628784" lon="29.9931049347"><time>2026-04-25T15:27:57Z</time></trkpt><trkpt lat="59.0772414207" lon="29.9931049347"><time>2026-04-25T15:27:59Z</time></trkpt><trkpt lat="59.0772414207" lon="29.9931049347"><time>2026-04-25T15:28:02Z</time></trkpt><trkpt lat="59.0772414207" lon="29.9931049347"><time>2026-04-25T15:28:04Z</time></trkpt><trkpt lat="59.0772414207" lon="29.9931049347"><time>2026-04-25T15:28:07Z</time></trkpt><trkpt lat="59.0772414207" lon="29.9931049347"><time>2026-04-25T15:28:09Z</time></trkpt><trkpt lat="59.0772414207" lon="29.9931049347"><time>2026-04-25T15:28:12Z</time></trkpt><trkpt lat="59.0772414207" lon="29.9931049347"><time>2026-04-25T15:28:14Z</time></trkpt><trkpt lat="59.0772414207" lon="29.9931049347"><time>2026-04-25T15:28:17Z</time></trkpt><trkpt lat="59.0772414207" lon="29.9931049347"><time>2026-04-25T15:28:19Z</time></trkpt><trkpt lat="59.0772414207" lon="29.9931049347"><time>2026-04-25T15:28:22Z</time></trkpt><trkpt lat="59.0772414207" lon="29.9931049347"><time>2026-04-25T15:28:24Z</time></trkpt><trkpt lat="59.0772414207" lon="29.9931049347"><time>2026-04-25T15:28:27Z</time></trkpt><trkpt lat="59.0772414207" lon="29.9931049347"><time>2026-04-25T15:28:29Z</time></trkpt><trkpt lat="59.0772414207" lon="29.9931049347"><time>2026-04-25T15:28:32Z</time></trkpt><trkpt lat="59.0772414207" lon="29.9931049347"><time>2026-04-25T15:28:34Z</time></trkpt><trkpt lat="59.0772414207" lon="29.9931049347"><time>2026-04-25T15:28:37Z</time></trkpt><trkpt lat="59.0772628784" lon="29.9930834770"><time>2026-04-25T15:28:39Z</time></trkpt><trkpt lat="59.0772628784" lon="29.9930834770"><time>2026-04-25T15:28:42Z</time></trkpt><trkpt lat="59.0772628784" lon="29.9930834770"><time>2026-04-25T15:28:44Z</time></trkpt><trkpt lat="59.0772628784" lon="29.9930834770"><time>2026-04-25T15:28:47Z</time></trkpt><trkpt lat="59.0772628784" lon="29.9930834770"><time>2026-04-25T15:28:49Z</time></trkpt><trkpt lat="59.0772628784" lon="29.9930834770"><time>2026-04-25T15:28:52Z</time></trkpt><trkpt lat="59.0772628784" lon="29.9930834770"><time>2026-04-25T15:28:54Z</time></trkpt><trkpt lat="59.0772628784" lon="29.9930834770"><time>2026-04-25T15:28:57Z</time></trkpt><trkpt lat="59.0772628784" lon="29.9930834770"><time>2026-04-25T15:28:59Z</time></trkpt><trkpt lat="59.0772628784" lon="29.9930834770"><time>2026-04-25T15:29:02Z</time></trkpt><trkpt lat="59.0772628784" lon="29.9930834770"><time>2026-04-25T15:29:04Z</time></trkpt><trkpt lat="59.0772628784" lon="29.9930834770"><time>2026-04-25T15:29:07Z</time></trkpt><trkpt lat="59.0772628784" lon="29.9930834770"><time>2026-04-25T15:29:09Z</time></trkpt><trkpt lat="59.0772628784" lon="29.9930834770"><time>2026-04-25T15:29:12Z</time></trkpt><trkpt lat="59.0772628784" lon="29.9930834770"><time>2026-04-25T15:29:14Z</time></trkpt><trkpt lat="59.0772628784" lon="29.9930834770"><time>2026-04-25T15:29:17Z</time></trkpt><trkpt lat="59.0772628784" lon="29.9930834770"><time>2026-04-25T15:29:19Z</time></trkpt><trkpt lat="59.0772628784" lon="29.9930834770"><time>2026-04-25T15:29:22Z</time></trkpt><trkpt lat="59.0772628784" lon="29.9930834770"><time>2026-04-25T15:29:24Z</time></trkpt><trkpt lat="59.0772628784" lon="29.9930834770"><time>2026-04-25T15:29:27Z</time></trkpt><trkpt lat="59.0772199631" lon="29.9930620193"><time>2026-04-25T15:29:29Z</time></trkpt><trkpt lat="59.0772199631" lon="29.9930620193"><time>2026-04-25T15:29:32Z</time></trkpt><trkpt lat="59.0772199631" lon="29.9930620193"><time>2026-04-25T15:29:34Z</time></trkpt><trkpt lat="59.0772199631" lon="29.9930620193"><time>2026-04-25T15:29:37Z</time></trkpt><trkpt lat="59.0772199631" lon="29.9930620193"><time>2026-04-25T15:29:39Z</time></trkpt><trkpt lat="59.0772199631" lon="29.9930620193"><time>2026-04-25T15:29:42Z</time></trkpt><trkpt lat="59.0772199631" lon="29.9930620193"><time>2026-04-25T15:29:44Z</time></trkpt><trkpt lat="59.0772199631" lon="29.9930620193"><time>2026-04-25T15:29:47Z</time></trkpt><trkpt lat="59.0772199631" lon="29.9930620193"><time>2026-04-25T15:29:49Z</time></trkpt><trkpt lat="59.0772199631" lon="29.9930620193"><time>2026-04-25T15:29:52Z</time></trkpt><trkpt lat="59.0772199631" lon="29.9930620193"><time>2026-04-25T15:29:54Z</time></trkpt><trkpt lat="59.0772199631" lon="29.9930620193"><time>2026-04-25T15:29:57Z</time></trkpt><trkpt lat="59.0772199631" lon="29.9930620193"><time>2026-04-25T15:29:59Z</time></trkpt><trkpt lat="59.0772199631" lon="29.9930620193"><time>2026-04-25T15:30:02Z</time></trkpt><trkpt lat="59.0772199631" lon="29.9930620193"><time>2026-04-25T15:30:04Z</time></trkpt><trkpt lat="59.0772199631" lon="29.9930620193"><time>2026-04-25T15:30:07Z</time></trkpt><trkpt lat="59.0772199631" lon="29.9930620193"><time>2026-04-25T15:30:09Z</time></trkpt><trkpt lat="59.0772199631" lon="29.9930834770"><time>2026-04-25T15:30:12Z</time></trkpt><trkpt lat="59.0772199631" lon="29.9930834770"><time>2026-04-25T15:30:14Z</time></trkpt><trkpt lat="59.0772199631" lon="29.9930834770"><time>2026-04-25T15:30:17Z</time></trkpt><trkpt lat="59.0772199631" lon="29.9930834770"><time>2026-04-25T15:30:19Z</time></trkpt><trkpt lat="59.0772199631" lon="29.9930834770"><time>2026-04-25T15:30:22Z</time></trkpt><trkpt lat="59.0772199631" lon="29.9930834770"><time>2026-04-25T15:30:24Z</time></trkpt><trkpt lat="59.0772199631" lon="29.9930834770"><time>2026-04-25T15:30:27Z</time></trkpt><trkpt lat="59.0772199631" lon="29.9930834770"><time>2026-04-25T15:30:29Z</time></trkpt><trkpt lat="59.0772199631" lon="29.9930834770"><time>2026-04-25T15:30:32Z</time></trkpt><trkpt lat="59.0772414207" lon="29.9931049347"><time>2026-04-25T15:30:34Z</time></trkpt><trkpt lat="59.0772414207" lon="29.9931263924"><time>2026-04-25T15:30:37Z</time></trkpt><trkpt lat="59.0772843361" lon="29.9932122231"><time>2026-04-25T15:30:39Z</time></trkpt><trkpt lat="59.0772843361" lon="29.9932765961"><time>2026-04-25T15:30:42Z</time></trkpt><trkpt lat="59.0772628784" lon="29.9933409691"><time>2026-04-25T15:30:44Z</time></trkpt><trkpt lat="59.0772199631" lon="29.9934053421"><time>2026-04-25T15:30:47Z</time></trkpt><trkpt lat="59.0772199631" lon="29.9934697151"><time>2026-04-25T15:30:49Z</time></trkpt><trkpt lat="59.0772199631" lon="29.9935126305"><time>2026-04-25T15:30:52Z</time></trkpt><trkpt lat="59.0772199631" lon="29.9935984612"><time>2026-04-25T15:30:54Z</time></trkpt><trkpt lat="59.0772199631" lon="29.9935770035"><time>2026-04-25T15:30:57Z</time></trkpt><trkpt lat="59.0772199631" lon="29.9935770035"><time>2026-04-25T15:30:59Z</time></trkpt><trkpt lat="59.0771985054" lon="29.9936413765"><time>2026-04-25T15:31:02Z</time></trkpt><trkpt lat="59.0771985054" lon="29.9936842918"><time>2026-04-25T15:31:04Z</time></trkpt><trkpt lat="59.0772199631" lon="29.9937057495"><time>2026-04-25T15:31:07Z</time></trkpt><trkpt lat="59.0772199631" lon="29.9937701225"><time>2026-04-25T15:31:09Z</time></trkpt><trkpt lat="59.0772414207" lon="29.9938344955"><time>2026-04-25T15:31:12Z</time></trkpt><trkpt lat="59.0772199631" lon="29.9938774109"><time>2026-04-25T15:31:14Z</time></trkpt><trkpt lat="59.0771985054" lon="29.9938988686"><time>2026-04-25T15:31:17Z</time></trkpt><trkpt lat="59.0771770477" lon="29.9938988686"><time>2026-04-25T15:31:19Z</time></trkpt><trkpt lat="59.0771770477" lon="29.9938988686"><time>2026-04-25T15:31:22Z</time></trkpt><trkpt lat="59.0771985054" lon="29.9939417839"><time>2026-04-25T15:31:24Z</time></trkpt><trkpt lat="59.0771985054" lon="29.9940061569"><time>2026-04-25T15:31:27Z</time></trkpt><trkpt lat="59.0771341324" lon="29.9940705299"><time>2026-04-25T15:31:29Z</time></trkpt><trkpt lat="59.0771126747" lon="29.9941349030"><time>2026-04-25T15:31:32Z</time></trkpt><trkpt lat="59.0770912170" lon="29.9941992760"><time>2026-04-25T15:31:34Z</time></trkpt><trkpt lat="59.0770912170" lon="29.9942636490"><time>2026-04-25T15:31:37Z</time></trkpt><trkpt lat="59.0770697594" lon="29.9942851067"><time>2026-04-25T15:31:39Z</time></trkpt><trkpt lat="59.0770483017" lon="29.9942851067"><time>2026-04-25T15:31:42Z</time></trkpt><trkpt lat="59.0770053864" lon="29.9942636490"><time>2026-04-25T15:31:44Z</time></trkpt><trkpt lat="59.0769839287" lon="29.9942851067"><time>2026-04-25T15:31:47Z</time></trkpt><trkpt lat="59.0769410133" lon="29.9943065643"><time>2026-04-25T15:31:49Z</time></trkpt><trkpt lat="59.0768766403" lon="29.9943280220"><time>2026-04-25T15:31:52Z</time></trkpt><trkpt lat="59.0768551826" lon="29.9943923950"><time>2026-04-25T15:31:54Z</time></trkpt><trkpt lat="59.0768766403" lon="29.9943923950"><time>2026-04-25T15:31:57Z</time></trkpt><trkpt lat="59.0768980980" lon="29.9943923950"><time>2026-04-25T15:31:59Z</time></trkpt><trkpt lat="59.0768766403" lon="29.9943923950"><time>2026-04-25T15:32:02Z</time></trkpt><trkpt lat="59.0768122673" lon="29.9944567680"><time>2026-04-25T15:32:04Z</time></trkpt><trkpt lat="59.0767693520" lon="29.9944138527"><time>2026-04-25T15:32:07Z</time></trkpt><trkpt lat="59.0767478943" lon="29.9943709373"><time>2026-04-25T15:32:09Z</time></trkpt><trkpt lat="59.0767264366" lon="29.9942851067"><time>2026-04-25T15:32:12Z</time></trkpt><trkpt lat="59.0767049789" lon="29.9942636490"><time>2026-04-25T15:32:14Z</time></trkpt><trkpt lat="59.0767049789" lon="29.9942421913"><time>2026-04-25T15:32:17Z</time></trkpt><trkpt lat="59.0766835213" lon="29.9941563606"><time>2026-04-25T15:32:19Z</time></trkpt><trkpt lat="59.0766191483" lon="29.9940919876"><time>2026-04-25T15:32:22Z</time></trkpt><trkpt lat="59.0765762329" lon="29.9940919876"><time>2026-04-25T15:32:24Z</time></trkpt><trkpt lat="59.0765333176" lon="29.9941349030"><time>2026-04-25T15:32:27Z</time></trkpt><trkpt lat="59.0765333176" lon="29.9942207336"><time>2026-04-25T15:32:29Z</time></trkpt><trkpt lat="59.0765333176" lon="29.9943065643"><time>2026-04-25T15:32:32Z</time></trkpt><trkpt lat="59.0765118599" lon="29.9944567680"><time>2026-04-25T15:32:34Z</time></trkpt><trkpt lat="59.0764689445" lon="29.9945425987"><time>2026-04-25T15:32:37Z</time></trkpt><trkpt lat="59.0764689445" lon="29.9946713448"><time>2026-04-25T15:32:39Z</time></trkpt><trkpt lat="59.0764904022" lon="29.9947357178"><time>2026-04-25T15:32:42Z</time></trkpt><trkpt lat="59.0764904022" lon="29.9948644638"><time>2026-04-25T15:32:44Z</time></trkpt><trkpt lat="59.0765118599" lon="29.9949288368"><time>2026-04-25T15:32:47Z</time></trkpt><trkpt lat="59.0765547752" lon="29.9949717522"><time>2026-04-25T15:32:49Z</time></trkpt><trkpt lat="59.0765762329" lon="29.9950146675"><time>2026-04-25T15:32:52Z</time></trkpt><trkpt lat="59.0765976906" lon="29.9951219559"><time>2026-04-25T15:32:54Z</time></trkpt><trkpt lat="59.0766406059" lon="29.9951863289"><time>2026-04-25T15:32:57Z</time></trkpt><trkpt lat="59.0766406059" lon="29.9952507019"><time>2026-04-25T15:32:59Z</time></trkpt><trkpt lat="59.0766620636" lon="29.9953579903"><time>2026-04-25T15:33:02Z</time></trkpt><trkpt lat="59.0766620636" lon="29.9953579903"><time>2026-04-25T15:33:04Z</time></trkpt><trkpt lat="59.0766406059" lon="29.9953794479"><time>2026-04-25T15:33:07Z</time></trkpt><trkpt lat="59.0766620636" lon="29.9954867363"><time>2026-04-25T15:33:09Z</time></trkpt><trkpt lat="59.0767049789" lon="29.9955081940"><time>2026-04-25T15:33:12Z</time></trkpt><trkpt lat="59.0767264366" lon="29.9954652786"><time>2026-04-25T15:33:14Z</time></trkpt><trkpt lat="59.0767264366" lon="29.9954652786"><time>2026-04-25T15:33:17Z</time></trkpt><trkpt lat="59.0767478943" lon="29.9955511093"><time>2026-04-25T15:33:19Z</time></trkpt><trkpt lat="59.0767478943" lon="29.9955725670"><time>2026-04-25T15:33:22Z</time></trkpt><trkpt lat="59.0767908096" lon="29.9955940247"><time>2026-04-25T15:33:24Z</time></trkpt><trkpt lat="59.0767908096" lon="29.9956154823"><time>2026-04-25T15:33:27Z</time></trkpt><trkpt lat="59.0767478943" lon="29.9956798553"><time>2026-04-25T15:33:29Z</time></trkpt><trkpt lat="59.0767478943" lon="29.9957442284"><time>2026-04-25T15:33:32Z</time></trkpt><trkpt lat="59.0767264366" lon="29.9957656860"><time>2026-04-25T15:33:34Z</time></trkpt><trkpt lat="59.0767049789" lon="29.9957656860"><time>2026-04-25T15:33:37Z</time></trkpt><trkpt lat="59.0767049789" lon="29.9957442284"><time>2026-04-25T15:33:39Z</time></trkpt><trkpt lat="59.0767049789" lon="29.9956583977"><time>2026-04-25T15:33:42Z</time></trkpt><trkpt lat="59.0767049789" lon="29.9956154823"><time>2026-04-25T15:33:44Z</time></trkpt><trkpt lat="59.0767264366" lon="29.9955940247"><time>2026-04-25T15:33:47Z</time></trkpt><trkpt lat="59.0766835213" lon="29.9956154823"><time>2026-04-25T15:33:49Z</time></trkpt><trkpt lat="59.0766406059" lon="29.9956154823"><time>2026-04-25T15:33:52Z</time></trkpt><trkpt lat="59.0765762329" lon="29.9956154823"><time>2026-04-25T15:33:54Z</time></trkpt><trkpt lat="59.0765333176" lon="29.9956798553"><time>2026-04-25T15:33:57Z</time></trkpt><trkpt lat="59.0764689445" lon="29.9957227707"><time>2026-04-25T15:33:59Z</time></trkpt><trkpt lat="59.0764474869" lon="29.9958300591"><time>2026-04-25T15:34:02Z</time></trkpt><trkpt lat="59.0764260292" lon="29.9959588051"><time>2026-04-25T15:34:04Z</time></trkpt><trkpt lat="59.0763831139" lon="29.9959802628"><time>2026-04-25T15:34:07Z</time></trkpt><trkpt lat="59.0763616562" lon="29.9959802628"><time>2026-04-25T15:34:09Z</time></trkpt><trkpt lat="59.0763616562" lon="29.9959802628"><time>2026-04-25T15:34:12Z</time></trkpt><trkpt lat="59.0763616562" lon="29.9959802628"><time>2026-04-25T15:34:14Z</time></trkpt><trkpt lat="59.0763831139" lon="29.9960446358"><time>2026-04-25T15:34:17Z</time></trkpt><trkpt lat="59.0764474869" lon="29.9961519241"><time>2026-04-25T15:34:19Z</time></trkpt><trkpt lat="59.0764689445" lon="29.9961948395"><time>2026-04-25T15:34:22Z</time></trkpt><trkpt lat="59.0764904022" lon="29.9961948395"><time>2026-04-25T15:34:24Z</time></trkpt><trkpt lat="59.0764904022" lon="29.9962162971"><time>2026-04-25T15:34:27Z</time></trkpt><trkpt lat="59.0764045715" lon="29.9963235855"><time>2026-04-25T15:34:29Z</time></trkpt><trkpt lat="59.0763831139" lon="29.9964308739"><time>2026-04-25T15:34:32Z</time></trkpt><trkpt lat="59.0763616562" lon="29.9964952469"><time>2026-04-25T15:34:34Z</time></trkpt><trkpt lat="59.0763616562" lon="29.9965167046"><time>2026-04-25T15:34:37Z</time></trkpt><trkpt lat="59.0763616562" lon="29.9965167046"><time>2026-04-25T15:34:39Z</time></trkpt><trkpt lat="59.0763616562" lon="29.9965167046"><time>2026-04-25T15:34:42Z</time></trkpt><trkpt lat="59.0762972832" lon="29.9965596199"><time>2026-04-25T15:34:44Z</time></trkpt><trkpt lat="59.0762758255" lon="29.9966025352"><time>2026-04-25T15:34:47Z</time></trkpt><trkpt lat="59.0762543678" lon="29.9967527390"><time>2026-04-25T15:34:49Z</time></trkpt><trkpt lat="59.0762543678" lon="29.9967741966"><time>2026-04-25T15:34:52Z</time></trkpt><trkpt lat="59.0762329102" lon="29.9967956543"><time>2026-04-25T15:34:54Z</time></trkpt><trkpt lat="59.0761899948" lon="29.9968600273"><time>2026-04-25T15:34:57Z</time></trkpt><trkpt lat="59.0761256218" lon="29.9969244003"><time>2026-04-25T15:34:59Z</time></trkpt><trkpt lat="59.0761256218" lon="29.9969673157"><time>2026-04-25T15:35:02Z</time></trkpt><trkpt lat="59.0761470795" lon="29.9970531464"><time>2026-04-25T15:35:04Z</time></trkpt><trkpt lat="59.0761470795" lon="29.9970531464"><time>2026-04-25T15:35:07Z</time></trkpt><trkpt lat="59.0761470795" lon="29.9970531464"><time>2026-04-25T15:35:09Z</time></trkpt><trkpt lat="59.0761470795" lon="29.9970531464"><time>2026-04-25T15:35:12Z</time></trkpt><trkpt lat="59.0761470795" lon="29.9970531464"><time>2026-04-25T15:35:14Z</time></trkpt><trkpt lat="59.0761470795" lon="29.9970531464"><time>2026-04-25T15:35:17Z</time></trkpt><trkpt lat="59.0761470795" lon="29.9970316887"><time>2026-04-25T15:35:19Z</time></trkpt><trkpt lat="59.0761685371" lon="29.9970531464"><time>2026-04-25T15:35:22Z</time></trkpt><trkpt lat="59.0761685371" lon="29.9971604347"><time>2026-04-25T15:35:24Z</time></trkpt><trkpt lat="59.0761685371" lon="29.9972033501"><time>2026-04-25T15:35:27Z</time></trkpt><trkpt lat="59.0761685371" lon="29.9972248077"><time>2026-04-25T15:35:29Z</time></trkpt><trkpt lat="59.0761685371" lon="29.9972248077"><time>2026-04-25T15:35:32Z</time></trkpt><trkpt lat="59.0761685371" lon="29.9972248077"><time>2026-04-25T15:35:34Z</time></trkpt><trkpt lat="59.0761899948" lon="29.9971604347"><time>2026-04-25T15:35:37Z</time></trkpt><trkpt lat="59.0761685371" lon="29.9970746040"><time>2026-04-25T15:35:39Z</time></trkpt><trkpt lat="59.0761899948" lon="29.9969887733"><time>2026-04-25T15:35:42Z</time></trkpt><trkpt lat="59.0761899948" lon="29.9969458580"><time>2026-04-25T15:35:44Z</time></trkpt><trkpt lat="59.0761899948" lon="29.9969458580"><time>2026-04-25T15:35:47Z</time></trkpt><trkpt lat="59.0762329102" lon="29.9969887733"><time>2026-04-25T15:35:49Z</time></trkpt><trkpt lat="59.0762972832" lon="29.9970316887"><time>2026-04-25T15:35:52Z</time></trkpt><trkpt lat="59.0763401985" lon="29.9970102310"><time>2026-04-25T15:35:54Z</time></trkpt><trkpt lat="59.0763616562" lon="29.9970316887"><time>2026-04-25T15:35:57Z</time></trkpt><trkpt lat="59.0763831139" lon="29.9970316887"><time>2026-04-25T15:35:59Z</time></trkpt><trkpt lat="59.0764260292" lon="29.9970316887"><time>2026-04-25T15:36:02Z</time></trkpt><trkpt lat="59.0764260292" lon="29.9970316887"><time>2026-04-25T15:36:04Z</time></trkpt><trkpt lat="59.0764260292" lon="29.9970316887"><time>2026-04-25T15:36:07Z</time></trkpt><trkpt lat="59.0764474869" lon="29.9970531464"><time>2026-04-25T15:36:09Z</time></trkpt><trkpt lat="59.0764689445" lon="29.9970960617"><time>2026-04-25T15:36:12Z</time></trkpt><trkpt lat="59.0764904022" lon="29.9971604347"><time>2026-04-25T15:36:14Z</time></trkpt><trkpt lat="59.0765118599" lon="29.9971818924"><time>2026-04-25T15:36:17Z</time></trkpt><trkpt lat="59.0765118599" lon="29.9971818924"><time>2026-04-25T15:36:19Z</time></trkpt><trkpt lat="59.0765118599" lon="29.9971818924"><time>2026-04-25T15:36:22Z</time></trkpt><trkpt lat="59.0765118599" lon="29.9971818924"><time>2026-04-25T15:36:24Z</time></trkpt><trkpt lat="59.0765118599" lon="29.9972033501"><time>2026-04-25T15:36:27Z</time></trkpt><trkpt lat="59.0765118599" lon="29.9972677231"><time>2026-04-25T15:36:29Z</time></trkpt><trkpt lat="59.0765118599" lon="29.9972891808"><time>2026-04-25T15:36:32Z</time></trkpt><trkpt lat="59.0765333176" lon="29.9973320961"><time>2026-04-25T15:36:34Z</time></trkpt><trkpt lat="59.0765333176" lon="29.9973535538"><time>2026-04-25T15:36:37Z</time></trkpt><trkpt lat="59.0765333176" lon="29.9974179268"><time>2026-04-25T15:36:39Z</time></trkpt><trkpt lat="59.0765333176" lon="29.9974179268"><time>2026-04-25T15:36:42Z</time></trkpt><trkpt lat="59.0765118599" lon="29.9974608421"><time>2026-04-25T15:36:44Z</time></trkpt><trkpt lat="59.0765118599" lon="29.9975252151"><time>2026-04-25T15:36:47Z</time></trkpt><trkpt lat="59.0765118599" lon="29.9975681305"><time>2026-04-25T15:36:49Z</time></trkpt><trkpt lat="59.0765118599" lon="29.9976110458"><time>2026-04-25T15:36:52Z</time></trkpt><trkpt lat="59.0765118599" lon="29.9976754189"><time>2026-04-25T15:36:54Z</time></trkpt><trkpt lat="59.0764904022" lon="29.9976968765"><time>2026-04-25T15:36:57Z</time></trkpt><trkpt lat="59.0764904022" lon="29.9976968765"><time>2026-04-25T15:36:59Z</time></trkpt><trkpt lat="59.0764904022" lon="29.9976968765"><time>2026-04-25T15:37:02Z</time></trkpt><trkpt lat="59.0764904022" lon="29.9976968765"><time>2026-04-25T15:37:04Z</time></trkpt><trkpt lat="59.0764904022" lon="29.9976968765"><time>2026-04-25T15:37:07Z</time></trkpt><trkpt lat="59.0764904022" lon="29.9976968765"><time>2026-04-25T15:37:09Z</time></trkpt><trkpt lat="59.0764904022" lon="29.9976968765"><time>2026-04-25T15:37:12Z</time></trkpt><trkpt lat="59.0764904022" lon="29.9976968765"><time>2026-04-25T15:37:14Z</time></trkpt><trkpt lat="59.0764904022" lon="29.9976968765"><time>2026-04-25T15:37:17Z</time></trkpt><trkpt lat="59.0764904022" lon="29.9976968765"><time>2026-04-25T15:37:19Z</time></trkpt><trkpt lat="59.0764904022" lon="29.9976968765"><time>2026-04-25T15:37:22Z</time></trkpt><trkpt lat="59.0764904022" lon="29.9976968765"><time>2026-04-25T15:37:24Z</time></trkpt><trkpt lat="59.0764904022" lon="29.9976968765"><time>2026-04-25T15:37:27Z</time></trkpt><trkpt lat="59.0764904022" lon="29.9976968765"><time>2026-04-25T15:37:29Z</time></trkpt><trkpt lat="59.0764904022" lon="29.9976968765"><time>2026-04-25T15:37:32Z</time></trkpt><trkpt lat="59.0764904022" lon="29.9976968765"><time>2026-04-25T15:37:34Z</time></trkpt><trkpt lat="59.0764904022" lon="29.9976968765"><time>2026-04-25T15:37:37Z</time></trkpt><trkpt lat="59.0764904022" lon="29.9976968765"><time>2026-04-25T15:37:39Z</time></trkpt><trkpt lat="59.0764689445" lon="29.9976968765"><time>2026-04-25T15:37:42Z</time></trkpt><trkpt lat="59.0764689445" lon="29.9976968765"><time>2026-04-25T15:37:44Z</time></trkpt><trkpt lat="59.0764689445" lon="29.9976968765"><time>2026-04-25T15:37:47Z</time></trkpt><trkpt lat="59.0764689445" lon="29.9976968765"><time>2026-04-25T15:37:49Z</time></trkpt><trkpt lat="59.0764689445" lon="29.9976968765"><time>2026-04-25T15:37:52Z</time></trkpt><trkpt lat="59.0764689445" lon="29.9976968765"><time>2026-04-25T15:37:54Z</time></trkpt><trkpt lat="59.0764689445" lon="29.9976968765"><time>2026-04-25T15:37:57Z</time></trkpt><trkpt lat="59.0764689445" lon="29.9976968765"><time>2026-04-25T15:37:59Z</time></trkpt><trkpt lat="59.0764689445" lon="29.9976968765"><time>2026-04-25T15:38:02Z</time></trkpt><trkpt lat="59.0764689445" lon="29.9976968765"><time>2026-04-25T15:38:04Z</time></trkpt><trkpt lat="59.0764689445" lon="29.9976968765"><time>2026-04-25T15:38:07Z</time></trkpt><trkpt lat="59.0764689445" lon="29.9977183342"><time>2026-04-25T15:38:09Z</time></trkpt><trkpt lat="59.0764474869" lon="29.9977183342"><time>2026-04-25T15:38:12Z</time></trkpt><trkpt lat="59.0764260292" lon="29.9977183342"><time>2026-04-25T15:38:14Z</time></trkpt><trkpt lat="59.0764260292" lon="29.9977183342"><time>2026-04-25T15:38:17Z</time></trkpt><trkpt lat="59.0764260292" lon="29.9977397919"><time>2026-04-25T15:38:19Z</time></trkpt><trkpt lat="59.0764260292" lon="29.9977397919"><time>2026-04-25T15:38:22Z</time></trkpt><trkpt lat="59.0764260292" lon="29.9977397919"><time>2026-04-25T15:38:24Z</time></trkpt><trkpt lat="59.0764260292" lon="29.9977397919"><time>2026-04-25T15:38:27Z</time></trkpt><trkpt lat="59.0764260292" lon="29.9977612495"><time>2026-04-25T15:38:29Z</time></trkpt><trkpt lat="59.0764260292" lon="29.9977612495"><time>2026-04-25T15:38:32Z</time></trkpt><trkpt lat="59.0764260292" lon="29.9977612495"><time>2026-04-25T15:38:34Z</time></trkpt><trkpt lat="59.0764260292" lon="29.9977612495"><time>2026-04-25T15:38:37Z</time></trkpt><trkpt lat="59.0764260292" lon="29.9977612495"><time>2026-04-25T15:38:39Z</time></trkpt><trkpt lat="59.0764260292" lon="29.9977827072"><time>2026-04-25T15:38:42Z</time></trkpt><trkpt lat="59.0764260292" lon="29.9977827072"><time>2026-04-25T15:38:44Z</time></trkpt><trkpt lat="59.0764260292" lon="29.9977827072"><time>2026-04-25T15:38:47Z</time></trkpt><trkpt lat="59.0764260292" lon="29.9977827072"><time>2026-04-25T15:38:49Z</time></trkpt><trkpt lat="59.0763831139" lon="29.9977397919"><time>2026-04-25T15:38:52Z</time></trkpt><trkpt lat="59.0763831139" lon="29.9976539612"><time>2026-04-25T15:38:54Z</time></trkpt><trkpt lat="59.0763831139" lon="29.9976325035"><time>2026-04-25T15:38:57Z</time></trkpt><trkpt lat="59.0763831139" lon="29.9975681305"><time>2026-04-25T15:38:59Z</time></trkpt><trkpt lat="59.0764045715" lon="29.9975252151"><time>2026-04-25T15:39:02Z</time></trkpt><trkpt lat="59.0764045715" lon="29.9974608421"><time>2026-04-25T15:39:04Z</time></trkpt><trkpt lat="59.0764045715" lon="29.9974608421"><time>2026-04-25T15:39:07Z</time></trkpt><trkpt lat="59.0764045715" lon="29.9974608421"><time>2026-04-25T15:39:09Z</time></trkpt><trkpt lat="59.0763831139" lon="29.9974179268"><time>2026-04-25T15:39:12Z</time></trkpt><trkpt lat="59.0763831139" lon="29.9973964691"><time>2026-04-25T15:39:14Z</time></trkpt><trkpt lat="59.0763831139" lon="29.9973535538"><time>2026-04-25T15:39:17Z</time></trkpt><trkpt lat="59.0763831139" lon="29.9973320961"><time>2026-04-25T15:39:19Z</time></trkpt><trkpt lat="59.0763616562" lon="29.9973106384"><time>2026-04-25T15:39:22Z</time></trkpt><trkpt lat="59.0763616562" lon="29.9972891808"><time>2026-04-25T15:39:24Z</time></trkpt><trkpt lat="59.0763616562" lon="29.9972891808"><time>2026-04-25T15:39:27Z</time></trkpt><trkpt lat="59.0763616562" lon="29.9972891808"><time>2026-04-25T15:39:29Z</time></trkpt><trkpt lat="59.0763831139" lon="29.9972891808"><time>2026-04-25T15:39:32Z</time></trkpt><trkpt lat="59.0763831139" lon="29.9972891808"><time>2026-04-25T15:39:34Z</time></trkpt><trkpt lat="59.0763831139" lon="29.9972891808"><time>2026-04-25T15:39:37Z</time></trkpt><trkpt lat="59.0763831139" lon="29.9972891808"><time>2026-04-25T15:39:39Z</time></trkpt><trkpt lat="59.0763831139" lon="29.9972891808"><time>2026-04-25T15:39:42Z</time></trkpt><trkpt lat="59.0763831139" lon="29.9972891808"><time>2026-04-25T15:39:44Z</time></trkpt><trkpt lat="59.0763831139" lon="29.9972891808"><time>2026-04-25T15:39:47Z</time></trkpt><trkpt lat="59.0763831139" lon="29.9972891808"><time>2026-04-25T15:39:49Z</time></trkpt><trkpt lat="59.0763831139" lon="29.9972891808"><time>2026-04-25T15:39:52Z</time></trkpt><trkpt lat="59.0763831139" lon="29.9972891808"><time>2026-04-25T15:39:54Z</time></trkpt><trkpt lat="59.0763831139" lon="29.9972677231"><time>2026-04-25T15:39:57Z</time></trkpt><trkpt lat="59.0763831139" lon="29.9972677231"><time>2026-04-25T15:39:59Z</time></trkpt><trkpt lat="59.0763831139" lon="29.9972677231"><time>2026-04-25T15:40:02Z</time></trkpt><trkpt lat="59.0763831139" lon="29.9972677231"><time>2026-04-25T15:40:04Z</time></trkpt><trkpt lat="59.0763831139" lon="29.9972891808"><time>2026-04-25T15:40:07Z</time></trkpt><trkpt lat="59.0763831139" lon="29.9972891808"><time>2026-04-25T15:40:09Z</time></trkpt><trkpt lat="59.0763831139" lon="29.9972891808"><time>2026-04-25T15:40:12Z</time></trkpt><trkpt lat="59.0763831139" lon="29.9972891808"><time>2026-04-25T15:40:14Z</time></trkpt><trkpt lat="59.0763831139" lon="29.9972891808"><time>2026-04-25T15:40:17Z</time></trkpt><trkpt lat="59.0763831139" lon="29.9972891808"><time>2026-04-25T15:40:19Z</time></trkpt><trkpt lat="59.0763831139" lon="29.9972891808"><time>2026-04-25T15:40:22Z</time></trkpt><trkpt lat="59.0763831139" lon="29.9972891808"><time>2026-04-25T15:40:24Z</time></trkpt><trkpt lat="59.0763831139" lon="29.9972891808"><time>2026-04-25T15:40:27Z</time></trkpt><trkpt lat="59.0763831139" lon="29.9972891808"><time>2026-04-25T15:40:29Z</time></trkpt><trkpt lat="59.0763831139" lon="29.9972891808"><time>2026-04-25T15:40:32Z</time></trkpt><trkpt lat="59.0763831139" lon="29.9972891808"><time>2026-04-25T15:40:34Z</time></trkpt><trkpt lat="59.0763831139" lon="29.9972891808"><time>2026-04-25T15:40:37Z</time></trkpt><trkpt lat="59.0763831139" lon="29.9972891808"><time>2026-04-25T15:40:39Z</time></trkpt><trkpt lat="59.0763831139" lon="29.9972891808"><time>2026-04-25T15:40:42Z</time></trkpt><trkpt lat="59.0763831139" lon="29.9972891808"><time>2026-04-25T15:40:44Z</time></trkpt><trkpt lat="59.0763831139" lon="29.9972891808"><time>2026-04-25T15:40:47Z</time></trkpt><trkpt lat="59.0763831139" lon="29.9972891808"><time>2026-04-25T15:40:49Z</time></trkpt><trkpt lat="59.0763831139" lon="29.9972891808"><time>2026-04-25T15:40:52Z</time></trkpt><trkpt lat="59.0764045715" lon="29.9972677231"><time>2026-04-25T15:40:54Z</time></trkpt><trkpt lat="59.0764045715" lon="29.9972462654"><time>2026-04-25T15:40:57Z</time></trkpt><trkpt lat="59.0764260292" lon="29.9972033501"><time>2026-04-25T15:40:59Z</time></trkpt><trkpt lat="59.0764260292" lon="29.9971818924"><time>2026-04-25T15:41:02Z</time></trkpt><trkpt lat="59.0764260292" lon="29.9971389771"><time>2026-04-25T15:41:04Z</time></trkpt><trkpt lat="59.0764260292" lon="29.9970746040"><time>2026-04-25T15:41:07Z</time></trkpt><trkpt lat="59.0764260292" lon="29.9970316887"><time>2026-04-25T15:41:09Z</time></trkpt><trkpt lat="59.0764260292" lon="29.9969887733"><time>2026-04-25T15:41:12Z</time></trkpt><trkpt lat="59.0764260292" lon="29.9969458580"><time>2026-04-25T15:41:14Z</time></trkpt><trkpt lat="59.0764474869" lon="29.9969458580"><time>2026-04-25T15:41:17Z</time></trkpt><trkpt lat="59.0764474869" lon="29.9969458580"><time>2026-04-25T15:41:19Z</time></trkpt><trkpt lat="59.0764260292" lon="29.9969029427"><time>2026-04-25T15:41:22Z</time></trkpt><trkpt lat="59.0764260292" lon="29.9968600273"><time>2026-04-25T15:41:24Z</time></trkpt><trkpt lat="59.0764260292" lon="29.9968385696"><time>2026-04-25T15:41:27Z</time></trkpt><trkpt lat="59.0764260292" lon="29.9967956543"><time>2026-04-25T15:41:29Z</time></trkpt><trkpt lat="59.0764260292" lon="29.9967956543"><time>2026-04-25T15:41:32Z</time></trkpt><trkpt lat="59.0764260292" lon="29.9967956543"><time>2026-04-25T15:41:34Z</time></trkpt><trkpt lat="59.0764260292" lon="29.9967527390"><time>2026-04-25T15:41:37Z</time></trkpt><trkpt lat="59.0764260292" lon="29.9967741966"><time>2026-04-25T15:41:39Z</time></trkpt><trkpt lat="59.0764474869" lon="29.9967741966"><time>2026-04-25T15:41:42Z</time></trkpt><trkpt lat="59.0764260292" lon="29.9967098236"><time>2026-04-25T15:41:44Z</time></trkpt><trkpt lat="59.0764260292" lon="29.9967098236"><time>2026-04-25T15:41:47Z</time></trkpt><trkpt lat="59.0764260292" lon="29.9967312813"><time>2026-04-25T15:41:49Z</time></trkpt><trkpt lat="59.0764260292" lon="29.9967312813"><time>2026-04-25T15:41:52Z</time></trkpt><trkpt lat="59.0764689445" lon="29.9966883659"><time>2026-04-25T15:41:54Z</time></trkpt><trkpt lat="59.0764689445" lon="29.9966669083"><time>2026-04-25T15:41:57Z</time></trkpt><trkpt lat="59.0764904022" lon="29.9965810776"><time>2026-04-25T15:41:59Z</time></trkpt><trkpt lat="59.0765118599" lon="29.9965596199"><time>2026-04-25T15:42:02Z</time></trkpt><trkpt lat="59.0765333176" lon="29.9965167046"><time>2026-04-25T15:42:04Z</time></trkpt><trkpt lat="59.0765118599" lon="29.9964523315"><time>2026-04-25T15:42:07Z</time></trkpt><trkpt lat="59.0765118599" lon="29.9963879585"><time>2026-04-25T15:42:09Z</time></trkpt><trkpt lat="59.0765118599" lon="29.9963235855"><time>2026-04-25T15:42:12Z</time></trkpt><trkpt lat="59.0765118599" lon="29.9962592125"><time>2026-04-25T15:42:14Z</time></trkpt><trkpt lat="59.0765333176" lon="29.9962162971"><time>2026-04-25T15:42:17Z</time></trkpt><trkpt lat="59.0765762329" lon="29.9961948395"><time>2026-04-25T15:42:19Z</time></trkpt><trkpt lat="59.0765762329" lon="29.9961733818"><time>2026-04-25T15:42:22Z</time></trkpt><trkpt lat="59.0765762329" lon="29.9961304665"><time>2026-04-25T15:42:24Z</time></trkpt><trkpt lat="59.0765976906" lon="29.9960446358"><time>2026-04-25T15:42:27Z</time></trkpt><trkpt lat="59.0765976906" lon="29.9959588051"><time>2026-04-25T15:42:29Z</time></trkpt><trkpt lat="59.0765762329" lon="29.9959158897"><time>2026-04-25T15:42:32Z</time></trkpt><trkpt lat="59.0765547752" lon="29.9958944321"><time>2026-04-25T15:42:34Z</time></trkpt><trkpt lat="59.0765333176" lon="29.9958515167"><time>2026-04-25T15:42:37Z</time></trkpt><trkpt lat="59.0764689445" lon="29.9958515167"><time>2026-04-25T15:42:39Z</time></trkpt><trkpt lat="59.0764689445" lon="29.9958729744"><time>2026-04-25T15:42:42Z</time></trkpt><trkpt lat="59.0764474869" lon="29.9958729744"><time>2026-04-25T15:42:44Z</time></trkpt><trkpt lat="59.0764474869" lon="29.9958729744"><time>2026-04-25T15:42:47Z</time></trkpt><trkpt lat="59.0764260292" lon="29.9958300591"><time>2026-04-25T15:42:49Z</time></trkpt><trkpt lat="59.0764474869" lon="29.9957656860"><time>2026-04-25T15:42:52Z</time></trkpt><trkpt lat="59.0764474869" lon="29.9956798553"><time>2026-04-25T15:42:54Z</time></trkpt><trkpt lat="59.0764474869" lon="29.9956369400"><time>2026-04-25T15:42:57Z</time></trkpt><trkpt lat="59.0764045715" lon="29.9955940247"><time>2026-04-25T15:42:59Z</time></trkpt><trkpt lat="59.0764045715" lon="29.9955725670"><time>2026-04-25T15:43:02Z</time></trkpt><trkpt lat="59.0764045715" lon="29.9955296516"><time>2026-04-25T15:43:04Z</time></trkpt><trkpt lat="59.0764045715" lon="29.9954867363"><time>2026-04-25T15:43:07Z</time></trkpt><trkpt lat="59.0764260292" lon="29.9954867363"><time>2026-04-25T15:43:09Z</time></trkpt><trkpt lat="59.0764474869" lon="29.9954438210"><time>2026-04-25T15:43:12Z</time></trkpt><trkpt lat="59.0764474869" lon="29.9954223633"><time>2026-04-25T15:43:14Z</time></trkpt><trkpt lat="59.0764474869" lon="29.9954223633"><time>2026-04-25T15:43:17Z</time></trkpt><trkpt lat="59.0764474869" lon="29.9954009056"><time>2026-04-25T15:43:19Z</time></trkpt><trkpt lat="59.0764689445" lon="29.9953579903"><time>2026-04-25T15:43:22Z</time></trkpt><trkpt lat="59.0764904022" lon="29.9952936172"><time>2026-04-25T15:43:24Z</time></trkpt><trkpt lat="59.0764689445" lon="29.9952721596"><time>2026-04-25T15:43:27Z</time></trkpt><trkpt lat="59.0764689445" lon="29.9952507019"><time>2026-04-25T15:43:29Z</time></trkpt><trkpt lat="59.0764689445" lon="29.9952507019"><time>2026-04-25T15:43:32Z</time></trkpt><trkpt lat="59.0764904022" lon="29.9952077866"><time>2026-04-25T15:43:34Z</time></trkpt><trkpt lat="59.0764689445" lon="29.9951863289"><time>2026-04-25T15:43:37Z</time></trkpt><trkpt lat="59.0764689445" lon="29.9951434135"><time>2026-04-25T15:43:39Z</time></trkpt><trkpt lat="59.0764689445" lon="29.9951434135"><time>2026-04-25T15:43:42Z</time></trkpt><trkpt lat="59.0764689445" lon="29.9951434135"><time>2026-04-25T15:43:44Z</time></trkpt><trkpt lat="59.0764689445" lon="29.9951434135"><time>2026-04-25T15:43:47Z</time></trkpt><trkpt lat="59.0764689445" lon="29.9951219559"><time>2026-04-25T15:43:49Z</time></trkpt><trkpt lat="59.0764689445" lon="29.9950790405"><time>2026-04-25T15:43:52Z</time></trkpt><trkpt lat="59.0764904022" lon="29.9949932098"><time>2026-04-25T15:43:54Z</time></trkpt><trkpt lat="59.0764904022" lon="29.9949288368"><time>2026-04-25T15:43:57Z</time></trkpt><trkpt lat="59.0764904022" lon="29.9948215485"><time>2026-04-25T15:43:59Z</time></trkpt><trkpt lat="59.0764689445" lon="29.9947786331"><time>2026-04-25T15:44:02Z</time></trkpt><trkpt lat="59.0764689445" lon="29.9947142601"><time>2026-04-25T15:44:04Z</time></trkpt><trkpt lat="59.0764689445" lon="29.9946713448"><time>2026-04-25T15:44:07Z</time></trkpt><trkpt lat="59.0764689445" lon="29.9946498871"><time>2026-04-25T15:44:09Z</time></trkpt><trkpt lat="59.0764689445" lon="29.9946498871"><time>2026-04-25T15:44:12Z</time></trkpt><trkpt lat="59.0764474869" lon="29.9946284294"><time>2026-04-25T15:44:14Z</time></trkpt><trkpt lat="59.0764689445" lon="29.9945640564"><time>2026-04-25T15:44:17Z</time></trkpt><trkpt lat="59.0764689445" lon="29.9945640564"><time>2026-04-25T15:44:19Z</time></trkpt><trkpt lat="59.0764689445" lon="29.9945640564"><time>2026-04-25T15:44:22Z</time></trkpt><trkpt lat="59.0764689445" lon="29.9945425987"><time>2026-04-25T15:44:24Z</time></trkpt><trkpt lat="59.0765118599" lon="29.9944353104"><time>2026-04-25T15:44:27Z</time></trkpt><trkpt lat="59.0765333176" lon="29.9943923950"><time>2026-04-25T15:44:29Z</time></trkpt><trkpt lat="59.0765762329" lon="29.9943280220"><time>2026-04-25T15:44:32Z</time></trkpt><trkpt lat="59.0766191483" lon="29.9943280220"><time>2026-04-25T15:44:34Z</time></trkpt><trkpt lat="59.0766191483" lon="29.9943494797"><time>2026-04-25T15:44:37Z</time></trkpt><trkpt lat="59.0766191483" lon="29.9943709373"><time>2026-04-25T15:44:39Z</time></trkpt><trkpt lat="59.0766191483" lon="29.9944567680"><time>2026-04-25T15:44:42Z</time></trkpt><trkpt lat="59.0765976906" lon="29.9944782257"><time>2026-04-25T15:44:44Z</time></trkpt><trkpt lat="59.0765976906" lon="29.9945425987"><time>2026-04-25T15:44:47Z</time></trkpt><trkpt lat="59.0766406059" lon="29.9945425987"><time>2026-04-25T15:44:49Z</time></trkpt><trkpt lat="59.0766620636" lon="29.9944782257"><time>2026-04-25T15:44:52Z</time></trkpt><trkpt lat="59.0766620636" lon="29.9944138527"><time>2026-04-25T15:44:54Z</time></trkpt><trkpt lat="59.0766620636" lon="29.9943494797"><time>2026-04-25T15:44:57Z</time></trkpt><trkpt lat="59.0766620636" lon="29.9942636490"><time>2026-04-25T15:44:59Z</time></trkpt><trkpt lat="59.0766620636" lon="29.9941778183"><time>2026-04-25T15:45:02Z</time></trkpt><trkpt lat="59.0766620636" lon="29.9941134453"><time>2026-04-25T15:45:04Z</time></trkpt><trkpt lat="59.0767049789" lon="29.9940276146"><time>2026-04-25T15:45:07Z</time></trkpt><trkpt lat="59.0767264366" lon="29.9939846992"><time>2026-04-25T15:45:09Z</time></trkpt><trkpt lat="59.0767264366" lon="29.9939203262"><time>2026-04-25T15:45:12Z</time></trkpt><trkpt lat="59.0767264366" lon="29.9938774109"><time>2026-04-25T15:45:14Z</time></trkpt><trkpt lat="59.0767049789" lon="29.9937915802"><time>2026-04-25T15:45:17Z</time></trkpt><trkpt lat="59.0766835213" lon="29.9937915802"><time>2026-04-25T15:45:19Z</time></trkpt><trkpt lat="59.0766406059" lon="29.9937915802"><time>2026-04-25T15:45:22Z</time></trkpt><trkpt lat="59.0766191483" lon="29.9937272072"><time>2026-04-25T15:45:24Z</time></trkpt><trkpt lat="59.0765976906" lon="29.9937057495"><time>2026-04-25T15:45:27Z</time></trkpt><trkpt lat="59.0765547752" lon="29.9936842918"><time>2026-04-25T15:45:29Z</time></trkpt><trkpt lat="59.0765333176" lon="29.9937057495"><time>2026-04-25T15:45:32Z</time></trkpt><trkpt lat="59.0765118599" lon="29.9936842918"><time>2026-04-25T15:45:34Z</time></trkpt><trkpt lat="59.0764904022" lon="29.9936413765"><time>2026-04-25T15:45:37Z</time></trkpt><trkpt lat="59.0764904022" lon="29.9935770035"><time>2026-04-25T15:45:39Z</time></trkpt><trkpt lat="59.0764904022" lon="29.9935340881"><time>2026-04-25T15:45:42Z</time></trkpt><trkpt lat="59.0764689445" lon="29.9934697151"><time>2026-04-25T15:45:44Z</time></trkpt><trkpt lat="59.0764689445" lon="29.9934482574"><time>2026-04-25T15:45:47Z</time></trkpt><trkpt lat="59.0764474869" lon="29.9934267998"><time>2026-04-25T15:45:49Z</time></trkpt><trkpt lat="59.0764260292" lon="29.9934053421"><time>2026-04-25T15:45:52Z</time></trkpt><trkpt lat="59.0764260292" lon="29.9933409691"><time>2026-04-25T15:45:54Z</time></trkpt><trkpt lat="59.0764260292" lon="29.9933195114"><time>2026-04-25T15:45:57Z</time></trkpt><trkpt lat="59.0764045715" lon="29.9932980537"><time>2026-04-25T15:45:59Z</time></trkpt><trkpt lat="59.0764045715" lon="29.9932765961"><time>2026-04-25T15:46:02Z</time></trkpt><trkpt lat="59.0764045715" lon="29.9932336807"><time>2026-04-25T15:46:04Z</time></trkpt><trkpt lat="59.0764045715" lon="29.9932122231"><time>2026-04-25T15:46:07Z</time></trkpt><trkpt lat="59.0764045715" lon="29.9931693077"><time>2026-04-25T15:46:09Z</time></trkpt><trkpt lat="59.0764260292" lon="29.9931263924"><time>2026-04-25T15:46:12Z</time></trkpt><trkpt lat="59.0764474869" lon="29.9930405617"><time>2026-04-25T15:46:14Z</time></trkpt><trkpt lat="59.0764689445" lon="29.9929547310"><time>2026-04-25T15:46:17Z</time></trkpt><trkpt lat="59.0764904022" lon="29.9928903580"><time>2026-04-25T15:46:19Z</time></trkpt><trkpt lat="59.0764904022" lon="29.9928474426"><time>2026-04-25T15:46:22Z</time></trkpt><trkpt lat="59.0765118599" lon="29.9927830696"><time>2026-04-25T15:46:24Z</time></trkpt><trkpt lat="59.0765118599" lon="29.9927401543"><time>2026-04-25T15:46:27Z</time></trkpt><trkpt lat="59.0765333176" lon="29.9926543236"><time>2026-04-25T15:46:29Z</time></trkpt><trkpt lat="59.0765333176" lon="29.9925899506"><time>2026-04-25T15:46:32Z</time></trkpt><trkpt lat="59.0765333176" lon="29.9925899506"><time>2026-04-25T15:46:34Z</time></trkpt><trkpt lat="59.0765333176" lon="29.9925899506"><time>2026-04-25T15:46:37Z</time></trkpt><trkpt lat="59.0765547752" lon="29.9925041199"><time>2026-04-25T15:46:39Z</time></trkpt><trkpt lat="59.0765547752" lon="29.9924397469"><time>2026-04-25T15:46:42Z</time></trkpt><trkpt lat="59.0765333176" lon="29.9923753738"><time>2026-04-25T15:46:44Z</time></trkpt><trkpt lat="59.0765118599" lon="29.9923324585"><time>2026-04-25T15:46:47Z</time></trkpt><trkpt lat="59.0765118599" lon="29.9922680855"><time>2026-04-25T15:46:49Z</time></trkpt><trkpt lat="59.0765118599" lon="29.9922680855"><time>2026-04-25T15:46:52Z</time></trkpt><trkpt lat="59.0765118599" lon="29.9922680855"><time>2026-04-25T15:46:54Z</time></trkpt><trkpt lat="59.0765118599" lon="29.9922680855"><time>2026-04-25T15:46:57Z</time></trkpt><trkpt lat="59.0765118599" lon="29.9922680855"><time>2026-04-25T15:46:59Z</time></trkpt><trkpt lat="59.0765118599" lon="29.9922680855"><time>2026-04-25T15:47:02Z</time></trkpt><trkpt lat="59.0765118599" lon="29.9922680855"><time>2026-04-25T15:47:04Z</time></trkpt><trkpt lat="59.0765118599" lon="29.9922680855"><time>2026-04-25T15:47:07Z</time></trkpt><trkpt lat="59.0765118599" lon="29.9922680855"><time>2026-04-25T15:47:09Z</time></trkpt><trkpt lat="59.0765118599" lon="29.9922680855"><time>2026-04-25T15:47:12Z</time></trkpt><trkpt lat="59.0765333176" lon="29.9922466278"><time>2026-04-25T15:47:14Z</time></trkpt><trkpt lat="59.0765333176" lon="29.9922251701"><time>2026-04-25T15:47:17Z</time></trkpt><trkpt lat="59.0765547752" lon="29.9921393394"><time>2026-04-25T15:47:19Z</time></trkpt><trkpt lat="59.0765547752" lon="29.9921178818"><time>2026-04-25T15:47:22Z</time></trkpt><trkpt lat="59.0765547752" lon="29.9921178818"><time>2026-04-25T15:47:24Z</time></trkpt><trkpt lat="59.0765547752" lon="29.9921178818"><time>2026-04-25T15:47:27Z</time></trkpt><trkpt lat="59.0765547752" lon="29.9921178818"><time>2026-04-25T15:47:29Z</time></trkpt><trkpt lat="59.0765547752" lon="29.9920964241"><time>2026-04-25T15:47:32Z</time></trkpt><trkpt lat="59.0765333176" lon="29.9920320511"><time>2026-04-25T15:47:34Z</time></trkpt><trkpt lat="59.0765333176" lon="29.9919891357"><time>2026-04-25T15:47:37Z</time></trkpt><trkpt lat="59.0765333176" lon="29.9919676781"><time>2026-04-25T15:47:39Z</time></trkpt><trkpt lat="59.0765118599" lon="29.9919462204"><time>2026-04-25T15:47:42Z</time></trkpt><trkpt lat="59.0765118599" lon="29.9918603897"><time>2026-04-25T15:47:44Z</time></trkpt><trkpt lat="59.0765118599" lon="29.9918174744"><time>2026-04-25T15:47:47Z</time></trkpt><trkpt lat="59.0765118599" lon="29.9917960167"><time>2026-04-25T15:47:49Z</time></trkpt><trkpt lat="59.0765118599" lon="29.9917531013"><time>2026-04-25T15:47:52Z</time></trkpt><trkpt lat="59.0765118599" lon="29.9917101860"><time>2026-04-25T15:47:54Z</time></trkpt><trkpt lat="59.0764904022" lon="29.9917101860"><time>2026-04-25T15:47:57Z</time></trkpt><trkpt lat="59.0764904022" lon="29.9916887283"><time>2026-04-25T15:47:59Z</time></trkpt><trkpt lat="59.0765118599" lon="29.9916672707"><time>2026-04-25T15:48:02Z</time></trkpt><trkpt lat="59.0765333176" lon="29.9916028976"><time>2026-04-25T15:48:04Z</time></trkpt><trkpt lat="59.0765333176" lon="29.9915385246"><time>2026-04-25T15:48:07Z</time></trkpt><trkpt lat="59.0765333176" lon="29.9914526939"><time>2026-04-25T15:48:09Z</time></trkpt><trkpt lat="59.0765333176" lon="29.9914097786"><time>2026-04-25T15:48:12Z</time></trkpt><trkpt lat="59.0765547752" lon="29.9913668633"><time>2026-04-25T15:48:14Z</time></trkpt><trkpt lat="59.0765547752" lon="29.9913668633"><time>2026-04-25T15:48:17Z</time></trkpt><trkpt lat="59.0765118599" lon="29.9913239479"><time>2026-04-25T15:48:19Z</time></trkpt><trkpt lat="59.0764904022" lon="29.9913024902"><time>2026-04-25T15:48:22Z</time></trkpt><trkpt lat="59.0764904022" lon="29.9912810326"><time>2026-04-25T15:48:24Z</time></trkpt><trkpt lat="59.0764904022" lon="29.9912166595"><time>2026-04-25T15:48:27Z</time></trkpt><trkpt lat="59.0764904022" lon="29.9911308289"><time>2026-04-25T15:48:29Z</time></trkpt><trkpt lat="59.0764904022" lon="29.9910879135"><time>2026-04-25T15:48:32Z</time></trkpt><trkpt lat="59.0765118599" lon="29.9910020828"><time>2026-04-25T15:48:34Z</time></trkpt><trkpt lat="59.0765118599" lon="29.9909377098"><time>2026-04-25T15:48:37Z</time></trkpt><trkpt lat="59.0765118599" lon="29.9908733368"><time>2026-04-25T15:48:39Z</time></trkpt><trkpt lat="59.0765118599" lon="29.9908518791"><time>2026-04-25T15:48:42Z</time></trkpt><trkpt lat="59.0764904022" lon="29.9908089638"><time>2026-04-25T15:48:44Z</time></trkpt><trkpt lat="59.0764689445" lon="29.9907875061"><time>2026-04-25T15:48:47Z</time></trkpt><trkpt lat="59.0764474869" lon="29.9907660484"><time>2026-04-25T15:48:49Z</time></trkpt><trkpt lat="59.0764474869" lon="29.9907660484"><time>2026-04-25T15:48:52Z</time></trkpt><trkpt lat="59.0764474869" lon="29.9907660484"><time>2026-04-25T15:48:54Z</time></trkpt><trkpt lat="59.0764474869" lon="29.9907660484"><time>2026-04-25T15:48:57Z</time></trkpt><trkpt lat="59.0764260292" lon="29.9907875061"><time>2026-04-25T15:48:59Z</time></trkpt><trkpt lat="59.0764045715" lon="29.9908089638"><time>2026-04-25T15:49:02Z</time></trkpt><trkpt lat="59.0764260292" lon="29.9908089638"><time>2026-04-25T15:49:04Z</time></trkpt><trkpt lat="59.0764045715" lon="29.9907875061"><time>2026-04-25T15:49:07Z</time></trkpt><trkpt lat="59.0763616562" lon="29.9908089638"><time>2026-04-25T15:49:09Z</time></trkpt><trkpt lat="59.0763401985" lon="29.9908089638"><time>2026-04-25T15:49:12Z</time></trkpt><trkpt lat="59.0763187408" lon="29.9907875061"><time>2026-04-25T15:49:14Z</time></trkpt><trkpt lat="59.0763401985" lon="29.9907445908"><time>2026-04-25T15:49:17Z</time></trkpt><trkpt lat="59.0763401985" lon="29.9907660484"><time>2026-04-25T15:49:19Z</time></trkpt><trkpt lat="59.0763616562" lon="29.9907445908"><time>2026-04-25T15:49:22Z</time></trkpt><trkpt lat="59.0763831139" lon="29.9907231331"><time>2026-04-25T15:49:24Z</time></trkpt><trkpt lat="59.0764260292" lon="29.9907445908"><time>2026-04-25T15:49:27Z</time></trkpt><trkpt lat="59.0764904022" lon="29.9907016754"><time>2026-04-25T15:49:29Z</time></trkpt><trkpt lat="59.0765118599" lon="29.9906373024"><time>2026-04-25T15:49:32Z</time></trkpt><trkpt lat="59.0765547752" lon="29.9905729294"><time>2026-04-25T15:49:34Z</time></trkpt><trkpt lat="59.0765547752" lon="29.9905943871"><time>2026-04-25T15:49:37Z</time></trkpt><trkpt lat="59.0765547752" lon="29.9906158447"><time>2026-04-25T15:49:39Z</time></trkpt><trkpt lat="59.0765547752" lon="29.9906158447"><time>2026-04-25T15:49:42Z</time></trkpt><trkpt lat="59.0765762329" lon="29.9905514717"><time>2026-04-25T15:49:44Z</time></trkpt><trkpt lat="59.0765762329" lon="29.9905514717"><time>2026-04-25T15:49:47Z</time></trkpt><trkpt lat="59.0765762329" lon="29.9905729294"><time>2026-04-25T15:49:49Z</time></trkpt><trkpt lat="59.0765762329" lon="29.9906373024"><time>2026-04-25T15:49:52Z</time></trkpt><trkpt lat="59.0765333176" lon="29.9906802177"><time>2026-04-25T15:49:54Z</time></trkpt><trkpt lat="59.0764904022" lon="29.9907016754"><time>2026-04-25T15:49:57Z</time></trkpt><trkpt lat="59.0764260292" lon="29.9907231331"><time>2026-04-25T15:49:59Z</time></trkpt><trkpt lat="59.0764260292" lon="29.9907231331"><time>2026-04-25T15:50:02Z</time></trkpt><trkpt lat="59.0764045715" lon="29.9907231331"><time>2026-04-25T15:50:04Z</time></trkpt><trkpt lat="59.0763616562" lon="29.9907660484"><time>2026-04-25T15:50:07Z</time></trkpt><trkpt lat="59.0762758255" lon="29.9908089638"><time>2026-04-25T15:50:09Z</time></trkpt><trkpt lat="59.0762329102" lon="29.9907875061"><time>2026-04-25T15:50:12Z</time></trkpt><trkpt lat="59.0762114525" lon="29.9908304214"><time>2026-04-25T15:50:14Z</time></trkpt><trkpt lat="59.0761899948" lon="29.9908304214"><time>2026-04-25T15:50:17Z</time></trkpt><trkpt lat="59.0761470795" lon="29.9908304214"><time>2026-04-25T15:50:19Z</time></trkpt><trkpt lat="59.0761256218" lon="29.9908304214"><time>2026-04-25T15:50:22Z</time></trkpt><trkpt lat="59.0760827065" lon="29.9908518791"><time>2026-04-25T15:50:24Z</time></trkpt><trkpt lat="59.0760612488" lon="29.9908518791"><time>2026-04-25T15:50:27Z</time></trkpt><trkpt lat="59.0760612488" lon="29.9908518791"><time>2026-04-25T15:50:29Z</time></trkpt><trkpt lat="59.0760612488" lon="29.9908518791"><time>2026-04-25T15:50:32Z</time></trkpt><trkpt lat="59.0760612488" lon="29.9908518791"><time>2026-04-25T15:50:34Z</time></trkpt><trkpt lat="59.0760612488" lon="29.9908518791"><time>2026-04-25T15:50:37Z</time></trkpt><trkpt lat="59.0760612488" lon="29.9908304214"><time>2026-04-25T15:50:39Z</time></trkpt><trkpt lat="59.0760397911" lon="29.9908089638"><time>2026-04-25T15:50:42Z</time></trkpt><trkpt lat="59.0760397911" lon="29.9908089638"><time>2026-04-25T15:50:44Z</time></trkpt><trkpt lat="59.0760397911" lon="29.9908089638"><time>2026-04-25T15:50:47Z</time></trkpt><trkpt lat="59.0759968758" lon="29.9907660484"><time>2026-04-25T15:50:49Z</time></trkpt><trkpt lat="59.0759754181" lon="29.9907660484"><time>2026-04-25T15:50:52Z</time></trkpt><trkpt lat="59.0759539604" lon="29.9907875061"><time>2026-04-25T15:50:54Z</time></trkpt><trkpt lat="59.0759325027" lon="29.9908089638"><time>2026-04-25T15:50:57Z</time></trkpt><trkpt lat="59.0759110451" lon="29.9908304214"><time>2026-04-25T15:50:59Z</time></trkpt><trkpt lat="59.0758895874" lon="29.9908518791"><time>2026-04-25T15:51:02Z</time></trkpt><trkpt lat="59.0758466721" lon="29.9908733368"><time>2026-04-25T15:51:04Z</time></trkpt><trkpt lat="59.0758037567" lon="29.9908947945"><time>2026-04-25T15:51:07Z</time></trkpt><trkpt lat="59.0757822990" lon="29.9908947945"><time>2026-04-25T15:51:09Z</time></trkpt><trkpt lat="59.0757822990" lon="29.9908947945"><time>2026-04-25T15:51:12Z</time></trkpt><trkpt lat="59.0757822990" lon="29.9908947945"><time>2026-04-25T15:51:14Z</time></trkpt><trkpt lat="59.0757822990" lon="29.9908947945"><time>2026-04-25T15:51:17Z</time></trkpt><trkpt lat="59.0757822990" lon="29.9908947945"><time>2026-04-25T15:51:19Z</time></trkpt><trkpt lat="59.0757822990" lon="29.9908947945"><time>2026-04-25T15:51:22Z</time></trkpt><trkpt lat="59.0757822990" lon="29.9908947945"><time>2026-04-25T15:51:24Z</time></trkpt><trkpt lat="59.0757822990" lon="29.9908947945"><time>2026-04-25T15:51:27Z</time></trkpt><trkpt lat="59.0757822990" lon="29.9908947945"><time>2026-04-25T15:51:29Z</time></trkpt><trkpt lat="59.0757608414" lon="29.9908947945"><time>2026-04-25T15:51:32Z</time></trkpt><trkpt lat="59.0757608414" lon="29.9908304214"><time>2026-04-25T15:51:34Z</time></trkpt><trkpt lat="59.0757608414" lon="29.9908089638"><time>2026-04-25T15:51:37Z</time></trkpt><trkpt lat="59.0757608414" lon="29.9907445908"><time>2026-04-25T15:51:39Z</time></trkpt><trkpt lat="59.0757608414" lon="29.9907016754"><time>2026-04-25T15:51:42Z</time></trkpt><trkpt lat="59.0757179260" lon="29.9906373024"><time>2026-04-25T15:51:44Z</time></trkpt><trkpt lat="59.0756964684" lon="29.9906158447"><time>2026-04-25T15:51:47Z</time></trkpt><trkpt lat="59.0756535530" lon="29.9906158447"><time>2026-04-25T15:51:49Z</time></trkpt><trkpt lat="59.0756320953" lon="29.9906158447"><time>2026-04-25T15:51:52Z</time></trkpt><trkpt lat="59.0756320953" lon="29.9906158447"><time>2026-04-25T15:51:54Z</time></trkpt><trkpt lat="59.0756106377" lon="29.9906158447"><time>2026-04-25T15:51:57Z</time></trkpt><trkpt lat="59.0755248070" lon="29.9906587601"><time>2026-04-25T15:51:59Z</time></trkpt><trkpt lat="59.0754389763" lon="29.9906802177"><time>2026-04-25T15:52:02Z</time></trkpt><trkpt lat="59.0753960609" lon="29.9907231331"><time>2026-04-25T15:52:04Z</time></trkpt><trkpt lat="59.0754389763" lon="29.9908733368"><time>2026-04-25T15:52:07Z</time></trkpt><trkpt lat="59.0754604340" lon="29.9909591675"><time>2026-04-25T15:52:09Z</time></trkpt><trkpt lat="59.0754604340" lon="29.9909591675"><time>2026-04-25T15:52:12Z</time></trkpt><trkpt lat="59.0754389763" lon="29.9910020828"><time>2026-04-25T15:52:14Z</time></trkpt><trkpt lat="59.0754389763" lon="29.9910449982"><time>2026-04-25T15:52:17Z</time></trkpt><trkpt lat="59.0754818916" lon="29.9911522865"><time>2026-04-25T15:52:22Z</time></trkpt><trkpt lat="59.0755033493" lon="29.9911308289"><time>2026-04-25T15:52:24Z</time></trkpt><trkpt lat="59.0755891800" lon="29.9913024902"><time>2026-04-25T15:52:27Z</time></trkpt><trkpt lat="59.0756320953" lon="29.9914956093"><time>2026-04-25T15:52:29Z</time></trkpt><trkpt lat="59.0756750107" lon="29.9916243553"><time>2026-04-25T15:52:32Z</time></trkpt><trkpt lat="59.0758037567" lon="29.9918603897"><time>2026-04-25T15:52:34Z</time></trkpt><trkpt lat="59.0758252144" lon="29.9919247627"><time>2026-04-25T15:52:37Z</time></trkpt><trkpt lat="59.0758037567" lon="29.9920105934"><time>2026-04-25T15:52:39Z</time></trkpt><trkpt lat="59.0758037567" lon="29.9920320511"><time>2026-04-25T15:52:42Z</time></trkpt><trkpt lat="59.0757608414" lon="29.9921178818"><time>2026-04-25T15:52:44Z</time></trkpt><trkpt lat="59.0757393837" lon="29.9921178818"><time>2026-04-25T15:52:47Z</time></trkpt><trkpt lat="59.0757179260" lon="29.9921393394"><time>2026-04-25T15:52:49Z</time></trkpt><trkpt lat="59.0756964684" lon="29.9921607971"><time>2026-04-25T15:52:52Z</time></trkpt><trkpt lat="59.0756750107" lon="29.9922251701"><time>2026-04-25T15:52:54Z</time></trkpt><trkpt lat="59.0756750107" lon="29.9922680855"><time>2026-04-25T15:52:57Z</time></trkpt><trkpt lat="59.0756750107" lon="29.9923324585"><time>2026-04-25T15:52:59Z</time></trkpt><trkpt lat="59.0756964684" lon="29.9923753738"><time>2026-04-25T15:53:02Z</time></trkpt><trkpt lat="59.0757179260" lon="29.9924826622"><time>2026-04-25T15:53:04Z</time></trkpt><trkpt lat="59.0757393837" lon="29.9925041199"><time>2026-04-25T15:53:07Z</time></trkpt><trkpt lat="59.0757608414" lon="29.9925470352"><time>2026-04-25T15:53:09Z</time></trkpt><trkpt lat="59.0758037567" lon="29.9925470352"><time>2026-04-25T15:53:12Z</time></trkpt><trkpt lat="59.0758681297" lon="29.9926757813"><time>2026-04-25T15:53:14Z</time></trkpt><trkpt lat="59.0758895874" lon="29.9927186966"><time>2026-04-25T15:53:17Z</time></trkpt><trkpt lat="59.0758895874" lon="29.9926972389"><time>2026-04-25T15:53:19Z</time></trkpt><trkpt lat="59.0758895874" lon="29.9927186966"><time>2026-04-25T15:53:22Z</time></trkpt><trkpt lat="59.0758681297" lon="29.9927186966"><time>2026-04-25T15:53:24Z</time></trkpt><trkpt lat="59.0758681297" lon="29.9927186966"><time>2026-04-25T15:53:27Z</time></trkpt><trkpt lat="59.0758681297" lon="29.9928045273"><time>2026-04-25T15:53:29Z</time></trkpt><trkpt lat="59.0758681297" lon="29.9928903580"><time>2026-04-25T15:53:32Z</time></trkpt><trkpt lat="59.0758466721" lon="29.9929976463"><time>2026-04-25T15:53:34Z</time></trkpt><trkpt lat="59.0758466721" lon="29.9930405617"><time>2026-04-25T15:53:37Z</time></trkpt><trkpt lat="59.0758466721" lon="29.9931478500"><time>2026-04-25T15:53:39Z</time></trkpt><trkpt lat="59.0758466721" lon="29.9931907654"><time>2026-04-25T15:53:42Z</time></trkpt><trkpt lat="59.0758252144" lon="29.9932336807"><time>2026-04-25T15:53:44Z</time></trkpt><trkpt lat="59.0758037567" lon="29.9932551384"><time>2026-04-25T15:53:47Z</time></trkpt><trkpt lat="59.0758037567" lon="29.9932551384"><time>2026-04-25T15:53:49Z</time></trkpt><trkpt lat="59.0758037567" lon="29.9932980537"><time>2026-04-25T15:53:52Z</time></trkpt><trkpt lat="59.0757822990" lon="29.9933195114"><time>2026-04-25T15:53:54Z</time></trkpt><trkpt lat="59.0757822990" lon="29.9933624268"><time>2026-04-25T15:53:57Z</time></trkpt><trkpt lat="59.0757822990" lon="29.9934053421"><time>2026-04-25T15:53:59Z</time></trkpt><trkpt lat="59.0757822990" lon="29.9934267998"><time>2026-04-25T15:54:02Z</time></trkpt><trkpt lat="59.0757822990" lon="29.9934482574"><time>2026-04-25T15:54:04Z</time></trkpt><trkpt lat="59.0758037567" lon="29.9934697151"><time>2026-04-25T15:54:07Z</time></trkpt><trkpt lat="59.0758037567" lon="29.9934911728"><time>2026-04-25T15:54:09Z</time></trkpt><trkpt lat="59.0758037567" lon="29.9934697151"><time>2026-04-25T15:54:12Z</time></trkpt><trkpt lat="59.0758037567" lon="29.9934911728"><time>2026-04-25T15:54:14Z</time></trkpt><trkpt lat="59.0758252144" lon="29.9935126305"><time>2026-04-25T15:54:17Z</time></trkpt><trkpt lat="59.0758252144" lon="29.9935340881"><time>2026-04-25T15:54:19Z</time></trkpt><trkpt lat="59.0758252144" lon="29.9935555458"><time>2026-04-25T15:54:22Z</time></trkpt><trkpt lat="59.0758252144" lon="29.9935770035"><time>2026-04-25T15:54:24Z</time></trkpt><trkpt lat="59.0758252144" lon="29.9935770035"><time>2026-04-25T15:54:27Z</time></trkpt><trkpt lat="59.0758252144" lon="29.9935770035"><time>2026-04-25T15:54:29Z</time></trkpt><trkpt lat="59.0758252144" lon="29.9935770035"><time>2026-04-25T15:54:32Z</time></trkpt><trkpt lat="59.0758252144" lon="29.9935770035"><time>2026-04-25T15:54:34Z</time></trkpt><trkpt lat="59.0758252144" lon="29.9935984612"><time>2026-04-25T15:54:37Z</time></trkpt><trkpt lat="59.0758466721" lon="29.9936413765"><time>2026-04-25T15:54:39Z</time></trkpt><trkpt lat="59.0758466721" lon="29.9937272072"><time>2026-04-25T15:54:42Z</time></trkpt><trkpt lat="59.0758681297" lon="29.9937915802"><time>2026-04-25T15:54:44Z</time></trkpt><trkpt lat="59.0758466721" lon="29.9938130379"><time>2026-04-25T15:54:47Z</time></trkpt><trkpt lat="59.0758895874" lon="29.9938344955"><time>2026-04-25T15:54:49Z</time></trkpt><trkpt lat="59.0759110451" lon="29.9938774109"><time>2026-04-25T15:54:52Z</time></trkpt><trkpt lat="59.0759325027" lon="29.9938774109"><time>2026-04-25T15:54:54Z</time></trkpt><trkpt lat="59.0759325027" lon="29.9938774109"><time>2026-04-25T15:54:57Z</time></trkpt><trkpt lat="59.0759539604" lon="29.9938344955"><time>2026-04-25T15:54:59Z</time></trkpt><trkpt lat="59.0759539604" lon="29.9938130379"><time>2026-04-25T15:55:02Z</time></trkpt><trkpt lat="59.0759754181" lon="29.9938130379"><time>2026-04-25T15:55:04Z</time></trkpt><trkpt lat="59.0759754181" lon="29.9938130379"><time>2026-04-25T15:55:07Z</time></trkpt><trkpt lat="59.0759754181" lon="29.9938130379"><time>2026-04-25T15:55:09Z</time></trkpt><trkpt lat="59.0759754181" lon="29.9938130379"><time>2026-04-25T15:55:12Z</time></trkpt><trkpt lat="59.0759754181" lon="29.9938130379"><time>2026-04-25T15:55:14Z</time></trkpt><trkpt lat="59.0759754181" lon="29.9938130379"><time>2026-04-25T15:55:17Z</time></trkpt><trkpt lat="59.0759754181" lon="29.9938130379"><time>2026-04-25T15:55:19Z</time></trkpt><trkpt lat="59.0759539604" lon="29.9938559532"><time>2026-04-25T15:55:22Z</time></trkpt><trkpt lat="59.0759110451" lon="29.9939417839"><time>2026-04-25T15:55:24Z</time></trkpt><trkpt lat="59.0758681297" lon="29.9939846992"><time>2026-04-25T15:55:27Z</time></trkpt><trkpt lat="59.0758252144" lon="29.9940705299"><time>2026-04-25T15:55:29Z</time></trkpt><trkpt lat="59.0758037567" lon="29.9941134453"><time>2026-04-25T15:55:32Z</time></trkpt><trkpt lat="59.0757822990" lon="29.9941563606"><time>2026-04-25T15:55:34Z</time></trkpt><trkpt lat="59.0757822990" lon="29.9941563606"><time>2026-04-25T15:55:37Z</time></trkpt><trkpt lat="59.0757393837" lon="29.9941778183"><time>2026-04-25T15:55:39Z</time></trkpt><trkpt lat="59.0757179260" lon="29.9941778183"><time>2026-04-25T15:55:42Z</time></trkpt><trkpt lat="59.0757179260" lon="29.9941778183"><time>2026-04-25T15:55:44Z</time></trkpt><trkpt lat="59.0757393837" lon="29.9941992760"><time>2026-04-25T15:55:47Z</time></trkpt><trkpt lat="59.0758037567" lon="29.9942636490"><time>2026-04-25T15:55:49Z</time></trkpt><trkpt lat="59.0758252144" lon="29.9943065643"><time>2026-04-25T15:55:52Z</time></trkpt><trkpt lat="59.0758252144" lon="29.9943923950"><time>2026-04-25T15:55:54Z</time></trkpt><trkpt lat="59.0758466721" lon="29.9944138527"><time>2026-04-25T15:55:57Z</time></trkpt><trkpt lat="59.0758681297" lon="29.9945211411"><time>2026-04-25T15:55:59Z</time></trkpt><trkpt lat="59.0758895874" lon="29.9946069717"><time>2026-04-25T15:56:02Z</time></trkpt><trkpt lat="59.0758895874" lon="29.9946928024"><time>2026-04-25T15:56:04Z</time></trkpt><trkpt lat="59.0758681297" lon="29.9947357178"><time>2026-04-25T15:56:07Z</time></trkpt><trkpt lat="59.0758252144" lon="29.9948215485"><time>2026-04-25T15:56:09Z</time></trkpt><trkpt lat="59.0758037567" lon="29.9948644638"><time>2026-04-25T15:56:12Z</time></trkpt><trkpt lat="59.0757608414" lon="29.9949288368"><time>2026-04-25T15:56:14Z</time></trkpt><trkpt lat="59.0757608414" lon="29.9949932098"><time>2026-04-25T15:56:17Z</time></trkpt><trkpt lat="59.0757393837" lon="29.9950790405"><time>2026-04-25T15:56:19Z</time></trkpt><trkpt lat="59.0757393837" lon="29.9951648712"><time>2026-04-25T15:56:22Z</time></trkpt><trkpt lat="59.0757393837" lon="29.9952507019"><time>2026-04-25T15:56:24Z</time></trkpt><trkpt lat="59.0757393837" lon="29.9952507019"><time>2026-04-25T15:56:27Z</time></trkpt><trkpt lat="59.0757822990" lon="29.9952721596"><time>2026-04-25T15:56:29Z</time></trkpt><trkpt lat="59.0757822990" lon="29.9952936172"><time>2026-04-25T15:56:32Z</time></trkpt><trkpt lat="59.0758252144" lon="29.9953365326"><time>2026-04-25T15:56:34Z</time></trkpt><trkpt lat="59.0758252144" lon="29.9953579903"><time>2026-04-25T15:56:37Z</time></trkpt><trkpt lat="59.0758252144" lon="29.9953579903"><time>2026-04-25T15:56:39Z</time></trkpt><trkpt lat="59.0758466721" lon="29.9953794479"><time>2026-04-25T15:56:42Z</time></trkpt><trkpt lat="59.0758681297" lon="29.9954438210"><time>2026-04-25T15:56:44Z</time></trkpt><trkpt lat="59.0758681297" lon="29.9955081940"><time>2026-04-25T15:56:47Z</time></trkpt><trkpt lat="59.0758681297" lon="29.9956154823"><time>2026-04-25T15:56:49Z</time></trkpt><trkpt lat="59.0758681297" lon="29.9956583977"><time>2026-04-25T15:56:52Z</time></trkpt><trkpt lat="59.0758681297" lon="29.9956798553"><time>2026-04-25T15:56:54Z</time></trkpt><trkpt lat="59.0758681297" lon="29.9956798553"><time>2026-04-25T15:56:57Z</time></trkpt><trkpt lat="59.0758681297" lon="29.9956798553"><time>2026-04-25T15:56:59Z</time></trkpt><trkpt lat="59.0758895874" lon="29.9956798553"><time>2026-04-25T15:57:02Z</time></trkpt><trkpt lat="59.0758895874" lon="29.9956798553"><time>2026-04-25T15:57:04Z</time></trkpt><trkpt lat="59.0758895874" lon="29.9956798553"><time>2026-04-25T15:57:07Z</time></trkpt><trkpt lat="59.0758895874" lon="29.9956798553"><time>2026-04-25T15:57:09Z</time></trkpt><trkpt lat="59.0758895874" lon="29.9956798553"><time>2026-04-25T15:57:12Z</time></trkpt><trkpt lat="59.0758895874" lon="29.9956798553"><time>2026-04-25T15:57:14Z</time></trkpt><trkpt lat="59.0758895874" lon="29.9956798553"><time>2026-04-25T15:57:17Z</time></trkpt><trkpt lat="59.0758895874" lon="29.9956798553"><time>2026-04-25T15:57:19Z</time></trkpt><trkpt lat="59.0758895874" lon="29.9956798553"><time>2026-04-25T15:57:22Z</time></trkpt><trkpt lat="59.0758895874" lon="29.9956798553"><time>2026-04-25T15:57:24Z</time></trkpt><trkpt lat="59.0758681297" lon="29.9956798553"><time>2026-04-25T15:57:27Z</time></trkpt><trkpt lat="59.0758466721" lon="29.9957227707"><time>2026-04-25T15:57:29Z</time></trkpt><trkpt lat="59.0758466721" lon="29.9957656860"><time>2026-04-25T15:57:32Z</time></trkpt><trkpt lat="59.0758252144" lon="29.9958086014"><time>2026-04-25T15:57:34Z</time></trkpt><trkpt lat="59.0758037567" lon="29.9958300591"><time>2026-04-25T15:57:37Z</time></trkpt><trkpt lat="59.0757822990" lon="29.9958300591"><time>2026-04-25T15:57:39Z</time></trkpt><trkpt lat="59.0757822990" lon="29.9958300591"><time>2026-04-25T15:57:42Z</time></trkpt><trkpt lat="59.0757608414" lon="29.9958729744"><time>2026-04-25T15:57:44Z</time></trkpt><trkpt lat="59.0757393837" lon="29.9959158897"><time>2026-04-25T15:57:47Z</time></trkpt><trkpt lat="59.0757179260" lon="29.9959158897"><time>2026-04-25T15:57:49Z</time></trkpt><trkpt lat="59.0757179260" lon="29.9959802628"><time>2026-04-25T15:57:52Z</time></trkpt><trkpt lat="59.0756964684" lon="29.9960446358"><time>2026-04-25T15:57:54Z</time></trkpt><trkpt lat="59.0756964684" lon="29.9960446358"><time>2026-04-25T15:57:57Z</time></trkpt><trkpt lat="59.0756964684" lon="29.9960875511"><time>2026-04-25T15:57:59Z</time></trkpt><trkpt lat="59.0756964684" lon="29.9961304665"><time>2026-04-25T15:58:02Z</time></trkpt><trkpt lat="59.0757179260" lon="29.9962162971"><time>2026-04-25T15:58:04Z</time></trkpt><trkpt lat="59.0757393837" lon="29.9962377548"><time>2026-04-25T15:58:07Z</time></trkpt><trkpt lat="59.0757608414" lon="29.9963021278"><time>2026-04-25T15:58:09Z</time></trkpt><trkpt lat="59.0757608414" lon="29.9963235855"><time>2026-04-25T15:58:12Z</time></trkpt><trkpt lat="59.0757608414" lon="29.9963450432"><time>2026-04-25T15:58:14Z</time></trkpt><trkpt lat="59.0757393837" lon="29.9963665009"><time>2026-04-25T15:58:17Z</time></trkpt><trkpt lat="59.0757393837" lon="29.9964308739"><time>2026-04-25T15:58:19Z</time></trkpt><trkpt lat="59.0757608414" lon="29.9964952469"><time>2026-04-25T15:58:22Z</time></trkpt><trkpt lat="59.0757822990" lon="29.9965596199"><time>2026-04-25T15:58:24Z</time></trkpt><trkpt lat="59.0757822990" lon="29.9966025352"><time>2026-04-25T15:58:27Z</time></trkpt><trkpt lat="59.0757608414" lon="29.9966669083"><time>2026-04-25T15:58:29Z</time></trkpt><trkpt lat="59.0757393837" lon="29.9966883659"><time>2026-04-25T15:58:32Z</time></trkpt><trkpt lat="59.0756964684" lon="29.9966669083"><time>2026-04-25T15:58:34Z</time></trkpt><trkpt lat="59.0756750107" lon="29.9966669083"><time>2026-04-25T15:58:37Z</time></trkpt><trkpt lat="59.0756535530" lon="29.9966669083"><time>2026-04-25T15:58:39Z</time></trkpt><trkpt lat="59.0756535530" lon="29.9966669083"><time>2026-04-25T15:58:42Z</time></trkpt><trkpt lat="59.0756535530" lon="29.9966669083"><time>2026-04-25T15:58:44Z</time></trkpt><trkpt lat="59.0756535530" lon="29.9966669083"><time>2026-04-25T15:58:47Z</time></trkpt><trkpt lat="59.0756535530" lon="29.9967098236"><time>2026-04-25T15:58:49Z</time></trkpt><trkpt lat="59.0756750107" lon="29.9967527390"><time>2026-04-25T15:58:52Z</time></trkpt><trkpt lat="59.0756750107" lon="29.9968171120"><time>2026-04-25T15:58:54Z</time></trkpt><trkpt lat="59.0756964684" lon="29.9968600273"><time>2026-04-25T15:58:57Z</time></trkpt><trkpt lat="59.0757179260" lon="29.9969029427"><time>2026-04-25T15:58:59Z</time></trkpt><trkpt lat="59.0757179260" lon="29.9969673157"><time>2026-04-25T15:59:02Z</time></trkpt><trkpt lat="59.0757393837" lon="29.9970316887"><time>2026-04-25T15:59:04Z</time></trkpt><trkpt lat="59.0757393837" lon="29.9970960617"><time>2026-04-25T15:59:07Z</time></trkpt><trkpt lat="59.0757393837" lon="29.9971604347"><time>2026-04-25T15:59:09Z</time></trkpt><trkpt lat="59.0757393837" lon="29.9972248077"><time>2026-04-25T15:59:12Z</time></trkpt><trkpt lat="59.0757393837" lon="29.9972891808"><time>2026-04-25T15:59:14Z</time></trkpt><trkpt lat="59.0757393837" lon="29.9973320961"><time>2026-04-25T15:59:17Z</time></trkpt><trkpt lat="59.0757179260" lon="29.9973964691"><time>2026-04-25T15:59:19Z</time></trkpt><trkpt lat="59.0756964684" lon="29.9974393845"><time>2026-04-25T15:59:22Z</time></trkpt><trkpt lat="59.0756535530" lon="29.9974822998"><time>2026-04-25T15:59:24Z</time></trkpt><trkpt lat="59.0756535530" lon="29.9974822998"><time>2026-04-25T15:59:27Z</time></trkpt><trkpt lat="59.0756535530" lon="29.9975252151"><time>2026-04-25T15:59:29Z</time></trkpt><trkpt lat="59.0756535530" lon="29.9975252151"><time>2026-04-25T15:59:32Z</time></trkpt><trkpt lat="59.0756535530" lon="29.9975681305"><time>2026-04-25T15:59:34Z</time></trkpt><trkpt lat="59.0756535530" lon="29.9975895882"><time>2026-04-25T15:59:37Z</time></trkpt><trkpt lat="59.0756535530" lon="29.9975895882"><time>2026-04-25T15:59:39Z</time></trkpt><trkpt lat="59.0756535530" lon="29.9975895882"><time>2026-04-25T15:59:42Z</time></trkpt><trkpt lat="59.0756535530" lon="29.9975895882"><time>2026-04-25T15:59:44Z</time></trkpt><trkpt lat="59.0756535530" lon="29.9975895882"><time>2026-04-25T15:59:47Z</time></trkpt><trkpt lat="59.0756535530" lon="29.9975895882"><time>2026-04-25T15:59:49Z</time></trkpt><trkpt lat="59.0756535530" lon="29.9975895882"><time>2026-04-25T15:59:52Z</time></trkpt><trkpt lat="59.0756535530" lon="29.9975895882"><time>2026-04-25T15:59:54Z</time></trkpt><trkpt lat="59.0756535530" lon="29.9975895882"><time>2026-04-25T15:59:57Z</time></trkpt><trkpt lat="59.0756750107" lon="29.9975895882"><time>2026-04-25T15:59:59Z</time></trkpt><trkpt lat="59.0756750107" lon="29.9975895882"><time>2026-04-25T16:00:02Z</time></trkpt><trkpt lat="59.0756750107" lon="29.9975895882"><time>2026-04-25T16:00:04Z</time></trkpt><trkpt lat="59.0756750107" lon="29.9975895882"><time>2026-04-25T16:00:07Z</time></trkpt><trkpt lat="59.0756750107" lon="29.9975895882"><time>2026-04-25T16:00:09Z</time></trkpt><trkpt lat="59.0756535530" lon="29.9975681305"><time>2026-04-25T16:00:12Z</time></trkpt><trkpt lat="59.0756320953" lon="29.9974608421"><time>2026-04-25T16:00:14Z</time></trkpt><trkpt lat="59.0756320953" lon="29.9974608421"><time>2026-04-25T16:00:17Z</time></trkpt><trkpt lat="59.0756320953" lon="29.9974608421"><time>2026-04-25T16:00:19Z</time></trkpt><trkpt lat="59.0756750107" lon="29.9973750114"><time>2026-04-25T16:00:22Z</time></trkpt><trkpt lat="59.0756964684" lon="29.9972891808"><time>2026-04-25T16:00:24Z</time></trkpt><trkpt lat="59.0756964684" lon="29.9972677231"><time>2026-04-25T16:00:27Z</time></trkpt><trkpt lat="59.0756964684" lon="29.9972677231"><time>2026-04-25T16:00:29Z</time></trkpt><trkpt lat="59.0756964684" lon="29.9972677231"><time>2026-04-25T16:00:32Z</time></trkpt><trkpt lat="59.0756964684" lon="29.9972677231"><time>2026-04-25T16:00:34Z</time></trkpt><trkpt lat="59.0756964684" lon="29.9972677231"><time>2026-04-25T16:00:37Z</time></trkpt><trkpt lat="59.0756964684" lon="29.9972677231"><time>2026-04-25T16:00:39Z</time></trkpt><trkpt lat="59.0756964684" lon="29.9972677231"><time>2026-04-25T16:00:42Z</time></trkpt><trkpt lat="59.0756964684" lon="29.9972677231"><time>2026-04-25T16:00:44Z</time></trkpt><trkpt lat="59.0756964684" lon="29.9972677231"><time>2026-04-25T16:00:47Z</time></trkpt><trkpt lat="59.0756964684" lon="29.9972677231"><time>2026-04-25T16:00:49Z</time></trkpt><trkpt lat="59.0756964684" lon="29.9972677231"><time>2026-04-25T16:00:52Z</time></trkpt><trkpt lat="59.0756964684" lon="29.9972677231"><time>2026-04-25T16:00:54Z</time></trkpt><trkpt lat="59.0756964684" lon="29.9972677231"><time>2026-04-25T16:00:57Z</time></trkpt><trkpt lat="59.0756964684" lon="29.9973320961"><time>2026-04-25T16:00:59Z</time></trkpt><trkpt lat="59.0756535530" lon="29.9975037575"><time>2026-04-25T16:01:02Z</time></trkpt><trkpt lat="59.0756535530" lon="29.9975681305"><time>2026-04-25T16:01:04Z</time></trkpt><trkpt lat="59.0756535530" lon="29.9975681305"><time>2026-04-25T16:01:07Z</time></trkpt><trkpt lat="59.0756535530" lon="29.9975681305"><time>2026-04-25T16:01:09Z</time></trkpt><trkpt lat="59.0756535530" lon="29.9975681305"><time>2026-04-25T16:01:12Z</time></trkpt><trkpt lat="59.0756535530" lon="29.9975681305"><time>2026-04-25T16:01:14Z</time></trkpt><trkpt lat="59.0756535530" lon="29.9975681305"><time>2026-04-25T16:01:17Z</time></trkpt><trkpt lat="59.0756535530" lon="29.9975681305"><time>2026-04-25T16:01:19Z</time></trkpt><trkpt lat="59.0756535530" lon="29.9975681305"><time>2026-04-25T16:01:22Z</time></trkpt><trkpt lat="59.0756535530" lon="29.9975681305"><time>2026-04-25T16:01:24Z</time></trkpt><trkpt lat="59.0756535530" lon="29.9975681305"><time>2026-04-25T16:01:27Z</time></trkpt><trkpt lat="59.0756535530" lon="29.9975681305"><time>2026-04-25T16:01:29Z</time></trkpt><trkpt lat="59.0756535530" lon="29.9975681305"><time>2026-04-25T16:01:32Z</time></trkpt><trkpt lat="59.0756535530" lon="29.9975681305"><time>2026-04-25T16:01:34Z</time></trkpt><trkpt lat="59.0756535530" lon="29.9975681305"><time>2026-04-25T16:01:37Z</time></trkpt><trkpt lat="59.0756535530" lon="29.9975681305"><time>2026-04-25T16:01:39Z</time></trkpt><trkpt lat="59.0756535530" lon="29.9975681305"><time>2026-04-25T16:01:42Z</time></trkpt><trkpt lat="59.0756535530" lon="29.9975681305"><time>2026-04-25T16:01:44Z</time></trkpt><trkpt lat="59.0756535530" lon="29.9975681305"><time>2026-04-25T16:01:47Z</time></trkpt><trkpt lat="59.0756535530" lon="29.9975681305"><time>2026-04-25T16:01:49Z</time></trkpt><trkpt lat="59.0756535530" lon="29.9975681305"><time>2026-04-25T16:01:52Z</time></trkpt><trkpt lat="59.0756535530" lon="29.9975681305"><time>2026-04-25T16:01:54Z</time></trkpt><trkpt lat="59.0756535530" lon="29.9975681305"><time>2026-04-25T16:01:57Z</time></trkpt><trkpt lat="59.0756535530" lon="29.9975681305"><time>2026-04-25T16:01:59Z</time></trkpt><trkpt lat="59.0756535530" lon="29.9975895882"><time>2026-04-25T16:02:02Z</time></trkpt><trkpt lat="59.0756750107" lon="29.9975681305"><time>2026-04-25T16:02:04Z</time></trkpt><trkpt lat="59.0756535530" lon="29.9975681305"><time>2026-04-25T16:02:07Z</time></trkpt><trkpt lat="59.0756535530" lon="29.9975895882"><time>2026-04-25T16:02:09Z</time></trkpt><trkpt lat="59.0756535530" lon="29.9975895882"><time>2026-04-25T16:02:12Z</time></trkpt><trkpt lat="59.0756535530" lon="29.9975895882"><time>2026-04-25T16:02:14Z</time></trkpt><trkpt lat="59.0756535530" lon="29.9975895882"><time>2026-04-25T16:02:17Z</time></trkpt><trkpt lat="59.0756535530" lon="29.9975895882"><time>2026-04-25T16:02:19Z</time></trkpt><trkpt lat="59.0756535530" lon="29.9975895882"><time>2026-04-25T16:02:22Z</time></trkpt><trkpt lat="59.0756535530" lon="29.9975895882"><time>2026-04-25T16:02:24Z</time></trkpt><trkpt lat="59.0756535530" lon="29.9975895882"><time>2026-04-25T16:02:27Z</time></trkpt><trkpt lat="59.0756320953" lon="29.9975681305"><time>2026-04-25T16:02:29Z</time></trkpt><trkpt lat="59.0756320953" lon="29.9975681305"><time>2026-04-25T16:02:32Z</time></trkpt><trkpt lat="59.0756320953" lon="29.9975681305"><time>2026-04-25T16:02:34Z</time></trkpt><trkpt lat="59.0756320953" lon="29.9975681305"><time>2026-04-25T16:02:37Z</time></trkpt><trkpt lat="59.0756320953" lon="29.9975681305"><time>2026-04-25T16:02:39Z</time></trkpt><trkpt lat="59.0756320953" lon="29.9975466728"><time>2026-04-25T16:02:42Z</time></trkpt><trkpt lat="59.0756320953" lon="29.9975466728"><time>2026-04-25T16:02:44Z</time></trkpt><trkpt lat="59.0756320953" lon="29.9975466728"><time>2026-04-25T16:02:47Z</time></trkpt><trkpt lat="59.0756320953" lon="29.9975466728"><time>2026-04-25T16:02:49Z</time></trkpt><trkpt lat="59.0756320953" lon="29.9975466728"><time>2026-04-25T16:02:52Z</time></trkpt><trkpt lat="59.0756320953" lon="29.9975466728"><time>2026-04-25T16:02:54Z</time></trkpt><trkpt lat="59.0756320953" lon="29.9975466728"><time>2026-04-25T16:02:57Z</time></trkpt><trkpt lat="59.0756320953" lon="29.9974822998"><time>2026-04-25T16:02:59Z</time></trkpt><trkpt lat="59.0756320953" lon="29.9975466728"><time>2026-04-25T16:03:02Z</time></trkpt><trkpt lat="59.0756535530" lon="29.9975681305"><time>2026-04-25T16:03:04Z</time></trkpt><trkpt lat="59.0756535530" lon="29.9975681305"><time>2026-04-25T16:03:07Z</time></trkpt><trkpt lat="59.0756535530" lon="29.9976110458"><time>2026-04-25T16:03:09Z</time></trkpt><trkpt lat="59.0755891800" lon="29.9976539612"><time>2026-04-25T16:03:12Z</time></trkpt><trkpt lat="59.0754818916" lon="29.9976539612"><time>2026-04-25T16:03:14Z</time></trkpt><trkpt lat="59.0754175186" lon="29.9976754189"><time>2026-04-25T16:03:17Z</time></trkpt><trkpt lat="59.0753531456" lon="29.9977397919"><time>2026-04-25T16:03:19Z</time></trkpt><trkpt lat="59.0753102303" lon="29.9977612495"><time>2026-04-25T16:03:22Z</time></trkpt><trkpt lat="59.0752887726" lon="29.9978256226"><time>2026-04-25T16:03:24Z</time></trkpt><trkpt lat="59.0752673149" lon="29.9978685379"><time>2026-04-25T16:03:27Z</time></trkpt><trkpt lat="59.0752243996" lon="29.9978470802"><time>2026-04-25T16:03:29Z</time></trkpt><trkpt lat="59.0752029419" lon="29.9978041649"><time>2026-04-25T16:03:32Z</time></trkpt><trkpt lat="59.0751814842" lon="29.9977827072"><time>2026-04-25T16:03:34Z</time></trkpt><trkpt lat="59.0751600266" lon="29.9977397919"><time>2026-04-25T16:03:37Z</time></trkpt><trkpt lat="59.0752029419" lon="29.9976754189"><time>2026-04-25T16:03:39Z</time></trkpt><trkpt lat="59.0752029419" lon="29.9976325035"><time>2026-04-25T16:03:42Z</time></trkpt><trkpt lat="59.0752029419" lon="29.9975895882"><time>2026-04-25T16:03:44Z</time></trkpt><trkpt lat="59.0752029419" lon="29.9975895882"><time>2026-04-25T16:03:47Z</time></trkpt><trkpt lat="59.0751814842" lon="29.9975252151"><time>2026-04-25T16:03:49Z</time></trkpt><trkpt lat="59.0751814842" lon="29.9974822998"><time>2026-04-25T16:03:52Z</time></trkpt><trkpt lat="59.0751600266" lon="29.9973964691"><time>2026-04-25T16:03:54Z</time></trkpt><trkpt lat="59.0751385689" lon="29.9973535538"><time>2026-04-25T16:03:57Z</time></trkpt><trkpt lat="59.0751600266" lon="29.9973320961"><time>2026-04-25T16:03:59Z</time></trkpt><trkpt lat="59.0751385689" lon="29.9973106384"><time>2026-04-25T16:04:02Z</time></trkpt><trkpt lat="59.0751385689" lon="29.9972462654"><time>2026-04-25T16:04:04Z</time></trkpt><trkpt lat="59.0751171112" lon="29.9972033501"><time>2026-04-25T16:04:07Z</time></trkpt><trkpt lat="59.0751385689" lon="29.9971389771"><time>2026-04-25T16:04:09Z</time></trkpt><trkpt lat="59.0751600266" lon="29.9970960617"><time>2026-04-25T16:04:12Z</time></trkpt><trkpt lat="59.0751385689" lon="29.9970531464"><time>2026-04-25T16:04:14Z</time></trkpt><trkpt lat="59.0751385689" lon="29.9970531464"><time>2026-04-25T16:04:17Z</time></trkpt><trkpt lat="59.0751600266" lon="29.9970316887"><time>2026-04-25T16:04:19Z</time></trkpt><trkpt lat="59.0751814842" lon="29.9970102310"><time>2026-04-25T16:04:22Z</time></trkpt><trkpt lat="59.0752029419" lon="29.9969673157"><time>2026-04-25T16:04:24Z</time></trkpt><trkpt lat="59.0752243996" lon="29.9969029427"><time>2026-04-25T16:04:27Z</time></trkpt><trkpt lat="59.0752673149" lon="29.9968814850"><time>2026-04-25T16:04:29Z</time></trkpt><trkpt lat="59.0752458572" lon="29.9968385696"><time>2026-04-25T16:04:32Z</time></trkpt><trkpt lat="59.0752458572" lon="29.9968171120"><time>2026-04-25T16:04:34Z</time></trkpt><trkpt lat="59.0752673149" lon="29.9967527390"><time>2026-04-25T16:04:37Z</time></trkpt><trkpt lat="59.0752887726" lon="29.9966669083"><time>2026-04-25T16:04:39Z</time></trkpt><trkpt lat="59.0752887726" lon="29.9966025352"><time>2026-04-25T16:04:42Z</time></trkpt><trkpt lat="59.0753316879" lon="29.9964737892"><time>2026-04-25T16:04:44Z</time></trkpt><trkpt lat="59.0753316879" lon="29.9964094162"><time>2026-04-25T16:04:47Z</time></trkpt><trkpt lat="59.0753102303" lon="29.9963021278"><time>2026-04-25T16:04:49Z</time></trkpt><trkpt lat="59.0752887726" lon="29.9962592125"><time>2026-04-25T16:04:52Z</time></trkpt><trkpt lat="59.0752887726" lon="29.9962377548"><time>2026-04-25T16:04:54Z</time></trkpt><trkpt lat="59.0752887726" lon="29.9962377548"><time>2026-04-25T16:04:57Z</time></trkpt><trkpt lat="59.0752887726" lon="29.9962377548"><time>2026-04-25T16:04:59Z</time></trkpt><trkpt lat="59.0752887726" lon="29.9962377548"><time>2026-04-25T16:05:02Z</time></trkpt><trkpt lat="59.0752887726" lon="29.9961304665"><time>2026-04-25T16:05:04Z</time></trkpt><trkpt lat="59.0753102303" lon="29.9960875511"><time>2026-04-25T16:05:07Z</time></trkpt><trkpt lat="59.0753102303" lon="29.9960446358"><time>2026-04-25T16:05:09Z</time></trkpt><trkpt lat="59.0753316879" lon="29.9960446358"><time>2026-04-25T16:05:12Z</time></trkpt><trkpt lat="59.0753316879" lon="29.9959802628"><time>2026-04-25T16:05:14Z</time></trkpt><trkpt lat="59.0753316879" lon="29.9959588051"><time>2026-04-25T16:05:17Z</time></trkpt><trkpt lat="59.0753102303" lon="29.9959588051"><time>2026-04-25T16:05:19Z</time></trkpt><trkpt lat="59.0752887726" lon="29.9959588051"><time>2026-04-25T16:05:22Z</time></trkpt><trkpt lat="59.0753102303" lon="29.9958729744"><time>2026-04-25T16:05:24Z</time></trkpt><trkpt lat="59.0753102303" lon="29.9958300591"><time>2026-04-25T16:05:27Z</time></trkpt><trkpt lat="59.0753316879" lon="29.9957227707"><time>2026-04-25T16:05:29Z</time></trkpt><trkpt lat="59.0753316879" lon="29.9956798553"><time>2026-04-25T16:05:32Z</time></trkpt><trkpt lat="59.0753102303" lon="29.9955940247"><time>2026-04-25T16:05:34Z</time></trkpt><trkpt lat="59.0753102303" lon="29.9955296516"><time>2026-04-25T16:05:37Z</time></trkpt><trkpt lat="59.0752887726" lon="29.9954652786"><time>2026-04-25T16:05:39Z</time></trkpt><trkpt lat="59.0752673149" lon="29.9954438210"><time>2026-04-25T16:05:42Z</time></trkpt><trkpt lat="59.0752243996" lon="29.9954223633"><time>2026-04-25T16:05:44Z</time></trkpt><trkpt lat="59.0752243996" lon="29.9954009056"><time>2026-04-25T16:05:47Z</time></trkpt><trkpt lat="59.0752029419" lon="29.9954438210"><time>2026-04-25T16:05:49Z</time></trkpt><trkpt lat="59.0751814842" lon="29.9954438210"><time>2026-04-25T16:05:52Z</time></trkpt><trkpt lat="59.0751814842" lon="29.9954223633"><time>2026-04-25T16:05:54Z</time></trkpt><trkpt lat="59.0751600266" lon="29.9954652786"><time>2026-04-25T16:05:57Z</time></trkpt><trkpt lat="59.0751600266" lon="29.9954867363"><time>2026-04-25T16:05:59Z</time></trkpt><trkpt lat="59.0751600266" lon="29.9955081940"><time>2026-04-25T16:06:02Z</time></trkpt><trkpt lat="59.0751385689" lon="29.9955081940"><time>2026-04-25T16:06:04Z</time></trkpt><trkpt lat="59.0751385689" lon="29.9955296516"><time>2026-04-25T16:06:07Z</time></trkpt><trkpt lat="59.0751385689" lon="29.9955296516"><time>2026-04-25T16:06:09Z</time></trkpt><trkpt lat="59.0751385689" lon="29.9954867363"><time>2026-04-25T16:06:12Z</time></trkpt><trkpt lat="59.0751385689" lon="29.9954009056"><time>2026-04-25T16:06:14Z</time></trkpt><trkpt lat="59.0751385689" lon="29.9953794479"><time>2026-04-25T16:06:17Z</time></trkpt><trkpt lat="59.0751814842" lon="29.9952721596"><time>2026-04-25T16:06:19Z</time></trkpt><trkpt lat="59.0751814842" lon="29.9952292442"><time>2026-04-25T16:06:22Z</time></trkpt><trkpt lat="59.0752029419" lon="29.9951434135"><time>2026-04-25T16:06:24Z</time></trkpt><trkpt lat="59.0752243996" lon="29.9951004982"><time>2026-04-25T16:06:27Z</time></trkpt><trkpt lat="59.0752243996" lon="29.9951004982"><time>2026-04-25T16:06:29Z</time></trkpt><trkpt lat="59.0752243996" lon="29.9951004982"><time>2026-04-25T16:06:32Z</time></trkpt><trkpt lat="59.0752458572" lon="29.9950575829"><time>2026-04-25T16:06:34Z</time></trkpt><trkpt lat="59.0752458572" lon="29.9949932098"><time>2026-04-25T16:06:37Z</time></trkpt><trkpt lat="59.0752887726" lon="29.9949288368"><time>2026-04-25T16:06:39Z</time></trkpt><trkpt lat="59.0752887726" lon="29.9948859215"><time>2026-04-25T16:06:42Z</time></trkpt><trkpt lat="59.0752887726" lon="29.9948215485"><time>2026-04-25T16:06:44Z</time></trkpt><trkpt lat="59.0752887726" lon="29.9947571754"><time>2026-04-25T16:06:47Z</time></trkpt><trkpt lat="59.0752887726" lon="29.9946713448"><time>2026-04-25T16:06:49Z</time></trkpt><trkpt lat="59.0752887726" lon="29.9946069717"><time>2026-04-25T16:06:52Z</time></trkpt><trkpt lat="59.0752887726" lon="29.9944996834"><time>2026-04-25T16:06:54Z</time></trkpt><trkpt lat="59.0752887726" lon="29.9944782257"><time>2026-04-25T16:06:57Z</time></trkpt><trkpt lat="59.0752887726" lon="29.9944782257"><time>2026-04-25T16:06:59Z</time></trkpt><trkpt lat="59.0752673149" lon="29.9944996834"><time>2026-04-25T16:07:02Z</time></trkpt><trkpt lat="59.0752458572" lon="29.9944996834"><time>2026-04-25T16:07:04Z</time></trkpt><trkpt lat="59.0752243996" lon="29.9944782257"><time>2026-04-25T16:07:07Z</time></trkpt><trkpt lat="59.0752243996" lon="29.9944782257"><time>2026-04-25T16:07:09Z</time></trkpt><trkpt lat="59.0752243996" lon="29.9944782257"><time>2026-04-25T16:07:12Z</time></trkpt><trkpt lat="59.0752243996" lon="29.9944782257"><time>2026-04-25T16:07:14Z</time></trkpt><trkpt lat="59.0752243996" lon="29.9944782257"><time>2026-04-25T16:07:17Z</time></trkpt><trkpt lat="59.0752243996" lon="29.9944782257"><time>2026-04-25T16:07:19Z</time></trkpt><trkpt lat="59.0752243996" lon="29.9944782257"><time>2026-04-25T16:07:22Z</time></trkpt><trkpt lat="59.0752243996" lon="29.9944782257"><time>2026-04-25T16:07:24Z</time></trkpt><trkpt lat="59.0752243996" lon="29.9944782257"><time>2026-04-25T16:07:27Z</time></trkpt><trkpt lat="59.0752243996" lon="29.9944782257"><time>2026-04-25T16:07:29Z</time></trkpt><trkpt lat="59.0752243996" lon="29.9944782257"><time>2026-04-25T16:07:32Z</time></trkpt><trkpt lat="59.0752673149" lon="29.9944138527"><time>2026-04-25T16:07:34Z</time></trkpt><trkpt lat="59.0752673149" lon="29.9944138527"><time>2026-04-25T16:07:37Z</time></trkpt><trkpt lat="59.0752673149" lon="29.9944138527"><time>2026-04-25T16:07:39Z</time></trkpt><trkpt lat="59.0752673149" lon="29.9944138527"><time>2026-04-25T16:07:42Z</time></trkpt><trkpt lat="59.0752673149" lon="29.9944138527"><time>2026-04-25T16:07:44Z</time></trkpt><trkpt lat="59.0752673149" lon="29.9944138527"><time>2026-04-25T16:07:47Z</time></trkpt><trkpt lat="59.0752673149" lon="29.9944138527"><time>2026-04-25T16:07:49Z</time></trkpt><trkpt lat="59.0752673149" lon="29.9944138527"><time>2026-04-25T16:07:52Z</time></trkpt><trkpt lat="59.0752673149" lon="29.9944138527"><time>2026-04-25T16:07:54Z</time></trkpt><trkpt lat="59.0752673149" lon="29.9943923950"><time>2026-04-25T16:07:57Z</time></trkpt><trkpt lat="59.0752458572" lon="29.9943065643"><time>2026-04-25T16:07:59Z</time></trkpt><trkpt lat="59.0752243996" lon="29.9942207336"><time>2026-04-25T16:08:02Z</time></trkpt><trkpt lat="59.0751814842" lon="29.9941134453"><time>2026-04-25T16:08:04Z</time></trkpt><trkpt lat="59.0751600266" lon="29.9940705299"><time>2026-04-25T16:08:07Z</time></trkpt><trkpt lat="59.0751385689" lon="29.9940276146"><time>2026-04-25T16:08:09Z</time></trkpt><trkpt lat="59.0751171112" lon="29.9940276146"><time>2026-04-25T16:08:12Z</time></trkpt><trkpt lat="59.0751171112" lon="29.9940490723"><time>2026-04-25T16:08:14Z</time></trkpt><trkpt lat="59.0751171112" lon="29.9940490723"><time>2026-04-25T16:08:17Z</time></trkpt><trkpt lat="59.0751171112" lon="29.9940490723"><time>2026-04-25T16:08:19Z</time></trkpt><trkpt lat="59.0751171112" lon="29.9940490723"><time>2026-04-25T16:08:22Z</time></trkpt><trkpt lat="59.0751171112" lon="29.9940490723"><time>2026-04-25T16:08:24Z</time></trkpt><trkpt lat="59.0751171112" lon="29.9940490723"><time>2026-04-25T16:08:27Z</time></trkpt><trkpt lat="59.0751171112" lon="29.9940490723"><time>2026-04-25T16:08:29Z</time></trkpt><trkpt lat="59.0751171112" lon="29.9940490723"><time>2026-04-25T16:08:32Z</time></trkpt><trkpt lat="59.0751171112" lon="29.9940490723"><time>2026-04-25T16:08:34Z</time></trkpt><trkpt lat="59.0751171112" lon="29.9940490723"><time>2026-04-25T16:08:37Z</time></trkpt><trkpt lat="59.0751171112" lon="29.9940490723"><time>2026-04-25T16:08:39Z</time></trkpt><trkpt lat="59.0750956535" lon="29.9940490723"><time>2026-04-25T16:08:42Z</time></trkpt><trkpt lat="59.0750741959" lon="29.9940705299"><time>2026-04-25T16:08:44Z</time></trkpt><trkpt lat="59.0750527382" lon="29.9940705299"><time>2026-04-25T16:08:47Z</time></trkpt><trkpt lat="59.0750527382" lon="29.9940705299"><time>2026-04-25T16:08:49Z</time></trkpt><trkpt lat="59.0750527382" lon="29.9940919876"><time>2026-04-25T16:08:52Z</time></trkpt><trkpt lat="59.0750312805" lon="29.9940919876"><time>2026-04-25T16:08:54Z</time></trkpt><trkpt lat="59.0750098228" lon="29.9940919876"><time>2026-04-25T16:08:57Z</time></trkpt><trkpt lat="59.0750098228" lon="29.9940919876"><time>2026-04-25T16:08:59Z</time></trkpt><trkpt lat="59.0750098228" lon="29.9940919876"><time>2026-04-25T16:09:02Z</time></trkpt><trkpt lat="59.0749883652" lon="29.9941134453"><time>2026-04-25T16:09:04Z</time></trkpt><trkpt lat="59.0749669075" lon="29.9940919876"><time>2026-04-25T16:09:07Z</time></trkpt><trkpt lat="59.0749883652" lon="29.9940490723"><time>2026-04-25T16:09:09Z</time></trkpt><trkpt lat="59.0749883652" lon="29.9940276146"><time>2026-04-25T16:09:12Z</time></trkpt><trkpt lat="59.0749883652" lon="29.9940061569"><time>2026-04-25T16:09:14Z</time></trkpt><trkpt lat="59.0749883652" lon="29.9939632416"><time>2026-04-25T16:09:17Z</time></trkpt><trkpt lat="59.0750098228" lon="29.9938774109"><time>2026-04-25T16:09:19Z</time></trkpt><trkpt lat="59.0750527382" lon="29.9937915802"><time>2026-04-25T16:09:22Z</time></trkpt><trkpt lat="59.0750956535" lon="29.9936842918"><time>2026-04-25T16:09:24Z</time></trkpt><trkpt lat="59.0750741959" lon="29.9935984612"><time>2026-04-25T16:09:27Z</time></trkpt><trkpt lat="59.0750956535" lon="29.9935126305"><time>2026-04-25T16:09:29Z</time></trkpt><trkpt lat="59.0751171112" lon="29.9934267998"><time>2026-04-25T16:09:32Z</time></trkpt><trkpt lat="59.0751171112" lon="29.9933195114"><time>2026-04-25T16:09:34Z</time></trkpt><trkpt lat="59.0751385689" lon="29.9932551384"><time>2026-04-25T16:09:37Z</time></trkpt><trkpt lat="59.0751600266" lon="29.9931907654"><time>2026-04-25T16:09:39Z</time></trkpt><trkpt lat="59.0751600266" lon="29.9931478500"><time>2026-04-25T16:09:42Z</time></trkpt><trkpt lat="59.0751600266" lon="29.9930620193"><time>2026-04-25T16:09:44Z</time></trkpt><trkpt lat="59.0751385689" lon="29.9930191040"><time>2026-04-25T16:09:47Z</time></trkpt><trkpt lat="59.0751171112" lon="29.9929332733"><time>2026-04-25T16:09:49Z</time></trkpt><trkpt lat="59.0750956535" lon="29.9928689003"><time>2026-04-25T16:09:52Z</time></trkpt><trkpt lat="59.0750527382" lon="29.9927830696"><time>2026-04-25T16:09:54Z</time></trkpt><trkpt lat="59.0750527382" lon="29.9927186966"><time>2026-04-25T16:09:57Z</time></trkpt><trkpt lat="59.0750527382" lon="29.9926114082"><time>2026-04-25T16:09:59Z</time></trkpt><trkpt lat="59.0750741959" lon="29.9925899506"><time>2026-04-25T16:10:02Z</time></trkpt><trkpt lat="59.0751171112" lon="29.9925684929"><time>2026-04-25T16:10:04Z</time></trkpt><trkpt lat="59.0751385689" lon="29.9925470352"><time>2026-04-25T16:10:07Z</time></trkpt><trkpt lat="59.0751600266" lon="29.9924826622"><time>2026-04-25T16:10:09Z</time></trkpt><trkpt lat="59.0751600266" lon="29.9924826622"><time>2026-04-25T16:10:12Z</time></trkpt><trkpt lat="59.0751600266" lon="29.9924826622"><time>2026-04-25T16:10:14Z</time></trkpt><trkpt lat="59.0751600266" lon="29.9924397469"><time>2026-04-25T16:10:17Z</time></trkpt><trkpt lat="59.0751600266" lon="29.9924397469"><time>2026-04-25T16:10:19Z</time></trkpt><trkpt lat="59.0751600266" lon="29.9924397469"><time>2026-04-25T16:10:22Z</time></trkpt><trkpt lat="59.0751600266" lon="29.9924397469"><time>2026-04-25T16:10:24Z</time></trkpt><trkpt lat="59.0751600266" lon="29.9924397469"><time>2026-04-25T16:10:27Z</time></trkpt><trkpt lat="59.0751814842" lon="29.9924182892"><time>2026-04-25T16:10:29Z</time></trkpt><trkpt lat="59.0751814842" lon="29.9924182892"><time>2026-04-25T16:10:32Z</time></trkpt><trkpt lat="59.0752029419" lon="29.9924182892"><time>2026-04-25T16:10:34Z</time></trkpt><trkpt lat="59.0752243996" lon="29.9924397469"><time>2026-04-25T16:10:37Z</time></trkpt><trkpt lat="59.0752458572" lon="29.9924826622"><time>2026-04-25T16:10:39Z</time></trkpt><trkpt lat="59.0752673149" lon="29.9925041199"><time>2026-04-25T16:10:42Z</time></trkpt><trkpt lat="59.0752673149" lon="29.9924397469"><time>2026-04-25T16:10:44Z</time></trkpt><trkpt lat="59.0752673149" lon="29.9923968315"><time>2026-04-25T16:10:47Z</time></trkpt><trkpt lat="59.0752673149" lon="29.9923324585"><time>2026-04-25T16:10:49Z</time></trkpt><trkpt lat="59.0752673149" lon="29.9922895432"><time>2026-04-25T16:10:52Z</time></trkpt><trkpt lat="59.0752243996" lon="29.9922680855"><time>2026-04-25T16:10:54Z</time></trkpt><trkpt lat="59.0752029419" lon="29.9922037125"><time>2026-04-25T16:10:57Z</time></trkpt><trkpt lat="59.0751814842" lon="29.9921393394"><time>2026-04-25T16:10:59Z</time></trkpt><trkpt lat="59.0751814842" lon="29.9921393394"><time>2026-04-25T16:11:02Z</time></trkpt><trkpt lat="59.0751600266" lon="29.9921607971"><time>2026-04-25T16:11:04Z</time></trkpt><trkpt lat="59.0751385689" lon="29.9921393394"><time>2026-04-25T16:11:07Z</time></trkpt><trkpt lat="59.0751385689" lon="29.9921178818"><time>2026-04-25T16:11:09Z</time></trkpt><trkpt lat="59.0751171112" lon="29.9920749664"><time>2026-04-25T16:11:12Z</time></trkpt><trkpt lat="59.0751171112" lon="29.9920320511"><time>2026-04-25T16:11:14Z</time></trkpt><trkpt lat="59.0751171112" lon="29.9920320511"><time>2026-04-25T16:11:17Z</time></trkpt><trkpt lat="59.0751171112" lon="29.9919676781"><time>2026-04-25T16:11:19Z</time></trkpt><trkpt lat="59.0751385689" lon="29.9919033051"><time>2026-04-25T16:11:22Z</time></trkpt><trkpt lat="59.0751600266" lon="29.9918174744"><time>2026-04-25T16:11:24Z</time></trkpt><trkpt lat="59.0751814842" lon="29.9917745590"><time>2026-04-25T16:11:27Z</time></trkpt><trkpt lat="59.0751814842" lon="29.9916887283"><time>2026-04-25T16:11:29Z</time></trkpt><trkpt lat="59.0751600266" lon="29.9916458130"><time>2026-04-25T16:11:32Z</time></trkpt><trkpt lat="59.0751814842" lon="29.9915599823"><time>2026-04-25T16:11:34Z</time></trkpt><trkpt lat="59.0751814842" lon="29.9915385246"><time>2026-04-25T16:11:37Z</time></trkpt><trkpt lat="59.0751814842" lon="29.9915170670"><time>2026-04-25T16:11:39Z</time></trkpt><trkpt lat="59.0752029419" lon="29.9914956093"><time>2026-04-25T16:11:42Z</time></trkpt><trkpt lat="59.0752243996" lon="29.9914526939"><time>2026-04-25T16:11:44Z</time></trkpt><trkpt lat="59.0752243996" lon="29.9914526939"><time>2026-04-25T16:11:47Z</time></trkpt><trkpt lat="59.0752243996" lon="29.9914526939"><time>2026-04-25T16:11:49Z</time></trkpt><trkpt lat="59.0752243996" lon="29.9914526939"><time>2026-04-25T16:11:52Z</time></trkpt><trkpt lat="59.0752243996" lon="29.9914526939"><time>2026-04-25T16:11:54Z</time></trkpt><trkpt lat="59.0752243996" lon="29.9914526939"><time>2026-04-25T16:11:57Z</time></trkpt><trkpt lat="59.0752243996" lon="29.9914526939"><time>2026-04-25T16:11:59Z</time></trkpt><trkpt lat="59.0752243996" lon="29.9914526939"><time>2026-04-25T16:12:02Z</time></trkpt><trkpt lat="59.0752029419" lon="29.9914526939"><time>2026-04-25T16:12:04Z</time></trkpt><trkpt lat="59.0751600266" lon="29.9914312363"><time>2026-04-25T16:12:07Z</time></trkpt><trkpt lat="59.0751171112" lon="29.9913883209"><time>2026-04-25T16:12:09Z</time></trkpt><trkpt lat="59.0750741959" lon="29.9913883209"><time>2026-04-25T16:12:12Z</time></trkpt><trkpt lat="59.0750312805" lon="29.9913883209"><time>2026-04-25T16:12:14Z</time></trkpt><trkpt lat="59.0750098228" lon="29.9914097786"><time>2026-04-25T16:12:17Z</time></trkpt><trkpt lat="59.0749883652" lon="29.9914312363"><time>2026-04-25T16:12:19Z</time></trkpt><trkpt lat="59.0749669075" lon="29.9914741516"><time>2026-04-25T16:12:22Z</time></trkpt><trkpt lat="59.0749239922" lon="29.9915385246"><time>2026-04-25T16:12:24Z</time></trkpt><trkpt lat="59.0749025345" lon="29.9915599823"><time>2026-04-25T16:12:27Z</time></trkpt><trkpt lat="59.0748810768" lon="29.9916243553"><time>2026-04-25T16:12:29Z</time></trkpt><trkpt lat="59.0748810768" lon="29.9916672707"><time>2026-04-25T16:12:32Z</time></trkpt><trkpt lat="59.0748596191" lon="29.9917101860"><time>2026-04-25T16:12:34Z</time></trkpt><trkpt lat="59.0748596191" lon="29.9917101860"><time>2026-04-25T16:12:37Z</time></trkpt><trkpt lat="59.0748381615" lon="29.9917316437"><time>2026-04-25T16:12:39Z</time></trkpt><trkpt lat="59.0747952461" lon="29.9917531013"><time>2026-04-25T16:12:42Z</time></trkpt><trkpt lat="59.0747737885" lon="29.9917960167"><time>2026-04-25T16:12:44Z</time></trkpt><trkpt lat="59.0747523308" lon="29.9917960167"><time>2026-04-25T16:12:47Z</time></trkpt><trkpt lat="59.0747094154" lon="29.9917960167"><time>2026-04-25T16:12:49Z</time></trkpt><trkpt lat="59.0746879578" lon="29.9918389320"><time>2026-04-25T16:12:52Z</time></trkpt><trkpt lat="59.0746879578" lon="29.9918818474"><time>2026-04-25T16:12:54Z</time></trkpt><trkpt lat="59.0746665001" lon="29.9918818474"><time>2026-04-25T16:12:57Z</time></trkpt><trkpt lat="59.0746450424" lon="29.9918818474"><time>2026-04-25T16:12:59Z</time></trkpt><trkpt lat="59.0746235847" lon="29.9918818474"><time>2026-04-25T16:13:02Z</time></trkpt><trkpt lat="59.0746021271" lon="29.9919033051"><time>2026-04-25T16:13:04Z</time></trkpt><trkpt lat="59.0746021271" lon="29.9919033051"><time>2026-04-25T16:13:07Z</time></trkpt><trkpt lat="59.0746021271" lon="29.9919462204"><time>2026-04-25T16:13:09Z</time></trkpt><trkpt lat="59.0746021271" lon="29.9919891357"><time>2026-04-25T16:13:12Z</time></trkpt><trkpt lat="59.0745806694" lon="29.9920535088"><time>2026-04-25T16:13:14Z</time></trkpt><trkpt lat="59.0745592117" lon="29.9920749664"><time>2026-04-25T16:13:17Z</time></trkpt><trkpt lat="59.0745592117" lon="29.9921178818"><time>2026-04-25T16:13:19Z</time></trkpt><trkpt lat="59.0745377541" lon="29.9921607971"><time>2026-04-25T16:13:22Z</time></trkpt><trkpt lat="59.0745162964" lon="29.9921607971"><time>2026-04-25T16:13:24Z</time></trkpt><trkpt lat="59.0745162964" lon="29.9921607971"><time>2026-04-25T16:13:27Z</time></trkpt><trkpt lat="59.0745162964" lon="29.9921607971"><time>2026-04-25T16:13:29Z</time></trkpt><trkpt lat="59.0745162964" lon="29.9921607971"><time>2026-04-25T16:13:32Z</time></trkpt><trkpt lat="59.0744948387" lon="29.9921607971"><time>2026-04-25T16:13:34Z</time></trkpt><trkpt lat="59.0744733810" lon="29.9921822548"><time>2026-04-25T16:13:37Z</time></trkpt><trkpt lat="59.0744733810" lon="29.9921822548"><time>2026-04-25T16:13:39Z</time></trkpt><trkpt lat="59.0744733810" lon="29.9921822548"><time>2026-04-25T16:13:42Z</time></trkpt><trkpt lat="59.0744519234" lon="29.9922037125"><time>2026-04-25T16:13:44Z</time></trkpt><trkpt lat="59.0744304657" lon="29.9922251701"><time>2026-04-25T16:13:47Z</time></trkpt><trkpt lat="59.0743875504" lon="29.9922466278"><time>2026-04-25T16:13:49Z</time></trkpt><trkpt lat="59.0743660927" lon="29.9922251701"><time>2026-04-25T16:13:52Z</time></trkpt><trkpt lat="59.0743446350" lon="29.9922037125"><time>2026-04-25T16:13:54Z</time></trkpt><trkpt lat="59.0743231773" lon="29.9921607971"><time>2026-04-25T16:13:57Z</time></trkpt><trkpt lat="59.0742802620" lon="29.9921607971"><time>2026-04-25T16:13:59Z</time></trkpt><trkpt lat="59.0742588043" lon="29.9921607971"><time>2026-04-25T16:14:02Z</time></trkpt><trkpt lat="59.0742158890" lon="29.9922251701"><time>2026-04-25T16:14:04Z</time></trkpt><trkpt lat="59.0741729736" lon="29.9922251701"><time>2026-04-25T16:14:07Z</time></trkpt><trkpt lat="59.0741300583" lon="29.9922466278"><time>2026-04-25T16:14:09Z</time></trkpt><trkpt lat="59.0741300583" lon="29.9922466278"><time>2026-04-25T16:14:12Z</time></trkpt><trkpt lat="59.0741300583" lon="29.9922466278"><time>2026-04-25T16:14:14Z</time></trkpt><trkpt lat="59.0741086006" lon="29.9922680855"><time>2026-04-25T16:14:17Z</time></trkpt><trkpt lat="59.0740442276" lon="29.9922895432"><time>2026-04-25T16:14:19Z</time></trkpt><trkpt lat="59.0740227699" lon="29.9923110008"><time>2026-04-25T16:14:22Z</time></trkpt><trkpt lat="59.0739583969" lon="29.9922895432"><time>2026-04-25T16:14:24Z</time></trkpt><trkpt lat="59.0738940239" lon="29.9923110008"><time>2026-04-25T16:14:27Z</time></trkpt><trkpt lat="59.0738511086" lon="29.9923110008"><time>2026-04-25T16:14:29Z</time></trkpt><trkpt lat="59.0738081932" lon="29.9922895432"><time>2026-04-25T16:14:32Z</time></trkpt><trkpt lat="59.0737867355" lon="29.9922680855"><time>2026-04-25T16:14:34Z</time></trkpt><trkpt lat="59.0737867355" lon="29.9922466278"><time>2026-04-25T16:14:37Z</time></trkpt><trkpt lat="59.0738296509" lon="29.9922251701"><time>2026-04-25T16:14:39Z</time></trkpt><trkpt lat="59.0738725662" lon="29.9921393394"><time>2026-04-25T16:14:42Z</time></trkpt><trkpt lat="59.0738725662" lon="29.9920749664"><time>2026-04-25T16:14:44Z</time></trkpt><trkpt lat="59.0738940239" lon="29.9920105934"><time>2026-04-25T16:14:47Z</time></trkpt><trkpt lat="59.0739154816" lon="29.9919891357"><time>2026-04-25T16:14:49Z</time></trkpt><trkpt lat="59.0739583969" lon="29.9920105934"><time>2026-04-25T16:14:52Z</time></trkpt><trkpt lat="59.0740227699" lon="29.9919462204"><time>2026-04-25T16:14:54Z</time></trkpt><trkpt lat="59.0740656853" lon="29.9919676781"><time>2026-04-25T16:14:57Z</time></trkpt><trkpt lat="59.0741300583" lon="29.9919676781"><time>2026-04-25T16:14:59Z</time></trkpt><trkpt lat="59.0741515160" lon="29.9919891357"><time>2026-04-25T16:15:02Z</time></trkpt><trkpt lat="59.0741515160" lon="29.9919891357"><time>2026-04-25T16:15:04Z</time></trkpt><trkpt lat="59.0741515160" lon="29.9919891357"><time>2026-04-25T16:15:07Z</time></trkpt><trkpt lat="59.0741729736" lon="29.9920964241"><time>2026-04-25T16:15:09Z</time></trkpt><trkpt lat="59.0741944313" lon="29.9921607971"><time>2026-04-25T16:15:12Z</time></trkpt><trkpt lat="59.0742588043" lon="29.9922466278"><time>2026-04-25T16:15:14Z</time></trkpt><trkpt lat="59.0743017197" lon="29.9922895432"><time>2026-04-25T16:15:17Z</time></trkpt><trkpt lat="59.0743446350" lon="29.9924182892"><time>2026-04-25T16:15:19Z</time></trkpt><trkpt lat="59.0743660927" lon="29.9925255775"><time>2026-04-25T16:15:22Z</time></trkpt><trkpt lat="59.0743660927" lon="29.9926543236"><time>2026-04-25T16:15:24Z</time></trkpt><trkpt lat="59.0743660927" lon="29.9927401543"><time>2026-04-25T16:15:27Z</time></trkpt><trkpt lat="59.0743660927" lon="29.9928259850"><time>2026-04-25T16:15:29Z</time></trkpt><trkpt lat="59.0743660927" lon="29.9928689003"><time>2026-04-25T16:15:32Z</time></trkpt><trkpt lat="59.0743446350" lon="29.9929118156"><time>2026-04-25T16:15:34Z</time></trkpt><trkpt lat="59.0743231773" lon="29.9929332733"><time>2026-04-25T16:15:37Z</time></trkpt><trkpt lat="59.0743017197" lon="29.9929547310"><time>2026-04-25T16:15:39Z</time></trkpt><trkpt lat="59.0743017197" lon="29.9929761887"><time>2026-04-25T16:15:42Z</time></trkpt><trkpt lat="59.0742802620" lon="29.9929976463"><time>2026-04-25T16:15:44Z</time></trkpt><trkpt lat="59.0742802620" lon="29.9929761887"><time>2026-04-25T16:15:47Z</time></trkpt><trkpt lat="59.0742373466" lon="29.9929118156"><time>2026-04-25T16:15:49Z</time></trkpt><trkpt lat="59.0742158890" lon="29.9928903580"><time>2026-04-25T16:15:52Z</time></trkpt><trkpt lat="59.0742158890" lon="29.9928474426"><time>2026-04-25T16:15:54Z</time></trkpt><trkpt lat="59.0741944313" lon="29.9928259850"><time>2026-04-25T16:15:57Z</time></trkpt><trkpt lat="59.0741515160" lon="29.9928474426"><time>2026-04-25T16:15:59Z</time></trkpt><trkpt lat="59.0741300583" lon="29.9928474426"><time>2026-04-25T16:16:02Z</time></trkpt><trkpt lat="59.0740871429" lon="29.9928689003"><time>2026-04-25T16:16:04Z</time></trkpt><trkpt lat="59.0740656853" lon="29.9928689003"><time>2026-04-25T16:16:07Z</time></trkpt><trkpt lat="59.0740656853" lon="29.9928474426"><time>2026-04-25T16:16:09Z</time></trkpt><trkpt lat="59.0740442276" lon="29.9928045273"><time>2026-04-25T16:16:12Z</time></trkpt><trkpt lat="59.0740227699" lon="29.9927830696"><time>2026-04-25T16:16:14Z</time></trkpt><trkpt lat="59.0740013123" lon="29.9928045273"><time>2026-04-25T16:16:17Z</time></trkpt><trkpt lat="59.0739798546" lon="29.9928474426"><time>2026-04-25T16:16:19Z</time></trkpt><trkpt lat="59.0740013123" lon="29.9928474426"><time>2026-04-25T16:16:22Z</time></trkpt><trkpt lat="59.0739798546" lon="29.9928689003"><time>2026-04-25T16:16:24Z</time></trkpt><trkpt lat="59.0739798546" lon="29.9928689003"><time>2026-04-25T16:16:27Z</time></trkpt><trkpt lat="59.0740013123" lon="29.9928689003"><time>2026-04-25T16:16:29Z</time></trkpt><trkpt lat="59.0740442276" lon="29.9928903580"><time>2026-04-25T16:16:32Z</time></trkpt><trkpt lat="59.0740871429" lon="29.9929332733"><time>2026-04-25T16:16:34Z</time></trkpt><trkpt lat="59.0740871429" lon="29.9929547310"><time>2026-04-25T16:16:37Z</time></trkpt><trkpt lat="59.0740871429" lon="29.9929547310"><time>2026-04-25T16:16:39Z</time></trkpt><trkpt lat="59.0740871429" lon="29.9929976463"><time>2026-04-25T16:16:42Z</time></trkpt><trkpt lat="59.0740871429" lon="29.9929976463"><time>2026-04-25T16:16:44Z</time></trkpt><trkpt lat="59.0741086006" lon="29.9930834770"><time>2026-04-25T16:16:47Z</time></trkpt><trkpt lat="59.0741515160" lon="29.9931693077"><time>2026-04-25T16:16:49Z</time></trkpt><trkpt lat="59.0742373466" lon="29.9932551384"><time>2026-04-25T16:16:52Z</time></trkpt><trkpt lat="59.0742588043" lon="29.9933195114"><time>2026-04-25T16:16:54Z</time></trkpt><trkpt lat="59.0743231773" lon="29.9933838844"><time>2026-04-25T16:16:57Z</time></trkpt><trkpt lat="59.0743660927" lon="29.9934053421"><time>2026-04-25T16:16:59Z</time></trkpt><trkpt lat="59.0744090080" lon="29.9935126305"><time>2026-04-25T16:17:02Z</time></trkpt><trkpt lat="59.0744090080" lon="29.9935770035"><time>2026-04-25T16:17:04Z</time></trkpt><trkpt lat="59.0744090080" lon="29.9936842918"><time>2026-04-25T16:17:07Z</time></trkpt><trkpt lat="59.0744090080" lon="29.9937701225"><time>2026-04-25T16:17:09Z</time></trkpt><trkpt lat="59.0744304657" lon="29.9938559532"><time>2026-04-25T16:17:12Z</time></trkpt><trkpt lat="59.0744519234" lon="29.9939203262"><time>2026-04-25T16:17:14Z</time></trkpt><trkpt lat="59.0744733810" lon="29.9939632416"><time>2026-04-25T16:17:17Z</time></trkpt><trkpt lat="59.0744733810" lon="29.9939846992"><time>2026-04-25T16:17:19Z</time></trkpt><trkpt lat="59.0744733810" lon="29.9939846992"><time>2026-04-25T16:17:22Z</time></trkpt><trkpt lat="59.0744733810" lon="29.9939846992"><time>2026-04-25T16:17:24Z</time></trkpt><trkpt lat="59.0744948387" lon="29.9940490723"><time>2026-04-25T16:17:27Z</time></trkpt><trkpt lat="59.0744948387" lon="29.9940919876"><time>2026-04-25T16:17:29Z</time></trkpt><trkpt lat="59.0745162964" lon="29.9941778183"><time>2026-04-25T16:17:32Z</time></trkpt><trkpt lat="59.0745162964" lon="29.9942636490"><time>2026-04-25T16:17:34Z</time></trkpt><trkpt lat="59.0744948387" lon="29.9942851067"><time>2026-04-25T16:17:37Z</time></trkpt><trkpt lat="59.0744733810" lon="29.9943280220"><time>2026-04-25T16:17:39Z</time></trkpt><trkpt lat="59.0744733810" lon="29.9943494797"><time>2026-04-25T16:17:42Z</time></trkpt><trkpt lat="59.0744733810" lon="29.9943494797"><time>2026-04-25T16:17:44Z</time></trkpt><trkpt lat="59.0744733810" lon="29.9943494797"><time>2026-04-25T16:17:47Z</time></trkpt><trkpt lat="59.0744733810" lon="29.9943494797"><time>2026-04-25T16:17:49Z</time></trkpt><trkpt lat="59.0744733810" lon="29.9943494797"><time>2026-04-25T16:17:52Z</time></trkpt><trkpt lat="59.0744733810" lon="29.9943494797"><time>2026-04-25T16:17:54Z</time></trkpt><trkpt lat="59.0744733810" lon="29.9943494797"><time>2026-04-25T16:17:57Z</time></trkpt><trkpt lat="59.0744733810" lon="29.9943494797"><time>2026-04-25T16:17:59Z</time></trkpt><trkpt lat="59.0744733810" lon="29.9943494797"><time>2026-04-25T16:18:02Z</time></trkpt><trkpt lat="59.0744733810" lon="29.9943494797"><time>2026-04-25T16:18:04Z</time></trkpt><trkpt lat="59.0744733810" lon="29.9943494797"><time>2026-04-25T16:18:07Z</time></trkpt><trkpt lat="59.0745162964" lon="29.9943709373"><time>2026-04-25T16:18:09Z</time></trkpt><trkpt lat="59.0745162964" lon="29.9943709373"><time>2026-04-25T16:18:12Z</time></trkpt><trkpt lat="59.0744733810" lon="29.9944353104"><time>2026-04-25T16:18:14Z</time></trkpt><trkpt lat="59.0744733810" lon="29.9944567680"><time>2026-04-25T16:18:17Z</time></trkpt><trkpt lat="59.0744948387" lon="29.9945211411"><time>2026-04-25T16:18:19Z</time></trkpt><trkpt lat="59.0744948387" lon="29.9945425987"><time>2026-04-25T16:18:22Z</time></trkpt><trkpt lat="59.0745162964" lon="29.9945640564"><time>2026-04-25T16:18:24Z</time></trkpt><trkpt lat="59.0745592117" lon="29.9946069717"><time>2026-04-25T16:18:27Z</time></trkpt><trkpt lat="59.0745377541" lon="29.9946713448"><time>2026-04-25T16:18:29Z</time></trkpt><trkpt lat="59.0745377541" lon="29.9947357178"><time>2026-04-25T16:18:32Z</time></trkpt><trkpt lat="59.0745162964" lon="29.9948000908"><time>2026-04-25T16:18:34Z</time></trkpt><trkpt lat="59.0744948387" lon="29.9948215485"><time>2026-04-25T16:18:37Z</time></trkpt><trkpt lat="59.0744733810" lon="29.9948215485"><time>2026-04-25T16:18:39Z</time></trkpt><trkpt lat="59.0744519234" lon="29.9948430061"><time>2026-04-25T16:18:42Z</time></trkpt><trkpt lat="59.0744304657" lon="29.9948859215"><time>2026-04-25T16:18:44Z</time></trkpt><trkpt lat="59.0744090080" lon="29.9949073792"><time>2026-04-25T16:18:47Z</time></trkpt><trkpt lat="59.0743875504" lon="29.9949717522"><time>2026-04-25T16:18:49Z</time></trkpt><trkpt lat="59.0743875504" lon="29.9950146675"><time>2026-04-25T16:18:52Z</time></trkpt><trkpt lat="59.0743875504" lon="29.9950575829"><time>2026-04-25T16:18:54Z</time></trkpt><trkpt lat="59.0743875504" lon="29.9951004982"><time>2026-04-25T16:18:57Z</time></trkpt><trkpt lat="59.0743875504" lon="29.9951434135"><time>2026-04-25T16:18:59Z</time></trkpt><trkpt lat="59.0744090080" lon="29.9952077866"><time>2026-04-25T16:19:02Z</time></trkpt><trkpt lat="59.0744090080" lon="29.9952507019"><time>2026-04-25T16:19:04Z</time></trkpt><trkpt lat="59.0744090080" lon="29.9952721596"><time>2026-04-25T16:19:07Z</time></trkpt><trkpt lat="59.0744304657" lon="29.9952721596"><time>2026-04-25T16:19:09Z</time></trkpt><trkpt lat="59.0744519234" lon="29.9953150749"><time>2026-04-25T16:19:12Z</time></trkpt><trkpt lat="59.0744733810" lon="29.9953365326"><time>2026-04-25T16:19:14Z</time></trkpt><trkpt lat="59.0744948387" lon="29.9953579903"><time>2026-04-25T16:19:17Z</time></trkpt><trkpt lat="59.0745162964" lon="29.9953579903"><time>2026-04-25T16:19:19Z</time></trkpt><trkpt lat="59.0745162964" lon="29.9953579903"><time>2026-04-25T16:19:22Z</time></trkpt><trkpt lat="59.0745592117" lon="29.9954009056"><time>2026-04-25T16:19:24Z</time></trkpt><trkpt lat="59.0745592117" lon="29.9954652786"><time>2026-04-25T16:19:27Z</time></trkpt><trkpt lat="59.0745377541" lon="29.9954652786"><time>2026-04-25T16:19:29Z</time></trkpt><trkpt lat="59.0745377541" lon="29.9954652786"><time>2026-04-25T16:19:32Z</time></trkpt><trkpt lat="59.0745377541" lon="29.9954652786"><time>2026-04-25T16:19:34Z</time></trkpt><trkpt lat="59.0745377541" lon="29.9954652786"><time>2026-04-25T16:19:37Z</time></trkpt><trkpt lat="59.0745377541" lon="29.9954867363"><time>2026-04-25T16:19:39Z</time></trkpt><trkpt lat="59.0745377541" lon="29.9955081940"><time>2026-04-25T16:19:42Z</time></trkpt><trkpt lat="59.0745592117" lon="29.9955511093"><time>2026-04-25T16:19:44Z</time></trkpt><trkpt lat="59.0745592117" lon="29.9955940247"><time>2026-04-25T16:19:47Z</time></trkpt><trkpt lat="59.0745592117" lon="29.9956583977"><time>2026-04-25T16:19:49Z</time></trkpt><trkpt lat="59.0745592117" lon="29.9957013130"><time>2026-04-25T16:19:52Z</time></trkpt><trkpt lat="59.0745377541" lon="29.9957442284"><time>2026-04-25T16:19:54Z</time></trkpt><trkpt lat="59.0745592117" lon="29.9957656860"><time>2026-04-25T16:19:57Z</time></trkpt><trkpt lat="59.0745592117" lon="29.9957656860"><time>2026-04-25T16:19:59Z</time></trkpt><trkpt lat="59.0745806694" lon="29.9957656860"><time>2026-04-25T16:20:02Z</time></trkpt><trkpt lat="59.0746021271" lon="29.9958086014"><time>2026-04-25T16:20:04Z</time></trkpt><trkpt lat="59.0746021271" lon="29.9958300591"><time>2026-04-25T16:20:07Z</time></trkpt><trkpt lat="59.0746021271" lon="29.9958515167"><time>2026-04-25T16:20:09Z</time></trkpt><trkpt lat="59.0746021271" lon="29.9958515167"><time>2026-04-25T16:20:12Z</time></trkpt><trkpt lat="59.0746021271" lon="29.9958515167"><time>2026-04-25T16:20:14Z</time></trkpt><trkpt lat="59.0746021271" lon="29.9958515167"><time>2026-04-25T16:20:17Z</time></trkpt><trkpt lat="59.0746021271" lon="29.9958515167"><time>2026-04-25T16:20:19Z</time></trkpt><trkpt lat="59.0746021271" lon="29.9958515167"><time>2026-04-25T16:20:22Z</time></trkpt><trkpt lat="59.0746021271" lon="29.9958515167"><time>2026-04-25T16:20:24Z</time></trkpt><trkpt lat="59.0746021271" lon="29.9958515167"><time>2026-04-25T16:20:27Z</time></trkpt><trkpt lat="59.0746021271" lon="29.9958944321"><time>2026-04-25T16:20:29Z</time></trkpt><trkpt lat="59.0745806694" lon="29.9959373474"><time>2026-04-25T16:20:32Z</time></trkpt><trkpt lat="59.0745806694" lon="29.9960017204"><time>2026-04-25T16:20:34Z</time></trkpt><trkpt lat="59.0745806694" lon="29.9960446358"><time>2026-04-25T16:20:37Z</time></trkpt><trkpt lat="59.0745806694" lon="29.9960875511"><time>2026-04-25T16:20:39Z</time></trkpt><trkpt lat="59.0745806694" lon="29.9961090088"><time>2026-04-25T16:20:42Z</time></trkpt><trkpt lat="59.0745806694" lon="29.9961519241"><time>2026-04-25T16:20:44Z</time></trkpt><trkpt lat="59.0745806694" lon="29.9961948395"><time>2026-04-25T16:20:47Z</time></trkpt><trkpt lat="59.0746021271" lon="29.9961948395"><time>2026-04-25T16:20:49Z</time></trkpt><trkpt lat="59.0746021271" lon="29.9962162971"><time>2026-04-25T16:20:52Z</time></trkpt><trkpt lat="59.0746021271" lon="29.9962592125"><time>2026-04-25T16:20:54Z</time></trkpt><trkpt lat="59.0746021271" lon="29.9962806702"><time>2026-04-25T16:20:57Z</time></trkpt><trkpt lat="59.0746235847" lon="29.9963235855"><time>2026-04-25T16:20:59Z</time></trkpt><trkpt lat="59.0746235847" lon="29.9963665009"><time>2026-04-25T16:21:02Z</time></trkpt><trkpt lat="59.0746021271" lon="29.9963665009"><time>2026-04-25T16:21:04Z</time></trkpt><trkpt lat="59.0746021271" lon="29.9963665009"><time>2026-04-25T16:21:07Z</time></trkpt><trkpt lat="59.0746235847" lon="29.9964094162"><time>2026-04-25T16:21:09Z</time></trkpt><trkpt lat="59.0746235847" lon="29.9964952469"><time>2026-04-25T16:21:12Z</time></trkpt><trkpt lat="59.0746021271" lon="29.9965596199"><time>2026-04-25T16:21:14Z</time></trkpt><trkpt lat="59.0746021271" lon="29.9965810776"><time>2026-04-25T16:21:17Z</time></trkpt><trkpt lat="59.0746021271" lon="29.9966239929"><time>2026-04-25T16:21:19Z</time></trkpt><trkpt lat="59.0746021271" lon="29.9966454506"><time>2026-04-25T16:21:22Z</time></trkpt><trkpt lat="59.0746235847" lon="29.9967098236"><time>2026-04-25T16:21:24Z</time></trkpt><trkpt lat="59.0746235847" lon="29.9967098236"><time>2026-04-25T16:21:27Z</time></trkpt><trkpt lat="59.0746235847" lon="29.9967527390"><time>2026-04-25T16:21:29Z</time></trkpt><trkpt lat="59.0746235847" lon="29.9967741966"><time>2026-04-25T16:21:32Z</time></trkpt><trkpt lat="59.0746235847" lon="29.9967956543"><time>2026-04-25T16:21:34Z</time></trkpt><trkpt lat="59.0746450424" lon="29.9968385696"><time>2026-04-25T16:21:37Z</time></trkpt><trkpt lat="59.0746450424" lon="29.9968814850"><time>2026-04-25T16:21:39Z</time></trkpt><trkpt lat="59.0746665001" lon="29.9969244003"><time>2026-04-25T16:21:42Z</time></trkpt><trkpt lat="59.0746450424" lon="29.9969673157"><time>2026-04-25T16:21:44Z</time></trkpt><trkpt lat="59.0746450424" lon="29.9969887733"><time>2026-04-25T16:21:47Z</time></trkpt><trkpt lat="59.0746235847" lon="29.9969887733"><time>2026-04-25T16:21:49Z</time></trkpt><trkpt lat="59.0746235847" lon="29.9970102310"><time>2026-04-25T16:21:52Z</time></trkpt><trkpt lat="59.0746235847" lon="29.9970960617"><time>2026-04-25T16:21:54Z</time></trkpt><trkpt lat="59.0746235847" lon="29.9971389771"><time>2026-04-25T16:21:57Z</time></trkpt><trkpt lat="59.0746021271" lon="29.9972033501"><time>2026-04-25T16:21:59Z</time></trkpt><trkpt lat="59.0746021271" lon="29.9972248077"><time>2026-04-25T16:22:02Z</time></trkpt><trkpt lat="59.0745592117" lon="29.9972891808"><time>2026-04-25T16:22:04Z</time></trkpt><trkpt lat="59.0745592117" lon="29.9973320961"><time>2026-04-25T16:22:07Z</time></trkpt><trkpt lat="59.0745592117" lon="29.9973535538"><time>2026-04-25T16:22:09Z</time></trkpt><trkpt lat="59.0745592117" lon="29.9973535538"><time>2026-04-25T16:22:12Z</time></trkpt><trkpt lat="59.0745592117" lon="29.9973964691"><time>2026-04-25T16:22:14Z</time></trkpt><trkpt lat="59.0745592117" lon="29.9974179268"><time>2026-04-25T16:22:17Z</time></trkpt><trkpt lat="59.0745592117" lon="29.9974393845"><time>2026-04-25T16:22:19Z</time></trkpt><trkpt lat="59.0745377541" lon="29.9974608421"><time>2026-04-25T16:22:22Z</time></trkpt><trkpt lat="59.0745162964" lon="29.9974608421"><time>2026-04-25T16:22:24Z</time></trkpt><trkpt lat="59.0744948387" lon="29.9974822998"><time>2026-04-25T16:22:27Z</time></trkpt><trkpt lat="59.0744733810" lon="29.9974822998"><time>2026-04-25T16:22:29Z</time></trkpt><trkpt lat="59.0744519234" lon="29.9974608421"><time>2026-04-25T16:22:32Z</time></trkpt><trkpt lat="59.0744304657" lon="29.9974822998"><time>2026-04-25T16:22:34Z</time></trkpt><trkpt lat="59.0744304657" lon="29.9975037575"><time>2026-04-25T16:22:37Z</time></trkpt><trkpt lat="59.0744090080" lon="29.9975252151"><time>2026-04-25T16:22:39Z</time></trkpt><trkpt lat="59.0743660927" lon="29.9975252151"><time>2026-04-25T16:22:42Z</time></trkpt><trkpt lat="59.0743660927" lon="29.9975466728"><time>2026-04-25T16:22:44Z</time></trkpt><trkpt lat="59.0743446350" lon="29.9975681305"><time>2026-04-25T16:22:47Z</time></trkpt><trkpt lat="59.0743446350" lon="29.9976110458"><time>2026-04-25T16:22:49Z</time></trkpt><trkpt lat="59.0743660927" lon="29.9976754189"><time>2026-04-25T16:22:52Z</time></trkpt><trkpt lat="59.0743875504" lon="29.9977183342"><time>2026-04-25T16:22:54Z</time></trkpt><trkpt lat="59.0743875504" lon="29.9977397919"><time>2026-04-25T16:22:57Z</time></trkpt><trkpt lat="59.0743875504" lon="29.9978041649"><time>2026-04-25T16:22:59Z</time></trkpt><trkpt lat="59.0743875504" lon="29.9978470802"><time>2026-04-25T16:23:02Z</time></trkpt><trkpt lat="59.0744090080" lon="29.9978685379"><time>2026-04-25T16:23:04Z</time></trkpt><trkpt lat="59.0744090080" lon="29.9979114532"><time>2026-04-25T16:23:07Z</time></trkpt><trkpt lat="59.0744090080" lon="29.9979972839"><time>2026-04-25T16:23:09Z</time></trkpt><trkpt lat="59.0744090080" lon="29.9980401993"><time>2026-04-25T16:23:12Z</time></trkpt><trkpt lat="59.0744090080" lon="29.9981045723"><time>2026-04-25T16:23:14Z</time></trkpt><trkpt lat="59.0744090080" lon="29.9981260300"><time>2026-04-25T16:23:17Z</time></trkpt><trkpt lat="59.0744304657" lon="29.9981474876"><time>2026-04-25T16:23:19Z</time></trkpt><trkpt lat="59.0744304657" lon="29.9981689453"><time>2026-04-25T16:23:22Z</time></trkpt><trkpt lat="59.0744304657" lon="29.9982547760"><time>2026-04-25T16:23:24Z</time></trkpt><trkpt lat="59.0744304657" lon="29.9982976913"><time>2026-04-25T16:23:27Z</time></trkpt><trkpt lat="59.0744304657" lon="29.9983406067"><time>2026-04-25T16:23:29Z</time></trkpt><trkpt lat="59.0744304657" lon="29.9983835220"><time>2026-04-25T16:23:32Z</time></trkpt><trkpt lat="59.0744090080" lon="29.9984049797"><time>2026-04-25T16:23:34Z</time></trkpt><trkpt lat="59.0743875504" lon="29.9984049797"><time>2026-04-25T16:23:37Z</time></trkpt><trkpt lat="59.0743660927" lon="29.9984264374"><time>2026-04-25T16:23:39Z</time></trkpt><trkpt lat="59.0743660927" lon="29.9984478951"><time>2026-04-25T16:23:42Z</time></trkpt><trkpt lat="59.0743660927" lon="29.9984908104"><time>2026-04-25T16:23:44Z</time></trkpt><trkpt lat="59.0743446350" lon="29.9984908104"><time>2026-04-25T16:23:47Z</time></trkpt><trkpt lat="59.0743446350" lon="29.9984908104"><time>2026-04-25T16:23:49Z</time></trkpt><trkpt lat="59.0743446350" lon="29.9985122681"><time>2026-04-25T16:23:52Z</time></trkpt><trkpt lat="59.0743231773" lon="29.9985766411"><time>2026-04-25T16:23:54Z</time></trkpt><trkpt lat="59.0743231773" lon="29.9986195564"><time>2026-04-25T16:23:57Z</time></trkpt><trkpt lat="59.0743231773" lon="29.9987053871"><time>2026-04-25T16:23:59Z</time></trkpt><trkpt lat="59.0743231773" lon="29.9987053871"><time>2026-04-25T16:24:02Z</time></trkpt><trkpt lat="59.0743231773" lon="29.9986410141"><time>2026-04-25T16:24:04Z</time></trkpt><trkpt lat="59.0743017197" lon="29.9985980988"><time>2026-04-25T16:24:07Z</time></trkpt><trkpt lat="59.0742802620" lon="29.9985766411"><time>2026-04-25T16:24:09Z</time></trkpt><trkpt lat="59.0742802620" lon="29.9985766411"><time>2026-04-25T16:24:12Z</time></trkpt><trkpt lat="59.0742802620" lon="29.9985980988"><time>2026-04-25T16:24:14Z</time></trkpt><trkpt lat="59.0742802620" lon="29.9986195564"><time>2026-04-25T16:24:17Z</time></trkpt><trkpt lat="59.0742588043" lon="29.9986839294"><time>2026-04-25T16:24:19Z</time></trkpt><trkpt lat="59.0742373466" lon="29.9987053871"><time>2026-04-25T16:24:22Z</time></trkpt><trkpt lat="59.0742158890" lon="29.9987483025"><time>2026-04-25T16:24:24Z</time></trkpt><trkpt lat="59.0742158890" lon="29.9987912178"><time>2026-04-25T16:24:27Z</time></trkpt><trkpt lat="59.0741944313" lon="29.9988126755"><time>2026-04-25T16:24:29Z</time></trkpt><trkpt lat="59.0741729736" lon="29.9988555908"><time>2026-04-25T16:24:32Z</time></trkpt><trkpt lat="59.0741729736" lon="29.9988985062"><time>2026-04-25T16:24:34Z</time></trkpt><trkpt lat="59.0741729736" lon="29.9989199638"><time>2026-04-25T16:24:37Z</time></trkpt><trkpt lat="59.0741729736" lon="29.9989628792"><time>2026-04-25T16:24:39Z</time></trkpt><trkpt lat="59.0741944313" lon="29.9989628792"><time>2026-04-25T16:24:42Z</time></trkpt><trkpt lat="59.0741944313" lon="29.9989199638"><time>2026-04-25T16:24:44Z</time></trkpt><trkpt lat="59.0741515160" lon="29.9989414215"><time>2026-04-25T16:24:47Z</time></trkpt><trkpt lat="59.0741300583" lon="29.9989843369"><time>2026-04-25T16:24:49Z</time></trkpt><trkpt lat="59.0741086006" lon="29.9990057945"><time>2026-04-25T16:24:52Z</time></trkpt><trkpt lat="59.0740871429" lon="29.9990272522"><time>2026-04-25T16:24:54Z</time></trkpt><trkpt lat="59.0740656853" lon="29.9990916252"><time>2026-04-25T16:24:57Z</time></trkpt><trkpt lat="59.0740656853" lon="29.9991345406"><time>2026-04-25T16:24:59Z</time></trkpt><trkpt lat="59.0740656853" lon="29.9991774559"><time>2026-04-25T16:25:02Z</time></trkpt><trkpt lat="59.0740656853" lon="29.9991559982"><time>2026-04-25T16:25:04Z</time></trkpt><trkpt lat="59.0740656853" lon="29.9992203712"><time>2026-04-25T16:25:07Z</time></trkpt><trkpt lat="59.0740871429" lon="29.9993062019"><time>2026-04-25T16:25:09Z</time></trkpt><trkpt lat="59.0740656853" lon="29.9993705750"><time>2026-04-25T16:25:12Z</time></trkpt><trkpt lat="59.0740656853" lon="29.9994349480"><time>2026-04-25T16:25:14Z</time></trkpt><trkpt lat="59.0740442276" lon="29.9994778633"><time>2026-04-25T16:25:17Z</time></trkpt><trkpt lat="59.0740442276" lon="29.9995422363"><time>2026-04-25T16:25:19Z</time></trkpt><trkpt lat="59.0740442276" lon="29.9995851517"><time>2026-04-25T16:25:22Z</time></trkpt><trkpt lat="59.0740656853" lon="29.9996709824"><time>2026-04-25T16:25:24Z</time></trkpt><trkpt lat="59.0740871429" lon="29.9997353554"><time>2026-04-25T16:25:27Z</time></trkpt><trkpt lat="59.0740656853" lon="29.9998211861"><time>2026-04-25T16:25:29Z</time></trkpt><trkpt lat="59.0740656853" lon="29.9998641014"><time>2026-04-25T16:25:32Z</time></trkpt><trkpt lat="59.0741086006" lon="29.9999070168"><time>2026-04-25T16:25:34Z</time></trkpt><trkpt lat="59.0741086006" lon="29.9999070168"><time>2026-04-25T16:25:37Z</time></trkpt><trkpt lat="59.0741300583" lon="29.9999928474"><time>2026-04-25T16:25:39Z</time></trkpt><trkpt lat="59.0741086006" lon="30.0000143051"><time>2026-04-25T16:25:42Z</time></trkpt><trkpt lat="59.0741300583" lon="30.0000357628"><time>2026-04-25T16:25:44Z</time></trkpt><trkpt lat="59.0741300583" lon="30.0000357628"><time>2026-04-25T16:25:47Z</time></trkpt><trkpt lat="59.0740871429" lon="29.9999499321"><time>2026-04-25T16:25:49Z</time></trkpt><trkpt lat="59.0740227699" lon="29.9999070168"><time>2026-04-25T16:25:52Z</time></trkpt><trkpt lat="59.0739583969" lon="29.9999070168"><time>2026-04-25T16:25:54Z</time></trkpt><trkpt lat="59.0739154816" lon="29.9999284744"><time>2026-04-25T16:25:57Z</time></trkpt><trkpt lat="59.0738725662" lon="29.9999499321"><time>2026-04-25T16:25:59Z</time></trkpt><trkpt lat="59.0738511086" lon="29.9999713898"><time>2026-04-25T16:26:02Z</time></trkpt><trkpt lat="59.0738725662" lon="29.9999070168"><time>2026-04-25T16:26:04Z</time></trkpt><trkpt lat="59.0738511086" lon="29.9998641014"><time>2026-04-25T16:26:07Z</time></trkpt><trkpt lat="59.0738081932" lon="29.9997997284"><time>2026-04-25T16:26:09Z</time></trkpt><trkpt lat="59.0738081932" lon="29.9997568130"><time>2026-04-25T16:26:12Z</time></trkpt><trkpt lat="59.0737652779" lon="29.9997138977"><time>2026-04-25T16:26:14Z</time></trkpt><trkpt lat="59.0737652779" lon="29.9997138977"><time>2026-04-25T16:26:17Z</time></trkpt><trkpt lat="59.0737652779" lon="29.9997138977"><time>2026-04-25T16:26:19Z</time></trkpt><trkpt lat="59.0737652779" lon="29.9997138977"><time>2026-04-25T16:26:22Z</time></trkpt><trkpt lat="59.0737652779" lon="29.9997138977"><time>2026-04-25T16:26:24Z</time></trkpt><trkpt lat="59.0737652779" lon="29.9997138977"><time>2026-04-25T16:26:27Z</time></trkpt><trkpt lat="59.0737652779" lon="29.9997138977"><time>2026-04-25T16:26:29Z</time></trkpt><trkpt lat="59.0737652779" lon="29.9997138977"><time>2026-04-25T16:26:32Z</time></trkpt><trkpt lat="59.0737652779" lon="29.9997138977"><time>2026-04-25T16:26:34Z</time></trkpt><trkpt lat="59.0737652779" lon="29.9997138977"><time>2026-04-25T16:26:37Z</time></trkpt><trkpt lat="59.0737652779" lon="29.9997138977"><time>2026-04-25T16:26:39Z</time></trkpt><trkpt lat="59.0737652779" lon="29.9996709824"><time>2026-04-25T16:26:42Z</time></trkpt><trkpt lat="59.0737652779" lon="29.9995422363"><time>2026-04-25T16:26:44Z</time></trkpt><trkpt lat="59.0737438202" lon="29.9994349480"><time>2026-04-25T16:26:47Z</time></trkpt><trkpt lat="59.0737223625" lon="29.9993491173"><time>2026-04-25T16:26:49Z</time></trkpt><trkpt lat="59.0737009048" lon="29.9993062019"><time>2026-04-25T16:26:52Z</time></trkpt><trkpt lat="59.0736794472" lon="29.9992632866"><time>2026-04-25T16:26:54Z</time></trkpt><trkpt lat="59.0736579895" lon="29.9992418289"><time>2026-04-25T16:26:57Z</time></trkpt><trkpt lat="59.0736365318" lon="29.9991559982"><time>2026-04-25T16:26:59Z</time></trkpt><trkpt lat="59.0736579895" lon="29.9991130829"><time>2026-04-25T16:27:02Z</time></trkpt><trkpt lat="59.0736794472" lon="29.9990487099"><time>2026-04-25T16:27:04Z</time></trkpt><trkpt lat="59.0736794472" lon="29.9990057945"><time>2026-04-25T16:27:07Z</time></trkpt><trkpt lat="59.0737438202" lon="29.9988985062"><time>2026-04-25T16:27:09Z</time></trkpt><trkpt lat="59.0737652779" lon="29.9988126755"><time>2026-04-25T16:27:12Z</time></trkpt><trkpt lat="59.0738081932" lon="29.9987053871"><time>2026-04-25T16:27:14Z</time></trkpt><trkpt lat="59.0738081932" lon="29.9987053871"><time>2026-04-25T16:27:17Z</time></trkpt><trkpt lat="59.0738081932" lon="29.9986839294"><time>2026-04-25T16:27:19Z</time></trkpt><trkpt lat="59.0738081932" lon="29.9986839294"><time>2026-04-25T16:27:22Z</time></trkpt><trkpt lat="59.0738081932" lon="29.9986839294"><time>2026-04-25T16:27:24Z</time></trkpt><trkpt lat="59.0738081932" lon="29.9986839294"><time>2026-04-25T16:27:27Z</time></trkpt><trkpt lat="59.0738081932" lon="29.9986839294"><time>2026-04-25T16:27:29Z</time></trkpt><trkpt lat="59.0738081932" lon="29.9986839294"><time>2026-04-25T16:27:32Z</time></trkpt><trkpt lat="59.0738081932" lon="29.9986839294"><time>2026-04-25T16:27:34Z</time></trkpt><trkpt lat="59.0738081932" lon="29.9986839294"><time>2026-04-25T16:27:37Z</time></trkpt><trkpt lat="59.0738081932" lon="29.9986839294"><time>2026-04-25T16:27:39Z</time></trkpt><trkpt lat="59.0738081932" lon="29.9986839294"><time>2026-04-25T16:27:42Z</time></trkpt><trkpt lat="59.0738081932" lon="29.9986839294"><time>2026-04-25T16:27:44Z</time></trkpt><trkpt lat="59.0738081932" lon="29.9986839294"><time>2026-04-25T16:27:47Z</time></trkpt><trkpt lat="59.0738081932" lon="29.9986839294"><time>2026-04-25T16:27:49Z</time></trkpt><trkpt lat="59.0738081932" lon="29.9986839294"><time>2026-04-25T16:27:52Z</time></trkpt><trkpt lat="59.0738081932" lon="29.9986839294"><time>2026-04-25T16:27:54Z</time></trkpt><trkpt lat="59.0738081932" lon="29.9986839294"><time>2026-04-25T16:27:57Z</time></trkpt><trkpt lat="59.0738081932" lon="29.9986839294"><time>2026-04-25T16:27:59Z</time></trkpt><trkpt lat="59.0738081932" lon="29.9986839294"><time>2026-04-25T16:28:02Z</time></trkpt><trkpt lat="59.0738081932" lon="29.9986839294"><time>2026-04-25T16:28:04Z</time></trkpt><trkpt lat="59.0738081932" lon="29.9986839294"><time>2026-04-25T16:28:07Z</time></trkpt><trkpt lat="59.0738081932" lon="29.9986839294"><time>2026-04-25T16:28:09Z</time></trkpt><trkpt lat="59.0738081932" lon="29.9986839294"><time>2026-04-25T16:28:12Z</time></trkpt><trkpt lat="59.0738081932" lon="29.9986839294"><time>2026-04-25T16:28:14Z</time></trkpt><trkpt lat="59.0738081932" lon="29.9986839294"><time>2026-04-25T16:28:17Z</time></trkpt><trkpt lat="59.0738081932" lon="29.9986839294"><time>2026-04-25T16:28:19Z</time></trkpt><trkpt lat="59.0738081932" lon="29.9986839294"><time>2026-04-25T16:28:22Z</time></trkpt><trkpt lat="59.0738081932" lon="29.9986839294"><time>2026-04-25T16:28:24Z</time></trkpt><trkpt lat="59.0738081932" lon="29.9986839294"><time>2026-04-25T16:28:27Z</time></trkpt><trkpt lat="59.0738081932" lon="29.9986839294"><time>2026-04-25T16:28:29Z</time></trkpt><trkpt lat="59.0738081932" lon="29.9986839294"><time>2026-04-25T16:28:32Z</time></trkpt><trkpt lat="59.0738081932" lon="29.9986839294"><time>2026-04-25T16:28:34Z</time></trkpt><trkpt lat="59.0738081932" lon="29.9986839294"><time>2026-04-25T16:28:37Z</time></trkpt><trkpt lat="59.0738081932" lon="29.9986839294"><time>2026-04-25T16:28:39Z</time></trkpt><trkpt lat="59.0738081932" lon="29.9986839294"><time>2026-04-25T16:28:42Z</time></trkpt><trkpt lat="59.0738081932" lon="29.9986839294"><time>2026-04-25T16:28:44Z</time></trkpt><trkpt lat="59.0738081932" lon="29.9986839294"><time>2026-04-25T16:28:47Z</time></trkpt><trkpt lat="59.0738081932" lon="29.9986839294"><time>2026-04-25T16:28:49Z</time></trkpt><trkpt lat="59.0738081932" lon="29.9986839294"><time>2026-04-25T16:28:52Z</time></trkpt><trkpt lat="59.0738081932" lon="29.9986839294"><time>2026-04-25T16:28:54Z</time></trkpt><trkpt lat="59.0737867355" lon="29.9986839294"><time>2026-04-25T16:28:57Z</time></trkpt><trkpt lat="59.0737652779" lon="29.9986410141"><time>2026-04-25T16:28:59Z</time></trkpt><trkpt lat="59.0737438202" lon="29.9985766411"><time>2026-04-25T16:29:02Z</time></trkpt><trkpt lat="59.0737438202" lon="29.9985337257"><time>2026-04-25T16:29:04Z</time></trkpt><trkpt lat="59.0737652779" lon="29.9985122681"><time>2026-04-25T16:29:07Z</time></trkpt><trkpt lat="59.0737438202" lon="29.9984478951"><time>2026-04-25T16:29:09Z</time></trkpt><trkpt lat="59.0737438202" lon="29.9984264374"><time>2026-04-25T16:29:12Z</time></trkpt><trkpt lat="59.0737223625" lon="29.9984264374"><time>2026-04-25T16:29:14Z</time></trkpt><trkpt lat="59.0737223625" lon="29.9983835220"><time>2026-04-25T16:29:17Z</time></trkpt><trkpt lat="59.0737438202" lon="29.9983191490"><time>2026-04-25T16:29:19Z</time></trkpt><trkpt lat="59.0737438202" lon="29.9982547760"><time>2026-04-25T16:29:22Z</time></trkpt><trkpt lat="59.0737438202" lon="29.9982333183"><time>2026-04-25T16:29:24Z</time></trkpt><trkpt lat="59.0737223625" lon="29.9981904030"><time>2026-04-25T16:29:27Z</time></trkpt><trkpt lat="59.0737223625" lon="29.9981474876"><time>2026-04-25T16:29:29Z</time></trkpt><trkpt lat="59.0737438202" lon="29.9981260300"><time>2026-04-25T16:29:32Z</time></trkpt><trkpt lat="59.0737652779" lon="29.9981045723"><time>2026-04-25T16:29:34Z</time></trkpt><trkpt lat="59.0737652779" lon="29.9980616570"><time>2026-04-25T16:29:37Z</time></trkpt><trkpt lat="59.0737867355" lon="29.9980187416"><time>2026-04-25T16:29:39Z</time></trkpt><trkpt lat="59.0738081932" lon="29.9979972839"><time>2026-04-25T16:29:42Z</time></trkpt><trkpt lat="59.0738081932" lon="29.9979543686"><time>2026-04-25T16:29:44Z</time></trkpt><trkpt lat="59.0738511086" lon="29.9979758263"><time>2026-04-25T16:29:47Z</time></trkpt><trkpt lat="59.0738511086" lon="29.9979758263"><time>2026-04-25T16:29:49Z</time></trkpt><trkpt lat="59.0738296509" lon="29.9979329109"><time>2026-04-25T16:29:52Z</time></trkpt><trkpt lat="59.0738081932" lon="29.9979114532"><time>2026-04-25T16:29:54Z</time></trkpt><trkpt lat="59.0738081932" lon="29.9978685379"><time>2026-04-25T16:29:57Z</time></trkpt><trkpt lat="59.0738081932" lon="29.9978041649"><time>2026-04-25T16:29:59Z</time></trkpt><trkpt lat="59.0738081932" lon="29.9977612495"><time>2026-04-25T16:30:02Z</time></trkpt><trkpt lat="59.0737867355" lon="29.9977183342"><time>2026-04-25T16:30:04Z</time></trkpt><trkpt lat="59.0737867355" lon="29.9976539612"><time>2026-04-25T16:30:07Z</time></trkpt><trkpt lat="59.0737867355" lon="29.9976110458"><time>2026-04-25T16:30:09Z</time></trkpt><trkpt lat="59.0738081932" lon="29.9975895882"><time>2026-04-25T16:30:12Z</time></trkpt><trkpt lat="59.0737867355" lon="29.9975681305"><time>2026-04-25T16:30:14Z</time></trkpt><trkpt lat="59.0737652779" lon="29.9975252151"><time>2026-04-25T16:30:17Z</time></trkpt><trkpt lat="59.0737652779" lon="29.9974822998"><time>2026-04-25T16:30:19Z</time></trkpt><trkpt lat="59.0737652779" lon="29.9974179268"><time>2026-04-25T16:30:22Z</time></trkpt><trkpt lat="59.0737652779" lon="29.9973750114"><time>2026-04-25T16:30:24Z</time></trkpt><trkpt lat="59.0737652779" lon="29.9973320961"><time>2026-04-25T16:30:27Z</time></trkpt><trkpt lat="59.0737652779" lon="29.9973106384"><time>2026-04-25T16:30:29Z</time></trkpt><trkpt lat="59.0737652779" lon="29.9972462654"><time>2026-04-25T16:30:32Z</time></trkpt><trkpt lat="59.0737652779" lon="29.9972248077"><time>2026-04-25T16:30:34Z</time></trkpt><trkpt lat="59.0737652779" lon="29.9971818924"><time>2026-04-25T16:30:37Z</time></trkpt><trkpt lat="59.0737652779" lon="29.9971604347"><time>2026-04-25T16:30:39Z</time></trkpt><trkpt lat="59.0737652779" lon="29.9971175194"><time>2026-04-25T16:30:42Z</time></trkpt><trkpt lat="59.0737867355" lon="29.9970960617"><time>2026-04-25T16:30:44Z</time></trkpt><trkpt lat="59.0737867355" lon="29.9970531464"><time>2026-04-25T16:30:47Z</time></trkpt><trkpt lat="59.0737867355" lon="29.9970531464"><time>2026-04-25T16:30:49Z</time></trkpt><trkpt lat="59.0737867355" lon="29.9970316887"><time>2026-04-25T16:30:52Z</time></trkpt><trkpt lat="59.0737867355" lon="29.9969673157"><time>2026-04-25T16:30:54Z</time></trkpt><trkpt lat="59.0737867355" lon="29.9969029427"><time>2026-04-25T16:30:57Z</time></trkpt><trkpt lat="59.0737867355" lon="29.9968600273"><time>2026-04-25T16:30:59Z</time></trkpt><trkpt lat="59.0738081932" lon="29.9967956543"><time>2026-04-25T16:31:02Z</time></trkpt><trkpt lat="59.0738296509" lon="29.9967527390"><time>2026-04-25T16:31:04Z</time></trkpt><trkpt lat="59.0738296509" lon="29.9967527390"><time>2026-04-25T16:31:07Z</time></trkpt><trkpt lat="59.0738081932" lon="29.9967312813"><time>2026-04-25T16:31:09Z</time></trkpt><trkpt lat="59.0738081932" lon="29.9967098236"><time>2026-04-25T16:31:12Z</time></trkpt><trkpt lat="59.0738081932" lon="29.9966669083"><time>2026-04-25T16:31:14Z</time></trkpt><trkpt lat="59.0738081932" lon="29.9966239929"><time>2026-04-25T16:31:17Z</time></trkpt><trkpt lat="59.0738081932" lon="29.9965810776"><time>2026-04-25T16:31:19Z</time></trkpt><trkpt lat="59.0738081932" lon="29.9965167046"><time>2026-04-25T16:31:22Z</time></trkpt><trkpt lat="59.0737867355" lon="29.9964952469"><time>2026-04-25T16:31:24Z</time></trkpt><trkpt lat="59.0737867355" lon="29.9964523315"><time>2026-04-25T16:31:27Z</time></trkpt><trkpt lat="59.0738081932" lon="29.9964094162"><time>2026-04-25T16:31:29Z</time></trkpt><trkpt lat="59.0738296509" lon="29.9963665009"><time>2026-04-25T16:31:32Z</time></trkpt><trkpt lat="59.0738081932" lon="29.9963450432"><time>2026-04-25T16:31:34Z</time></trkpt><trkpt lat="59.0738081932" lon="29.9963021278"><time>2026-04-25T16:31:37Z</time></trkpt><trkpt lat="59.0737867355" lon="29.9962806702"><time>2026-04-25T16:31:39Z</time></trkpt><trkpt lat="59.0737652779" lon="29.9962377548"><time>2026-04-25T16:31:42Z</time></trkpt><trkpt lat="59.0737652779" lon="29.9961948395"><time>2026-04-25T16:31:44Z</time></trkpt><trkpt lat="59.0737652779" lon="29.9961519241"><time>2026-04-25T16:31:47Z</time></trkpt><trkpt lat="59.0737652779" lon="29.9961304665"><time>2026-04-25T16:31:49Z</time></trkpt><trkpt lat="59.0737652779" lon="29.9960875511"><time>2026-04-25T16:31:52Z</time></trkpt><trkpt lat="59.0737867355" lon="29.9960446358"><time>2026-04-25T16:31:54Z</time></trkpt><trkpt lat="59.0737867355" lon="29.9960017204"><time>2026-04-25T16:31:57Z</time></trkpt><trkpt lat="59.0738081932" lon="29.9959802628"><time>2026-04-25T16:31:59Z</time></trkpt><trkpt lat="59.0738081932" lon="29.9960017204"><time>2026-04-25T16:32:02Z</time></trkpt><trkpt lat="59.0738296509" lon="29.9959588051"><time>2026-04-25T16:32:04Z</time></trkpt><trkpt lat="59.0738296509" lon="29.9959158897"><time>2026-04-25T16:32:07Z</time></trkpt><trkpt lat="59.0738296509" lon="29.9958515167"><time>2026-04-25T16:32:09Z</time></trkpt><trkpt lat="59.0738296509" lon="29.9958300591"><time>2026-04-25T16:32:12Z</time></trkpt><trkpt lat="59.0738081932" lon="29.9958086014"><time>2026-04-25T16:32:14Z</time></trkpt><trkpt lat="59.0738081932" lon="29.9957871437"><time>2026-04-25T16:32:17Z</time></trkpt><trkpt lat="59.0737867355" lon="29.9957442284"><time>2026-04-25T16:32:19Z</time></trkpt><trkpt lat="59.0737867355" lon="29.9957227707"><time>2026-04-25T16:32:22Z</time></trkpt><trkpt lat="59.0737867355" lon="29.9956798553"><time>2026-04-25T16:32:24Z</time></trkpt><trkpt lat="59.0737867355" lon="29.9956369400"><time>2026-04-25T16:32:27Z</time></trkpt><trkpt lat="59.0737867355" lon="29.9956369400"><time>2026-04-25T16:32:29Z</time></trkpt><trkpt lat="59.0737867355" lon="29.9956369400"><time>2026-04-25T16:32:32Z</time></trkpt><trkpt lat="59.0738081932" lon="29.9956154823"><time>2026-04-25T16:32:34Z</time></trkpt><trkpt lat="59.0738081932" lon="29.9955940247"><time>2026-04-25T16:32:37Z</time></trkpt><trkpt lat="59.0738296509" lon="29.9955725670"><time>2026-04-25T16:32:39Z</time></trkpt><trkpt lat="59.0738081932" lon="29.9955296516"><time>2026-04-25T16:32:42Z</time></trkpt><trkpt lat="59.0738081932" lon="29.9955296516"><time>2026-04-25T16:32:44Z</time></trkpt><trkpt lat="59.0738081932" lon="29.9955296516"><time>2026-04-25T16:32:47Z</time></trkpt><trkpt lat="59.0738081932" lon="29.9955296516"><time>2026-04-25T16:32:49Z</time></trkpt><trkpt lat="59.0738081932" lon="29.9955296516"><time>2026-04-25T16:32:52Z</time></trkpt><trkpt lat="59.0738081932" lon="29.9955296516"><time>2026-04-25T16:32:54Z</time></trkpt><trkpt lat="59.0738081932" lon="29.9955296516"><time>2026-04-25T16:32:57Z</time></trkpt><trkpt lat="59.0738081932" lon="29.9955296516"><time>2026-04-25T16:32:59Z</time></trkpt><trkpt lat="59.0738081932" lon="29.9955296516"><time>2026-04-25T16:33:02Z</time></trkpt><trkpt lat="59.0738081932" lon="29.9955296516"><time>2026-04-25T16:33:04Z</time></trkpt><trkpt lat="59.0738081932" lon="29.9955296516"><time>2026-04-25T16:33:07Z</time></trkpt><trkpt lat="59.0738081932" lon="29.9954867363"><time>2026-04-25T16:33:09Z</time></trkpt><trkpt lat="59.0738081932" lon="29.9954438210"><time>2026-04-25T16:33:12Z</time></trkpt><trkpt lat="59.0738081932" lon="29.9954223633"><time>2026-04-25T16:33:14Z</time></trkpt><trkpt lat="59.0738081932" lon="29.9953579903"><time>2026-04-25T16:33:17Z</time></trkpt><trkpt lat="59.0738081932" lon="29.9953365326"><time>2026-04-25T16:33:19Z</time></trkpt><trkpt lat="59.0738081932" lon="29.9952936172"><time>2026-04-25T16:33:22Z</time></trkpt><trkpt lat="59.0738081932" lon="29.9952721596"><time>2026-04-25T16:33:24Z</time></trkpt><trkpt lat="59.0738081932" lon="29.9952292442"><time>2026-04-25T16:33:27Z</time></trkpt><trkpt lat="59.0738081932" lon="29.9951863289"><time>2026-04-25T16:33:29Z</time></trkpt><trkpt lat="59.0738296509" lon="29.9951648712"><time>2026-04-25T16:33:32Z</time></trkpt><trkpt lat="59.0738296509" lon="29.9951219559"><time>2026-04-25T16:33:34Z</time></trkpt><trkpt lat="59.0738296509" lon="29.9950790405"><time>2026-04-25T16:33:37Z</time></trkpt><trkpt lat="59.0738296509" lon="29.9950790405"><time>2026-04-25T16:33:39Z</time></trkpt><trkpt lat="59.0738296509" lon="29.9950790405"><time>2026-04-25T16:33:42Z</time></trkpt><trkpt lat="59.0738511086" lon="29.9950790405"><time>2026-04-25T16:33:44Z</time></trkpt><trkpt lat="59.0738511086" lon="29.9950575829"><time>2026-04-25T16:33:47Z</time></trkpt><trkpt lat="59.0738296509" lon="29.9950575829"><time>2026-04-25T16:33:49Z</time></trkpt><trkpt lat="59.0738296509" lon="29.9950575829"><time>2026-04-25T16:33:52Z</time></trkpt><trkpt lat="59.0738081932" lon="29.9950575829"><time>2026-04-25T16:33:54Z</time></trkpt><trkpt lat="59.0737867355" lon="29.9950575829"><time>2026-04-25T16:33:57Z</time></trkpt><trkpt lat="59.0737867355" lon="29.9950790405"><time>2026-04-25T16:33:59Z</time></trkpt><trkpt lat="59.0737652779" lon="29.9950790405"><time>2026-04-25T16:34:02Z</time></trkpt><trkpt lat="59.0737652779" lon="29.9951004982"><time>2026-04-25T16:34:04Z</time></trkpt><trkpt lat="59.0737438202" lon="29.9951219559"><time>2026-04-25T16:34:07Z</time></trkpt><trkpt lat="59.0737438202" lon="29.9951219559"><time>2026-04-25T16:34:09Z</time></trkpt><trkpt lat="59.0737438202" lon="29.9951219559"><time>2026-04-25T16:34:12Z</time></trkpt><trkpt lat="59.0737438202" lon="29.9951219559"><time>2026-04-25T16:34:14Z</time></trkpt><trkpt lat="59.0737438202" lon="29.9951219559"><time>2026-04-25T16:34:17Z</time></trkpt><trkpt lat="59.0737438202" lon="29.9951219559"><time>2026-04-25T16:34:19Z</time></trkpt><trkpt lat="59.0737438202" lon="29.9951219559"><time>2026-04-25T16:34:22Z</time></trkpt><trkpt lat="59.0737438202" lon="29.9951219559"><time>2026-04-25T16:34:24Z</time></trkpt><trkpt lat="59.0737438202" lon="29.9951219559"><time>2026-04-25T16:34:27Z</time></trkpt><trkpt lat="59.0737438202" lon="29.9951219559"><time>2026-04-25T16:34:29Z</time></trkpt><trkpt lat="59.0737438202" lon="29.9951219559"><time>2026-04-25T16:34:32Z</time></trkpt><trkpt lat="59.0737438202" lon="29.9951219559"><time>2026-04-25T16:34:34Z</time></trkpt><trkpt lat="59.0737438202" lon="29.9951219559"><time>2026-04-25T16:34:37Z</time></trkpt><trkpt lat="59.0737223625" lon="29.9951219559"><time>2026-04-25T16:34:39Z</time></trkpt><trkpt lat="59.0737009048" lon="29.9950790405"><time>2026-04-25T16:34:42Z</time></trkpt><trkpt lat="59.0737009048" lon="29.9950361252"><time>2026-04-25T16:34:44Z</time></trkpt><trkpt lat="59.0737009048" lon="29.9949932098"><time>2026-04-25T16:34:47Z</time></trkpt><trkpt lat="59.0737009048" lon="29.9949502945"><time>2026-04-25T16:34:49Z</time></trkpt><trkpt lat="59.0736794472" lon="29.9948859215"><time>2026-04-25T16:34:52Z</time></trkpt><trkpt lat="59.0736579895" lon="29.9948430061"><time>2026-04-25T16:34:54Z</time></trkpt><trkpt lat="59.0736579895" lon="29.9948215485"><time>2026-04-25T16:34:57Z</time></trkpt><trkpt lat="59.0736794472" lon="29.9948000908"><time>2026-04-25T16:34:59Z</time></trkpt><trkpt lat="59.0737223625" lon="29.9948000908"><time>2026-04-25T16:35:02Z</time></trkpt><trkpt lat="59.0737438202" lon="29.9947786331"><time>2026-04-25T16:35:04Z</time></trkpt><trkpt lat="59.0737652779" lon="29.9947571754"><time>2026-04-25T16:35:07Z</time></trkpt><trkpt lat="59.0737867355" lon="29.9947786331"><time>2026-04-25T16:35:09Z</time></trkpt><trkpt lat="59.0738081932" lon="29.9948000908"><time>2026-04-25T16:35:12Z</time></trkpt><trkpt lat="59.0738296509" lon="29.9947786331"><time>2026-04-25T16:35:14Z</time></trkpt><trkpt lat="59.0738296509" lon="29.9947786331"><time>2026-04-25T16:35:17Z</time></trkpt><trkpt lat="59.0738296509" lon="29.9947786331"><time>2026-04-25T16:35:19Z</time></trkpt><trkpt lat="59.0738296509" lon="29.9947786331"><time>2026-04-25T16:35:22Z</time></trkpt><trkpt lat="59.0738081932" lon="29.9948000908"><time>2026-04-25T16:35:24Z</time></trkpt><trkpt lat="59.0737652779" lon="29.9947571754"><time>2026-04-25T16:35:27Z</time></trkpt><trkpt lat="59.0737652779" lon="29.9946713448"><time>2026-04-25T16:35:29Z</time></trkpt><trkpt lat="59.0737438202" lon="29.9946284294"><time>2026-04-25T16:35:32Z</time></trkpt><trkpt lat="59.0737438202" lon="29.9945855141"><time>2026-04-25T16:35:34Z</time></trkpt><trkpt lat="59.0737438202" lon="29.9945425987"><time>2026-04-25T16:35:37Z</time></trkpt><trkpt lat="59.0737438202" lon="29.9945211411"><time>2026-04-25T16:35:39Z</time></trkpt><trkpt lat="59.0737438202" lon="29.9944782257"><time>2026-04-25T16:35:42Z</time></trkpt><trkpt lat="59.0737652779" lon="29.9944782257"><time>2026-04-25T16:35:44Z</time></trkpt><trkpt lat="59.0737652779" lon="29.9944782257"><time>2026-04-25T16:35:47Z</time></trkpt><trkpt lat="59.0737652779" lon="29.9944782257"><time>2026-04-25T16:35:49Z</time></trkpt><trkpt lat="59.0737652779" lon="29.9944782257"><time>2026-04-25T16:35:52Z</time></trkpt><trkpt lat="59.0737652779" lon="29.9944782257"><time>2026-04-25T16:35:54Z</time></trkpt><trkpt lat="59.0737652779" lon="29.9944782257"><time>2026-04-25T16:35:57Z</time></trkpt><trkpt lat="59.0737652779" lon="29.9944567680"><time>2026-04-25T16:35:59Z</time></trkpt><trkpt lat="59.0737652779" lon="29.9944567680"><time>2026-04-25T16:36:02Z</time></trkpt><trkpt lat="59.0737867355" lon="29.9944353104"><time>2026-04-25T16:36:04Z</time></trkpt><trkpt lat="59.0738081932" lon="29.9944138527"><time>2026-04-25T16:36:07Z</time></trkpt><trkpt lat="59.0738081932" lon="29.9943923950"><time>2026-04-25T16:36:09Z</time></trkpt><trkpt lat="59.0738296509" lon="29.9943709373"><time>2026-04-25T16:36:12Z</time></trkpt><trkpt lat="59.0738511086" lon="29.9943709373"><time>2026-04-25T16:36:14Z</time></trkpt><trkpt lat="59.0738940239" lon="29.9943280220"><time>2026-04-25T16:36:17Z</time></trkpt><trkpt lat="59.0739154816" lon="29.9943280220"><time>2026-04-25T16:36:19Z</time></trkpt><trkpt lat="59.0739369392" lon="29.9943065643"><time>2026-04-25T16:36:22Z</time></trkpt><trkpt lat="59.0739583969" lon="29.9943065643"><time>2026-04-25T16:36:24Z</time></trkpt><trkpt lat="59.0739583969" lon="29.9943065643"><time>2026-04-25T16:36:27Z</time></trkpt><trkpt lat="59.0739583969" lon="29.9943065643"><time>2026-04-25T16:36:29Z</time></trkpt><trkpt lat="59.0739583969" lon="29.9943065643"><time>2026-04-25T16:36:32Z</time></trkpt><trkpt lat="59.0739583969" lon="29.9943065643"><time>2026-04-25T16:36:34Z</time></trkpt><trkpt lat="59.0739583969" lon="29.9943065643"><time>2026-04-25T16:36:37Z</time></trkpt><trkpt lat="59.0739583969" lon="29.9943065643"><time>2026-04-25T16:36:39Z</time></trkpt><trkpt lat="59.0739583969" lon="29.9943065643"><time>2026-04-25T16:36:42Z</time></trkpt><trkpt lat="59.0739798546" lon="29.9943065643"><time>2026-04-25T16:36:44Z</time></trkpt><trkpt lat="59.0739798546" lon="29.9943065643"><time>2026-04-25T16:36:47Z</time></trkpt><trkpt lat="59.0739798546" lon="29.9943065643"><time>2026-04-25T16:36:49Z</time></trkpt><trkpt lat="59.0739369392" lon="29.9942207336"><time>2026-04-25T16:36:52Z</time></trkpt><trkpt lat="59.0739369392" lon="29.9941563606"><time>2026-04-25T16:36:54Z</time></trkpt><trkpt lat="59.0739369392" lon="29.9940705299"><time>2026-04-25T16:36:57Z</time></trkpt><trkpt lat="59.0738940239" lon="29.9940276146"><time>2026-04-25T16:36:59Z</time></trkpt><trkpt lat="59.0738725662" lon="29.9940061569"><time>2026-04-25T16:37:02Z</time></trkpt><trkpt lat="59.0738725662" lon="29.9939846992"><time>2026-04-25T16:37:04Z</time></trkpt><trkpt lat="59.0738725662" lon="29.9939846992"><time>2026-04-25T16:37:07Z</time></trkpt><trkpt lat="59.0738511086" lon="29.9939417839"><time>2026-04-25T16:37:09Z</time></trkpt><trkpt lat="59.0738081932" lon="29.9938988686"><time>2026-04-25T16:37:12Z</time></trkpt><trkpt lat="59.0737867355" lon="29.9938774109"><time>2026-04-25T16:37:14Z</time></trkpt><trkpt lat="59.0737867355" lon="29.9938130379"><time>2026-04-25T16:37:17Z</time></trkpt><trkpt lat="59.0737867355" lon="29.9937486649"><time>2026-04-25T16:37:19Z</time></trkpt><trkpt lat="59.0737652779" lon="29.9936413765"><time>2026-04-25T16:37:22Z</time></trkpt><trkpt lat="59.0737652779" lon="29.9935984612"><time>2026-04-25T16:37:24Z</time></trkpt><trkpt lat="59.0737652779" lon="29.9935770035"><time>2026-04-25T16:37:27Z</time></trkpt><trkpt lat="59.0737438202" lon="29.9935340881"><time>2026-04-25T16:37:29Z</time></trkpt><trkpt lat="59.0737438202" lon="29.9935126305"><time>2026-04-25T16:37:32Z</time></trkpt><trkpt lat="59.0737438202" lon="29.9934911728"><time>2026-04-25T16:37:34Z</time></trkpt><trkpt lat="59.0737438202" lon="29.9934911728"><time>2026-04-25T16:37:37Z</time></trkpt><trkpt lat="59.0737438202" lon="29.9934911728"><time>2026-04-25T16:37:39Z</time></trkpt><trkpt lat="59.0737652779" lon="29.9934482574"><time>2026-04-25T16:37:42Z</time></trkpt><trkpt lat="59.0737652779" lon="29.9933838844"><time>2026-04-25T16:37:44Z</time></trkpt><trkpt lat="59.0737867355" lon="29.9933409691"><time>2026-04-25T16:37:47Z</time></trkpt><trkpt lat="59.0738081932" lon="29.9932980537"><time>2026-04-25T16:37:49Z</time></trkpt><trkpt lat="59.0738081932" lon="29.9932980537"><time>2026-04-25T16:37:52Z</time></trkpt><trkpt lat="59.0738081932" lon="29.9932980537"><time>2026-04-25T16:37:54Z</time></trkpt><trkpt lat="59.0738081932" lon="29.9932122231"><time>2026-04-25T16:37:57Z</time></trkpt><trkpt lat="59.0738081932" lon="29.9931693077"><time>2026-04-25T16:37:59Z</time></trkpt><trkpt lat="59.0738296509" lon="29.9931049347"><time>2026-04-25T16:38:02Z</time></trkpt><trkpt lat="59.0738296509" lon="29.9930405617"><time>2026-04-25T16:38:04Z</time></trkpt><trkpt lat="59.0738081932" lon="29.9929976463"><time>2026-04-25T16:38:07Z</time></trkpt><trkpt lat="59.0737867355" lon="29.9929547310"><time>2026-04-25T16:38:09Z</time></trkpt><trkpt lat="59.0737652779" lon="29.9929118156"><time>2026-04-25T16:38:12Z</time></trkpt><trkpt lat="59.0737652779" lon="29.9928689003"><time>2026-04-25T16:38:14Z</time></trkpt><trkpt lat="59.0737652779" lon="29.9928689003"><time>2026-04-25T16:38:17Z</time></trkpt><trkpt lat="59.0737867355" lon="29.9927616119"><time>2026-04-25T16:38:19Z</time></trkpt><trkpt lat="59.0737867355" lon="29.9927186966"><time>2026-04-25T16:38:22Z</time></trkpt><trkpt lat="59.0737867355" lon="29.9926757813"><time>2026-04-25T16:38:24Z</time></trkpt><trkpt lat="59.0737652779" lon="29.9926757813"><time>2026-04-25T16:38:27Z</time></trkpt><trkpt lat="59.0737652779" lon="29.9926757813"><time>2026-04-25T16:38:29Z</time></trkpt><trkpt lat="59.0737438202" lon="29.9926757813"><time>2026-04-25T16:38:32Z</time></trkpt><trkpt lat="59.0737438202" lon="29.9926328659"><time>2026-04-25T16:38:34Z</time></trkpt><trkpt lat="59.0737438202" lon="29.9926114082"><time>2026-04-25T16:38:37Z</time></trkpt><trkpt lat="59.0737438202" lon="29.9926114082"><time>2026-04-25T16:38:39Z</time></trkpt><trkpt lat="59.0737438202" lon="29.9926114082"><time>2026-04-25T16:38:42Z</time></trkpt><trkpt lat="59.0737438202" lon="29.9926114082"><time>2026-04-25T16:38:44Z</time></trkpt><trkpt lat="59.0737438202" lon="29.9926114082"><time>2026-04-25T16:38:47Z</time></trkpt><trkpt lat="59.0737438202" lon="29.9926114082"><time>2026-04-25T16:38:49Z</time></trkpt><trkpt lat="59.0737438202" lon="29.9926114082"><time>2026-04-25T16:38:52Z</time></trkpt><trkpt lat="59.0737223625" lon="29.9925684929"><time>2026-04-25T16:38:54Z</time></trkpt><trkpt lat="59.0736794472" lon="29.9925255775"><time>2026-04-25T16:38:57Z</time></trkpt><trkpt lat="59.0736794472" lon="29.9925041199"><time>2026-04-25T16:38:59Z</time></trkpt><trkpt lat="59.0736794472" lon="29.9925041199"><time>2026-04-25T16:39:02Z</time></trkpt><trkpt lat="59.0736794472" lon="29.9925041199"><time>2026-04-25T16:39:04Z</time></trkpt><trkpt lat="59.0736794472" lon="29.9925041199"><time>2026-04-25T16:39:07Z</time></trkpt><trkpt lat="59.0736794472" lon="29.9925041199"><time>2026-04-25T16:39:09Z</time></trkpt><trkpt lat="59.0736794472" lon="29.9924826622"><time>2026-04-25T16:39:12Z</time></trkpt><trkpt lat="59.0736150742" lon="29.9924612045"><time>2026-04-25T16:39:14Z</time></trkpt><trkpt lat="59.0735936165" lon="29.9924612045"><time>2026-04-25T16:39:17Z</time></trkpt><trkpt lat="59.0735507011" lon="29.9924612045"><time>2026-04-25T16:39:19Z</time></trkpt><trkpt lat="59.0735292435" lon="29.9924612045"><time>2026-04-25T16:39:22Z</time></trkpt><trkpt lat="59.0735077858" lon="29.9924612045"><time>2026-04-25T16:39:24Z</time></trkpt><trkpt lat="59.0734863281" lon="29.9925041199"><time>2026-04-25T16:39:27Z</time></trkpt><trkpt lat="59.0734648705" lon="29.9925684929"><time>2026-04-25T16:39:29Z</time></trkpt><trkpt lat="59.0734648705" lon="29.9926114082"><time>2026-04-25T16:39:32Z</time></trkpt><trkpt lat="59.0734648705" lon="29.9926328659"><time>2026-04-25T16:39:34Z</time></trkpt><trkpt lat="59.0734648705" lon="29.9926328659"><time>2026-04-25T16:39:37Z</time></trkpt><trkpt lat="59.0734648705" lon="29.9926757813"><time>2026-04-25T16:39:39Z</time></trkpt><trkpt lat="59.0734648705" lon="29.9927401543"><time>2026-04-25T16:39:42Z</time></trkpt><trkpt lat="59.0734648705" lon="29.9927830696"><time>2026-04-25T16:39:44Z</time></trkpt><trkpt lat="59.0734434128" lon="29.9928474426"><time>2026-04-25T16:39:47Z</time></trkpt><trkpt lat="59.0734219551" lon="29.9928903580"><time>2026-04-25T16:39:49Z</time></trkpt><trkpt lat="59.0734004974" lon="29.9929761887"><time>2026-04-25T16:39:52Z</time></trkpt><trkpt lat="59.0734004974" lon="29.9930191040"><time>2026-04-25T16:39:54Z</time></trkpt><trkpt lat="59.0734004974" lon="29.9930834770"><time>2026-04-25T16:39:57Z</time></trkpt><trkpt lat="59.0733790398" lon="29.9931049347"><time>2026-04-25T16:39:59Z</time></trkpt><trkpt lat="59.0733790398" lon="29.9931263924"><time>2026-04-25T16:40:02Z</time></trkpt><trkpt lat="59.0733790398" lon="29.9931263924"><time>2026-04-25T16:40:04Z</time></trkpt><trkpt lat="59.0733790398" lon="29.9931478500"><time>2026-04-25T16:40:07Z</time></trkpt><trkpt lat="59.0733790398" lon="29.9931478500"><time>2026-04-25T16:40:09Z</time></trkpt><trkpt lat="59.0733790398" lon="29.9931478500"><time>2026-04-25T16:40:12Z</time></trkpt><trkpt lat="59.0733790398" lon="29.9931478500"><time>2026-04-25T16:40:14Z</time></trkpt><trkpt lat="59.0733790398" lon="29.9931478500"><time>2026-04-25T16:40:17Z</time></trkpt><trkpt lat="59.0733790398" lon="29.9931478500"><time>2026-04-25T16:40:19Z</time></trkpt><trkpt lat="59.0733790398" lon="29.9931478500"><time>2026-04-25T16:40:22Z</time></trkpt><trkpt lat="59.0733790398" lon="29.9931478500"><time>2026-04-25T16:40:24Z</time></trkpt><trkpt lat="59.0733361244" lon="29.9931478500"><time>2026-04-25T16:40:27Z</time></trkpt><trkpt lat="59.0732932091" lon="29.9931478500"><time>2026-04-25T16:40:29Z</time></trkpt><trkpt lat="59.0732502937" lon="29.9930834770"><time>2026-04-25T16:40:32Z</time></trkpt><trkpt lat="59.0732288361" lon="29.9930405617"><time>2026-04-25T16:40:34Z</time></trkpt><trkpt lat="59.0732288361" lon="29.9929976463"><time>2026-04-25T16:40:37Z</time></trkpt><trkpt lat="59.0732288361" lon="29.9929761887"><time>2026-04-25T16:40:39Z</time></trkpt><trkpt lat="59.0732288361" lon="29.9929761887"><time>2026-04-25T16:40:42Z</time></trkpt><trkpt lat="59.0732288361" lon="29.9929547310"><time>2026-04-25T16:40:44Z</time></trkpt><trkpt lat="59.0732288361" lon="29.9929547310"><time>2026-04-25T16:40:47Z</time></trkpt><trkpt lat="59.0732288361" lon="29.9929547310"><time>2026-04-25T16:40:49Z</time></trkpt><trkpt lat="59.0732288361" lon="29.9929547310"><time>2026-04-25T16:40:52Z</time></trkpt><trkpt lat="59.0732288361" lon="29.9929547310"><time>2026-04-25T16:40:54Z</time></trkpt><trkpt lat="59.0732288361" lon="29.9929547310"><time>2026-04-25T16:40:57Z</time></trkpt><trkpt lat="59.0732288361" lon="29.9929547310"><time>2026-04-25T16:40:59Z</time></trkpt><trkpt lat="59.0732288361" lon="29.9929547310"><time>2026-04-25T16:41:02Z</time></trkpt><trkpt lat="59.0732288361" lon="29.9929547310"><time>2026-04-25T16:41:04Z</time></trkpt><trkpt lat="59.0732288361" lon="29.9929547310"><time>2026-04-25T16:41:07Z</time></trkpt><trkpt lat="59.0732073784" lon="29.9929332733"><time>2026-04-25T16:41:09Z</time></trkpt><trkpt lat="59.0731859207" lon="29.9928689003"><time>2026-04-25T16:41:12Z</time></trkpt><trkpt lat="59.0731430054" lon="29.9928259850"><time>2026-04-25T16:41:14Z</time></trkpt><trkpt lat="59.0731430054" lon="29.9928045273"><time>2026-04-25T16:41:17Z</time></trkpt><trkpt lat="59.0731000900" lon="29.9927830696"><time>2026-04-25T16:41:19Z</time></trkpt><trkpt lat="59.0731000900" lon="29.9927830696"><time>2026-04-25T16:41:22Z</time></trkpt><trkpt lat="59.0731000900" lon="29.9927830696"><time>2026-04-25T16:41:24Z</time></trkpt><trkpt lat="59.0730786324" lon="29.9927830696"><time>2026-04-25T16:41:27Z</time></trkpt><trkpt lat="59.0730571747" lon="29.9928045273"><time>2026-04-25T16:41:29Z</time></trkpt><trkpt lat="59.0729928017" lon="29.9928259850"><time>2026-04-25T16:41:32Z</time></trkpt><trkpt lat="59.0729713440" lon="29.9928259850"><time>2026-04-25T16:41:34Z</time></trkpt><trkpt lat="59.0729284286" lon="29.9928259850"><time>2026-04-25T16:41:37Z</time></trkpt><trkpt lat="59.0728640556" lon="29.9928045273"><time>2026-04-25T16:41:39Z</time></trkpt><trkpt lat="59.0728640556" lon="29.9928045273"><time>2026-04-25T16:41:42Z</time></trkpt><trkpt lat="59.0728640556" lon="29.9928045273"><time>2026-04-25T16:41:44Z</time></trkpt><trkpt lat="59.0728640556" lon="29.9928045273"><time>2026-04-25T16:41:47Z</time></trkpt><trkpt lat="59.0728425980" lon="29.9928474426"><time>2026-04-25T16:41:49Z</time></trkpt><trkpt lat="59.0728640556" lon="29.9928903580"><time>2026-04-25T16:41:52Z</time></trkpt><trkpt lat="59.0728855133" lon="29.9929332733"><time>2026-04-25T16:41:54Z</time></trkpt><trkpt lat="59.0729069710" lon="29.9929976463"><time>2026-04-25T16:41:57Z</time></trkpt><trkpt lat="59.0729069710" lon="29.9930405617"><time>2026-04-25T16:41:59Z</time></trkpt><trkpt lat="59.0729284286" lon="29.9930834770"><time>2026-04-25T16:42:02Z</time></trkpt><trkpt lat="59.0729284286" lon="29.9930834770"><time>2026-04-25T16:42:04Z</time></trkpt><trkpt lat="59.0729284286" lon="29.9930834770"><time>2026-04-25T16:42:07Z</time></trkpt><trkpt lat="59.0729284286" lon="29.9930834770"><time>2026-04-25T16:42:09Z</time></trkpt><trkpt lat="59.0729498863" lon="29.9931478500"><time>2026-04-25T16:42:12Z</time></trkpt><trkpt lat="59.0729713440" lon="29.9932551384"><time>2026-04-25T16:42:14Z</time></trkpt><trkpt lat="59.0729928017" lon="29.9932980537"><time>2026-04-25T16:42:17Z</time></trkpt><trkpt lat="59.0729928017" lon="29.9933195114"><time>2026-04-25T16:42:19Z</time></trkpt><trkpt lat="59.0730357170" lon="29.9934482574"><time>2026-04-25T16:42:22Z</time></trkpt><trkpt lat="59.0730571747" lon="29.9934697151"><time>2026-04-25T16:42:24Z</time></trkpt><trkpt lat="59.0730571747" lon="29.9934697151"><time>2026-04-25T16:42:27Z</time></trkpt><trkpt lat="59.0730571747" lon="29.9935126305"><time>2026-04-25T16:42:29Z</time></trkpt><trkpt lat="59.0730571747" lon="29.9935770035"><time>2026-04-25T16:42:32Z</time></trkpt><trkpt lat="59.0730571747" lon="29.9936842918"><time>2026-04-25T16:42:34Z</time></trkpt><trkpt lat="59.0730786324" lon="29.9937486649"><time>2026-04-25T16:42:37Z</time></trkpt><trkpt lat="59.0731000900" lon="29.9937915802"><time>2026-04-25T16:42:39Z</time></trkpt><trkpt lat="59.0731000900" lon="29.9937915802"><time>2026-04-25T16:42:42Z</time></trkpt><trkpt lat="59.0731215477" lon="29.9937915802"><time>2026-04-25T16:42:44Z</time></trkpt><trkpt lat="59.0731215477" lon="29.9938130379"><time>2026-04-25T16:42:47Z</time></trkpt><trkpt lat="59.0731215477" lon="29.9938344955"><time>2026-04-25T16:42:49Z</time></trkpt><trkpt lat="59.0731215477" lon="29.9938344955"><time>2026-04-25T16:42:52Z</time></trkpt><trkpt lat="59.0731215477" lon="29.9938344955"><time>2026-04-25T16:42:54Z</time></trkpt><trkpt lat="59.0731000900" lon="29.9938559532"><time>2026-04-25T16:42:57Z</time></trkpt><trkpt lat="59.0730571747" lon="29.9938774109"><time>2026-04-25T16:42:59Z</time></trkpt><trkpt lat="59.0730357170" lon="29.9939203262"><time>2026-04-25T16:43:02Z</time></trkpt><trkpt lat="59.0730357170" lon="29.9939203262"><time>2026-04-25T16:43:04Z</time></trkpt><trkpt lat="59.0730142593" lon="29.9940061569"><time>2026-04-25T16:43:07Z</time></trkpt><trkpt lat="59.0729928017" lon="29.9941134453"><time>2026-04-25T16:43:09Z</time></trkpt><trkpt lat="59.0729928017" lon="29.9941778183"><time>2026-04-25T16:43:12Z</time></trkpt><trkpt lat="59.0729498863" lon="29.9942421913"><time>2026-04-25T16:43:14Z</time></trkpt><trkpt lat="59.0729713440" lon="29.9942636490"><time>2026-04-25T16:43:17Z</time></trkpt><trkpt lat="59.0729713440" lon="29.9943065643"><time>2026-04-25T16:43:19Z</time></trkpt><trkpt lat="59.0729928017" lon="29.9943065643"><time>2026-04-25T16:43:22Z</time></trkpt><trkpt lat="59.0729928017" lon="29.9943065643"><time>2026-04-25T16:43:24Z</time></trkpt><trkpt lat="59.0729928017" lon="29.9943065643"><time>2026-04-25T16:43:27Z</time></trkpt><trkpt lat="59.0729928017" lon="29.9944138527"><time>2026-04-25T16:43:29Z</time></trkpt><trkpt lat="59.0729928017" lon="29.9944782257"><time>2026-04-25T16:43:32Z</time></trkpt><trkpt lat="59.0729928017" lon="29.9945425987"><time>2026-04-25T16:43:34Z</time></trkpt><trkpt lat="59.0729928017" lon="29.9945640564"><time>2026-04-25T16:43:37Z</time></trkpt><trkpt lat="59.0729928017" lon="29.9945855141"><time>2026-04-25T16:43:39Z</time></trkpt><trkpt lat="59.0729928017" lon="29.9945855141"><time>2026-04-25T16:43:42Z</time></trkpt><trkpt lat="59.0729928017" lon="29.9945855141"><time>2026-04-25T16:43:44Z</time></trkpt><trkpt lat="59.0729928017" lon="29.9945855141"><time>2026-04-25T16:43:47Z</time></trkpt><trkpt lat="59.0729713440" lon="29.9945855141"><time>2026-04-25T16:43:49Z</time></trkpt><trkpt lat="59.0729498863" lon="29.9946069717"><time>2026-04-25T16:43:52Z</time></trkpt><trkpt lat="59.0729284286" lon="29.9946284294"><time>2026-04-25T16:43:54Z</time></trkpt><trkpt lat="59.0729069710" lon="29.9946284294"><time>2026-04-25T16:43:57Z</time></trkpt><trkpt lat="59.0729069710" lon="29.9946498871"><time>2026-04-25T16:43:59Z</time></trkpt><trkpt lat="59.0729069710" lon="29.9946498871"><time>2026-04-25T16:44:02Z</time></trkpt><trkpt lat="59.0729498863" lon="29.9946069717"><time>2026-04-25T16:44:04Z</time></trkpt><trkpt lat="59.0730142593" lon="29.9945640564"><time>2026-04-25T16:44:07Z</time></trkpt><trkpt lat="59.0731215477" lon="29.9944996834"><time>2026-04-25T16:44:09Z</time></trkpt><trkpt lat="59.0731859207" lon="29.9944996834"><time>2026-04-25T16:44:12Z</time></trkpt><trkpt lat="59.0732073784" lon="29.9945425987"><time>2026-04-25T16:44:14Z</time></trkpt><trkpt lat="59.0732073784" lon="29.9945640564"><time>2026-04-25T16:44:17Z</time></trkpt><trkpt lat="59.0732073784" lon="29.9946284294"><time>2026-04-25T16:44:19Z</time></trkpt><trkpt lat="59.0732288361" lon="29.9946928024"><time>2026-04-25T16:44:22Z</time></trkpt><trkpt lat="59.0732288361" lon="29.9947571754"><time>2026-04-25T16:44:24Z</time></trkpt><trkpt lat="59.0732288361" lon="29.9947786331"><time>2026-04-25T16:44:27Z</time></trkpt><trkpt lat="59.0732073784" lon="29.9948215485"><time>2026-04-25T16:44:29Z</time></trkpt><trkpt lat="59.0731859207" lon="29.9948644638"><time>2026-04-25T16:44:32Z</time></trkpt><trkpt lat="59.0731644630" lon="29.9949073792"><time>2026-04-25T16:44:34Z</time></trkpt><trkpt lat="59.0731430054" lon="29.9949288368"><time>2026-04-25T16:44:37Z</time></trkpt><trkpt lat="59.0731430054" lon="29.9949502945"><time>2026-04-25T16:44:39Z</time></trkpt><trkpt lat="59.0731430054" lon="29.9949932098"><time>2026-04-25T16:44:42Z</time></trkpt><trkpt lat="59.0731430054" lon="29.9950575829"><time>2026-04-25T16:44:44Z</time></trkpt><trkpt lat="59.0731430054" lon="29.9950790405"><time>2026-04-25T16:44:47Z</time></trkpt><trkpt lat="59.0731430054" lon="29.9951004982"><time>2026-04-25T16:44:49Z</time></trkpt><trkpt lat="59.0731430054" lon="29.9951434135"><time>2026-04-25T16:44:52Z</time></trkpt><trkpt lat="59.0731644630" lon="29.9951648712"><time>2026-04-25T16:44:54Z</time></trkpt><trkpt lat="59.0731859207" lon="29.9951863289"><time>2026-04-25T16:44:57Z</time></trkpt><trkpt lat="59.0731859207" lon="29.9952077866"><time>2026-04-25T16:44:59Z</time></trkpt><trkpt lat="59.0732073784" lon="29.9952077866"><time>2026-04-25T16:45:02Z</time></trkpt><trkpt lat="59.0732073784" lon="29.9952077866"><time>2026-04-25T16:45:04Z</time></trkpt><trkpt lat="59.0732073784" lon="29.9952077866"><time>2026-04-25T16:45:07Z</time></trkpt><trkpt lat="59.0732073784" lon="29.9952292442"><time>2026-04-25T16:45:09Z</time></trkpt><trkpt lat="59.0732073784" lon="29.9952721596"><time>2026-04-25T16:45:12Z</time></trkpt><trkpt lat="59.0731859207" lon="29.9952936172"><time>2026-04-25T16:45:14Z</time></trkpt><trkpt lat="59.0731859207" lon="29.9952936172"><time>2026-04-25T16:45:17Z</time></trkpt><trkpt lat="59.0731859207" lon="29.9953150749"><time>2026-04-25T16:45:19Z</time></trkpt><trkpt lat="59.0731859207" lon="29.9953365326"><time>2026-04-25T16:45:22Z</time></trkpt><trkpt lat="59.0732288361" lon="29.9953794479"><time>2026-04-25T16:45:24Z</time></trkpt><trkpt lat="59.0732288361" lon="29.9954009056"><time>2026-04-25T16:45:27Z</time></trkpt><trkpt lat="59.0732288361" lon="29.9954438210"><time>2026-04-25T16:45:29Z</time></trkpt><trkpt lat="59.0732502937" lon="29.9954652786"><time>2026-04-25T16:45:32Z</time></trkpt><trkpt lat="59.0732502937" lon="29.9955081940"><time>2026-04-25T16:45:34Z</time></trkpt><trkpt lat="59.0732717514" lon="29.9955511093"><time>2026-04-25T16:45:37Z</time></trkpt><trkpt lat="59.0732717514" lon="29.9955725670"><time>2026-04-25T16:45:39Z</time></trkpt><trkpt lat="59.0732717514" lon="29.9955725670"><time>2026-04-25T16:45:42Z</time></trkpt><trkpt lat="59.0732717514" lon="29.9956369400"><time>2026-04-25T16:45:44Z</time></trkpt><trkpt lat="59.0732502937" lon="29.9956798553"><time>2026-04-25T16:45:47Z</time></trkpt><trkpt lat="59.0732502937" lon="29.9957013130"><time>2026-04-25T16:45:49Z</time></trkpt><trkpt lat="59.0732288361" lon="29.9957656860"><time>2026-04-25T16:45:52Z</time></trkpt><trkpt lat="59.0732288361" lon="29.9958300591"><time>2026-04-25T16:45:54Z</time></trkpt><trkpt lat="59.0732073784" lon="29.9958515167"><time>2026-04-25T16:45:57Z</time></trkpt><trkpt lat="59.0732073784" lon="29.9958729744"><time>2026-04-25T16:45:59Z</time></trkpt><trkpt lat="59.0731859207" lon="29.9958944321"><time>2026-04-25T16:46:02Z</time></trkpt><trkpt lat="59.0731644630" lon="29.9959373474"><time>2026-04-25T16:46:04Z</time></trkpt><trkpt lat="59.0731644630" lon="29.9959588051"><time>2026-04-25T16:46:07Z</time></trkpt><trkpt lat="59.0731644630" lon="29.9959802628"><time>2026-04-25T16:46:09Z</time></trkpt><trkpt lat="59.0731644630" lon="29.9959802628"><time>2026-04-25T16:46:12Z</time></trkpt><trkpt lat="59.0731644630" lon="29.9960446358"><time>2026-04-25T16:46:14Z</time></trkpt><trkpt lat="59.0731859207" lon="29.9960660934"><time>2026-04-25T16:46:17Z</time></trkpt><trkpt lat="59.0732288361" lon="29.9961090088"><time>2026-04-25T16:46:19Z</time></trkpt><trkpt lat="59.0732502937" lon="29.9961090088"><time>2026-04-25T16:46:22Z</time></trkpt><trkpt lat="59.0732717514" lon="29.9961304665"><time>2026-04-25T16:46:24Z</time></trkpt><trkpt lat="59.0732502937" lon="29.9961948395"><time>2026-04-25T16:46:27Z</time></trkpt><trkpt lat="59.0732288361" lon="29.9962592125"><time>2026-04-25T16:46:29Z</time></trkpt><trkpt lat="59.0732288361" lon="29.9963021278"><time>2026-04-25T16:46:32Z</time></trkpt><trkpt lat="59.0732288361" lon="29.9963665009"><time>2026-04-25T16:46:34Z</time></trkpt><trkpt lat="59.0732288361" lon="29.9964094162"><time>2026-04-25T16:46:37Z</time></trkpt><trkpt lat="59.0732073784" lon="29.9964308739"><time>2026-04-25T16:46:39Z</time></trkpt><trkpt lat="59.0731859207" lon="29.9964523315"><time>2026-04-25T16:46:42Z</time></trkpt><trkpt lat="59.0731859207" lon="29.9964737892"><time>2026-04-25T16:46:44Z</time></trkpt><trkpt lat="59.0731859207" lon="29.9965167046"><time>2026-04-25T16:46:47Z</time></trkpt><trkpt lat="59.0732073784" lon="29.9966025352"><time>2026-04-25T16:46:49Z</time></trkpt><trkpt lat="59.0732073784" lon="29.9966239929"><time>2026-04-25T16:46:52Z</time></trkpt><trkpt lat="59.0732288361" lon="29.9966454506"><time>2026-04-25T16:46:54Z</time></trkpt><trkpt lat="59.0732502937" lon="29.9966669083"><time>2026-04-25T16:46:57Z</time></trkpt><trkpt lat="59.0732502937" lon="29.9966883659"><time>2026-04-25T16:46:59Z</time></trkpt><trkpt lat="59.0732502937" lon="29.9967312813"><time>2026-04-25T16:47:02Z</time></trkpt><trkpt lat="59.0732073784" lon="29.9967741966"><time>2026-04-25T16:47:04Z</time></trkpt><trkpt lat="59.0731859207" lon="29.9968171120"><time>2026-04-25T16:47:07Z</time></trkpt><trkpt lat="59.0731859207" lon="29.9968814850"><time>2026-04-25T16:47:09Z</time></trkpt><trkpt lat="59.0731859207" lon="29.9969244003"><time>2026-04-25T16:47:12Z</time></trkpt><trkpt lat="59.0732073784" lon="29.9969887733"><time>2026-04-25T16:47:14Z</time></trkpt><trkpt lat="59.0732073784" lon="29.9970102310"><time>2026-04-25T16:47:17Z</time></trkpt><trkpt lat="59.0732073784" lon="29.9970531464"><time>2026-04-25T16:47:19Z</time></trkpt><trkpt lat="59.0732073784" lon="29.9970960617"><time>2026-04-25T16:47:22Z</time></trkpt><trkpt lat="59.0732073784" lon="29.9971604347"><time>2026-04-25T16:47:24Z</time></trkpt><trkpt lat="59.0731859207" lon="29.9972248077"><time>2026-04-25T16:47:27Z</time></trkpt><trkpt lat="59.0731644630" lon="29.9972677231"><time>2026-04-25T16:47:29Z</time></trkpt><trkpt lat="59.0731644630" lon="29.9972891808"><time>2026-04-25T16:47:32Z</time></trkpt><trkpt lat="59.0731430054" lon="29.9973320961"><time>2026-04-25T16:47:34Z</time></trkpt><trkpt lat="59.0731430054" lon="29.9973750114"><time>2026-04-25T16:47:37Z</time></trkpt><trkpt lat="59.0731430054" lon="29.9974179268"><time>2026-04-25T16:47:39Z</time></trkpt><trkpt lat="59.0731430054" lon="29.9974393845"><time>2026-04-25T16:47:42Z</time></trkpt><trkpt lat="59.0731644630" lon="29.9975037575"><time>2026-04-25T16:47:44Z</time></trkpt><trkpt lat="59.0731644630" lon="29.9975466728"><time>2026-04-25T16:47:47Z</time></trkpt><trkpt lat="59.0731644630" lon="29.9975895882"><time>2026-04-25T16:47:49Z</time></trkpt><trkpt lat="59.0731859207" lon="29.9976110458"><time>2026-04-25T16:47:52Z</time></trkpt><trkpt lat="59.0731859207" lon="29.9976754189"><time>2026-04-25T16:47:54Z</time></trkpt><trkpt lat="59.0732073784" lon="29.9976968765"><time>2026-04-25T16:47:57Z</time></trkpt><trkpt lat="59.0732073784" lon="29.9977397919"><time>2026-04-25T16:47:59Z</time></trkpt><trkpt lat="59.0732073784" lon="29.9977827072"><time>2026-04-25T16:48:02Z</time></trkpt><trkpt lat="59.0732073784" lon="29.9978899956"><time>2026-04-25T16:48:04Z</time></trkpt><trkpt lat="59.0731859207" lon="29.9979329109"><time>2026-04-25T16:48:07Z</time></trkpt><trkpt lat="59.0731644630" lon="29.9979972839"><time>2026-04-25T16:48:09Z</time></trkpt><trkpt lat="59.0731644630" lon="29.9980187416"><time>2026-04-25T16:48:12Z</time></trkpt><trkpt lat="59.0731644630" lon="29.9980401993"><time>2026-04-25T16:48:14Z</time></trkpt><trkpt lat="59.0731644630" lon="29.9980401993"><time>2026-04-25T16:48:17Z</time></trkpt><trkpt lat="59.0731644630" lon="29.9981045723"><time>2026-04-25T16:48:19Z</time></trkpt><trkpt lat="59.0731859207" lon="29.9981689453"><time>2026-04-25T16:48:22Z</time></trkpt><trkpt lat="59.0732073784" lon="29.9982118607"><time>2026-04-25T16:48:24Z</time></trkpt><trkpt lat="59.0732288361" lon="29.9982762337"><time>2026-04-25T16:48:27Z</time></trkpt><trkpt lat="59.0732288361" lon="29.9983620644"><time>2026-04-25T16:48:29Z</time></trkpt><trkpt lat="59.0732502937" lon="29.9983620644"><time>2026-04-25T16:48:32Z</time></trkpt><trkpt lat="59.0732502937" lon="29.9984049797"><time>2026-04-25T16:48:34Z</time></trkpt><trkpt lat="59.0732717514" lon="29.9984693527"><time>2026-04-25T16:48:37Z</time></trkpt><trkpt lat="59.0732502937" lon="29.9985551834"><time>2026-04-25T16:48:39Z</time></trkpt><trkpt lat="59.0732502937" lon="29.9985980988"><time>2026-04-25T16:48:42Z</time></trkpt><trkpt lat="59.0732502937" lon="29.9986410141"><time>2026-04-25T16:48:44Z</time></trkpt><trkpt lat="59.0732717514" lon="29.9986624718"><time>2026-04-25T16:48:47Z</time></trkpt><trkpt lat="59.0732717514" lon="29.9986839294"><time>2026-04-25T16:48:49Z</time></trkpt><trkpt lat="59.0732717514" lon="29.9986839294"><time>2026-04-25T16:48:52Z</time></trkpt><trkpt lat="59.0732717514" lon="29.9987053871"><time>2026-04-25T16:48:54Z</time></trkpt><trkpt lat="59.0732502937" lon="29.9987912178"><time>2026-04-25T16:48:57Z</time></trkpt><trkpt lat="59.0732288361" lon="29.9988126755"><time>2026-04-25T16:48:59Z</time></trkpt><trkpt lat="59.0732288361" lon="29.9988126755"><time>2026-04-25T16:49:02Z</time></trkpt><trkpt lat="59.0732288361" lon="29.9988126755"><time>2026-04-25T16:49:04Z</time></trkpt><trkpt lat="59.0732288361" lon="29.9988126755"><time>2026-04-25T16:49:07Z</time></trkpt><trkpt lat="59.0732288361" lon="29.9988126755"><time>2026-04-25T16:49:09Z</time></trkpt><trkpt lat="59.0732288361" lon="29.9988126755"><time>2026-04-25T16:49:12Z</time></trkpt><trkpt lat="59.0732073784" lon="29.9988341331"><time>2026-04-25T16:49:14Z</time></trkpt><trkpt lat="59.0732073784" lon="29.9988770485"><time>2026-04-25T16:49:17Z</time></trkpt><trkpt lat="59.0731859207" lon="29.9989414215"><time>2026-04-25T16:49:19Z</time></trkpt><trkpt lat="59.0731644630" lon="29.9989628792"><time>2026-04-25T16:49:22Z</time></trkpt><trkpt lat="59.0731430054" lon="29.9989843369"><time>2026-04-25T16:49:24Z</time></trkpt><trkpt lat="59.0731430054" lon="29.9990272522"><time>2026-04-25T16:49:27Z</time></trkpt><trkpt lat="59.0731644630" lon="29.9990487099"><time>2026-04-25T16:49:29Z</time></trkpt><trkpt lat="59.0731644630" lon="29.9990487099"><time>2026-04-25T16:49:32Z</time></trkpt><trkpt lat="59.0731644630" lon="29.9990487099"><time>2026-04-25T16:49:34Z</time></trkpt><trkpt lat="59.0731644630" lon="29.9990487099"><time>2026-04-25T16:49:37Z</time></trkpt><trkpt lat="59.0731644630" lon="29.9990487099"><time>2026-04-25T16:49:39Z</time></trkpt><trkpt lat="59.0731644630" lon="29.9990487099"><time>2026-04-25T16:49:42Z</time></trkpt><trkpt lat="59.0731430054" lon="29.9990701675"><time>2026-04-25T16:49:44Z</time></trkpt><trkpt lat="59.0731430054" lon="29.9990701675"><time>2026-04-25T16:49:47Z</time></trkpt><trkpt lat="59.0731215477" lon="29.9990916252"><time>2026-04-25T16:49:49Z</time></trkpt><trkpt lat="59.0731000900" lon="29.9991130829"><time>2026-04-25T16:49:52Z</time></trkpt><trkpt lat="59.0731000900" lon="29.9991345406"><time>2026-04-25T16:49:54Z</time></trkpt><trkpt lat="59.0731000900" lon="29.9991130829"><time>2026-04-25T16:49:57Z</time></trkpt><trkpt lat="59.0731644630" lon="29.9990487099"><time>2026-04-25T16:49:59Z</time></trkpt><trkpt lat="59.0731859207" lon="29.9990701675"><time>2026-04-25T16:50:02Z</time></trkpt><trkpt lat="59.0731859207" lon="29.9990701675"><time>2026-04-25T16:50:04Z</time></trkpt><trkpt lat="59.0731859207" lon="29.9990701675"><time>2026-04-25T16:50:07Z</time></trkpt><trkpt lat="59.0732073784" lon="29.9990487099"><time>2026-04-25T16:50:09Z</time></trkpt><trkpt lat="59.0732288361" lon="29.9990701675"><time>2026-04-25T16:50:12Z</time></trkpt><trkpt lat="59.0732502937" lon="29.9990701675"><time>2026-04-25T16:50:14Z</time></trkpt><trkpt lat="59.0732717514" lon="29.9990487099"><time>2026-04-25T16:50:17Z</time></trkpt><trkpt lat="59.0732932091" lon="29.9990272522"><time>2026-04-25T16:50:19Z</time></trkpt><trkpt lat="59.0733146667" lon="29.9990487099"><time>2026-04-25T16:50:22Z</time></trkpt><trkpt lat="59.0733361244" lon="29.9990701675"><time>2026-04-25T16:50:24Z</time></trkpt><trkpt lat="59.0733146667" lon="29.9990916252"><time>2026-04-25T16:50:27Z</time></trkpt><trkpt lat="59.0732932091" lon="29.9990701675"><time>2026-04-25T16:50:29Z</time></trkpt><trkpt lat="59.0732932091" lon="29.9990487099"><time>2026-04-25T16:50:32Z</time></trkpt><trkpt lat="59.0732932091" lon="29.9989843369"><time>2026-04-25T16:50:34Z</time></trkpt><trkpt lat="59.0732932091" lon="29.9990272522"><time>2026-04-25T16:50:37Z</time></trkpt><trkpt lat="59.0732502937" lon="29.9990701675"><time>2026-04-25T16:50:39Z</time></trkpt><trkpt lat="59.0732502937" lon="29.9990916252"><time>2026-04-25T16:50:42Z</time></trkpt><trkpt lat="59.0732288361" lon="29.9991559982"><time>2026-04-25T16:50:44Z</time></trkpt><trkpt lat="59.0731859207" lon="29.9991774559"><time>2026-04-25T16:50:47Z</time></trkpt><trkpt lat="59.0731644630" lon="29.9991989136"><time>2026-04-25T16:50:49Z</time></trkpt><trkpt lat="59.0731430054" lon="29.9992203712"><time>2026-04-25T16:50:52Z</time></trkpt><trkpt lat="59.0731215477" lon="29.9992418289"><time>2026-04-25T16:50:54Z</time></trkpt><trkpt lat="59.0731000900" lon="29.9992632866"><time>2026-04-25T16:50:57Z</time></trkpt><trkpt lat="59.0730786324" lon="29.9993276596"><time>2026-04-25T16:50:59Z</time></trkpt><trkpt lat="59.0730786324" lon="29.9993705750"><time>2026-04-25T16:51:02Z</time></trkpt><trkpt lat="59.0730571747" lon="29.9994564056"><time>2026-04-25T16:51:04Z</time></trkpt><trkpt lat="59.0730786324" lon="29.9994993210"><time>2026-04-25T16:51:07Z</time></trkpt><trkpt lat="59.0730786324" lon="29.9995422363"><time>2026-04-25T16:51:09Z</time></trkpt><trkpt lat="59.0731000900" lon="29.9995636940"><time>2026-04-25T16:51:12Z</time></trkpt><trkpt lat="59.0731000900" lon="29.9995636940"><time>2026-04-25T16:51:14Z</time></trkpt><trkpt lat="59.0731000900" lon="29.9995636940"><time>2026-04-25T16:51:17Z</time></trkpt><trkpt lat="59.0731000900" lon="29.9995636940"><time>2026-04-25T16:51:19Z</time></trkpt><trkpt lat="59.0731000900" lon="29.9995636940"><time>2026-04-25T16:51:22Z</time></trkpt><trkpt lat="59.0731000900" lon="29.9995636940"><time>2026-04-25T16:51:24Z</time></trkpt><trkpt lat="59.0731000900" lon="29.9995636940"><time>2026-04-25T16:51:27Z</time></trkpt><trkpt lat="59.0731000900" lon="29.9995636940"><time>2026-04-25T16:51:29Z</time></trkpt><trkpt lat="59.0731000900" lon="29.9995636940"><time>2026-04-25T16:51:32Z</time></trkpt><trkpt lat="59.0731000900" lon="29.9995636940"><time>2026-04-25T16:51:34Z</time></trkpt><trkpt lat="59.0731000900" lon="29.9995636940"><time>2026-04-25T16:51:37Z</time></trkpt><trkpt lat="59.0731000900" lon="29.9995636940"><time>2026-04-25T16:51:39Z</time></trkpt><trkpt lat="59.0731000900" lon="29.9995636940"><time>2026-04-25T16:51:42Z</time></trkpt><trkpt lat="59.0731000900" lon="29.9995636940"><time>2026-04-25T16:51:44Z</time></trkpt><trkpt lat="59.0731000900" lon="29.9995636940"><time>2026-04-25T16:51:47Z</time></trkpt><trkpt lat="59.0730786324" lon="29.9995851517"><time>2026-04-25T16:51:49Z</time></trkpt><trkpt lat="59.0730571747" lon="29.9995851517"><time>2026-04-25T16:51:52Z</time></trkpt><trkpt lat="59.0730571747" lon="29.9995636940"><time>2026-04-25T16:51:54Z</time></trkpt><trkpt lat="59.0730357170" lon="29.9995422363"><time>2026-04-25T16:51:57Z</time></trkpt><trkpt lat="59.0730357170" lon="29.9995207787"><time>2026-04-25T16:51:59Z</time></trkpt><trkpt lat="59.0730357170" lon="29.9994564056"><time>2026-04-25T16:52:02Z</time></trkpt><trkpt lat="59.0730357170" lon="29.9993705750"><time>2026-04-25T16:52:04Z</time></trkpt><trkpt lat="59.0730357170" lon="29.9993491173"><time>2026-04-25T16:52:07Z</time></trkpt><trkpt lat="59.0730357170" lon="29.9992632866"><time>2026-04-25T16:52:09Z</time></trkpt><trkpt lat="59.0730357170" lon="29.9992418289"><time>2026-04-25T16:52:12Z</time></trkpt><trkpt lat="59.0730142593" lon="29.9992203712"><time>2026-04-25T16:52:14Z</time></trkpt><trkpt lat="59.0730142593" lon="29.9991989136"><time>2026-04-25T16:52:17Z</time></trkpt><trkpt lat="59.0729928017" lon="29.9991774559"><time>2026-04-25T16:52:19Z</time></trkpt><trkpt lat="59.0729928017" lon="29.9991774559"><time>2026-04-25T16:52:22Z</time></trkpt><trkpt lat="59.0729713440" lon="29.9991774559"><time>2026-04-25T16:52:24Z</time></trkpt><trkpt lat="59.0729713440" lon="29.9991774559"><time>2026-04-25T16:52:27Z</time></trkpt><trkpt lat="59.0729284286" lon="29.9991774559"><time>2026-04-25T16:52:29Z</time></trkpt><trkpt lat="59.0729069710" lon="29.9991559982"><time>2026-04-25T16:52:32Z</time></trkpt><trkpt lat="59.0728640556" lon="29.9991345406"><time>2026-04-25T16:52:34Z</time></trkpt><trkpt lat="59.0728425980" lon="29.9991345406"><time>2026-04-25T16:52:37Z</time></trkpt><trkpt lat="59.0728211403" lon="29.9991559982"><time>2026-04-25T16:52:39Z</time></trkpt><trkpt lat="59.0727996826" lon="29.9991345406"><time>2026-04-25T16:52:42Z</time></trkpt><trkpt lat="59.0727782249" lon="29.9991345406"><time>2026-04-25T16:52:44Z</time></trkpt><trkpt lat="59.0727782249" lon="29.9991345406"><time>2026-04-25T16:52:47Z</time></trkpt><trkpt lat="59.0727782249" lon="29.9991345406"><time>2026-04-25T16:52:49Z</time></trkpt><trkpt lat="59.0727567673" lon="29.9991345406"><time>2026-04-25T16:52:52Z</time></trkpt><trkpt lat="59.0727353096" lon="29.9991130829"><time>2026-04-25T16:52:54Z</time></trkpt><trkpt lat="59.0727353096" lon="29.9990701675"><time>2026-04-25T16:52:57Z</time></trkpt><trkpt lat="59.0727353096" lon="29.9990272522"><time>2026-04-25T16:52:59Z</time></trkpt><trkpt lat="59.0727353096" lon="29.9990272522"><time>2026-04-25T16:53:02Z</time></trkpt><trkpt lat="59.0727138519" lon="29.9990487099"><time>2026-04-25T16:53:04Z</time></trkpt><trkpt lat="59.0727138519" lon="29.9990916252"><time>2026-04-25T16:53:07Z</time></trkpt><trkpt lat="59.0726923943" lon="29.9991345406"><time>2026-04-25T16:53:09Z</time></trkpt><trkpt lat="59.0726923943" lon="29.9991559982"><time>2026-04-25T16:53:12Z</time></trkpt><trkpt lat="59.0726709366" lon="29.9991989136"><time>2026-04-25T16:53:14Z</time></trkpt><trkpt lat="59.0726709366" lon="29.9992632866"><time>2026-04-25T16:53:17Z</time></trkpt><trkpt lat="59.0726494789" lon="29.9992847443"><time>2026-04-25T16:53:19Z</time></trkpt><trkpt lat="59.0726065636" lon="29.9993062019"><time>2026-04-25T16:53:22Z</time></trkpt><trkpt lat="59.0725851059" lon="29.9992847443"><time>2026-04-25T16:53:24Z</time></trkpt><trkpt lat="59.0725851059" lon="29.9992847443"><time>2026-04-25T16:53:27Z</time></trkpt><trkpt lat="59.0725851059" lon="29.9992847443"><time>2026-04-25T16:53:29Z</time></trkpt><trkpt lat="59.0725636482" lon="29.9993062019"><time>2026-04-25T16:53:32Z</time></trkpt><trkpt lat="59.0725636482" lon="29.9993276596"><time>2026-04-25T16:53:34Z</time></trkpt><trkpt lat="59.0725421906" lon="29.9993276596"><time>2026-04-25T16:53:37Z</time></trkpt><trkpt lat="59.0725421906" lon="29.9993276596"><time>2026-04-25T16:53:39Z</time></trkpt><trkpt lat="59.0725207329" lon="29.9993276596"><time>2026-04-25T16:53:42Z</time></trkpt><trkpt lat="59.0724992752" lon="29.9993491173"><time>2026-04-25T16:53:44Z</time></trkpt><trkpt lat="59.0724778175" lon="29.9993276596"><time>2026-04-25T16:53:47Z</time></trkpt><trkpt lat="59.0724349022" lon="29.9993276596"><time>2026-04-25T16:53:49Z</time></trkpt><trkpt lat="59.0724349022" lon="29.9993276596"><time>2026-04-25T16:53:52Z</time></trkpt><trkpt lat="59.0724134445" lon="29.9992847443"><time>2026-04-25T16:53:54Z</time></trkpt><trkpt lat="59.0724134445" lon="29.9992632866"><time>2026-04-25T16:53:57Z</time></trkpt><trkpt lat="59.0723919868" lon="29.9992418289"><time>2026-04-25T16:53:59Z</time></trkpt><trkpt lat="59.0723919868" lon="29.9992418289"><time>2026-04-25T16:54:02Z</time></trkpt><trkpt lat="59.0723919868" lon="29.9992203712"><time>2026-04-25T16:54:04Z</time></trkpt><trkpt lat="59.0723705292" lon="29.9991559982"><time>2026-04-25T16:54:07Z</time></trkpt><trkpt lat="59.0723705292" lon="29.9990701675"><time>2026-04-25T16:54:09Z</time></trkpt><trkpt lat="59.0723490715" lon="29.9990272522"><time>2026-04-25T16:54:12Z</time></trkpt><trkpt lat="59.0723490715" lon="29.9990057945"><time>2026-04-25T16:54:14Z</time></trkpt><trkpt lat="59.0723705292" lon="29.9989843369"><time>2026-04-25T16:54:17Z</time></trkpt><trkpt lat="59.0723705292" lon="29.9989414215"><time>2026-04-25T16:54:19Z</time></trkpt><trkpt lat="59.0723919868" lon="29.9989199638"><time>2026-04-25T16:54:22Z</time></trkpt><trkpt lat="59.0723919868" lon="29.9988770485"><time>2026-04-25T16:54:24Z</time></trkpt><trkpt lat="59.0724134445" lon="29.9988770485"><time>2026-04-25T16:54:27Z</time></trkpt><trkpt lat="59.0724134445" lon="29.9988555908"><time>2026-04-25T16:54:29Z</time></trkpt><trkpt lat="59.0724134445" lon="29.9988126755"><time>2026-04-25T16:54:32Z</time></trkpt><trkpt lat="59.0724134445" lon="29.9987697601"><time>2026-04-25T16:54:34Z</time></trkpt><trkpt lat="59.0724134445" lon="29.9987053871"><time>2026-04-25T16:54:37Z</time></trkpt><trkpt lat="59.0724563599" lon="29.9986624718"><time>2026-04-25T16:54:39Z</time></trkpt><trkpt lat="59.0724778175" lon="29.9986195564"><time>2026-04-25T16:54:42Z</time></trkpt><trkpt lat="59.0725207329" lon="29.9985766411"><time>2026-04-25T16:54:44Z</time></trkpt><trkpt lat="59.0725207329" lon="29.9984908104"><time>2026-04-25T16:54:47Z</time></trkpt><trkpt lat="59.0725207329" lon="29.9984264374"><time>2026-04-25T16:54:49Z</time></trkpt><trkpt lat="59.0725207329" lon="29.9983835220"><time>2026-04-25T16:54:52Z</time></trkpt><trkpt lat="59.0725421906" lon="29.9982976913"><time>2026-04-25T16:54:54Z</time></trkpt><trkpt lat="59.0725421906" lon="29.9982547760"><time>2026-04-25T16:54:57Z</time></trkpt><trkpt lat="59.0725421906" lon="29.9981904030"><time>2026-04-25T16:54:59Z</time></trkpt><trkpt lat="59.0725207329" lon="29.9981260300"><time>2026-04-25T16:55:02Z</time></trkpt><trkpt lat="59.0725207329" lon="29.9980616570"><time>2026-04-25T16:55:04Z</time></trkpt><trkpt lat="59.0724992752" lon="29.9980187416"><time>2026-04-25T16:55:07Z</time></trkpt><trkpt lat="59.0724992752" lon="29.9979543686"><time>2026-04-25T16:55:09Z</time></trkpt><trkpt lat="59.0724778175" lon="29.9979543686"><time>2026-04-25T16:55:12Z</time></trkpt><trkpt lat="59.0724778175" lon="29.9979114532"><time>2026-04-25T16:55:14Z</time></trkpt><trkpt lat="59.0724563599" lon="29.9978899956"><time>2026-04-25T16:55:17Z</time></trkpt><trkpt lat="59.0724563599" lon="29.9978899956"><time>2026-04-25T16:55:19Z</time></trkpt><trkpt lat="59.0724349022" lon="29.9978685379"><time>2026-04-25T16:55:22Z</time></trkpt><trkpt lat="59.0724349022" lon="29.9978685379"><time>2026-04-25T16:55:24Z</time></trkpt><trkpt lat="59.0724349022" lon="29.9978685379"><time>2026-04-25T16:55:27Z</time></trkpt><trkpt lat="59.0723919868" lon="29.9978470802"><time>2026-04-25T16:55:29Z</time></trkpt><trkpt lat="59.0723919868" lon="29.9978256226"><time>2026-04-25T16:55:32Z</time></trkpt><trkpt lat="59.0723919868" lon="29.9978256226"><time>2026-04-25T16:55:34Z</time></trkpt><trkpt lat="59.0723490715" lon="29.9978041649"><time>2026-04-25T16:55:37Z</time></trkpt><trkpt lat="59.0723276138" lon="29.9977612495"><time>2026-04-25T16:55:39Z</time></trkpt><trkpt lat="59.0723061562" lon="29.9977397919"><time>2026-04-25T16:55:42Z</time></trkpt><trkpt lat="59.0722632408" lon="29.9976968765"><time>2026-04-25T16:55:44Z</time></trkpt><trkpt lat="59.0722632408" lon="29.9976968765"><time>2026-04-25T16:55:47Z</time></trkpt><trkpt lat="59.0722417831" lon="29.9976325035"><time>2026-04-25T16:55:49Z</time></trkpt><trkpt lat="59.0722203255" lon="29.9975895882"><time>2026-04-25T16:55:52Z</time></trkpt><trkpt lat="59.0721988678" lon="29.9975466728"><time>2026-04-25T16:55:54Z</time></trkpt><trkpt lat="59.0722203255" lon="29.9975037575"><time>2026-04-25T16:55:57Z</time></trkpt><trkpt lat="59.0722203255" lon="29.9974393845"><time>2026-04-25T16:55:59Z</time></trkpt><trkpt lat="59.0722203255" lon="29.9973750114"><time>2026-04-25T16:56:02Z</time></trkpt><trkpt lat="59.0722203255" lon="29.9973106384"><time>2026-04-25T16:56:04Z</time></trkpt><trkpt lat="59.0722417831" lon="29.9972462654"><time>2026-04-25T16:56:07Z</time></trkpt><trkpt lat="59.0722632408" lon="29.9972033501"><time>2026-04-25T16:56:09Z</time></trkpt><trkpt lat="59.0722846985" lon="29.9971604347"><time>2026-04-25T16:56:12Z</time></trkpt><trkpt lat="59.0723061562" lon="29.9970960617"><time>2026-04-25T16:56:14Z</time></trkpt><trkpt lat="59.0723276138" lon="29.9970960617"><time>2026-04-25T16:56:17Z</time></trkpt><trkpt lat="59.0723276138" lon="29.9970960617"><time>2026-04-25T16:56:19Z</time></trkpt><trkpt lat="59.0723276138" lon="29.9970746040"><time>2026-04-25T16:56:22Z</time></trkpt><trkpt lat="59.0723276138" lon="29.9970102310"><time>2026-04-25T16:56:24Z</time></trkpt><trkpt lat="59.0723276138" lon="29.9969458580"><time>2026-04-25T16:56:27Z</time></trkpt><trkpt lat="59.0723705292" lon="29.9969029427"><time>2026-04-25T16:56:29Z</time></trkpt><trkpt lat="59.0723705292" lon="29.9968814850"><time>2026-04-25T16:56:32Z</time></trkpt><trkpt lat="59.0723705292" lon="29.9968171120"><time>2026-04-25T16:56:34Z</time></trkpt><trkpt lat="59.0723705292" lon="29.9967956543"><time>2026-04-25T16:56:37Z</time></trkpt><trkpt lat="59.0723919868" lon="29.9967741966"><time>2026-04-25T16:56:39Z</time></trkpt><trkpt lat="59.0724134445" lon="29.9967741966"><time>2026-04-25T16:56:42Z</time></trkpt><trkpt lat="59.0724349022" lon="29.9967741966"><time>2026-04-25T16:56:44Z</time></trkpt><trkpt lat="59.0724778175" lon="29.9967741966"><time>2026-04-25T16:56:47Z</time></trkpt><trkpt lat="59.0725207329" lon="29.9967741966"><time>2026-04-25T16:56:49Z</time></trkpt><trkpt lat="59.0725421906" lon="29.9967527390"><time>2026-04-25T16:56:52Z</time></trkpt><trkpt lat="59.0725421906" lon="29.9966669083"><time>2026-04-25T16:56:54Z</time></trkpt><trkpt lat="59.0725421906" lon="29.9966025352"><time>2026-04-25T16:56:57Z</time></trkpt><trkpt lat="59.0725421906" lon="29.9965596199"><time>2026-04-25T16:56:59Z</time></trkpt><trkpt lat="59.0725421906" lon="29.9965381622"><time>2026-04-25T16:57:02Z</time></trkpt><trkpt lat="59.0725421906" lon="29.9964952469"><time>2026-04-25T16:57:04Z</time></trkpt><trkpt lat="59.0725421906" lon="29.9964523315"><time>2026-04-25T16:57:07Z</time></trkpt><trkpt lat="59.0725421906" lon="29.9964308739"><time>2026-04-25T16:57:09Z</time></trkpt><trkpt lat="59.0725421906" lon="29.9963879585"><time>2026-04-25T16:57:12Z</time></trkpt><trkpt lat="59.0725207329" lon="29.9963665009"><time>2026-04-25T16:57:14Z</time></trkpt><trkpt lat="59.0725207329" lon="29.9963235855"><time>2026-04-25T16:57:17Z</time></trkpt><trkpt lat="59.0725421906" lon="29.9962806702"><time>2026-04-25T16:57:19Z</time></trkpt><trkpt lat="59.0725421906" lon="29.9962592125"><time>2026-04-25T16:57:22Z</time></trkpt><trkpt lat="59.0725207329" lon="29.9962162971"><time>2026-04-25T16:57:24Z</time></trkpt><trkpt lat="59.0724992752" lon="29.9961733818"><time>2026-04-25T16:57:27Z</time></trkpt><trkpt lat="59.0724778175" lon="29.9961733818"><time>2026-04-25T16:57:29Z</time></trkpt><trkpt lat="59.0724778175" lon="29.9961519241"><time>2026-04-25T16:57:32Z</time></trkpt><trkpt lat="59.0724563599" lon="29.9961304665"><time>2026-04-25T16:57:34Z</time></trkpt><trkpt lat="59.0724563599" lon="29.9961090088"><time>2026-04-25T16:57:37Z</time></trkpt><trkpt lat="59.0724349022" lon="29.9960660934"><time>2026-04-25T16:57:39Z</time></trkpt><trkpt lat="59.0724134445" lon="29.9960446358"><time>2026-04-25T16:57:42Z</time></trkpt><trkpt lat="59.0724134445" lon="29.9959802628"><time>2026-04-25T16:57:44Z</time></trkpt><trkpt lat="59.0724134445" lon="29.9959373474"><time>2026-04-25T16:57:47Z</time></trkpt><trkpt lat="59.0723919868" lon="29.9958944321"><time>2026-04-25T16:57:49Z</time></trkpt><trkpt lat="59.0723705292" lon="29.9958515167"><time>2026-04-25T16:57:52Z</time></trkpt><trkpt lat="59.0723919868" lon="29.9958300591"><time>2026-04-25T16:57:54Z</time></trkpt><trkpt lat="59.0723919868" lon="29.9958086014"><time>2026-04-25T16:57:57Z</time></trkpt><trkpt lat="59.0723919868" lon="29.9957656860"><time>2026-04-25T16:57:59Z</time></trkpt><trkpt lat="59.0724134445" lon="29.9957442284"><time>2026-04-25T16:58:02Z</time></trkpt><trkpt lat="59.0724349022" lon="29.9957013130"><time>2026-04-25T16:58:04Z</time></trkpt><trkpt lat="59.0724349022" lon="29.9957013130"><time>2026-04-25T16:58:07Z</time></trkpt><trkpt lat="59.0724778175" lon="29.9956583977"><time>2026-04-25T16:58:09Z</time></trkpt><trkpt lat="59.0724992752" lon="29.9956369400"><time>2026-04-25T16:58:12Z</time></trkpt><trkpt lat="59.0725207329" lon="29.9956154823"><time>2026-04-25T16:58:14Z</time></trkpt><trkpt lat="59.0725421906" lon="29.9955940247"><time>2026-04-25T16:58:17Z</time></trkpt><trkpt lat="59.0725636482" lon="29.9955940247"><time>2026-04-25T16:58:19Z</time></trkpt><trkpt lat="59.0725851059" lon="29.9955511093"><time>2026-04-25T16:58:22Z</time></trkpt><trkpt lat="59.0726280212" lon="29.9955081940"><time>2026-04-25T16:58:24Z</time></trkpt><trkpt lat="59.0726280212" lon="29.9954438210"><time>2026-04-25T16:58:27Z</time></trkpt><trkpt lat="59.0726494789" lon="29.9953794479"><time>2026-04-25T16:58:29Z</time></trkpt><trkpt lat="59.0726494789" lon="29.9953365326"><time>2026-04-25T16:58:32Z</time></trkpt><trkpt lat="59.0726709366" lon="29.9952936172"><time>2026-04-25T16:58:34Z</time></trkpt><trkpt lat="59.0726709366" lon="29.9952936172"><time>2026-04-25T16:58:37Z</time></trkpt><trkpt lat="59.0726709366" lon="29.9952936172"><time>2026-04-25T16:58:39Z</time></trkpt><trkpt lat="59.0726709366" lon="29.9952936172"><time>2026-04-25T16:58:42Z</time></trkpt><trkpt lat="59.0726280212" lon="29.9952936172"><time>2026-04-25T16:58:44Z</time></trkpt><trkpt lat="59.0726065636" lon="29.9952721596"><time>2026-04-25T16:58:47Z</time></trkpt><trkpt lat="59.0725851059" lon="29.9952077866"><time>2026-04-25T16:58:49Z</time></trkpt><trkpt lat="59.0725636482" lon="29.9951648712"><time>2026-04-25T16:58:52Z</time></trkpt><trkpt lat="59.0725636482" lon="29.9951434135"><time>2026-04-25T16:58:54Z</time></trkpt><trkpt lat="59.0725421906" lon="29.9951434135"><time>2026-04-25T16:58:57Z</time></trkpt><trkpt lat="59.0725421906" lon="29.9951219559"><time>2026-04-25T16:58:59Z</time></trkpt><trkpt lat="59.0725421906" lon="29.9950790405"><time>2026-04-25T16:59:02Z</time></trkpt><trkpt lat="59.0725207329" lon="29.9950361252"><time>2026-04-25T16:59:04Z</time></trkpt><trkpt lat="59.0724992752" lon="29.9950146675"><time>2026-04-25T16:59:07Z</time></trkpt><trkpt lat="59.0724992752" lon="29.9949932098"><time>2026-04-25T16:59:09Z</time></trkpt><trkpt lat="59.0724992752" lon="29.9949932098"><time>2026-04-25T16:59:12Z</time></trkpt><trkpt lat="59.0724992752" lon="29.9949932098"><time>2026-04-25T16:59:14Z</time></trkpt><trkpt lat="59.0724992752" lon="29.9949932098"><time>2026-04-25T16:59:17Z</time></trkpt><trkpt lat="59.0724992752" lon="29.9949932098"><time>2026-04-25T16:59:19Z</time></trkpt><trkpt lat="59.0724992752" lon="29.9949932098"><time>2026-04-25T16:59:22Z</time></trkpt><trkpt lat="59.0724778175" lon="29.9948859215"><time>2026-04-25T16:59:24Z</time></trkpt><trkpt lat="59.0724992752" lon="29.9948215485"><time>2026-04-25T16:59:27Z</time></trkpt><trkpt lat="59.0724992752" lon="29.9947571754"><time>2026-04-25T16:59:29Z</time></trkpt><trkpt lat="59.0724992752" lon="29.9947357178"><time>2026-04-25T16:59:32Z</time></trkpt><trkpt lat="59.0724992752" lon="29.9947357178"><time>2026-04-25T16:59:34Z</time></trkpt><trkpt lat="59.0724992752" lon="29.9947357178"><time>2026-04-25T16:59:37Z</time></trkpt><trkpt lat="59.0724992752" lon="29.9947357178"><time>2026-04-25T16:59:39Z</time></trkpt><trkpt lat="59.0724992752" lon="29.9947357178"><time>2026-04-25T16:59:42Z</time></trkpt><trkpt lat="59.0724992752" lon="29.9947357178"><time>2026-04-25T16:59:44Z</time></trkpt><trkpt lat="59.0724992752" lon="29.9947357178"><time>2026-04-25T16:59:47Z</time></trkpt><trkpt lat="59.0725207329" lon="29.9947357178"><time>2026-04-25T16:59:49Z</time></trkpt><trkpt lat="59.0725207329" lon="29.9947357178"><time>2026-04-25T16:59:52Z</time></trkpt><trkpt lat="59.0725636482" lon="29.9947357178"><time>2026-04-25T16:59:54Z</time></trkpt><trkpt lat="59.0725851059" lon="29.9947142601"><time>2026-04-25T16:59:57Z</time></trkpt><trkpt lat="59.0726065636" lon="29.9946498871"><time>2026-04-25T16:59:59Z</time></trkpt><trkpt lat="59.0726280212" lon="29.9945855141"><time>2026-04-25T17:00:02Z</time></trkpt><trkpt lat="59.0726494789" lon="29.9945211411"><time>2026-04-25T17:00:04Z</time></trkpt><trkpt lat="59.0726709366" lon="29.9944782257"><time>2026-04-25T17:00:07Z</time></trkpt><trkpt lat="59.0726709366" lon="29.9944138527"><time>2026-04-25T17:00:09Z</time></trkpt><trkpt lat="59.0726923943" lon="29.9943709373"><time>2026-04-25T17:00:12Z</time></trkpt><trkpt lat="59.0727138519" lon="29.9942636490"><time>2026-04-25T17:00:14Z</time></trkpt><trkpt lat="59.0727353096" lon="29.9942207336"><time>2026-04-25T17:00:17Z</time></trkpt><trkpt lat="59.0727567673" lon="29.9941349030"><time>2026-04-25T17:00:19Z</time></trkpt><trkpt lat="59.0727782249" lon="29.9940705299"><time>2026-04-25T17:00:22Z</time></trkpt><trkpt lat="59.0727996826" lon="29.9939846992"><time>2026-04-25T17:00:24Z</time></trkpt><trkpt lat="59.0727782249" lon="29.9939417839"><time>2026-04-25T17:00:27Z</time></trkpt><trkpt lat="59.0727782249" lon="29.9938988686"><time>2026-04-25T17:00:29Z</time></trkpt><trkpt lat="59.0727567673" lon="29.9938559532"><time>2026-04-25T17:00:32Z</time></trkpt><trkpt lat="59.0727353096" lon="29.9937915802"><time>2026-04-25T17:00:34Z</time></trkpt><trkpt lat="59.0727353096" lon="29.9937486649"><time>2026-04-25T17:00:37Z</time></trkpt><trkpt lat="59.0727353096" lon="29.9937486649"><time>2026-04-25T17:00:39Z</time></trkpt><trkpt lat="59.0727353096" lon="29.9937486649"><time>2026-04-25T17:00:42Z</time></trkpt><trkpt lat="59.0727353096" lon="29.9937486649"><time>2026-04-25T17:00:44Z</time></trkpt><trkpt lat="59.0727353096" lon="29.9937486649"><time>2026-04-25T17:00:47Z</time></trkpt><trkpt lat="59.0727353096" lon="29.9937486649"><time>2026-04-25T17:00:49Z</time></trkpt><trkpt lat="59.0727353096" lon="29.9937486649"><time>2026-04-25T17:00:52Z</time></trkpt><trkpt lat="59.0727353096" lon="29.9937486649"><time>2026-04-25T17:00:54Z</time></trkpt><trkpt lat="59.0727353096" lon="29.9937486649"><time>2026-04-25T17:00:57Z</time></trkpt><trkpt lat="59.0727353096" lon="29.9937486649"><time>2026-04-25T17:00:59Z</time></trkpt><trkpt lat="59.0727353096" lon="29.9937486649"><time>2026-04-25T17:01:02Z</time></trkpt><trkpt lat="59.0727353096" lon="29.9937486649"><time>2026-04-25T17:01:04Z</time></trkpt><trkpt lat="59.0727353096" lon="29.9937486649"><time>2026-04-25T17:01:07Z</time></trkpt><trkpt lat="59.0727353096" lon="29.9937486649"><time>2026-04-25T17:01:09Z</time></trkpt><trkpt lat="59.0727353096" lon="29.9937486649"><time>2026-04-25T17:01:12Z</time></trkpt><trkpt lat="59.0727353096" lon="29.9937486649"><time>2026-04-25T17:01:14Z</time></trkpt><trkpt lat="59.0727353096" lon="29.9937486649"><time>2026-04-25T17:01:17Z</time></trkpt><trkpt lat="59.0727353096" lon="29.9937486649"><time>2026-04-25T17:01:19Z</time></trkpt><trkpt lat="59.0727353096" lon="29.9937486649"><time>2026-04-25T17:01:22Z</time></trkpt><trkpt lat="59.0727353096" lon="29.9937486649"><time>2026-04-25T17:01:24Z</time></trkpt><trkpt lat="59.0727353096" lon="29.9937486649"><time>2026-04-25T17:01:27Z</time></trkpt><trkpt lat="59.0727353096" lon="29.9937486649"><time>2026-04-25T17:01:29Z</time></trkpt><trkpt lat="59.0727353096" lon="29.9936842918"><time>2026-04-25T17:01:32Z</time></trkpt><trkpt lat="59.0727353096" lon="29.9935984612"><time>2026-04-25T17:01:34Z</time></trkpt><trkpt lat="59.0727353096" lon="29.9935984612"><time>2026-04-25T17:01:37Z</time></trkpt><trkpt lat="59.0727353096" lon="29.9935984612"><time>2026-04-25T17:01:39Z</time></trkpt><trkpt lat="59.0727353096" lon="29.9935770035"><time>2026-04-25T17:01:42Z</time></trkpt><trkpt lat="59.0727567673" lon="29.9935340881"><time>2026-04-25T17:01:44Z</time></trkpt><trkpt lat="59.0727567673" lon="29.9934697151"><time>2026-04-25T17:01:47Z</time></trkpt><trkpt lat="59.0727567673" lon="29.9934053421"><time>2026-04-25T17:01:49Z</time></trkpt><trkpt lat="59.0727782249" lon="29.9933838844"><time>2026-04-25T17:01:52Z</time></trkpt><trkpt lat="59.0727782249" lon="29.9933409691"><time>2026-04-25T17:01:54Z</time></trkpt><trkpt lat="59.0727782249" lon="29.9932765961"><time>2026-04-25T17:01:57Z</time></trkpt><trkpt lat="59.0727782249" lon="29.9932765961"><time>2026-04-25T17:01:59Z</time></trkpt><trkpt lat="59.0727782249" lon="29.9932765961"><time>2026-04-25T17:02:02Z</time></trkpt><trkpt lat="59.0727782249" lon="29.9932765961"><time>2026-04-25T17:02:04Z</time></trkpt><trkpt lat="59.0727782249" lon="29.9932336807"><time>2026-04-25T17:02:07Z</time></trkpt><trkpt lat="59.0727353096" lon="29.9931478500"><time>2026-04-25T17:02:09Z</time></trkpt><trkpt lat="59.0727138519" lon="29.9931907654"><time>2026-04-25T17:02:12Z</time></trkpt><trkpt lat="59.0726709366" lon="29.9932551384"><time>2026-04-25T17:02:14Z</time></trkpt><trkpt lat="59.0726494789" lon="29.9932336807"><time>2026-04-25T17:02:17Z</time></trkpt><trkpt lat="59.0726494789" lon="29.9932551384"><time>2026-04-25T17:02:19Z</time></trkpt><trkpt lat="59.0726280212" lon="29.9932765961"><time>2026-04-25T17:02:22Z</time></trkpt><trkpt lat="59.0726065636" lon="29.9932765961"><time>2026-04-25T17:02:24Z</time></trkpt><trkpt lat="59.0726065636" lon="29.9932765961"><time>2026-04-25T17:02:27Z</time></trkpt><trkpt lat="59.0726065636" lon="29.9932765961"><time>2026-04-25T17:02:29Z</time></trkpt><trkpt lat="59.0726065636" lon="29.9932765961"><time>2026-04-25T17:02:32Z</time></trkpt><trkpt lat="59.0726065636" lon="29.9932765961"><time>2026-04-25T17:02:34Z</time></trkpt><trkpt lat="59.0726065636" lon="29.9932765961"><time>2026-04-25T17:02:37Z</time></trkpt><trkpt lat="59.0726065636" lon="29.9932765961"><time>2026-04-25T17:02:39Z</time></trkpt><trkpt lat="59.0726065636" lon="29.9932765961"><time>2026-04-25T17:02:42Z</time></trkpt><trkpt lat="59.0725851059" lon="29.9932336807"><time>2026-04-25T17:02:44Z</time></trkpt><trkpt lat="59.0725851059" lon="29.9932122231"><time>2026-04-25T17:02:47Z</time></trkpt><trkpt lat="59.0725851059" lon="29.9931907654"><time>2026-04-25T17:02:49Z</time></trkpt><trkpt lat="59.0725636482" lon="29.9931263924"><time>2026-04-25T17:02:52Z</time></trkpt><trkpt lat="59.0725421906" lon="29.9930191040"><time>2026-04-25T17:02:54Z</time></trkpt><trkpt lat="59.0725207329" lon="29.9929761887"><time>2026-04-25T17:02:57Z</time></trkpt><trkpt lat="59.0724992752" lon="29.9929547310"><time>2026-04-25T17:02:59Z</time></trkpt><trkpt lat="59.0724778175" lon="29.9929118156"><time>2026-04-25T17:03:02Z</time></trkpt><trkpt lat="59.0724778175" lon="29.9928689003"><time>2026-04-25T17:03:04Z</time></trkpt><trkpt lat="59.0724778175" lon="29.9928689003"><time>2026-04-25T17:03:07Z</time></trkpt><trkpt lat="59.0724778175" lon="29.9928689003"><time>2026-04-25T17:03:09Z</time></trkpt><trkpt lat="59.0724778175" lon="29.9928689003"><time>2026-04-25T17:03:12Z</time></trkpt><trkpt lat="59.0724778175" lon="29.9928689003"><time>2026-04-25T17:03:14Z</time></trkpt><trkpt lat="59.0724778175" lon="29.9928689003"><time>2026-04-25T17:03:17Z</time></trkpt><trkpt lat="59.0724778175" lon="29.9928689003"><time>2026-04-25T17:03:19Z</time></trkpt><trkpt lat="59.0724778175" lon="29.9928689003"><time>2026-04-25T17:03:22Z</time></trkpt><trkpt lat="59.0724778175" lon="29.9928689003"><time>2026-04-25T17:03:24Z</time></trkpt><trkpt lat="59.0724778175" lon="29.9928689003"><time>2026-04-25T17:03:27Z</time></trkpt><trkpt lat="59.0724778175" lon="29.9928689003"><time>2026-04-25T17:03:29Z</time></trkpt><trkpt lat="59.0724778175" lon="29.9928689003"><time>2026-04-25T17:03:32Z</time></trkpt><trkpt lat="59.0724563599" lon="29.9928474426"><time>2026-04-25T17:03:34Z</time></trkpt><trkpt lat="59.0724349022" lon="29.9928689003"><time>2026-04-25T17:03:37Z</time></trkpt><trkpt lat="59.0724134445" lon="29.9928474426"><time>2026-04-25T17:03:39Z</time></trkpt><trkpt lat="59.0723919868" lon="29.9928474426"><time>2026-04-25T17:03:42Z</time></trkpt><trkpt lat="59.0723705292" lon="29.9928689003"><time>2026-04-25T17:03:44Z</time></trkpt><trkpt lat="59.0723705292" lon="29.9928689003"><time>2026-04-25T17:03:47Z</time></trkpt><trkpt lat="59.0723490715" lon="29.9929118156"><time>2026-04-25T17:03:49Z</time></trkpt><trkpt lat="59.0723490715" lon="29.9929118156"><time>2026-04-25T17:03:52Z</time></trkpt><trkpt lat="59.0723276138" lon="29.9929547310"><time>2026-04-25T17:03:54Z</time></trkpt><trkpt lat="59.0723276138" lon="29.9929547310"><time>2026-04-25T17:03:57Z</time></trkpt><trkpt lat="59.0723276138" lon="29.9929547310"><time>2026-04-25T17:03:59Z</time></trkpt><trkpt lat="59.0723276138" lon="29.9929547310"><time>2026-04-25T17:04:02Z</time></trkpt><trkpt lat="59.0723276138" lon="29.9929547310"><time>2026-04-25T17:04:04Z</time></trkpt><trkpt lat="59.0723276138" lon="29.9929547310"><time>2026-04-25T17:04:07Z</time></trkpt><trkpt lat="59.0723276138" lon="29.9929547310"><time>2026-04-25T17:04:09Z</time></trkpt><trkpt lat="59.0723276138" lon="29.9929547310"><time>2026-04-25T17:04:12Z</time></trkpt><trkpt lat="59.0723276138" lon="29.9929761887"><time>2026-04-25T17:04:14Z</time></trkpt><trkpt lat="59.0723276138" lon="29.9930191040"><time>2026-04-25T17:04:17Z</time></trkpt><trkpt lat="59.0723061562" lon="29.9930405617"><time>2026-04-25T17:04:19Z</time></trkpt><trkpt lat="59.0722846985" lon="29.9930834770"><time>2026-04-25T17:04:22Z</time></trkpt><trkpt lat="59.0722417831" lon="29.9931263924"><time>2026-04-25T17:04:24Z</time></trkpt><trkpt lat="59.0722203255" lon="29.9931478500"><time>2026-04-25T17:04:27Z</time></trkpt><trkpt lat="59.0721774101" lon="29.9931693077"><time>2026-04-25T17:04:29Z</time></trkpt><trkpt lat="59.0721559525" lon="29.9931907654"><time>2026-04-25T17:04:32Z</time></trkpt><trkpt lat="59.0721344948" lon="29.9932122231"><time>2026-04-25T17:04:34Z</time></trkpt><trkpt lat="59.0721344948" lon="29.9932336807"><time>2026-04-25T17:04:37Z</time></trkpt><trkpt lat="59.0721130371" lon="29.9932336807"><time>2026-04-25T17:04:39Z</time></trkpt><trkpt lat="59.0721130371" lon="29.9932336807"><time>2026-04-25T17:04:42Z</time></trkpt><trkpt lat="59.0720701218" lon="29.9932122231"><time>2026-04-25T17:04:44Z</time></trkpt><trkpt lat="59.0720486641" lon="29.9932122231"><time>2026-04-25T17:04:47Z</time></trkpt><trkpt lat="59.0720486641" lon="29.9931907654"><time>2026-04-25T17:04:49Z</time></trkpt><trkpt lat="59.0720486641" lon="29.9931907654"><time>2026-04-25T17:04:52Z</time></trkpt><trkpt lat="59.0720486641" lon="29.9931907654"><time>2026-04-25T17:04:54Z</time></trkpt><trkpt lat="59.0720272064" lon="29.9931907654"><time>2026-04-25T17:04:57Z</time></trkpt><trkpt lat="59.0719628334" lon="29.9931907654"><time>2026-04-25T17:04:59Z</time></trkpt><trkpt lat="59.0719413757" lon="29.9931693077"><time>2026-04-25T17:05:02Z</time></trkpt><trkpt lat="59.0719199181" lon="29.9931907654"><time>2026-04-25T17:05:04Z</time></trkpt><trkpt lat="59.0718984604" lon="29.9932122231"><time>2026-04-25T17:05:07Z</time></trkpt><trkpt lat="59.0718770027" lon="29.9932122231"><time>2026-04-25T17:05:09Z</time></trkpt><trkpt lat="59.0718555450" lon="29.9932122231"><time>2026-04-25T17:05:12Z</time></trkpt><trkpt lat="59.0718555450" lon="29.9932122231"><time>2026-04-25T17:05:14Z</time></trkpt><trkpt lat="59.0718555450" lon="29.9932122231"><time>2026-04-25T17:05:17Z</time></trkpt><trkpt lat="59.0718555450" lon="29.9932122231"><time>2026-04-25T17:05:19Z</time></trkpt><trkpt lat="59.0718555450" lon="29.9932122231"><time>2026-04-25T17:05:22Z</time></trkpt><trkpt lat="59.0718555450" lon="29.9932122231"><time>2026-04-25T17:05:24Z</time></trkpt><trkpt lat="59.0718555450" lon="29.9932122231"><time>2026-04-25T17:05:27Z</time></trkpt><trkpt lat="59.0718340874" lon="29.9932122231"><time>2026-04-25T17:05:29Z</time></trkpt><trkpt lat="59.0718340874" lon="29.9932122231"><time>2026-04-25T17:05:32Z</time></trkpt><trkpt lat="59.0718340874" lon="29.9932122231"><time>2026-04-25T17:05:34Z</time></trkpt><trkpt lat="59.0718340874" lon="29.9932122231"><time>2026-04-25T17:05:37Z</time></trkpt><trkpt lat="59.0718340874" lon="29.9932122231"><time>2026-04-25T17:05:39Z</time></trkpt><trkpt lat="59.0718340874" lon="29.9932122231"><time>2026-04-25T17:05:42Z</time></trkpt><trkpt lat="59.0718126297" lon="29.9932551384"><time>2026-04-25T17:05:44Z</time></trkpt><trkpt lat="59.0718126297" lon="29.9932980537"><time>2026-04-25T17:05:47Z</time></trkpt><trkpt lat="59.0718126297" lon="29.9932980537"><time>2026-04-25T17:05:49Z</time></trkpt><trkpt lat="59.0718126297" lon="29.9932980537"><time>2026-04-25T17:05:52Z</time></trkpt><trkpt lat="59.0718126297" lon="29.9932980537"><time>2026-04-25T17:05:54Z</time></trkpt><trkpt lat="59.0718126297" lon="29.9932980537"><time>2026-04-25T17:05:57Z</time></trkpt><trkpt lat="59.0718126297" lon="29.9932980537"><time>2026-04-25T17:05:59Z</time></trkpt><trkpt lat="59.0718126297" lon="29.9932980537"><time>2026-04-25T17:06:02Z</time></trkpt><trkpt lat="59.0718126297" lon="29.9933409691"><time>2026-04-25T17:06:04Z</time></trkpt><trkpt lat="59.0718340874" lon="29.9933838844"><time>2026-04-25T17:06:07Z</time></trkpt><trkpt lat="59.0718340874" lon="29.9933838844"><time>2026-04-25T17:06:09Z</time></trkpt><trkpt lat="59.0718340874" lon="29.9934697151"><time>2026-04-25T17:06:12Z</time></trkpt><trkpt lat="59.0718340874" lon="29.9935555458"><time>2026-04-25T17:06:14Z</time></trkpt><trkpt lat="59.0718340874" lon="29.9936199188"><time>2026-04-25T17:06:17Z</time></trkpt><trkpt lat="59.0718555450" lon="29.9937272072"><time>2026-04-25T17:06:19Z</time></trkpt><trkpt lat="59.0718555450" lon="29.9937486649"><time>2026-04-25T17:06:22Z</time></trkpt><trkpt lat="59.0718555450" lon="29.9938130379"><time>2026-04-25T17:06:24Z</time></trkpt><trkpt lat="59.0718555450" lon="29.9938344955"><time>2026-04-25T17:06:27Z</time></trkpt><trkpt lat="59.0718555450" lon="29.9938344955"><time>2026-04-25T17:06:29Z</time></trkpt><trkpt lat="59.0718555450" lon="29.9938344955"><time>2026-04-25T17:06:32Z</time></trkpt><trkpt lat="59.0718555450" lon="29.9938344955"><time>2026-04-25T17:06:34Z</time></trkpt><trkpt lat="59.0718555450" lon="29.9938344955"><time>2026-04-25T17:06:37Z</time></trkpt><trkpt lat="59.0718555450" lon="29.9938344955"><time>2026-04-25T17:06:39Z</time></trkpt><trkpt lat="59.0718555450" lon="29.9938344955"><time>2026-04-25T17:06:42Z</time></trkpt><trkpt lat="59.0718555450" lon="29.9938344955"><time>2026-04-25T17:06:44Z</time></trkpt><trkpt lat="59.0718555450" lon="29.9938344955"><time>2026-04-25T17:06:47Z</time></trkpt><trkpt lat="59.0718555450" lon="29.9938344955"><time>2026-04-25T17:06:49Z</time></trkpt><trkpt lat="59.0718555450" lon="29.9938344955"><time>2026-04-25T17:06:52Z</time></trkpt><trkpt lat="59.0718555450" lon="29.9938344955"><time>2026-04-25T17:06:54Z</time></trkpt><trkpt lat="59.0718555450" lon="29.9938344955"><time>2026-04-25T17:06:57Z</time></trkpt><trkpt lat="59.0718555450" lon="29.9938344955"><time>2026-04-25T17:06:59Z</time></trkpt><trkpt lat="59.0718555450" lon="29.9938344955"><time>2026-04-25T17:07:02Z</time></trkpt><trkpt lat="59.0718555450" lon="29.9938559532"><time>2026-04-25T17:07:04Z</time></trkpt><trkpt lat="59.0718770027" lon="29.9939632416"><time>2026-04-25T17:07:07Z</time></trkpt><trkpt lat="59.0718770027" lon="29.9940490723"><time>2026-04-25T17:07:09Z</time></trkpt><trkpt lat="59.0718984604" lon="29.9941349030"><time>2026-04-25T17:07:12Z</time></trkpt><trkpt lat="59.0719199181" lon="29.9941992760"><time>2026-04-25T17:07:14Z</time></trkpt><trkpt lat="59.0719413757" lon="29.9942421913"><time>2026-04-25T17:07:17Z</time></trkpt><trkpt lat="59.0719413757" lon="29.9942421913"><time>2026-04-25T17:07:19Z</time></trkpt><trkpt lat="59.0719413757" lon="29.9942421913"><time>2026-04-25T17:07:22Z</time></trkpt><trkpt lat="59.0719413757" lon="29.9942421913"><time>2026-04-25T17:07:24Z</time></trkpt><trkpt lat="59.0719413757" lon="29.9942421913"><time>2026-04-25T17:07:27Z</time></trkpt><trkpt lat="59.0719413757" lon="29.9942421913"><time>2026-04-25T17:07:29Z</time></trkpt><trkpt lat="59.0719413757" lon="29.9942421913"><time>2026-04-25T17:07:32Z</time></trkpt><trkpt lat="59.0719413757" lon="29.9942421913"><time>2026-04-25T17:07:34Z</time></trkpt><trkpt lat="59.0719628334" lon="29.9942636490"><time>2026-04-25T17:07:37Z</time></trkpt><trkpt lat="59.0719842911" lon="29.9942851067"><time>2026-04-25T17:07:39Z</time></trkpt><trkpt lat="59.0719842911" lon="29.9943709373"><time>2026-04-25T17:07:42Z</time></trkpt><trkpt lat="59.0720057487" lon="29.9943709373"><time>2026-04-25T17:07:44Z</time></trkpt><trkpt lat="59.0720057487" lon="29.9943494797"><time>2026-04-25T17:07:47Z</time></trkpt><trkpt lat="59.0720057487" lon="29.9943709373"><time>2026-04-25T17:07:49Z</time></trkpt><trkpt lat="59.0719842911" lon="29.9944353104"><time>2026-04-25T17:07:52Z</time></trkpt><trkpt lat="59.0719842911" lon="29.9944567680"><time>2026-04-25T17:07:54Z</time></trkpt><trkpt lat="59.0719842911" lon="29.9945211411"><time>2026-04-25T17:07:57Z</time></trkpt><trkpt lat="59.0720057487" lon="29.9945640564"><time>2026-04-25T17:07:59Z</time></trkpt><trkpt lat="59.0720057487" lon="29.9946284294"><time>2026-04-25T17:08:02Z</time></trkpt><trkpt lat="59.0720057487" lon="29.9946498871"><time>2026-04-25T17:08:04Z</time></trkpt><trkpt lat="59.0720057487" lon="29.9947571754"><time>2026-04-25T17:08:07Z</time></trkpt><trkpt lat="59.0720057487" lon="29.9948215485"><time>2026-04-25T17:08:09Z</time></trkpt><trkpt lat="59.0719842911" lon="29.9948859215"><time>2026-04-25T17:08:12Z</time></trkpt><trkpt lat="59.0719842911" lon="29.9949288368"><time>2026-04-25T17:08:14Z</time></trkpt><trkpt lat="59.0720057487" lon="29.9949717522"><time>2026-04-25T17:08:17Z</time></trkpt><trkpt lat="59.0719842911" lon="29.9950146675"><time>2026-04-25T17:08:19Z</time></trkpt><trkpt lat="59.0719842911" lon="29.9950575829"><time>2026-04-25T17:08:22Z</time></trkpt><trkpt lat="59.0719628334" lon="29.9951004982"><time>2026-04-25T17:08:24Z</time></trkpt><trkpt lat="59.0719628334" lon="29.9951219559"><time>2026-04-25T17:08:27Z</time></trkpt><trkpt lat="59.0719842911" lon="29.9951434135"><time>2026-04-25T17:08:29Z</time></trkpt><trkpt lat="59.0719842911" lon="29.9951863289"><time>2026-04-25T17:08:32Z</time></trkpt><trkpt lat="59.0720057487" lon="29.9952507019"><time>2026-04-25T17:08:34Z</time></trkpt><trkpt lat="59.0720272064" lon="29.9953150749"><time>2026-04-25T17:08:37Z</time></trkpt><trkpt lat="59.0720486641" lon="29.9953365326"><time>2026-04-25T17:08:39Z</time></trkpt><trkpt lat="59.0720486641" lon="29.9953365326"><time>2026-04-25T17:08:42Z</time></trkpt><trkpt lat="59.0720701218" lon="29.9953579903"><time>2026-04-25T17:08:44Z</time></trkpt><trkpt lat="59.0720915794" lon="29.9954438210"><time>2026-04-25T17:08:47Z</time></trkpt><trkpt lat="59.0721130371" lon="29.9954867363"><time>2026-04-25T17:08:49Z</time></trkpt><trkpt lat="59.0721344948" lon="29.9955511093"><time>2026-04-25T17:08:52Z</time></trkpt><trkpt lat="59.0721344948" lon="29.9955511093"><time>2026-04-25T17:08:54Z</time></trkpt><trkpt lat="59.0721344948" lon="29.9955511093"><time>2026-04-25T17:08:57Z</time></trkpt><trkpt lat="59.0721344948" lon="29.9955725670"><time>2026-04-25T17:08:59Z</time></trkpt><trkpt lat="59.0721130371" lon="29.9956369400"><time>2026-04-25T17:09:02Z</time></trkpt><trkpt lat="59.0720915794" lon="29.9956583977"><time>2026-04-25T17:09:04Z</time></trkpt><trkpt lat="59.0720701218" lon="29.9957013130"><time>2026-04-25T17:09:07Z</time></trkpt><trkpt lat="59.0720701218" lon="29.9957013130"><time>2026-04-25T17:09:09Z</time></trkpt><trkpt lat="59.0720272064" lon="29.9957442284"><time>2026-04-25T17:09:12Z</time></trkpt><trkpt lat="59.0720057487" lon="29.9957871437"><time>2026-04-25T17:09:14Z</time></trkpt><trkpt lat="59.0719842911" lon="29.9958300591"><time>2026-04-25T17:09:17Z</time></trkpt><trkpt lat="59.0719842911" lon="29.9958729744"><time>2026-04-25T17:09:19Z</time></trkpt><trkpt lat="59.0719842911" lon="29.9959373474"><time>2026-04-25T17:09:22Z</time></trkpt><trkpt lat="59.0720057487" lon="29.9959802628"><time>2026-04-25T17:09:24Z</time></trkpt><trkpt lat="59.0720272064" lon="29.9960231781"><time>2026-04-25T17:09:27Z</time></trkpt><trkpt lat="59.0720272064" lon="29.9960446358"><time>2026-04-25T17:09:29Z</time></trkpt><trkpt lat="59.0720486641" lon="29.9960875511"><time>2026-04-25T17:09:32Z</time></trkpt><trkpt lat="59.0720486641" lon="29.9960875511"><time>2026-04-25T17:09:34Z</time></trkpt><trkpt lat="59.0720486641" lon="29.9961304665"><time>2026-04-25T17:09:37Z</time></trkpt><trkpt lat="59.0720701218" lon="29.9961519241"><time>2026-04-25T17:09:39Z</time></trkpt><trkpt lat="59.0720701218" lon="29.9962162971"><time>2026-04-25T17:09:42Z</time></trkpt><trkpt lat="59.0720701218" lon="29.9962162971"><time>2026-04-25T17:09:44Z</time></trkpt><trkpt lat="59.0720701218" lon="29.9962162971"><time>2026-04-25T17:09:47Z</time></trkpt><trkpt lat="59.0720486641" lon="29.9962377548"><time>2026-04-25T17:09:49Z</time></trkpt><trkpt lat="59.0720701218" lon="29.9962377548"><time>2026-04-25T17:09:52Z</time></trkpt><trkpt lat="59.0720701218" lon="29.9962806702"><time>2026-04-25T17:09:54Z</time></trkpt><trkpt lat="59.0720915794" lon="29.9963235855"><time>2026-04-25T17:09:57Z</time></trkpt><trkpt lat="59.0721130371" lon="29.9963450432"><time>2026-04-25T17:09:59Z</time></trkpt><trkpt lat="59.0721130371" lon="29.9964094162"><time>2026-04-25T17:10:02Z</time></trkpt><trkpt lat="59.0720701218" lon="29.9964308739"><time>2026-04-25T17:10:04Z</time></trkpt><trkpt lat="59.0720486641" lon="29.9964737892"><time>2026-04-25T17:10:07Z</time></trkpt><trkpt lat="59.0720272064" lon="29.9964737892"><time>2026-04-25T17:10:09Z</time></trkpt><trkpt lat="59.0719842911" lon="29.9965167046"><time>2026-04-25T17:10:12Z</time></trkpt><trkpt lat="59.0719842911" lon="29.9965596199"><time>2026-04-25T17:10:14Z</time></trkpt><trkpt lat="59.0719842911" lon="29.9966239929"><time>2026-04-25T17:10:17Z</time></trkpt><trkpt lat="59.0719842911" lon="29.9966454506"><time>2026-04-25T17:10:19Z</time></trkpt><trkpt lat="59.0720057487" lon="29.9966883659"><time>2026-04-25T17:10:22Z</time></trkpt><trkpt lat="59.0720057487" lon="29.9967312813"><time>2026-04-25T17:10:24Z</time></trkpt><trkpt lat="59.0720057487" lon="29.9967527390"><time>2026-04-25T17:10:27Z</time></trkpt><trkpt lat="59.0719842911" lon="29.9967741966"><time>2026-04-25T17:10:29Z</time></trkpt><trkpt lat="59.0719842911" lon="29.9967741966"><time>2026-04-25T17:10:32Z</time></trkpt><trkpt lat="59.0719842911" lon="29.9967741966"><time>2026-04-25T17:10:34Z</time></trkpt><trkpt lat="59.0719842911" lon="29.9967956543"><time>2026-04-25T17:10:37Z</time></trkpt><trkpt lat="59.0719842911" lon="29.9968600273"><time>2026-04-25T17:10:39Z</time></trkpt><trkpt lat="59.0719628334" lon="29.9969673157"><time>2026-04-25T17:10:42Z</time></trkpt><trkpt lat="59.0719628334" lon="29.9969887733"><time>2026-04-25T17:10:44Z</time></trkpt><trkpt lat="59.0719628334" lon="29.9969887733"><time>2026-04-25T17:10:47Z</time></trkpt><trkpt lat="59.0719628334" lon="29.9969887733"><time>2026-04-25T17:10:49Z</time></trkpt><trkpt lat="59.0719628334" lon="29.9969887733"><time>2026-04-25T17:10:52Z</time></trkpt><trkpt lat="59.0719628334" lon="29.9969887733"><time>2026-04-25T17:10:54Z</time></trkpt><trkpt lat="59.0719628334" lon="29.9969887733"><time>2026-04-25T17:10:57Z</time></trkpt><trkpt lat="59.0719413757" lon="29.9970531464"><time>2026-04-25T17:10:59Z</time></trkpt><trkpt lat="59.0719628334" lon="29.9970960617"><time>2026-04-25T17:11:02Z</time></trkpt><trkpt lat="59.0719628334" lon="29.9970960617"><time>2026-04-25T17:11:04Z</time></trkpt><trkpt lat="59.0719628334" lon="29.9971604347"><time>2026-04-25T17:11:07Z</time></trkpt><trkpt lat="59.0719628334" lon="29.9972033501"><time>2026-04-25T17:11:09Z</time></trkpt><trkpt lat="59.0719628334" lon="29.9972033501"><time>2026-04-25T17:11:12Z</time></trkpt><trkpt lat="59.0719628334" lon="29.9972033501"><time>2026-04-25T17:11:14Z</time></trkpt><trkpt lat="59.0719413757" lon="29.9972891808"><time>2026-04-25T17:11:17Z</time></trkpt><trkpt lat="59.0719413757" lon="29.9973535538"><time>2026-04-25T17:11:19Z</time></trkpt><trkpt lat="59.0719199181" lon="29.9974608421"><time>2026-04-25T17:11:22Z</time></trkpt><trkpt lat="59.0719413757" lon="29.9975252151"><time>2026-04-25T17:11:24Z</time></trkpt><trkpt lat="59.0719413757" lon="29.9975681305"><time>2026-04-25T17:11:27Z</time></trkpt><trkpt lat="59.0719413757" lon="29.9975681305"><time>2026-04-25T17:11:29Z</time></trkpt><trkpt lat="59.0719413757" lon="29.9975681305"><time>2026-04-25T17:11:32Z</time></trkpt><trkpt lat="59.0719413757" lon="29.9975681305"><time>2026-04-25T17:11:34Z</time></trkpt><trkpt lat="59.0719413757" lon="29.9975681305"><time>2026-04-25T17:11:37Z</time></trkpt><trkpt lat="59.0719413757" lon="29.9975681305"><time>2026-04-25T17:11:39Z</time></trkpt><trkpt lat="59.0719199181" lon="29.9976539612"><time>2026-04-25T17:11:42Z</time></trkpt><trkpt lat="59.0718984604" lon="29.9977183342"><time>2026-04-25T17:11:44Z</time></trkpt><trkpt lat="59.0718984604" lon="29.9978256226"><time>2026-04-25T17:11:47Z</time></trkpt><trkpt lat="59.0719199181" lon="29.9978899956"><time>2026-04-25T17:11:49Z</time></trkpt><trkpt lat="59.0719199181" lon="29.9979543686"><time>2026-04-25T17:11:52Z</time></trkpt><trkpt lat="59.0719199181" lon="29.9980187416"><time>2026-04-25T17:11:54Z</time></trkpt><trkpt lat="59.0719199181" lon="29.9980831146"><time>2026-04-25T17:11:57Z</time></trkpt><trkpt lat="59.0719199181" lon="29.9980831146"><time>2026-04-25T17:11:59Z</time></trkpt><trkpt lat="59.0719199181" lon="29.9980831146"><time>2026-04-25T17:12:02Z</time></trkpt><trkpt lat="59.0719199181" lon="29.9980831146"><time>2026-04-25T17:12:04Z</time></trkpt><trkpt lat="59.0719199181" lon="29.9980831146"><time>2026-04-25T17:12:07Z</time></trkpt><trkpt lat="59.0719199181" lon="29.9980831146"><time>2026-04-25T17:12:09Z</time></trkpt><trkpt lat="59.0719199181" lon="29.9980831146"><time>2026-04-25T17:12:12Z</time></trkpt><trkpt lat="59.0719199181" lon="29.9980831146"><time>2026-04-25T17:12:14Z</time></trkpt><trkpt lat="59.0719199181" lon="29.9980831146"><time>2026-04-25T17:12:17Z</time></trkpt><trkpt lat="59.0719199181" lon="29.9980831146"><time>2026-04-25T17:12:19Z</time></trkpt><trkpt lat="59.0719199181" lon="29.9980831146"><time>2026-04-25T17:12:22Z</time></trkpt><trkpt lat="59.0719199181" lon="29.9980831146"><time>2026-04-25T17:12:24Z</time></trkpt><trkpt lat="59.0719199181" lon="29.9980831146"><time>2026-04-25T17:12:27Z</time></trkpt><trkpt lat="59.0719199181" lon="29.9980831146"><time>2026-04-25T17:12:29Z</time></trkpt><trkpt lat="59.0719199181" lon="29.9980831146"><time>2026-04-25T17:12:32Z</time></trkpt><trkpt lat="59.0719199181" lon="29.9981689453"><time>2026-04-25T17:12:34Z</time></trkpt><trkpt lat="59.0719413757" lon="29.9982762337"><time>2026-04-25T17:12:37Z</time></trkpt><trkpt lat="59.0719413757" lon="29.9983406067"><time>2026-04-25T17:12:39Z</time></trkpt><trkpt lat="59.0719413757" lon="29.9984264374"><time>2026-04-25T17:12:42Z</time></trkpt><trkpt lat="59.0719413757" lon="29.9984478951"><time>2026-04-25T17:12:44Z</time></trkpt><trkpt lat="59.0719413757" lon="29.9984693527"><time>2026-04-25T17:12:47Z</time></trkpt><trkpt lat="59.0719628334" lon="29.9985337257"><time>2026-04-25T17:12:49Z</time></trkpt><trkpt lat="59.0719628334" lon="29.9985766411"><time>2026-04-25T17:12:52Z</time></trkpt><trkpt lat="59.0719628334" lon="29.9986195564"><time>2026-04-25T17:12:54Z</time></trkpt><trkpt lat="59.0719628334" lon="29.9986195564"><time>2026-04-25T17:12:57Z</time></trkpt><trkpt lat="59.0719628334" lon="29.9986195564"><time>2026-04-25T17:12:59Z</time></trkpt><trkpt lat="59.0719628334" lon="29.9986195564"><time>2026-04-25T17:13:02Z</time></trkpt><trkpt lat="59.0719628334" lon="29.9986195564"><time>2026-04-25T17:13:04Z</time></trkpt><trkpt lat="59.0719628334" lon="29.9986195564"><time>2026-04-25T17:13:07Z</time></trkpt><trkpt lat="59.0719628334" lon="29.9986195564"><time>2026-04-25T17:13:09Z</time></trkpt><trkpt lat="59.0719628334" lon="29.9986195564"><time>2026-04-25T17:13:12Z</time></trkpt><trkpt lat="59.0719628334" lon="29.9986195564"><time>2026-04-25T17:13:14Z</time></trkpt><trkpt lat="59.0719413757" lon="29.9986839294"><time>2026-04-25T17:13:17Z</time></trkpt><trkpt lat="59.0719413757" lon="29.9987483025"><time>2026-04-25T17:13:19Z</time></trkpt><trkpt lat="59.0719413757" lon="29.9988341331"><time>2026-04-25T17:13:22Z</time></trkpt><trkpt lat="59.0719413757" lon="29.9988985062"><time>2026-04-25T17:13:24Z</time></trkpt><trkpt lat="59.0719413757" lon="29.9990057945"><time>2026-04-25T17:13:27Z</time></trkpt><trkpt lat="59.0719628334" lon="29.9990701675"><time>2026-04-25T17:13:29Z</time></trkpt><trkpt lat="59.0719842911" lon="29.9991345406"><time>2026-04-25T17:13:32Z</time></trkpt><trkpt lat="59.0719842911" lon="29.9991774559"><time>2026-04-25T17:13:34Z</time></trkpt><trkpt lat="59.0719842911" lon="29.9992418289"><time>2026-04-25T17:13:37Z</time></trkpt><trkpt lat="59.0719842911" lon="29.9992847443"><time>2026-04-25T17:13:39Z</time></trkpt><trkpt lat="59.0720057487" lon="29.9993276596"><time>2026-04-25T17:13:42Z</time></trkpt><trkpt lat="59.0720057487" lon="29.9993705750"><time>2026-04-25T17:13:44Z</time></trkpt><trkpt lat="59.0720272064" lon="29.9994564056"><time>2026-04-25T17:13:47Z</time></trkpt><trkpt lat="59.0720057487" lon="29.9994993210"><time>2026-04-25T17:13:49Z</time></trkpt><trkpt lat="59.0720057487" lon="29.9995207787"><time>2026-04-25T17:13:52Z</time></trkpt><trkpt lat="59.0720057487" lon="29.9995207787"><time>2026-04-25T17:13:54Z</time></trkpt><trkpt lat="59.0720057487" lon="29.9995207787"><time>2026-04-25T17:13:57Z</time></trkpt><trkpt lat="59.0720057487" lon="29.9995207787"><time>2026-04-25T17:13:59Z</time></trkpt><trkpt lat="59.0720057487" lon="29.9995207787"><time>2026-04-25T17:14:02Z</time></trkpt><trkpt lat="59.0720057487" lon="29.9995207787"><time>2026-04-25T17:14:04Z</time></trkpt><trkpt lat="59.0720057487" lon="29.9995207787"><time>2026-04-25T17:14:07Z</time></trkpt><trkpt lat="59.0720057487" lon="29.9995207787"><time>2026-04-25T17:14:09Z</time></trkpt><trkpt lat="59.0720057487" lon="29.9995207787"><time>2026-04-25T17:14:12Z</time></trkpt><trkpt lat="59.0720057487" lon="29.9995207787"><time>2026-04-25T17:14:14Z</time></trkpt><trkpt lat="59.0720057487" lon="29.9995207787"><time>2026-04-25T17:14:17Z</time></trkpt><trkpt lat="59.0720057487" lon="29.9995636940"><time>2026-04-25T17:14:19Z</time></trkpt><trkpt lat="59.0720057487" lon="29.9996280670"><time>2026-04-25T17:14:22Z</time></trkpt><trkpt lat="59.0720057487" lon="29.9996924400"><time>2026-04-25T17:14:24Z</time></trkpt><trkpt lat="59.0720057487" lon="29.9996709824"><time>2026-04-25T17:14:27Z</time></trkpt><trkpt lat="59.0719842911" lon="29.9996495247"><time>2026-04-25T17:14:29Z</time></trkpt><trkpt lat="59.0719628334" lon="29.9996709824"><time>2026-04-25T17:14:32Z</time></trkpt><trkpt lat="59.0719628334" lon="29.9997138977"><time>2026-04-25T17:14:34Z</time></trkpt><trkpt lat="59.0719842911" lon="29.9997782707"><time>2026-04-25T17:14:37Z</time></trkpt><trkpt lat="59.0720057487" lon="29.9998211861"><time>2026-04-25T17:14:39Z</time></trkpt><trkpt lat="59.0720486641" lon="29.9998641014"><time>2026-04-25T17:14:42Z</time></trkpt><trkpt lat="59.0720701218" lon="29.9998855591"><time>2026-04-25T17:14:44Z</time></trkpt><trkpt lat="59.0720701218" lon="29.9998855591"><time>2026-04-25T17:14:47Z</time></trkpt><trkpt lat="59.0720701218" lon="29.9999713898"><time>2026-04-25T17:14:49Z</time></trkpt><trkpt lat="59.0720701218" lon="30.0000143051"><time>2026-04-25T17:14:52Z</time></trkpt><trkpt lat="59.0720915794" lon="30.0000572205"><time>2026-04-25T17:14:54Z</time></trkpt><trkpt lat="59.0721130371" lon="30.0000786781"><time>2026-04-25T17:14:57Z</time></trkpt><trkpt lat="59.0721130371" lon="30.0001215935"><time>2026-04-25T17:14:59Z</time></trkpt><trkpt lat="59.0721344948" lon="30.0001645088"><time>2026-04-25T17:15:02Z</time></trkpt><trkpt lat="59.0721559525" lon="30.0002074242"><time>2026-04-25T17:15:04Z</time></trkpt><trkpt lat="59.0721559525" lon="30.0002074242"><time>2026-04-25T17:15:07Z</time></trkpt><trkpt lat="59.0721559525" lon="30.0002074242"><time>2026-04-25T17:15:09Z</time></trkpt><trkpt lat="59.0721344948" lon="30.0001859665"><time>2026-04-25T17:15:12Z</time></trkpt><trkpt lat="59.0721130371" lon="30.0001215935"><time>2026-04-25T17:15:14Z</time></trkpt><trkpt lat="59.0720701218" lon="29.9999928474"><time>2026-04-25T17:15:17Z</time></trkpt><trkpt lat="59.0720701218" lon="29.9999070168"><time>2026-04-25T17:15:19Z</time></trkpt><trkpt lat="59.0720701218" lon="29.9997782707"><time>2026-04-25T17:15:22Z</time></trkpt><trkpt lat="59.0720486641" lon="29.9997138977"><time>2026-04-25T17:15:24Z</time></trkpt><trkpt lat="59.0720701218" lon="29.9996709824"><time>2026-04-25T17:15:27Z</time></trkpt><trkpt lat="59.0720701218" lon="29.9996709824"><time>2026-04-25T17:15:29Z</time></trkpt><trkpt lat="59.0720701218" lon="29.9996709824"><time>2026-04-25T17:15:32Z</time></trkpt><trkpt lat="59.0720701218" lon="29.9996709824"><time>2026-04-25T17:15:34Z</time></trkpt><trkpt lat="59.0720701218" lon="29.9996709824"><time>2026-04-25T17:15:37Z</time></trkpt><trkpt lat="59.0720701218" lon="29.9996709824"><time>2026-04-25T17:15:39Z</time></trkpt><trkpt lat="59.0720701218" lon="29.9996709824"><time>2026-04-25T17:15:42Z</time></trkpt><trkpt lat="59.0720701218" lon="29.9996709824"><time>2026-04-25T17:15:44Z</time></trkpt><trkpt lat="59.0720701218" lon="29.9996709824"><time>2026-04-25T17:15:47Z</time></trkpt><trkpt lat="59.0720272064" lon="29.9996280670"><time>2026-04-25T17:15:49Z</time></trkpt><trkpt lat="59.0720057487" lon="29.9996280670"><time>2026-04-25T17:15:52Z</time></trkpt><trkpt lat="59.0719842911" lon="29.9996066093"><time>2026-04-25T17:15:54Z</time></trkpt><trkpt lat="59.0719413757" lon="29.9995851517"><time>2026-04-25T17:15:57Z</time></trkpt><trkpt lat="59.0719413757" lon="29.9995851517"><time>2026-04-25T17:15:59Z</time></trkpt><trkpt lat="59.0718984604" lon="29.9996066093"><time>2026-04-25T17:16:02Z</time></trkpt><trkpt lat="59.0718984604" lon="29.9996066093"><time>2026-04-25T17:16:04Z</time></trkpt><trkpt lat="59.0718555450" lon="29.9996280670"><time>2026-04-25T17:16:07Z</time></trkpt><trkpt lat="59.0718340874" lon="29.9996066093"><time>2026-04-25T17:16:09Z</time></trkpt><trkpt lat="59.0717911720" lon="29.9995851517"><time>2026-04-25T17:16:12Z</time></trkpt><trkpt lat="59.0717697144" lon="29.9996066093"><time>2026-04-25T17:16:14Z</time></trkpt><trkpt lat="59.0717697144" lon="29.9995851517"><time>2026-04-25T17:16:17Z</time></trkpt><trkpt lat="59.0717482567" lon="29.9995422363"><time>2026-04-25T17:16:19Z</time></trkpt><trkpt lat="59.0717267990" lon="29.9994564056"><time>2026-04-25T17:16:22Z</time></trkpt><trkpt lat="59.0716838837" lon="29.9994134903"><time>2026-04-25T17:16:24Z</time></trkpt><trkpt lat="59.0716838837" lon="29.9993920326"><time>2026-04-25T17:16:27Z</time></trkpt><trkpt lat="59.0716838837" lon="29.9993920326"><time>2026-04-25T17:16:29Z</time></trkpt><trkpt lat="59.0716838837" lon="29.9993920326"><time>2026-04-25T17:16:32Z</time></trkpt><trkpt lat="59.0716624260" lon="29.9994134903"><time>2026-04-25T17:16:34Z</time></trkpt><trkpt lat="59.0716624260" lon="29.9994993210"><time>2026-04-25T17:16:37Z</time></trkpt><trkpt lat="59.0716409683" lon="29.9996066093"><time>2026-04-25T17:16:39Z</time></trkpt><trkpt lat="59.0716195107" lon="29.9996280670"><time>2026-04-25T17:16:42Z</time></trkpt><trkpt lat="59.0715980530" lon="29.9996709824"><time>2026-04-25T17:16:44Z</time></trkpt><trkpt lat="59.0715765953" lon="29.9997353554"><time>2026-04-25T17:16:47Z</time></trkpt><trkpt lat="59.0715551376" lon="29.9997782707"><time>2026-04-25T17:16:49Z</time></trkpt><trkpt lat="59.0715336800" lon="29.9998211861"><time>2026-04-25T17:16:52Z</time></trkpt><trkpt lat="59.0715336800" lon="29.9998426437"><time>2026-04-25T17:16:54Z</time></trkpt><trkpt lat="59.0714907646" lon="29.9998641014"><time>2026-04-25T17:16:57Z</time></trkpt><trkpt lat="59.0714907646" lon="29.9998855591"><time>2026-04-25T17:16:59Z</time></trkpt><trkpt lat="59.0714907646" lon="29.9998855591"><time>2026-04-25T17:17:02Z</time></trkpt><trkpt lat="59.0714907646" lon="29.9998855591"><time>2026-04-25T17:17:04Z</time></trkpt><trkpt lat="59.0714907646" lon="29.9998855591"><time>2026-04-25T17:17:07Z</time></trkpt><trkpt lat="59.0714907646" lon="29.9998641014"><time>2026-04-25T17:17:09Z</time></trkpt><trkpt lat="59.0714478493" lon="29.9998211861"><time>2026-04-25T17:17:12Z</time></trkpt><trkpt lat="59.0714263916" lon="29.9997782707"><time>2026-04-25T17:17:14Z</time></trkpt><trkpt lat="59.0714049339" lon="29.9997782707"><time>2026-04-25T17:17:17Z</time></trkpt><trkpt lat="59.0713834763" lon="29.9997568130"><time>2026-04-25T17:17:19Z</time></trkpt><trkpt lat="59.0713620186" lon="29.9997353554"><time>2026-04-25T17:17:22Z</time></trkpt><trkpt lat="59.0713620186" lon="29.9997353554"><time>2026-04-25T17:17:24Z</time></trkpt><trkpt lat="59.0713620186" lon="29.9997353554"><time>2026-04-25T17:17:27Z</time></trkpt><trkpt lat="59.0713620186" lon="29.9997353554"><time>2026-04-25T17:17:29Z</time></trkpt><trkpt lat="59.0713620186" lon="29.9997353554"><time>2026-04-25T17:17:32Z</time></trkpt><trkpt lat="59.0713405609" lon="29.9997138977"><time>2026-04-25T17:17:34Z</time></trkpt><trkpt lat="59.0713191032" lon="29.9996924400"><time>2026-04-25T17:17:37Z</time></trkpt><trkpt lat="59.0713191032" lon="29.9996924400"><time>2026-04-25T17:17:39Z</time></trkpt><trkpt lat="59.0712976456" lon="29.9996709824"><time>2026-04-25T17:17:42Z</time></trkpt><trkpt lat="59.0712761879" lon="29.9996495247"><time>2026-04-25T17:17:44Z</time></trkpt><trkpt lat="59.0712761879" lon="29.9996280670"><time>2026-04-25T17:17:47Z</time></trkpt><trkpt lat="59.0712547302" lon="29.9995851517"><time>2026-04-25T17:17:49Z</time></trkpt><trkpt lat="59.0712547302" lon="29.9995207787"><time>2026-04-25T17:17:52Z</time></trkpt><trkpt lat="59.0712547302" lon="29.9994778633"><time>2026-04-25T17:17:54Z</time></trkpt><trkpt lat="59.0712547302" lon="29.9994134903"><time>2026-04-25T17:17:57Z</time></trkpt><trkpt lat="59.0712547302" lon="29.9993705750"><time>2026-04-25T17:17:59Z</time></trkpt><trkpt lat="59.0712547302" lon="29.9993276596"><time>2026-04-25T17:18:02Z</time></trkpt><trkpt lat="59.0712547302" lon="29.9992632866"><time>2026-04-25T17:18:04Z</time></trkpt><trkpt lat="59.0712761879" lon="29.9992203712"><time>2026-04-25T17:18:07Z</time></trkpt><trkpt lat="59.0712761879" lon="29.9991559982"><time>2026-04-25T17:18:09Z</time></trkpt><trkpt lat="59.0712761879" lon="29.9991345406"><time>2026-04-25T17:18:12Z</time></trkpt><trkpt lat="59.0712761879" lon="29.9991130829"><time>2026-04-25T17:18:14Z</time></trkpt><trkpt lat="59.0712761879" lon="29.9990701675"><time>2026-04-25T17:18:17Z</time></trkpt><trkpt lat="59.0712976456" lon="29.9990487099"><time>2026-04-25T17:18:19Z</time></trkpt><trkpt lat="59.0712976456" lon="29.9990272522"><time>2026-04-25T17:18:22Z</time></trkpt><trkpt lat="59.0712976456" lon="29.9990272522"><time>2026-04-25T17:18:24Z</time></trkpt><trkpt lat="59.0712976456" lon="29.9990272522"><time>2026-04-25T17:18:27Z</time></trkpt><trkpt lat="59.0712976456" lon="29.9990272522"><time>2026-04-25T17:18:29Z</time></trkpt><trkpt lat="59.0712976456" lon="29.9990272522"><time>2026-04-25T17:18:32Z</time></trkpt><trkpt lat="59.0712976456" lon="29.9990272522"><time>2026-04-25T17:18:34Z</time></trkpt><trkpt lat="59.0712976456" lon="29.9990272522"><time>2026-04-25T17:18:37Z</time></trkpt><trkpt lat="59.0712976456" lon="29.9990057945"><time>2026-04-25T17:18:39Z</time></trkpt><trkpt lat="59.0712547302" lon="29.9990057945"><time>2026-04-25T17:18:42Z</time></trkpt><trkpt lat="59.0712547302" lon="29.9989628792"><time>2026-04-25T17:18:44Z</time></trkpt><trkpt lat="59.0712332726" lon="29.9989414215"><time>2026-04-25T17:18:47Z</time></trkpt><trkpt lat="59.0711903572" lon="29.9989199638"><time>2026-04-25T17:18:49Z</time></trkpt><trkpt lat="59.0711688995" lon="29.9988985062"><time>2026-04-25T17:18:52Z</time></trkpt><trkpt lat="59.0711474419" lon="29.9988770485"><time>2026-04-25T17:18:54Z</time></trkpt><trkpt lat="59.0711688995" lon="29.9988341331"><time>2026-04-25T17:18:57Z</time></trkpt><trkpt lat="59.0711688995" lon="29.9987912178"><time>2026-04-25T17:18:59Z</time></trkpt><trkpt lat="59.0711474419" lon="29.9987697601"><time>2026-04-25T17:19:02Z</time></trkpt><trkpt lat="59.0711474419" lon="29.9987268448"><time>2026-04-25T17:19:04Z</time></trkpt><trkpt lat="59.0711688995" lon="29.9986839294"><time>2026-04-25T17:19:07Z</time></trkpt><trkpt lat="59.0711688995" lon="29.9986410141"><time>2026-04-25T17:19:09Z</time></trkpt><trkpt lat="59.0711688995" lon="29.9985980988"><time>2026-04-25T17:19:12Z</time></trkpt><trkpt lat="59.0711903572" lon="29.9985766411"><time>2026-04-25T17:19:14Z</time></trkpt><trkpt lat="59.0711903572" lon="29.9985337257"><time>2026-04-25T17:19:17Z</time></trkpt><trkpt lat="59.0711903572" lon="29.9984908104"><time>2026-04-25T17:19:19Z</time></trkpt><trkpt lat="59.0711688995" lon="29.9984478951"><time>2026-04-25T17:19:22Z</time></trkpt><trkpt lat="59.0711688995" lon="29.9984264374"><time>2026-04-25T17:19:24Z</time></trkpt><trkpt lat="59.0711688995" lon="29.9983835220"><time>2026-04-25T17:19:27Z</time></trkpt><trkpt lat="59.0711688995" lon="29.9983620644"><time>2026-04-25T17:19:29Z</time></trkpt><trkpt lat="59.0711903572" lon="29.9982976913"><time>2026-04-25T17:19:32Z</time></trkpt><trkpt lat="59.0711903572" lon="29.9982762337"><time>2026-04-25T17:19:34Z</time></trkpt><trkpt lat="59.0711903572" lon="29.9982547760"><time>2026-04-25T17:19:37Z</time></trkpt><trkpt lat="59.0711903572" lon="29.9982118607"><time>2026-04-25T17:19:39Z</time></trkpt><trkpt lat="59.0711903572" lon="29.9981689453"><time>2026-04-25T17:19:42Z</time></trkpt><trkpt lat="59.0711903572" lon="29.9981260300"><time>2026-04-25T17:19:44Z</time></trkpt><trkpt lat="59.0711903572" lon="29.9980831146"><time>2026-04-25T17:19:47Z</time></trkpt><trkpt lat="59.0712118149" lon="29.9980616570"><time>2026-04-25T17:19:49Z</time></trkpt><trkpt lat="59.0712118149" lon="29.9980187416"><time>2026-04-25T17:19:52Z</time></trkpt><trkpt lat="59.0712118149" lon="29.9979972839"><time>2026-04-25T17:19:54Z</time></trkpt><trkpt lat="59.0712332726" lon="29.9979972839"><time>2026-04-25T17:19:57Z</time></trkpt><trkpt lat="59.0712332726" lon="29.9979758263"><time>2026-04-25T17:19:59Z</time></trkpt><trkpt lat="59.0712761879" lon="29.9979329109"><time>2026-04-25T17:20:02Z</time></trkpt><trkpt lat="59.0712976456" lon="29.9979114532"><time>2026-04-25T17:20:04Z</time></trkpt><trkpt lat="59.0713191032" lon="29.9978685379"><time>2026-04-25T17:20:07Z</time></trkpt><trkpt lat="59.0713191032" lon="29.9978470802"><time>2026-04-25T17:20:09Z</time></trkpt><trkpt lat="59.0712976456" lon="29.9977827072"><time>2026-04-25T17:20:12Z</time></trkpt><trkpt lat="59.0712976456" lon="29.9977397919"><time>2026-04-25T17:20:14Z</time></trkpt><trkpt lat="59.0712976456" lon="29.9977183342"><time>2026-04-25T17:20:17Z</time></trkpt><trkpt lat="59.0712761879" lon="29.9976325035"><time>2026-04-25T17:20:19Z</time></trkpt><trkpt lat="59.0712547302" lon="29.9975681305"><time>2026-04-25T17:20:22Z</time></trkpt><trkpt lat="59.0712118149" lon="29.9975037575"><time>2026-04-25T17:20:24Z</time></trkpt><trkpt lat="59.0711903572" lon="29.9973964691"><time>2026-04-25T17:20:27Z</time></trkpt><trkpt lat="59.0711903572" lon="29.9972891808"><time>2026-04-25T17:20:29Z</time></trkpt><trkpt lat="59.0711903572" lon="29.9972462654"><time>2026-04-25T17:20:32Z</time></trkpt><trkpt lat="59.0711688995" lon="29.9972033501"><time>2026-04-25T17:20:34Z</time></trkpt><trkpt lat="59.0711688995" lon="29.9971604347"><time>2026-04-25T17:20:37Z</time></trkpt><trkpt lat="59.0711688995" lon="29.9971175194"><time>2026-04-25T17:20:39Z</time></trkpt><trkpt lat="59.0711688995" lon="29.9970746040"><time>2026-04-25T17:20:42Z</time></trkpt><trkpt lat="59.0711474419" lon="29.9970316887"><time>2026-04-25T17:20:44Z</time></trkpt><trkpt lat="59.0711474419" lon="29.9969887733"><time>2026-04-25T17:20:47Z</time></trkpt><trkpt lat="59.0711474419" lon="29.9969673157"><time>2026-04-25T17:20:49Z</time></trkpt><trkpt lat="59.0711474419" lon="29.9969458580"><time>2026-04-25T17:20:52Z</time></trkpt><trkpt lat="59.0711474419" lon="29.9969029427"><time>2026-04-25T17:20:54Z</time></trkpt><trkpt lat="59.0711259842" lon="29.9968600273"><time>2026-04-25T17:20:57Z</time></trkpt><trkpt lat="59.0711259842" lon="29.9968600273"><time>2026-04-25T17:20:59Z</time></trkpt><trkpt lat="59.0711259842" lon="29.9968600273"><time>2026-04-25T17:21:02Z</time></trkpt><trkpt lat="59.0711259842" lon="29.9967956543"><time>2026-04-25T17:21:04Z</time></trkpt><trkpt lat="59.0711259842" lon="29.9967527390"><time>2026-04-25T17:21:07Z</time></trkpt><trkpt lat="59.0711045265" lon="29.9967312813"><time>2026-04-25T17:21:09Z</time></trkpt><trkpt lat="59.0711045265" lon="29.9967527390"><time>2026-04-25T17:21:12Z</time></trkpt><trkpt lat="59.0711045265" lon="29.9967527390"><time>2026-04-25T17:21:14Z</time></trkpt><trkpt lat="59.0711045265" lon="29.9967527390"><time>2026-04-25T17:21:17Z</time></trkpt><trkpt lat="59.0711045265" lon="29.9967527390"><time>2026-04-25T17:21:19Z</time></trkpt><trkpt lat="59.0711045265" lon="29.9967527390"><time>2026-04-25T17:21:22Z</time></trkpt><trkpt lat="59.0711045265" lon="29.9967527390"><time>2026-04-25T17:21:24Z</time></trkpt><trkpt lat="59.0711045265" lon="29.9967527390"><time>2026-04-25T17:21:27Z</time></trkpt><trkpt lat="59.0711045265" lon="29.9967527390"><time>2026-04-25T17:21:29Z</time></trkpt><trkpt lat="59.0711045265" lon="29.9967527390"><time>2026-04-25T17:21:32Z</time></trkpt><trkpt lat="59.0711045265" lon="29.9967098236"><time>2026-04-25T17:21:34Z</time></trkpt><trkpt lat="59.0710830688" lon="29.9966669083"><time>2026-04-25T17:21:37Z</time></trkpt><trkpt lat="59.0710830688" lon="29.9966669083"><time>2026-04-25T17:21:39Z</time></trkpt><trkpt lat="59.0710830688" lon="29.9966669083"><time>2026-04-25T17:21:42Z</time></trkpt><trkpt lat="59.0711045265" lon="29.9966025352"><time>2026-04-25T17:21:44Z</time></trkpt><trkpt lat="59.0710830688" lon="29.9965381622"><time>2026-04-25T17:21:47Z</time></trkpt><trkpt lat="59.0710830688" lon="29.9964737892"><time>2026-04-25T17:21:49Z</time></trkpt><trkpt lat="59.0710616112" lon="29.9963879585"><time>2026-04-25T17:21:52Z</time></trkpt><trkpt lat="59.0710401535" lon="29.9963235855"><time>2026-04-25T17:21:54Z</time></trkpt><trkpt lat="59.0710401535" lon="29.9962592125"><time>2026-04-25T17:21:57Z</time></trkpt><trkpt lat="59.0710186958" lon="29.9961948395"><time>2026-04-25T17:21:59Z</time></trkpt><trkpt lat="59.0709972382" lon="29.9960875511"><time>2026-04-25T17:22:02Z</time></trkpt><trkpt lat="59.0709757805" lon="29.9960231781"><time>2026-04-25T17:22:04Z</time></trkpt><trkpt lat="59.0709543228" lon="29.9960017204"><time>2026-04-25T17:22:07Z</time></trkpt><trkpt lat="59.0709543228" lon="29.9960017204"><time>2026-04-25T17:22:09Z</time></trkpt><trkpt lat="59.0709543228" lon="29.9960017204"><time>2026-04-25T17:22:12Z</time></trkpt><trkpt lat="59.0709757805" lon="29.9959588051"><time>2026-04-25T17:22:14Z</time></trkpt><trkpt lat="59.0709757805" lon="29.9959588051"><time>2026-04-25T17:22:17Z</time></trkpt><trkpt lat="59.0709757805" lon="29.9959158897"><time>2026-04-25T17:22:19Z</time></trkpt><trkpt lat="59.0709328651" lon="29.9958086014"><time>2026-04-25T17:22:22Z</time></trkpt><trkpt lat="59.0709328651" lon="29.9957013130"><time>2026-04-25T17:22:24Z</time></trkpt><trkpt lat="59.0709114075" lon="29.9956583977"><time>2026-04-25T17:22:27Z</time></trkpt><trkpt lat="59.0709114075" lon="29.9955725670"><time>2026-04-25T17:22:29Z</time></trkpt><trkpt lat="59.0709114075" lon="29.9955081940"><time>2026-04-25T17:22:32Z</time></trkpt><trkpt lat="59.0709543228" lon="29.9954009056"><time>2026-04-25T17:22:34Z</time></trkpt><trkpt lat="59.0709543228" lon="29.9954009056"><time>2026-04-25T17:22:37Z</time></trkpt><trkpt lat="59.0709543228" lon="29.9954009056"><time>2026-04-25T17:22:39Z</time></trkpt><trkpt lat="59.0709757805" lon="29.9953365326"><time>2026-04-25T17:22:42Z</time></trkpt><trkpt lat="59.0709757805" lon="29.9952936172"><time>2026-04-25T17:22:44Z</time></trkpt><trkpt lat="59.0709972382" lon="29.9952507019"><time>2026-04-25T17:22:47Z</time></trkpt><trkpt lat="59.0710186958" lon="29.9952077866"><time>2026-04-25T17:22:49Z</time></trkpt><trkpt lat="59.0710401535" lon="29.9951434135"><time>2026-04-25T17:22:52Z</time></trkpt><trkpt lat="59.0710401535" lon="29.9951434135"><time>2026-04-25T17:22:54Z</time></trkpt><trkpt lat="59.0710401535" lon="29.9951434135"><time>2026-04-25T17:22:57Z</time></trkpt><trkpt lat="59.0710401535" lon="29.9951434135"><time>2026-04-25T17:22:59Z</time></trkpt><trkpt lat="59.0710401535" lon="29.9951434135"><time>2026-04-25T17:23:02Z</time></trkpt><trkpt lat="59.0710616112" lon="29.9951219559"><time>2026-04-25T17:23:04Z</time></trkpt><trkpt lat="59.0711045265" lon="29.9951004982"><time>2026-04-25T17:23:07Z</time></trkpt><trkpt lat="59.0711045265" lon="29.9950790405"><time>2026-04-25T17:23:09Z</time></trkpt><trkpt lat="59.0711045265" lon="29.9950790405"><time>2026-04-25T17:23:12Z</time></trkpt><trkpt lat="59.0711045265" lon="29.9950790405"><time>2026-04-25T17:23:14Z</time></trkpt><trkpt lat="59.0711474419" lon="29.9950361252"><time>2026-04-25T17:23:17Z</time></trkpt><trkpt lat="59.0712118149" lon="29.9949932098"><time>2026-04-25T17:23:19Z</time></trkpt><trkpt lat="59.0712332726" lon="29.9949717522"><time>2026-04-25T17:23:22Z</time></trkpt><trkpt lat="59.0712761879" lon="29.9949288368"><time>2026-04-25T17:23:24Z</time></trkpt><trkpt lat="59.0712976456" lon="29.9949073792"><time>2026-04-25T17:23:27Z</time></trkpt><trkpt lat="59.0712976456" lon="29.9949073792"><time>2026-04-25T17:23:29Z</time></trkpt><trkpt lat="59.0712976456" lon="29.9949073792"><time>2026-04-25T17:23:32Z</time></trkpt><trkpt lat="59.0712976456" lon="29.9949073792"><time>2026-04-25T17:23:34Z</time></trkpt><trkpt lat="59.0712976456" lon="29.9949073792"><time>2026-04-25T17:23:37Z</time></trkpt><trkpt lat="59.0712976456" lon="29.9949073792"><time>2026-04-25T17:23:39Z</time></trkpt><trkpt lat="59.0712976456" lon="29.9949073792"><time>2026-04-25T17:23:42Z</time></trkpt><trkpt lat="59.0712976456" lon="29.9949288368"><time>2026-04-25T17:23:44Z</time></trkpt><trkpt lat="59.0712976456" lon="29.9949288368"><time>2026-04-25T17:23:47Z</time></trkpt><trkpt lat="59.0712976456" lon="29.9949073792"><time>2026-04-25T17:23:49Z</time></trkpt><trkpt lat="59.0712761879" lon="29.9948644638"><time>2026-04-25T17:23:52Z</time></trkpt><trkpt lat="59.0712547302" lon="29.9947786331"><time>2026-04-25T17:23:54Z</time></trkpt><trkpt lat="59.0712332726" lon="29.9947357178"><time>2026-04-25T17:23:57Z</time></trkpt><trkpt lat="59.0712118149" lon="29.9946928024"><time>2026-04-25T17:23:59Z</time></trkpt><trkpt lat="59.0711903572" lon="29.9946498871"><time>2026-04-25T17:24:02Z</time></trkpt><trkpt lat="59.0711903572" lon="29.9946284294"><time>2026-04-25T17:24:04Z</time></trkpt><trkpt lat="59.0711688995" lon="29.9946069717"><time>2026-04-25T17:24:07Z</time></trkpt><trkpt lat="59.0711474419" lon="29.9945855141"><time>2026-04-25T17:24:09Z</time></trkpt><trkpt lat="59.0711474419" lon="29.9945425987"><time>2026-04-25T17:24:12Z</time></trkpt><trkpt lat="59.0711474419" lon="29.9945211411"><time>2026-04-25T17:24:14Z</time></trkpt><trkpt lat="59.0711474419" lon="29.9944567680"><time>2026-04-25T17:24:17Z</time></trkpt><trkpt lat="59.0711688995" lon="29.9944353104"><time>2026-04-25T17:24:19Z</time></trkpt><trkpt lat="59.0711474419" lon="29.9943494797"><time>2026-04-25T17:24:22Z</time></trkpt><trkpt lat="59.0711688995" lon="29.9942636490"><time>2026-04-25T17:24:24Z</time></trkpt><trkpt lat="59.0711688995" lon="29.9942421913"><time>2026-04-25T17:24:27Z</time></trkpt><trkpt lat="59.0711688995" lon="29.9941992760"><time>2026-04-25T17:24:29Z</time></trkpt><trkpt lat="59.0711903572" lon="29.9941563606"><time>2026-04-25T17:24:32Z</time></trkpt><trkpt lat="59.0712332726" lon="29.9941134453"><time>2026-04-25T17:24:34Z</time></trkpt><trkpt lat="59.0712547302" lon="29.9940919876"><time>2026-04-25T17:24:37Z</time></trkpt><trkpt lat="59.0712761879" lon="29.9940705299"><time>2026-04-25T17:24:39Z</time></trkpt><trkpt lat="59.0712761879" lon="29.9940490723"><time>2026-04-25T17:24:42Z</time></trkpt><trkpt lat="59.0712976456" lon="29.9940276146"><time>2026-04-25T17:24:44Z</time></trkpt><trkpt lat="59.0712976456" lon="29.9940276146"><time>2026-04-25T17:24:47Z</time></trkpt><trkpt lat="59.0712976456" lon="29.9940276146"><time>2026-04-25T17:24:49Z</time></trkpt><trkpt lat="59.0712976456" lon="29.9940276146"><time>2026-04-25T17:24:52Z</time></trkpt><trkpt lat="59.0712761879" lon="29.9940276146"><time>2026-04-25T17:24:54Z</time></trkpt><trkpt lat="59.0712547302" lon="29.9940490723"><time>2026-04-25T17:24:57Z</time></trkpt><trkpt lat="59.0712332726" lon="29.9940490723"><time>2026-04-25T17:24:59Z</time></trkpt><trkpt lat="59.0711903572" lon="29.9940490723"><time>2026-04-25T17:25:02Z</time></trkpt><trkpt lat="59.0711688995" lon="29.9940490723"><time>2026-04-25T17:25:04Z</time></trkpt><trkpt lat="59.0711474419" lon="29.9940490723"><time>2026-04-25T17:25:07Z</time></trkpt><trkpt lat="59.0711259842" lon="29.9940705299"><time>2026-04-25T17:25:09Z</time></trkpt><trkpt lat="59.0711045265" lon="29.9941134453"><time>2026-04-25T17:25:12Z</time></trkpt><trkpt lat="59.0711045265" lon="29.9940919876"><time>2026-04-25T17:25:14Z</time></trkpt><trkpt lat="59.0711045265" lon="29.9940919876"><time>2026-04-25T17:25:17Z</time></trkpt><trkpt lat="59.0711045265" lon="29.9940919876"><time>2026-04-25T17:25:19Z</time></trkpt><trkpt lat="59.0710830688" lon="29.9940919876"><time>2026-04-25T17:25:22Z</time></trkpt><trkpt lat="59.0710616112" lon="29.9940919876"><time>2026-04-25T17:25:24Z</time></trkpt><trkpt lat="59.0710616112" lon="29.9940919876"><time>2026-04-25T17:25:27Z</time></trkpt><trkpt lat="59.0710616112" lon="29.9940919876"><time>2026-04-25T17:25:29Z</time></trkpt><trkpt lat="59.0710401535" lon="29.9940490723"><time>2026-04-25T17:25:32Z</time></trkpt><trkpt lat="59.0710401535" lon="29.9940061569"><time>2026-04-25T17:25:34Z</time></trkpt><trkpt lat="59.0710186958" lon="29.9939417839"><time>2026-04-25T17:25:37Z</time></trkpt><trkpt lat="59.0710186958" lon="29.9938988686"><time>2026-04-25T17:25:39Z</time></trkpt><trkpt lat="59.0710186958" lon="29.9938344955"><time>2026-04-25T17:25:42Z</time></trkpt><trkpt lat="59.0710186958" lon="29.9938344955"><time>2026-04-25T17:25:44Z</time></trkpt><trkpt lat="59.0709972382" lon="29.9937915802"><time>2026-04-25T17:25:47Z</time></trkpt><trkpt lat="59.0709543228" lon="29.9937272072"><time>2026-04-25T17:25:49Z</time></trkpt><trkpt lat="59.0709328651" lon="29.9937272072"><time>2026-04-25T17:25:52Z</time></trkpt><trkpt lat="59.0708899498" lon="29.9937486649"><time>2026-04-25T17:25:54Z</time></trkpt><trkpt lat="59.0708899498" lon="29.9937915802"><time>2026-04-25T17:25:57Z</time></trkpt><trkpt lat="59.0708470345" lon="29.9938559532"><time>2026-04-25T17:25:59Z</time></trkpt><trkpt lat="59.0708255768" lon="29.9938774109"><time>2026-04-25T17:26:02Z</time></trkpt><trkpt lat="59.0707826614" lon="29.9939203262"><time>2026-04-25T17:26:04Z</time></trkpt><trkpt lat="59.0707612038" lon="29.9939203262"><time>2026-04-25T17:26:07Z</time></trkpt><trkpt lat="59.0707182884" lon="29.9939417839"><time>2026-04-25T17:26:09Z</time></trkpt><trkpt lat="59.0706968307" lon="29.9939417839"><time>2026-04-25T17:26:12Z</time></trkpt><trkpt lat="59.0706753731" lon="29.9939203262"><time>2026-04-25T17:26:14Z</time></trkpt><trkpt lat="59.0706753731" lon="29.9939203262"><time>2026-04-25T17:26:17Z</time></trkpt><trkpt lat="59.0706539154" lon="29.9938988686"><time>2026-04-25T17:26:19Z</time></trkpt><trkpt lat="59.0706324577" lon="29.9938559532"><time>2026-04-25T17:26:22Z</time></trkpt><trkpt lat="59.0706110001" lon="29.9938130379"><time>2026-04-25T17:26:24Z</time></trkpt><trkpt lat="59.0706110001" lon="29.9938130379"><time>2026-04-25T17:26:27Z</time></trkpt><trkpt lat="59.0705895424" lon="29.9938344955"><time>2026-04-25T17:26:29Z</time></trkpt><trkpt lat="59.0705680847" lon="29.9938344955"><time>2026-04-25T17:26:32Z</time></trkpt><trkpt lat="59.0705037117" lon="29.9938559532"><time>2026-04-25T17:26:34Z</time></trkpt><trkpt lat="59.0704822540" lon="29.9938344955"><time>2026-04-25T17:26:37Z</time></trkpt><trkpt lat="59.0704178810" lon="29.9937915802"><time>2026-04-25T17:26:39Z</time></trkpt><trkpt lat="59.0703964233" lon="29.9937915802"><time>2026-04-25T17:26:42Z</time></trkpt><trkpt lat="59.0703320503" lon="29.9937486649"><time>2026-04-25T17:26:44Z</time></trkpt><trkpt lat="59.0703105927" lon="29.9937486649"><time>2026-04-25T17:26:47Z</time></trkpt><trkpt lat="59.0703105927" lon="29.9937486649"><time>2026-04-25T17:26:49Z</time></trkpt><trkpt lat="59.0703105927" lon="29.9937486649"><time>2026-04-25T17:26:52Z</time></trkpt><trkpt lat="59.0703105927" lon="29.9937486649"><time>2026-04-25T17:26:54Z</time></trkpt><trkpt lat="59.0703105927" lon="29.9937486649"><time>2026-04-25T17:26:57Z</time></trkpt><trkpt lat="59.0703105927" lon="29.9937486649"><time>2026-04-25T17:26:59Z</time></trkpt><trkpt lat="59.0703105927" lon="29.9937057495"><time>2026-04-25T17:27:02Z</time></trkpt><trkpt lat="59.0703105927" lon="29.9936199188"><time>2026-04-25T17:27:04Z</time></trkpt><trkpt lat="59.0703105927" lon="29.9935770035"><time>2026-04-25T17:27:07Z</time></trkpt><trkpt lat="59.0702676773" lon="29.9935555458"><time>2026-04-25T17:27:09Z</time></trkpt><trkpt lat="59.0702676773" lon="29.9935555458"><time>2026-04-25T17:27:12Z</time></trkpt><trkpt lat="59.0702247620" lon="29.9935126305"><time>2026-04-25T17:27:14Z</time></trkpt><trkpt lat="59.0702033043" lon="29.9934911728"><time>2026-04-25T17:27:17Z</time></trkpt><trkpt lat="59.0702247620" lon="29.9934482574"><time>2026-04-25T17:27:19Z</time></trkpt><trkpt lat="59.0702247620" lon="29.9934267998"><time>2026-04-25T17:27:22Z</time></trkpt><trkpt lat="59.0702247620" lon="29.9934053421"><time>2026-04-25T17:27:24Z</time></trkpt><trkpt lat="59.0702247620" lon="29.9934053421"><time>2026-04-25T17:27:27Z</time></trkpt><trkpt lat="59.0702247620" lon="29.9934053421"><time>2026-04-25T17:27:29Z</time></trkpt><trkpt lat="59.0702033043" lon="29.9934267998"><time>2026-04-25T17:27:32Z</time></trkpt><trkpt lat="59.0701818466" lon="29.9934482574"><time>2026-04-25T17:27:34Z</time></trkpt><trkpt lat="59.0701603889" lon="29.9934482574"><time>2026-04-25T17:27:37Z</time></trkpt><trkpt lat="59.0701603889" lon="29.9935340881"><time>2026-04-25T17:27:39Z</time></trkpt><trkpt lat="59.0701818466" lon="29.9936199188"><time>2026-04-25T17:27:42Z</time></trkpt><trkpt lat="59.0701818466" lon="29.9937057495"><time>2026-04-25T17:27:44Z</time></trkpt><trkpt lat="59.0702033043" lon="29.9938130379"><time>2026-04-25T17:27:47Z</time></trkpt><trkpt lat="59.0702247620" lon="29.9939417839"><time>2026-04-25T17:27:49Z</time></trkpt><trkpt lat="59.0702462196" lon="29.9940061569"><time>2026-04-25T17:27:52Z</time></trkpt><trkpt lat="59.0702676773" lon="29.9940705299"><time>2026-04-25T17:27:54Z</time></trkpt><trkpt lat="59.0702891350" lon="29.9941563606"><time>2026-04-25T17:27:57Z</time></trkpt><trkpt lat="59.0703320503" lon="29.9942636490"><time>2026-04-25T17:27:59Z</time></trkpt><trkpt lat="59.0703535080" lon="29.9943494797"><time>2026-04-25T17:28:02Z</time></trkpt><trkpt lat="59.0703749657" lon="29.9945211411"><time>2026-04-25T17:28:04Z</time></trkpt><trkpt lat="59.0703964233" lon="29.9946069717"><time>2026-04-25T17:28:07Z</time></trkpt><trkpt lat="59.0703964233" lon="29.9946713448"><time>2026-04-25T17:28:09Z</time></trkpt><trkpt lat="59.0703964233" lon="29.9948000908"><time>2026-04-25T17:28:12Z</time></trkpt><trkpt lat="59.0703964233" lon="29.9948859215"><time>2026-04-25T17:28:14Z</time></trkpt><trkpt lat="59.0703964233" lon="29.9949717522"><time>2026-04-25T17:28:17Z</time></trkpt><trkpt lat="59.0703964233" lon="29.9950361252"><time>2026-04-25T17:28:19Z</time></trkpt><trkpt lat="59.0703964233" lon="29.9951434135"><time>2026-04-25T17:28:22Z</time></trkpt><trkpt lat="59.0704178810" lon="29.9952292442"><time>2026-04-25T17:28:24Z</time></trkpt><trkpt lat="59.0704393387" lon="29.9952936172"><time>2026-04-25T17:28:27Z</time></trkpt><trkpt lat="59.0704393387" lon="29.9953794479"><time>2026-04-25T17:28:29Z</time></trkpt><trkpt lat="59.0704393387" lon="29.9954652786"><time>2026-04-25T17:28:32Z</time></trkpt><trkpt lat="59.0704393387" lon="29.9954867363"><time>2026-04-25T17:28:34Z</time></trkpt><trkpt lat="59.0704393387" lon="29.9955725670"><time>2026-04-25T17:28:37Z</time></trkpt><trkpt lat="59.0704607964" lon="29.9956154823"><time>2026-04-25T17:28:39Z</time></trkpt><trkpt lat="59.0704607964" lon="29.9956583977"><time>2026-04-25T17:28:42Z</time></trkpt><trkpt lat="59.0704822540" lon="29.9957227707"><time>2026-04-25T17:28:44Z</time></trkpt><trkpt lat="59.0704822540" lon="29.9957656860"><time>2026-04-25T17:28:47Z</time></trkpt><trkpt lat="59.0705037117" lon="29.9957871437"><time>2026-04-25T17:28:49Z</time></trkpt><trkpt lat="59.0705251694" lon="29.9958300591"><time>2026-04-25T17:28:52Z</time></trkpt><trkpt lat="59.0705466270" lon="29.9958515167"><time>2026-04-25T17:28:54Z</time></trkpt><trkpt lat="59.0705680847" lon="29.9958729744"><time>2026-04-25T17:28:57Z</time></trkpt><trkpt lat="59.0705895424" lon="29.9958944321"><time>2026-04-25T17:28:59Z</time></trkpt><trkpt lat="59.0705895424" lon="29.9959158897"><time>2026-04-25T17:29:02Z</time></trkpt><trkpt lat="59.0706110001" lon="29.9959588051"><time>2026-04-25T17:29:04Z</time></trkpt><trkpt lat="59.0706110001" lon="29.9960231781"><time>2026-04-25T17:29:07Z</time></trkpt><trkpt lat="59.0706110001" lon="29.9960446358"><time>2026-04-25T17:29:09Z</time></trkpt><trkpt lat="59.0706324577" lon="29.9960660934"><time>2026-04-25T17:29:12Z</time></trkpt><trkpt lat="59.0706324577" lon="29.9960875511"><time>2026-04-25T17:29:14Z</time></trkpt><trkpt lat="59.0706539154" lon="29.9961519241"><time>2026-04-25T17:29:17Z</time></trkpt><trkpt lat="59.0706753731" lon="29.9961519241"><time>2026-04-25T17:29:19Z</time></trkpt><trkpt lat="59.0706968307" lon="29.9961519241"><time>2026-04-25T17:29:22Z</time></trkpt><trkpt lat="59.0707182884" lon="29.9961948395"><time>2026-04-25T17:29:24Z</time></trkpt><trkpt lat="59.0707182884" lon="29.9962377548"><time>2026-04-25T17:29:27Z</time></trkpt><trkpt lat="59.0707397461" lon="29.9963235855"><time>2026-04-25T17:29:29Z</time></trkpt><trkpt lat="59.0707397461" lon="29.9963879585"><time>2026-04-25T17:29:32Z</time></trkpt><trkpt lat="59.0707397461" lon="29.9964737892"><time>2026-04-25T17:29:34Z</time></trkpt><trkpt lat="59.0707612038" lon="29.9965381622"><time>2026-04-25T17:29:37Z</time></trkpt><trkpt lat="59.0707612038" lon="29.9965596199"><time>2026-04-25T17:29:39Z</time></trkpt><trkpt lat="59.0707826614" lon="29.9966454506"><time>2026-04-25T17:29:42Z</time></trkpt><trkpt lat="59.0707826614" lon="29.9966669083"><time>2026-04-25T17:29:44Z</time></trkpt><trkpt lat="59.0707826614" lon="29.9966883659"><time>2026-04-25T17:29:47Z</time></trkpt><trkpt lat="59.0707612038" lon="29.9967312813"><time>2026-04-25T17:29:49Z</time></trkpt><trkpt lat="59.0707397461" lon="29.9968171120"><time>2026-04-25T17:29:52Z</time></trkpt><trkpt lat="59.0707182884" lon="29.9968600273"><time>2026-04-25T17:29:54Z</time></trkpt><trkpt lat="59.0707182884" lon="29.9968814850"><time>2026-04-25T17:29:57Z</time></trkpt><trkpt lat="59.0707182884" lon="29.9969029427"><time>2026-04-25T17:29:59Z</time></trkpt><trkpt lat="59.0706968307" lon="29.9969673157"><time>2026-04-25T17:30:02Z</time></trkpt><trkpt lat="59.0706753731" lon="29.9970102310"><time>2026-04-25T17:30:04Z</time></trkpt><trkpt lat="59.0706753731" lon="29.9970531464"><time>2026-04-25T17:30:07Z</time></trkpt><trkpt lat="59.0706753731" lon="29.9970746040"><time>2026-04-25T17:30:09Z</time></trkpt><trkpt lat="59.0706753731" lon="29.9970746040"><time>2026-04-25T17:30:12Z</time></trkpt><trkpt lat="59.0706539154" lon="29.9970746040"><time>2026-04-25T17:30:14Z</time></trkpt><trkpt lat="59.0706110001" lon="29.9970531464"><time>2026-04-25T17:30:17Z</time></trkpt><trkpt lat="59.0705680847" lon="29.9970960617"><time>2026-04-25T17:30:19Z</time></trkpt><trkpt lat="59.0705466270" lon="29.9971175194"><time>2026-04-25T17:30:22Z</time></trkpt><trkpt lat="59.0705251694" lon="29.9970960617"><time>2026-04-25T17:30:24Z</time></trkpt><trkpt lat="59.0705251694" lon="29.9970746040"><time>2026-04-25T17:30:27Z</time></trkpt><trkpt lat="59.0704822540" lon="29.9970531464"><time>2026-04-25T17:30:29Z</time></trkpt><trkpt lat="59.0704607964" lon="29.9970531464"><time>2026-04-25T17:30:32Z</time></trkpt><trkpt lat="59.0704607964" lon="29.9970960617"><time>2026-04-25T17:30:34Z</time></trkpt><trkpt lat="59.0704393387" lon="29.9971175194"><time>2026-04-25T17:30:37Z</time></trkpt><trkpt lat="59.0703964233" lon="29.9971818924"><time>2026-04-25T17:30:39Z</time></trkpt><trkpt lat="59.0703964233" lon="29.9972462654"><time>2026-04-25T17:30:42Z</time></trkpt><trkpt lat="59.0703749657" lon="29.9973320961"><time>2026-04-25T17:30:44Z</time></trkpt><trkpt lat="59.0703964233" lon="29.9974179268"><time>2026-04-25T17:30:47Z</time></trkpt><trkpt lat="59.0703964233" lon="29.9975252151"><time>2026-04-25T17:30:49Z</time></trkpt><trkpt lat="59.0703964233" lon="29.9975681305"><time>2026-04-25T17:30:52Z</time></trkpt><trkpt lat="59.0704178810" lon="29.9976325035"><time>2026-04-25T17:30:54Z</time></trkpt><trkpt lat="59.0704393387" lon="29.9976754189"><time>2026-04-25T17:30:57Z</time></trkpt><trkpt lat="59.0704607964" lon="29.9977397919"><time>2026-04-25T17:30:59Z</time></trkpt><trkpt lat="59.0704607964" lon="29.9977827072"><time>2026-04-25T17:31:02Z</time></trkpt><trkpt lat="59.0704607964" lon="29.9978470802"><time>2026-04-25T17:31:04Z</time></trkpt><trkpt lat="59.0704822540" lon="29.9978685379"><time>2026-04-25T17:31:07Z</time></trkpt><trkpt lat="59.0705037117" lon="29.9978685379"><time>2026-04-25T17:31:09Z</time></trkpt><trkpt lat="59.0705037117" lon="29.9978685379"><time>2026-04-25T17:31:12Z</time></trkpt><trkpt lat="59.0705037117" lon="29.9978685379"><time>2026-04-25T17:31:14Z</time></trkpt><trkpt lat="59.0705251694" lon="29.9978685379"><time>2026-04-25T17:31:17Z</time></trkpt><trkpt lat="59.0705466270" lon="29.9978470802"><time>2026-04-25T17:31:19Z</time></trkpt><trkpt lat="59.0705680847" lon="29.9978685379"><time>2026-04-25T17:31:22Z</time></trkpt><trkpt lat="59.0705680847" lon="29.9978899956"><time>2026-04-25T17:31:24Z</time></trkpt><trkpt lat="59.0705680847" lon="29.9979543686"><time>2026-04-25T17:31:27Z</time></trkpt><trkpt lat="59.0705895424" lon="29.9979543686"><time>2026-04-25T17:31:29Z</time></trkpt><trkpt lat="59.0705895424" lon="29.9979543686"><time>2026-04-25T17:31:32Z</time></trkpt><trkpt lat="59.0705895424" lon="29.9979972839"><time>2026-04-25T17:31:34Z</time></trkpt><trkpt lat="59.0705680847" lon="29.9980616570"><time>2026-04-25T17:31:37Z</time></trkpt><trkpt lat="59.0705895424" lon="29.9981045723"><time>2026-04-25T17:31:39Z</time></trkpt><trkpt lat="59.0705895424" lon="29.9981260300"><time>2026-04-25T17:31:42Z</time></trkpt><trkpt lat="59.0705895424" lon="29.9981474876"><time>2026-04-25T17:31:44Z</time></trkpt><trkpt lat="59.0706110001" lon="29.9981260300"><time>2026-04-25T17:31:47Z</time></trkpt><trkpt lat="59.0706324577" lon="29.9981260300"><time>2026-04-25T17:31:49Z</time></trkpt><trkpt lat="59.0706539154" lon="29.9981474876"><time>2026-04-25T17:31:52Z</time></trkpt><trkpt lat="59.0706539154" lon="29.9981904030"><time>2026-04-25T17:31:54Z</time></trkpt><trkpt lat="59.0706324577" lon="29.9982547760"><time>2026-04-25T17:31:57Z</time></trkpt><trkpt lat="59.0706110001" lon="29.9982976913"><time>2026-04-25T17:31:59Z</time></trkpt><trkpt lat="59.0705895424" lon="29.9983406067"><time>2026-04-25T17:32:02Z</time></trkpt><trkpt lat="59.0705680847" lon="29.9983620644"><time>2026-04-25T17:32:04Z</time></trkpt><trkpt lat="59.0705466270" lon="29.9984478951"><time>2026-04-25T17:32:07Z</time></trkpt><trkpt lat="59.0705466270" lon="29.9985122681"><time>2026-04-25T17:32:09Z</time></trkpt><trkpt lat="59.0705466270" lon="29.9985337257"><time>2026-04-25T17:32:12Z</time></trkpt><trkpt lat="59.0705680847" lon="29.9985551834"><time>2026-04-25T17:32:14Z</time></trkpt><trkpt lat="59.0705895424" lon="29.9985980988"><time>2026-04-25T17:32:17Z</time></trkpt><trkpt lat="59.0705895424" lon="29.9986195564"><time>2026-04-25T17:32:19Z</time></trkpt><trkpt lat="59.0705895424" lon="29.9986410141"><time>2026-04-25T17:32:22Z</time></trkpt><trkpt lat="59.0706110001" lon="29.9987268448"><time>2026-04-25T17:32:24Z</time></trkpt><trkpt lat="59.0705895424" lon="29.9987697601"><time>2026-04-25T17:32:27Z</time></trkpt><trkpt lat="59.0705895424" lon="29.9988126755"><time>2026-04-25T17:32:29Z</time></trkpt><trkpt lat="59.0705895424" lon="29.9988126755"><time>2026-04-25T17:32:32Z</time></trkpt><trkpt lat="59.0706110001" lon="29.9988555908"><time>2026-04-25T17:32:34Z</time></trkpt><trkpt lat="59.0705895424" lon="29.9988770485"><time>2026-04-25T17:32:37Z</time></trkpt><trkpt lat="59.0705895424" lon="29.9989199638"><time>2026-04-25T17:32:39Z</time></trkpt><trkpt lat="59.0705680847" lon="29.9989414215"><time>2026-04-25T17:32:42Z</time></trkpt><trkpt lat="59.0705680847" lon="29.9989628792"><time>2026-04-25T17:32:44Z</time></trkpt><trkpt lat="59.0705466270" lon="29.9990057945"><time>2026-04-25T17:32:47Z</time></trkpt><trkpt lat="59.0705251694" lon="29.9990272522"><time>2026-04-25T17:32:49Z</time></trkpt><trkpt lat="59.0705037117" lon="29.9990272522"><time>2026-04-25T17:32:52Z</time></trkpt><trkpt lat="59.0705037117" lon="29.9990916252"><time>2026-04-25T17:32:54Z</time></trkpt><trkpt lat="59.0704822540" lon="29.9991130829"><time>2026-04-25T17:32:57Z</time></trkpt><trkpt lat="59.0704822540" lon="29.9991345406"><time>2026-04-25T17:32:59Z</time></trkpt><trkpt lat="59.0705037117" lon="29.9991559982"><time>2026-04-25T17:33:02Z</time></trkpt><trkpt lat="59.0705037117" lon="29.9991559982"><time>2026-04-25T17:33:04Z</time></trkpt><trkpt lat="59.0704822540" lon="29.9991989136"><time>2026-04-25T17:33:07Z</time></trkpt><trkpt lat="59.0704822540" lon="29.9992203712"><time>2026-04-25T17:33:09Z</time></trkpt><trkpt lat="59.0705037117" lon="29.9992418289"><time>2026-04-25T17:33:12Z</time></trkpt><trkpt lat="59.0705037117" lon="29.9993062019"><time>2026-04-25T17:33:14Z</time></trkpt><trkpt lat="59.0705037117" lon="29.9993491173"><time>2026-04-25T17:33:17Z</time></trkpt><trkpt lat="59.0705251694" lon="29.9993920326"><time>2026-04-25T17:33:19Z</time></trkpt><trkpt lat="59.0705037117" lon="29.9994134903"><time>2026-04-25T17:33:22Z</time></trkpt><trkpt lat="59.0705037117" lon="29.9994993210"><time>2026-04-25T17:33:24Z</time></trkpt><trkpt lat="59.0704822540" lon="29.9995422363"><time>2026-04-25T17:33:27Z</time></trkpt><trkpt lat="59.0704822540" lon="29.9995851517"><time>2026-04-25T17:33:29Z</time></trkpt><trkpt lat="59.0704822540" lon="29.9996495247"><time>2026-04-25T17:33:32Z</time></trkpt><trkpt lat="59.0704822540" lon="29.9997353554"><time>2026-04-25T17:33:34Z</time></trkpt><trkpt lat="59.0704822540" lon="29.9997568130"><time>2026-04-25T17:33:37Z</time></trkpt><trkpt lat="59.0704822540" lon="29.9997997284"><time>2026-04-25T17:33:39Z</time></trkpt><trkpt lat="59.0704822540" lon="29.9998211861"><time>2026-04-25T17:33:42Z</time></trkpt><trkpt lat="59.0705037117" lon="29.9998855591"><time>2026-04-25T17:33:44Z</time></trkpt><trkpt lat="59.0705037117" lon="29.9999070168"><time>2026-04-25T17:33:47Z</time></trkpt><trkpt lat="59.0705251694" lon="29.9999499321"><time>2026-04-25T17:33:49Z</time></trkpt><trkpt lat="59.0705251694" lon="29.9999713898"><time>2026-04-25T17:33:52Z</time></trkpt><trkpt lat="59.0705466270" lon="29.9999928474"><time>2026-04-25T17:33:54Z</time></trkpt><trkpt lat="59.0705680847" lon="29.9999928474"><time>2026-04-25T17:33:57Z</time></trkpt><trkpt lat="59.0705680847" lon="29.9999928474"><time>2026-04-25T17:33:59Z</time></trkpt><trkpt lat="59.0705680847" lon="29.9999928474"><time>2026-04-25T17:34:02Z</time></trkpt><trkpt lat="59.0705680847" lon="29.9999928474"><time>2026-04-25T17:34:04Z</time></trkpt><trkpt lat="59.0705680847" lon="29.9999928474"><time>2026-04-25T17:34:07Z</time></trkpt><trkpt lat="59.0705895424" lon="29.9999499321"><time>2026-04-25T17:34:09Z</time></trkpt><trkpt lat="59.0706110001" lon="29.9999713898"><time>2026-04-25T17:34:12Z</time></trkpt><trkpt lat="59.0706324577" lon="30.0000357628"><time>2026-04-25T17:34:14Z</time></trkpt><trkpt lat="59.0706324577" lon="30.0000357628"><time>2026-04-25T17:34:17Z</time></trkpt><trkpt lat="59.0705895424" lon="30.0000572205"><time>2026-04-25T17:34:19Z</time></trkpt><trkpt lat="59.0706110001" lon="30.0001001358"><time>2026-04-25T17:34:22Z</time></trkpt><trkpt lat="59.0706110001" lon="30.0001430511"><time>2026-04-25T17:34:24Z</time></trkpt><trkpt lat="59.0705895424" lon="30.0001430511"><time>2026-04-25T17:34:27Z</time></trkpt><trkpt lat="59.0705680847" lon="30.0001001358"><time>2026-04-25T17:34:29Z</time></trkpt><trkpt lat="59.0705680847" lon="30.0000572205"><time>2026-04-25T17:34:32Z</time></trkpt><trkpt lat="59.0705895424" lon="30.0000572205"><time>2026-04-25T17:34:34Z</time></trkpt><trkpt lat="59.0705895424" lon="30.0000572205"><time>2026-04-25T17:34:37Z</time></trkpt><trkpt lat="59.0705895424" lon="30.0000572205"><time>2026-04-25T17:34:39Z</time></trkpt><trkpt lat="59.0705895424" lon="30.0000572205"><time>2026-04-25T17:34:42Z</time></trkpt><trkpt lat="59.0705895424" lon="30.0000572205"><time>2026-04-25T17:34:44Z</time></trkpt><trkpt lat="59.0705895424" lon="30.0000572205"><time>2026-04-25T17:34:47Z</time></trkpt><trkpt lat="59.0705895424" lon="30.0000572205"><time>2026-04-25T17:34:49Z</time></trkpt><trkpt lat="59.0705895424" lon="30.0000572205"><time>2026-04-25T17:34:52Z</time></trkpt><trkpt lat="59.0705895424" lon="30.0000786781"><time>2026-04-25T17:34:54Z</time></trkpt><trkpt lat="59.0705895424" lon="30.0001001358"><time>2026-04-25T17:34:57Z</time></trkpt><trkpt lat="59.0705895424" lon="30.0001001358"><time>2026-04-25T17:34:59Z</time></trkpt><trkpt lat="59.0705895424" lon="30.0001001358"><time>2026-04-25T17:35:02Z</time></trkpt><trkpt lat="59.0705895424" lon="30.0001001358"><time>2026-04-25T17:35:04Z</time></trkpt><trkpt lat="59.0705680847" lon="30.0001645088"><time>2026-04-25T17:35:07Z</time></trkpt><trkpt lat="59.0705680847" lon="30.0001859665"><time>2026-04-25T17:35:09Z</time></trkpt><trkpt lat="59.0705466270" lon="30.0002074242"><time>2026-04-25T17:35:12Z</time></trkpt><trkpt lat="59.0705251694" lon="30.0002288818"><time>2026-04-25T17:35:14Z</time></trkpt><trkpt lat="59.0705037117" lon="30.0002503395"><time>2026-04-25T17:35:17Z</time></trkpt><trkpt lat="59.0704822540" lon="30.0002503395"><time>2026-04-25T17:35:19Z</time></trkpt><trkpt lat="59.0704607964" lon="30.0002503395"><time>2026-04-25T17:35:22Z</time></trkpt><trkpt lat="59.0704607964" lon="30.0002717972"><time>2026-04-25T17:35:24Z</time></trkpt><trkpt lat="59.0704393387" lon="30.0002932549"><time>2026-04-25T17:35:27Z</time></trkpt><trkpt lat="59.0704178810" lon="30.0003147125"><time>2026-04-25T17:35:29Z</time></trkpt><trkpt lat="59.0703964233" lon="30.0003576279"><time>2026-04-25T17:35:32Z</time></trkpt><trkpt lat="59.0703964233" lon="30.0003790855"><time>2026-04-25T17:35:34Z</time></trkpt><trkpt lat="59.0703749657" lon="30.0003790855"><time>2026-04-25T17:35:37Z</time></trkpt><trkpt lat="59.0703749657" lon="30.0003576279"><time>2026-04-25T17:35:39Z</time></trkpt><trkpt lat="59.0703535080" lon="30.0003147125"><time>2026-04-25T17:35:42Z</time></trkpt><trkpt lat="59.0703320503" lon="30.0003147125"><time>2026-04-25T17:35:44Z</time></trkpt><trkpt lat="59.0702891350" lon="30.0002932549"><time>2026-04-25T17:35:47Z</time></trkpt><trkpt lat="59.0702676773" lon="30.0002932549"><time>2026-04-25T17:35:49Z</time></trkpt><trkpt lat="59.0702462196" lon="30.0003361702"><time>2026-04-25T17:35:52Z</time></trkpt><trkpt lat="59.0702247620" lon="30.0003576279"><time>2026-04-25T17:35:54Z</time></trkpt><trkpt lat="59.0702033043" lon="30.0003790855"><time>2026-04-25T17:35:57Z</time></trkpt><trkpt lat="59.0702033043" lon="30.0003576279"><time>2026-04-25T17:35:59Z</time></trkpt><trkpt lat="59.0701818466" lon="30.0003790855"><time>2026-04-25T17:36:02Z</time></trkpt><trkpt lat="59.0701818466" lon="30.0004220009"><time>2026-04-25T17:36:04Z</time></trkpt><trkpt lat="59.0701603889" lon="30.0004220009"><time>2026-04-25T17:36:07Z</time></trkpt><trkpt lat="59.0701389313" lon="30.0004434586"><time>2026-04-25T17:36:09Z</time></trkpt><trkpt lat="59.0701389313" lon="30.0004434586"><time>2026-04-25T17:36:12Z</time></trkpt><trkpt lat="59.0701389313" lon="30.0004434586"><time>2026-04-25T17:36:14Z</time></trkpt><trkpt lat="59.0701389313" lon="30.0004434586"><time>2026-04-25T17:36:17Z</time></trkpt><trkpt lat="59.0701389313" lon="30.0004434586"><time>2026-04-25T17:36:19Z</time></trkpt><trkpt lat="59.0701174736" lon="30.0004649162"><time>2026-04-25T17:36:22Z</time></trkpt><trkpt lat="59.0700960159" lon="30.0005078316"><time>2026-04-25T17:36:24Z</time></trkpt><trkpt lat="59.0700960159" lon="30.0005078316"><time>2026-04-25T17:36:27Z</time></trkpt><trkpt lat="59.0700960159" lon="30.0005507469"><time>2026-04-25T17:36:29Z</time></trkpt><trkpt lat="59.0700960159" lon="30.0005936623"><time>2026-04-25T17:36:32Z</time></trkpt><trkpt lat="59.0700745583" lon="30.0006151199"><time>2026-04-25T17:36:34Z</time></trkpt><trkpt lat="59.0700745583" lon="30.0006365776"><time>2026-04-25T17:36:37Z</time></trkpt><trkpt lat="59.0700745583" lon="30.0006365776"><time>2026-04-25T17:36:39Z</time></trkpt><trkpt lat="59.0700745583" lon="30.0006365776"><time>2026-04-25T17:36:42Z</time></trkpt><trkpt lat="59.0700745583" lon="30.0006365776"><time>2026-04-25T17:36:44Z</time></trkpt><trkpt lat="59.0700745583" lon="30.0006365776"><time>2026-04-25T17:36:47Z</time></trkpt><trkpt lat="59.0700745583" lon="30.0006794930"><time>2026-04-25T17:36:49Z</time></trkpt><trkpt lat="59.0700745583" lon="30.0006794930"><time>2026-04-25T17:36:52Z</time></trkpt><trkpt lat="59.0700531006" lon="30.0006794930"><time>2026-04-25T17:36:54Z</time></trkpt><trkpt lat="59.0700316429" lon="30.0006580353"><time>2026-04-25T17:36:57Z</time></trkpt><trkpt lat="59.0700101852" lon="30.0006580353"><time>2026-04-25T17:36:59Z</time></trkpt><trkpt lat="59.0700101852" lon="30.0006365776"><time>2026-04-25T17:37:02Z</time></trkpt><trkpt lat="59.0699887276" lon="30.0006365776"><time>2026-04-25T17:37:04Z</time></trkpt><trkpt lat="59.0699672699" lon="30.0005936623"><time>2026-04-25T17:37:07Z</time></trkpt><trkpt lat="59.0699458122" lon="30.0005507469"><time>2026-04-25T17:37:09Z</time></trkpt><trkpt lat="59.0699243546" lon="30.0005078316"><time>2026-04-25T17:37:12Z</time></trkpt><trkpt lat="59.0699243546" lon="30.0004434586"><time>2026-04-25T17:37:14Z</time></trkpt><trkpt lat="59.0699028969" lon="30.0004434586"><time>2026-04-25T17:37:17Z</time></trkpt><trkpt lat="59.0699028969" lon="30.0004005432"><time>2026-04-25T17:37:19Z</time></trkpt><trkpt lat="59.0699028969" lon="30.0003790855"><time>2026-04-25T17:37:22Z</time></trkpt><trkpt lat="59.0699028969" lon="30.0003147125"><time>2026-04-25T17:37:24Z</time></trkpt><trkpt lat="59.0699028969" lon="30.0002288818"><time>2026-04-25T17:37:27Z</time></trkpt><trkpt lat="59.0699028969" lon="30.0001645088"><time>2026-04-25T17:37:29Z</time></trkpt><trkpt lat="59.0699028969" lon="30.0001215935"><time>2026-04-25T17:37:32Z</time></trkpt><trkpt lat="59.0699028969" lon="30.0000572205"><time>2026-04-25T17:37:34Z</time></trkpt><trkpt lat="59.0699028969" lon="29.9999928474"><time>2026-04-25T17:37:37Z</time></trkpt><trkpt lat="59.0699243546" lon="29.9999713898"><time>2026-04-25T17:37:39Z</time></trkpt><trkpt lat="59.0699243546" lon="29.9999284744"><time>2026-04-25T17:37:42Z</time></trkpt><trkpt lat="59.0699458122" lon="29.9998855591"><time>2026-04-25T17:37:44Z</time></trkpt><trkpt lat="59.0699672699" lon="29.9997997284"><time>2026-04-25T17:37:47Z</time></trkpt><trkpt lat="59.0699672699" lon="29.9997138977"><time>2026-04-25T17:37:49Z</time></trkpt><trkpt lat="59.0699672699" lon="29.9996280670"><time>2026-04-25T17:37:52Z</time></trkpt><trkpt lat="59.0699887276" lon="29.9995207787"><time>2026-04-25T17:37:54Z</time></trkpt><trkpt lat="59.0699887276" lon="29.9994564056"><time>2026-04-25T17:37:57Z</time></trkpt><trkpt lat="59.0700101852" lon="29.9994349480"><time>2026-04-25T17:37:59Z</time></trkpt><trkpt lat="59.0700101852" lon="29.9994349480"><time>2026-04-25T17:38:02Z</time></trkpt><trkpt lat="59.0700101852" lon="29.9994349480"><time>2026-04-25T17:38:04Z</time></trkpt><trkpt lat="59.0700101852" lon="29.9994134903"><time>2026-04-25T17:38:07Z</time></trkpt><trkpt lat="59.0700101852" lon="29.9994134903"><time>2026-04-25T17:38:09Z</time></trkpt><trkpt lat="59.0700101852" lon="29.9994134903"><time>2026-04-25T17:38:12Z</time></trkpt><trkpt lat="59.0700101852" lon="29.9994134903"><time>2026-04-25T17:38:14Z</time></trkpt><trkpt lat="59.0700101852" lon="29.9994134903"><time>2026-04-25T17:38:17Z</time></trkpt><trkpt lat="59.0700101852" lon="29.9994134903"><time>2026-04-25T17:38:19Z</time></trkpt><trkpt lat="59.0700101852" lon="29.9994134903"><time>2026-04-25T17:38:22Z</time></trkpt><trkpt lat="59.0700101852" lon="29.9994134903"><time>2026-04-25T17:38:24Z</time></trkpt><trkpt lat="59.0700101852" lon="29.9994134903"><time>2026-04-25T17:38:27Z</time></trkpt><trkpt lat="59.0700101852" lon="29.9993062019"><time>2026-04-25T17:38:29Z</time></trkpt><trkpt lat="59.0700101852" lon="29.9992632866"><time>2026-04-25T17:38:32Z</time></trkpt><trkpt lat="59.0700316429" lon="29.9991559982"><time>2026-04-25T17:38:34Z</time></trkpt><trkpt lat="59.0700316429" lon="29.9991130829"><time>2026-04-25T17:38:37Z</time></trkpt><trkpt lat="59.0700316429" lon="29.9990487099"><time>2026-04-25T17:38:39Z</time></trkpt><trkpt lat="59.0700101852" lon="29.9989843369"><time>2026-04-25T17:38:42Z</time></trkpt><trkpt lat="59.0700316429" lon="29.9988985062"><time>2026-04-25T17:38:44Z</time></trkpt><trkpt lat="59.0700316429" lon="29.9988341331"><time>2026-04-25T17:38:47Z</time></trkpt><trkpt lat="59.0700531006" lon="29.9987697601"><time>2026-04-25T17:38:49Z</time></trkpt><trkpt lat="59.0700531006" lon="29.9987053871"><time>2026-04-25T17:38:52Z</time></trkpt><trkpt lat="59.0700531006" lon="29.9986410141"><time>2026-04-25T17:38:54Z</time></trkpt><trkpt lat="59.0700531006" lon="29.9986195564"><time>2026-04-25T17:38:57Z</time></trkpt><trkpt lat="59.0700316429" lon="29.9985980988"><time>2026-04-25T17:38:59Z</time></trkpt><trkpt lat="59.0700316429" lon="29.9985766411"><time>2026-04-25T17:39:02Z</time></trkpt><trkpt lat="59.0700316429" lon="29.9985766411"><time>2026-04-25T17:39:04Z</time></trkpt><trkpt lat="59.0700316429" lon="29.9985766411"><time>2026-04-25T17:39:07Z</time></trkpt><trkpt lat="59.0700316429" lon="29.9985551834"><time>2026-04-25T17:39:09Z</time></trkpt><trkpt lat="59.0700101852" lon="29.9985122681"><time>2026-04-25T17:39:12Z</time></trkpt><trkpt lat="59.0699887276" lon="29.9984264374"><time>2026-04-25T17:39:14Z</time></trkpt><trkpt lat="59.0699887276" lon="29.9984264374"><time>2026-04-25T17:39:17Z</time></trkpt><trkpt lat="59.0699887276" lon="29.9984264374"><time>2026-04-25T17:39:19Z</time></trkpt><trkpt lat="59.0699672699" lon="29.9983620644"><time>2026-04-25T17:39:22Z</time></trkpt><trkpt lat="59.0699672699" lon="29.9982762337"><time>2026-04-25T17:39:24Z</time></trkpt><trkpt lat="59.0699458122" lon="29.9982333183"><time>2026-04-25T17:39:27Z</time></trkpt><trkpt lat="59.0699458122" lon="29.9981474876"><time>2026-04-25T17:39:29Z</time></trkpt><trkpt lat="59.0699458122" lon="29.9981045723"><time>2026-04-25T17:39:32Z</time></trkpt><trkpt lat="59.0699458122" lon="29.9980616570"><time>2026-04-25T17:39:34Z</time></trkpt><trkpt lat="59.0699243546" lon="29.9980187416"><time>2026-04-25T17:39:37Z</time></trkpt><trkpt lat="59.0699243546" lon="29.9979758263"><time>2026-04-25T17:39:39Z</time></trkpt><trkpt lat="59.0699458122" lon="29.9979329109"><time>2026-04-25T17:39:42Z</time></trkpt><trkpt lat="59.0699672699" lon="29.9979114532"><time>2026-04-25T17:39:44Z</time></trkpt><trkpt lat="59.0699887276" lon="29.9978899956"><time>2026-04-25T17:39:47Z</time></trkpt><trkpt lat="59.0700101852" lon="29.9978470802"><time>2026-04-25T17:39:49Z</time></trkpt><trkpt lat="59.0700101852" lon="29.9978256226"><time>2026-04-25T17:39:52Z</time></trkpt><trkpt lat="59.0700316429" lon="29.9977827072"><time>2026-04-25T17:39:54Z</time></trkpt><trkpt lat="59.0700316429" lon="29.9977397919"><time>2026-04-25T17:39:57Z</time></trkpt><trkpt lat="59.0700745583" lon="29.9976754189"><time>2026-04-25T17:39:59Z</time></trkpt><trkpt lat="59.0700745583" lon="29.9976539612"><time>2026-04-25T17:40:02Z</time></trkpt><trkpt lat="59.0700745583" lon="29.9976325035"><time>2026-04-25T17:40:04Z</time></trkpt><trkpt lat="59.0700745583" lon="29.9975895882"><time>2026-04-25T17:40:07Z</time></trkpt><trkpt lat="59.0700745583" lon="29.9975681305"><time>2026-04-25T17:40:09Z</time></trkpt><trkpt lat="59.0700745583" lon="29.9975681305"><time>2026-04-25T17:40:12Z</time></trkpt><trkpt lat="59.0700745583" lon="29.9975681305"><time>2026-04-25T17:40:14Z</time></trkpt><trkpt lat="59.0700745583" lon="29.9975252151"><time>2026-04-25T17:40:17Z</time></trkpt><trkpt lat="59.0700745583" lon="29.9974822998"><time>2026-04-25T17:40:19Z</time></trkpt><trkpt lat="59.0700960159" lon="29.9974179268"><time>2026-04-25T17:40:22Z</time></trkpt><trkpt lat="59.0700960159" lon="29.9974179268"><time>2026-04-25T17:40:24Z</time></trkpt><trkpt lat="59.0700960159" lon="29.9974179268"><time>2026-04-25T17:40:27Z</time></trkpt><trkpt lat="59.0700960159" lon="29.9974179268"><time>2026-04-25T17:40:29Z</time></trkpt><trkpt lat="59.0700960159" lon="29.9973964691"><time>2026-04-25T17:40:32Z</time></trkpt><trkpt lat="59.0701389313" lon="29.9972248077"><time>2026-04-25T17:40:34Z</time></trkpt><trkpt lat="59.0701389313" lon="29.9971389771"><time>2026-04-25T17:40:37Z</time></trkpt><trkpt lat="59.0701603889" lon="29.9970531464"><time>2026-04-25T17:40:39Z</time></trkpt><trkpt lat="59.0701603889" lon="29.9969887733"><time>2026-04-25T17:40:42Z</time></trkpt><trkpt lat="59.0701818466" lon="29.9969244003"><time>2026-04-25T17:40:44Z</time></trkpt><trkpt lat="59.0701603889" lon="29.9969029427"><time>2026-04-25T17:40:47Z</time></trkpt><trkpt lat="59.0701603889" lon="29.9968600273"><time>2026-04-25T17:40:49Z</time></trkpt><trkpt lat="59.0701603889" lon="29.9968171120"><time>2026-04-25T17:40:52Z</time></trkpt><trkpt lat="59.0701389313" lon="29.9967527390"><time>2026-04-25T17:40:54Z</time></trkpt><trkpt lat="59.0701389313" lon="29.9967312813"><time>2026-04-25T17:40:57Z</time></trkpt><trkpt lat="59.0701174736" lon="29.9966669083"><time>2026-04-25T17:40:59Z</time></trkpt><trkpt lat="59.0701174736" lon="29.9966239929"><time>2026-04-25T17:41:02Z</time></trkpt><trkpt lat="59.0701174736" lon="29.9965596199"><time>2026-04-25T17:41:04Z</time></trkpt><trkpt lat="59.0700960159" lon="29.9965381622"><time>2026-04-25T17:41:07Z</time></trkpt><trkpt lat="59.0700960159" lon="29.9965167046"><time>2026-04-25T17:41:09Z</time></trkpt><trkpt lat="59.0700960159" lon="29.9965167046"><time>2026-04-25T17:41:12Z</time></trkpt><trkpt lat="59.0700745583" lon="29.9964952469"><time>2026-04-25T17:41:14Z</time></trkpt><trkpt lat="59.0700745583" lon="29.9964737892"><time>2026-04-25T17:41:17Z</time></trkpt><trkpt lat="59.0700960159" lon="29.9964094162"><time>2026-04-25T17:41:19Z</time></trkpt><trkpt lat="59.0700960159" lon="29.9963235855"><time>2026-04-25T17:41:22Z</time></trkpt><trkpt lat="59.0700960159" lon="29.9962592125"><time>2026-04-25T17:41:24Z</time></trkpt><trkpt lat="59.0700960159" lon="29.9962592125"><time>2026-04-25T17:41:27Z</time></trkpt><trkpt lat="59.0700960159" lon="29.9962162971"><time>2026-04-25T17:41:29Z</time></trkpt><trkpt lat="59.0700745583" lon="29.9961948395"><time>2026-04-25T17:41:32Z</time></trkpt><trkpt lat="59.0700531006" lon="29.9961733818"><time>2026-04-25T17:41:34Z</time></trkpt><trkpt lat="59.0700531006" lon="29.9961733818"><time>2026-04-25T17:41:37Z</time></trkpt><trkpt lat="59.0700101852" lon="29.9961733818"><time>2026-04-25T17:41:39Z</time></trkpt><trkpt lat="59.0700101852" lon="29.9961733818"><time>2026-04-25T17:41:42Z</time></trkpt><trkpt lat="59.0700101852" lon="29.9961733818"><time>2026-04-25T17:41:44Z</time></trkpt><trkpt lat="59.0699887276" lon="29.9961519241"><time>2026-04-25T17:41:47Z</time></trkpt><trkpt lat="59.0699672699" lon="29.9961090088"><time>2026-04-25T17:41:49Z</time></trkpt><trkpt lat="59.0699458122" lon="29.9960660934"><time>2026-04-25T17:41:52Z</time></trkpt><trkpt lat="59.0699458122" lon="29.9960231781"><time>2026-04-25T17:41:54Z</time></trkpt><trkpt lat="59.0699243546" lon="29.9960231781"><time>2026-04-25T17:41:57Z</time></trkpt><trkpt lat="59.0699243546" lon="29.9960017204"><time>2026-04-25T17:41:59Z</time></trkpt><trkpt lat="59.0699243546" lon="29.9959588051"><time>2026-04-25T17:42:02Z</time></trkpt><trkpt lat="59.0699028969" lon="29.9959158897"><time>2026-04-25T17:42:04Z</time></trkpt><trkpt lat="59.0698814392" lon="29.9959158897"><time>2026-04-25T17:42:07Z</time></trkpt><trkpt lat="59.0698814392" lon="29.9959373474"><time>2026-04-25T17:42:09Z</time></trkpt><trkpt lat="59.0698814392" lon="29.9958944321"><time>2026-04-25T17:42:12Z</time></trkpt><trkpt lat="59.0698814392" lon="29.9958515167"><time>2026-04-25T17:42:14Z</time></trkpt><trkpt lat="59.0698814392" lon="29.9957871437"><time>2026-04-25T17:42:17Z</time></trkpt><trkpt lat="59.0698814392" lon="29.9957442284"><time>2026-04-25T17:42:19Z</time></trkpt><trkpt lat="59.0698814392" lon="29.9957013130"><time>2026-04-25T17:42:22Z</time></trkpt><trkpt lat="59.0698814392" lon="29.9956154823"><time>2026-04-25T17:42:24Z</time></trkpt><trkpt lat="59.0698814392" lon="29.9955725670"><time>2026-04-25T17:42:27Z</time></trkpt><trkpt lat="59.0698814392" lon="29.9954867363"><time>2026-04-25T17:42:29Z</time></trkpt><trkpt lat="59.0698814392" lon="29.9954438210"><time>2026-04-25T17:42:32Z</time></trkpt><trkpt lat="59.0698814392" lon="29.9954009056"><time>2026-04-25T17:42:34Z</time></trkpt><trkpt lat="59.0698814392" lon="29.9953579903"><time>2026-04-25T17:42:37Z</time></trkpt><trkpt lat="59.0699028969" lon="29.9953150749"><time>2026-04-25T17:42:39Z</time></trkpt><trkpt lat="59.0699028969" lon="29.9953150749"><time>2026-04-25T17:42:42Z</time></trkpt><trkpt lat="59.0699028969" lon="29.9953150749"><time>2026-04-25T17:42:44Z</time></trkpt><trkpt lat="59.0699243546" lon="29.9952721596"><time>2026-04-25T17:42:47Z</time></trkpt><trkpt lat="59.0699243546" lon="29.9952077866"><time>2026-04-25T17:42:49Z</time></trkpt><trkpt lat="59.0699243546" lon="29.9952077866"><time>2026-04-25T17:42:52Z</time></trkpt><trkpt lat="59.0699243546" lon="29.9952077866"><time>2026-04-25T17:42:54Z</time></trkpt><trkpt lat="59.0699243546" lon="29.9952077866"><time>2026-04-25T17:42:57Z</time></trkpt><trkpt lat="59.0699458122" lon="29.9951863289"><time>2026-04-25T17:42:59Z</time></trkpt><trkpt lat="59.0699458122" lon="29.9951219559"><time>2026-04-25T17:43:02Z</time></trkpt><trkpt lat="59.0699672699" lon="29.9950575829"><time>2026-04-25T17:43:04Z</time></trkpt><trkpt lat="59.0699672699" lon="29.9950575829"><time>2026-04-25T17:43:07Z</time></trkpt><trkpt lat="59.0699672699" lon="29.9950575829"><time>2026-04-25T17:43:09Z</time></trkpt><trkpt lat="59.0699672699" lon="29.9950575829"><time>2026-04-25T17:43:12Z</time></trkpt><trkpt lat="59.0699458122" lon="29.9950361252"><time>2026-04-25T17:43:14Z</time></trkpt><trkpt lat="59.0699458122" lon="29.9950146675"><time>2026-04-25T17:43:17Z</time></trkpt><trkpt lat="59.0699458122" lon="29.9949717522"><time>2026-04-25T17:43:19Z</time></trkpt><trkpt lat="59.0699672699" lon="29.9949073792"><time>2026-04-25T17:43:22Z</time></trkpt><trkpt lat="59.0699672699" lon="29.9948859215"><time>2026-04-25T17:43:24Z</time></trkpt><trkpt lat="59.0699672699" lon="29.9948859215"><time>2026-04-25T17:43:27Z</time></trkpt><trkpt lat="59.0699672699" lon="29.9948859215"><time>2026-04-25T17:43:29Z</time></trkpt><trkpt lat="59.0699672699" lon="29.9948859215"><time>2026-04-25T17:43:32Z</time></trkpt><trkpt lat="59.0699672699" lon="29.9948859215"><time>2026-04-25T17:43:34Z</time></trkpt><trkpt lat="59.0699672699" lon="29.9948859215"><time>2026-04-25T17:43:37Z</time></trkpt><trkpt lat="59.0699672699" lon="29.9948430061"><time>2026-04-25T17:43:39Z</time></trkpt><trkpt lat="59.0699672699" lon="29.9948000908"><time>2026-04-25T17:43:42Z</time></trkpt><trkpt lat="59.0699672699" lon="29.9947571754"><time>2026-04-25T17:43:44Z</time></trkpt><trkpt lat="59.0699672699" lon="29.9947357178"><time>2026-04-25T17:43:47Z</time></trkpt><trkpt lat="59.0699458122" lon="29.9946928024"><time>2026-04-25T17:43:49Z</time></trkpt><trkpt lat="59.0699458122" lon="29.9946498871"><time>2026-04-25T17:43:52Z</time></trkpt><trkpt lat="59.0699458122" lon="29.9946069717"><time>2026-04-25T17:43:54Z</time></trkpt><trkpt lat="59.0699458122" lon="29.9945425987"><time>2026-04-25T17:43:57Z</time></trkpt><trkpt lat="59.0699458122" lon="29.9944782257"><time>2026-04-25T17:43:59Z</time></trkpt><trkpt lat="59.0699243546" lon="29.9943923950"><time>2026-04-25T17:44:02Z</time></trkpt><trkpt lat="59.0699243546" lon="29.9943065643"><time>2026-04-25T17:44:04Z</time></trkpt><trkpt lat="59.0699028969" lon="29.9942851067"><time>2026-04-25T17:44:07Z</time></trkpt><trkpt lat="59.0699028969" lon="29.9942851067"><time>2026-04-25T17:44:09Z</time></trkpt><trkpt lat="59.0699028969" lon="29.9943065643"><time>2026-04-25T17:44:12Z</time></trkpt><trkpt lat="59.0698814392" lon="29.9943065643"><time>2026-04-25T17:44:14Z</time></trkpt><trkpt lat="59.0698599815" lon="29.9943494797"><time>2026-04-25T17:44:17Z</time></trkpt><trkpt lat="59.0698170662" lon="29.9943280220"><time>2026-04-25T17:44:19Z</time></trkpt><trkpt lat="59.0697956085" lon="29.9943065643"><time>2026-04-25T17:44:22Z</time></trkpt><trkpt lat="59.0697741508" lon="29.9943065643"><time>2026-04-25T17:44:24Z</time></trkpt><trkpt lat="59.0697741508" lon="29.9943494797"><time>2026-04-25T17:44:27Z</time></trkpt><trkpt lat="59.0697312355" lon="29.9944138527"><time>2026-04-25T17:44:29Z</time></trkpt><trkpt lat="59.0697097778" lon="29.9944567680"><time>2026-04-25T17:44:32Z</time></trkpt><trkpt lat="59.0697097778" lon="29.9944567680"><time>2026-04-25T17:44:34Z</time></trkpt><trkpt lat="59.0697097778" lon="29.9944567680"><time>2026-04-25T17:44:37Z</time></trkpt><trkpt lat="59.0697097778" lon="29.9944567680"><time>2026-04-25T17:44:39Z</time></trkpt><trkpt lat="59.0697097778" lon="29.9944567680"><time>2026-04-25T17:44:42Z</time></trkpt><trkpt lat="59.0697097778" lon="29.9944567680"><time>2026-04-25T17:44:44Z</time></trkpt><trkpt lat="59.0697097778" lon="29.9944567680"><time>2026-04-25T17:44:47Z</time></trkpt><trkpt lat="59.0697097778" lon="29.9944567680"><time>2026-04-25T17:44:49Z</time></trkpt><trkpt lat="59.0697097778" lon="29.9944567680"><time>2026-04-25T17:44:52Z</time></trkpt><trkpt lat="59.0697097778" lon="29.9944567680"><time>2026-04-25T17:44:54Z</time></trkpt><trkpt lat="59.0697097778" lon="29.9944353104"><time>2026-04-25T17:44:57Z</time></trkpt><trkpt lat="59.0697312355" lon="29.9943709373"><time>2026-04-25T17:44:59Z</time></trkpt><trkpt lat="59.0697312355" lon="29.9943494797"><time>2026-04-25T17:45:02Z</time></trkpt><trkpt lat="59.0697097778" lon="29.9942636490"><time>2026-04-25T17:45:04Z</time></trkpt><trkpt lat="59.0696883202" lon="29.9942207336"><time>2026-04-25T17:45:07Z</time></trkpt><trkpt lat="59.0696883202" lon="29.9941563606"><time>2026-04-25T17:45:09Z</time></trkpt><trkpt lat="59.0696883202" lon="29.9941349030"><time>2026-04-25T17:45:12Z</time></trkpt><trkpt lat="59.0696668625" lon="29.9940919876"><time>2026-04-25T17:45:14Z</time></trkpt><trkpt lat="59.0696668625" lon="29.9940919876"><time>2026-04-25T17:45:17Z</time></trkpt><trkpt lat="59.0696454048" lon="29.9940705299"><time>2026-04-25T17:45:19Z</time></trkpt><trkpt lat="59.0696454048" lon="29.9940705299"><time>2026-04-25T17:45:22Z</time></trkpt><trkpt lat="59.0696454048" lon="29.9940705299"><time>2026-04-25T17:45:24Z</time></trkpt><trkpt lat="59.0696454048" lon="29.9940919876"><time>2026-04-25T17:45:27Z</time></trkpt><trkpt lat="59.0696239471" lon="29.9941134453"><time>2026-04-25T17:45:29Z</time></trkpt><trkpt lat="59.0696024895" lon="29.9941134453"><time>2026-04-25T17:45:32Z</time></trkpt><trkpt lat="59.0695381165" lon="29.9941134453"><time>2026-04-25T17:45:34Z</time></trkpt><trkpt lat="59.0695166588" lon="29.9941134453"><time>2026-04-25T17:45:37Z</time></trkpt><trkpt lat="59.0694952011" lon="29.9941134453"><time>2026-04-25T17:45:39Z</time></trkpt><trkpt lat="59.0694952011" lon="29.9941134453"><time>2026-04-25T17:45:42Z</time></trkpt><trkpt lat="59.0694522858" lon="29.9941778183"><time>2026-04-25T17:45:44Z</time></trkpt><trkpt lat="59.0694522858" lon="29.9942207336"><time>2026-04-25T17:45:47Z</time></trkpt><trkpt lat="59.0694522858" lon="29.9943280220"><time>2026-04-25T17:45:49Z</time></trkpt><trkpt lat="59.0694522858" lon="29.9943709373"><time>2026-04-25T17:45:52Z</time></trkpt><trkpt lat="59.0694093704" lon="29.9944353104"><time>2026-04-25T17:45:54Z</time></trkpt><trkpt lat="59.0694093704" lon="29.9944782257"><time>2026-04-25T17:45:57Z</time></trkpt><trkpt lat="59.0693879128" lon="29.9944996834"><time>2026-04-25T17:45:59Z</time></trkpt><trkpt lat="59.0693879128" lon="29.9944996834"><time>2026-04-25T17:46:02Z</time></trkpt><trkpt lat="59.0693879128" lon="29.9945211411"><time>2026-04-25T17:46:04Z</time></trkpt><trkpt lat="59.0693664551" lon="29.9945855141"><time>2026-04-25T17:46:07Z</time></trkpt><trkpt lat="59.0693235397" lon="29.9946498871"><time>2026-04-25T17:46:09Z</time></trkpt><trkpt lat="59.0693235397" lon="29.9946713448"><time>2026-04-25T17:46:12Z</time></trkpt><trkpt lat="59.0693020821" lon="29.9947142601"><time>2026-04-25T17:46:14Z</time></trkpt><trkpt lat="59.0693020821" lon="29.9947357178"><time>2026-04-25T17:46:17Z</time></trkpt><trkpt lat="59.0693020821" lon="29.9947571754"><time>2026-04-25T17:46:19Z</time></trkpt><trkpt lat="59.0692806244" lon="29.9947571754"><time>2026-04-25T17:46:22Z</time></trkpt><trkpt lat="59.0692806244" lon="29.9947571754"><time>2026-04-25T17:46:24Z</time></trkpt><trkpt lat="59.0692806244" lon="29.9947571754"><time>2026-04-25T17:46:27Z</time></trkpt><trkpt lat="59.0692806244" lon="29.9947571754"><time>2026-04-25T17:46:29Z</time></trkpt><trkpt lat="59.0692806244" lon="29.9947571754"><time>2026-04-25T17:46:32Z</time></trkpt><trkpt lat="59.0692806244" lon="29.9947571754"><time>2026-04-25T17:46:34Z</time></trkpt><trkpt lat="59.0692806244" lon="29.9947571754"><time>2026-04-25T17:46:37Z</time></trkpt><trkpt lat="59.0692806244" lon="29.9947571754"><time>2026-04-25T17:46:39Z</time></trkpt><trkpt lat="59.0692591667" lon="29.9947786331"><time>2026-04-25T17:46:42Z</time></trkpt><trkpt lat="59.0692591667" lon="29.9947786331"><time>2026-04-25T17:46:44Z</time></trkpt><trkpt lat="59.0692591667" lon="29.9947786331"><time>2026-04-25T17:46:47Z</time></trkpt><trkpt lat="59.0692806244" lon="29.9948215485"><time>2026-04-25T17:46:49Z</time></trkpt><trkpt lat="59.0692806244" lon="29.9948215485"><time>2026-04-25T17:46:52Z</time></trkpt><trkpt lat="59.0692806244" lon="29.9948430061"><time>2026-04-25T17:46:54Z</time></trkpt><trkpt lat="59.0692806244" lon="29.9948430061"><time>2026-04-25T17:46:57Z</time></trkpt><trkpt lat="59.0692806244" lon="29.9948430061"><time>2026-04-25T17:46:59Z</time></trkpt><trkpt lat="59.0692806244" lon="29.9948644638"><time>2026-04-25T17:47:02Z</time></trkpt><trkpt lat="59.0692806244" lon="29.9949288368"><time>2026-04-25T17:47:04Z</time></trkpt><trkpt lat="59.0692806244" lon="29.9949288368"><time>2026-04-25T17:47:07Z</time></trkpt><trkpt lat="59.0692591667" lon="29.9949717522"><time>2026-04-25T17:47:09Z</time></trkpt><trkpt lat="59.0692377090" lon="29.9949932098"><time>2026-04-25T17:47:12Z</time></trkpt><trkpt lat="59.0692162514" lon="29.9950361252"><time>2026-04-25T17:47:14Z</time></trkpt><trkpt lat="59.0692162514" lon="29.9950790405"><time>2026-04-25T17:47:17Z</time></trkpt><trkpt lat="59.0692162514" lon="29.9951219559"><time>2026-04-25T17:47:19Z</time></trkpt><trkpt lat="59.0692162514" lon="29.9951648712"><time>2026-04-25T17:47:22Z</time></trkpt><trkpt lat="59.0691947937" lon="29.9952292442"><time>2026-04-25T17:47:24Z</time></trkpt><trkpt lat="59.0691947937" lon="29.9952936172"><time>2026-04-25T17:47:27Z</time></trkpt><trkpt lat="59.0691733360" lon="29.9953794479"><time>2026-04-25T17:47:29Z</time></trkpt><trkpt lat="59.0691518784" lon="29.9954009056"><time>2026-04-25T17:47:32Z</time></trkpt><trkpt lat="59.0691304207" lon="29.9954009056"><time>2026-04-25T17:47:34Z</time></trkpt><trkpt lat="59.0691089630" lon="29.9954223633"><time>2026-04-25T17:47:37Z</time></trkpt><trkpt lat="59.0691089630" lon="29.9954223633"><time>2026-04-25T17:47:39Z</time></trkpt><trkpt lat="59.0691089630" lon="29.9954223633"><time>2026-04-25T17:47:42Z</time></trkpt><trkpt lat="59.0691089630" lon="29.9954223633"><time>2026-04-25T17:47:44Z</time></trkpt><trkpt lat="59.0691089630" lon="29.9954438210"><time>2026-04-25T17:47:47Z</time></trkpt><trkpt lat="59.0691089630" lon="29.9955081940"><time>2026-04-25T17:47:49Z</time></trkpt><trkpt lat="59.0690875053" lon="29.9955081940"><time>2026-04-25T17:47:52Z</time></trkpt><trkpt lat="59.0690875053" lon="29.9955511093"><time>2026-04-25T17:47:54Z</time></trkpt><trkpt lat="59.0690875053" lon="29.9955725670"><time>2026-04-25T17:47:57Z</time></trkpt><trkpt lat="59.0691089630" lon="29.9955940247"><time>2026-04-25T17:47:59Z</time></trkpt><trkpt lat="59.0691089630" lon="29.9956154823"><time>2026-04-25T17:48:02Z</time></trkpt><trkpt lat="59.0691089630" lon="29.9956154823"><time>2026-04-25T17:48:04Z</time></trkpt><trkpt lat="59.0691089630" lon="29.9956154823"><time>2026-04-25T17:48:07Z</time></trkpt><trkpt lat="59.0691518784" lon="29.9956583977"><time>2026-04-25T17:48:09Z</time></trkpt><trkpt lat="59.0691733360" lon="29.9956798553"><time>2026-04-25T17:48:12Z</time></trkpt><trkpt lat="59.0692162514" lon="29.9957013130"><time>2026-04-25T17:48:14Z</time></trkpt><trkpt lat="59.0692591667" lon="29.9957013130"><time>2026-04-25T17:48:17Z</time></trkpt><trkpt lat="59.0693020821" lon="29.9957013130"><time>2026-04-25T17:48:19Z</time></trkpt><trkpt lat="59.0693235397" lon="29.9957227707"><time>2026-04-25T17:48:22Z</time></trkpt><trkpt lat="59.0693449974" lon="29.9957656860"><time>2026-04-25T17:48:24Z</time></trkpt><trkpt lat="59.0693449974" lon="29.9957656860"><time>2026-04-25T17:48:27Z</time></trkpt><trkpt lat="59.0693449974" lon="29.9957656860"><time>2026-04-25T17:48:29Z</time></trkpt><trkpt lat="59.0693664551" lon="29.9957871437"><time>2026-04-25T17:48:32Z</time></trkpt><trkpt lat="59.0693664551" lon="29.9958086014"><time>2026-04-25T17:48:34Z</time></trkpt><trkpt lat="59.0693664551" lon="29.9958086014"><time>2026-04-25T17:48:37Z</time></trkpt><trkpt lat="59.0693664551" lon="29.9958086014"><time>2026-04-25T17:48:39Z</time></trkpt><trkpt lat="59.0693664551" lon="29.9958086014"><time>2026-04-25T17:48:42Z</time></trkpt><trkpt lat="59.0693664551" lon="29.9958515167"><time>2026-04-25T17:48:44Z</time></trkpt><trkpt lat="59.0693664551" lon="29.9958729744"><time>2026-04-25T17:48:47Z</time></trkpt><trkpt lat="59.0693664551" lon="29.9958729744"><time>2026-04-25T17:48:49Z</time></trkpt><trkpt lat="59.0693664551" lon="29.9958729744"><time>2026-04-25T17:48:52Z</time></trkpt><trkpt lat="59.0693664551" lon="29.9958944321"><time>2026-04-25T17:48:54Z</time></trkpt><trkpt lat="59.0693664551" lon="29.9958944321"><time>2026-04-25T17:48:57Z</time></trkpt><trkpt lat="59.0693449974" lon="29.9959158897"><time>2026-04-25T17:48:59Z</time></trkpt><trkpt lat="59.0693449974" lon="29.9959588051"><time>2026-04-25T17:49:02Z</time></trkpt><trkpt lat="59.0693449974" lon="29.9959802628"><time>2026-04-25T17:49:04Z</time></trkpt><trkpt lat="59.0693449974" lon="29.9960231781"><time>2026-04-25T17:49:07Z</time></trkpt><trkpt lat="59.0693879128" lon="29.9960875511"><time>2026-04-25T17:49:09Z</time></trkpt><trkpt lat="59.0694093704" lon="29.9961304665"><time>2026-04-25T17:49:12Z</time></trkpt><trkpt lat="59.0694522858" lon="29.9961733818"><time>2026-04-25T17:49:14Z</time></trkpt><trkpt lat="59.0694522858" lon="29.9961948395"><time>2026-04-25T17:49:17Z</time></trkpt><trkpt lat="59.0694952011" lon="29.9961733818"><time>2026-04-25T17:49:19Z</time></trkpt><trkpt lat="59.0694952011" lon="29.9961519241"><time>2026-04-25T17:49:22Z</time></trkpt><trkpt lat="59.0695166588" lon="29.9961519241"><time>2026-04-25T17:49:24Z</time></trkpt><trkpt lat="59.0695381165" lon="29.9961733818"><time>2026-04-25T17:49:27Z</time></trkpt><trkpt lat="59.0695381165" lon="29.9962377548"><time>2026-04-25T17:49:29Z</time></trkpt><trkpt lat="59.0695381165" lon="29.9962592125"><time>2026-04-25T17:49:32Z</time></trkpt><trkpt lat="59.0695381165" lon="29.9962592125"><time>2026-04-25T17:49:34Z</time></trkpt><trkpt lat="59.0695595741" lon="29.9962806702"><time>2026-04-25T17:49:37Z</time></trkpt><trkpt lat="59.0695595741" lon="29.9963021278"><time>2026-04-25T17:49:39Z</time></trkpt><trkpt lat="59.0695810318" lon="29.9963021278"><time>2026-04-25T17:49:42Z</time></trkpt><trkpt lat="59.0695810318" lon="29.9963021278"><time>2026-04-25T17:49:44Z</time></trkpt><trkpt lat="59.0695810318" lon="29.9963021278"><time>2026-04-25T17:49:47Z</time></trkpt><trkpt lat="59.0695810318" lon="29.9963021278"><time>2026-04-25T17:49:49Z</time></trkpt><trkpt lat="59.0696024895" lon="29.9963235855"><time>2026-04-25T17:49:52Z</time></trkpt><trkpt lat="59.0696239471" lon="29.9963879585"><time>2026-04-25T17:49:54Z</time></trkpt><trkpt lat="59.0696239471" lon="29.9964523315"><time>2026-04-25T17:49:57Z</time></trkpt><trkpt lat="59.0696454048" lon="29.9965167046"><time>2026-04-25T17:49:59Z</time></trkpt><trkpt lat="59.0696454048" lon="29.9965596199"><time>2026-04-25T17:50:02Z</time></trkpt><trkpt lat="59.0696454048" lon="29.9966239929"><time>2026-04-25T17:50:04Z</time></trkpt><trkpt lat="59.0696454048" lon="29.9966669083"><time>2026-04-25T17:50:07Z</time></trkpt><trkpt lat="59.0696239471" lon="29.9967527390"><time>2026-04-25T17:50:09Z</time></trkpt><trkpt lat="59.0696454048" lon="29.9967956543"><time>2026-04-25T17:50:12Z</time></trkpt><trkpt lat="59.0696454048" lon="29.9968814850"><time>2026-04-25T17:50:14Z</time></trkpt><trkpt lat="59.0696668625" lon="29.9969458580"><time>2026-04-25T17:50:17Z</time></trkpt><trkpt lat="59.0696668625" lon="29.9970102310"><time>2026-04-25T17:50:19Z</time></trkpt><trkpt lat="59.0696454048" lon="29.9970316887"><time>2026-04-25T17:50:22Z</time></trkpt><trkpt lat="59.0696454048" lon="29.9970746040"><time>2026-04-25T17:50:24Z</time></trkpt><trkpt lat="59.0696454048" lon="29.9971175194"><time>2026-04-25T17:50:27Z</time></trkpt><trkpt lat="59.0696668625" lon="29.9971818924"><time>2026-04-25T17:50:29Z</time></trkpt><trkpt lat="59.0696668625" lon="29.9972248077"><time>2026-04-25T17:50:32Z</time></trkpt><trkpt lat="59.0696668625" lon="29.9972462654"><time>2026-04-25T17:50:34Z</time></trkpt><trkpt lat="59.0696883202" lon="29.9972891808"><time>2026-04-25T17:50:37Z</time></trkpt><trkpt lat="59.0697097778" lon="29.9973106384"><time>2026-04-25T17:50:39Z</time></trkpt><trkpt lat="59.0697097778" lon="29.9973106384"><time>2026-04-25T17:50:42Z</time></trkpt><trkpt lat="59.0697097778" lon="29.9973535538"><time>2026-04-25T17:50:44Z</time></trkpt><trkpt lat="59.0697097778" lon="29.9974179268"><time>2026-04-25T17:50:47Z</time></trkpt><trkpt lat="59.0697097778" lon="29.9974393845"><time>2026-04-25T17:50:49Z</time></trkpt><trkpt lat="59.0696883202" lon="29.9974822998"><time>2026-04-25T17:50:52Z</time></trkpt><trkpt lat="59.0696883202" lon="29.9974822998"><time>2026-04-25T17:50:54Z</time></trkpt><trkpt lat="59.0696668625" lon="29.9975252151"><time>2026-04-25T17:50:57Z</time></trkpt><trkpt lat="59.0696454048" lon="29.9975466728"><time>2026-04-25T17:50:59Z</time></trkpt><trkpt lat="59.0696668625" lon="29.9975895882"><time>2026-04-25T17:51:02Z</time></trkpt><trkpt lat="59.0696668625" lon="29.9975895882"><time>2026-04-25T17:51:04Z</time></trkpt><trkpt lat="59.0696454048" lon="29.9976325035"><time>2026-04-25T17:51:07Z</time></trkpt><trkpt lat="59.0696239471" lon="29.9976968765"><time>2026-04-25T17:51:09Z</time></trkpt><trkpt lat="59.0696024895" lon="29.9977827072"><time>2026-04-25T17:51:12Z</time></trkpt><trkpt lat="59.0695810318" lon="29.9978470802"><time>2026-04-25T17:51:14Z</time></trkpt><trkpt lat="59.0695810318" lon="29.9979329109"><time>2026-04-25T17:51:17Z</time></trkpt><trkpt lat="59.0695810318" lon="29.9979972839"><time>2026-04-25T17:51:19Z</time></trkpt><trkpt lat="59.0696024895" lon="29.9980616570"><time>2026-04-25T17:51:22Z</time></trkpt><trkpt lat="59.0696024895" lon="29.9980831146"><time>2026-04-25T17:51:24Z</time></trkpt><trkpt lat="59.0696239471" lon="29.9981260300"><time>2026-04-25T17:51:27Z</time></trkpt><trkpt lat="59.0696239471" lon="29.9981474876"><time>2026-04-25T17:51:29Z</time></trkpt><trkpt lat="59.0696454048" lon="29.9981689453"><time>2026-04-25T17:51:32Z</time></trkpt><trkpt lat="59.0696239471" lon="29.9981689453"><time>2026-04-25T17:51:34Z</time></trkpt><trkpt lat="59.0696239471" lon="29.9982118607"><time>2026-04-25T17:51:37Z</time></trkpt><trkpt lat="59.0696239471" lon="29.9982333183"><time>2026-04-25T17:51:39Z</time></trkpt><trkpt lat="59.0696024895" lon="29.9982762337"><time>2026-04-25T17:51:42Z</time></trkpt><trkpt lat="59.0695810318" lon="29.9983191490"><time>2026-04-25T17:51:44Z</time></trkpt><trkpt lat="59.0695810318" lon="29.9983406067"><time>2026-04-25T17:51:47Z</time></trkpt><trkpt lat="59.0695810318" lon="29.9983406067"><time>2026-04-25T17:51:49Z</time></trkpt><trkpt lat="59.0695810318" lon="29.9983406067"><time>2026-04-25T17:51:52Z</time></trkpt><trkpt lat="59.0695810318" lon="29.9983406067"><time>2026-04-25T17:51:54Z</time></trkpt><trkpt lat="59.0695810318" lon="29.9983406067"><time>2026-04-25T17:51:57Z</time></trkpt><trkpt lat="59.0695595741" lon="29.9983835220"><time>2026-04-25T17:51:59Z</time></trkpt><trkpt lat="59.0695595741" lon="29.9984049797"><time>2026-04-25T17:52:02Z</time></trkpt><trkpt lat="59.0695381165" lon="29.9984264374"><time>2026-04-25T17:52:04Z</time></trkpt><trkpt lat="59.0695381165" lon="29.9984693527"><time>2026-04-25T17:52:07Z</time></trkpt><trkpt lat="59.0695381165" lon="29.9985122681"><time>2026-04-25T17:52:09Z</time></trkpt><trkpt lat="59.0695166588" lon="29.9985551834"><time>2026-04-25T17:52:12Z</time></trkpt><trkpt lat="59.0694952011" lon="29.9985980988"><time>2026-04-25T17:52:14Z</time></trkpt><trkpt lat="59.0694737434" lon="29.9986195564"><time>2026-04-25T17:52:17Z</time></trkpt><trkpt lat="59.0694522858" lon="29.9986624718"><time>2026-04-25T17:52:19Z</time></trkpt><trkpt lat="59.0694522858" lon="29.9986839294"><time>2026-04-25T17:52:22Z</time></trkpt><trkpt lat="59.0694522858" lon="29.9987053871"><time>2026-04-25T17:52:24Z</time></trkpt><trkpt lat="59.0694522858" lon="29.9987053871"><time>2026-04-25T17:52:27Z</time></trkpt><trkpt lat="59.0694737434" lon="29.9987697601"><time>2026-04-25T17:52:29Z</time></trkpt><trkpt lat="59.0694737434" lon="29.9988126755"><time>2026-04-25T17:52:32Z</time></trkpt><trkpt lat="59.0694952011" lon="29.9988341331"><time>2026-04-25T17:52:34Z</time></trkpt><trkpt lat="59.0694952011" lon="29.9988341331"><time>2026-04-25T17:52:37Z</time></trkpt><trkpt lat="59.0694952011" lon="29.9988341331"><time>2026-04-25T17:52:39Z</time></trkpt><trkpt lat="59.0694952011" lon="29.9988985062"><time>2026-04-25T17:52:42Z</time></trkpt><trkpt lat="59.0695381165" lon="29.9989414215"><time>2026-04-25T17:52:44Z</time></trkpt><trkpt lat="59.0695595741" lon="29.9989843369"><time>2026-04-25T17:52:47Z</time></trkpt><trkpt lat="59.0695810318" lon="29.9990701675"><time>2026-04-25T17:52:49Z</time></trkpt><trkpt lat="59.0696024895" lon="29.9990916252"><time>2026-04-25T17:52:52Z</time></trkpt><trkpt lat="59.0696024895" lon="29.9991774559"><time>2026-04-25T17:52:54Z</time></trkpt><trkpt lat="59.0696024895" lon="29.9992847443"><time>2026-04-25T17:52:57Z</time></trkpt><trkpt lat="59.0695810318" lon="29.9993276596"><time>2026-04-25T17:52:59Z</time></trkpt><trkpt lat="59.0695810318" lon="29.9993705750"><time>2026-04-25T17:53:02Z</time></trkpt><trkpt lat="59.0695810318" lon="29.9994134903"><time>2026-04-25T17:53:04Z</time></trkpt><trkpt lat="59.0695810318" lon="29.9994134903"><time>2026-04-25T17:53:07Z</time></trkpt><trkpt lat="59.0696024895" lon="29.9994564056"><time>2026-04-25T17:53:09Z</time></trkpt><trkpt lat="59.0696024895" lon="29.9994993210"><time>2026-04-25T17:53:12Z</time></trkpt><trkpt lat="59.0696024895" lon="29.9995851517"><time>2026-04-25T17:53:14Z</time></trkpt><trkpt lat="59.0696024895" lon="29.9995851517"><time>2026-04-25T17:53:17Z</time></trkpt><trkpt lat="59.0696024895" lon="29.9996280670"><time>2026-04-25T17:53:19Z</time></trkpt><trkpt lat="59.0696024895" lon="29.9996280670"><time>2026-04-25T17:53:22Z</time></trkpt><trkpt lat="59.0695810318" lon="29.9996280670"><time>2026-04-25T17:53:24Z</time></trkpt><trkpt lat="59.0695810318" lon="29.9996280670"><time>2026-04-25T17:53:27Z</time></trkpt><trkpt lat="59.0695810318" lon="29.9996280670"><time>2026-04-25T17:53:29Z</time></trkpt><trkpt lat="59.0696024895" lon="29.9996495247"><time>2026-04-25T17:53:32Z</time></trkpt><trkpt lat="59.0696024895" lon="29.9997353554"><time>2026-04-25T17:53:34Z</time></trkpt><trkpt lat="59.0696024895" lon="29.9997353554"><time>2026-04-25T17:53:37Z</time></trkpt><trkpt lat="59.0695810318" lon="29.9997138977"><time>2026-04-25T17:53:39Z</time></trkpt><trkpt lat="59.0695810318" lon="29.9997138977"><time>2026-04-25T17:53:42Z</time></trkpt><trkpt lat="59.0695810318" lon="29.9997782707"><time>2026-04-25T17:53:44Z</time></trkpt><trkpt lat="59.0696024895" lon="29.9998211861"><time>2026-04-25T17:53:47Z</time></trkpt><trkpt lat="59.0696239471" lon="29.9999070168"><time>2026-04-25T17:53:49Z</time></trkpt><trkpt lat="59.0696454048" lon="29.9999713898"><time>2026-04-25T17:53:52Z</time></trkpt><trkpt lat="59.0696668625" lon="30.0000786781"><time>2026-04-25T17:53:54Z</time></trkpt><trkpt lat="59.0696883202" lon="30.0001430511"><time>2026-04-25T17:53:57Z</time></trkpt><trkpt lat="59.0696883202" lon="30.0002932549"><time>2026-04-25T17:53:59Z</time></trkpt><trkpt lat="59.0697097778" lon="30.0003576279"><time>2026-04-25T17:54:02Z</time></trkpt><trkpt lat="59.0697312355" lon="30.0004649162"><time>2026-04-25T17:54:04Z</time></trkpt><trkpt lat="59.0697312355" lon="30.0004649162"><time>2026-04-25T17:54:07Z</time></trkpt><trkpt lat="59.0697097778" lon="30.0004649162"><time>2026-04-25T17:54:09Z</time></trkpt><trkpt lat="59.0697097778" lon="30.0004863739"><time>2026-04-25T17:54:12Z</time></trkpt><trkpt lat="59.0697097778" lon="30.0004863739"><time>2026-04-25T17:54:14Z</time></trkpt><trkpt lat="59.0697097778" lon="30.0004863739"><time>2026-04-25T17:54:17Z</time></trkpt><trkpt lat="59.0697312355" lon="30.0005507469"><time>2026-04-25T17:54:19Z</time></trkpt><trkpt lat="59.0697312355" lon="30.0006151199"><time>2026-04-25T17:54:22Z</time></trkpt><trkpt lat="59.0697526932" lon="30.0007224083"><time>2026-04-25T17:54:24Z</time></trkpt><trkpt lat="59.0697741508" lon="30.0007867813"><time>2026-04-25T17:54:27Z</time></trkpt><trkpt lat="59.0697956085" lon="30.0008511543"><time>2026-04-25T17:54:29Z</time></trkpt><trkpt lat="59.0697956085" lon="30.0008940697"><time>2026-04-25T17:54:32Z</time></trkpt><trkpt lat="59.0697741508" lon="30.0009369850"><time>2026-04-25T17:54:34Z</time></trkpt><trkpt lat="59.0697741508" lon="30.0009584427"><time>2026-04-25T17:54:37Z</time></trkpt><trkpt lat="59.0697741508" lon="30.0009584427"><time>2026-04-25T17:54:39Z</time></trkpt><trkpt lat="59.0697741508" lon="30.0009799004"><time>2026-04-25T17:54:42Z</time></trkpt><trkpt lat="59.0697526932" lon="30.0009799004"><time>2026-04-25T17:54:44Z</time></trkpt><trkpt lat="59.0697526932" lon="30.0009584427"><time>2026-04-25T17:54:47Z</time></trkpt><trkpt lat="59.0697526932" lon="30.0009584427"><time>2026-04-25T17:54:49Z</time></trkpt><trkpt lat="59.0697526932" lon="30.0009584427"><time>2026-04-25T17:54:52Z</time></trkpt><trkpt lat="59.0697526932" lon="30.0009584427"><time>2026-04-25T17:54:54Z</time></trkpt><trkpt lat="59.0697526932" lon="30.0009584427"><time>2026-04-25T17:54:57Z</time></trkpt><trkpt lat="59.0697526932" lon="30.0009584427"><time>2026-04-25T17:54:59Z</time></trkpt><trkpt lat="59.0697526932" lon="30.0009584427"><time>2026-04-25T17:55:02Z</time></trkpt><trkpt lat="59.0697526932" lon="30.0009584427"><time>2026-04-25T17:55:04Z</time></trkpt><trkpt lat="59.0697526932" lon="30.0009584427"><time>2026-04-25T17:55:07Z</time></trkpt><trkpt lat="59.0697526932" lon="30.0009584427"><time>2026-04-25T17:55:09Z</time></trkpt><trkpt lat="59.0697526932" lon="30.0009584427"><time>2026-04-25T17:55:12Z</time></trkpt><trkpt lat="59.0697526932" lon="30.0009584427"><time>2026-04-25T17:55:14Z</time></trkpt><trkpt lat="59.0697526932" lon="30.0009584427"><time>2026-04-25T17:55:17Z</time></trkpt><trkpt lat="59.0697526932" lon="30.0009584427"><time>2026-04-25T17:55:19Z</time></trkpt><trkpt lat="59.0697526932" lon="30.0009584427"><time>2026-04-25T17:55:22Z</time></trkpt><trkpt lat="59.0697526932" lon="30.0009584427"><time>2026-04-25T17:55:24Z</time></trkpt><trkpt lat="59.0697526932" lon="30.0009584427"><time>2026-04-25T17:55:27Z</time></trkpt><trkpt lat="59.0697526932" lon="30.0009584427"><time>2026-04-25T17:55:29Z</time></trkpt><trkpt lat="59.0697741508" lon="30.0009369850"><time>2026-04-25T17:55:32Z</time></trkpt><trkpt lat="59.0697526932" lon="30.0007224083"><time>2026-04-25T17:55:34Z</time></trkpt><trkpt lat="59.0697312355" lon="30.0005507469"><time>2026-04-25T17:55:37Z</time></trkpt><trkpt lat="59.0697312355" lon="30.0004649162"><time>2026-04-25T17:55:39Z</time></trkpt><trkpt lat="59.0697312355" lon="30.0004649162"><time>2026-04-25T17:55:42Z</time></trkpt><trkpt lat="59.0697097778" lon="30.0004005432"><time>2026-04-25T17:55:44Z</time></trkpt><trkpt lat="59.0696883202" lon="30.0003576279"><time>2026-04-25T17:55:47Z</time></trkpt><trkpt lat="59.0696668625" lon="30.0002932549"><time>2026-04-25T17:55:49Z</time></trkpt><trkpt lat="59.0696454048" lon="30.0002932549"><time>2026-04-25T17:55:52Z</time></trkpt><trkpt lat="59.0696454048" lon="30.0002288818"><time>2026-04-25T17:55:54Z</time></trkpt><trkpt lat="59.0696454048" lon="30.0001645088"><time>2026-04-25T17:55:57Z</time></trkpt><trkpt lat="59.0696239471" lon="30.0000786781"><time>2026-04-25T17:55:59Z</time></trkpt><trkpt lat="59.0696239471" lon="30.0000143051"><time>2026-04-25T17:56:02Z</time></trkpt><trkpt lat="59.0696239471" lon="29.9999713898"><time>2026-04-25T17:56:04Z</time></trkpt><trkpt lat="59.0696024895" lon="29.9999284744"><time>2026-04-25T17:56:07Z</time></trkpt><trkpt lat="59.0696024895" lon="29.9999284744"><time>2026-04-25T17:56:09Z</time></trkpt><trkpt lat="59.0695810318" lon="29.9999070168"><time>2026-04-25T17:56:12Z</time></trkpt><trkpt lat="59.0695595741" lon="29.9998641014"><time>2026-04-25T17:56:14Z</time></trkpt><trkpt lat="59.0695595741" lon="29.9997997284"><time>2026-04-25T17:56:17Z</time></trkpt><trkpt lat="59.0695381165" lon="29.9997782707"><time>2026-04-25T17:56:19Z</time></trkpt><trkpt lat="59.0695381165" lon="29.9997568130"><time>2026-04-25T17:56:22Z</time></trkpt><trkpt lat="59.0695381165" lon="29.9997568130"><time>2026-04-25T17:56:24Z</time></trkpt><trkpt lat="59.0695595741" lon="29.9997353554"><time>2026-04-25T17:56:27Z</time></trkpt><trkpt lat="59.0695810318" lon="29.9996280670"><time>2026-04-25T17:56:29Z</time></trkpt><trkpt lat="59.0695810318" lon="29.9995851517"><time>2026-04-25T17:56:32Z</time></trkpt><trkpt lat="59.0695810318" lon="29.9995207787"><time>2026-04-25T17:56:34Z</time></trkpt><trkpt lat="59.0696024895" lon="29.9994993210"><time>2026-04-25T17:56:37Z</time></trkpt><trkpt lat="59.0696024895" lon="29.9994564056"><time>2026-04-25T17:56:39Z</time></trkpt><trkpt lat="59.0696024895" lon="29.9994349480"><time>2026-04-25T17:56:42Z</time></trkpt><trkpt lat="59.0696024895" lon="29.9994134903"><time>2026-04-25T17:56:44Z</time></trkpt><trkpt lat="59.0696024895" lon="29.9993705750"><time>2026-04-25T17:56:47Z</time></trkpt><trkpt lat="59.0696024895" lon="29.9993276596"><time>2026-04-25T17:56:49Z</time></trkpt><trkpt lat="59.0695810318" lon="29.9993062019"><time>2026-04-25T17:56:52Z</time></trkpt><trkpt lat="59.0695595741" lon="29.9992632866"><time>2026-04-25T17:56:54Z</time></trkpt><trkpt lat="59.0695595741" lon="29.9992203712"><time>2026-04-25T17:56:57Z</time></trkpt><trkpt lat="59.0695381165" lon="29.9991559982"><time>2026-04-25T17:56:59Z</time></trkpt><trkpt lat="59.0695381165" lon="29.9991130829"><time>2026-04-25T17:57:02Z</time></trkpt><trkpt lat="59.0695166588" lon="29.9990701675"><time>2026-04-25T17:57:04Z</time></trkpt><trkpt lat="59.0695166588" lon="29.9990057945"><time>2026-04-25T17:57:07Z</time></trkpt><trkpt lat="59.0694952011" lon="29.9989414215"><time>2026-04-25T17:57:09Z</time></trkpt><trkpt lat="59.0694952011" lon="29.9988985062"><time>2026-04-25T17:57:12Z</time></trkpt><trkpt lat="59.0694952011" lon="29.9988985062"><time>2026-04-25T17:57:14Z</time></trkpt><trkpt lat="59.0694952011" lon="29.9988985062"><time>2026-04-25T17:57:17Z</time></trkpt><trkpt lat="59.0694952011" lon="29.9988985062"><time>2026-04-25T17:57:19Z</time></trkpt><trkpt lat="59.0694952011" lon="29.9988770485"><time>2026-04-25T17:57:22Z</time></trkpt><trkpt lat="59.0694952011" lon="29.9988770485"><time>2026-04-25T17:57:24Z</time></trkpt><trkpt lat="59.0694952011" lon="29.9988555908"><time>2026-04-25T17:57:27Z</time></trkpt><trkpt lat="59.0694952011" lon="29.9987912178"><time>2026-04-25T17:57:29Z</time></trkpt><trkpt lat="59.0694952011" lon="29.9987268448"><time>2026-04-25T17:57:32Z</time></trkpt><trkpt lat="59.0694952011" lon="29.9986624718"><time>2026-04-25T17:57:34Z</time></trkpt><trkpt lat="59.0694737434" lon="29.9986195564"><time>2026-04-25T17:57:37Z</time></trkpt><trkpt lat="59.0694522858" lon="29.9985551834"><time>2026-04-25T17:57:39Z</time></trkpt><trkpt lat="59.0694522858" lon="29.9985122681"><time>2026-04-25T17:57:42Z</time></trkpt><trkpt lat="59.0694308281" lon="29.9984908104"><time>2026-04-25T17:57:44Z</time></trkpt><trkpt lat="59.0694093704" lon="29.9984264374"><time>2026-04-25T17:57:47Z</time></trkpt><trkpt lat="59.0694093704" lon="29.9983835220"><time>2026-04-25T17:57:49Z</time></trkpt><trkpt lat="59.0693879128" lon="29.9982976913"><time>2026-04-25T17:57:52Z</time></trkpt><trkpt lat="59.0693664551" lon="29.9981260300"><time>2026-04-25T17:57:59Z</time></trkpt><trkpt lat="59.0693449974" lon="29.9980401993"><time>2026-04-25T17:58:02Z</time></trkpt><trkpt lat="59.0693449974" lon="29.9980187416"><time>2026-04-25T17:58:04Z</time></trkpt><trkpt lat="59.0693449974" lon="29.9979972839"><time>2026-04-25T17:58:07Z</time></trkpt><trkpt lat="59.0693449974" lon="29.9979329109"><time>2026-04-25T17:58:09Z</time></trkpt><trkpt lat="59.0693235397" lon="29.9978470802"><time>2026-04-25T17:58:12Z</time></trkpt><trkpt lat="59.0693020821" lon="29.9977612495"><time>2026-04-25T17:58:14Z</time></trkpt><trkpt lat="59.0693020821" lon="29.9976968765"><time>2026-04-25T17:58:17Z</time></trkpt><trkpt lat="59.0693020821" lon="29.9976754189"><time>2026-04-25T17:58:19Z</time></trkpt><trkpt lat="59.0692806244" lon="29.9976110458"><time>2026-04-25T17:58:22Z</time></trkpt><trkpt lat="59.0692806244" lon="29.9975895882"><time>2026-04-25T17:58:24Z</time></trkpt><trkpt lat="59.0692806244" lon="29.9975681305"><time>2026-04-25T17:58:27Z</time></trkpt><trkpt lat="59.0692806244" lon="29.9975252151"><time>2026-04-25T17:58:29Z</time></trkpt><trkpt lat="59.0692591667" lon="29.9974822998"><time>2026-04-25T17:58:32Z</time></trkpt><trkpt lat="59.0692591667" lon="29.9973964691"><time>2026-04-25T17:58:34Z</time></trkpt><trkpt lat="59.0692591667" lon="29.9973535538"><time>2026-04-25T17:58:37Z</time></trkpt><trkpt lat="59.0692377090" lon="29.9973106384"><time>2026-04-25T17:58:39Z</time></trkpt><trkpt lat="59.0692377090" lon="29.9972891808"><time>2026-04-25T17:58:42Z</time></trkpt><trkpt lat="59.0692377090" lon="29.9972891808"><time>2026-04-25T17:58:44Z</time></trkpt><trkpt lat="59.0692377090" lon="29.9972677231"><time>2026-04-25T17:58:47Z</time></trkpt><trkpt lat="59.0692377090" lon="29.9972033501"><time>2026-04-25T17:58:49Z</time></trkpt><trkpt lat="59.0692591667" lon="29.9971604347"><time>2026-04-25T17:58:52Z</time></trkpt><trkpt lat="59.0692591667" lon="29.9970746040"><time>2026-04-25T17:58:54Z</time></trkpt><trkpt lat="59.0692591667" lon="29.9970316887"><time>2026-04-25T17:58:57Z</time></trkpt><trkpt lat="59.0692591667" lon="29.9970102310"><time>2026-04-25T17:58:59Z</time></trkpt><trkpt lat="59.0692591667" lon="29.9970102310"><time>2026-04-25T17:59:02Z</time></trkpt><trkpt lat="59.0692591667" lon="29.9969673157"><time>2026-04-25T17:59:04Z</time></trkpt><trkpt lat="59.0692591667" lon="29.9969244003"><time>2026-04-25T17:59:07Z</time></trkpt><trkpt lat="59.0692591667" lon="29.9968600273"><time>2026-04-25T17:59:09Z</time></trkpt><trkpt lat="59.0692377090" lon="29.9968385696"><time>2026-04-25T17:59:12Z</time></trkpt><trkpt lat="59.0692377090" lon="29.9967956543"><time>2026-04-25T17:59:14Z</time></trkpt><trkpt lat="59.0692377090" lon="29.9967956543"><time>2026-04-25T17:59:17Z</time></trkpt><trkpt lat="59.0692377090" lon="29.9968171120"><time>2026-04-25T17:59:19Z</time></trkpt><trkpt lat="59.0692377090" lon="29.9968171120"><time>2026-04-25T17:59:22Z</time></trkpt><trkpt lat="59.0692377090" lon="29.9968171120"><time>2026-04-25T17:59:24Z</time></trkpt><trkpt lat="59.0692377090" lon="29.9968171120"><time>2026-04-25T17:59:27Z</time></trkpt><trkpt lat="59.0692377090" lon="29.9967956543"><time>2026-04-25T17:59:29Z</time></trkpt><trkpt lat="59.0692377090" lon="29.9967741966"><time>2026-04-25T17:59:32Z</time></trkpt><trkpt lat="59.0692377090" lon="29.9967098236"><time>2026-04-25T17:59:34Z</time></trkpt><trkpt lat="59.0692377090" lon="29.9966669083"><time>2026-04-25T17:59:37Z</time></trkpt><trkpt lat="59.0692162514" lon="29.9966454506"><time>2026-04-25T17:59:39Z</time></trkpt><trkpt lat="59.0691947937" lon="29.9965596199"><time>2026-04-25T17:59:42Z</time></trkpt><trkpt lat="59.0691733360" lon="29.9964523315"><time>2026-04-25T17:59:44Z</time></trkpt><trkpt lat="59.0691947937" lon="29.9964308739"><time>2026-04-25T17:59:47Z</time></trkpt><trkpt lat="59.0691733360" lon="29.9963450432"><time>2026-04-25T17:59:49Z</time></trkpt><trkpt lat="59.0691733360" lon="29.9962806702"><time>2026-04-25T17:59:52Z</time></trkpt><trkpt lat="59.0691733360" lon="29.9961948395"><time>2026-04-25T17:59:54Z</time></trkpt><trkpt lat="59.0691518784" lon="29.9961519241"><time>2026-04-25T17:59:57Z</time></trkpt><trkpt lat="59.0691304207" lon="29.9960660934"><time>2026-04-25T17:59:59Z</time></trkpt><trkpt lat="59.0691089630" lon="29.9960446358"><time>2026-04-25T18:00:02Z</time></trkpt><trkpt lat="59.0691089630" lon="29.9959802628"><time>2026-04-25T18:00:04Z</time></trkpt><trkpt lat="59.0691089630" lon="29.9959588051"><time>2026-04-25T18:00:07Z</time></trkpt><trkpt lat="59.0690875053" lon="29.9959158897"><time>2026-04-25T18:00:09Z</time></trkpt><trkpt lat="59.0690875053" lon="29.9958944321"><time>2026-04-25T18:00:12Z</time></trkpt><trkpt lat="59.0690660477" lon="29.9958944321"><time>2026-04-25T18:00:14Z</time></trkpt><trkpt lat="59.0690660477" lon="29.9958944321"><time>2026-04-25T18:00:17Z</time></trkpt><trkpt lat="59.0690875053" lon="29.9958300591"><time>2026-04-25T18:00:19Z</time></trkpt><trkpt lat="59.0690875053" lon="29.9958086014"><time>2026-04-25T18:00:22Z</time></trkpt><trkpt lat="59.0690875053" lon="29.9957871437"><time>2026-04-25T18:00:24Z</time></trkpt><trkpt lat="59.0690875053" lon="29.9957871437"><time>2026-04-25T18:00:27Z</time></trkpt><trkpt lat="59.0690875053" lon="29.9957871437"><time>2026-04-25T18:00:29Z</time></trkpt><trkpt lat="59.0690875053" lon="29.9957227707"><time>2026-04-25T18:00:32Z</time></trkpt><trkpt lat="59.0690875053" lon="29.9957013130"><time>2026-04-25T18:00:34Z</time></trkpt><trkpt lat="59.0690875053" lon="29.9956798553"><time>2026-04-25T18:00:37Z</time></trkpt><trkpt lat="59.0690875053" lon="29.9956583977"><time>2026-04-25T18:00:39Z</time></trkpt><trkpt lat="59.0691089630" lon="29.9956583977"><time>2026-04-25T18:00:42Z</time></trkpt><trkpt lat="59.0691089630" lon="29.9956154823"><time>2026-04-25T18:00:44Z</time></trkpt><trkpt lat="59.0691089630" lon="29.9955725670"><time>2026-04-25T18:00:47Z</time></trkpt><trkpt lat="59.0691089630" lon="29.9955511093"><time>2026-04-25T18:00:49Z</time></trkpt><trkpt lat="59.0691089630" lon="29.9955511093"><time>2026-04-25T18:00:52Z</time></trkpt><trkpt lat="59.0690660477" lon="29.9955081940"><time>2026-04-25T18:00:54Z</time></trkpt><trkpt lat="59.0690660477" lon="29.9954438210"><time>2026-04-25T18:00:57Z</time></trkpt><trkpt lat="59.0690445900" lon="29.9954009056"><time>2026-04-25T18:00:59Z</time></trkpt><trkpt lat="59.0690445900" lon="29.9953365326"><time>2026-04-25T18:01:02Z</time></trkpt><trkpt lat="59.0690231323" lon="29.9952936172"><time>2026-04-25T18:01:04Z</time></trkpt><trkpt lat="59.0690231323" lon="29.9952292442"><time>2026-04-25T18:01:07Z</time></trkpt><trkpt lat="59.0690016747" lon="29.9951863289"><time>2026-04-25T18:01:09Z</time></trkpt><trkpt lat="59.0689802170" lon="29.9951863289"><time>2026-04-25T18:01:12Z</time></trkpt><trkpt lat="59.0689587593" lon="29.9951648712"><time>2026-04-25T18:01:14Z</time></trkpt><trkpt lat="59.0689587593" lon="29.9951648712"><time>2026-04-25T18:01:17Z</time></trkpt><trkpt lat="59.0689587593" lon="29.9951434135"><time>2026-04-25T18:01:19Z</time></trkpt><trkpt lat="59.0689587593" lon="29.9951219559"><time>2026-04-25T18:01:22Z</time></trkpt><trkpt lat="59.0689373016" lon="29.9950790405"><time>2026-04-25T18:01:24Z</time></trkpt><trkpt lat="59.0689373016" lon="29.9950361252"><time>2026-04-25T18:01:27Z</time></trkpt><trkpt lat="59.0689587593" lon="29.9949932098"><time>2026-04-25T18:01:29Z</time></trkpt><trkpt lat="59.0689587593" lon="29.9949717522"><time>2026-04-25T18:01:32Z</time></trkpt><trkpt lat="59.0689587593" lon="29.9949502945"><time>2026-04-25T18:01:34Z</time></trkpt><trkpt lat="59.0689587593" lon="29.9949288368"><time>2026-04-25T18:01:37Z</time></trkpt><trkpt lat="59.0689587593" lon="29.9949288368"><time>2026-04-25T18:01:39Z</time></trkpt><trkpt lat="59.0689587593" lon="29.9949073792"><time>2026-04-25T18:01:42Z</time></trkpt><trkpt lat="59.0689587593" lon="29.9949073792"><time>2026-04-25T18:01:44Z</time></trkpt><trkpt lat="59.0689587593" lon="29.9948859215"><time>2026-04-25T18:01:47Z</time></trkpt><trkpt lat="59.0689587593" lon="29.9948430061"><time>2026-04-25T18:01:49Z</time></trkpt><trkpt lat="59.0689802170" lon="29.9948000908"><time>2026-04-25T18:01:52Z</time></trkpt><trkpt lat="59.0690016747" lon="29.9947571754"><time>2026-04-25T18:01:54Z</time></trkpt><trkpt lat="59.0690016747" lon="29.9947571754"><time>2026-04-25T18:01:57Z</time></trkpt><trkpt lat="59.0689802170" lon="29.9947571754"><time>2026-04-25T18:01:59Z</time></trkpt><trkpt lat="59.0689802170" lon="29.9947357178"><time>2026-04-25T18:02:02Z</time></trkpt><trkpt lat="59.0689802170" lon="29.9947142601"><time>2026-04-25T18:02:04Z</time></trkpt><trkpt lat="59.0689587593" lon="29.9946928024"><time>2026-04-25T18:02:07Z</time></trkpt><trkpt lat="59.0689373016" lon="29.9946498871"><time>2026-04-25T18:02:09Z</time></trkpt><trkpt lat="59.0689373016" lon="29.9946284294"><time>2026-04-25T18:02:12Z</time></trkpt><trkpt lat="59.0689158440" lon="29.9945855141"><time>2026-04-25T18:02:14Z</time></trkpt><trkpt lat="59.0689158440" lon="29.9945640564"><time>2026-04-25T18:02:17Z</time></trkpt><trkpt lat="59.0689158440" lon="29.9944996834"><time>2026-04-25T18:02:19Z</time></trkpt><trkpt lat="59.0688943863" lon="29.9944567680"><time>2026-04-25T18:02:22Z</time></trkpt><trkpt lat="59.0689158440" lon="29.9943923950"><time>2026-04-25T18:02:24Z</time></trkpt><trkpt lat="59.0689158440" lon="29.9943709373"><time>2026-04-25T18:02:27Z</time></trkpt><trkpt lat="59.0688943863" lon="29.9943065643"><time>2026-04-25T18:02:29Z</time></trkpt><trkpt lat="59.0688943863" lon="29.9942636490"><time>2026-04-25T18:02:32Z</time></trkpt><trkpt lat="59.0688943863" lon="29.9942636490"><time>2026-04-25T18:02:34Z</time></trkpt><trkpt lat="59.0688943863" lon="29.9941992760"><time>2026-04-25T18:02:37Z</time></trkpt><trkpt lat="59.0689158440" lon="29.9941349030"><time>2026-04-25T18:02:39Z</time></trkpt><trkpt lat="59.0689373016" lon="29.9940919876"><time>2026-04-25T18:02:42Z</time></trkpt><trkpt lat="59.0689373016" lon="29.9940490723"><time>2026-04-25T18:02:44Z</time></trkpt><trkpt lat="59.0689373016" lon="29.9940490723"><time>2026-04-25T18:02:47Z</time></trkpt><trkpt lat="59.0689373016" lon="29.9940490723"><time>2026-04-25T18:02:49Z</time></trkpt><trkpt lat="59.0689373016" lon="29.9940490723"><time>2026-04-25T18:02:52Z</time></trkpt><trkpt lat="59.0689373016" lon="29.9940490723"><time>2026-04-25T18:02:54Z</time></trkpt><trkpt lat="59.0689373016" lon="29.9940490723"><time>2026-04-25T18:02:57Z</time></trkpt><trkpt lat="59.0689373016" lon="29.9940490723"><time>2026-04-25T18:02:59Z</time></trkpt><trkpt lat="59.0689373016" lon="29.9940490723"><time>2026-04-25T18:03:02Z</time></trkpt><trkpt lat="59.0689373016" lon="29.9940490723"><time>2026-04-25T18:03:04Z</time></trkpt><trkpt lat="59.0689373016" lon="29.9940490723"><time>2026-04-25T18:03:07Z</time></trkpt><trkpt lat="59.0689373016" lon="29.9940490723"><time>2026-04-25T18:03:09Z</time></trkpt><trkpt lat="59.0689373016" lon="29.9940490723"><time>2026-04-25T18:03:12Z</time></trkpt><trkpt lat="59.0689373016" lon="29.9940490723"><time>2026-04-25T18:03:14Z</time></trkpt><trkpt lat="59.0689373016" lon="29.9940490723"><time>2026-04-25T18:03:17Z</time></trkpt><trkpt lat="59.0689373016" lon="29.9940490723"><time>2026-04-25T18:03:19Z</time></trkpt><trkpt lat="59.0689373016" lon="29.9940490723"><time>2026-04-25T18:03:22Z</time></trkpt><trkpt lat="59.0689373016" lon="29.9940490723"><time>2026-04-25T18:03:24Z</time></trkpt><trkpt lat="59.0689587593" lon="29.9940276146"><time>2026-04-25T18:03:27Z</time></trkpt><trkpt lat="59.0689587593" lon="29.9940276146"><time>2026-04-25T18:03:29Z</time></trkpt><trkpt lat="59.0689587593" lon="29.9940276146"><time>2026-04-25T18:03:32Z</time></trkpt><trkpt lat="59.0689587593" lon="29.9940276146"><time>2026-04-25T18:03:34Z</time></trkpt><trkpt lat="59.0689587593" lon="29.9940276146"><time>2026-04-25T18:03:37Z</time></trkpt><trkpt lat="59.0689587593" lon="29.9940276146"><time>2026-04-25T18:03:39Z</time></trkpt><trkpt lat="59.0689373016" lon="29.9940705299"><time>2026-04-25T18:03:42Z</time></trkpt><trkpt lat="59.0688943863" lon="29.9941134453"><time>2026-04-25T18:03:44Z</time></trkpt><trkpt lat="59.0688729286" lon="29.9941134453"><time>2026-04-25T18:03:47Z</time></trkpt><trkpt lat="59.0688729286" lon="29.9940490723"><time>2026-04-25T18:03:49Z</time></trkpt><trkpt lat="59.0688729286" lon="29.9940490723"><time>2026-04-25T18:03:52Z</time></trkpt><trkpt lat="59.0688729286" lon="29.9940276146"><time>2026-04-25T18:03:54Z</time></trkpt><trkpt lat="59.0688729286" lon="29.9940061569"><time>2026-04-25T18:03:57Z</time></trkpt><trkpt lat="59.0688729286" lon="29.9939417839"><time>2026-04-25T18:03:59Z</time></trkpt><trkpt lat="59.0688729286" lon="29.9939203262"><time>2026-04-25T18:04:02Z</time></trkpt><trkpt lat="59.0688729286" lon="29.9938344955"><time>2026-04-25T18:04:04Z</time></trkpt><trkpt lat="59.0688729286" lon="29.9938130379"><time>2026-04-25T18:04:07Z</time></trkpt><trkpt lat="59.0688729286" lon="29.9937701225"><time>2026-04-25T18:04:09Z</time></trkpt><trkpt lat="59.0688514709" lon="29.9937486649"><time>2026-04-25T18:04:12Z</time></trkpt><trkpt lat="59.0688514709" lon="29.9937057495"><time>2026-04-25T18:04:14Z</time></trkpt><trkpt lat="59.0688300133" lon="29.9936628342"><time>2026-04-25T18:04:17Z</time></trkpt><trkpt lat="59.0688514709" lon="29.9936842918"><time>2026-04-25T18:04:19Z</time></trkpt><trkpt lat="59.0688514709" lon="29.9936842918"><time>2026-04-25T18:04:22Z</time></trkpt><trkpt lat="59.0688514709" lon="29.9936842918"><time>2026-04-25T18:04:24Z</time></trkpt><trkpt lat="59.0688514709" lon="29.9936842918"><time>2026-04-25T18:04:27Z</time></trkpt><trkpt lat="59.0688514709" lon="29.9937057495"><time>2026-04-25T18:04:29Z</time></trkpt><trkpt lat="59.0688729286" lon="29.9937272072"><time>2026-04-25T18:04:32Z</time></trkpt><trkpt lat="59.0688729286" lon="29.9937272072"><time>2026-04-25T18:04:34Z</time></trkpt><trkpt lat="59.0688729286" lon="29.9937272072"><time>2026-04-25T18:04:37Z</time></trkpt><trkpt lat="59.0688729286" lon="29.9937272072"><time>2026-04-25T18:04:39Z</time></trkpt><trkpt lat="59.0688729286" lon="29.9937272072"><time>2026-04-25T18:04:42Z</time></trkpt><trkpt lat="59.0688729286" lon="29.9937272072"><time>2026-04-25T18:04:44Z</time></trkpt><trkpt lat="59.0688729286" lon="29.9937272072"><time>2026-04-25T18:04:47Z</time></trkpt><trkpt lat="59.0688729286" lon="29.9937272072"><time>2026-04-25T18:04:49Z</time></trkpt><trkpt lat="59.0688729286" lon="29.9937272072"><time>2026-04-25T18:04:52Z</time></trkpt><trkpt lat="59.0688729286" lon="29.9937272072"><time>2026-04-25T18:04:54Z</time></trkpt><trkpt lat="59.0688729286" lon="29.9937272072"><time>2026-04-25T18:04:57Z</time></trkpt><trkpt lat="59.0688729286" lon="29.9937272072"><time>2026-04-25T18:04:59Z</time></trkpt><trkpt lat="59.0688729286" lon="29.9937272072"><time>2026-04-25T18:05:02Z</time></trkpt><trkpt lat="59.0688729286" lon="29.9937272072"><time>2026-04-25T18:05:04Z</time></trkpt><trkpt lat="59.0688729286" lon="29.9937272072"><time>2026-04-25T18:05:07Z</time></trkpt><trkpt lat="59.0688729286" lon="29.9937272072"><time>2026-04-25T18:05:09Z</time></trkpt><trkpt lat="59.0688729286" lon="29.9937272072"><time>2026-04-25T18:05:12Z</time></trkpt><trkpt lat="59.0688729286" lon="29.9937272072"><time>2026-04-25T18:05:14Z</time></trkpt><trkpt lat="59.0688729286" lon="29.9937272072"><time>2026-04-25T18:05:17Z</time></trkpt><trkpt lat="59.0688729286" lon="29.9937272072"><time>2026-04-25T18:05:19Z</time></trkpt><trkpt lat="59.0688729286" lon="29.9937272072"><time>2026-04-25T18:05:22Z</time></trkpt><trkpt lat="59.0688729286" lon="29.9937272072"><time>2026-04-25T18:05:24Z</time></trkpt><trkpt lat="59.0688729286" lon="29.9937272072"><time>2026-04-25T18:05:27Z</time></trkpt><trkpt lat="59.0688729286" lon="29.9937272072"><time>2026-04-25T18:05:29Z</time></trkpt><trkpt lat="59.0688729286" lon="29.9937272072"><time>2026-04-25T18:05:32Z</time></trkpt><trkpt lat="59.0688729286" lon="29.9937272072"><time>2026-04-25T18:05:34Z</time></trkpt><trkpt lat="59.0688729286" lon="29.9937272072"><time>2026-04-25T18:05:37Z</time></trkpt><trkpt lat="59.0688729286" lon="29.9937057495"><time>2026-04-25T18:05:39Z</time></trkpt><trkpt lat="59.0688514709" lon="29.9936628342"><time>2026-04-25T18:05:42Z</time></trkpt><trkpt lat="59.0688514709" lon="29.9935984612"><time>2026-04-25T18:05:44Z</time></trkpt><trkpt lat="59.0688514709" lon="29.9935770035"><time>2026-04-25T18:05:47Z</time></trkpt><trkpt lat="59.0688300133" lon="29.9935555458"><time>2026-04-25T18:05:49Z</time></trkpt><trkpt lat="59.0688300133" lon="29.9935770035"><time>2026-04-25T18:05:52Z</time></trkpt><trkpt lat="59.0688085556" lon="29.9935340881"><time>2026-04-25T18:05:54Z</time></trkpt><trkpt lat="59.0688085556" lon="29.9934697151"><time>2026-04-25T18:05:57Z</time></trkpt><trkpt lat="59.0688085556" lon="29.9934697151"><time>2026-04-25T18:05:59Z</time></trkpt><trkpt lat="59.0688085556" lon="29.9934697151"><time>2026-04-25T18:06:02Z</time></trkpt><trkpt lat="59.0688085556" lon="29.9934482574"><time>2026-04-25T18:06:04Z</time></trkpt><trkpt lat="59.0688085556" lon="29.9934267998"><time>2026-04-25T18:06:07Z</time></trkpt><trkpt lat="59.0688085556" lon="29.9933624268"><time>2026-04-25T18:06:09Z</time></trkpt><trkpt lat="59.0687870979" lon="29.9933409691"><time>2026-04-25T18:06:12Z</time></trkpt><trkpt lat="59.0687870979" lon="29.9932980537"><time>2026-04-25T18:06:14Z</time></trkpt><trkpt lat="59.0687656403" lon="29.9932980537"><time>2026-04-25T18:06:17Z</time></trkpt><trkpt lat="59.0687656403" lon="29.9932980537"><time>2026-04-25T18:06:19Z</time></trkpt><trkpt lat="59.0687656403" lon="29.9932980537"><time>2026-04-25T18:06:22Z</time></trkpt><trkpt lat="59.0687441826" lon="29.9932336807"><time>2026-04-25T18:06:24Z</time></trkpt><trkpt lat="59.0687441826" lon="29.9932336807"><time>2026-04-25T18:06:27Z</time></trkpt><trkpt lat="59.0687227249" lon="29.9931907654"><time>2026-04-25T18:06:29Z</time></trkpt><trkpt lat="59.0686798096" lon="29.9931693077"><time>2026-04-25T18:06:32Z</time></trkpt><trkpt lat="59.0686798096" lon="29.9931693077"><time>2026-04-25T18:06:34Z</time></trkpt><trkpt lat="59.0686798096" lon="29.9931693077"><time>2026-04-25T18:06:37Z</time></trkpt><trkpt lat="59.0686798096" lon="29.9931478500"><time>2026-04-25T18:06:39Z</time></trkpt><trkpt lat="59.0686798096" lon="29.9931049347"><time>2026-04-25T18:06:42Z</time></trkpt><trkpt lat="59.0686798096" lon="29.9930191040"><time>2026-04-25T18:06:44Z</time></trkpt><trkpt lat="59.0686798096" lon="29.9929976463"><time>2026-04-25T18:06:47Z</time></trkpt><trkpt lat="59.0686583519" lon="29.9929332733"><time>2026-04-25T18:06:49Z</time></trkpt><trkpt lat="59.0686798096" lon="29.9928903580"><time>2026-04-25T18:06:52Z</time></trkpt><trkpt lat="59.0686583519" lon="29.9928259850"><time>2026-04-25T18:06:54Z</time></trkpt><trkpt lat="59.0686583519" lon="29.9928045273"><time>2026-04-25T18:06:57Z</time></trkpt><trkpt lat="59.0686368942" lon="29.9927830696"><time>2026-04-25T18:06:59Z</time></trkpt><trkpt lat="59.0686368942" lon="29.9927830696"><time>2026-04-25T18:07:02Z</time></trkpt><trkpt lat="59.0685939789" lon="29.9927186966"><time>2026-04-25T18:07:04Z</time></trkpt><trkpt lat="59.0685939789" lon="29.9926757813"><time>2026-04-25T18:07:07Z</time></trkpt><trkpt lat="59.0685725212" lon="29.9926114082"><time>2026-04-25T18:07:09Z</time></trkpt><trkpt lat="59.0685510635" lon="29.9925899506"><time>2026-04-25T18:07:12Z</time></trkpt><trkpt lat="59.0685296059" lon="29.9925684929"><time>2026-04-25T18:07:14Z</time></trkpt><trkpt lat="59.0685296059" lon="29.9925684929"><time>2026-04-25T18:07:17Z</time></trkpt><trkpt lat="59.0685081482" lon="29.9925470352"><time>2026-04-25T18:07:19Z</time></trkpt><trkpt lat="59.0685081482" lon="29.9925255775"><time>2026-04-25T18:07:22Z</time></trkpt><trkpt lat="59.0684866905" lon="29.9924826622"><time>2026-04-25T18:07:24Z</time></trkpt><trkpt lat="59.0684866905" lon="29.9924826622"><time>2026-04-25T18:07:27Z</time></trkpt><trkpt lat="59.0684652328" lon="29.9924397469"><time>2026-04-25T18:07:29Z</time></trkpt><trkpt lat="59.0684652328" lon="29.9924397469"><time>2026-04-25T18:07:32Z</time></trkpt><trkpt lat="59.0684652328" lon="29.9924397469"><time>2026-04-25T18:07:34Z</time></trkpt><trkpt lat="59.0684652328" lon="29.9924397469"><time>2026-04-25T18:07:37Z</time></trkpt><trkpt lat="59.0684652328" lon="29.9924397469"><time>2026-04-25T18:07:39Z</time></trkpt><trkpt lat="59.0684652328" lon="29.9924397469"><time>2026-04-25T18:07:42Z</time></trkpt><trkpt lat="59.0684652328" lon="29.9924397469"><time>2026-04-25T18:07:44Z</time></trkpt><trkpt lat="59.0684652328" lon="29.9924397469"><time>2026-04-25T18:07:47Z</time></trkpt><trkpt lat="59.0684652328" lon="29.9924397469"><time>2026-04-25T18:07:49Z</time></trkpt><trkpt lat="59.0684652328" lon="29.9924397469"><time>2026-04-25T18:07:52Z</time></trkpt><trkpt lat="59.0684652328" lon="29.9924397469"><time>2026-04-25T18:07:54Z</time></trkpt><trkpt lat="59.0684652328" lon="29.9924182892"><time>2026-04-25T18:07:57Z</time></trkpt><trkpt lat="59.0684437752" lon="29.9923539162"><time>2026-04-25T18:07:59Z</time></trkpt><trkpt lat="59.0684437752" lon="29.9922895432"><time>2026-04-25T18:08:02Z</time></trkpt><trkpt lat="59.0684223175" lon="29.9922466278"><time>2026-04-25T18:08:04Z</time></trkpt><trkpt lat="59.0684008598" lon="29.9922037125"><time>2026-04-25T18:08:07Z</time></trkpt><trkpt lat="59.0684008598" lon="29.9922037125"><time>2026-04-25T18:08:09Z</time></trkpt><trkpt lat="59.0684008598" lon="29.9921822548"><time>2026-04-25T18:08:12Z</time></trkpt><trkpt lat="59.0684008598" lon="29.9921607971"><time>2026-04-25T18:08:14Z</time></trkpt><trkpt lat="59.0684008598" lon="29.9921607971"><time>2026-04-25T18:08:17Z</time></trkpt><trkpt lat="59.0683794022" lon="29.9921178818"><time>2026-04-25T18:08:19Z</time></trkpt><trkpt lat="59.0683579445" lon="29.9920964241"><time>2026-04-25T18:08:22Z</time></trkpt><trkpt lat="59.0683150291" lon="29.9920320511"><time>2026-04-25T18:08:24Z</time></trkpt><trkpt lat="59.0683150291" lon="29.9920320511"><time>2026-04-25T18:08:27Z</time></trkpt><trkpt lat="59.0682935715" lon="29.9920105934"><time>2026-04-25T18:08:29Z</time></trkpt><trkpt lat="59.0682721138" lon="29.9919891357"><time>2026-04-25T18:08:32Z</time></trkpt><trkpt lat="59.0682506561" lon="29.9919462204"><time>2026-04-25T18:08:34Z</time></trkpt><trkpt lat="59.0682291985" lon="29.9919247627"><time>2026-04-25T18:08:37Z</time></trkpt><trkpt lat="59.0682077408" lon="29.9918818474"><time>2026-04-25T18:08:39Z</time></trkpt><trkpt lat="59.0681862831" lon="29.9918818474"><time>2026-04-25T18:08:42Z</time></trkpt><trkpt lat="59.0681862831" lon="29.9918603897"><time>2026-04-25T18:08:44Z</time></trkpt><trkpt lat="59.0682077408" lon="29.9918603897"><time>2026-04-25T18:08:47Z</time></trkpt><trkpt lat="59.0682077408" lon="29.9918174744"><time>2026-04-25T18:08:49Z</time></trkpt><trkpt lat="59.0681862831" lon="29.9917960167"><time>2026-04-25T18:08:52Z</time></trkpt><trkpt lat="59.0681648254" lon="29.9917531013"><time>2026-04-25T18:08:54Z</time></trkpt><trkpt lat="59.0681433678" lon="29.9917531013"><time>2026-04-25T18:08:57Z</time></trkpt><trkpt lat="59.0681219101" lon="29.9917531013"><time>2026-04-25T18:08:59Z</time></trkpt><trkpt lat="59.0681004524" lon="29.9917531013"><time>2026-04-25T18:09:02Z</time></trkpt><trkpt lat="59.0680575371" lon="29.9917531013"><time>2026-04-25T18:09:04Z</time></trkpt><trkpt lat="59.0680575371" lon="29.9917531013"><time>2026-04-25T18:09:07Z</time></trkpt><trkpt lat="59.0680360794" lon="29.9917745590"><time>2026-04-25T18:09:09Z</time></trkpt><trkpt lat="59.0680146217" lon="29.9917960167"><time>2026-04-25T18:09:12Z</time></trkpt><trkpt lat="59.0679931641" lon="29.9917745590"><time>2026-04-25T18:09:14Z</time></trkpt><trkpt lat="59.0679931641" lon="29.9917745590"><time>2026-04-25T18:09:17Z</time></trkpt><trkpt lat="59.0679931641" lon="29.9917531013"><time>2026-04-25T18:09:19Z</time></trkpt><trkpt lat="59.0679931641" lon="29.9917745590"><time>2026-04-25T18:09:22Z</time></trkpt><trkpt lat="59.0679502487" lon="29.9917745590"><time>2026-04-25T18:09:24Z</time></trkpt><trkpt lat="59.0679287910" lon="29.9917960167"><time>2026-04-25T18:09:27Z</time></trkpt><trkpt lat="59.0679073334" lon="29.9917745590"><time>2026-04-25T18:09:29Z</time></trkpt><trkpt lat="59.0678858757" lon="29.9917745590"><time>2026-04-25T18:09:32Z</time></trkpt><trkpt lat="59.0678858757" lon="29.9917316437"><time>2026-04-25T18:09:34Z</time></trkpt><trkpt lat="59.0678644180" lon="29.9917101860"><time>2026-04-25T18:09:37Z</time></trkpt><trkpt lat="59.0678215027" lon="29.9916672707"><time>2026-04-25T18:09:39Z</time></trkpt><trkpt lat="59.0678215027" lon="29.9916672707"><time>2026-04-25T18:09:42Z</time></trkpt><trkpt lat="59.0677785873" lon="29.9916458130"><time>2026-04-25T18:09:44Z</time></trkpt><trkpt lat="59.0677571297" lon="29.9916458130"><time>2026-04-25T18:09:47Z</time></trkpt><trkpt lat="59.0677356720" lon="29.9916243553"><time>2026-04-25T18:09:49Z</time></trkpt><trkpt lat="59.0677142143" lon="29.9916243553"><time>2026-04-25T18:09:52Z</time></trkpt><trkpt lat="59.0677142143" lon="29.9916243553"><time>2026-04-25T18:09:54Z</time></trkpt><trkpt lat="59.0677142143" lon="29.9916458130"><time>2026-04-25T18:09:57Z</time></trkpt><trkpt lat="59.0677142143" lon="29.9916672707"><time>2026-04-25T18:09:59Z</time></trkpt><trkpt lat="59.0677142143" lon="29.9916672707"><time>2026-04-25T18:10:02Z</time></trkpt><trkpt lat="59.0677142143" lon="29.9916672707"><time>2026-04-25T18:10:04Z</time></trkpt><trkpt lat="59.0677142143" lon="29.9916672707"><time>2026-04-25T18:10:07Z</time></trkpt><trkpt lat="59.0676712990" lon="29.9916887283"><time>2026-04-25T18:10:09Z</time></trkpt><trkpt lat="59.0676712990" lon="29.9916887283"><time>2026-04-25T18:10:12Z</time></trkpt><trkpt lat="59.0676927567" lon="29.9916243553"><time>2026-04-25T18:10:14Z</time></trkpt><trkpt lat="59.0676498413" lon="29.9916028976"><time>2026-04-25T18:10:17Z</time></trkpt><trkpt lat="59.0676069260" lon="29.9916028976"><time>2026-04-25T18:10:19Z</time></trkpt><trkpt lat="59.0675854683" lon="29.9916028976"><time>2026-04-25T18:10:22Z</time></trkpt><trkpt lat="59.0675640106" lon="29.9916028976"><time>2026-04-25T18:10:24Z</time></trkpt><trkpt lat="59.0675640106" lon="29.9916028976"><time>2026-04-25T18:10:27Z</time></trkpt><trkpt lat="59.0675640106" lon="29.9916028976"><time>2026-04-25T18:10:29Z</time></trkpt><trkpt lat="59.0675425529" lon="29.9916243553"><time>2026-04-25T18:10:32Z</time></trkpt><trkpt lat="59.0675210953" lon="29.9916672707"><time>2026-04-25T18:10:34Z</time></trkpt><trkpt lat="59.0674996376" lon="29.9916672707"><time>2026-04-25T18:10:37Z</time></trkpt><trkpt lat="59.0674996376" lon="29.9916672707"><time>2026-04-25T18:10:39Z</time></trkpt><trkpt lat="59.0674996376" lon="29.9916672707"><time>2026-04-25T18:10:42Z</time></trkpt><trkpt lat="59.0674996376" lon="29.9916672707"><time>2026-04-25T18:10:44Z</time></trkpt><trkpt lat="59.0674996376" lon="29.9916672707"><time>2026-04-25T18:10:47Z</time></trkpt><trkpt lat="59.0674996376" lon="29.9916887283"><time>2026-04-25T18:10:49Z</time></trkpt><trkpt lat="59.0674996376" lon="29.9916887283"><time>2026-04-25T18:10:52Z</time></trkpt><trkpt lat="59.0674996376" lon="29.9917101860"><time>2026-04-25T18:10:54Z</time></trkpt><trkpt lat="59.0674781799" lon="29.9917316437"><time>2026-04-25T18:10:57Z</time></trkpt><trkpt lat="59.0674352646" lon="29.9917960167"><time>2026-04-25T18:10:59Z</time></trkpt><trkpt lat="59.0674138069" lon="29.9918174744"><time>2026-04-25T18:11:02Z</time></trkpt><trkpt lat="59.0673923492" lon="29.9918818474"><time>2026-04-25T18:11:04Z</time></trkpt><trkpt lat="59.0673708916" lon="29.9919033051"><time>2026-04-25T18:11:07Z</time></trkpt><trkpt lat="59.0673708916" lon="29.9919462204"><time>2026-04-25T18:11:09Z</time></trkpt><trkpt lat="59.0673708916" lon="29.9919462204"><time>2026-04-25T18:11:12Z</time></trkpt><trkpt lat="59.0673708916" lon="29.9919676781"><time>2026-04-25T18:11:14Z</time></trkpt><trkpt lat="59.0673708916" lon="29.9919676781"><time>2026-04-25T18:11:17Z</time></trkpt><trkpt lat="59.0673494339" lon="29.9919676781"><time>2026-04-25T18:11:19Z</time></trkpt><trkpt lat="59.0673279762" lon="29.9919676781"><time>2026-04-25T18:11:22Z</time></trkpt><trkpt lat="59.0672850609" lon="29.9919462204"><time>2026-04-25T18:11:24Z</time></trkpt><trkpt lat="59.0672636032" lon="29.9919462204"><time>2026-04-25T18:11:27Z</time></trkpt><trkpt lat="59.0672421455" lon="29.9919247627"><time>2026-04-25T18:11:29Z</time></trkpt><trkpt lat="59.0672206879" lon="29.9919033051"><time>2026-04-25T18:11:32Z</time></trkpt><trkpt lat="59.0672206879" lon="29.9918603897"><time>2026-04-25T18:11:34Z</time></trkpt><trkpt lat="59.0671992302" lon="29.9918603897"><time>2026-04-25T18:11:37Z</time></trkpt><trkpt lat="59.0671777725" lon="29.9918174744"><time>2026-04-25T18:11:39Z</time></trkpt><trkpt lat="59.0671777725" lon="29.9917960167"><time>2026-04-25T18:11:42Z</time></trkpt><trkpt lat="59.0671777725" lon="29.9917745590"><time>2026-04-25T18:11:44Z</time></trkpt><trkpt lat="59.0671563148" lon="29.9917745590"><time>2026-04-25T18:11:47Z</time></trkpt><trkpt lat="59.0671348572" lon="29.9917316437"><time>2026-04-25T18:11:49Z</time></trkpt><trkpt lat="59.0671133995" lon="29.9916887283"><time>2026-04-25T18:11:52Z</time></trkpt><trkpt lat="59.0670919418" lon="29.9916672707"><time>2026-04-25T18:11:54Z</time></trkpt><trkpt lat="59.0670919418" lon="29.9916672707"><time>2026-04-25T18:11:57Z</time></trkpt><trkpt lat="59.0670704842" lon="29.9916458130"><time>2026-04-25T18:11:59Z</time></trkpt><trkpt lat="59.0670704842" lon="29.9916458130"><time>2026-04-25T18:12:02Z</time></trkpt><trkpt lat="59.0670704842" lon="29.9916458130"><time>2026-04-25T18:12:04Z</time></trkpt><trkpt lat="59.0670490265" lon="29.9916458130"><time>2026-04-25T18:12:07Z</time></trkpt><trkpt lat="59.0670061111" lon="29.9916243553"><time>2026-04-25T18:12:09Z</time></trkpt><trkpt lat="59.0670061111" lon="29.9916028976"><time>2026-04-25T18:12:12Z</time></trkpt><trkpt lat="59.0669846535" lon="29.9916028976"><time>2026-04-25T18:12:14Z</time></trkpt><trkpt lat="59.0669846535" lon="29.9916028976"><time>2026-04-25T18:12:17Z</time></trkpt><trkpt lat="59.0669417381" lon="29.9915814400"><time>2026-04-25T18:12:19Z</time></trkpt><trkpt lat="59.0669417381" lon="29.9915599823"><time>2026-04-25T18:12:22Z</time></trkpt><trkpt lat="59.0669202805" lon="29.9915599823"><time>2026-04-25T18:12:24Z</time></trkpt><trkpt lat="59.0669202805" lon="29.9915599823"><time>2026-04-25T18:12:27Z</time></trkpt><trkpt lat="59.0668988228" lon="29.9915170670"><time>2026-04-25T18:12:29Z</time></trkpt><trkpt lat="59.0668988228" lon="29.9914956093"><time>2026-04-25T18:12:32Z</time></trkpt><trkpt lat="59.0668773651" lon="29.9914312363"><time>2026-04-25T18:12:34Z</time></trkpt><trkpt lat="59.0668773651" lon="29.9914097786"><time>2026-04-25T18:12:37Z</time></trkpt><trkpt lat="59.0668344498" lon="29.9913668633"><time>2026-04-25T18:12:39Z</time></trkpt><trkpt lat="59.0668129921" lon="29.9913239479"><time>2026-04-25T18:12:42Z</time></trkpt><trkpt lat="59.0667700768" lon="29.9912810326"><time>2026-04-25T18:12:44Z</time></trkpt><trkpt lat="59.0667486191" lon="29.9912381172"><time>2026-04-25T18:12:47Z</time></trkpt><trkpt lat="59.0667271614" lon="29.9912381172"><time>2026-04-25T18:12:49Z</time></trkpt><trkpt lat="59.0667271614" lon="29.9911952019"><time>2026-04-25T18:12:52Z</time></trkpt><trkpt lat="59.0667057037" lon="29.9910879135"><time>2026-04-25T18:12:54Z</time></trkpt><trkpt lat="59.0667057037" lon="29.9910449982"><time>2026-04-25T18:12:57Z</time></trkpt><trkpt lat="59.0667057037" lon="29.9909377098"><time>2026-04-25T18:12:59Z</time></trkpt><trkpt lat="59.0666842461" lon="29.9908518791"><time>2026-04-25T18:13:02Z</time></trkpt><trkpt lat="59.0666627884" lon="29.9908733368"><time>2026-04-25T18:13:04Z</time></trkpt><trkpt lat="59.0666413307" lon="29.9908518791"><time>2026-04-25T18:13:07Z</time></trkpt><trkpt lat="59.0666198730" lon="29.9908304214"><time>2026-04-25T18:13:09Z</time></trkpt><trkpt lat="59.0666198730" lon="29.9908089638"><time>2026-04-25T18:13:12Z</time></trkpt><trkpt lat="59.0666198730" lon="29.9908089638"><time>2026-04-25T18:13:14Z</time></trkpt><trkpt lat="59.0666198730" lon="29.9908089638"><time>2026-04-25T18:13:17Z</time></trkpt><trkpt lat="59.0666198730" lon="29.9907875061"><time>2026-04-25T18:13:19Z</time></trkpt><trkpt lat="59.0666198730" lon="29.9907660484"><time>2026-04-25T18:13:22Z</time></trkpt><trkpt lat="59.0666198730" lon="29.9907231331"><time>2026-04-25T18:13:24Z</time></trkpt><trkpt lat="59.0666198730" lon="29.9906802177"><time>2026-04-25T18:13:27Z</time></trkpt><trkpt lat="59.0666198730" lon="29.9906373024"><time>2026-04-25T18:13:29Z</time></trkpt><trkpt lat="59.0666413307" lon="29.9905943871"><time>2026-04-25T18:13:32Z</time></trkpt><trkpt lat="59.0666413307" lon="29.9905514717"><time>2026-04-25T18:13:34Z</time></trkpt><trkpt lat="59.0666413307" lon="29.9905514717"><time>2026-04-25T18:13:37Z</time></trkpt><trkpt lat="59.0666413307" lon="29.9905514717"><time>2026-04-25T18:13:39Z</time></trkpt><trkpt lat="59.0666413307" lon="29.9905514717"><time>2026-04-25T18:13:42Z</time></trkpt><trkpt lat="59.0666413307" lon="29.9905514717"><time>2026-04-25T18:13:44Z</time></trkpt><trkpt lat="59.0666198730" lon="29.9905085564"><time>2026-04-25T18:13:47Z</time></trkpt><trkpt lat="59.0665984154" lon="29.9904656410"><time>2026-04-25T18:13:49Z</time></trkpt><trkpt lat="59.0665769577" lon="29.9904441833"><time>2026-04-25T18:13:52Z</time></trkpt><trkpt lat="59.0665340424" lon="29.9904227257"><time>2026-04-25T18:13:54Z</time></trkpt><trkpt lat="59.0665125847" lon="29.9904012680"><time>2026-04-25T18:13:57Z</time></trkpt><trkpt lat="59.0664911270" lon="29.9903798103"><time>2026-04-25T18:13:59Z</time></trkpt><trkpt lat="59.0664696693" lon="29.9903583527"><time>2026-04-25T18:14:02Z</time></trkpt><trkpt lat="59.0664482117" lon="29.9903583527"><time>2026-04-25T18:14:04Z</time></trkpt><trkpt lat="59.0664482117" lon="29.9903154373"><time>2026-04-25T18:14:07Z</time></trkpt><trkpt lat="59.0664267540" lon="29.9902939796"><time>2026-04-25T18:14:09Z</time></trkpt><trkpt lat="59.0664052963" lon="29.9902510643"><time>2026-04-25T18:14:12Z</time></trkpt><trkpt lat="59.0663838387" lon="29.9902296066"><time>2026-04-25T18:14:14Z</time></trkpt><trkpt lat="59.0663623810" lon="29.9901866913"><time>2026-04-25T18:14:17Z</time></trkpt><trkpt lat="59.0663409233" lon="29.9901437759"><time>2026-04-25T18:14:19Z</time></trkpt><trkpt lat="59.0663409233" lon="29.9901223183"><time>2026-04-25T18:14:22Z</time></trkpt><trkpt lat="59.0663409233" lon="29.9901008606"><time>2026-04-25T18:14:24Z</time></trkpt><trkpt lat="59.0663409233" lon="29.9900794029"><time>2026-04-25T18:14:27Z</time></trkpt><trkpt lat="59.0663194656" lon="29.9901008606"><time>2026-04-25T18:14:29Z</time></trkpt><trkpt lat="59.0662980080" lon="29.9900579453"><time>2026-04-25T18:14:32Z</time></trkpt><trkpt lat="59.0662980080" lon="29.9900150299"><time>2026-04-25T18:14:34Z</time></trkpt><trkpt lat="59.0662765503" lon="29.9900150299"><time>2026-04-25T18:14:37Z</time></trkpt><trkpt lat="59.0662336349" lon="29.9900579453"><time>2026-04-25T18:14:39Z</time></trkpt><trkpt lat="59.0662121773" lon="29.9900579453"><time>2026-04-25T18:14:42Z</time></trkpt><trkpt lat="59.0661907196" lon="29.9901008606"><time>2026-04-25T18:14:44Z</time></trkpt><trkpt lat="59.0661692619" lon="29.9901223183"><time>2026-04-25T18:14:47Z</time></trkpt><trkpt lat="59.0661263466" lon="29.9901437759"><time>2026-04-25T18:14:49Z</time></trkpt><trkpt lat="59.0661048889" lon="29.9901437759"><time>2026-04-25T18:14:52Z</time></trkpt><trkpt lat="59.0660834312" lon="29.9901008606"><time>2026-04-25T18:14:54Z</time></trkpt><trkpt lat="59.0660834312" lon="29.9900794029"><time>2026-04-25T18:14:57Z</time></trkpt><trkpt lat="59.0660619736" lon="29.9900579453"><time>2026-04-25T18:14:59Z</time></trkpt><trkpt lat="59.0660619736" lon="29.9900150299"><time>2026-04-25T18:15:02Z</time></trkpt><trkpt lat="59.0660619736" lon="29.9899935722"><time>2026-04-25T18:15:04Z</time></trkpt><trkpt lat="59.0660619736" lon="29.9899935722"><time>2026-04-25T18:15:07Z</time></trkpt><trkpt lat="59.0660834312" lon="29.9899506569"><time>2026-04-25T18:15:09Z</time></trkpt><trkpt lat="59.0660619736" lon="29.9899077415"><time>2026-04-25T18:15:12Z</time></trkpt><trkpt lat="59.0660405159" lon="29.9898433685"><time>2026-04-25T18:15:14Z</time></trkpt><trkpt lat="59.0660405159" lon="29.9898433685"><time>2026-04-25T18:15:17Z</time></trkpt><trkpt lat="59.0660405159" lon="29.9898004532"><time>2026-04-25T18:15:19Z</time></trkpt><trkpt lat="59.0660190582" lon="29.9898004532"><time>2026-04-25T18:15:22Z</time></trkpt><trkpt lat="59.0660190582" lon="29.9897360802"><time>2026-04-25T18:15:24Z</time></trkpt><trkpt lat="59.0660190582" lon="29.9896931648"><time>2026-04-25T18:15:27Z</time></trkpt><trkpt lat="59.0660190582" lon="29.9896502495"><time>2026-04-25T18:15:29Z</time></trkpt><trkpt lat="59.0660190582" lon="29.9896502495"><time>2026-04-25T18:15:32Z</time></trkpt><trkpt lat="59.0659976006" lon="29.9896073341"><time>2026-04-25T18:15:34Z</time></trkpt><trkpt lat="59.0659976006" lon="29.9896073341"><time>2026-04-25T18:15:37Z</time></trkpt><trkpt lat="59.0659976006" lon="29.9896073341"><time>2026-04-25T18:15:39Z</time></trkpt><trkpt lat="59.0660190582" lon="29.9896073341"><time>2026-04-25T18:15:42Z</time></trkpt><trkpt lat="59.0660190582" lon="29.9896073341"><time>2026-04-25T18:15:44Z</time></trkpt><trkpt lat="59.0660190582" lon="29.9895215034"><time>2026-04-25T18:15:47Z</time></trkpt><trkpt lat="59.0659761429" lon="29.9894785881"><time>2026-04-25T18:15:49Z</time></trkpt><trkpt lat="59.0659546852" lon="29.9894142151"><time>2026-04-25T18:15:52Z</time></trkpt><trkpt lat="59.0659332275" lon="29.9893927574"><time>2026-04-25T18:15:54Z</time></trkpt><trkpt lat="59.0659332275" lon="29.9893927574"><time>2026-04-25T18:15:57Z</time></trkpt><trkpt lat="59.0659332275" lon="29.9893712997"><time>2026-04-25T18:15:59Z</time></trkpt><trkpt lat="59.0659117699" lon="29.9893498421"><time>2026-04-25T18:16:02Z</time></trkpt><trkpt lat="59.0659117699" lon="29.9893498421"><time>2026-04-25T18:16:04Z</time></trkpt><trkpt lat="59.0658903122" lon="29.9893283844"><time>2026-04-25T18:16:07Z</time></trkpt><trkpt lat="59.0658903122" lon="29.9892854691"><time>2026-04-25T18:16:09Z</time></trkpt><trkpt lat="59.0658903122" lon="29.9892425537"><time>2026-04-25T18:16:12Z</time></trkpt><trkpt lat="59.0658688545" lon="29.9892425537"><time>2026-04-25T18:16:14Z</time></trkpt><trkpt lat="59.0658473969" lon="29.9892210960"><time>2026-04-25T18:16:17Z</time></trkpt><trkpt lat="59.0658473969" lon="29.9892210960"><time>2026-04-25T18:16:19Z</time></trkpt><trkpt lat="59.0658473969" lon="29.9891996384"><time>2026-04-25T18:16:22Z</time></trkpt><trkpt lat="59.0658473969" lon="29.9891996384"><time>2026-04-25T18:16:24Z</time></trkpt><trkpt lat="59.0658688545" lon="29.9891996384"><time>2026-04-25T18:16:27Z</time></trkpt><trkpt lat="59.0658688545" lon="29.9891567230"><time>2026-04-25T18:16:29Z</time></trkpt><trkpt lat="59.0658688545" lon="29.9891138077"><time>2026-04-25T18:16:32Z</time></trkpt><trkpt lat="59.0658688545" lon="29.9890708923"><time>2026-04-25T18:16:34Z</time></trkpt><trkpt lat="59.0658903122" lon="29.9890065193"><time>2026-04-25T18:16:37Z</time></trkpt><trkpt lat="59.0659117699" lon="29.9889850616"><time>2026-04-25T18:16:39Z</time></trkpt><trkpt lat="59.0659117699" lon="29.9889206886"><time>2026-04-25T18:16:42Z</time></trkpt><trkpt lat="59.0659117699" lon="29.9889206886"><time>2026-04-25T18:16:44Z</time></trkpt><trkpt lat="59.0659332275" lon="29.9888777733"><time>2026-04-25T18:16:47Z</time></trkpt><trkpt lat="59.0659332275" lon="29.9888348579"><time>2026-04-25T18:16:49Z</time></trkpt><trkpt lat="59.0659332275" lon="29.9888348579"><time>2026-04-25T18:16:52Z</time></trkpt><trkpt lat="59.0659332275" lon="29.9888134003"><time>2026-04-25T18:16:54Z</time></trkpt><trkpt lat="59.0659332275" lon="29.9888134003"><time>2026-04-25T18:16:57Z</time></trkpt><trkpt lat="59.0659332275" lon="29.9888134003"><time>2026-04-25T18:16:59Z</time></trkpt><trkpt lat="59.0659332275" lon="29.9888134003"><time>2026-04-25T18:17:02Z</time></trkpt><trkpt lat="59.0659332275" lon="29.9888134003"><time>2026-04-25T18:17:04Z</time></trkpt><trkpt lat="59.0659332275" lon="29.9888134003"><time>2026-04-25T18:17:07Z</time></trkpt><trkpt lat="59.0659332275" lon="29.9888134003"><time>2026-04-25T18:17:09Z</time></trkpt><trkpt lat="59.0659332275" lon="29.9888134003"><time>2026-04-25T18:17:12Z</time></trkpt><trkpt lat="59.0659332275" lon="29.9888134003"><time>2026-04-25T18:17:14Z</time></trkpt><trkpt lat="59.0659332275" lon="29.9888134003"><time>2026-04-25T18:17:17Z</time></trkpt><trkpt lat="59.0659546852" lon="29.9888134003"><time>2026-04-25T18:17:19Z</time></trkpt><trkpt lat="59.0659761429" lon="29.9887704849"><time>2026-04-25T18:17:22Z</time></trkpt><trkpt lat="59.0659761429" lon="29.9887704849"><time>2026-04-25T18:17:24Z</time></trkpt><trkpt lat="59.0659761429" lon="29.9887704849"><time>2026-04-25T18:17:27Z</time></trkpt><trkpt lat="59.0659761429" lon="29.9887275696"><time>2026-04-25T18:17:29Z</time></trkpt><trkpt lat="59.0659761429" lon="29.9887275696"><time>2026-04-25T18:17:32Z</time></trkpt><trkpt lat="59.0659761429" lon="29.9887061119"><time>2026-04-25T18:17:34Z</time></trkpt><trkpt lat="59.0659976006" lon="29.9886417389"><time>2026-04-25T18:17:37Z</time></trkpt><trkpt lat="59.0659976006" lon="29.9885988235"><time>2026-04-25T18:17:39Z</time></trkpt><trkpt lat="59.0660190582" lon="29.9885773659"><time>2026-04-25T18:17:42Z</time></trkpt><trkpt lat="59.0660190582" lon="29.9885773659"><time>2026-04-25T18:17:44Z</time></trkpt><trkpt lat="59.0660190582" lon="29.9885773659"><time>2026-04-25T18:17:47Z</time></trkpt><trkpt lat="59.0660190582" lon="29.9885773659"><time>2026-04-25T18:17:49Z</time></trkpt><trkpt lat="59.0660190582" lon="29.9885773659"><time>2026-04-25T18:17:52Z</time></trkpt><trkpt lat="59.0660190582" lon="29.9885129929"><time>2026-04-25T18:17:54Z</time></trkpt><trkpt lat="59.0660190582" lon="29.9884700775"><time>2026-04-25T18:17:57Z</time></trkpt><trkpt lat="59.0660190582" lon="29.9884486198"><time>2026-04-25T18:17:59Z</time></trkpt><trkpt lat="59.0659976006" lon="29.9884271622"><time>2026-04-25T18:18:02Z</time></trkpt><trkpt lat="59.0659976006" lon="29.9884057045"><time>2026-04-25T18:18:04Z</time></trkpt><trkpt lat="59.0659761429" lon="29.9883842468"><time>2026-04-25T18:18:07Z</time></trkpt><trkpt lat="59.0659761429" lon="29.9883413315"><time>2026-04-25T18:18:09Z</time></trkpt><trkpt lat="59.0659761429" lon="29.9883198738"><time>2026-04-25T18:18:12Z</time></trkpt><trkpt lat="59.0659546852" lon="29.9882984161"><time>2026-04-25T18:18:14Z</time></trkpt><trkpt lat="59.0659546852" lon="29.9882984161"><time>2026-04-25T18:18:17Z</time></trkpt><trkpt lat="59.0659332275" lon="29.9882769585"><time>2026-04-25T18:18:19Z</time></trkpt><trkpt lat="59.0659117699" lon="29.9882769585"><time>2026-04-25T18:18:22Z</time></trkpt><trkpt lat="59.0658903122" lon="29.9882769585"><time>2026-04-25T18:18:24Z</time></trkpt><trkpt lat="59.0658903122" lon="29.9882555008"><time>2026-04-25T18:18:27Z</time></trkpt><trkpt lat="59.0658688545" lon="29.9882125854"><time>2026-04-25T18:18:29Z</time></trkpt><trkpt lat="59.0658473969" lon="29.9881911278"><time>2026-04-25T18:18:32Z</time></trkpt><trkpt lat="59.0658473969" lon="29.9881482124"><time>2026-04-25T18:18:34Z</time></trkpt><trkpt lat="59.0658259392" lon="29.9881482124"><time>2026-04-25T18:18:37Z</time></trkpt><trkpt lat="59.0658259392" lon="29.9881482124"><time>2026-04-25T18:18:39Z</time></trkpt><trkpt lat="59.0658259392" lon="29.9881482124"><time>2026-04-25T18:18:42Z</time></trkpt><trkpt lat="59.0658259392" lon="29.9881482124"><time>2026-04-25T18:18:44Z</time></trkpt><trkpt lat="59.0658259392" lon="29.9881482124"><time>2026-04-25T18:18:47Z</time></trkpt><trkpt lat="59.0658259392" lon="29.9881482124"><time>2026-04-25T18:18:49Z</time></trkpt><trkpt lat="59.0658259392" lon="29.9881482124"><time>2026-04-25T18:18:52Z</time></trkpt><trkpt lat="59.0658259392" lon="29.9881482124"><time>2026-04-25T18:18:54Z</time></trkpt><trkpt lat="59.0658259392" lon="29.9881482124"><time>2026-04-25T18:18:57Z</time></trkpt><trkpt lat="59.0658259392" lon="29.9881482124"><time>2026-04-25T18:18:59Z</time></trkpt><trkpt lat="59.0658259392" lon="29.9881482124"><time>2026-04-25T18:19:02Z</time></trkpt><trkpt lat="59.0658259392" lon="29.9881482124"><time>2026-04-25T18:19:04Z</time></trkpt><trkpt lat="59.0658259392" lon="29.9881482124"><time>2026-04-25T18:19:07Z</time></trkpt><trkpt lat="59.0658259392" lon="29.9881482124"><time>2026-04-25T18:19:09Z</time></trkpt><trkpt lat="59.0658259392" lon="29.9881267548"><time>2026-04-25T18:19:12Z</time></trkpt><trkpt lat="59.0658044815" lon="29.9880838394"><time>2026-04-25T18:19:14Z</time></trkpt><trkpt lat="59.0657830238" lon="29.9880409241"><time>2026-04-25T18:19:17Z</time></trkpt><trkpt lat="59.0657615662" lon="29.9880623817"><time>2026-04-25T18:19:19Z</time></trkpt><trkpt lat="59.0657615662" lon="29.9880623817"><time>2026-04-25T18:19:22Z</time></trkpt><trkpt lat="59.0657401085" lon="29.9880623817"><time>2026-04-25T18:19:24Z</time></trkpt><trkpt lat="59.0657186508" lon="29.9880838394"><time>2026-04-25T18:19:27Z</time></trkpt><trkpt lat="59.0656757355" lon="29.9881052971"><time>2026-04-25T18:19:29Z</time></trkpt><trkpt lat="59.0656757355" lon="29.9881052971"><time>2026-04-25T18:19:32Z</time></trkpt><trkpt lat="59.0656328201" lon="29.9881052971"><time>2026-04-25T18:19:34Z</time></trkpt><trkpt lat="59.0656328201" lon="29.9880838394"><time>2026-04-25T18:19:37Z</time></trkpt><trkpt lat="59.0656113625" lon="29.9880623817"><time>2026-04-25T18:19:39Z</time></trkpt><trkpt lat="59.0655899048" lon="29.9880623817"><time>2026-04-25T18:19:42Z</time></trkpt><trkpt lat="59.0655684471" lon="29.9879980087"><time>2026-04-25T18:19:44Z</time></trkpt><trkpt lat="59.0655684471" lon="29.9879550934"><time>2026-04-25T18:19:47Z</time></trkpt><trkpt lat="59.0655684471" lon="29.9879336357"><time>2026-04-25T18:19:49Z</time></trkpt><trkpt lat="59.0655684471" lon="29.9879121780"><time>2026-04-25T18:19:52Z</time></trkpt><trkpt lat="59.0655469894" lon="29.9879121780"><time>2026-04-25T18:19:54Z</time></trkpt><trkpt lat="59.0655469894" lon="29.9879121780"><time>2026-04-25T18:19:57Z</time></trkpt><trkpt lat="59.0655255318" lon="29.9878907204"><time>2026-04-25T18:19:59Z</time></trkpt><trkpt lat="59.0655255318" lon="29.9878907204"><time>2026-04-25T18:20:02Z</time></trkpt><trkpt lat="59.0655255318" lon="29.9879121780"><time>2026-04-25T18:20:04Z</time></trkpt><trkpt lat="59.0655255318" lon="29.9879121780"><time>2026-04-25T18:20:07Z</time></trkpt><trkpt lat="59.0655255318" lon="29.9879336357"><time>2026-04-25T18:20:09Z</time></trkpt><trkpt lat="59.0655255318" lon="29.9879550934"><time>2026-04-25T18:20:12Z</time></trkpt><trkpt lat="59.0655255318" lon="29.9879550934"><time>2026-04-25T18:20:14Z</time></trkpt><trkpt lat="59.0655255318" lon="29.9879980087"><time>2026-04-25T18:20:17Z</time></trkpt><trkpt lat="59.0655255318" lon="29.9880194664"><time>2026-04-25T18:20:19Z</time></trkpt><trkpt lat="59.0655255318" lon="29.9880409241"><time>2026-04-25T18:20:22Z</time></trkpt><trkpt lat="59.0655040741" lon="29.9880409241"><time>2026-04-25T18:20:24Z</time></trkpt><trkpt lat="59.0655040741" lon="29.9880409241"><time>2026-04-25T18:20:27Z</time></trkpt><trkpt lat="59.0655040741" lon="29.9880409241"><time>2026-04-25T18:20:29Z</time></trkpt><trkpt lat="59.0655040741" lon="29.9880409241"><time>2026-04-25T18:20:32Z</time></trkpt><trkpt lat="59.0655040741" lon="29.9880409241"><time>2026-04-25T18:20:34Z</time></trkpt><trkpt lat="59.0655040741" lon="29.9880409241"><time>2026-04-25T18:20:37Z</time></trkpt><trkpt lat="59.0655040741" lon="29.9880409241"><time>2026-04-25T18:20:39Z</time></trkpt><trkpt lat="59.0655040741" lon="29.9880409241"><time>2026-04-25T18:20:42Z</time></trkpt><trkpt lat="59.0655040741" lon="29.9880623817"><time>2026-04-25T18:20:44Z</time></trkpt><trkpt lat="59.0654826164" lon="29.9880623817"><time>2026-04-25T18:20:47Z</time></trkpt><trkpt lat="59.0654826164" lon="29.9880623817"><time>2026-04-25T18:20:49Z</time></trkpt><trkpt lat="59.0654826164" lon="29.9880623817"><time>2026-04-25T18:20:52Z</time></trkpt><trkpt lat="59.0654611588" lon="29.9880623817"><time>2026-04-25T18:20:54Z</time></trkpt><trkpt lat="59.0654611588" lon="29.9880623817"><time>2026-04-25T18:20:57Z</time></trkpt><trkpt lat="59.0654397011" lon="29.9880409241"><time>2026-04-25T18:20:59Z</time></trkpt><trkpt lat="59.0654397011" lon="29.9880194664"><time>2026-04-25T18:21:02Z</time></trkpt><trkpt lat="59.0654397011" lon="29.9879980087"><time>2026-04-25T18:21:04Z</time></trkpt><trkpt lat="59.0654397011" lon="29.9879980087"><time>2026-04-25T18:21:07Z</time></trkpt><trkpt lat="59.0654182434" lon="29.9880194664"><time>2026-04-25T18:21:09Z</time></trkpt><trkpt lat="59.0653967857" lon="29.9880194664"><time>2026-04-25T18:21:12Z</time></trkpt><trkpt lat="59.0653753281" lon="29.9880409241"><time>2026-04-25T18:21:14Z</time></trkpt><trkpt lat="59.0653753281" lon="29.9880409241"><time>2026-04-25T18:21:17Z</time></trkpt><trkpt lat="59.0653753281" lon="29.9880623817"><time>2026-04-25T18:21:19Z</time></trkpt><trkpt lat="59.0653753281" lon="29.9880623817"><time>2026-04-25T18:21:22Z</time></trkpt><trkpt lat="59.0653324127" lon="29.9880623817"><time>2026-04-25T18:21:24Z</time></trkpt><trkpt lat="59.0653324127" lon="29.9880838394"><time>2026-04-25T18:21:27Z</time></trkpt><trkpt lat="59.0653324127" lon="29.9881052971"><time>2026-04-25T18:21:29Z</time></trkpt><trkpt lat="59.0653109550" lon="29.9881052971"><time>2026-04-25T18:21:32Z</time></trkpt><trkpt lat="59.0653109550" lon="29.9881267548"><time>2026-04-25T18:21:34Z</time></trkpt><trkpt lat="59.0652894974" lon="29.9881482124"><time>2026-04-25T18:21:37Z</time></trkpt><trkpt lat="59.0652894974" lon="29.9881696701"><time>2026-04-25T18:21:39Z</time></trkpt><trkpt lat="59.0652894974" lon="29.9881696701"><time>2026-04-25T18:21:42Z</time></trkpt><trkpt lat="59.0652894974" lon="29.9881696701"><time>2026-04-25T18:21:44Z</time></trkpt><trkpt lat="59.0652894974" lon="29.9881696701"><time>2026-04-25T18:21:47Z</time></trkpt><trkpt lat="59.0652894974" lon="29.9881696701"><time>2026-04-25T18:21:49Z</time></trkpt><trkpt lat="59.0652894974" lon="29.9881696701"><time>2026-04-25T18:21:52Z</time></trkpt><trkpt lat="59.0652894974" lon="29.9881696701"><time>2026-04-25T18:21:54Z</time></trkpt><trkpt lat="59.0652680397" lon="29.9881482124"><time>2026-04-25T18:21:57Z</time></trkpt><trkpt lat="59.0652465820" lon="29.9881911278"><time>2026-04-25T18:21:59Z</time></trkpt><trkpt lat="59.0652465820" lon="29.9881911278"><time>2026-04-25T18:22:02Z</time></trkpt><trkpt lat="59.0652251244" lon="29.9881696701"><time>2026-04-25T18:22:04Z</time></trkpt><trkpt lat="59.0652251244" lon="29.9881696701"><time>2026-04-25T18:22:07Z</time></trkpt><trkpt lat="59.0652251244" lon="29.9881696701"><time>2026-04-25T18:22:09Z</time></trkpt><trkpt lat="59.0652036667" lon="29.9881482124"><time>2026-04-25T18:22:12Z</time></trkpt><trkpt lat="59.0652036667" lon="29.9881482124"><time>2026-04-25T18:22:14Z</time></trkpt><trkpt lat="59.0652036667" lon="29.9881482124"><time>2026-04-25T18:22:17Z</time></trkpt><trkpt lat="59.0652036667" lon="29.9881482124"><time>2026-04-25T18:22:19Z</time></trkpt><trkpt lat="59.0652036667" lon="29.9881482124"><time>2026-04-25T18:22:22Z</time></trkpt><trkpt lat="59.0651822090" lon="29.9881267548"><time>2026-04-25T18:22:24Z</time></trkpt><trkpt lat="59.0651822090" lon="29.9881052971"><time>2026-04-25T18:22:27Z</time></trkpt><trkpt lat="59.0651822090" lon="29.9881052971"><time>2026-04-25T18:22:29Z</time></trkpt><trkpt lat="59.0651822090" lon="29.9881052971"><time>2026-04-25T18:22:32Z</time></trkpt><trkpt lat="59.0651822090" lon="29.9880838394"><time>2026-04-25T18:22:34Z</time></trkpt><trkpt lat="59.0651822090" lon="29.9880623817"><time>2026-04-25T18:22:37Z</time></trkpt><trkpt lat="59.0651607513" lon="29.9879980087"><time>2026-04-25T18:22:39Z</time></trkpt><trkpt lat="59.0651607513" lon="29.9879765511"><time>2026-04-25T18:22:42Z</time></trkpt><trkpt lat="59.0651607513" lon="29.9879550934"><time>2026-04-25T18:22:44Z</time></trkpt><trkpt lat="59.0651607513" lon="29.9879121780"><time>2026-04-25T18:22:47Z</time></trkpt><trkpt lat="59.0651392937" lon="29.9878907204"><time>2026-04-25T18:22:49Z</time></trkpt><trkpt lat="59.0651607513" lon="29.9878692627"><time>2026-04-25T18:22:52Z</time></trkpt><trkpt lat="59.0651392937" lon="29.9878263474"><time>2026-04-25T18:22:54Z</time></trkpt><trkpt lat="59.0651392937" lon="29.9878263474"><time>2026-04-25T18:22:57Z</time></trkpt><trkpt lat="59.0651607513" lon="29.9877834320"><time>2026-04-25T18:22:59Z</time></trkpt><trkpt lat="59.0651607513" lon="29.9877405167"><time>2026-04-25T18:23:02Z</time></trkpt><trkpt lat="59.0651607513" lon="29.9877190590"><time>2026-04-25T18:23:04Z</time></trkpt><trkpt lat="59.0651392937" lon="29.9876976013"><time>2026-04-25T18:23:07Z</time></trkpt><trkpt lat="59.0651392937" lon="29.9876976013"><time>2026-04-25T18:23:09Z</time></trkpt><trkpt lat="59.0651392937" lon="29.9876761436"><time>2026-04-25T18:23:12Z</time></trkpt><trkpt lat="59.0651392937" lon="29.9876761436"><time>2026-04-25T18:23:14Z</time></trkpt><trkpt lat="59.0651392937" lon="29.9876761436"><time>2026-04-25T18:23:17Z</time></trkpt><trkpt lat="59.0651392937" lon="29.9876761436"><time>2026-04-25T18:23:19Z</time></trkpt><trkpt lat="59.0651392937" lon="29.9876761436"><time>2026-04-25T18:23:22Z</time></trkpt><trkpt lat="59.0651392937" lon="29.9876761436"><time>2026-04-25T18:23:24Z</time></trkpt><trkpt lat="59.0651392937" lon="29.9876761436"><time>2026-04-25T18:23:27Z</time></trkpt><trkpt lat="59.0651178360" lon="29.9876761436"><time>2026-04-25T18:23:29Z</time></trkpt><trkpt lat="59.0651178360" lon="29.9876761436"><time>2026-04-25T18:23:32Z</time></trkpt><trkpt lat="59.0651178360" lon="29.9876761436"><time>2026-04-25T18:23:34Z</time></trkpt><trkpt lat="59.0650963783" lon="29.9876761436"><time>2026-04-25T18:23:37Z</time></trkpt><trkpt lat="59.0650749207" lon="29.9876976013"><time>2026-04-25T18:23:39Z</time></trkpt><trkpt lat="59.0650749207" lon="29.9876976013"><time>2026-04-25T18:23:42Z</time></trkpt><trkpt lat="59.0650534630" lon="29.9876976013"><time>2026-04-25T18:23:44Z</time></trkpt><trkpt lat="59.0650534630" lon="29.9876976013"><time>2026-04-25T18:23:47Z</time></trkpt><trkpt lat="59.0650534630" lon="29.9876976013"><time>2026-04-25T18:23:49Z</time></trkpt><trkpt lat="59.0650534630" lon="29.9876976013"><time>2026-04-25T18:23:52Z</time></trkpt><trkpt lat="59.0650534630" lon="29.9876976013"><time>2026-04-25T18:23:54Z</time></trkpt><trkpt lat="59.0650320053" lon="29.9877190590"><time>2026-04-25T18:23:57Z</time></trkpt><trkpt lat="59.0650320053" lon="29.9877190590"><time>2026-04-25T18:23:59Z</time></trkpt><trkpt lat="59.0650105476" lon="29.9877190590"><time>2026-04-25T18:24:02Z</time></trkpt><trkpt lat="59.0650105476" lon="29.9876976013"><time>2026-04-25T18:24:04Z</time></trkpt><trkpt lat="59.0650105476" lon="29.9876976013"><time>2026-04-25T18:24:07Z</time></trkpt><trkpt lat="59.0649890900" lon="29.9876976013"><time>2026-04-25T18:24:09Z</time></trkpt><trkpt lat="59.0649890900" lon="29.9876976013"><time>2026-04-25T18:24:12Z</time></trkpt><trkpt lat="59.0649890900" lon="29.9876976013"><time>2026-04-25T18:24:14Z</time></trkpt><trkpt lat="59.0649890900" lon="29.9876976013"><time>2026-04-25T18:24:17Z</time></trkpt><trkpt lat="59.0649890900" lon="29.9876976013"><time>2026-04-25T18:24:19Z</time></trkpt><trkpt lat="59.0649890900" lon="29.9876761436"><time>2026-04-25T18:24:22Z</time></trkpt><trkpt lat="59.0649890900" lon="29.9876332283"><time>2026-04-25T18:24:24Z</time></trkpt><trkpt lat="59.0649890900" lon="29.9875903130"><time>2026-04-25T18:24:27Z</time></trkpt><trkpt lat="59.0649890900" lon="29.9875903130"><time>2026-04-25T18:24:29Z</time></trkpt><trkpt lat="59.0649676323" lon="29.9875473976"><time>2026-04-25T18:24:32Z</time></trkpt><trkpt lat="59.0649676323" lon="29.9875044823"><time>2026-04-25T18:24:34Z</time></trkpt><trkpt lat="59.0649461746" lon="29.9874830246"><time>2026-04-25T18:24:37Z</time></trkpt><trkpt lat="59.0649461746" lon="29.9874830246"><time>2026-04-25T18:24:39Z</time></trkpt><trkpt lat="59.0649461746" lon="29.9874830246"><time>2026-04-25T18:24:42Z</time></trkpt><trkpt lat="59.0649247169" lon="29.9874401093"><time>2026-04-25T18:24:44Z</time></trkpt><trkpt lat="59.0649247169" lon="29.9874186516"><time>2026-04-25T18:24:47Z</time></trkpt><trkpt lat="59.0649032593" lon="29.9873757362"><time>2026-04-25T18:24:49Z</time></trkpt><trkpt lat="59.0649032593" lon="29.9873757362"><time>2026-04-25T18:24:52Z</time></trkpt><trkpt lat="59.0649032593" lon="29.9873757362"><time>2026-04-25T18:24:54Z</time></trkpt><trkpt lat="59.0648818016" lon="29.9873757362"><time>2026-04-25T18:24:57Z</time></trkpt><trkpt lat="59.0648603439" lon="29.9873328209"><time>2026-04-25T18:24:59Z</time></trkpt><trkpt lat="59.0648603439" lon="29.9873328209"><time>2026-04-25T18:25:02Z</time></trkpt><trkpt lat="59.0648603439" lon="29.9873113632"><time>2026-04-25T18:25:04Z</time></trkpt><trkpt lat="59.0648388863" lon="29.9872684479"><time>2026-04-25T18:25:07Z</time></trkpt><trkpt lat="59.0648388863" lon="29.9872255325"><time>2026-04-25T18:25:09Z</time></trkpt><trkpt lat="59.0648603439" lon="29.9872255325"><time>2026-04-25T18:25:12Z</time></trkpt><trkpt lat="59.0648603439" lon="29.9871611595"><time>2026-04-25T18:25:14Z</time></trkpt><trkpt lat="59.0648603439" lon="29.9871397018"><time>2026-04-25T18:25:17Z</time></trkpt><trkpt lat="59.0648818016" lon="29.9871182442"><time>2026-04-25T18:25:19Z</time></trkpt><trkpt lat="59.0648818016" lon="29.9871182442"><time>2026-04-25T18:25:22Z</time></trkpt><trkpt lat="59.0648818016" lon="29.9870753288"><time>2026-04-25T18:25:24Z</time></trkpt><trkpt lat="59.0648818016" lon="29.9870753288"><time>2026-04-25T18:25:27Z</time></trkpt><trkpt lat="59.0648603439" lon="29.9870324135"><time>2026-04-25T18:25:29Z</time></trkpt><trkpt lat="59.0648603439" lon="29.9870324135"><time>2026-04-25T18:25:32Z</time></trkpt><trkpt lat="59.0648818016" lon="29.9869894981"><time>2026-04-25T18:25:34Z</time></trkpt><trkpt lat="59.0648603439" lon="29.9869680405"><time>2026-04-25T18:25:37Z</time></trkpt><trkpt lat="59.0648388863" lon="29.9869465828"><time>2026-04-25T18:25:39Z</time></trkpt><trkpt lat="59.0648174286" lon="29.9869465828"><time>2026-04-25T18:25:42Z</time></trkpt><trkpt lat="59.0647959709" lon="29.9869251251"><time>2026-04-25T18:25:44Z</time></trkpt><trkpt lat="59.0647959709" lon="29.9868822098"><time>2026-04-25T18:25:47Z</time></trkpt><trkpt lat="59.0647745132" lon="29.9868607521"><time>2026-04-25T18:25:49Z</time></trkpt><trkpt lat="59.0647745132" lon="29.9868607521"><time>2026-04-25T18:25:52Z</time></trkpt><trkpt lat="59.0647745132" lon="29.9868607521"><time>2026-04-25T18:25:54Z</time></trkpt><trkpt lat="59.0647745132" lon="29.9868607521"><time>2026-04-25T18:25:57Z</time></trkpt><trkpt lat="59.0647745132" lon="29.9868607521"><time>2026-04-25T18:25:59Z</time></trkpt><trkpt lat="59.0647530556" lon="29.9868607521"><time>2026-04-25T18:26:02Z</time></trkpt><trkpt lat="59.0647530556" lon="29.9868607521"><time>2026-04-25T18:26:04Z</time></trkpt><trkpt lat="59.0647530556" lon="29.9868607521"><time>2026-04-25T18:26:07Z</time></trkpt><trkpt lat="59.0647530556" lon="29.9868607521"><time>2026-04-25T18:26:09Z</time></trkpt><trkpt lat="59.0647530556" lon="29.9868607521"><time>2026-04-25T18:26:12Z</time></trkpt><trkpt lat="59.0647530556" lon="29.9868607521"><time>2026-04-25T18:26:14Z</time></trkpt><trkpt lat="59.0647530556" lon="29.9868607521"><time>2026-04-25T18:26:17Z</time></trkpt><trkpt lat="59.0647530556" lon="29.9868607521"><time>2026-04-25T18:26:19Z</time></trkpt><trkpt lat="59.0647530556" lon="29.9868607521"><time>2026-04-25T18:26:22Z</time></trkpt><trkpt lat="59.0647530556" lon="29.9868392944"><time>2026-04-25T18:26:24Z</time></trkpt><trkpt lat="59.0647315979" lon="29.9868178368"><time>2026-04-25T18:26:27Z</time></trkpt><trkpt lat="59.0647101402" lon="29.9868178368"><time>2026-04-25T18:26:29Z</time></trkpt><trkpt lat="59.0647101402" lon="29.9868178368"><time>2026-04-25T18:26:32Z</time></trkpt><trkpt lat="59.0646886826" lon="29.9867749214"><time>2026-04-25T18:26:34Z</time></trkpt><trkpt lat="59.0646672249" lon="29.9867749214"><time>2026-04-25T18:26:37Z</time></trkpt><trkpt lat="59.0646457672" lon="29.9867749214"><time>2026-04-25T18:26:39Z</time></trkpt><trkpt lat="59.0646457672" lon="29.9867749214"><time>2026-04-25T18:26:42Z</time></trkpt><trkpt lat="59.0646457672" lon="29.9867749214"><time>2026-04-25T18:26:44Z</time></trkpt><trkpt lat="59.0646243095" lon="29.9867749214"><time>2026-04-25T18:26:47Z</time></trkpt><trkpt lat="59.0646243095" lon="29.9867749214"><time>2026-04-25T18:26:49Z</time></trkpt><trkpt lat="59.0646028519" lon="29.9867749214"><time>2026-04-25T18:26:52Z</time></trkpt><trkpt lat="59.0645813942" lon="29.9867749214"><time>2026-04-25T18:26:54Z</time></trkpt><trkpt lat="59.0645813942" lon="29.9867749214"><time>2026-04-25T18:26:57Z</time></trkpt><trkpt lat="59.0645813942" lon="29.9867749214"><time>2026-04-25T18:26:59Z</time></trkpt><trkpt lat="59.0645813942" lon="29.9867749214"><time>2026-04-25T18:27:02Z</time></trkpt><trkpt lat="59.0645813942" lon="29.9867534637"><time>2026-04-25T18:27:04Z</time></trkpt><trkpt lat="59.0645813942" lon="29.9867320061"><time>2026-04-25T18:27:07Z</time></trkpt><trkpt lat="59.0645384789" lon="29.9867534637"><time>2026-04-25T18:27:09Z</time></trkpt><trkpt lat="59.0645170212" lon="29.9867534637"><time>2026-04-25T18:27:12Z</time></trkpt><trkpt lat="59.0644955635" lon="29.9867320061"><time>2026-04-25T18:27:14Z</time></trkpt><trkpt lat="59.0644955635" lon="29.9867320061"><time>2026-04-25T18:27:17Z</time></trkpt><trkpt lat="59.0644955635" lon="29.9867320061"><time>2026-04-25T18:27:19Z</time></trkpt><trkpt lat="59.0644955635" lon="29.9867320061"><time>2026-04-25T18:27:22Z</time></trkpt><trkpt lat="59.0644741058" lon="29.9867320061"><time>2026-04-25T18:27:24Z</time></trkpt><trkpt lat="59.0644741058" lon="29.9867105484"><time>2026-04-25T18:27:27Z</time></trkpt><trkpt lat="59.0644526482" lon="29.9866890907"><time>2026-04-25T18:27:29Z</time></trkpt><trkpt lat="59.0644526482" lon="29.9866890907"><time>2026-04-25T18:27:32Z</time></trkpt><trkpt lat="59.0644526482" lon="29.9866890907"><time>2026-04-25T18:27:34Z</time></trkpt><trkpt lat="59.0644526482" lon="29.9866890907"><time>2026-04-25T18:27:37Z</time></trkpt><trkpt lat="59.0644526482" lon="29.9866890907"><time>2026-04-25T18:27:39Z</time></trkpt><trkpt lat="59.0644526482" lon="29.9866890907"><time>2026-04-25T18:27:42Z</time></trkpt><trkpt lat="59.0644526482" lon="29.9866890907"><time>2026-04-25T18:27:44Z</time></trkpt><trkpt lat="59.0644526482" lon="29.9866890907"><time>2026-04-25T18:27:47Z</time></trkpt><trkpt lat="59.0644526482" lon="29.9866890907"><time>2026-04-25T18:27:49Z</time></trkpt><trkpt lat="59.0644526482" lon="29.9866890907"><time>2026-04-25T18:27:52Z</time></trkpt><trkpt lat="59.0644526482" lon="29.9866890907"><time>2026-04-25T18:27:54Z</time></trkpt><trkpt lat="59.0644526482" lon="29.9866890907"><time>2026-04-25T18:27:57Z</time></trkpt><trkpt lat="59.0644311905" lon="29.9866890907"><time>2026-04-25T18:27:59Z</time></trkpt><trkpt lat="59.0644311905" lon="29.9866890907"><time>2026-04-25T18:28:02Z</time></trkpt><trkpt lat="59.0644311905" lon="29.9866890907"><time>2026-04-25T18:28:04Z</time></trkpt><trkpt lat="59.0644311905" lon="29.9866890907"><time>2026-04-25T18:28:07Z</time></trkpt><trkpt lat="59.0644311905" lon="29.9866890907"><time>2026-04-25T18:28:09Z</time></trkpt><trkpt lat="59.0644311905" lon="29.9866890907"><time>2026-04-25T18:28:12Z</time></trkpt><trkpt lat="59.0644311905" lon="29.9866890907"><time>2026-04-25T18:28:14Z</time></trkpt><trkpt lat="59.0644311905" lon="29.9866676331"><time>2026-04-25T18:28:17Z</time></trkpt><trkpt lat="59.0644311905" lon="29.9866676331"><time>2026-04-25T18:28:19Z</time></trkpt><trkpt lat="59.0644097328" lon="29.9866676331"><time>2026-04-25T18:28:22Z</time></trkpt><trkpt lat="59.0643882751" lon="29.9866676331"><time>2026-04-25T18:28:24Z</time></trkpt><trkpt lat="59.0643668175" lon="29.9866676331"><time>2026-04-25T18:28:27Z</time></trkpt><trkpt lat="59.0643453598" lon="29.9866461754"><time>2026-04-25T18:28:29Z</time></trkpt><trkpt lat="59.0643239021" lon="29.9866461754"><time>2026-04-25T18:28:32Z</time></trkpt><trkpt lat="59.0643239021" lon="29.9866461754"><time>2026-04-25T18:28:34Z</time></trkpt><trkpt lat="59.0643239021" lon="29.9866461754"><time>2026-04-25T18:28:37Z</time></trkpt><trkpt lat="59.0643239021" lon="29.9866461754"><time>2026-04-25T18:28:39Z</time></trkpt><trkpt lat="59.0643239021" lon="29.9866461754"><time>2026-04-25T18:28:42Z</time></trkpt><trkpt lat="59.0643239021" lon="29.9866461754"><time>2026-04-25T18:28:44Z</time></trkpt><trkpt lat="59.0643239021" lon="29.9866461754"><time>2026-04-25T18:28:47Z</time></trkpt><trkpt lat="59.0643239021" lon="29.9866461754"><time>2026-04-25T18:28:49Z</time></trkpt><trkpt lat="59.0643239021" lon="29.9866247177"><time>2026-04-25T18:28:52Z</time></trkpt><trkpt lat="59.0643024445" lon="29.9865818024"><time>2026-04-25T18:28:54Z</time></trkpt><trkpt lat="59.0643024445" lon="29.9865818024"><time>2026-04-25T18:28:57Z</time></trkpt><trkpt lat="59.0642809868" lon="29.9865603447"><time>2026-04-25T18:28:59Z</time></trkpt><trkpt lat="59.0642809868" lon="29.9865603447"><time>2026-04-25T18:29:02Z</time></trkpt><trkpt lat="59.0642809868" lon="29.9865603447"><time>2026-04-25T18:29:04Z</time></trkpt><trkpt lat="59.0642809868" lon="29.9865603447"><time>2026-04-25T18:29:07Z</time></trkpt><trkpt lat="59.0642809868" lon="29.9865388870"><time>2026-04-25T18:29:09Z</time></trkpt><trkpt lat="59.0642809868" lon="29.9865388870"><time>2026-04-25T18:29:12Z</time></trkpt><trkpt lat="59.0642595291" lon="29.9864959717"><time>2026-04-25T18:29:14Z</time></trkpt><trkpt lat="59.0642595291" lon="29.9864959717"><time>2026-04-25T18:29:17Z</time></trkpt><trkpt lat="59.0642595291" lon="29.9864959717"><time>2026-04-25T18:29:19Z</time></trkpt><trkpt lat="59.0642595291" lon="29.9864745140"><time>2026-04-25T18:29:22Z</time></trkpt><trkpt lat="59.0642595291" lon="29.9864530563"><time>2026-04-25T18:29:24Z</time></trkpt><trkpt lat="59.0642380714" lon="29.9864315987"><time>2026-04-25T18:29:27Z</time></trkpt><trkpt lat="59.0642380714" lon="29.9863886833"><time>2026-04-25T18:29:29Z</time></trkpt><trkpt lat="59.0642380714" lon="29.9863886833"><time>2026-04-25T18:29:32Z</time></trkpt><trkpt lat="59.0642380714" lon="29.9863886833"><time>2026-04-25T18:29:34Z</time></trkpt><trkpt lat="59.0642380714" lon="29.9863672256"><time>2026-04-25T18:29:37Z</time></trkpt><trkpt lat="59.0642166138" lon="29.9863672256"><time>2026-04-25T18:29:39Z</time></trkpt><trkpt lat="59.0642166138" lon="29.9863672256"><time>2026-04-25T18:29:42Z</time></trkpt><trkpt lat="59.0642166138" lon="29.9863457680"><time>2026-04-25T18:29:44Z</time></trkpt><trkpt lat="59.0642166138" lon="29.9863457680"><time>2026-04-25T18:29:47Z</time></trkpt><trkpt lat="59.0642166138" lon="29.9863457680"><time>2026-04-25T18:29:49Z</time></trkpt><trkpt lat="59.0642166138" lon="29.9863457680"><time>2026-04-25T18:29:52Z</time></trkpt><trkpt lat="59.0642166138" lon="29.9863672256"><time>2026-04-25T18:29:54Z</time></trkpt><trkpt lat="59.0642166138" lon="29.9863672256"><time>2026-04-25T18:29:57Z</time></trkpt><trkpt lat="59.0642380714" lon="29.9863672256"><time>2026-04-25T18:29:59Z</time></trkpt><trkpt lat="59.0642380714" lon="29.9863672256"><time>2026-04-25T18:30:02Z</time></trkpt><trkpt lat="59.0642166138" lon="29.9863672256"><time>2026-04-25T18:30:04Z</time></trkpt><trkpt lat="59.0642166138" lon="29.9863457680"><time>2026-04-25T18:30:07Z</time></trkpt><trkpt lat="59.0642166138" lon="29.9863028526"><time>2026-04-25T18:30:09Z</time></trkpt><trkpt lat="59.0642166138" lon="29.9863028526"><time>2026-04-25T18:30:12Z</time></trkpt><trkpt lat="59.0642166138" lon="29.9863028526"><time>2026-04-25T18:30:14Z</time></trkpt><trkpt lat="59.0642166138" lon="29.9863028526"><time>2026-04-25T18:30:17Z</time></trkpt><trkpt lat="59.0642380714" lon="29.9862813950"><time>2026-04-25T18:30:19Z</time></trkpt><trkpt lat="59.0642380714" lon="29.9862813950"><time>2026-04-25T18:30:22Z</time></trkpt><trkpt lat="59.0642380714" lon="29.9862384796"><time>2026-04-25T18:30:24Z</time></trkpt><trkpt lat="59.0642380714" lon="29.9861955643"><time>2026-04-25T18:30:27Z</time></trkpt><trkpt lat="59.0642380714" lon="29.9861526489"><time>2026-04-25T18:30:29Z</time></trkpt><trkpt lat="59.0642380714" lon="29.9861097336"><time>2026-04-25T18:30:32Z</time></trkpt><trkpt lat="59.0642595291" lon="29.9860882759"><time>2026-04-25T18:30:34Z</time></trkpt><trkpt lat="59.0642595291" lon="29.9860668182"><time>2026-04-25T18:30:37Z</time></trkpt><trkpt lat="59.0642595291" lon="29.9860453606"><time>2026-04-25T18:30:39Z</time></trkpt><trkpt lat="59.0642595291" lon="29.9860239029"><time>2026-04-25T18:30:42Z</time></trkpt><trkpt lat="59.0642595291" lon="29.9859809875"><time>2026-04-25T18:30:44Z</time></trkpt><trkpt lat="59.0642380714" lon="29.9859595299"><time>2026-04-25T18:30:47Z</time></trkpt><trkpt lat="59.0642380714" lon="29.9859166145"><time>2026-04-25T18:30:49Z</time></trkpt><trkpt lat="59.0642380714" lon="29.9858951569"><time>2026-04-25T18:30:52Z</time></trkpt><trkpt lat="59.0642380714" lon="29.9858307838"><time>2026-04-25T18:30:54Z</time></trkpt><trkpt lat="59.0642380714" lon="29.9858093262"><time>2026-04-25T18:30:57Z</time></trkpt><trkpt lat="59.0642380714" lon="29.9858093262"><time>2026-04-25T18:30:59Z</time></trkpt><trkpt lat="59.0642380714" lon="29.9858307838"><time>2026-04-25T18:31:02Z</time></trkpt><trkpt lat="59.0642380714" lon="29.9858307838"><time>2026-04-25T18:31:04Z</time></trkpt><trkpt lat="59.0642380714" lon="29.9858522415"><time>2026-04-25T18:31:07Z</time></trkpt><trkpt lat="59.0642166138" lon="29.9859380722"><time>2026-04-25T18:31:09Z</time></trkpt><trkpt lat="59.0641951561" lon="29.9859809875"><time>2026-04-25T18:31:12Z</time></trkpt><trkpt lat="59.0641522408" lon="29.9859809875"><time>2026-04-25T18:31:14Z</time></trkpt><trkpt lat="59.0641307831" lon="29.9859595299"><time>2026-04-25T18:31:17Z</time></trkpt><trkpt lat="59.0641093254" lon="29.9859380722"><time>2026-04-25T18:31:19Z</time></trkpt><trkpt lat="59.0640878677" lon="29.9859166145"><time>2026-04-25T18:31:22Z</time></trkpt><trkpt lat="59.0640664101" lon="29.9859166145"><time>2026-04-25T18:31:24Z</time></trkpt><trkpt lat="59.0640878677" lon="29.9858736992"><time>2026-04-25T18:31:27Z</time></trkpt><trkpt lat="59.0640664101" lon="29.9858307838"><time>2026-04-25T18:31:29Z</time></trkpt><trkpt lat="59.0640664101" lon="29.9857878685"><time>2026-04-25T18:31:32Z</time></trkpt><trkpt lat="59.0640449524" lon="29.9857664108"><time>2026-04-25T18:31:34Z</time></trkpt><trkpt lat="59.0640449524" lon="29.9857449532"><time>2026-04-25T18:31:37Z</time></trkpt><trkpt lat="59.0640449524" lon="29.9857234955"><time>2026-04-25T18:31:39Z</time></trkpt><trkpt lat="59.0640449524" lon="29.9857234955"><time>2026-04-25T18:31:42Z</time></trkpt><trkpt lat="59.0640449524" lon="29.9856805801"><time>2026-04-25T18:31:44Z</time></trkpt><trkpt lat="59.0640449524" lon="29.9856591225"><time>2026-04-25T18:31:47Z</time></trkpt><trkpt lat="59.0640449524" lon="29.9856376648"><time>2026-04-25T18:31:49Z</time></trkpt><trkpt lat="59.0640234947" lon="29.9856376648"><time>2026-04-25T18:31:52Z</time></trkpt><trkpt lat="59.0640234947" lon="29.9856376648"><time>2026-04-25T18:31:54Z</time></trkpt><trkpt lat="59.0639805794" lon="29.9856376648"><time>2026-04-25T18:31:57Z</time></trkpt><trkpt lat="59.0639591217" lon="29.9856805801"><time>2026-04-25T18:31:59Z</time></trkpt><trkpt lat="59.0639376640" lon="29.9857020378"><time>2026-04-25T18:32:02Z</time></trkpt><trkpt lat="59.0639376640" lon="29.9857234955"><time>2026-04-25T18:32:04Z</time></trkpt><trkpt lat="59.0639376640" lon="29.9857664108"><time>2026-04-25T18:32:07Z</time></trkpt><trkpt lat="59.0639376640" lon="29.9858093262"><time>2026-04-25T18:32:09Z</time></trkpt><trkpt lat="59.0639376640" lon="29.9858736992"><time>2026-04-25T18:32:12Z</time></trkpt><trkpt lat="59.0639162064" lon="29.9858951569"><time>2026-04-25T18:32:14Z</time></trkpt><trkpt lat="59.0638947487" lon="29.9859166145"><time>2026-04-25T18:32:17Z</time></trkpt><trkpt lat="59.0638947487" lon="29.9858951569"><time>2026-04-25T18:32:19Z</time></trkpt><trkpt lat="59.0638947487" lon="29.9858951569"><time>2026-04-25T18:32:22Z</time></trkpt><trkpt lat="59.0638947487" lon="29.9858951569"><time>2026-04-25T18:32:24Z</time></trkpt><trkpt lat="59.0638732910" lon="29.9859380722"><time>2026-04-25T18:32:27Z</time></trkpt><trkpt lat="59.0638732910" lon="29.9859595299"><time>2026-04-25T18:32:29Z</time></trkpt><trkpt lat="59.0638732910" lon="29.9859595299"><time>2026-04-25T18:32:32Z</time></trkpt><trkpt lat="59.0638732910" lon="29.9859595299"><time>2026-04-25T18:32:34Z</time></trkpt><trkpt lat="59.0638518333" lon="29.9859809875"><time>2026-04-25T18:32:37Z</time></trkpt><trkpt lat="59.0638303757" lon="29.9859809875"><time>2026-04-25T18:32:39Z</time></trkpt><trkpt lat="59.0638303757" lon="29.9859809875"><time>2026-04-25T18:32:42Z</time></trkpt><trkpt lat="59.0638089180" lon="29.9859809875"><time>2026-04-25T18:32:44Z</time></trkpt><trkpt lat="59.0637874603" lon="29.9859809875"><time>2026-04-25T18:32:47Z</time></trkpt><trkpt lat="59.0637660027" lon="29.9859595299"><time>2026-04-25T18:32:49Z</time></trkpt><trkpt lat="59.0637660027" lon="29.9859595299"><time>2026-04-25T18:32:52Z</time></trkpt><trkpt lat="59.0637445450" lon="29.9859595299"><time>2026-04-25T18:32:54Z</time></trkpt><trkpt lat="59.0637230873" lon="29.9859809875"><time>2026-04-25T18:32:57Z</time></trkpt><trkpt lat="59.0637016296" lon="29.9860024452"><time>2026-04-25T18:32:59Z</time></trkpt><trkpt lat="59.0637016296" lon="29.9860024452"><time>2026-04-25T18:33:02Z</time></trkpt><trkpt lat="59.0637016296" lon="29.9860024452"><time>2026-04-25T18:33:04Z</time></trkpt><trkpt lat="59.0637016296" lon="29.9860024452"><time>2026-04-25T18:33:07Z</time></trkpt><trkpt lat="59.0637016296" lon="29.9860024452"><time>2026-04-25T18:33:09Z</time></trkpt><trkpt lat="59.0637016296" lon="29.9859809875"><time>2026-04-25T18:33:12Z</time></trkpt><trkpt lat="59.0637016296" lon="29.9859595299"><time>2026-04-25T18:33:14Z</time></trkpt><trkpt lat="59.0636801720" lon="29.9859380722"><time>2026-04-25T18:33:17Z</time></trkpt><trkpt lat="59.0636801720" lon="29.9858951569"><time>2026-04-25T18:33:19Z</time></trkpt><trkpt lat="59.0636801720" lon="29.9858736992"><time>2026-04-25T18:33:22Z</time></trkpt><trkpt lat="59.0636801720" lon="29.9858307838"><time>2026-04-25T18:33:24Z</time></trkpt><trkpt lat="59.0636801720" lon="29.9857878685"><time>2026-04-25T18:33:27Z</time></trkpt><trkpt lat="59.0636801720" lon="29.9857878685"><time>2026-04-25T18:33:29Z</time></trkpt><trkpt lat="59.0636801720" lon="29.9857878685"><time>2026-04-25T18:33:32Z</time></trkpt><trkpt lat="59.0636801720" lon="29.9857878685"><time>2026-04-25T18:33:34Z</time></trkpt><trkpt lat="59.0636801720" lon="29.9857449532"><time>2026-04-25T18:33:37Z</time></trkpt><trkpt lat="59.0636801720" lon="29.9857020378"><time>2026-04-25T18:33:39Z</time></trkpt><trkpt lat="59.0636801720" lon="29.9856805801"><time>2026-04-25T18:33:42Z</time></trkpt><trkpt lat="59.0636801720" lon="29.9856591225"><time>2026-04-25T18:33:44Z</time></trkpt><trkpt lat="59.0636587143" lon="29.9856162071"><time>2026-04-25T18:33:47Z</time></trkpt><trkpt lat="59.0636372566" lon="29.9855947495"><time>2026-04-25T18:33:49Z</time></trkpt><trkpt lat="59.0636372566" lon="29.9855947495"><time>2026-04-25T18:33:52Z</time></trkpt><trkpt lat="59.0636372566" lon="29.9855947495"><time>2026-04-25T18:33:54Z</time></trkpt><trkpt lat="59.0636372566" lon="29.9855732918"><time>2026-04-25T18:33:57Z</time></trkpt><trkpt lat="59.0636372566" lon="29.9855303764"><time>2026-04-25T18:33:59Z</time></trkpt><trkpt lat="59.0636587143" lon="29.9855089188"><time>2026-04-25T18:34:02Z</time></trkpt><trkpt lat="59.0636587143" lon="29.9854660034"><time>2026-04-25T18:34:04Z</time></trkpt><trkpt lat="59.0636587143" lon="29.9854660034"><time>2026-04-25T18:34:07Z</time></trkpt><trkpt lat="59.0636587143" lon="29.9854660034"><time>2026-04-25T18:34:09Z</time></trkpt><trkpt lat="59.0636587143" lon="29.9854445457"><time>2026-04-25T18:34:12Z</time></trkpt><trkpt lat="59.0636587143" lon="29.9853801727"><time>2026-04-25T18:34:14Z</time></trkpt><trkpt lat="59.0636587143" lon="29.9853587151"><time>2026-04-25T18:34:17Z</time></trkpt><trkpt lat="59.0636587143" lon="29.9853587151"><time>2026-04-25T18:34:19Z</time></trkpt><trkpt lat="59.0636587143" lon="29.9853587151"><time>2026-04-25T18:34:22Z</time></trkpt><trkpt lat="59.0636587143" lon="29.9853587151"><time>2026-04-25T18:34:24Z</time></trkpt><trkpt lat="59.0636587143" lon="29.9853587151"><time>2026-04-25T18:34:27Z</time></trkpt><trkpt lat="59.0636587143" lon="29.9853587151"><time>2026-04-25T18:34:29Z</time></trkpt><trkpt lat="59.0636587143" lon="29.9853587151"><time>2026-04-25T18:34:32Z</time></trkpt><trkpt lat="59.0636587143" lon="29.9853801727"><time>2026-04-25T18:34:34Z</time></trkpt><trkpt lat="59.0636372566" lon="29.9853587151"><time>2026-04-25T18:34:37Z</time></trkpt><trkpt lat="59.0636372566" lon="29.9853587151"><time>2026-04-25T18:34:39Z</time></trkpt><trkpt lat="59.0636372566" lon="29.9853587151"><time>2026-04-25T18:34:42Z</time></trkpt><trkpt lat="59.0636372566" lon="29.9853587151"><time>2026-04-25T18:34:44Z</time></trkpt><trkpt lat="59.0636372566" lon="29.9853587151"><time>2026-04-25T18:34:47Z</time></trkpt><trkpt lat="59.0636372566" lon="29.9853587151"><time>2026-04-25T18:34:49Z</time></trkpt><trkpt lat="59.0636372566" lon="29.9853587151"><time>2026-04-25T18:34:52Z</time></trkpt><trkpt lat="59.0636372566" lon="29.9853587151"><time>2026-04-25T18:34:54Z</time></trkpt><trkpt lat="59.0636372566" lon="29.9853587151"><time>2026-04-25T18:34:57Z</time></trkpt><trkpt lat="59.0636372566" lon="29.9853587151"><time>2026-04-25T18:34:59Z</time></trkpt><trkpt lat="59.0636157990" lon="29.9853587151"><time>2026-04-25T18:35:02Z</time></trkpt><trkpt lat="59.0635514259" lon="29.9853801727"><time>2026-04-25T18:35:04Z</time></trkpt><trkpt lat="59.0635514259" lon="29.9854016304"><time>2026-04-25T18:35:07Z</time></trkpt><trkpt lat="59.0635514259" lon="29.9854016304"><time>2026-04-25T18:35:09Z</time></trkpt><trkpt lat="59.0635085106" lon="29.9853801727"><time>2026-04-25T18:35:12Z</time></trkpt><trkpt lat="59.0634441376" lon="29.9853587151"><time>2026-04-25T18:35:14Z</time></trkpt><trkpt lat="59.0634441376" lon="29.9853157997"><time>2026-04-25T18:35:17Z</time></trkpt><trkpt lat="59.0634226799" lon="29.9852728844"><time>2026-04-25T18:35:19Z</time></trkpt><trkpt lat="59.0634012222" lon="29.9852514267"><time>2026-04-25T18:35:22Z</time></trkpt><trkpt lat="59.0633797646" lon="29.9852514267"><time>2026-04-25T18:35:24Z</time></trkpt><trkpt lat="59.0633583069" lon="29.9852514267"><time>2026-04-25T18:35:27Z</time></trkpt><trkpt lat="59.0633153915" lon="29.9852728844"><time>2026-04-25T18:35:29Z</time></trkpt><trkpt lat="59.0633153915" lon="29.9852728844"><time>2026-04-25T18:35:32Z</time></trkpt><trkpt lat="59.0632939339" lon="29.9852943420"><time>2026-04-25T18:35:34Z</time></trkpt><trkpt lat="59.0632724762" lon="29.9852943420"><time>2026-04-25T18:35:37Z</time></trkpt><trkpt lat="59.0632510185" lon="29.9852943420"><time>2026-04-25T18:35:39Z</time></trkpt><trkpt lat="59.0632295609" lon="29.9852943420"><time>2026-04-25T18:35:42Z</time></trkpt><trkpt lat="59.0632081032" lon="29.9852728844"><time>2026-04-25T18:35:44Z</time></trkpt><trkpt lat="59.0631866455" lon="29.9852514267"><time>2026-04-25T18:35:47Z</time></trkpt><trkpt lat="59.0631866455" lon="29.9852299690"><time>2026-04-25T18:35:49Z</time></trkpt><trkpt lat="59.0631651878" lon="29.9852299690"><time>2026-04-25T18:35:52Z</time></trkpt><trkpt lat="59.0631437302" lon="29.9851870537"><time>2026-04-25T18:35:54Z</time></trkpt><trkpt lat="59.0631437302" lon="29.9851870537"><time>2026-04-25T18:35:57Z</time></trkpt><trkpt lat="59.0631222725" lon="29.9851655960"><time>2026-04-25T18:35:59Z</time></trkpt><trkpt lat="59.0631222725" lon="29.9851655960"><time>2026-04-25T18:36:02Z</time></trkpt><trkpt lat="59.0631222725" lon="29.9851441383"><time>2026-04-25T18:36:04Z</time></trkpt><trkpt lat="59.0631222725" lon="29.9851441383"><time>2026-04-25T18:36:07Z</time></trkpt><trkpt lat="59.0631008148" lon="29.9851655960"><time>2026-04-25T18:36:09Z</time></trkpt><trkpt lat="59.0631008148" lon="29.9851655960"><time>2026-04-25T18:36:12Z</time></trkpt><trkpt lat="59.0630793571" lon="29.9851655960"><time>2026-04-25T18:36:14Z</time></trkpt><trkpt lat="59.0630578995" lon="29.9851655960"><time>2026-04-25T18:36:17Z</time></trkpt><trkpt lat="59.0630364418" lon="29.9851655960"><time>2026-04-25T18:36:19Z</time></trkpt><trkpt lat="59.0630149841" lon="29.9851655960"><time>2026-04-25T18:36:22Z</time></trkpt><trkpt lat="59.0629935265" lon="29.9851655960"><time>2026-04-25T18:36:24Z</time></trkpt><trkpt lat="59.0629720688" lon="29.9851441383"><time>2026-04-25T18:36:27Z</time></trkpt><trkpt lat="59.0629720688" lon="29.9851441383"><time>2026-04-25T18:36:29Z</time></trkpt><trkpt lat="59.0629720688" lon="29.9851441383"><time>2026-04-25T18:36:32Z</time></trkpt><trkpt lat="59.0629720688" lon="29.9851441383"><time>2026-04-25T18:36:34Z</time></trkpt><trkpt lat="59.0629720688" lon="29.9851012230"><time>2026-04-25T18:36:37Z</time></trkpt><trkpt lat="59.0629291534" lon="29.9850797653"><time>2026-04-25T18:36:39Z</time></trkpt><trkpt lat="59.0629291534" lon="29.9850797653"><time>2026-04-25T18:36:42Z</time></trkpt><trkpt lat="59.0629076958" lon="29.9850583076"><time>2026-04-25T18:36:44Z</time></trkpt><trkpt lat="59.0628862381" lon="29.9850583076"><time>2026-04-25T18:36:47Z</time></trkpt><trkpt lat="59.0628862381" lon="29.9850583076"><time>2026-04-25T18:36:49Z</time></trkpt><trkpt lat="59.0628647804" lon="29.9850583076"><time>2026-04-25T18:36:52Z</time></trkpt><trkpt lat="59.0628647804" lon="29.9850797653"><time>2026-04-25T18:36:54Z</time></trkpt><trkpt lat="59.0628433228" lon="29.9851012230"><time>2026-04-25T18:36:57Z</time></trkpt><trkpt lat="59.0628433228" lon="29.9851226807"><time>2026-04-25T18:36:59Z</time></trkpt><trkpt lat="59.0628433228" lon="29.9851226807"><time>2026-04-25T18:37:02Z</time></trkpt><trkpt lat="59.0628433228" lon="29.9851226807"><time>2026-04-25T18:37:04Z</time></trkpt><trkpt lat="59.0628433228" lon="29.9851012230"><time>2026-04-25T18:37:07Z</time></trkpt><trkpt lat="59.0628004074" lon="29.9850583076"><time>2026-04-25T18:37:09Z</time></trkpt><trkpt lat="59.0627789497" lon="29.9850368500"><time>2026-04-25T18:37:12Z</time></trkpt><trkpt lat="59.0627574921" lon="29.9850583076"><time>2026-04-25T18:37:14Z</time></trkpt><trkpt lat="59.0627574921" lon="29.9850797653"><time>2026-04-25T18:37:17Z</time></trkpt><trkpt lat="59.0627360344" lon="29.9850368500"><time>2026-04-25T18:37:19Z</time></trkpt><trkpt lat="59.0627145767" lon="29.9850368500"><time>2026-04-25T18:37:22Z</time></trkpt><trkpt lat="59.0626931190" lon="29.9850583076"><time>2026-04-25T18:37:24Z</time></trkpt><trkpt lat="59.0626931190" lon="29.9850583076"><time>2026-04-25T18:37:27Z</time></trkpt><trkpt lat="59.0626716614" lon="29.9850583076"><time>2026-04-25T18:37:29Z</time></trkpt><trkpt lat="59.0626716614" lon="29.9850583076"><time>2026-04-25T18:37:32Z</time></trkpt><trkpt lat="59.0626716614" lon="29.9850583076"><time>2026-04-25T18:37:34Z</time></trkpt><trkpt lat="59.0626716614" lon="29.9850583076"><time>2026-04-25T18:37:37Z</time></trkpt><trkpt lat="59.0626502037" lon="29.9850583076"><time>2026-04-25T18:37:39Z</time></trkpt><trkpt lat="59.0626287460" lon="29.9850583076"><time>2026-04-25T18:37:42Z</time></trkpt><trkpt lat="59.0626287460" lon="29.9850583076"><time>2026-04-25T18:37:44Z</time></trkpt><trkpt lat="59.0626287460" lon="29.9850583076"><time>2026-04-25T18:37:47Z</time></trkpt><trkpt lat="59.0626287460" lon="29.9850583076"><time>2026-04-25T18:37:49Z</time></trkpt><trkpt lat="59.0626287460" lon="29.9850583076"><time>2026-04-25T18:37:52Z</time></trkpt><trkpt lat="59.0626287460" lon="29.9850583076"><time>2026-04-25T18:37:54Z</time></trkpt><trkpt lat="59.0626287460" lon="29.9850583076"><time>2026-04-25T18:37:57Z</time></trkpt><trkpt lat="59.0626287460" lon="29.9850583076"><time>2026-04-25T18:37:59Z</time></trkpt><trkpt lat="59.0626287460" lon="29.9850583076"><time>2026-04-25T18:38:02Z</time></trkpt><trkpt lat="59.0626287460" lon="29.9850583076"><time>2026-04-25T18:38:04Z</time></trkpt><trkpt lat="59.0626072884" lon="29.9850797653"><time>2026-04-25T18:38:07Z</time></trkpt><trkpt lat="59.0625643730" lon="29.9850797653"><time>2026-04-25T18:38:09Z</time></trkpt><trkpt lat="59.0625214577" lon="29.9850797653"><time>2026-04-25T18:38:12Z</time></trkpt><trkpt lat="59.0624570847" lon="29.9850583076"><time>2026-04-25T18:38:14Z</time></trkpt><trkpt lat="59.0624356270" lon="29.9850368500"><time>2026-04-25T18:38:17Z</time></trkpt><trkpt lat="59.0623927116" lon="29.9850583076"><time>2026-04-25T18:38:19Z</time></trkpt><trkpt lat="59.0623712540" lon="29.9850583076"><time>2026-04-25T18:38:22Z</time></trkpt><trkpt lat="59.0623283386" lon="29.9850797653"><time>2026-04-25T18:38:24Z</time></trkpt><trkpt lat="59.0623283386" lon="29.9850797653"><time>2026-04-25T18:38:27Z</time></trkpt><trkpt lat="59.0623068810" lon="29.9850797653"><time>2026-04-25T18:38:29Z</time></trkpt><trkpt lat="59.0623068810" lon="29.9850797653"><time>2026-04-25T18:38:32Z</time></trkpt><trkpt lat="59.0622854233" lon="29.9850797653"><time>2026-04-25T18:38:34Z</time></trkpt><trkpt lat="59.0622639656" lon="29.9851012230"><time>2026-04-25T18:38:37Z</time></trkpt><trkpt lat="59.0622210503" lon="29.9851012230"><time>2026-04-25T18:38:39Z</time></trkpt><trkpt lat="59.0622210503" lon="29.9850797653"><time>2026-04-25T18:38:42Z</time></trkpt><trkpt lat="59.0622210503" lon="29.9850797653"><time>2026-04-25T18:38:44Z</time></trkpt><trkpt lat="59.0622210503" lon="29.9850797653"><time>2026-04-25T18:38:47Z</time></trkpt><trkpt lat="59.0621995926" lon="29.9850797653"><time>2026-04-25T18:38:49Z</time></trkpt><trkpt lat="59.0621995926" lon="29.9850368500"><time>2026-04-25T18:38:52Z</time></trkpt><trkpt lat="59.0621781349" lon="29.9850153923"><time>2026-04-25T18:38:54Z</time></trkpt><trkpt lat="59.0621566772" lon="29.9849939346"><time>2026-04-25T18:38:57Z</time></trkpt><trkpt lat="59.0621566772" lon="29.9849510193"><time>2026-04-25T18:38:59Z</time></trkpt><trkpt lat="59.0621352196" lon="29.9849510193"><time>2026-04-25T18:39:02Z</time></trkpt><trkpt lat="59.0621137619" lon="29.9849081039"><time>2026-04-25T18:39:04Z</time></trkpt><trkpt lat="59.0621137619" lon="29.9848866463"><time>2026-04-25T18:39:07Z</time></trkpt><trkpt lat="59.0620923042" lon="29.9848651886"><time>2026-04-25T18:39:09Z</time></trkpt><trkpt lat="59.0620708466" lon="29.9848222733"><time>2026-04-25T18:39:12Z</time></trkpt><trkpt lat="59.0620493889" lon="29.9848008156"><time>2026-04-25T18:39:14Z</time></trkpt><trkpt lat="59.0620493889" lon="29.9847793579"><time>2026-04-25T18:39:17Z</time></trkpt><trkpt lat="59.0620279312" lon="29.9847793579"><time>2026-04-25T18:39:19Z</time></trkpt><trkpt lat="59.0620279312" lon="29.9847793579"><time>2026-04-25T18:39:22Z</time></trkpt><trkpt lat="59.0620064735" lon="29.9848008156"><time>2026-04-25T18:39:24Z</time></trkpt><trkpt lat="59.0619850159" lon="29.9848008156"><time>2026-04-25T18:39:27Z</time></trkpt><trkpt lat="59.0619850159" lon="29.9848222733"><time>2026-04-25T18:39:29Z</time></trkpt><trkpt lat="59.0619850159" lon="29.9848222733"><time>2026-04-25T18:39:32Z</time></trkpt><trkpt lat="59.0619850159" lon="29.9848222733"><time>2026-04-25T18:39:34Z</time></trkpt><trkpt lat="59.0619850159" lon="29.9848008156"><time>2026-04-25T18:39:37Z</time></trkpt><trkpt lat="59.0619635582" lon="29.9847579002"><time>2026-04-25T18:39:39Z</time></trkpt><trkpt lat="59.0619635582" lon="29.9847364426"><time>2026-04-25T18:39:42Z</time></trkpt><trkpt lat="59.0619421005" lon="29.9847149849"><time>2026-04-25T18:39:44Z</time></trkpt><trkpt lat="59.0619206429" lon="29.9847149849"><time>2026-04-25T18:39:47Z</time></trkpt><trkpt lat="59.0618777275" lon="29.9847149849"><time>2026-04-25T18:39:49Z</time></trkpt><trkpt lat="59.0618777275" lon="29.9847149849"><time>2026-04-25T18:39:52Z</time></trkpt><trkpt lat="59.0618562698" lon="29.9847149849"><time>2026-04-25T18:39:54Z</time></trkpt><trkpt lat="59.0618348122" lon="29.9847149849"><time>2026-04-25T18:39:57Z</time></trkpt><trkpt lat="59.0618133545" lon="29.9847364426"><time>2026-04-25T18:39:59Z</time></trkpt><trkpt lat="59.0617918968" lon="29.9847364426"><time>2026-04-25T18:40:02Z</time></trkpt><trkpt lat="59.0617918968" lon="29.9847364426"><time>2026-04-25T18:40:04Z</time></trkpt><trkpt lat="59.0617918968" lon="29.9847579002"><time>2026-04-25T18:40:07Z</time></trkpt><trkpt lat="59.0617918968" lon="29.9848008156"><time>2026-04-25T18:40:09Z</time></trkpt><trkpt lat="59.0617704391" lon="29.9848222733"><time>2026-04-25T18:40:12Z</time></trkpt><trkpt lat="59.0617489815" lon="29.9848437309"><time>2026-04-25T18:40:14Z</time></trkpt><trkpt lat="59.0617489815" lon="29.9848651886"><time>2026-04-25T18:40:17Z</time></trkpt><trkpt lat="59.0617489815" lon="29.9848651886"><time>2026-04-25T18:40:19Z</time></trkpt><trkpt lat="59.0617489815" lon="29.9848651886"><time>2026-04-25T18:40:22Z</time></trkpt><trkpt lat="59.0617489815" lon="29.9848651886"><time>2026-04-25T18:40:24Z</time></trkpt><trkpt lat="59.0617489815" lon="29.9848651886"><time>2026-04-25T18:40:27Z</time></trkpt><trkpt lat="59.0617489815" lon="29.9848651886"><time>2026-04-25T18:40:29Z</time></trkpt><trkpt lat="59.0617489815" lon="29.9848651886"><time>2026-04-25T18:40:32Z</time></trkpt><trkpt lat="59.0617489815" lon="29.9848651886"><time>2026-04-25T18:40:34Z</time></trkpt><trkpt lat="59.0617489815" lon="29.9848651886"><time>2026-04-25T18:40:37Z</time></trkpt><trkpt lat="59.0616846085" lon="29.9849081039"><time>2026-04-25T18:40:39Z</time></trkpt><trkpt lat="59.0616631508" lon="29.9849295616"><time>2026-04-25T18:40:42Z</time></trkpt><trkpt lat="59.0616202354" lon="29.9849724770"><time>2026-04-25T18:40:44Z</time></trkpt><trkpt lat="59.0616202354" lon="29.9849724770"><time>2026-04-25T18:40:47Z</time></trkpt><trkpt lat="59.0615987778" lon="29.9849939346"><time>2026-04-25T18:40:49Z</time></trkpt><trkpt lat="59.0615987778" lon="29.9849939346"><time>2026-04-25T18:40:52Z</time></trkpt><trkpt lat="59.0615987778" lon="29.9849939346"><time>2026-04-25T18:40:54Z</time></trkpt><trkpt lat="59.0615987778" lon="29.9849939346"><time>2026-04-25T18:40:57Z</time></trkpt><trkpt lat="59.0615987778" lon="29.9850153923"><time>2026-04-25T18:40:59Z</time></trkpt><trkpt lat="59.0615773201" lon="29.9850583076"><time>2026-04-25T18:41:02Z</time></trkpt><trkpt lat="59.0615344048" lon="29.9850797653"><time>2026-04-25T18:41:04Z</time></trkpt><trkpt lat="59.0615344048" lon="29.9850797653"><time>2026-04-25T18:41:07Z</time></trkpt><trkpt lat="59.0615344048" lon="29.9851012230"><time>2026-04-25T18:41:09Z</time></trkpt><trkpt lat="59.0615344048" lon="29.9851012230"><time>2026-04-25T18:41:12Z</time></trkpt><trkpt lat="59.0614914894" lon="29.9851441383"><time>2026-04-25T18:41:14Z</time></trkpt><trkpt lat="59.0614914894" lon="29.9851441383"><time>2026-04-25T18:41:17Z</time></trkpt><trkpt lat="59.0614271164" lon="29.9851870537"><time>2026-04-25T18:41:19Z</time></trkpt><trkpt lat="59.0614056587" lon="29.9852085114"><time>2026-04-25T18:41:22Z</time></trkpt><trkpt lat="59.0613842010" lon="29.9852085114"><time>2026-04-25T18:41:24Z</time></trkpt><trkpt lat="59.0613842010" lon="29.9851870537"><time>2026-04-25T18:41:27Z</time></trkpt><trkpt lat="59.0613842010" lon="29.9851870537"><time>2026-04-25T18:41:29Z</time></trkpt><trkpt lat="59.0613627434" lon="29.9851655960"><time>2026-04-25T18:41:32Z</time></trkpt><trkpt lat="59.0613627434" lon="29.9851655960"><time>2026-04-25T18:41:34Z</time></trkpt><trkpt lat="59.0613627434" lon="29.9851655960"><time>2026-04-25T18:41:37Z</time></trkpt><trkpt lat="59.0613627434" lon="29.9851655960"><time>2026-04-25T18:41:39Z</time></trkpt><trkpt lat="59.0613627434" lon="29.9851655960"><time>2026-04-25T18:41:42Z</time></trkpt><trkpt lat="59.0613627434" lon="29.9851655960"><time>2026-04-25T18:41:44Z</time></trkpt><trkpt lat="59.0613627434" lon="29.9851655960"><time>2026-04-25T18:41:47Z</time></trkpt><trkpt lat="59.0613412857" lon="29.9851441383"><time>2026-04-25T18:41:49Z</time></trkpt><trkpt lat="59.0613198280" lon="29.9851012230"><time>2026-04-25T18:41:52Z</time></trkpt><trkpt lat="59.0612983704" lon="29.9851012230"><time>2026-04-25T18:41:54Z</time></trkpt><trkpt lat="59.0612769127" lon="29.9851012230"><time>2026-04-25T18:41:57Z</time></trkpt><trkpt lat="59.0612769127" lon="29.9850583076"><time>2026-04-25T18:41:59Z</time></trkpt><trkpt lat="59.0612769127" lon="29.9850583076"><time>2026-04-25T18:42:02Z</time></trkpt><trkpt lat="59.0612769127" lon="29.9850583076"><time>2026-04-25T18:42:04Z</time></trkpt><trkpt lat="59.0612769127" lon="29.9850583076"><time>2026-04-25T18:42:07Z</time></trkpt><trkpt lat="59.0612769127" lon="29.9850583076"><time>2026-04-25T18:42:09Z</time></trkpt><trkpt lat="59.0612769127" lon="29.9850583076"><time>2026-04-25T18:42:12Z</time></trkpt><trkpt lat="59.0612769127" lon="29.9850583076"><time>2026-04-25T18:42:14Z</time></trkpt><trkpt lat="59.0612769127" lon="29.9850583076"><time>2026-04-25T18:42:17Z</time></trkpt><trkpt lat="59.0612554550" lon="29.9850583076"><time>2026-04-25T18:42:19Z</time></trkpt><trkpt lat="59.0612339973" lon="29.9850368500"><time>2026-04-25T18:42:22Z</time></trkpt><trkpt lat="59.0612125397" lon="29.9849939346"><time>2026-04-25T18:42:24Z</time></trkpt><trkpt lat="59.0611696243" lon="29.9849724770"><time>2026-04-25T18:42:27Z</time></trkpt><trkpt lat="59.0611696243" lon="29.9849510193"><time>2026-04-25T18:42:29Z</time></trkpt><trkpt lat="59.0611481667" lon="29.9849295616"><time>2026-04-25T18:42:32Z</time></trkpt><trkpt lat="59.0611052513" lon="29.9848866463"><time>2026-04-25T18:42:34Z</time></trkpt><trkpt lat="59.0610623360" lon="29.9848651886"><time>2026-04-25T18:42:37Z</time></trkpt><trkpt lat="59.0610623360" lon="29.9848437309"><time>2026-04-25T18:42:39Z</time></trkpt><trkpt lat="59.0610408783" lon="29.9848222733"><time>2026-04-25T18:42:42Z</time></trkpt><trkpt lat="59.0610194206" lon="29.9847579002"><time>2026-04-25T18:42:44Z</time></trkpt><trkpt lat="59.0610194206" lon="29.9846935272"><time>2026-04-25T18:42:47Z</time></trkpt><trkpt lat="59.0610194206" lon="29.9846291542"><time>2026-04-25T18:42:49Z</time></trkpt><trkpt lat="59.0610194206" lon="29.9846076965"><time>2026-04-25T18:42:52Z</time></trkpt><trkpt lat="59.0610194206" lon="29.9846076965"><time>2026-04-25T18:42:54Z</time></trkpt><trkpt lat="59.0609979630" lon="29.9845862389"><time>2026-04-25T18:42:57Z</time></trkpt><trkpt lat="59.0609979630" lon="29.9845862389"><time>2026-04-25T18:42:59Z</time></trkpt><trkpt lat="59.0609979630" lon="29.9845862389"><time>2026-04-25T18:43:02Z</time></trkpt><trkpt lat="59.0609979630" lon="29.9845862389"><time>2026-04-25T18:43:04Z</time></trkpt><trkpt lat="59.0609979630" lon="29.9845862389"><time>2026-04-25T18:43:07Z</time></trkpt><trkpt lat="59.0609979630" lon="29.9845862389"><time>2026-04-25T18:43:09Z</time></trkpt><trkpt lat="59.0609979630" lon="29.9845862389"><time>2026-04-25T18:43:12Z</time></trkpt><trkpt lat="59.0609979630" lon="29.9845862389"><time>2026-04-25T18:43:14Z</time></trkpt><trkpt lat="59.0609979630" lon="29.9845862389"><time>2026-04-25T18:43:17Z</time></trkpt><trkpt lat="59.0609765053" lon="29.9845862389"><time>2026-04-25T18:43:19Z</time></trkpt><trkpt lat="59.0609765053" lon="29.9845862389"><time>2026-04-25T18:43:22Z</time></trkpt><trkpt lat="59.0609765053" lon="29.9845862389"><time>2026-04-25T18:43:24Z</time></trkpt><trkpt lat="59.0609765053" lon="29.9845862389"><time>2026-04-25T18:43:27Z</time></trkpt><trkpt lat="59.0609765053" lon="29.9845862389"><time>2026-04-25T18:43:29Z</time></trkpt><trkpt lat="59.0609765053" lon="29.9845647812"><time>2026-04-25T18:43:32Z</time></trkpt><trkpt lat="59.0609335899" lon="29.9845004082"><time>2026-04-25T18:43:34Z</time></trkpt><trkpt lat="59.0609121323" lon="29.9844789505"><time>2026-04-25T18:43:37Z</time></trkpt><trkpt lat="59.0609121323" lon="29.9844574928"><time>2026-04-25T18:43:39Z</time></trkpt><trkpt lat="59.0609121323" lon="29.9844574928"><time>2026-04-25T18:43:42Z</time></trkpt><trkpt lat="59.0609121323" lon="29.9844574928"><time>2026-04-25T18:43:44Z</time></trkpt><trkpt lat="59.0609121323" lon="29.9844574928"><time>2026-04-25T18:43:47Z</time></trkpt><trkpt lat="59.0609121323" lon="29.9844574928"><time>2026-04-25T18:43:49Z</time></trkpt><trkpt lat="59.0609121323" lon="29.9844574928"><time>2026-04-25T18:43:52Z</time></trkpt><trkpt lat="59.0609121323" lon="29.9844574928"><time>2026-04-25T18:43:54Z</time></trkpt><trkpt lat="59.0609121323" lon="29.9844574928"><time>2026-04-25T18:43:57Z</time></trkpt><trkpt lat="59.0608692169" lon="29.9844574928"><time>2026-04-25T18:43:59Z</time></trkpt><trkpt lat="59.0608477592" lon="29.9844360352"><time>2026-04-25T18:44:02Z</time></trkpt><trkpt lat="59.0608048439" lon="29.9844145775"><time>2026-04-25T18:44:04Z</time></trkpt><trkpt lat="59.0608048439" lon="29.9844145775"><time>2026-04-25T18:44:07Z</time></trkpt><trkpt lat="59.0608048439" lon="29.9844145775"><time>2026-04-25T18:44:09Z</time></trkpt><trkpt lat="59.0608048439" lon="29.9844145775"><time>2026-04-25T18:44:12Z</time></trkpt><trkpt lat="59.0608048439" lon="29.9844145775"><time>2026-04-25T18:44:14Z</time></trkpt><trkpt lat="59.0608048439" lon="29.9844145775"><time>2026-04-25T18:44:17Z</time></trkpt><trkpt lat="59.0608048439" lon="29.9844145775"><time>2026-04-25T18:44:19Z</time></trkpt><trkpt lat="59.0608048439" lon="29.9844145775"><time>2026-04-25T18:44:22Z</time></trkpt><trkpt lat="59.0608048439" lon="29.9844145775"><time>2026-04-25T18:44:24Z</time></trkpt><trkpt lat="59.0608048439" lon="29.9844145775"><time>2026-04-25T18:44:27Z</time></trkpt><trkpt lat="59.0608048439" lon="29.9844145775"><time>2026-04-25T18:44:29Z</time></trkpt><trkpt lat="59.0608048439" lon="29.9844145775"><time>2026-04-25T18:44:32Z</time></trkpt><trkpt lat="59.0608048439" lon="29.9844145775"><time>2026-04-25T18:44:34Z</time></trkpt><trkpt lat="59.0608048439" lon="29.9844145775"><time>2026-04-25T18:44:37Z</time></trkpt><trkpt lat="59.0606975555" lon="29.9844145775"><time>2026-04-25T18:44:39Z</time></trkpt><trkpt lat="59.0606760979" lon="29.9843931198"><time>2026-04-25T18:44:42Z</time></trkpt><trkpt lat="59.0606760979" lon="29.9843931198"><time>2026-04-25T18:44:44Z</time></trkpt><trkpt lat="59.0606760979" lon="29.9843931198"><time>2026-04-25T18:44:47Z</time></trkpt><trkpt lat="59.0606546402" lon="29.9843716621"><time>2026-04-25T18:44:49Z</time></trkpt><trkpt lat="59.0606117249" lon="29.9843502045"><time>2026-04-25T18:44:52Z</time></trkpt><trkpt lat="59.0605688095" lon="29.9843287468"><time>2026-04-25T18:44:54Z</time></trkpt><trkpt lat="59.0605688095" lon="29.9843287468"><time>2026-04-25T18:44:57Z</time></trkpt><trkpt lat="59.0605258942" lon="29.9842858315"><time>2026-04-25T18:44:59Z</time></trkpt><trkpt lat="59.0605044365" lon="29.9842643738"><time>2026-04-25T18:45:02Z</time></trkpt><trkpt lat="59.0604829788" lon="29.9842643738"><time>2026-04-25T18:45:04Z</time></trkpt><trkpt lat="59.0604829788" lon="29.9842643738"><time>2026-04-25T18:45:07Z</time></trkpt><trkpt lat="59.0604829788" lon="29.9842643738"><time>2026-04-25T18:45:09Z</time></trkpt><trkpt lat="59.0604829788" lon="29.9842643738"><time>2026-04-25T18:45:12Z</time></trkpt><trkpt lat="59.0604829788" lon="29.9842643738"><time>2026-04-25T18:45:14Z</time></trkpt><trkpt lat="59.0604615211" lon="29.9842214584"><time>2026-04-25T18:45:17Z</time></trkpt><trkpt lat="59.0603756905" lon="29.9842000008"><time>2026-04-25T18:45:19Z</time></trkpt><trkpt lat="59.0603542328" lon="29.9842214584"><time>2026-04-25T18:45:22Z</time></trkpt><trkpt lat="59.0603542328" lon="29.9842214584"><time>2026-04-25T18:45:24Z</time></trkpt><trkpt lat="59.0603756905" lon="29.9842429161"><time>2026-04-25T18:45:27Z</time></trkpt><trkpt lat="59.0603756905" lon="29.9843072891"><time>2026-04-25T18:45:29Z</time></trkpt><trkpt lat="59.0603542328" lon="29.9843502045"><time>2026-04-25T18:45:32Z</time></trkpt><trkpt lat="59.0603327751" lon="29.9844360352"><time>2026-04-25T18:45:34Z</time></trkpt><trkpt lat="59.0603327751" lon="29.9844360352"><time>2026-04-25T18:45:37Z</time></trkpt><trkpt lat="59.0603113174" lon="29.9845004082"><time>2026-04-25T18:45:39Z</time></trkpt><trkpt lat="59.0603113174" lon="29.9845218658"><time>2026-04-25T18:45:42Z</time></trkpt><trkpt lat="59.0603113174" lon="29.9845433235"><time>2026-04-25T18:45:44Z</time></trkpt><trkpt lat="59.0603113174" lon="29.9845433235"><time>2026-04-25T18:45:47Z</time></trkpt><trkpt lat="59.0603113174" lon="29.9845433235"><time>2026-04-25T18:45:49Z</time></trkpt><trkpt lat="59.0603113174" lon="29.9845433235"><time>2026-04-25T18:45:52Z</time></trkpt><trkpt lat="59.0603113174" lon="29.9845433235"><time>2026-04-25T18:45:54Z</time></trkpt><trkpt lat="59.0603113174" lon="29.9845433235"><time>2026-04-25T18:45:57Z</time></trkpt><trkpt lat="59.0603113174" lon="29.9845004082"><time>2026-04-25T18:45:59Z</time></trkpt><trkpt lat="59.0603113174" lon="29.9844789505"><time>2026-04-25T18:46:02Z</time></trkpt><trkpt lat="59.0603113174" lon="29.9844789505"><time>2026-04-25T18:46:04Z</time></trkpt><trkpt lat="59.0603113174" lon="29.9844789505"><time>2026-04-25T18:46:07Z</time></trkpt><trkpt lat="59.0603113174" lon="29.9844789505"><time>2026-04-25T18:46:09Z</time></trkpt><trkpt lat="59.0603113174" lon="29.9844789505"><time>2026-04-25T18:46:12Z</time></trkpt><trkpt lat="59.0603113174" lon="29.9844789505"><time>2026-04-25T18:46:14Z</time></trkpt><trkpt lat="59.0603113174" lon="29.9844789505"><time>2026-04-25T18:46:17Z</time></trkpt><trkpt lat="59.0603113174" lon="29.9844789505"><time>2026-04-25T18:46:19Z</time></trkpt><trkpt lat="59.0603113174" lon="29.9844789505"><time>2026-04-25T18:46:22Z</time></trkpt><trkpt lat="59.0603113174" lon="29.9844789505"><time>2026-04-25T18:46:24Z</time></trkpt><trkpt lat="59.0603113174" lon="29.9844789505"><time>2026-04-25T18:46:27Z</time></trkpt><trkpt lat="59.0603113174" lon="29.9844789505"><time>2026-04-25T18:46:29Z</time></trkpt><trkpt lat="59.0603113174" lon="29.9844789505"><time>2026-04-25T18:46:32Z</time></trkpt><trkpt lat="59.0603113174" lon="29.9844789505"><time>2026-04-25T18:46:34Z</time></trkpt><trkpt lat="59.0603113174" lon="29.9844789505"><time>2026-04-25T18:46:37Z</time></trkpt><trkpt lat="59.0603113174" lon="29.9844789505"><time>2026-04-25T18:46:39Z</time></trkpt><trkpt lat="59.0603113174" lon="29.9844789505"><time>2026-04-25T18:46:42Z</time></trkpt><trkpt lat="59.0603113174" lon="29.9844789505"><time>2026-04-25T18:46:44Z</time></trkpt><trkpt lat="59.0603113174" lon="29.9844789505"><time>2026-04-25T18:46:47Z</time></trkpt><trkpt lat="59.0603113174" lon="29.9844789505"><time>2026-04-25T18:46:49Z</time></trkpt><trkpt lat="59.0603113174" lon="29.9844789505"><time>2026-04-25T18:46:52Z</time></trkpt><trkpt lat="59.0603113174" lon="29.9844789505"><time>2026-04-25T18:46:54Z</time></trkpt><trkpt lat="59.0603113174" lon="29.9844360352"><time>2026-04-25T18:46:57Z</time></trkpt><trkpt lat="59.0603113174" lon="29.9844360352"><time>2026-04-25T18:46:59Z</time></trkpt><trkpt lat="59.0603113174" lon="29.9844360352"><time>2026-04-25T18:47:02Z</time></trkpt><trkpt lat="59.0603113174" lon="29.9843931198"><time>2026-04-25T18:47:04Z</time></trkpt><trkpt lat="59.0603113174" lon="29.9843931198"><time>2026-04-25T18:47:07Z</time></trkpt><trkpt lat="59.0603113174" lon="29.9843931198"><time>2026-04-25T18:47:09Z</time></trkpt><trkpt lat="59.0603113174" lon="29.9843931198"><time>2026-04-25T18:47:12Z</time></trkpt><trkpt lat="59.0603113174" lon="29.9843287468"><time>2026-04-25T18:47:14Z</time></trkpt><trkpt lat="59.0603113174" lon="29.9842858315"><time>2026-04-25T18:47:17Z</time></trkpt><trkpt lat="59.0603113174" lon="29.9842214584"><time>2026-04-25T18:47:19Z</time></trkpt><trkpt lat="59.0603113174" lon="29.9842000008"><time>2026-04-25T18:47:22Z</time></trkpt><trkpt lat="59.0602898598" lon="29.9841570854"><time>2026-04-25T18:47:24Z</time></trkpt><trkpt lat="59.0602898598" lon="29.9841570854"><time>2026-04-25T18:47:27Z</time></trkpt><trkpt lat="59.0602898598" lon="29.9841570854"><time>2026-04-25T18:47:29Z</time></trkpt><trkpt lat="59.0602898598" lon="29.9841570854"><time>2026-04-25T18:47:32Z</time></trkpt><trkpt lat="59.0602898598" lon="29.9841570854"><time>2026-04-25T18:47:34Z</time></trkpt><trkpt lat="59.0602898598" lon="29.9841570854"><time>2026-04-25T18:47:37Z</time></trkpt><trkpt lat="59.0602469444" lon="29.9841356277"><time>2026-04-25T18:47:39Z</time></trkpt><trkpt lat="59.0602254868" lon="29.9840927124"><time>2026-04-25T18:47:42Z</time></trkpt><trkpt lat="59.0602040291" lon="29.9840712547"><time>2026-04-25T18:47:44Z</time></trkpt><trkpt lat="59.0602040291" lon="29.9840497971"><time>2026-04-25T18:47:47Z</time></trkpt><trkpt lat="59.0601825714" lon="29.9839854240"><time>2026-04-25T18:47:49Z</time></trkpt><trkpt lat="59.0601611137" lon="29.9839639664"><time>2026-04-25T18:47:52Z</time></trkpt><trkpt lat="59.0601396561" lon="29.9839210510"><time>2026-04-25T18:47:54Z</time></trkpt><trkpt lat="59.0601396561" lon="29.9839210510"><time>2026-04-25T18:47:57Z</time></trkpt><trkpt lat="59.0601396561" lon="29.9839210510"><time>2026-04-25T18:47:59Z</time></trkpt><trkpt lat="59.0601396561" lon="29.9839210510"><time>2026-04-25T18:48:02Z</time></trkpt><trkpt lat="59.0601181984" lon="29.9839425087"><time>2026-04-25T18:48:04Z</time></trkpt><trkpt lat="59.0600967407" lon="29.9839639664"><time>2026-04-25T18:48:07Z</time></trkpt><trkpt lat="59.0600752831" lon="29.9839425087"><time>2026-04-25T18:48:09Z</time></trkpt><trkpt lat="59.0600323677" lon="29.9838995934"><time>2026-04-25T18:48:12Z</time></trkpt><trkpt lat="59.0600109100" lon="29.9838781357"><time>2026-04-25T18:48:14Z</time></trkpt><trkpt lat="59.0599894524" lon="29.9838566780"><time>2026-04-25T18:48:17Z</time></trkpt><trkpt lat="59.0599679947" lon="29.9838352203"><time>2026-04-25T18:48:19Z</time></trkpt><trkpt lat="59.0599679947" lon="29.9837708473"><time>2026-04-25T18:48:22Z</time></trkpt><trkpt lat="59.0599465370" lon="29.9837279320"><time>2026-04-25T18:48:24Z</time></trkpt><trkpt lat="59.0599465370" lon="29.9836635590"><time>2026-04-25T18:48:27Z</time></trkpt><trkpt lat="59.0599465370" lon="29.9836421013"><time>2026-04-25T18:48:29Z</time></trkpt><trkpt lat="59.0599036217" lon="29.9836421013"><time>2026-04-25T18:48:32Z</time></trkpt><trkpt lat="59.0598821640" lon="29.9836421013"><time>2026-04-25T18:48:34Z</time></trkpt><trkpt lat="59.0598392487" lon="29.9836421013"><time>2026-04-25T18:48:37Z</time></trkpt><trkpt lat="59.0598177910" lon="29.9836635590"><time>2026-04-25T18:48:39Z</time></trkpt><trkpt lat="59.0597963333" lon="29.9836850166"><time>2026-04-25T18:48:42Z</time></trkpt><trkpt lat="59.0597963333" lon="29.9837064743"><time>2026-04-25T18:48:44Z</time></trkpt><trkpt lat="59.0597748756" lon="29.9837493896"><time>2026-04-25T18:48:47Z</time></trkpt><trkpt lat="59.0597748756" lon="29.9837708473"><time>2026-04-25T18:48:49Z</time></trkpt><trkpt lat="59.0597319603" lon="29.9837708473"><time>2026-04-25T18:48:52Z</time></trkpt><trkpt lat="59.0597105026" lon="29.9838137627"><time>2026-04-25T18:48:54Z</time></trkpt><trkpt lat="59.0596890450" lon="29.9838781357"><time>2026-04-25T18:48:57Z</time></trkpt><trkpt lat="59.0596675873" lon="29.9838781357"><time>2026-04-25T18:48:59Z</time></trkpt><trkpt lat="59.0596461296" lon="29.9838781357"><time>2026-04-25T18:49:02Z</time></trkpt><trkpt lat="59.0596461296" lon="29.9838781357"><time>2026-04-25T18:49:04Z</time></trkpt><trkpt lat="59.0596032143" lon="29.9838995934"><time>2026-04-25T18:49:07Z</time></trkpt><trkpt lat="59.0595602989" lon="29.9838995934"><time>2026-04-25T18:49:09Z</time></trkpt><trkpt lat="59.0595602989" lon="29.9839210510"><time>2026-04-25T18:49:12Z</time></trkpt><trkpt lat="59.0595388412" lon="29.9839425087"><time>2026-04-25T18:49:14Z</time></trkpt><trkpt lat="59.0595173836" lon="29.9839425087"><time>2026-04-25T18:49:17Z</time></trkpt><trkpt lat="59.0594744682" lon="29.9839639664"><time>2026-04-25T18:49:19Z</time></trkpt><trkpt lat="59.0594315529" lon="29.9839639664"><time>2026-04-25T18:49:22Z</time></trkpt><trkpt lat="59.0594100952" lon="29.9839425087"><time>2026-04-25T18:49:24Z</time></trkpt><trkpt lat="59.0593886375" lon="29.9839425087"><time>2026-04-25T18:49:27Z</time></trkpt><trkpt lat="59.0593671799" lon="29.9838995934"><time>2026-04-25T18:49:29Z</time></trkpt><trkpt lat="59.0593671799" lon="29.9838995934"><time>2026-04-25T18:49:32Z</time></trkpt><trkpt lat="59.0593671799" lon="29.9838995934"><time>2026-04-25T18:49:34Z</time></trkpt><trkpt lat="59.0593671799" lon="29.9838995934"><time>2026-04-25T18:49:37Z</time></trkpt><trkpt lat="59.0593457222" lon="29.9838995934"><time>2026-04-25T18:49:39Z</time></trkpt><trkpt lat="59.0593457222" lon="29.9838995934"><time>2026-04-25T18:49:42Z</time></trkpt><trkpt lat="59.0593242645" lon="29.9838781357"><time>2026-04-25T18:49:44Z</time></trkpt><trkpt lat="59.0593242645" lon="29.9838781357"><time>2026-04-25T18:49:47Z</time></trkpt><trkpt lat="59.0593242645" lon="29.9838781357"><time>2026-04-25T18:49:49Z</time></trkpt><trkpt lat="59.0593028069" lon="29.9838781357"><time>2026-04-25T18:49:52Z</time></trkpt><trkpt lat="59.0592598915" lon="29.9838781357"><time>2026-04-25T18:49:54Z</time></trkpt><trkpt lat="59.0592598915" lon="29.9838781357"><time>2026-04-25T18:49:57Z</time></trkpt><trkpt lat="59.0592169762" lon="29.9838352203"><time>2026-04-25T18:49:59Z</time></trkpt><trkpt lat="59.0592169762" lon="29.9837923050"><time>2026-04-25T18:50:02Z</time></trkpt><trkpt lat="59.0592169762" lon="29.9837279320"><time>2026-04-25T18:50:04Z</time></trkpt><trkpt lat="59.0591955185" lon="29.9837064743"><time>2026-04-25T18:50:07Z</time></trkpt><trkpt lat="59.0591740608" lon="29.9836850166"><time>2026-04-25T18:50:09Z</time></trkpt><trkpt lat="59.0591740608" lon="29.9836850166"><time>2026-04-25T18:50:12Z</time></trkpt><trkpt lat="59.0591526031" lon="29.9836421013"><time>2026-04-25T18:50:14Z</time></trkpt><trkpt lat="59.0591526031" lon="29.9836635590"><time>2026-04-25T18:50:17Z</time></trkpt><trkpt lat="59.0591311455" lon="29.9837064743"><time>2026-04-25T18:50:19Z</time></trkpt><trkpt lat="59.0591096878" lon="29.9836850166"><time>2026-04-25T18:50:22Z</time></trkpt><trkpt lat="59.0590667725" lon="29.9836421013"><time>2026-04-25T18:50:24Z</time></trkpt><trkpt lat="59.0590667725" lon="29.9836206436"><time>2026-04-25T18:50:27Z</time></trkpt><trkpt lat="59.0590453148" lon="29.9836421013"><time>2026-04-25T18:50:29Z</time></trkpt><trkpt lat="59.0590238571" lon="29.9836421013"><time>2026-04-25T18:50:32Z</time></trkpt><trkpt lat="59.0590238571" lon="29.9836635590"><time>2026-04-25T18:50:34Z</time></trkpt><trkpt lat="59.0590238571" lon="29.9836635590"><time>2026-04-25T18:50:37Z</time></trkpt><trkpt lat="59.0590238571" lon="29.9836635590"><time>2026-04-25T18:50:39Z</time></trkpt><trkpt lat="59.0590023994" lon="29.9836635590"><time>2026-04-25T18:50:42Z</time></trkpt><trkpt lat="59.0589594841" lon="29.9836421013"><time>2026-04-25T18:50:44Z</time></trkpt><trkpt lat="59.0589380264" lon="29.9836421013"><time>2026-04-25T18:50:47Z</time></trkpt><trkpt lat="59.0589380264" lon="29.9836421013"><time>2026-04-25T18:50:49Z</time></trkpt><trkpt lat="59.0589380264" lon="29.9836421013"><time>2026-04-25T18:50:52Z</time></trkpt><trkpt lat="59.0589380264" lon="29.9836421013"><time>2026-04-25T18:50:54Z</time></trkpt><trkpt lat="59.0589380264" lon="29.9836421013"><time>2026-04-25T18:50:57Z</time></trkpt><trkpt lat="59.0589380264" lon="29.9836421013"><time>2026-04-25T18:50:59Z</time></trkpt><trkpt lat="59.0589380264" lon="29.9836421013"><time>2026-04-25T18:51:02Z</time></trkpt><trkpt lat="59.0589380264" lon="29.9836421013"><time>2026-04-25T18:51:04Z</time></trkpt><trkpt lat="59.0589380264" lon="29.9836421013"><time>2026-04-25T18:51:07Z</time></trkpt><trkpt lat="59.0589380264" lon="29.9836421013"><time>2026-04-25T18:51:09Z</time></trkpt><trkpt lat="59.0589380264" lon="29.9836421013"><time>2026-04-25T18:51:12Z</time></trkpt><trkpt lat="59.0589380264" lon="29.9836421013"><time>2026-04-25T18:51:14Z</time></trkpt><trkpt lat="59.0589380264" lon="29.9836421013"><time>2026-04-25T18:51:17Z</time></trkpt><trkpt lat="59.0589380264" lon="29.9836421013"><time>2026-04-25T18:51:19Z</time></trkpt><trkpt lat="59.0589380264" lon="29.9836421013"><time>2026-04-25T18:51:22Z</time></trkpt><trkpt lat="59.0589380264" lon="29.9836421013"><time>2026-04-25T18:51:24Z</time></trkpt><trkpt lat="59.0589165688" lon="29.9836421013"><time>2026-04-25T18:51:27Z</time></trkpt><trkpt lat="59.0589165688" lon="29.9836421013"><time>2026-04-25T18:51:29Z</time></trkpt><trkpt lat="59.0589165688" lon="29.9836421013"><time>2026-04-25T18:51:32Z</time></trkpt><trkpt lat="59.0588736534" lon="29.9835777283"><time>2026-04-25T18:51:34Z</time></trkpt><trkpt lat="59.0588736534" lon="29.9835348129"><time>2026-04-25T18:51:37Z</time></trkpt><trkpt lat="59.0588521957" lon="29.9835348129"><time>2026-04-25T18:51:39Z</time></trkpt><trkpt lat="59.0588521957" lon="29.9835348129"><time>2026-04-25T18:51:42Z</time></trkpt><trkpt lat="59.0588521957" lon="29.9835133553"><time>2026-04-25T18:51:44Z</time></trkpt><trkpt lat="59.0588092804" lon="29.9834918976"><time>2026-04-25T18:51:47Z</time></trkpt><trkpt lat="59.0587449074" lon="29.9834704399"><time>2026-04-25T18:51:49Z</time></trkpt><trkpt lat="59.0586805344" lon="29.9834704399"><time>2026-04-25T18:51:52Z</time></trkpt><trkpt lat="59.0586376190" lon="29.9834704399"><time>2026-04-25T18:51:54Z</time></trkpt><trkpt lat="59.0585947037" lon="29.9834704399"><time>2026-04-25T18:51:57Z</time></trkpt><trkpt lat="59.0585303307" lon="29.9834275246"><time>2026-04-25T18:51:59Z</time></trkpt><trkpt lat="59.0584659576" lon="29.9834060669"><time>2026-04-25T18:52:02Z</time></trkpt><trkpt lat="59.0584015846" lon="29.9833846092"><time>2026-04-25T18:52:04Z</time></trkpt><trkpt lat="59.0583801270" lon="29.9833631516"><time>2026-04-25T18:52:07Z</time></trkpt><trkpt lat="59.0583586693" lon="29.9833846092"><time>2026-04-25T18:52:09Z</time></trkpt><trkpt lat="59.0583372116" lon="29.9834275246"><time>2026-04-25T18:52:12Z</time></trkpt><trkpt lat="59.0583157539" lon="29.9834275246"><time>2026-04-25T18:52:14Z</time></trkpt><trkpt lat="59.0583157539" lon="29.9834275246"><time>2026-04-25T18:52:17Z</time></trkpt><trkpt lat="59.0583157539" lon="29.9834275246"><time>2026-04-25T18:52:19Z</time></trkpt><trkpt lat="59.0583157539" lon="29.9834275246"><time>2026-04-25T18:52:22Z</time></trkpt><trkpt lat="59.0583157539" lon="29.9834275246"><time>2026-04-25T18:52:24Z</time></trkpt><trkpt lat="59.0582942963" lon="29.9833846092"><time>2026-04-25T18:52:27Z</time></trkpt><trkpt lat="59.0582942963" lon="29.9833631516"><time>2026-04-25T18:52:29Z</time></trkpt><trkpt lat="59.0582728386" lon="29.9833416939"><time>2026-04-25T18:52:32Z</time></trkpt><trkpt lat="59.0582728386" lon="29.9833202362"><time>2026-04-25T18:52:34Z</time></trkpt><trkpt lat="59.0582513809" lon="29.9832773209"><time>2026-04-25T18:52:37Z</time></trkpt><trkpt lat="59.0582299232" lon="29.9832344055"><time>2026-04-25T18:52:39Z</time></trkpt><trkpt lat="59.0582299232" lon="29.9831914902"><time>2026-04-25T18:52:42Z</time></trkpt><trkpt lat="59.0581870079" lon="29.9831485748"><time>2026-04-25T18:52:44Z</time></trkpt><trkpt lat="59.0581655502" lon="29.9831485748"><time>2026-04-25T18:52:47Z</time></trkpt><trkpt lat="59.0581440926" lon="29.9831700325"><time>2026-04-25T18:52:49Z</time></trkpt><trkpt lat="59.0581226349" lon="29.9831700325"><time>2026-04-25T18:52:52Z</time></trkpt><trkpt lat="59.0580797195" lon="29.9831700325"><time>2026-04-25T18:52:54Z</time></trkpt><trkpt lat="59.0580582619" lon="29.9832129478"><time>2026-04-25T18:52:57Z</time></trkpt><trkpt lat="59.0580368042" lon="29.9832773209"><time>2026-04-25T18:52:59Z</time></trkpt><trkpt lat="59.0579724312" lon="29.9832987785"><time>2026-04-25T18:53:02Z</time></trkpt><trkpt lat="59.0579080582" lon="29.9832773209"><time>2026-04-25T18:53:04Z</time></trkpt><trkpt lat="59.0579080582" lon="29.9832773209"><time>2026-04-25T18:53:07Z</time></trkpt><trkpt lat="59.0578866005" lon="29.9832773209"><time>2026-04-25T18:53:09Z</time></trkpt><trkpt lat="59.0578866005" lon="29.9832773209"><time>2026-04-25T18:53:12Z</time></trkpt><trkpt lat="59.0578866005" lon="29.9832773209"><time>2026-04-25T18:53:14Z</time></trkpt><trkpt lat="59.0578651428" lon="29.9832558632"><time>2026-04-25T18:53:17Z</time></trkpt><trkpt lat="59.0578436852" lon="29.9831914902"><time>2026-04-25T18:53:19Z</time></trkpt><trkpt lat="59.0578222275" lon="29.9831914902"><time>2026-04-25T18:53:22Z</time></trkpt><trkpt lat="59.0578007698" lon="29.9831485748"><time>2026-04-25T18:53:24Z</time></trkpt><trkpt lat="59.0577793121" lon="29.9831485748"><time>2026-04-25T18:53:27Z</time></trkpt><trkpt lat="59.0577578545" lon="29.9831485748"><time>2026-04-25T18:53:29Z</time></trkpt><trkpt lat="59.0577363968" lon="29.9831700325"><time>2026-04-25T18:53:32Z</time></trkpt><trkpt lat="59.0577363968" lon="29.9831700325"><time>2026-04-25T18:53:34Z</time></trkpt><trkpt lat="59.0577363968" lon="29.9831700325"><time>2026-04-25T18:53:37Z</time></trkpt><trkpt lat="59.0577363968" lon="29.9831700325"><time>2026-04-25T18:53:39Z</time></trkpt><trkpt lat="59.0577363968" lon="29.9831700325"><time>2026-04-25T18:53:42Z</time></trkpt><trkpt lat="59.0577363968" lon="29.9831700325"><time>2026-04-25T18:53:44Z</time></trkpt><trkpt lat="59.0577363968" lon="29.9831700325"><time>2026-04-25T18:53:47Z</time></trkpt><trkpt lat="59.0577363968" lon="29.9831700325"><time>2026-04-25T18:53:49Z</time></trkpt><trkpt lat="59.0577363968" lon="29.9831700325"><time>2026-04-25T18:53:52Z</time></trkpt><trkpt lat="59.0577363968" lon="29.9831700325"><time>2026-04-25T18:53:54Z</time></trkpt><trkpt lat="59.0577363968" lon="29.9831700325"><time>2026-04-25T18:53:57Z</time></trkpt><trkpt lat="59.0577363968" lon="29.9831700325"><time>2026-04-25T18:53:59Z</time></trkpt><trkpt lat="59.0577363968" lon="29.9831700325"><time>2026-04-25T18:54:02Z</time></trkpt><trkpt lat="59.0577149391" lon="29.9831485748"><time>2026-04-25T18:54:04Z</time></trkpt><trkpt lat="59.0576720238" lon="29.9831271172"><time>2026-04-25T18:54:07Z</time></trkpt><trkpt lat="59.0576291084" lon="29.9831271172"><time>2026-04-25T18:54:09Z</time></trkpt><trkpt lat="59.0575861931" lon="29.9831056595"><time>2026-04-25T18:54:12Z</time></trkpt><trkpt lat="59.0575432777" lon="29.9830627441"><time>2026-04-25T18:54:14Z</time></trkpt><trkpt lat="59.0575003624" lon="29.9830627441"><time>2026-04-25T18:54:17Z</time></trkpt><trkpt lat="59.0575003624" lon="29.9830412865"><time>2026-04-25T18:54:19Z</time></trkpt><trkpt lat="59.0574574471" lon="29.9830198288"><time>2026-04-25T18:54:22Z</time></trkpt><trkpt lat="59.0574359894" lon="29.9830198288"><time>2026-04-25T18:54:24Z</time></trkpt><trkpt lat="59.0574145317" lon="29.9830198288"><time>2026-04-25T18:54:27Z</time></trkpt><trkpt lat="59.0573716164" lon="29.9829983711"><time>2026-04-25T18:54:29Z</time></trkpt><trkpt lat="59.0573716164" lon="29.9829983711"><time>2026-04-25T18:54:32Z</time></trkpt><trkpt lat="59.0573716164" lon="29.9829983711"><time>2026-04-25T18:54:34Z</time></trkpt><trkpt lat="59.0573716164" lon="29.9829983711"><time>2026-04-25T18:54:37Z</time></trkpt><trkpt lat="59.0573716164" lon="29.9829983711"><time>2026-04-25T18:54:39Z</time></trkpt><trkpt lat="59.0573716164" lon="29.9829983711"><time>2026-04-25T18:54:42Z</time></trkpt><trkpt lat="59.0573716164" lon="29.9829983711"><time>2026-04-25T18:54:44Z</time></trkpt><trkpt lat="59.0573716164" lon="29.9829983711"><time>2026-04-25T18:54:47Z</time></trkpt><trkpt lat="59.0573716164" lon="29.9829983711"><time>2026-04-25T18:54:49Z</time></trkpt><trkpt lat="59.0573501587" lon="29.9829769135"><time>2026-04-25T18:54:52Z</time></trkpt><trkpt lat="59.0573287010" lon="29.9829339981"><time>2026-04-25T18:54:54Z</time></trkpt><trkpt lat="59.0573072433" lon="29.9829125404"><time>2026-04-25T18:54:57Z</time></trkpt><trkpt lat="59.0572857857" lon="29.9828910828"><time>2026-04-25T18:54:59Z</time></trkpt><trkpt lat="59.0572428703" lon="29.9828910828"><time>2026-04-25T18:55:02Z</time></trkpt><trkpt lat="59.0572428703" lon="29.9828910828"><time>2026-04-25T18:55:04Z</time></trkpt><trkpt lat="59.0572428703" lon="29.9828910828"><time>2026-04-25T18:55:07Z</time></trkpt><trkpt lat="59.0571784973" lon="29.9828481674"><time>2026-04-25T18:55:09Z</time></trkpt><trkpt lat="59.0571570396" lon="29.9828267097"><time>2026-04-25T18:55:12Z</time></trkpt><trkpt lat="59.0571141243" lon="29.9828052521"><time>2026-04-25T18:55:14Z</time></trkpt><trkpt lat="59.0570926666" lon="29.9828267097"><time>2026-04-25T18:55:17Z</time></trkpt><trkpt lat="59.0570497513" lon="29.9827837944"><time>2026-04-25T18:55:19Z</time></trkpt><trkpt lat="59.0570068359" lon="29.9827623367"><time>2026-04-25T18:55:22Z</time></trkpt><trkpt lat="59.0569639206" lon="29.9827623367"><time>2026-04-25T18:55:24Z</time></trkpt><trkpt lat="59.0569639206" lon="29.9827408791"><time>2026-04-25T18:55:27Z</time></trkpt><trkpt lat="59.0569424629" lon="29.9827408791"><time>2026-04-25T18:55:29Z</time></trkpt><trkpt lat="59.0569424629" lon="29.9827623367"><time>2026-04-25T18:55:32Z</time></trkpt><trkpt lat="59.0569210052" lon="29.9828267097"><time>2026-04-25T18:55:34Z</time></trkpt><trkpt lat="59.0569210052" lon="29.9828267097"><time>2026-04-25T18:55:37Z</time></trkpt><trkpt lat="59.0569210052" lon="29.9828481674"><time>2026-04-25T18:55:39Z</time></trkpt><trkpt lat="59.0568995476" lon="29.9828696251"><time>2026-04-25T18:55:42Z</time></trkpt><trkpt lat="59.0568780899" lon="29.9829125404"><time>2026-04-25T18:55:44Z</time></trkpt><trkpt lat="59.0568566322" lon="29.9829125404"><time>2026-04-25T18:55:47Z</time></trkpt><trkpt lat="59.0568351746" lon="29.9829339981"><time>2026-04-25T18:55:49Z</time></trkpt><trkpt lat="59.0568137169" lon="29.9829125404"><time>2026-04-25T18:55:52Z</time></trkpt><trkpt lat="59.0568137169" lon="29.9829125404"><time>2026-04-25T18:55:54Z</time></trkpt><trkpt lat="59.0568137169" lon="29.9829125404"><time>2026-04-25T18:55:57Z</time></trkpt><trkpt lat="59.0568137169" lon="29.9829125404"><time>2026-04-25T18:55:59Z</time></trkpt><trkpt lat="59.0568137169" lon="29.9829339981"><time>2026-04-25T18:56:02Z</time></trkpt><trkpt lat="59.0567922592" lon="29.9829769135"><time>2026-04-25T18:56:04Z</time></trkpt><trkpt lat="59.0567708015" lon="29.9829339981"><time>2026-04-25T18:56:07Z</time></trkpt><trkpt lat="59.0567493439" lon="29.9828910828"><time>2026-04-25T18:56:09Z</time></trkpt><trkpt lat="59.0567278862" lon="29.9828481674"><time>2026-04-25T18:56:12Z</time></trkpt><trkpt lat="59.0567064285" lon="29.9828267097"><time>2026-04-25T18:56:14Z</time></trkpt><trkpt lat="59.0567064285" lon="29.9828267097"><time>2026-04-25T18:56:17Z</time></trkpt><trkpt lat="59.0566635132" lon="29.9827837944"><time>2026-04-25T18:56:19Z</time></trkpt><trkpt lat="59.0566420555" lon="29.9827837944"><time>2026-04-25T18:56:22Z</time></trkpt><trkpt lat="59.0566205978" lon="29.9827623367"><time>2026-04-25T18:56:24Z</time></trkpt><trkpt lat="59.0565991402" lon="29.9827408791"><time>2026-04-25T18:56:27Z</time></trkpt><trkpt lat="59.0565562248" lon="29.9827194214"><time>2026-04-25T18:56:29Z</time></trkpt><trkpt lat="59.0565562248" lon="29.9827408791"><time>2026-04-25T18:56:32Z</time></trkpt><trkpt lat="59.0565562248" lon="29.9827408791"><time>2026-04-25T18:56:34Z</time></trkpt><trkpt lat="59.0565347672" lon="29.9827194214"><time>2026-04-25T18:56:37Z</time></trkpt><trkpt lat="59.0565133095" lon="29.9826550484"><time>2026-04-25T18:56:39Z</time></trkpt><trkpt lat="59.0565133095" lon="29.9826121330"><time>2026-04-25T18:56:42Z</time></trkpt><trkpt lat="59.0564918518" lon="29.9826121330"><time>2026-04-25T18:56:44Z</time></trkpt><trkpt lat="59.0564703941" lon="29.9826121330"><time>2026-04-25T18:56:47Z</time></trkpt><trkpt lat="59.0564060211" lon="29.9825906754"><time>2026-04-25T18:56:49Z</time></trkpt><trkpt lat="59.0563631058" lon="29.9825692177"><time>2026-04-25T18:56:52Z</time></trkpt><trkpt lat="59.0563201904" lon="29.9825692177"><time>2026-04-25T18:56:54Z</time></trkpt><trkpt lat="59.0562987328" lon="29.9825692177"><time>2026-04-25T18:56:57Z</time></trkpt><trkpt lat="59.0562772751" lon="29.9826121330"><time>2026-04-25T18:56:59Z</time></trkpt><trkpt lat="59.0562772751" lon="29.9826550484"><time>2026-04-25T18:57:02Z</time></trkpt><trkpt lat="59.0562772751" lon="29.9827408791"><time>2026-04-25T18:57:04Z</time></trkpt><trkpt lat="59.0562558174" lon="29.9827623367"><time>2026-04-25T18:57:07Z</time></trkpt><trkpt lat="59.0562772751" lon="29.9826979637"><time>2026-04-25T18:57:09Z</time></trkpt><trkpt lat="59.0562558174" lon="29.9826121330"><time>2026-04-25T18:57:12Z</time></trkpt><trkpt lat="59.0562343597" lon="29.9824619293"><time>2026-04-25T18:57:14Z</time></trkpt><trkpt lat="59.0562343597" lon="29.9823760986"><time>2026-04-25T18:57:17Z</time></trkpt><trkpt lat="59.0562129021" lon="29.9822688103"><time>2026-04-25T18:57:19Z</time></trkpt><trkpt lat="59.0562129021" lon="29.9822044373"><time>2026-04-25T18:57:22Z</time></trkpt><trkpt lat="59.0561914444" lon="29.9821400642"><time>2026-04-25T18:57:24Z</time></trkpt><trkpt lat="59.0561914444" lon="29.9821400642"><time>2026-04-25T18:57:27Z</time></trkpt><trkpt lat="59.0561914444" lon="29.9821400642"><time>2026-04-25T18:57:29Z</time></trkpt><trkpt lat="59.0562129021" lon="29.9821829796"><time>2026-04-25T18:57:32Z</time></trkpt><trkpt lat="59.0562343597" lon="29.9824190140"><time>2026-04-25T18:57:34Z</time></trkpt><trkpt lat="59.0562343597" lon="29.9825477600"><time>2026-04-25T18:57:37Z</time></trkpt><trkpt lat="59.0562343597" lon="29.9826335907"><time>2026-04-25T18:57:39Z</time></trkpt><trkpt lat="59.0562129021" lon="29.9826335907"><time>2026-04-25T18:57:42Z</time></trkpt><trkpt lat="59.0561914444" lon="29.9826550484"><time>2026-04-25T18:57:44Z</time></trkpt><trkpt lat="59.0561699867" lon="29.9826765060"><time>2026-04-25T18:57:47Z</time></trkpt><trkpt lat="59.0561485291" lon="29.9826765060"><time>2026-04-25T18:57:49Z</time></trkpt><trkpt lat="59.0561485291" lon="29.9826121330"><time>2026-04-25T18:57:52Z</time></trkpt><trkpt lat="59.0561270714" lon="29.9824833870"><time>2026-04-25T18:57:54Z</time></trkpt><trkpt lat="59.0561270714" lon="29.9824190140"><time>2026-04-25T18:57:57Z</time></trkpt><trkpt lat="59.0561056137" lon="29.9823331833"><time>2026-04-25T18:57:59Z</time></trkpt><trkpt lat="59.0561056137" lon="29.9822902679"><time>2026-04-25T18:58:02Z</time></trkpt><trkpt lat="59.0561270714" lon="29.9823331833"><time>2026-04-25T18:58:04Z</time></trkpt><trkpt lat="59.0561270714" lon="29.9823975563"><time>2026-04-25T18:58:07Z</time></trkpt><trkpt lat="59.0561485291" lon="29.9824404716"><time>2026-04-25T18:58:09Z</time></trkpt><trkpt lat="59.0561485291" lon="29.9824404716"><time>2026-04-25T18:58:12Z</time></trkpt><trkpt lat="59.0561485291" lon="29.9824190140"><time>2026-04-25T18:58:14Z</time></trkpt><trkpt lat="59.0561485291" lon="29.9823760986"><time>2026-04-25T18:58:17Z</time></trkpt><trkpt lat="59.0561485291" lon="29.9823760986"><time>2026-04-25T18:58:19Z</time></trkpt><trkpt lat="59.0561485291" lon="29.9823760986"><time>2026-04-25T18:58:22Z</time></trkpt><trkpt lat="59.0561485291" lon="29.9823760986"><time>2026-04-25T18:58:24Z</time></trkpt><trkpt lat="59.0561485291" lon="29.9823760986"><time>2026-04-25T18:58:27Z</time></trkpt><trkpt lat="59.0561485291" lon="29.9823760986"><time>2026-04-25T18:58:29Z</time></trkpt><trkpt lat="59.0561485291" lon="29.9823760986"><time>2026-04-25T18:58:32Z</time></trkpt><trkpt lat="59.0561485291" lon="29.9823760986"><time>2026-04-25T18:58:34Z</time></trkpt><trkpt lat="59.0561485291" lon="29.9823760986"><time>2026-04-25T18:58:37Z</time></trkpt><trkpt lat="59.0561485291" lon="29.9823760986"><time>2026-04-25T18:58:39Z</time></trkpt><trkpt lat="59.0561485291" lon="29.9823760986"><time>2026-04-25T18:58:42Z</time></trkpt><trkpt lat="59.0561485291" lon="29.9823760986"><time>2026-04-25T18:58:44Z</time></trkpt><trkpt lat="59.0561485291" lon="29.9823760986"><time>2026-04-25T18:58:47Z</time></trkpt><trkpt lat="59.0561485291" lon="29.9823760986"><time>2026-04-25T18:58:49Z</time></trkpt><trkpt lat="59.0561485291" lon="29.9823760986"><time>2026-04-25T18:58:52Z</time></trkpt><trkpt lat="59.0561485291" lon="29.9823760986"><time>2026-04-25T18:58:54Z</time></trkpt><trkpt lat="59.0561485291" lon="29.9823760986"><time>2026-04-25T18:58:57Z</time></trkpt><trkpt lat="59.0561485291" lon="29.9823760986"><time>2026-04-25T18:58:59Z</time></trkpt><trkpt lat="59.0561485291" lon="29.9823760986"><time>2026-04-25T18:59:02Z</time></trkpt><trkpt lat="59.0561485291" lon="29.9823760986"><time>2026-04-25T18:59:04Z</time></trkpt><trkpt lat="59.0561485291" lon="29.9823760986"><time>2026-04-25T18:59:07Z</time></trkpt><trkpt lat="59.0561485291" lon="29.9823760986"><time>2026-04-25T18:59:09Z</time></trkpt><trkpt lat="59.0561485291" lon="29.9823760986"><time>2026-04-25T18:59:12Z</time></trkpt><trkpt lat="59.0561485291" lon="29.9823760986"><time>2026-04-25T18:59:14Z</time></trkpt><trkpt lat="59.0561485291" lon="29.9823760986"><time>2026-04-25T18:59:17Z</time></trkpt><trkpt lat="59.0561485291" lon="29.9823975563"><time>2026-04-25T18:59:19Z</time></trkpt><trkpt lat="59.0561485291" lon="29.9823975563"><time>2026-04-25T18:59:22Z</time></trkpt><trkpt lat="59.0561485291" lon="29.9824190140"><time>2026-04-25T18:59:24Z</time></trkpt><trkpt lat="59.0561485291" lon="29.9823975563"><time>2026-04-25T18:59:27Z</time></trkpt><trkpt lat="59.0561485291" lon="29.9823975563"><time>2026-04-25T18:59:29Z</time></trkpt><trkpt lat="59.0561485291" lon="29.9824190140"><time>2026-04-25T18:59:32Z</time></trkpt><trkpt lat="59.0561485291" lon="29.9823975563"><time>2026-04-25T18:59:34Z</time></trkpt><trkpt lat="59.0561270714" lon="29.9823331833"><time>2026-04-25T18:59:37Z</time></trkpt><trkpt lat="59.0561056137" lon="29.9822473526"><time>2026-04-25T18:59:39Z</time></trkpt><trkpt lat="59.0560841560" lon="29.9821615219"><time>2026-04-25T18:59:42Z</time></trkpt><trkpt lat="59.0560841560" lon="29.9820756912"><time>2026-04-25T18:59:44Z</time></trkpt><trkpt lat="59.0560841560" lon="29.9821615219"><time>2026-04-25T18:59:47Z</time></trkpt><trkpt lat="59.0561056137" lon="29.9822688103"><time>2026-04-25T18:59:49Z</time></trkpt><trkpt lat="59.0560841560" lon="29.9821829796"><time>2026-04-25T18:59:52Z</time></trkpt><trkpt lat="59.0560626984" lon="29.9820971489"><time>2026-04-25T18:59:54Z</time></trkpt><trkpt lat="59.0560626984" lon="29.9819684029"><time>2026-04-25T18:59:57Z</time></trkpt><trkpt lat="59.0560412407" lon="29.9818181992"><time>2026-04-25T18:59:59Z</time></trkpt><trkpt lat="59.0560412407" lon="29.9817323685"><time>2026-04-25T19:00:02Z</time></trkpt><trkpt lat="59.0560412407" lon="29.9816679955"><time>2026-04-25T19:00:04Z</time></trkpt><trkpt lat="59.0560412407" lon="29.9816250801"><time>2026-04-25T19:00:07Z</time></trkpt><trkpt lat="59.0560841560" lon="29.9816465378"><time>2026-04-25T19:00:09Z</time></trkpt><trkpt lat="59.0561056137" lon="29.9816894531"><time>2026-04-25T19:00:12Z</time></trkpt><trkpt lat="59.0561056137" lon="29.9816894531"><time>2026-04-25T19:00:14Z</time></trkpt><trkpt lat="59.0561056137" lon="29.9816894531"><time>2026-04-25T19:00:17Z</time></trkpt><trkpt lat="59.0560841560" lon="29.9816465378"><time>2026-04-25T19:00:19Z</time></trkpt><trkpt lat="59.0560841560" lon="29.9816250801"><time>2026-04-25T19:00:22Z</time></trkpt><trkpt lat="59.0560841560" lon="29.9816250801"><time>2026-04-25T19:00:24Z</time></trkpt><trkpt lat="59.0560841560" lon="29.9816250801"><time>2026-04-25T19:00:27Z</time></trkpt><trkpt lat="59.0560841560" lon="29.9816250801"><time>2026-04-25T19:00:29Z</time></trkpt><trkpt lat="59.0560412407" lon="29.9816250801"><time>2026-04-25T19:00:32Z</time></trkpt><trkpt lat="59.0560197830" lon="29.9816465378"><time>2026-04-25T19:00:34Z</time></trkpt><trkpt lat="59.0560197830" lon="29.9816465378"><time>2026-04-25T19:00:37Z</time></trkpt><trkpt lat="59.0560197830" lon="29.9816250801"><time>2026-04-25T19:00:39Z</time></trkpt><trkpt lat="59.0560412407" lon="29.9816036224"><time>2026-04-25T19:00:42Z</time></trkpt><trkpt lat="59.0560626984" lon="29.9816465378"><time>2026-04-25T19:00:44Z</time></trkpt><trkpt lat="59.0560626984" lon="29.9818611145"><time>2026-04-25T19:00:47Z</time></trkpt><trkpt lat="59.0560412407" lon="29.9819684029"><time>2026-04-25T19:00:49Z</time></trkpt><trkpt lat="59.0562129021" lon="29.9839854240"><time>2026-04-25T19:06:17Z</time></trkpt><trkpt lat="59.0562129021" lon="29.9839854240"><time>2026-04-25T19:06:22Z</time></trkpt><trkpt lat="59.0562129021" lon="29.9839854240"><time>2026-04-25T19:06:24Z</time></trkpt><trkpt lat="59.0562129021" lon="29.9839854240"><time>2026-04-25T19:06:27Z</time></trkpt><trkpt lat="59.0562129021" lon="29.9839854240"><time>2026-04-25T19:06:29Z</time></trkpt></trkseg></trk></gpx>